<?xml version="1.0" encoding="UTF-8" standalone="no" ?>
<gpx xmlns="http://www.topografix.com/GPX/1/1" xmlns:xsi="http://www.w3.org/2001/XMLSchema-instance" xsi:schemaLocation="http://www.topografix.com/GPX/1/1 http://www.topografix.com/GPX/1/1/gpx.xsd" version="1.1" creator="VisuGPX - https://www.visugpx.com">
  <metadata>
    <name>Clerval - Ougney la Roche 5/09</name>
    <desc><![CDATA[[img][/img]]]></desc>
  </metadata>
  <trk>
    <name><![CDATA[1ère Journée  Clerval  Ougney la Roche]]></name>
    <trkseg>
      <trkpt lat="47.39367" lon="6.49369">
        <ele>276.791</ele>
        <time>2016-09-05T12:55:29.000Z</time>
      </trkpt>
      <trkpt lat="47.39367" lon="6.49369">
        <ele>276.792</ele>
        <time>2016-09-05T12:55:30.000Z</time>
      </trkpt>
      <trkpt lat="47.39367" lon="6.49369">
        <ele>276.794</ele>
        <time>2016-09-05T12:55:31.000Z</time>
      </trkpt>
      <trkpt lat="47.39367" lon="6.49369">
        <ele>276.797</ele>
        <time>2016-09-05T12:55:32.000Z</time>
      </trkpt>
      <trkpt lat="47.39367" lon="6.49369">
        <ele>277.225</ele>
        <time>2016-09-05T12:55:33.000Z</time>
      </trkpt>
      <trkpt lat="47.39367" lon="6.49369">
        <ele>277.225</ele>
        <time>2016-09-05T12:55:34.000Z</time>
      </trkpt>
      <trkpt lat="47.39367" lon="6.49368">
        <ele>277.148</ele>
        <time>2016-09-05T12:55:35.000Z</time>
      </trkpt>
      <trkpt lat="47.39367" lon="6.49368">
        <ele>275.656</ele>
        <time>2016-09-05T12:55:36.000Z</time>
      </trkpt>
      <trkpt lat="47.39367" lon="6.49368">
        <ele>275.275</ele>
        <time>2016-09-05T12:55:37.000Z</time>
      </trkpt>
      <trkpt lat="47.39367" lon="6.49368">
        <ele>275.274</ele>
        <time>2016-09-05T12:55:38.000Z</time>
      </trkpt>
      <trkpt lat="47.39367" lon="6.49368">
        <ele>275.279</ele>
        <time>2016-09-05T12:55:39.000Z</time>
      </trkpt>
      <trkpt lat="47.39367" lon="6.49368">
        <ele>275.288</ele>
        <time>2016-09-05T12:55:40.000Z</time>
      </trkpt>
      <trkpt lat="47.39367" lon="6.49368">
        <ele>275.298</ele>
        <time>2016-09-05T12:55:41.000Z</time>
      </trkpt>
      <trkpt lat="47.39367" lon="6.49368">
        <ele>275.293</ele>
        <time>2016-09-05T12:55:42.000Z</time>
      </trkpt>
      <trkpt lat="47.39367" lon="6.49368">
        <ele>275.298</ele>
        <time>2016-09-05T12:55:43.000Z</time>
      </trkpt>
      <trkpt lat="47.39367" lon="6.49368">
        <ele>275.298</ele>
        <time>2016-09-05T12:55:44.000Z</time>
      </trkpt>
      <trkpt lat="47.39367" lon="6.49368">
        <ele>275.297</ele>
        <time>2016-09-05T12:55:45.000Z</time>
      </trkpt>
      <trkpt lat="47.39367" lon="6.49368">
        <ele>275.294</ele>
        <time>2016-09-05T12:55:46.000Z</time>
      </trkpt>
      <trkpt lat="47.39367" lon="6.49368">
        <ele>275.283</ele>
        <time>2016-09-05T12:55:47.000Z</time>
      </trkpt>
      <trkpt lat="47.39367" lon="6.49368">
        <ele>275.267</ele>
        <time>2016-09-05T12:55:48.000Z</time>
      </trkpt>
      <trkpt lat="47.39367" lon="6.49368">
        <ele>275.255</ele>
        <time>2016-09-05T12:55:49.000Z</time>
      </trkpt>
      <trkpt lat="47.39367" lon="6.49368">
        <ele>275.245</ele>
        <time>2016-09-05T12:55:50.000Z</time>
      </trkpt>
      <trkpt lat="47.39367" lon="6.49368">
        <ele>275.233</ele>
        <time>2016-09-05T12:55:51.000Z</time>
      </trkpt>
      <trkpt lat="47.39367" lon="6.49368">
        <ele>275.215</ele>
        <time>2016-09-05T12:55:52.000Z</time>
      </trkpt>
      <trkpt lat="47.39367" lon="6.49368">
        <ele>275.209</ele>
        <time>2016-09-05T12:55:53.000Z</time>
      </trkpt>
      <trkpt lat="47.39367" lon="6.49368">
        <ele>275.201</ele>
        <time>2016-09-05T12:55:54.000Z</time>
      </trkpt>
      <trkpt lat="47.39367" lon="6.49368">
        <ele>275.2</ele>
        <time>2016-09-05T12:55:55.000Z</time>
      </trkpt>
      <trkpt lat="47.39367" lon="6.49368">
        <ele>275.193</ele>
        <time>2016-09-05T12:55:56.000Z</time>
      </trkpt>
      <trkpt lat="47.39367" lon="6.49368">
        <ele>275.198</ele>
        <time>2016-09-05T12:55:57.000Z</time>
      </trkpt>
      <trkpt lat="47.39367" lon="6.49368">
        <ele>275.202</ele>
        <time>2016-09-05T12:55:58.000Z</time>
      </trkpt>
      <trkpt lat="47.39367" lon="6.49368">
        <ele>275.201</ele>
        <time>2016-09-05T12:55:59.000Z</time>
      </trkpt>
      <trkpt lat="47.39369" lon="6.49369">
        <ele>277.006</ele>
        <time>2016-09-05T12:56:00.000Z</time>
      </trkpt>
      <trkpt lat="47.39369" lon="6.49369">
        <ele>277.088</ele>
        <time>2016-09-05T12:56:01.000Z</time>
      </trkpt>
      <trkpt lat="47.39369" lon="6.49369">
        <ele>277.13</ele>
        <time>2016-09-05T12:56:02.000Z</time>
      </trkpt>
      <trkpt lat="47.39369" lon="6.49369">
        <ele>277.143</ele>
        <time>2016-09-05T12:56:03.000Z</time>
      </trkpt>
      <trkpt lat="47.39369" lon="6.49369">
        <ele>277.153</ele>
        <time>2016-09-05T12:56:04.000Z</time>
      </trkpt>
      <trkpt lat="47.39369" lon="6.49369">
        <ele>277.159</ele>
        <time>2016-09-05T12:56:05.000Z</time>
      </trkpt>
      <trkpt lat="47.39369" lon="6.49369">
        <ele>277.158</ele>
        <time>2016-09-05T12:56:06.000Z</time>
      </trkpt>
      <trkpt lat="47.39369" lon="6.49369">
        <ele>277.158</ele>
        <time>2016-09-05T12:56:07.000Z</time>
      </trkpt>
      <trkpt lat="47.39369" lon="6.49369">
        <ele>277.16</ele>
        <time>2016-09-05T12:56:08.000Z</time>
      </trkpt>
      <trkpt lat="47.39369" lon="6.49369">
        <ele>277.157</ele>
        <time>2016-09-05T12:56:09.000Z</time>
      </trkpt>
      <trkpt lat="47.39369" lon="6.49369">
        <ele>277.15</ele>
        <time>2016-09-05T12:56:10.000Z</time>
      </trkpt>
      <trkpt lat="47.39369" lon="6.49369">
        <ele>277.141</ele>
        <time>2016-09-05T12:56:11.000Z</time>
      </trkpt>
      <trkpt lat="47.39369" lon="6.49369">
        <ele>277.13</ele>
        <time>2016-09-05T12:56:12.000Z</time>
      </trkpt>
      <trkpt lat="47.39369" lon="6.49369">
        <ele>277.118</ele>
        <time>2016-09-05T12:56:13.000Z</time>
      </trkpt>
      <trkpt lat="47.39369" lon="6.49369">
        <ele>277.109</ele>
        <time>2016-09-05T12:56:14.000Z</time>
      </trkpt>
      <trkpt lat="47.39369" lon="6.49369">
        <ele>277.101</ele>
        <time>2016-09-05T12:56:15.000Z</time>
      </trkpt>
      <trkpt lat="47.39369" lon="6.49369">
        <ele>277.099</ele>
        <time>2016-09-05T12:56:16.000Z</time>
      </trkpt>
      <trkpt lat="47.39369" lon="6.49369">
        <ele>277.092</ele>
        <time>2016-09-05T12:56:17.000Z</time>
      </trkpt>
      <trkpt lat="47.39369" lon="6.49369">
        <ele>277.093</ele>
        <time>2016-09-05T12:56:18.000Z</time>
      </trkpt>
      <trkpt lat="47.39369" lon="6.49369">
        <ele>277.098</ele>
        <time>2016-09-05T12:56:19.000Z</time>
      </trkpt>
      <trkpt lat="47.39369" lon="6.49369">
        <ele>277.103</ele>
        <time>2016-09-05T12:56:20.000Z</time>
      </trkpt>
      <trkpt lat="47.39369" lon="6.49369">
        <ele>277.109</ele>
        <time>2016-09-05T12:56:21.000Z</time>
      </trkpt>
      <trkpt lat="47.39369" lon="6.49369">
        <ele>277.111</ele>
        <time>2016-09-05T12:56:22.000Z</time>
      </trkpt>
      <trkpt lat="47.39369" lon="6.49369">
        <ele>277.11</ele>
        <time>2016-09-05T12:56:23.000Z</time>
      </trkpt>
      <trkpt lat="47.39369" lon="6.49369">
        <ele>277.104</ele>
        <time>2016-09-05T12:56:24.000Z</time>
      </trkpt>
      <trkpt lat="47.39369" lon="6.49369">
        <ele>277.098</ele>
        <time>2016-09-05T12:56:25.000Z</time>
      </trkpt>
      <trkpt lat="47.39369" lon="6.49369">
        <ele>277.102</ele>
        <time>2016-09-05T12:56:26.000Z</time>
      </trkpt>
      <trkpt lat="47.39369" lon="6.49369">
        <ele>277.104</ele>
        <time>2016-09-05T12:56:27.000Z</time>
      </trkpt>
      <trkpt lat="47.39369" lon="6.49369">
        <ele>276.629</ele>
        <time>2016-09-05T12:56:28.000Z</time>
      </trkpt>
      <trkpt lat="47.39369" lon="6.49369">
        <ele>276.632</ele>
        <time>2016-09-05T12:56:29.000Z</time>
      </trkpt>
      <trkpt lat="47.39369" lon="6.49369">
        <ele>276.634</ele>
        <time>2016-09-05T12:56:30.000Z</time>
      </trkpt>
      <trkpt lat="47.39368" lon="6.4937">
        <ele>276.039</ele>
        <time>2016-09-05T12:56:31.000Z</time>
      </trkpt>
      <trkpt lat="47.39367" lon="6.4937">
        <ele>276.236</ele>
        <time>2016-09-05T12:56:32.000Z</time>
      </trkpt>
      <trkpt lat="47.39366" lon="6.4937">
        <ele>276.122</ele>
        <time>2016-09-05T12:56:33.000Z</time>
      </trkpt>
      <trkpt lat="47.39365" lon="6.4937">
        <ele>276.282</ele>
        <time>2016-09-05T12:56:34.000Z</time>
      </trkpt>
      <trkpt lat="47.39364" lon="6.4937">
        <ele>276.186</ele>
        <time>2016-09-05T12:56:35.000Z</time>
      </trkpt>
      <trkpt lat="47.39363" lon="6.4937">
        <ele>275.679</ele>
        <time>2016-09-05T12:56:36.000Z</time>
      </trkpt>
      <trkpt lat="47.39363" lon="6.4937">
        <ele>275.47</ele>
        <time>2016-09-05T12:56:37.000Z</time>
      </trkpt>
      <trkpt lat="47.39362" lon="6.49369">
        <ele>274.692</ele>
        <time>2016-09-05T12:56:38.000Z</time>
      </trkpt>
      <trkpt lat="47.39361" lon="6.49368">
        <ele>275.624</ele>
        <time>2016-09-05T12:56:39.000Z</time>
      </trkpt>
      <trkpt lat="47.39361" lon="6.49366">
        <ele>275.881</ele>
        <time>2016-09-05T12:56:40.000Z</time>
      </trkpt>
      <trkpt lat="47.39361" lon="6.49365">
        <ele>276.5</ele>
        <time>2016-09-05T12:56:41.000Z</time>
      </trkpt>
      <trkpt lat="47.39361" lon="6.49363">
        <ele>277.221</ele>
        <time>2016-09-05T12:56:42.000Z</time>
      </trkpt>
      <trkpt lat="47.39361" lon="6.49361">
        <ele>277.046</ele>
        <time>2016-09-05T12:56:43.000Z</time>
      </trkpt>
      <trkpt lat="47.3936" lon="6.49359">
        <ele>276.408</ele>
        <time>2016-09-05T12:56:44.000Z</time>
      </trkpt>
      <trkpt lat="47.39359" lon="6.49358">
        <ele>276.2</ele>
        <time>2016-09-05T12:56:45.000Z</time>
      </trkpt>
      <trkpt lat="47.39357" lon="6.49358">
        <ele>275.859</ele>
        <time>2016-09-05T12:56:46.000Z</time>
      </trkpt>
      <trkpt lat="47.39357" lon="6.49358">
        <ele>276.156</ele>
        <time>2016-09-05T12:56:47.000Z</time>
      </trkpt>
      <trkpt lat="47.39357" lon="6.49358">
        <ele>276.704</ele>
        <time>2016-09-05T12:56:48.000Z</time>
      </trkpt>
      <trkpt lat="47.39357" lon="6.49358">
        <ele>276.972</ele>
        <time>2016-09-05T12:56:49.000Z</time>
      </trkpt>
      <trkpt lat="47.39357" lon="6.49358">
        <ele>276.742</ele>
        <time>2016-09-05T12:56:50.000Z</time>
      </trkpt>
      <trkpt lat="47.39357" lon="6.49358">
        <ele>277.451</ele>
        <time>2016-09-05T12:56:51.000Z</time>
      </trkpt>
      <trkpt lat="47.39357" lon="6.49358">
        <ele>277.681</ele>
        <time>2016-09-05T12:56:52.000Z</time>
      </trkpt>
      <trkpt lat="47.39357" lon="6.49358">
        <ele>277.78</ele>
        <time>2016-09-05T12:56:53.000Z</time>
      </trkpt>
      <trkpt lat="47.39357" lon="6.49358">
        <ele>277.57</ele>
        <time>2016-09-05T12:56:54.000Z</time>
      </trkpt>
      <trkpt lat="47.39357" lon="6.49358">
        <ele>277.296</ele>
        <time>2016-09-05T12:56:55.000Z</time>
      </trkpt>
      <trkpt lat="47.39359" lon="6.49361">
        <ele>276.501</ele>
        <time>2016-09-05T12:56:56.000Z</time>
      </trkpt>
      <trkpt lat="47.39359" lon="6.49361">
        <ele>275.778</ele>
        <time>2016-09-05T12:56:57.000Z</time>
      </trkpt>
      <trkpt lat="47.39359" lon="6.49361">
        <ele>275.815</ele>
        <time>2016-09-05T12:56:58.000Z</time>
      </trkpt>
      <trkpt lat="47.39359" lon="6.49361">
        <ele>275.551</ele>
        <time>2016-09-05T12:56:59.000Z</time>
      </trkpt>
      <trkpt lat="47.39359" lon="6.49361">
        <ele>275.121</ele>
        <time>2016-09-05T12:57:00.000Z</time>
      </trkpt>
      <trkpt lat="47.39359" lon="6.49361">
        <ele>275.002</ele>
        <time>2016-09-05T12:57:01.000Z</time>
      </trkpt>
      <trkpt lat="47.39359" lon="6.49361">
        <ele>274.454</ele>
        <time>2016-09-05T12:57:02.000Z</time>
      </trkpt>
      <trkpt lat="47.39359" lon="6.49361">
        <ele>275.073</ele>
        <time>2016-09-05T12:57:03.000Z</time>
      </trkpt>
      <trkpt lat="47.39359" lon="6.49361">
        <ele>274.541</ele>
        <time>2016-09-05T12:57:04.000Z</time>
      </trkpt>
      <trkpt lat="47.39359" lon="6.49361">
        <ele>274.53</ele>
        <time>2016-09-05T12:57:05.000Z</time>
      </trkpt>
      <trkpt lat="47.39359" lon="6.49361">
        <ele>274.65</ele>
        <time>2016-09-05T12:57:06.000Z</time>
      </trkpt>
      <trkpt lat="47.39359" lon="6.49361">
        <ele>275.24</ele>
        <time>2016-09-05T12:57:07.000Z</time>
      </trkpt>
      <trkpt lat="47.39359" lon="6.49361">
        <ele>275.735</ele>
        <time>2016-09-05T12:57:08.000Z</time>
      </trkpt>
      <trkpt lat="47.39359" lon="6.49361">
        <ele>276.156</ele>
        <time>2016-09-05T12:57:09.000Z</time>
      </trkpt>
      <trkpt lat="47.39359" lon="6.49361">
        <ele>276.852</ele>
        <time>2016-09-05T12:57:10.000Z</time>
      </trkpt>
      <trkpt lat="47.39361" lon="6.49364">
        <ele>276.872</ele>
        <time>2016-09-05T12:57:11.000Z</time>
      </trkpt>
      <trkpt lat="47.3936" lon="6.49364">
        <ele>276.789</ele>
        <time>2016-09-05T12:57:12.000Z</time>
      </trkpt>
      <trkpt lat="47.39359" lon="6.49364">
        <ele>277.462</ele>
        <time>2016-09-05T12:57:13.000Z</time>
      </trkpt>
      <trkpt lat="47.39358" lon="6.49364">
        <ele>277.284</ele>
        <time>2016-09-05T12:57:14.000Z</time>
      </trkpt>
      <trkpt lat="47.39356" lon="6.49364">
        <ele>277.965</ele>
        <time>2016-09-05T12:57:15.000Z</time>
      </trkpt>
      <trkpt lat="47.39354" lon="6.49364">
        <ele>277.814</ele>
        <time>2016-09-05T12:57:16.000Z</time>
      </trkpt>
      <trkpt lat="47.39352" lon="6.49364">
        <ele>277.017</ele>
        <time>2016-09-05T12:57:17.000Z</time>
      </trkpt>
      <trkpt lat="47.3935" lon="6.49363">
        <ele>276.698</ele>
        <time>2016-09-05T12:57:18.000Z</time>
      </trkpt>
      <trkpt lat="47.39348" lon="6.49364">
        <ele>276.594</ele>
        <time>2016-09-05T12:57:19.000Z</time>
      </trkpt>
      <trkpt lat="47.39345" lon="6.49364">
        <ele>276.366</ele>
        <time>2016-09-05T12:57:20.000Z</time>
      </trkpt>
      <trkpt lat="47.39342" lon="6.49365">
        <ele>276.293</ele>
        <time>2016-09-05T12:57:21.000Z</time>
      </trkpt>
      <trkpt lat="47.3934" lon="6.49365">
        <ele>276.418</ele>
        <time>2016-09-05T12:57:22.000Z</time>
      </trkpt>
      <trkpt lat="47.39338" lon="6.49365">
        <ele>276.656</ele>
        <time>2016-09-05T12:57:23.003Z</time>
      </trkpt>
      <trkpt lat="47.39335" lon="6.49366">
        <ele>276.444</ele>
        <time>2016-09-05T12:57:24.000Z</time>
      </trkpt>
      <trkpt lat="47.39333" lon="6.49366">
        <ele>277.537</ele>
        <time>2016-09-05T12:57:25.000Z</time>
      </trkpt>
      <trkpt lat="47.3933" lon="6.49366">
        <ele>276.625</ele>
        <time>2016-09-05T12:57:26.000Z</time>
      </trkpt>
      <trkpt lat="47.39327" lon="6.49368">
        <ele>277.615</ele>
        <time>2016-09-05T12:57:27.000Z</time>
      </trkpt>
      <trkpt lat="47.39324" lon="6.49369">
        <ele>277.374</ele>
        <time>2016-09-05T12:57:28.000Z</time>
      </trkpt>
      <trkpt lat="47.3932" lon="6.4937">
        <ele>277.555</ele>
        <time>2016-09-05T12:57:29.000Z</time>
      </trkpt>
      <trkpt lat="47.39317" lon="6.49372">
        <ele>277.766</ele>
        <time>2016-09-05T12:57:30.000Z</time>
      </trkpt>
      <trkpt lat="47.39314" lon="6.49373">
        <ele>277.549</ele>
        <time>2016-09-05T12:57:31.000Z</time>
      </trkpt>
      <trkpt lat="47.3931" lon="6.49374">
        <ele>276.899</ele>
        <time>2016-09-05T12:57:32.000Z</time>
      </trkpt>
      <trkpt lat="47.39306" lon="6.49374">
        <ele>276.571</ele>
        <time>2016-09-05T12:57:33.000Z</time>
      </trkpt>
      <trkpt lat="47.39302" lon="6.49375">
        <ele>275.933</ele>
        <time>2016-09-05T12:57:34.000Z</time>
      </trkpt>
      <trkpt lat="47.39299" lon="6.49375">
        <ele>276.057</ele>
        <time>2016-09-05T12:57:35.000Z</time>
      </trkpt>
      <trkpt lat="47.39295" lon="6.49375">
        <ele>275.363</ele>
        <time>2016-09-05T12:57:36.000Z</time>
      </trkpt>
      <trkpt lat="47.3929" lon="6.49376">
        <ele>275.238</ele>
        <time>2016-09-05T12:57:37.000Z</time>
      </trkpt>
      <trkpt lat="47.39286" lon="6.49376">
        <ele>275.048</ele>
        <time>2016-09-05T12:57:38.000Z</time>
      </trkpt>
      <trkpt lat="47.39282" lon="6.49377">
        <ele>274.873</ele>
        <time>2016-09-05T12:57:39.000Z</time>
      </trkpt>
      <trkpt lat="47.39278" lon="6.49377">
        <ele>274.352</ele>
        <time>2016-09-05T12:57:40.000Z</time>
      </trkpt>
      <trkpt lat="47.39275" lon="6.49377">
        <ele>274.267</ele>
        <time>2016-09-05T12:57:41.000Z</time>
      </trkpt>
      <trkpt lat="47.39271" lon="6.49377">
        <ele>274.144</ele>
        <time>2016-09-05T12:57:42.000Z</time>
      </trkpt>
      <trkpt lat="47.39267" lon="6.49377">
        <ele>273.223</ele>
        <time>2016-09-05T12:57:43.000Z</time>
      </trkpt>
      <trkpt lat="47.39263" lon="6.49377">
        <ele>273.826</ele>
        <time>2016-09-05T12:57:44.000Z</time>
      </trkpt>
      <trkpt lat="47.39259" lon="6.49377">
        <ele>274.091</ele>
        <time>2016-09-05T12:57:45.000Z</time>
      </trkpt>
      <trkpt lat="47.39255" lon="6.49377">
        <ele>274.461</ele>
        <time>2016-09-05T12:57:46.000Z</time>
      </trkpt>
      <trkpt lat="47.39251" lon="6.49377">
        <ele>275.388</ele>
        <time>2016-09-05T12:57:47.000Z</time>
      </trkpt>
      <trkpt lat="47.39248" lon="6.49377">
        <ele>275.436</ele>
        <time>2016-09-05T12:57:48.000Z</time>
      </trkpt>
      <trkpt lat="47.39243" lon="6.49378">
        <ele>275.519</ele>
        <time>2016-09-05T12:57:49.000Z</time>
      </trkpt>
      <trkpt lat="47.39239" lon="6.49379">
        <ele>276.409</ele>
        <time>2016-09-05T12:57:50.000Z</time>
      </trkpt>
      <trkpt lat="47.39235" lon="6.49381">
        <ele>277.262</ele>
        <time>2016-09-05T12:57:51.000Z</time>
      </trkpt>
      <trkpt lat="47.39231" lon="6.49383">
        <ele>277.332</ele>
        <time>2016-09-05T12:57:52.000Z</time>
      </trkpt>
      <trkpt lat="47.39228" lon="6.49386">
        <ele>278.269</ele>
        <time>2016-09-05T12:57:53.000Z</time>
      </trkpt>
      <trkpt lat="47.39225" lon="6.49389">
        <ele>279.356</ele>
        <time>2016-09-05T12:57:54.000Z</time>
      </trkpt>
      <trkpt lat="47.39222" lon="6.49392">
        <ele>280.007</ele>
        <time>2016-09-05T12:57:55.000Z</time>
      </trkpt>
      <trkpt lat="47.39218" lon="6.49395">
        <ele>278.217</ele>
        <time>2016-09-05T12:57:56.000Z</time>
      </trkpt>
      <trkpt lat="47.39215" lon="6.49399">
        <ele>278.352</ele>
        <time>2016-09-05T12:57:57.000Z</time>
      </trkpt>
      <trkpt lat="47.39212" lon="6.49402">
        <ele>278.043</ele>
        <time>2016-09-05T12:57:58.000Z</time>
      </trkpt>
      <trkpt lat="47.39208" lon="6.49406">
        <ele>279.405</ele>
        <time>2016-09-05T12:57:59.000Z</time>
      </trkpt>
      <trkpt lat="47.39205" lon="6.4941">
        <ele>279.966</ele>
        <time>2016-09-05T12:58:00.000Z</time>
      </trkpt>
      <trkpt lat="47.39202" lon="6.49414">
        <ele>280.542</ele>
        <time>2016-09-05T12:58:01.000Z</time>
      </trkpt>
      <trkpt lat="47.39199" lon="6.49418">
        <ele>280.519</ele>
        <time>2016-09-05T12:58:02.000Z</time>
      </trkpt>
      <trkpt lat="47.39197" lon="6.49421">
        <ele>280.85</ele>
        <time>2016-09-05T12:58:03.000Z</time>
      </trkpt>
      <trkpt lat="47.39194" lon="6.49424">
        <ele>280.839</ele>
        <time>2016-09-05T12:58:04.000Z</time>
      </trkpt>
      <trkpt lat="47.39191" lon="6.49428">
        <ele>280.394</ele>
        <time>2016-09-05T12:58:05.000Z</time>
      </trkpt>
      <trkpt lat="47.39189" lon="6.49431">
        <ele>281.576</ele>
        <time>2016-09-05T12:58:06.000Z</time>
      </trkpt>
      <trkpt lat="47.39188" lon="6.49435">
        <ele>282.615</ele>
        <time>2016-09-05T12:58:07.000Z</time>
      </trkpt>
      <trkpt lat="47.39186" lon="6.49438">
        <ele>279.534</ele>
        <time>2016-09-05T12:58:08.000Z</time>
      </trkpt>
      <trkpt lat="47.39185" lon="6.49441">
        <ele>279.937</ele>
        <time>2016-09-05T12:58:09.000Z</time>
      </trkpt>
      <trkpt lat="47.39183" lon="6.49445">
        <ele>280.361</ele>
        <time>2016-09-05T12:58:10.000Z</time>
      </trkpt>
      <trkpt lat="47.39182" lon="6.49449">
        <ele>281.037</ele>
        <time>2016-09-05T12:58:11.000Z</time>
      </trkpt>
      <trkpt lat="47.39181" lon="6.49454">
        <ele>282.942</ele>
        <time>2016-09-05T12:58:12.000Z</time>
      </trkpt>
      <trkpt lat="47.3918" lon="6.49458">
        <ele>283.583</ele>
        <time>2016-09-05T12:58:13.000Z</time>
      </trkpt>
      <trkpt lat="47.39179" lon="6.49463">
        <ele>283.655</ele>
        <time>2016-09-05T12:58:14.000Z</time>
      </trkpt>
      <trkpt lat="47.39179" lon="6.49467">
        <ele>283.893</ele>
        <time>2016-09-05T12:58:15.000Z</time>
      </trkpt>
      <trkpt lat="47.39179" lon="6.49471">
        <ele>285.525</ele>
        <time>2016-09-05T12:58:16.000Z</time>
      </trkpt>
      <trkpt lat="47.3918" lon="6.49475">
        <ele>286.481</ele>
        <time>2016-09-05T12:58:17.000Z</time>
      </trkpt>
      <trkpt lat="47.39181" lon="6.4948">
        <ele>286.012</ele>
        <time>2016-09-05T12:58:18.000Z</time>
      </trkpt>
      <trkpt lat="47.39184" lon="6.49484">
        <ele>285.807</ele>
        <time>2016-09-05T12:58:19.000Z</time>
      </trkpt>
      <trkpt lat="47.39187" lon="6.49487">
        <ele>285.251</ele>
        <time>2016-09-05T12:58:20.000Z</time>
      </trkpt>
      <trkpt lat="47.39191" lon="6.4949">
        <ele>285.393</ele>
        <time>2016-09-05T12:58:21.000Z</time>
      </trkpt>
      <trkpt lat="47.39194" lon="6.49494">
        <ele>286.206</ele>
        <time>2016-09-05T12:58:22.000Z</time>
      </trkpt>
      <trkpt lat="47.39197" lon="6.49497">
        <ele>286.361</ele>
        <time>2016-09-05T12:58:23.000Z</time>
      </trkpt>
      <trkpt lat="47.392" lon="6.49501">
        <ele>286.335</ele>
        <time>2016-09-05T12:58:24.000Z</time>
      </trkpt>
      <trkpt lat="47.39203" lon="6.49506">
        <ele>286.019</ele>
        <time>2016-09-05T12:58:25.000Z</time>
      </trkpt>
      <trkpt lat="47.39207" lon="6.4951">
        <ele>286.02</ele>
        <time>2016-09-05T12:58:26.000Z</time>
      </trkpt>
      <trkpt lat="47.3921" lon="6.49515">
        <ele>285.646</ele>
        <time>2016-09-05T12:58:27.000Z</time>
      </trkpt>
      <trkpt lat="47.39213" lon="6.4952">
        <ele>284.7</ele>
        <time>2016-09-05T12:58:28.000Z</time>
      </trkpt>
      <trkpt lat="47.39216" lon="6.49524">
        <ele>284.453</ele>
        <time>2016-09-05T12:58:29.000Z</time>
      </trkpt>
      <trkpt lat="47.39219" lon="6.49529">
        <ele>283.712</ele>
        <time>2016-09-05T12:58:30.000Z</time>
      </trkpt>
      <trkpt lat="47.39222" lon="6.49534">
        <ele>283.335</ele>
        <time>2016-09-05T12:58:31.000Z</time>
      </trkpt>
      <trkpt lat="47.39225" lon="6.49538">
        <ele>283.093</ele>
        <time>2016-09-05T12:58:32.000Z</time>
      </trkpt>
      <trkpt lat="47.39228" lon="6.49543">
        <ele>282.844</ele>
        <time>2016-09-05T12:58:33.000Z</time>
      </trkpt>
      <trkpt lat="47.39231" lon="6.49547">
        <ele>282.504</ele>
        <time>2016-09-05T12:58:34.000Z</time>
      </trkpt>
      <trkpt lat="47.39235" lon="6.49553">
        <ele>282.157</ele>
        <time>2016-09-05T12:58:35.000Z</time>
      </trkpt>
      <trkpt lat="47.39238" lon="6.49558">
        <ele>282.266</ele>
        <time>2016-09-05T12:58:36.000Z</time>
      </trkpt>
      <trkpt lat="47.39241" lon="6.49562">
        <ele>282.369</ele>
        <time>2016-09-05T12:58:37.000Z</time>
      </trkpt>
      <trkpt lat="47.39244" lon="6.49568">
        <ele>282.345</ele>
        <time>2016-09-05T12:58:38.000Z</time>
      </trkpt>
      <trkpt lat="47.39247" lon="6.49573">
        <ele>282.222</ele>
        <time>2016-09-05T12:58:39.000Z</time>
      </trkpt>
      <trkpt lat="47.3925" lon="6.4958">
        <ele>282.417</ele>
        <time>2016-09-05T12:58:40.000Z</time>
      </trkpt>
      <trkpt lat="47.39252" lon="6.49586">
        <ele>282.652</ele>
        <time>2016-09-05T12:58:41.000Z</time>
      </trkpt>
      <trkpt lat="47.39256" lon="6.49593">
        <ele>282.995</ele>
        <time>2016-09-05T12:58:42.000Z</time>
      </trkpt>
      <trkpt lat="47.39261" lon="6.49598">
        <ele>284.686</ele>
        <time>2016-09-05T12:58:43.000Z</time>
      </trkpt>
      <trkpt lat="47.39265" lon="6.49603">
        <ele>284.723</ele>
        <time>2016-09-05T12:58:44.000Z</time>
      </trkpt>
      <trkpt lat="47.39268" lon="6.49609">
        <ele>284.893</ele>
        <time>2016-09-05T12:58:45.000Z</time>
      </trkpt>
      <trkpt lat="47.39271" lon="6.49614">
        <ele>284.921</ele>
        <time>2016-09-05T12:58:46.000Z</time>
      </trkpt>
      <trkpt lat="47.39273" lon="6.49619">
        <ele>283.779</ele>
        <time>2016-09-05T12:58:47.000Z</time>
      </trkpt>
      <trkpt lat="47.39278" lon="6.49624">
        <ele>282.625</ele>
        <time>2016-09-05T12:58:48.000Z</time>
      </trkpt>
      <trkpt lat="47.3928" lon="6.49629">
        <ele>282.051</ele>
        <time>2016-09-05T12:58:49.000Z</time>
      </trkpt>
      <trkpt lat="47.3928" lon="6.49635">
        <ele>281.656</ele>
        <time>2016-09-05T12:58:50.000Z</time>
      </trkpt>
      <trkpt lat="47.39282" lon="6.49639">
        <ele>281.738</ele>
        <time>2016-09-05T12:58:51.000Z</time>
      </trkpt>
      <trkpt lat="47.39285" lon="6.49643">
        <ele>282.188</ele>
        <time>2016-09-05T12:58:52.000Z</time>
      </trkpt>
      <trkpt lat="47.39288" lon="6.49646">
        <ele>282.574</ele>
        <time>2016-09-05T12:58:53.000Z</time>
      </trkpt>
      <trkpt lat="47.39291" lon="6.4965">
        <ele>281.406</ele>
        <time>2016-09-05T12:58:54.000Z</time>
      </trkpt>
      <trkpt lat="47.39293" lon="6.49657">
        <ele>281.362</ele>
        <time>2016-09-05T12:58:55.000Z</time>
      </trkpt>
      <trkpt lat="47.39295" lon="6.49663">
        <ele>281.949</ele>
        <time>2016-09-05T12:58:56.000Z</time>
      </trkpt>
      <trkpt lat="47.39297" lon="6.49667">
        <ele>282.031</ele>
        <time>2016-09-05T12:58:57.000Z</time>
      </trkpt>
      <trkpt lat="47.39298" lon="6.49669">
        <ele>280.66</ele>
        <time>2016-09-05T12:58:58.000Z</time>
      </trkpt>
      <trkpt lat="47.39299" lon="6.49672">
        <ele>280.443</ele>
        <time>2016-09-05T12:58:59.000Z</time>
      </trkpt>
      <trkpt lat="47.39301" lon="6.49676">
        <ele>280.398</ele>
        <time>2016-09-05T12:59:00.000Z</time>
      </trkpt>
      <trkpt lat="47.39302" lon="6.4968">
        <ele>280.124</ele>
        <time>2016-09-05T12:59:01.000Z</time>
      </trkpt>
      <trkpt lat="47.39303" lon="6.49682">
        <ele>279.755</ele>
        <time>2016-09-05T12:59:02.000Z</time>
      </trkpt>
      <trkpt lat="47.39304" lon="6.49685">
        <ele>279.632</ele>
        <time>2016-09-05T12:59:03.000Z</time>
      </trkpt>
      <trkpt lat="47.39305" lon="6.49688">
        <ele>279.757</ele>
        <time>2016-09-05T12:59:04.000Z</time>
      </trkpt>
      <trkpt lat="47.39305" lon="6.4969">
        <ele>283.765</ele>
        <time>2016-09-05T12:59:05.000Z</time>
      </trkpt>
      <trkpt lat="47.39304" lon="6.49692">
        <ele>284.508</ele>
        <time>2016-09-05T12:59:06.000Z</time>
      </trkpt>
      <trkpt lat="47.39301" lon="6.49695">
        <ele>285.127</ele>
        <time>2016-09-05T12:59:07.000Z</time>
      </trkpt>
      <trkpt lat="47.393" lon="6.49696">
        <ele>286.488</ele>
        <time>2016-09-05T12:59:08.000Z</time>
      </trkpt>
      <trkpt lat="47.39299" lon="6.49697">
        <ele>287.743</ele>
        <time>2016-09-05T12:59:09.000Z</time>
      </trkpt>
      <trkpt lat="47.39297" lon="6.49699">
        <ele>289.345</ele>
        <time>2016-09-05T12:59:10.000Z</time>
      </trkpt>
      <trkpt lat="47.39295" lon="6.49701">
        <ele>289.488</ele>
        <time>2016-09-05T12:59:11.000Z</time>
      </trkpt>
      <trkpt lat="47.39293" lon="6.49703">
        <ele>289.744</ele>
        <time>2016-09-05T12:59:12.000Z</time>
      </trkpt>
      <trkpt lat="47.3929" lon="6.49705">
        <ele>287.772</ele>
        <time>2016-09-05T12:59:13.000Z</time>
      </trkpt>
      <trkpt lat="47.39287" lon="6.49707">
        <ele>288.343</ele>
        <time>2016-09-05T12:59:14.000Z</time>
      </trkpt>
      <trkpt lat="47.39285" lon="6.49709">
        <ele>288.778</ele>
        <time>2016-09-05T12:59:15.000Z</time>
      </trkpt>
      <trkpt lat="47.39283" lon="6.49712">
        <ele>287.891</ele>
        <time>2016-09-05T12:59:16.000Z</time>
      </trkpt>
      <trkpt lat="47.39281" lon="6.49715">
        <ele>288.178</ele>
        <time>2016-09-05T12:59:17.000Z</time>
      </trkpt>
      <trkpt lat="47.39279" lon="6.49718">
        <ele>287.52</ele>
        <time>2016-09-05T12:59:18.000Z</time>
      </trkpt>
      <trkpt lat="47.39278" lon="6.49721">
        <ele>286.372</ele>
        <time>2016-09-05T12:59:19.000Z</time>
      </trkpt>
      <trkpt lat="47.39277" lon="6.49724">
        <ele>286.201</ele>
        <time>2016-09-05T12:59:20.000Z</time>
      </trkpt>
      <trkpt lat="47.39275" lon="6.49728">
        <ele>286.7</ele>
        <time>2016-09-05T12:59:21.000Z</time>
      </trkpt>
      <trkpt lat="47.39274" lon="6.4973">
        <ele>286.558</ele>
        <time>2016-09-05T12:59:22.000Z</time>
      </trkpt>
      <trkpt lat="47.39272" lon="6.49732">
        <ele>286.493</ele>
        <time>2016-09-05T12:59:23.000Z</time>
      </trkpt>
      <trkpt lat="47.3927" lon="6.49734">
        <ele>286.388</ele>
        <time>2016-09-05T12:59:24.000Z</time>
      </trkpt>
      <trkpt lat="47.39268" lon="6.49735">
        <ele>287.15</ele>
        <time>2016-09-05T12:59:25.000Z</time>
      </trkpt>
      <trkpt lat="47.39265" lon="6.49737">
        <ele>286.91</ele>
        <time>2016-09-05T12:59:26.000Z</time>
      </trkpt>
      <trkpt lat="47.39262" lon="6.49738">
        <ele>286.482</ele>
        <time>2016-09-05T12:59:27.000Z</time>
      </trkpt>
      <trkpt lat="47.3926" lon="6.4974">
        <ele>285.703</ele>
        <time>2016-09-05T12:59:28.000Z</time>
      </trkpt>
      <trkpt lat="47.39257" lon="6.49742">
        <ele>285.45</ele>
        <time>2016-09-05T12:59:29.000Z</time>
      </trkpt>
      <trkpt lat="47.39255" lon="6.49744">
        <ele>285.911</ele>
        <time>2016-09-05T12:59:30.000Z</time>
      </trkpt>
      <trkpt lat="47.39253" lon="6.49746">
        <ele>285.973</ele>
        <time>2016-09-05T12:59:31.000Z</time>
      </trkpt>
      <trkpt lat="47.39251" lon="6.49749">
        <ele>285.517</ele>
        <time>2016-09-05T12:59:32.000Z</time>
      </trkpt>
      <trkpt lat="47.39249" lon="6.49752">
        <ele>284.758</ele>
        <time>2016-09-05T12:59:33.000Z</time>
      </trkpt>
      <trkpt lat="47.39247" lon="6.49755">
        <ele>284.157</ele>
        <time>2016-09-05T12:59:34.000Z</time>
      </trkpt>
      <trkpt lat="47.39246" lon="6.49759">
        <ele>283.263</ele>
        <time>2016-09-05T12:59:35.000Z</time>
      </trkpt>
      <trkpt lat="47.39245" lon="6.49762">
        <ele>283.29</ele>
        <time>2016-09-05T12:59:36.000Z</time>
      </trkpt>
      <trkpt lat="47.39243" lon="6.49765">
        <ele>285.267</ele>
        <time>2016-09-05T12:59:37.000Z</time>
      </trkpt>
      <trkpt lat="47.39241" lon="6.49769">
        <ele>285.535</ele>
        <time>2016-09-05T12:59:38.000Z</time>
      </trkpt>
      <trkpt lat="47.39239" lon="6.49772">
        <ele>287.883</ele>
        <time>2016-09-05T12:59:39.000Z</time>
      </trkpt>
      <trkpt lat="47.39237" lon="6.49775">
        <ele>287.338</ele>
        <time>2016-09-05T12:59:40.000Z</time>
      </trkpt>
      <trkpt lat="47.39235" lon="6.49778">
        <ele>286.826</ele>
        <time>2016-09-05T12:59:41.000Z</time>
      </trkpt>
      <trkpt lat="47.39233" lon="6.49782">
        <ele>287.754</ele>
        <time>2016-09-05T12:59:42.000Z</time>
      </trkpt>
      <trkpt lat="47.39231" lon="6.49785">
        <ele>286.632</ele>
        <time>2016-09-05T12:59:43.000Z</time>
      </trkpt>
      <trkpt lat="47.3923" lon="6.49788">
        <ele>286.291</ele>
        <time>2016-09-05T12:59:44.000Z</time>
      </trkpt>
      <trkpt lat="47.39229" lon="6.49791">
        <ele>287.268</ele>
        <time>2016-09-05T12:59:45.000Z</time>
      </trkpt>
      <trkpt lat="47.39227" lon="6.49795">
        <ele>289.143</ele>
        <time>2016-09-05T12:59:46.000Z</time>
      </trkpt>
      <trkpt lat="47.39225" lon="6.49799">
        <ele>291.139</ele>
        <time>2016-09-05T12:59:47.000Z</time>
      </trkpt>
      <trkpt lat="47.39223" lon="6.49802">
        <ele>292.119</ele>
        <time>2016-09-05T12:59:48.000Z</time>
      </trkpt>
      <trkpt lat="47.39221" lon="6.49805">
        <ele>292.893</ele>
        <time>2016-09-05T12:59:49.000Z</time>
      </trkpt>
      <trkpt lat="47.39219" lon="6.49807">
        <ele>293.973</ele>
        <time>2016-09-05T12:59:50.000Z</time>
      </trkpt>
      <trkpt lat="47.39217" lon="6.49809">
        <ele>293.053</ele>
        <time>2016-09-05T12:59:51.000Z</time>
      </trkpt>
      <trkpt lat="47.39216" lon="6.49811">
        <ele>293.059</ele>
        <time>2016-09-05T12:59:52.000Z</time>
      </trkpt>
      <trkpt lat="47.39214" lon="6.49813">
        <ele>295.117</ele>
        <time>2016-09-05T12:59:53.000Z</time>
      </trkpt>
      <trkpt lat="47.39212" lon="6.49815">
        <ele>296.126</ele>
        <time>2016-09-05T12:59:54.000Z</time>
      </trkpt>
      <trkpt lat="47.39211" lon="6.49818">
        <ele>296.179</ele>
        <time>2016-09-05T12:59:55.000Z</time>
      </trkpt>
      <trkpt lat="47.39209" lon="6.4982">
        <ele>296.602</ele>
        <time>2016-09-05T12:59:56.000Z</time>
      </trkpt>
      <trkpt lat="47.39207" lon="6.49822">
        <ele>295.336</ele>
        <time>2016-09-05T12:59:57.000Z</time>
      </trkpt>
      <trkpt lat="47.39204" lon="6.49825">
        <ele>294.873</ele>
        <time>2016-09-05T12:59:58.000Z</time>
      </trkpt>
      <trkpt lat="47.39202" lon="6.49827">
        <ele>296.191</ele>
        <time>2016-09-05T12:59:59.000Z</time>
      </trkpt>
      <trkpt lat="47.392" lon="6.49829">
        <ele>297.462</ele>
        <time>2016-09-05T13:00:00.000Z</time>
      </trkpt>
      <trkpt lat="47.39199" lon="6.49831">
        <ele>299.651</ele>
        <time>2016-09-05T13:00:01.000Z</time>
      </trkpt>
      <trkpt lat="47.39197" lon="6.49833">
        <ele>299.068</ele>
        <time>2016-09-05T13:00:02.000Z</time>
      </trkpt>
      <trkpt lat="47.39195" lon="6.49835">
        <ele>298.713</ele>
        <time>2016-09-05T13:00:03.000Z</time>
      </trkpt>
      <trkpt lat="47.39193" lon="6.49837">
        <ele>298.053</ele>
        <time>2016-09-05T13:00:04.000Z</time>
      </trkpt>
      <trkpt lat="47.39191" lon="6.49839">
        <ele>297.413</ele>
        <time>2016-09-05T13:00:05.000Z</time>
      </trkpt>
      <trkpt lat="47.39189" lon="6.49842">
        <ele>298.441</ele>
        <time>2016-09-05T13:00:06.000Z</time>
      </trkpt>
      <trkpt lat="47.39187" lon="6.49844">
        <ele>299.064</ele>
        <time>2016-09-05T13:00:07.000Z</time>
      </trkpt>
      <trkpt lat="47.39185" lon="6.49846">
        <ele>299.711</ele>
        <time>2016-09-05T13:00:08.000Z</time>
      </trkpt>
      <trkpt lat="47.39183" lon="6.49848">
        <ele>299.603</ele>
        <time>2016-09-05T13:00:09.000Z</time>
      </trkpt>
      <trkpt lat="47.39181" lon="6.4985">
        <ele>299.166</ele>
        <time>2016-09-05T13:00:10.000Z</time>
      </trkpt>
      <trkpt lat="47.39179" lon="6.49852">
        <ele>298.941</ele>
        <time>2016-09-05T13:00:11.000Z</time>
      </trkpt>
      <trkpt lat="47.39176" lon="6.49854">
        <ele>299.109</ele>
        <time>2016-09-05T13:00:12.000Z</time>
      </trkpt>
      <trkpt lat="47.39174" lon="6.49857">
        <ele>299.518</ele>
        <time>2016-09-05T13:00:13.000Z</time>
      </trkpt>
      <trkpt lat="47.39172" lon="6.49859">
        <ele>300.347</ele>
        <time>2016-09-05T13:00:14.000Z</time>
      </trkpt>
      <trkpt lat="47.3917" lon="6.49861">
        <ele>299.383</ele>
        <time>2016-09-05T13:00:15.000Z</time>
      </trkpt>
      <trkpt lat="47.39168" lon="6.49863">
        <ele>299.793</ele>
        <time>2016-09-05T13:00:16.000Z</time>
      </trkpt>
      <trkpt lat="47.39166" lon="6.49866">
        <ele>299.323</ele>
        <time>2016-09-05T13:00:17.000Z</time>
      </trkpt>
      <trkpt lat="47.39164" lon="6.49868">
        <ele>299.574</ele>
        <time>2016-09-05T13:00:18.000Z</time>
      </trkpt>
      <trkpt lat="47.39161" lon="6.4987">
        <ele>299.109</ele>
        <time>2016-09-05T13:00:19.000Z</time>
      </trkpt>
      <trkpt lat="47.39159" lon="6.49872">
        <ele>299.499</ele>
        <time>2016-09-05T13:00:20.000Z</time>
      </trkpt>
      <trkpt lat="47.39157" lon="6.49875">
        <ele>297.864</ele>
        <time>2016-09-05T13:00:21.000Z</time>
      </trkpt>
      <trkpt lat="47.39155" lon="6.49878">
        <ele>295.914</ele>
        <time>2016-09-05T13:00:22.000Z</time>
      </trkpt>
      <trkpt lat="47.39153" lon="6.49881">
        <ele>295.231</ele>
        <time>2016-09-05T13:00:23.000Z</time>
      </trkpt>
      <trkpt lat="47.3915" lon="6.49884">
        <ele>295.687</ele>
        <time>2016-09-05T13:00:24.000Z</time>
      </trkpt>
      <trkpt lat="47.39147" lon="6.49887">
        <ele>295.009</ele>
        <time>2016-09-05T13:00:25.000Z</time>
      </trkpt>
      <trkpt lat="47.39144" lon="6.49889">
        <ele>295.537</ele>
        <time>2016-09-05T13:00:26.000Z</time>
      </trkpt>
      <trkpt lat="47.39142" lon="6.49891">
        <ele>297.691</ele>
        <time>2016-09-05T13:00:27.000Z</time>
      </trkpt>
      <trkpt lat="47.39141" lon="6.49894">
        <ele>297.392</ele>
        <time>2016-09-05T13:00:28.000Z</time>
      </trkpt>
      <trkpt lat="47.39139" lon="6.49896">
        <ele>297.693</ele>
        <time>2016-09-05T13:00:29.000Z</time>
      </trkpt>
      <trkpt lat="47.39137" lon="6.49899">
        <ele>298.52</ele>
        <time>2016-09-05T13:00:30.000Z</time>
      </trkpt>
      <trkpt lat="47.39135" lon="6.49901">
        <ele>298.72</ele>
        <time>2016-09-05T13:00:31.000Z</time>
      </trkpt>
      <trkpt lat="47.39133" lon="6.49904">
        <ele>297.814</ele>
        <time>2016-09-05T13:00:32.000Z</time>
      </trkpt>
      <trkpt lat="47.39132" lon="6.49907">
        <ele>294.767</ele>
        <time>2016-09-05T13:00:33.000Z</time>
      </trkpt>
      <trkpt lat="47.3913" lon="6.49909">
        <ele>294.69</ele>
        <time>2016-09-05T13:00:34.000Z</time>
      </trkpt>
      <trkpt lat="47.39128" lon="6.49911">
        <ele>294.823</ele>
        <time>2016-09-05T13:00:35.000Z</time>
      </trkpt>
      <trkpt lat="47.39126" lon="6.49914">
        <ele>294.444</ele>
        <time>2016-09-05T13:00:36.000Z</time>
      </trkpt>
      <trkpt lat="47.39124" lon="6.49916">
        <ele>294.217</ele>
        <time>2016-09-05T13:00:37.000Z</time>
      </trkpt>
      <trkpt lat="47.39122" lon="6.49918">
        <ele>293.365</ele>
        <time>2016-09-05T13:00:38.000Z</time>
      </trkpt>
      <trkpt lat="47.3912" lon="6.4992">
        <ele>293.669</ele>
        <time>2016-09-05T13:00:39.000Z</time>
      </trkpt>
      <trkpt lat="47.39117" lon="6.49923">
        <ele>293.464</ele>
        <time>2016-09-05T13:00:40.000Z</time>
      </trkpt>
      <trkpt lat="47.39115" lon="6.49925">
        <ele>293.336</ele>
        <time>2016-09-05T13:00:41.000Z</time>
      </trkpt>
      <trkpt lat="47.39113" lon="6.49928">
        <ele>292.65</ele>
        <time>2016-09-05T13:00:42.000Z</time>
      </trkpt>
      <trkpt lat="47.3911" lon="6.4993">
        <ele>293.094</ele>
        <time>2016-09-05T13:00:43.000Z</time>
      </trkpt>
      <trkpt lat="47.39107" lon="6.49933">
        <ele>292.246</ele>
        <time>2016-09-05T13:00:44.000Z</time>
      </trkpt>
      <trkpt lat="47.39105" lon="6.49935">
        <ele>291.138</ele>
        <time>2016-09-05T13:00:45.000Z</time>
      </trkpt>
      <trkpt lat="47.39102" lon="6.49938">
        <ele>291.589</ele>
        <time>2016-09-05T13:00:46.000Z</time>
      </trkpt>
      <trkpt lat="47.391" lon="6.4994">
        <ele>292.136</ele>
        <time>2016-09-05T13:00:47.000Z</time>
      </trkpt>
      <trkpt lat="47.39097" lon="6.49941">
        <ele>292.203</ele>
        <time>2016-09-05T13:00:48.000Z</time>
      </trkpt>
      <trkpt lat="47.39094" lon="6.49944">
        <ele>291.043</ele>
        <time>2016-09-05T13:00:49.000Z</time>
      </trkpt>
      <trkpt lat="47.39092" lon="6.49946">
        <ele>291.303</ele>
        <time>2016-09-05T13:00:50.000Z</time>
      </trkpt>
      <trkpt lat="47.39089" lon="6.49948">
        <ele>292.887</ele>
        <time>2016-09-05T13:00:51.000Z</time>
      </trkpt>
      <trkpt lat="47.39087" lon="6.4995">
        <ele>291.662</ele>
        <time>2016-09-05T13:00:52.000Z</time>
      </trkpt>
      <trkpt lat="47.39084" lon="6.49952">
        <ele>291.715</ele>
        <time>2016-09-05T13:00:53.000Z</time>
      </trkpt>
      <trkpt lat="47.39082" lon="6.49954">
        <ele>293.36</ele>
        <time>2016-09-05T13:00:54.000Z</time>
      </trkpt>
      <trkpt lat="47.39079" lon="6.49955">
        <ele>293.416</ele>
        <time>2016-09-05T13:00:55.000Z</time>
      </trkpt>
      <trkpt lat="47.39078" lon="6.49956">
        <ele>292.314</ele>
        <time>2016-09-05T13:00:56.000Z</time>
      </trkpt>
      <trkpt lat="47.39076" lon="6.49958">
        <ele>291.915</ele>
        <time>2016-09-05T13:00:57.000Z</time>
      </trkpt>
      <trkpt lat="47.39074" lon="6.4996">
        <ele>291.879</ele>
        <time>2016-09-05T13:00:58.000Z</time>
      </trkpt>
      <trkpt lat="47.39072" lon="6.49963">
        <ele>292.33</ele>
        <time>2016-09-05T13:00:59.000Z</time>
      </trkpt>
      <trkpt lat="47.3907" lon="6.49964">
        <ele>293.478</ele>
        <time>2016-09-05T13:01:00.000Z</time>
      </trkpt>
      <trkpt lat="47.39068" lon="6.49966">
        <ele>293.845</ele>
        <time>2016-09-05T13:01:01.000Z</time>
      </trkpt>
      <trkpt lat="47.39066" lon="6.49968">
        <ele>295.194</ele>
        <time>2016-09-05T13:01:02.000Z</time>
      </trkpt>
      <trkpt lat="47.39063" lon="6.4997">
        <ele>295.395</ele>
        <time>2016-09-05T13:01:03.000Z</time>
      </trkpt>
      <trkpt lat="47.39062" lon="6.49971">
        <ele>294.169</ele>
        <time>2016-09-05T13:01:04.000Z</time>
      </trkpt>
      <trkpt lat="47.3906" lon="6.49973">
        <ele>293.917</ele>
        <time>2016-09-05T13:01:05.000Z</time>
      </trkpt>
      <trkpt lat="47.39059" lon="6.49975">
        <ele>294.813</ele>
        <time>2016-09-05T13:01:06.000Z</time>
      </trkpt>
      <trkpt lat="47.39057" lon="6.49976">
        <ele>296.464</ele>
        <time>2016-09-05T13:01:07.000Z</time>
      </trkpt>
      <trkpt lat="47.39056" lon="6.49978">
        <ele>296.911</ele>
        <time>2016-09-05T13:01:08.000Z</time>
      </trkpt>
      <trkpt lat="47.39054" lon="6.4998">
        <ele>297.555</ele>
        <time>2016-09-05T13:01:09.000Z</time>
      </trkpt>
      <trkpt lat="47.39053" lon="6.49982">
        <ele>297.492</ele>
        <time>2016-09-05T13:01:10.000Z</time>
      </trkpt>
      <trkpt lat="47.39051" lon="6.49984">
        <ele>297.439</ele>
        <time>2016-09-05T13:01:11.000Z</time>
      </trkpt>
      <trkpt lat="47.39049" lon="6.49986">
        <ele>297.384</ele>
        <time>2016-09-05T13:01:12.000Z</time>
      </trkpt>
      <trkpt lat="47.39047" lon="6.49988">
        <ele>297.57</ele>
        <time>2016-09-05T13:01:13.000Z</time>
      </trkpt>
      <trkpt lat="47.39045" lon="6.49989">
        <ele>298.338</ele>
        <time>2016-09-05T13:01:14.000Z</time>
      </trkpt>
      <trkpt lat="47.39043" lon="6.4999">
        <ele>298.628</ele>
        <time>2016-09-05T13:01:15.000Z</time>
      </trkpt>
      <trkpt lat="47.3904" lon="6.49991">
        <ele>299.216</ele>
        <time>2016-09-05T13:01:16.000Z</time>
      </trkpt>
      <trkpt lat="47.39038" lon="6.49993">
        <ele>299.3</ele>
        <time>2016-09-05T13:01:17.000Z</time>
      </trkpt>
      <trkpt lat="47.39035" lon="6.49994">
        <ele>301.5</ele>
        <time>2016-09-05T13:01:18.000Z</time>
      </trkpt>
      <trkpt lat="47.39032" lon="6.49997">
        <ele>300.411</ele>
        <time>2016-09-05T13:01:19.000Z</time>
      </trkpt>
      <trkpt lat="47.3903" lon="6.49999">
        <ele>299.986</ele>
        <time>2016-09-05T13:01:20.000Z</time>
      </trkpt>
      <trkpt lat="47.39028" lon="6.50001">
        <ele>299.073</ele>
        <time>2016-09-05T13:01:21.000Z</time>
      </trkpt>
      <trkpt lat="47.39026" lon="6.50002">
        <ele>298.973</ele>
        <time>2016-09-05T13:01:22.000Z</time>
      </trkpt>
      <trkpt lat="47.39023" lon="6.50004">
        <ele>299.019</ele>
        <time>2016-09-05T13:01:23.000Z</time>
      </trkpt>
      <trkpt lat="47.39021" lon="6.50007">
        <ele>298.585</ele>
        <time>2016-09-05T13:01:24.000Z</time>
      </trkpt>
      <trkpt lat="47.39019" lon="6.50009">
        <ele>298.591</ele>
        <time>2016-09-05T13:01:25.000Z</time>
      </trkpt>
      <trkpt lat="47.39017" lon="6.50012">
        <ele>297.821</ele>
        <time>2016-09-05T13:01:26.000Z</time>
      </trkpt>
      <trkpt lat="47.39015" lon="6.50015">
        <ele>298.339</ele>
        <time>2016-09-05T13:01:27.000Z</time>
      </trkpt>
      <trkpt lat="47.39013" lon="6.50018">
        <ele>298.43</ele>
        <time>2016-09-05T13:01:28.000Z</time>
      </trkpt>
      <trkpt lat="47.39011" lon="6.5002">
        <ele>299.271</ele>
        <time>2016-09-05T13:01:29.000Z</time>
      </trkpt>
      <trkpt lat="47.39009" lon="6.50022">
        <ele>299.58</ele>
        <time>2016-09-05T13:01:30.000Z</time>
      </trkpt>
      <trkpt lat="47.39007" lon="6.50023">
        <ele>299.986</ele>
        <time>2016-09-05T13:01:31.000Z</time>
      </trkpt>
      <trkpt lat="47.39005" lon="6.50025">
        <ele>300.244</ele>
        <time>2016-09-05T13:01:32.000Z</time>
      </trkpt>
      <trkpt lat="47.39003" lon="6.50027">
        <ele>301.122</ele>
        <time>2016-09-05T13:01:33.000Z</time>
      </trkpt>
      <trkpt lat="47.39001" lon="6.50029">
        <ele>301.01</ele>
        <time>2016-09-05T13:01:34.000Z</time>
      </trkpt>
      <trkpt lat="47.38999" lon="6.50031">
        <ele>300.945</ele>
        <time>2016-09-05T13:01:35.000Z</time>
      </trkpt>
      <trkpt lat="47.38997" lon="6.50033">
        <ele>301.248</ele>
        <time>2016-09-05T13:01:36.000Z</time>
      </trkpt>
      <trkpt lat="47.38996" lon="6.50036">
        <ele>300.371</ele>
        <time>2016-09-05T13:01:37.000Z</time>
      </trkpt>
      <trkpt lat="47.38995" lon="6.50039">
        <ele>300.291</ele>
        <time>2016-09-05T13:01:38.000Z</time>
      </trkpt>
      <trkpt lat="47.38993" lon="6.50041">
        <ele>300.554</ele>
        <time>2016-09-05T13:01:39.000Z</time>
      </trkpt>
      <trkpt lat="47.38992" lon="6.50043">
        <ele>302.444</ele>
        <time>2016-09-05T13:01:40.000Z</time>
      </trkpt>
      <trkpt lat="47.38991" lon="6.50045">
        <ele>300.778</ele>
        <time>2016-09-05T13:01:41.000Z</time>
      </trkpt>
      <trkpt lat="47.3899" lon="6.50047">
        <ele>300.249</ele>
        <time>2016-09-05T13:01:42.000Z</time>
      </trkpt>
      <trkpt lat="47.38988" lon="6.50049">
        <ele>300.961</ele>
        <time>2016-09-05T13:01:43.000Z</time>
      </trkpt>
      <trkpt lat="47.38986" lon="6.5005">
        <ele>301.719</ele>
        <time>2016-09-05T13:01:44.000Z</time>
      </trkpt>
      <trkpt lat="47.38985" lon="6.50052">
        <ele>302.156</ele>
        <time>2016-09-05T13:01:45.000Z</time>
      </trkpt>
      <trkpt lat="47.38983" lon="6.50053">
        <ele>303.036</ele>
        <time>2016-09-05T13:01:46.000Z</time>
      </trkpt>
      <trkpt lat="47.38981" lon="6.50056">
        <ele>300.347</ele>
        <time>2016-09-05T13:01:47.000Z</time>
      </trkpt>
      <trkpt lat="47.38978" lon="6.50059">
        <ele>300.492</ele>
        <time>2016-09-05T13:01:48.000Z</time>
      </trkpt>
      <trkpt lat="47.38976" lon="6.50063">
        <ele>300.406</ele>
        <time>2016-09-05T13:01:49.000Z</time>
      </trkpt>
      <trkpt lat="47.38974" lon="6.50066">
        <ele>303.052</ele>
        <time>2016-09-05T13:01:50.000Z</time>
      </trkpt>
      <trkpt lat="47.38972" lon="6.50069">
        <ele>303.118</ele>
        <time>2016-09-05T13:01:51.000Z</time>
      </trkpt>
      <trkpt lat="47.38971" lon="6.50072">
        <ele>303.574</ele>
        <time>2016-09-05T13:01:52.000Z</time>
      </trkpt>
      <trkpt lat="47.38969" lon="6.50075">
        <ele>304.082</ele>
        <time>2016-09-05T13:01:53.000Z</time>
      </trkpt>
      <trkpt lat="47.38967" lon="6.50078">
        <ele>305.156</ele>
        <time>2016-09-05T13:01:54.000Z</time>
      </trkpt>
      <trkpt lat="47.38966" lon="6.50081">
        <ele>305.362</ele>
        <time>2016-09-05T13:01:55.000Z</time>
      </trkpt>
      <trkpt lat="47.38964" lon="6.50084">
        <ele>305.781</ele>
        <time>2016-09-05T13:01:56.000Z</time>
      </trkpt>
      <trkpt lat="47.38961" lon="6.50087">
        <ele>305.782</ele>
        <time>2016-09-05T13:01:57.000Z</time>
      </trkpt>
      <trkpt lat="47.38958" lon="6.5009">
        <ele>305.083</ele>
        <time>2016-09-05T13:01:58.000Z</time>
      </trkpt>
      <trkpt lat="47.38956" lon="6.50093">
        <ele>304.96</ele>
        <time>2016-09-05T13:01:59.000Z</time>
      </trkpt>
      <trkpt lat="47.38954" lon="6.50096">
        <ele>305.015</ele>
        <time>2016-09-05T13:02:00.000Z</time>
      </trkpt>
      <trkpt lat="47.38952" lon="6.50099">
        <ele>305.343</ele>
        <time>2016-09-05T13:02:01.000Z</time>
      </trkpt>
      <trkpt lat="47.3895" lon="6.50102">
        <ele>306.584</ele>
        <time>2016-09-05T13:02:02.000Z</time>
      </trkpt>
      <trkpt lat="47.38949" lon="6.50104">
        <ele>306.444</ele>
        <time>2016-09-05T13:02:03.000Z</time>
      </trkpt>
      <trkpt lat="47.38947" lon="6.50106">
        <ele>304.513</ele>
        <time>2016-09-05T13:02:04.000Z</time>
      </trkpt>
      <trkpt lat="47.38945" lon="6.50108">
        <ele>303.971</ele>
        <time>2016-09-05T13:02:05.000Z</time>
      </trkpt>
      <trkpt lat="47.38944" lon="6.5011">
        <ele>305.105</ele>
        <time>2016-09-05T13:02:06.000Z</time>
      </trkpt>
      <trkpt lat="47.38942" lon="6.50111">
        <ele>303.303</ele>
        <time>2016-09-05T13:02:07.000Z</time>
      </trkpt>
      <trkpt lat="47.38941" lon="6.50113">
        <ele>303.127</ele>
        <time>2016-09-05T13:02:08.000Z</time>
      </trkpt>
      <trkpt lat="47.3894" lon="6.50114">
        <ele>303.103</ele>
        <time>2016-09-05T13:02:09.000Z</time>
      </trkpt>
      <trkpt lat="47.38938" lon="6.50116">
        <ele>303.208</ele>
        <time>2016-09-05T13:02:10.000Z</time>
      </trkpt>
      <trkpt lat="47.38937" lon="6.50117">
        <ele>303.424</ele>
        <time>2016-09-05T13:02:11.000Z</time>
      </trkpt>
      <trkpt lat="47.38937" lon="6.50117">
        <ele>304.364</ele>
        <time>2016-09-05T13:02:12.000Z</time>
      </trkpt>
      <trkpt lat="47.38937" lon="6.50117">
        <ele>303.5</ele>
        <time>2016-09-05T13:02:13.000Z</time>
      </trkpt>
      <trkpt lat="47.38937" lon="6.50117">
        <ele>302.857</ele>
        <time>2016-09-05T13:02:14.000Z</time>
      </trkpt>
      <trkpt lat="47.38937" lon="6.50117">
        <ele>302.655</ele>
        <time>2016-09-05T13:02:15.000Z</time>
      </trkpt>
      <trkpt lat="47.38937" lon="6.50117">
        <ele>301.663</ele>
        <time>2016-09-05T13:02:16.000Z</time>
      </trkpt>
      <trkpt lat="47.38937" lon="6.50117">
        <ele>300.808</ele>
        <time>2016-09-05T13:02:17.000Z</time>
      </trkpt>
      <trkpt lat="47.38937" lon="6.50117">
        <ele>301.022</ele>
        <time>2016-09-05T13:02:18.000Z</time>
      </trkpt>
      <trkpt lat="47.38937" lon="6.50117">
        <ele>301.177</ele>
        <time>2016-09-05T13:02:19.000Z</time>
      </trkpt>
      <trkpt lat="47.38936" lon="6.50118">
        <ele>301.498</ele>
        <time>2016-09-05T13:02:20.000Z</time>
      </trkpt>
      <trkpt lat="47.38934" lon="6.50117">
        <ele>301.558</ele>
        <time>2016-09-05T13:02:21.000Z</time>
      </trkpt>
      <trkpt lat="47.38931" lon="6.50117">
        <ele>301.557</ele>
        <time>2016-09-05T13:02:22.000Z</time>
      </trkpt>
      <trkpt lat="47.38929" lon="6.50117">
        <ele>301.57</ele>
        <time>2016-09-05T13:02:23.000Z</time>
      </trkpt>
      <trkpt lat="47.38928" lon="6.50116">
        <ele>301.016</ele>
        <time>2016-09-05T13:02:24.000Z</time>
      </trkpt>
      <trkpt lat="47.38928" lon="6.50116">
        <ele>298.053</ele>
        <time>2016-09-05T13:02:25.000Z</time>
      </trkpt>
      <trkpt lat="47.38928" lon="6.50116">
        <ele>297.915</ele>
        <time>2016-09-05T13:02:26.000Z</time>
      </trkpt>
      <trkpt lat="47.3893" lon="6.50117">
        <ele>295.079</ele>
        <time>2016-09-05T13:02:27.000Z</time>
      </trkpt>
      <trkpt lat="47.3893" lon="6.50117">
        <ele>295.99</ele>
        <time>2016-09-05T13:02:28.000Z</time>
      </trkpt>
      <trkpt lat="47.38933" lon="6.50119">
        <ele>299.067</ele>
        <time>2016-09-05T13:02:29.000Z</time>
      </trkpt>
      <trkpt lat="47.38934" lon="6.50119">
        <ele>299.114</ele>
        <time>2016-09-05T13:02:30.000Z</time>
      </trkpt>
      <trkpt lat="47.38935" lon="6.5012">
        <ele>301.487</ele>
        <time>2016-09-05T13:02:31.000Z</time>
      </trkpt>
      <trkpt lat="47.38937" lon="6.5012">
        <ele>301.536</ele>
        <time>2016-09-05T13:02:32.000Z</time>
      </trkpt>
      <trkpt lat="47.38937" lon="6.5012">
        <ele>297.31</ele>
        <time>2016-09-05T13:02:33.000Z</time>
      </trkpt>
      <trkpt lat="47.38937" lon="6.5012">
        <ele>297.239</ele>
        <time>2016-09-05T13:02:34.000Z</time>
      </trkpt>
      <trkpt lat="47.38937" lon="6.50123">
        <ele>299.698</ele>
        <time>2016-09-05T13:02:35.000Z</time>
      </trkpt>
      <trkpt lat="47.38937" lon="6.50124">
        <ele>300.266</ele>
        <time>2016-09-05T13:02:36.000Z</time>
      </trkpt>
      <trkpt lat="47.38937" lon="6.50126">
        <ele>299.494</ele>
        <time>2016-09-05T13:02:37.000Z</time>
      </trkpt>
      <trkpt lat="47.38936" lon="6.50127">
        <ele>299.52</ele>
        <time>2016-09-05T13:02:38.000Z</time>
      </trkpt>
      <trkpt lat="47.38935" lon="6.50128">
        <ele>300.579</ele>
        <time>2016-09-05T13:02:39.000Z</time>
      </trkpt>
      <trkpt lat="47.38934" lon="6.50129">
        <ele>302.011</ele>
        <time>2016-09-05T13:02:40.000Z</time>
      </trkpt>
      <trkpt lat="47.38934" lon="6.5013">
        <ele>301.756</ele>
        <time>2016-09-05T13:02:41.000Z</time>
      </trkpt>
      <trkpt lat="47.38933" lon="6.50131">
        <ele>303.453</ele>
        <time>2016-09-05T13:02:42.000Z</time>
      </trkpt>
      <trkpt lat="47.38932" lon="6.50132">
        <ele>303.646</ele>
        <time>2016-09-05T13:02:43.000Z</time>
      </trkpt>
      <trkpt lat="47.38931" lon="6.50133">
        <ele>302.323</ele>
        <time>2016-09-05T13:02:44.000Z</time>
      </trkpt>
      <trkpt lat="47.38929" lon="6.50135">
        <ele>303.347</ele>
        <time>2016-09-05T13:02:45.000Z</time>
      </trkpt>
      <trkpt lat="47.38927" lon="6.50136">
        <ele>302.333</ele>
        <time>2016-09-05T13:02:46.000Z</time>
      </trkpt>
      <trkpt lat="47.38925" lon="6.5014">
        <ele>299.508</ele>
        <time>2016-09-05T13:02:47.000Z</time>
      </trkpt>
      <trkpt lat="47.38922" lon="6.50144">
        <ele>298.774</ele>
        <time>2016-09-05T13:02:48.000Z</time>
      </trkpt>
      <trkpt lat="47.38919" lon="6.50149">
        <ele>298.694</ele>
        <time>2016-09-05T13:02:49.000Z</time>
      </trkpt>
      <trkpt lat="47.38915" lon="6.50153">
        <ele>298.811</ele>
        <time>2016-09-05T13:02:50.000Z</time>
      </trkpt>
      <trkpt lat="47.38911" lon="6.50157">
        <ele>298.63</ele>
        <time>2016-09-05T13:02:51.000Z</time>
      </trkpt>
      <trkpt lat="47.38906" lon="6.50163">
        <ele>297.673</ele>
        <time>2016-09-05T13:02:52.000Z</time>
      </trkpt>
      <trkpt lat="47.38901" lon="6.50165">
        <ele>297.418</ele>
        <time>2016-09-05T13:02:53.000Z</time>
      </trkpt>
      <trkpt lat="47.38897" lon="6.50168">
        <ele>297.416</ele>
        <time>2016-09-05T13:02:54.000Z</time>
      </trkpt>
      <trkpt lat="47.38891" lon="6.50171">
        <ele>298.291</ele>
        <time>2016-09-05T13:02:55.000Z</time>
      </trkpt>
      <trkpt lat="47.38885" lon="6.50174">
        <ele>298.988</ele>
        <time>2016-09-05T13:02:56.000Z</time>
      </trkpt>
      <trkpt lat="47.38881" lon="6.50178">
        <ele>297.979</ele>
        <time>2016-09-05T13:02:57.000Z</time>
      </trkpt>
      <trkpt lat="47.38876" lon="6.50179">
        <ele>300.059</ele>
        <time>2016-09-05T13:02:58.000Z</time>
      </trkpt>
      <trkpt lat="47.38869" lon="6.50179">
        <ele>299.776</ele>
        <time>2016-09-05T13:02:59.000Z</time>
      </trkpt>
      <trkpt lat="47.38864" lon="6.50182">
        <ele>299.976</ele>
        <time>2016-09-05T13:03:00.000Z</time>
      </trkpt>
      <trkpt lat="47.38859" lon="6.50186">
        <ele>296.679</ele>
        <time>2016-09-05T13:03:01.000Z</time>
      </trkpt>
      <trkpt lat="47.38855" lon="6.50187">
        <ele>296.631</ele>
        <time>2016-09-05T13:03:02.000Z</time>
      </trkpt>
      <trkpt lat="47.38848" lon="6.50188">
        <ele>296.498</ele>
        <time>2016-09-05T13:03:03.000Z</time>
      </trkpt>
      <trkpt lat="47.38842" lon="6.5019">
        <ele>295.668</ele>
        <time>2016-09-05T13:03:04.000Z</time>
      </trkpt>
      <trkpt lat="47.38836" lon="6.50193">
        <ele>294.506</ele>
        <time>2016-09-05T13:03:05.000Z</time>
      </trkpt>
      <trkpt lat="47.38831" lon="6.50196">
        <ele>295.054</ele>
        <time>2016-09-05T13:03:06.000Z</time>
      </trkpt>
      <trkpt lat="47.38824" lon="6.50198">
        <ele>293.661</ele>
        <time>2016-09-05T13:03:07.000Z</time>
      </trkpt>
      <trkpt lat="47.38819" lon="6.50201">
        <ele>293.895</ele>
        <time>2016-09-05T13:03:08.000Z</time>
      </trkpt>
      <trkpt lat="47.38812" lon="6.50203">
        <ele>294.732</ele>
        <time>2016-09-05T13:03:09.000Z</time>
      </trkpt>
      <trkpt lat="47.38804" lon="6.50206">
        <ele>293.553</ele>
        <time>2016-09-05T13:03:10.000Z</time>
      </trkpt>
      <trkpt lat="47.38796" lon="6.50207">
        <ele>294.19</ele>
        <time>2016-09-05T13:03:11.000Z</time>
      </trkpt>
      <trkpt lat="47.3879" lon="6.50212">
        <ele>295.518</ele>
        <time>2016-09-05T13:03:12.000Z</time>
      </trkpt>
      <trkpt lat="47.38784" lon="6.50218">
        <ele>292.913</ele>
        <time>2016-09-05T13:03:13.000Z</time>
      </trkpt>
      <trkpt lat="47.38778" lon="6.50221">
        <ele>292.715</ele>
        <time>2016-09-05T13:03:14.000Z</time>
      </trkpt>
      <trkpt lat="47.38773" lon="6.50226">
        <ele>292.748</ele>
        <time>2016-09-05T13:03:15.000Z</time>
      </trkpt>
      <trkpt lat="47.38767" lon="6.5023">
        <ele>291.406</ele>
        <time>2016-09-05T13:03:16.000Z</time>
      </trkpt>
      <trkpt lat="47.38761" lon="6.50235">
        <ele>290.52</ele>
        <time>2016-09-05T13:03:17.000Z</time>
      </trkpt>
      <trkpt lat="47.38755" lon="6.5024">
        <ele>290.581</ele>
        <time>2016-09-05T13:03:18.000Z</time>
      </trkpt>
      <trkpt lat="47.38749" lon="6.50245">
        <ele>290.517</ele>
        <time>2016-09-05T13:03:19.000Z</time>
      </trkpt>
      <trkpt lat="47.38745" lon="6.5025">
        <ele>288.824</ele>
        <time>2016-09-05T13:03:20.000Z</time>
      </trkpt>
      <trkpt lat="47.3874" lon="6.50256">
        <ele>288.384</ele>
        <time>2016-09-05T13:03:21.000Z</time>
      </trkpt>
      <trkpt lat="47.38733" lon="6.50262">
        <ele>287.612</ele>
        <time>2016-09-05T13:03:22.000Z</time>
      </trkpt>
      <trkpt lat="47.38727" lon="6.50268">
        <ele>286.701</ele>
        <time>2016-09-05T13:03:23.000Z</time>
      </trkpt>
      <trkpt lat="47.38721" lon="6.50274">
        <ele>286.895</ele>
        <time>2016-09-05T13:03:24.000Z</time>
      </trkpt>
      <trkpt lat="47.38714" lon="6.50281">
        <ele>286.617</ele>
        <time>2016-09-05T13:03:25.000Z</time>
      </trkpt>
      <trkpt lat="47.38708" lon="6.50287">
        <ele>285.587</ele>
        <time>2016-09-05T13:03:26.000Z</time>
      </trkpt>
      <trkpt lat="47.38703" lon="6.50294">
        <ele>285.504</ele>
        <time>2016-09-05T13:03:27.000Z</time>
      </trkpt>
      <trkpt lat="47.38695" lon="6.503">
        <ele>284.843</ele>
        <time>2016-09-05T13:03:28.000Z</time>
      </trkpt>
      <trkpt lat="47.38685" lon="6.50306">
        <ele>283.088</ele>
        <time>2016-09-05T13:03:29.000Z</time>
      </trkpt>
      <trkpt lat="47.38679" lon="6.50312">
        <ele>283.38</ele>
        <time>2016-09-05T13:03:30.000Z</time>
      </trkpt>
      <trkpt lat="47.38672" lon="6.50317">
        <ele>283.03</ele>
        <time>2016-09-05T13:03:31.000Z</time>
      </trkpt>
      <trkpt lat="47.38664" lon="6.50322">
        <ele>284.14</ele>
        <time>2016-09-05T13:03:32.000Z</time>
      </trkpt>
      <trkpt lat="47.38657" lon="6.50328">
        <ele>283.877</ele>
        <time>2016-09-05T13:03:33.000Z</time>
      </trkpt>
      <trkpt lat="47.38651" lon="6.50334">
        <ele>279.825</ele>
        <time>2016-09-05T13:03:34.000Z</time>
      </trkpt>
      <trkpt lat="47.38645" lon="6.5034">
        <ele>278.946</ele>
        <time>2016-09-05T13:03:35.000Z</time>
      </trkpt>
      <trkpt lat="47.38637" lon="6.50348">
        <ele>280.869</ele>
        <time>2016-09-05T13:03:36.000Z</time>
      </trkpt>
      <trkpt lat="47.38631" lon="6.50352">
        <ele>280.257</ele>
        <time>2016-09-05T13:03:37.000Z</time>
      </trkpt>
      <trkpt lat="47.38624" lon="6.50357">
        <ele>280.154</ele>
        <time>2016-09-05T13:03:38.000Z</time>
      </trkpt>
      <trkpt lat="47.38615" lon="6.50362">
        <ele>279.826</ele>
        <time>2016-09-05T13:03:39.000Z</time>
      </trkpt>
      <trkpt lat="47.38608" lon="6.50367">
        <ele>278.256</ele>
        <time>2016-09-05T13:03:40.000Z</time>
      </trkpt>
      <trkpt lat="47.386" lon="6.50372">
        <ele>277.594</ele>
        <time>2016-09-05T13:03:41.000Z</time>
      </trkpt>
      <trkpt lat="47.38593" lon="6.50376">
        <ele>277.707</ele>
        <time>2016-09-05T13:03:42.000Z</time>
      </trkpt>
      <trkpt lat="47.38584" lon="6.50382">
        <ele>277.241</ele>
        <time>2016-09-05T13:03:43.000Z</time>
      </trkpt>
      <trkpt lat="47.38575" lon="6.50387">
        <ele>276.356</ele>
        <time>2016-09-05T13:03:44.000Z</time>
      </trkpt>
      <trkpt lat="47.38567" lon="6.5039">
        <ele>276.327</ele>
        <time>2016-09-05T13:03:45.000Z</time>
      </trkpt>
      <trkpt lat="47.38558" lon="6.50395">
        <ele>275.603</ele>
        <time>2016-09-05T13:03:46.000Z</time>
      </trkpt>
      <trkpt lat="47.38549" lon="6.50401">
        <ele>274.067</ele>
        <time>2016-09-05T13:03:47.000Z</time>
      </trkpt>
      <trkpt lat="47.38542" lon="6.50406">
        <ele>274.152</ele>
        <time>2016-09-05T13:03:48.000Z</time>
      </trkpt>
      <trkpt lat="47.38532" lon="6.50411">
        <ele>272.877</ele>
        <time>2016-09-05T13:03:49.000Z</time>
      </trkpt>
      <trkpt lat="47.38524" lon="6.50414">
        <ele>272.573</ele>
        <time>2016-09-05T13:03:50.000Z</time>
      </trkpt>
      <trkpt lat="47.38516" lon="6.50418">
        <ele>273.002</ele>
        <time>2016-09-05T13:03:51.000Z</time>
      </trkpt>
      <trkpt lat="47.38507" lon="6.50424">
        <ele>271.582</ele>
        <time>2016-09-05T13:03:52.000Z</time>
      </trkpt>
      <trkpt lat="47.385" lon="6.50428">
        <ele>271.256</ele>
        <time>2016-09-05T13:03:53.000Z</time>
      </trkpt>
      <trkpt lat="47.38492" lon="6.50433">
        <ele>271.623</ele>
        <time>2016-09-05T13:03:54.000Z</time>
      </trkpt>
      <trkpt lat="47.38484" lon="6.50437">
        <ele>272.065</ele>
        <time>2016-09-05T13:03:55.000Z</time>
      </trkpt>
      <trkpt lat="47.38477" lon="6.50442">
        <ele>270.955</ele>
        <time>2016-09-05T13:03:56.000Z</time>
      </trkpt>
      <trkpt lat="47.38466" lon="6.50446">
        <ele>270.499</ele>
        <time>2016-09-05T13:03:57.000Z</time>
      </trkpt>
      <trkpt lat="47.38458" lon="6.5045">
        <ele>271.187</ele>
        <time>2016-09-05T13:03:58.000Z</time>
      </trkpt>
      <trkpt lat="47.38449" lon="6.50454">
        <ele>272.054</ele>
        <time>2016-09-05T13:03:59.000Z</time>
      </trkpt>
      <trkpt lat="47.38442" lon="6.50458">
        <ele>269.76</ele>
        <time>2016-09-05T13:04:00.000Z</time>
      </trkpt>
      <trkpt lat="47.38433" lon="6.50463">
        <ele>267.015</ele>
        <time>2016-09-05T13:04:01.000Z</time>
      </trkpt>
      <trkpt lat="47.38423" lon="6.50467">
        <ele>266.283</ele>
        <time>2016-09-05T13:04:02.000Z</time>
      </trkpt>
      <trkpt lat="47.38415" lon="6.5047">
        <ele>266.4</ele>
        <time>2016-09-05T13:04:03.000Z</time>
      </trkpt>
      <trkpt lat="47.38407" lon="6.50473">
        <ele>266.894</ele>
        <time>2016-09-05T13:04:04.000Z</time>
      </trkpt>
      <trkpt lat="47.384" lon="6.50478">
        <ele>266.8</ele>
        <time>2016-09-05T13:04:05.000Z</time>
      </trkpt>
      <trkpt lat="47.38392" lon="6.50481">
        <ele>267.151</ele>
        <time>2016-09-05T13:04:06.000Z</time>
      </trkpt>
      <trkpt lat="47.38386" lon="6.50487">
        <ele>265.957</ele>
        <time>2016-09-05T13:04:07.000Z</time>
      </trkpt>
      <trkpt lat="47.38378" lon="6.50489">
        <ele>267.052</ele>
        <time>2016-09-05T13:04:08.000Z</time>
      </trkpt>
      <trkpt lat="47.38372" lon="6.50494">
        <ele>266.174</ele>
        <time>2016-09-05T13:04:09.000Z</time>
      </trkpt>
      <trkpt lat="47.38365" lon="6.50497">
        <ele>265.938</ele>
        <time>2016-09-05T13:04:10.000Z</time>
      </trkpt>
      <trkpt lat="47.38358" lon="6.50501">
        <ele>266.387</ele>
        <time>2016-09-05T13:04:11.000Z</time>
      </trkpt>
      <trkpt lat="47.38352" lon="6.50505">
        <ele>266.258</ele>
        <time>2016-09-05T13:04:12.000Z</time>
      </trkpt>
      <trkpt lat="47.38345" lon="6.50509">
        <ele>266.27</ele>
        <time>2016-09-05T13:04:13.000Z</time>
      </trkpt>
      <trkpt lat="47.3834" lon="6.50513">
        <ele>265.488</ele>
        <time>2016-09-05T13:04:14.000Z</time>
      </trkpt>
      <trkpt lat="47.38334" lon="6.50517">
        <ele>265.608</ele>
        <time>2016-09-05T13:04:15.000Z</time>
      </trkpt>
      <trkpt lat="47.38328" lon="6.5052">
        <ele>265.917</ele>
        <time>2016-09-05T13:04:16.000Z</time>
      </trkpt>
      <trkpt lat="47.38323" lon="6.50524">
        <ele>265.736</ele>
        <time>2016-09-05T13:04:17.000Z</time>
      </trkpt>
      <trkpt lat="47.38319" lon="6.50527">
        <ele>265.666</ele>
        <time>2016-09-05T13:04:18.000Z</time>
      </trkpt>
      <trkpt lat="47.38314" lon="6.50531">
        <ele>265.013</ele>
        <time>2016-09-05T13:04:19.000Z</time>
      </trkpt>
      <trkpt lat="47.38308" lon="6.50533">
        <ele>264.715</ele>
        <time>2016-09-05T13:04:20.000Z</time>
      </trkpt>
      <trkpt lat="47.38302" lon="6.50535">
        <ele>265.89</ele>
        <time>2016-09-05T13:04:21.000Z</time>
      </trkpt>
      <trkpt lat="47.38297" lon="6.50536">
        <ele>267.05</ele>
        <time>2016-09-05T13:04:22.000Z</time>
      </trkpt>
      <trkpt lat="47.38291" lon="6.50536">
        <ele>267.354</ele>
        <time>2016-09-05T13:04:23.000Z</time>
      </trkpt>
      <trkpt lat="47.38284" lon="6.50536">
        <ele>268.295</ele>
        <time>2016-09-05T13:04:24.000Z</time>
      </trkpt>
      <trkpt lat="47.38279" lon="6.50537">
        <ele>268.454</ele>
        <time>2016-09-05T13:04:25.000Z</time>
      </trkpt>
      <trkpt lat="47.3827" lon="6.50537">
        <ele>266.83</ele>
        <time>2016-09-05T13:04:26.000Z</time>
      </trkpt>
      <trkpt lat="47.38266" lon="6.50537">
        <ele>267.545</ele>
        <time>2016-09-05T13:04:27.000Z</time>
      </trkpt>
      <trkpt lat="47.3826" lon="6.50539">
        <ele>266.456</ele>
        <time>2016-09-05T13:04:28.000Z</time>
      </trkpt>
      <trkpt lat="47.38254" lon="6.50539">
        <ele>265.026</ele>
        <time>2016-09-05T13:04:29.000Z</time>
      </trkpt>
      <trkpt lat="47.38246" lon="6.5054">
        <ele>264.894</ele>
        <time>2016-09-05T13:04:30.000Z</time>
      </trkpt>
      <trkpt lat="47.38241" lon="6.5054">
        <ele>265.168</ele>
        <time>2016-09-05T13:04:31.000Z</time>
      </trkpt>
      <trkpt lat="47.38235" lon="6.5054">
        <ele>265.144</ele>
        <time>2016-09-05T13:04:32.000Z</time>
      </trkpt>
      <trkpt lat="47.38228" lon="6.50539">
        <ele>267.067</ele>
        <time>2016-09-05T13:04:33.000Z</time>
      </trkpt>
      <trkpt lat="47.38223" lon="6.50537">
        <ele>267.175</ele>
        <time>2016-09-05T13:04:34.000Z</time>
      </trkpt>
      <trkpt lat="47.38216" lon="6.50537">
        <ele>266.832</ele>
        <time>2016-09-05T13:04:35.000Z</time>
      </trkpt>
      <trkpt lat="47.38211" lon="6.50537">
        <ele>266.769</ele>
        <time>2016-09-05T13:04:36.000Z</time>
      </trkpt>
      <trkpt lat="47.38206" lon="6.50537">
        <ele>269.044</ele>
        <time>2016-09-05T13:04:37.000Z</time>
      </trkpt>
      <trkpt lat="47.38201" lon="6.50536">
        <ele>269.858</ele>
        <time>2016-09-05T13:04:38.000Z</time>
      </trkpt>
      <trkpt lat="47.38196" lon="6.50535">
        <ele>270.004</ele>
        <time>2016-09-05T13:04:39.000Z</time>
      </trkpt>
      <trkpt lat="47.38191" lon="6.50535">
        <ele>270.568</ele>
        <time>2016-09-05T13:04:40.000Z</time>
      </trkpt>
      <trkpt lat="47.38183" lon="6.50538">
        <ele>267.483</ele>
        <time>2016-09-05T13:04:41.000Z</time>
      </trkpt>
      <trkpt lat="47.3818" lon="6.50537">
        <ele>267.271</ele>
        <time>2016-09-05T13:04:42.000Z</time>
      </trkpt>
      <trkpt lat="47.38175" lon="6.50537">
        <ele>267.375</ele>
        <time>2016-09-05T13:04:43.000Z</time>
      </trkpt>
      <trkpt lat="47.38173" lon="6.50536">
        <ele>267.622</ele>
        <time>2016-09-05T13:04:44.000Z</time>
      </trkpt>
      <trkpt lat="47.38168" lon="6.50535">
        <ele>266.563</ele>
        <time>2016-09-05T13:04:45.000Z</time>
      </trkpt>
      <trkpt lat="47.38163" lon="6.50534">
        <ele>267.182</ele>
        <time>2016-09-05T13:04:46.000Z</time>
      </trkpt>
      <trkpt lat="47.38158" lon="6.50531">
        <ele>268.054</ele>
        <time>2016-09-05T13:04:47.000Z</time>
      </trkpt>
      <trkpt lat="47.38155" lon="6.50528">
        <ele>267.581</ele>
        <time>2016-09-05T13:04:48.000Z</time>
      </trkpt>
      <trkpt lat="47.38152" lon="6.50531">
        <ele>264.054</ele>
        <time>2016-09-05T13:04:49.000Z</time>
      </trkpt>
      <trkpt lat="47.38148" lon="6.5053">
        <ele>262.457</ele>
        <time>2016-09-05T13:04:50.000Z</time>
      </trkpt>
      <trkpt lat="47.38143" lon="6.50528">
        <ele>263.403</ele>
        <time>2016-09-05T13:04:51.000Z</time>
      </trkpt>
      <trkpt lat="47.38139" lon="6.50525">
        <ele>263.64</ele>
        <time>2016-09-05T13:04:52.000Z</time>
      </trkpt>
      <trkpt lat="47.38133" lon="6.50526">
        <ele>261.498</ele>
        <time>2016-09-05T13:04:53.000Z</time>
      </trkpt>
      <trkpt lat="47.38128" lon="6.50526">
        <ele>262.078</ele>
        <time>2016-09-05T13:04:54.000Z</time>
      </trkpt>
      <trkpt lat="47.38123" lon="6.50525">
        <ele>262.129</ele>
        <time>2016-09-05T13:04:55.000Z</time>
      </trkpt>
      <trkpt lat="47.38119" lon="6.50524">
        <ele>262.369</ele>
        <time>2016-09-05T13:04:56.000Z</time>
      </trkpt>
      <trkpt lat="47.38114" lon="6.50522">
        <ele>263.24</ele>
        <time>2016-09-05T13:04:57.000Z</time>
      </trkpt>
      <trkpt lat="47.3811" lon="6.50522">
        <ele>263.639</ele>
        <time>2016-09-05T13:04:58.000Z</time>
      </trkpt>
      <trkpt lat="47.38106" lon="6.50521">
        <ele>263.722</ele>
        <time>2016-09-05T13:04:59.000Z</time>
      </trkpt>
      <trkpt lat="47.38101" lon="6.50518">
        <ele>264.918</ele>
        <time>2016-09-05T13:05:00.000Z</time>
      </trkpt>
      <trkpt lat="47.38096" lon="6.50518">
        <ele>264.184</ele>
        <time>2016-09-05T13:05:01.000Z</time>
      </trkpt>
      <trkpt lat="47.38093" lon="6.50517">
        <ele>263.433</ele>
        <time>2016-09-05T13:05:02.000Z</time>
      </trkpt>
      <trkpt lat="47.38089" lon="6.50516">
        <ele>263.278</ele>
        <time>2016-09-05T13:05:03.000Z</time>
      </trkpt>
      <trkpt lat="47.38084" lon="6.50514">
        <ele>264.543</ele>
        <time>2016-09-05T13:05:04.000Z</time>
      </trkpt>
      <trkpt lat="47.38079" lon="6.50513">
        <ele>263.457</ele>
        <time>2016-09-05T13:05:05.000Z</time>
      </trkpt>
      <trkpt lat="47.38074" lon="6.5051">
        <ele>263.532</ele>
        <time>2016-09-05T13:05:06.000Z</time>
      </trkpt>
      <trkpt lat="47.38069" lon="6.5051">
        <ele>262.335</ele>
        <time>2016-09-05T13:05:07.000Z</time>
      </trkpt>
      <trkpt lat="47.38065" lon="6.50508">
        <ele>262.993</ele>
        <time>2016-09-05T13:05:08.000Z</time>
      </trkpt>
      <trkpt lat="47.38061" lon="6.50505">
        <ele>263.867</ele>
        <time>2016-09-05T13:05:09.000Z</time>
      </trkpt>
      <trkpt lat="47.38057" lon="6.50502">
        <ele>264.772</ele>
        <time>2016-09-05T13:05:10.000Z</time>
      </trkpt>
      <trkpt lat="47.38052" lon="6.50498">
        <ele>264.959</ele>
        <time>2016-09-05T13:05:11.000Z</time>
      </trkpt>
      <trkpt lat="47.38046" lon="6.50494">
        <ele>265.708</ele>
        <time>2016-09-05T13:05:12.000Z</time>
      </trkpt>
      <trkpt lat="47.38041" lon="6.50492">
        <ele>266.57</ele>
        <time>2016-09-05T13:05:13.000Z</time>
      </trkpt>
      <trkpt lat="47.38036" lon="6.5049">
        <ele>265.398</ele>
        <time>2016-09-05T13:05:14.000Z</time>
      </trkpt>
      <trkpt lat="47.38031" lon="6.50489">
        <ele>265.98</ele>
        <time>2016-09-05T13:05:15.000Z</time>
      </trkpt>
      <trkpt lat="47.38027" lon="6.50487">
        <ele>266.499</ele>
        <time>2016-09-05T13:05:16.000Z</time>
      </trkpt>
      <trkpt lat="47.38022" lon="6.50485">
        <ele>266.611</ele>
        <time>2016-09-05T13:05:17.000Z</time>
      </trkpt>
      <trkpt lat="47.38018" lon="6.50482">
        <ele>266.416</ele>
        <time>2016-09-05T13:05:18.000Z</time>
      </trkpt>
      <trkpt lat="47.38015" lon="6.50483">
        <ele>267.295</ele>
        <time>2016-09-05T13:05:19.000Z</time>
      </trkpt>
      <trkpt lat="47.3801" lon="6.50482">
        <ele>267.33</ele>
        <time>2016-09-05T13:05:20.000Z</time>
      </trkpt>
      <trkpt lat="47.38005" lon="6.50481">
        <ele>267.918</ele>
        <time>2016-09-05T13:05:21.000Z</time>
      </trkpt>
      <trkpt lat="47.38001" lon="6.5048">
        <ele>267.909</ele>
        <time>2016-09-05T13:05:22.000Z</time>
      </trkpt>
      <trkpt lat="47.37997" lon="6.50479">
        <ele>267.776</ele>
        <time>2016-09-05T13:05:23.000Z</time>
      </trkpt>
      <trkpt lat="47.37991" lon="6.50477">
        <ele>267.858</ele>
        <time>2016-09-05T13:05:24.004Z</time>
      </trkpt>
      <trkpt lat="47.37985" lon="6.50474">
        <ele>268.596</ele>
        <time>2016-09-05T13:05:25.000Z</time>
      </trkpt>
      <trkpt lat="47.37981" lon="6.50472">
        <ele>268.573</ele>
        <time>2016-09-05T13:05:26.000Z</time>
      </trkpt>
      <trkpt lat="47.37979" lon="6.50469">
        <ele>268.484</ele>
        <time>2016-09-05T13:05:27.000Z</time>
      </trkpt>
      <trkpt lat="47.37976" lon="6.50469">
        <ele>270.035</ele>
        <time>2016-09-05T13:05:28.000Z</time>
      </trkpt>
      <trkpt lat="47.37971" lon="6.50466">
        <ele>269.706</ele>
        <time>2016-09-05T13:05:29.000Z</time>
      </trkpt>
      <trkpt lat="47.37969" lon="6.50465">
        <ele>270.363</ele>
        <time>2016-09-05T13:05:30.000Z</time>
      </trkpt>
      <trkpt lat="47.37968" lon="6.50464">
        <ele>270.444</ele>
        <time>2016-09-05T13:05:31.000Z</time>
      </trkpt>
      <trkpt lat="47.37966" lon="6.50465">
        <ele>271.096</ele>
        <time>2016-09-05T13:05:32.000Z</time>
      </trkpt>
      <trkpt lat="47.37962" lon="6.50464">
        <ele>271.788</ele>
        <time>2016-09-05T13:05:33.000Z</time>
      </trkpt>
      <trkpt lat="47.37958" lon="6.5046">
        <ele>272.38</ele>
        <time>2016-09-05T13:05:34.000Z</time>
      </trkpt>
      <trkpt lat="47.37953" lon="6.50461">
        <ele>271.936</ele>
        <time>2016-09-05T13:05:35.000Z</time>
      </trkpt>
      <trkpt lat="47.37946" lon="6.50457">
        <ele>271.455</ele>
        <time>2016-09-05T13:05:36.000Z</time>
      </trkpt>
      <trkpt lat="47.37942" lon="6.50457">
        <ele>272.457</ele>
        <time>2016-09-05T13:05:37.000Z</time>
      </trkpt>
      <trkpt lat="47.37938" lon="6.50458">
        <ele>271.818</ele>
        <time>2016-09-05T13:05:38.000Z</time>
      </trkpt>
      <trkpt lat="47.37933" lon="6.50458">
        <ele>270.483</ele>
        <time>2016-09-05T13:05:39.000Z</time>
      </trkpt>
      <trkpt lat="47.37929" lon="6.50459">
        <ele>270.433</ele>
        <time>2016-09-05T13:05:40.000Z</time>
      </trkpt>
      <trkpt lat="47.37925" lon="6.50459">
        <ele>271.325</ele>
        <time>2016-09-05T13:05:41.000Z</time>
      </trkpt>
      <trkpt lat="47.3792" lon="6.50458">
        <ele>272.249</ele>
        <time>2016-09-05T13:05:42.000Z</time>
      </trkpt>
      <trkpt lat="47.37915" lon="6.50456">
        <ele>272.149</ele>
        <time>2016-09-05T13:05:43.000Z</time>
      </trkpt>
      <trkpt lat="47.37911" lon="6.50455">
        <ele>270.763</ele>
        <time>2016-09-05T13:05:44.000Z</time>
      </trkpt>
      <trkpt lat="47.37906" lon="6.50451">
        <ele>271.122</ele>
        <time>2016-09-05T13:05:45.000Z</time>
      </trkpt>
      <trkpt lat="47.379" lon="6.5045">
        <ele>269.973</ele>
        <time>2016-09-05T13:05:46.000Z</time>
      </trkpt>
      <trkpt lat="47.37893" lon="6.50448">
        <ele>269.76</ele>
        <time>2016-09-05T13:05:47.000Z</time>
      </trkpt>
      <trkpt lat="47.37887" lon="6.50444">
        <ele>271.422</ele>
        <time>2016-09-05T13:05:48.000Z</time>
      </trkpt>
      <trkpt lat="47.37881" lon="6.50444">
        <ele>271.026</ele>
        <time>2016-09-05T13:05:49.000Z</time>
      </trkpt>
      <trkpt lat="47.37875" lon="6.50442">
        <ele>271.359</ele>
        <time>2016-09-05T13:05:50.000Z</time>
      </trkpt>
      <trkpt lat="47.3787" lon="6.5044">
        <ele>272.181</ele>
        <time>2016-09-05T13:05:51.000Z</time>
      </trkpt>
      <trkpt lat="47.37866" lon="6.50442">
        <ele>272.202</ele>
        <time>2016-09-05T13:05:52.000Z</time>
      </trkpt>
      <trkpt lat="47.37864" lon="6.50444">
        <ele>271.534</ele>
        <time>2016-09-05T13:05:53.000Z</time>
      </trkpt>
      <trkpt lat="47.37859" lon="6.50442">
        <ele>272.189</ele>
        <time>2016-09-05T13:05:54.000Z</time>
      </trkpt>
      <trkpt lat="47.37852" lon="6.5044">
        <ele>272.07</ele>
        <time>2016-09-05T13:05:55.000Z</time>
      </trkpt>
      <trkpt lat="47.37847" lon="6.50441">
        <ele>271.543</ele>
        <time>2016-09-05T13:05:56.000Z</time>
      </trkpt>
      <trkpt lat="47.3784" lon="6.50441">
        <ele>271.406</ele>
        <time>2016-09-05T13:05:57.000Z</time>
      </trkpt>
      <trkpt lat="47.37834" lon="6.5044">
        <ele>271.544</ele>
        <time>2016-09-05T13:05:58.000Z</time>
      </trkpt>
      <trkpt lat="47.37828" lon="6.50438">
        <ele>271.177</ele>
        <time>2016-09-05T13:05:59.000Z</time>
      </trkpt>
      <trkpt lat="47.37823" lon="6.50434">
        <ele>272.447</ele>
        <time>2016-09-05T13:06:00.000Z</time>
      </trkpt>
      <trkpt lat="47.37821" lon="6.50435">
        <ele>273.052</ele>
        <time>2016-09-05T13:06:01.000Z</time>
      </trkpt>
      <trkpt lat="47.37815" lon="6.50434">
        <ele>272.58</ele>
        <time>2016-09-05T13:06:02.000Z</time>
      </trkpt>
      <trkpt lat="47.37808" lon="6.50432">
        <ele>272.969</ele>
        <time>2016-09-05T13:06:03.000Z</time>
      </trkpt>
      <trkpt lat="47.37803" lon="6.5043">
        <ele>273.727</ele>
        <time>2016-09-05T13:06:04.000Z</time>
      </trkpt>
      <trkpt lat="47.37798" lon="6.50427">
        <ele>274.451</ele>
        <time>2016-09-05T13:06:05.000Z</time>
      </trkpt>
      <trkpt lat="47.37793" lon="6.50426">
        <ele>274.752</ele>
        <time>2016-09-05T13:06:06.000Z</time>
      </trkpt>
      <trkpt lat="47.37787" lon="6.50423">
        <ele>275.044</ele>
        <time>2016-09-05T13:06:07.000Z</time>
      </trkpt>
      <trkpt lat="47.37783" lon="6.50422">
        <ele>275.118</ele>
        <time>2016-09-05T13:06:08.000Z</time>
      </trkpt>
      <trkpt lat="47.37779" lon="6.5042">
        <ele>276.118</ele>
        <time>2016-09-05T13:06:09.000Z</time>
      </trkpt>
      <trkpt lat="47.37774" lon="6.50418">
        <ele>276.878</ele>
        <time>2016-09-05T13:06:10.000Z</time>
      </trkpt>
      <trkpt lat="47.3777" lon="6.50418">
        <ele>276.685</ele>
        <time>2016-09-05T13:06:11.000Z</time>
      </trkpt>
      <trkpt lat="47.37764" lon="6.50415">
        <ele>276.252</ele>
        <time>2016-09-05T13:06:12.000Z</time>
      </trkpt>
      <trkpt lat="47.37759" lon="6.50415">
        <ele>275.197</ele>
        <time>2016-09-05T13:06:13.000Z</time>
      </trkpt>
      <trkpt lat="47.37755" lon="6.50414">
        <ele>274.533</ele>
        <time>2016-09-05T13:06:14.000Z</time>
      </trkpt>
      <trkpt lat="47.37751" lon="6.50413">
        <ele>274.765</ele>
        <time>2016-09-05T13:06:15.000Z</time>
      </trkpt>
      <trkpt lat="47.37747" lon="6.50412">
        <ele>275.182</ele>
        <time>2016-09-05T13:06:16.000Z</time>
      </trkpt>
      <trkpt lat="47.37744" lon="6.50411">
        <ele>275.358</ele>
        <time>2016-09-05T13:06:17.000Z</time>
      </trkpt>
      <trkpt lat="47.37739" lon="6.5041">
        <ele>275.006</ele>
        <time>2016-09-05T13:06:18.000Z</time>
      </trkpt>
      <trkpt lat="47.37734" lon="6.50408">
        <ele>275.478</ele>
        <time>2016-09-05T13:06:19.000Z</time>
      </trkpt>
      <trkpt lat="47.3773" lon="6.50406">
        <ele>276.05</ele>
        <time>2016-09-05T13:06:20.000Z</time>
      </trkpt>
      <trkpt lat="47.37726" lon="6.50404">
        <ele>275.477</ele>
        <time>2016-09-05T13:06:21.000Z</time>
      </trkpt>
      <trkpt lat="47.37723" lon="6.50403">
        <ele>275.237</ele>
        <time>2016-09-05T13:06:22.000Z</time>
      </trkpt>
      <trkpt lat="47.37719" lon="6.504">
        <ele>275.36</ele>
        <time>2016-09-05T13:06:23.000Z</time>
      </trkpt>
      <trkpt lat="47.37714" lon="6.50396">
        <ele>275.245</ele>
        <time>2016-09-05T13:06:24.000Z</time>
      </trkpt>
      <trkpt lat="47.37709" lon="6.50393">
        <ele>275.193</ele>
        <time>2016-09-05T13:06:25.000Z</time>
      </trkpt>
      <trkpt lat="47.37703" lon="6.50391">
        <ele>273.823</ele>
        <time>2016-09-05T13:06:26.000Z</time>
      </trkpt>
      <trkpt lat="47.37698" lon="6.50388">
        <ele>273.835</ele>
        <time>2016-09-05T13:06:27.000Z</time>
      </trkpt>
      <trkpt lat="47.37692" lon="6.50385">
        <ele>273.238</ele>
        <time>2016-09-05T13:06:28.000Z</time>
      </trkpt>
      <trkpt lat="47.37687" lon="6.50382">
        <ele>273.464</ele>
        <time>2016-09-05T13:06:29.000Z</time>
      </trkpt>
      <trkpt lat="47.37683" lon="6.5038">
        <ele>272.885</ele>
        <time>2016-09-05T13:06:30.000Z</time>
      </trkpt>
      <trkpt lat="47.37678" lon="6.50378">
        <ele>272.965</ele>
        <time>2016-09-05T13:06:31.000Z</time>
      </trkpt>
      <trkpt lat="47.37674" lon="6.50376">
        <ele>273.142</ele>
        <time>2016-09-05T13:06:32.000Z</time>
      </trkpt>
      <trkpt lat="47.37669" lon="6.50374">
        <ele>272.026</ele>
        <time>2016-09-05T13:06:33.000Z</time>
      </trkpt>
      <trkpt lat="47.37664" lon="6.50368">
        <ele>272.687</ele>
        <time>2016-09-05T13:06:34.000Z</time>
      </trkpt>
      <trkpt lat="47.3766" lon="6.50365">
        <ele>272.805</ele>
        <time>2016-09-05T13:06:35.000Z</time>
      </trkpt>
      <trkpt lat="47.37656" lon="6.50365">
        <ele>271.499</ele>
        <time>2016-09-05T13:06:36.000Z</time>
      </trkpt>
      <trkpt lat="47.37651" lon="6.50361">
        <ele>270.776</ele>
        <time>2016-09-05T13:06:37.000Z</time>
      </trkpt>
      <trkpt lat="47.37648" lon="6.5036">
        <ele>270.586</ele>
        <time>2016-09-05T13:06:38.000Z</time>
      </trkpt>
      <trkpt lat="47.37643" lon="6.50357">
        <ele>270.783</ele>
        <time>2016-09-05T13:06:39.000Z</time>
      </trkpt>
      <trkpt lat="47.37639" lon="6.50354">
        <ele>271.191</ele>
        <time>2016-09-05T13:06:40.000Z</time>
      </trkpt>
      <trkpt lat="47.37634" lon="6.50351">
        <ele>270.93</ele>
        <time>2016-09-05T13:06:41.000Z</time>
      </trkpt>
      <trkpt lat="47.3763" lon="6.50347">
        <ele>270.596</ele>
        <time>2016-09-05T13:06:42.000Z</time>
      </trkpt>
      <trkpt lat="47.37627" lon="6.50342">
        <ele>270.62</ele>
        <time>2016-09-05T13:06:43.000Z</time>
      </trkpt>
      <trkpt lat="47.37623" lon="6.5034">
        <ele>270.582</ele>
        <time>2016-09-05T13:06:44.000Z</time>
      </trkpt>
      <trkpt lat="47.37618" lon="6.50335">
        <ele>270.601</ele>
        <time>2016-09-05T13:06:45.000Z</time>
      </trkpt>
      <trkpt lat="47.37614" lon="6.50331">
        <ele>270.934</ele>
        <time>2016-09-05T13:06:46.000Z</time>
      </trkpt>
      <trkpt lat="47.3761" lon="6.50329">
        <ele>270.44</ele>
        <time>2016-09-05T13:06:47.000Z</time>
      </trkpt>
      <trkpt lat="47.37607" lon="6.50324">
        <ele>270.891</ele>
        <time>2016-09-05T13:06:48.000Z</time>
      </trkpt>
      <trkpt lat="47.37603" lon="6.5032">
        <ele>270.818</ele>
        <time>2016-09-05T13:06:49.000Z</time>
      </trkpt>
      <trkpt lat="47.37598" lon="6.50316">
        <ele>271.414</ele>
        <time>2016-09-05T13:06:50.000Z</time>
      </trkpt>
      <trkpt lat="47.37594" lon="6.50313">
        <ele>270.876</ele>
        <time>2016-09-05T13:06:51.000Z</time>
      </trkpt>
      <trkpt lat="47.3759" lon="6.50309">
        <ele>270.966</ele>
        <time>2016-09-05T13:06:52.000Z</time>
      </trkpt>
      <trkpt lat="47.37586" lon="6.50307">
        <ele>270.571</ele>
        <time>2016-09-05T13:06:53.000Z</time>
      </trkpt>
      <trkpt lat="47.37582" lon="6.50302">
        <ele>271.15</ele>
        <time>2016-09-05T13:06:54.000Z</time>
      </trkpt>
      <trkpt lat="47.37578" lon="6.50298">
        <ele>271.589</ele>
        <time>2016-09-05T13:06:55.000Z</time>
      </trkpt>
      <trkpt lat="47.37575" lon="6.50297">
        <ele>270.919</ele>
        <time>2016-09-05T13:06:56.000Z</time>
      </trkpt>
      <trkpt lat="47.37571" lon="6.50293">
        <ele>270.949</ele>
        <time>2016-09-05T13:06:57.000Z</time>
      </trkpt>
      <trkpt lat="47.37569" lon="6.5029">
        <ele>269.622</ele>
        <time>2016-09-05T13:06:58.000Z</time>
      </trkpt>
      <trkpt lat="47.37565" lon="6.50287">
        <ele>269.791</ele>
        <time>2016-09-05T13:06:59.000Z</time>
      </trkpt>
      <trkpt lat="47.37562" lon="6.50284">
        <ele>269.704</ele>
        <time>2016-09-05T13:07:00.000Z</time>
      </trkpt>
      <trkpt lat="47.37558" lon="6.5028">
        <ele>269.854</ele>
        <time>2016-09-05T13:07:01.000Z</time>
      </trkpt>
      <trkpt lat="47.37554" lon="6.50277">
        <ele>269.396</ele>
        <time>2016-09-05T13:07:02.000Z</time>
      </trkpt>
      <trkpt lat="47.37549" lon="6.50274">
        <ele>269.094</ele>
        <time>2016-09-05T13:07:03.000Z</time>
      </trkpt>
      <trkpt lat="47.37545" lon="6.5027">
        <ele>268.374</ele>
        <time>2016-09-05T13:07:04.000Z</time>
      </trkpt>
      <trkpt lat="47.37542" lon="6.50266">
        <ele>268.202</ele>
        <time>2016-09-05T13:07:05.000Z</time>
      </trkpt>
      <trkpt lat="47.37537" lon="6.50261">
        <ele>268.123</ele>
        <time>2016-09-05T13:07:06.000Z</time>
      </trkpt>
      <trkpt lat="47.37533" lon="6.50259">
        <ele>267.938</ele>
        <time>2016-09-05T13:07:07.000Z</time>
      </trkpt>
      <trkpt lat="47.37529" lon="6.50256">
        <ele>268.131</ele>
        <time>2016-09-05T13:07:08.000Z</time>
      </trkpt>
      <trkpt lat="47.37524" lon="6.50253">
        <ele>267.733</ele>
        <time>2016-09-05T13:07:09.000Z</time>
      </trkpt>
      <trkpt lat="47.3752" lon="6.50251">
        <ele>267.712</ele>
        <time>2016-09-05T13:07:10.000Z</time>
      </trkpt>
      <trkpt lat="47.37516" lon="6.50249">
        <ele>266.614</ele>
        <time>2016-09-05T13:07:11.000Z</time>
      </trkpt>
      <trkpt lat="47.37512" lon="6.50245">
        <ele>267.735</ele>
        <time>2016-09-05T13:07:12.000Z</time>
      </trkpt>
      <trkpt lat="47.37509" lon="6.50243">
        <ele>266.779</ele>
        <time>2016-09-05T13:07:13.000Z</time>
      </trkpt>
      <trkpt lat="47.37505" lon="6.50239">
        <ele>267.161</ele>
        <time>2016-09-05T13:07:14.000Z</time>
      </trkpt>
      <trkpt lat="47.375" lon="6.50235">
        <ele>266.887</ele>
        <time>2016-09-05T13:07:15.000Z</time>
      </trkpt>
      <trkpt lat="47.37496" lon="6.50232">
        <ele>267.038</ele>
        <time>2016-09-05T13:07:16.000Z</time>
      </trkpt>
      <trkpt lat="47.37492" lon="6.50228">
        <ele>266.865</ele>
        <time>2016-09-05T13:07:17.000Z</time>
      </trkpt>
      <trkpt lat="47.37489" lon="6.50225">
        <ele>266.825</ele>
        <time>2016-09-05T13:07:18.000Z</time>
      </trkpt>
      <trkpt lat="47.37485" lon="6.50222">
        <ele>266.169</ele>
        <time>2016-09-05T13:07:19.000Z</time>
      </trkpt>
      <trkpt lat="47.37482" lon="6.50218">
        <ele>266.321</ele>
        <time>2016-09-05T13:07:20.000Z</time>
      </trkpt>
      <trkpt lat="47.37478" lon="6.50215">
        <ele>267.21</ele>
        <time>2016-09-05T13:07:21.000Z</time>
      </trkpt>
      <trkpt lat="47.37474" lon="6.50212">
        <ele>267.231</ele>
        <time>2016-09-05T13:07:22.000Z</time>
      </trkpt>
      <trkpt lat="47.37471" lon="6.50207">
        <ele>266.696</ele>
        <time>2016-09-05T13:07:23.000Z</time>
      </trkpt>
      <trkpt lat="47.37465" lon="6.50206">
        <ele>266.42</ele>
        <time>2016-09-05T13:07:24.000Z</time>
      </trkpt>
      <trkpt lat="47.37462" lon="6.50204">
        <ele>265.981</ele>
        <time>2016-09-05T13:07:25.000Z</time>
      </trkpt>
      <trkpt lat="47.37459" lon="6.50201">
        <ele>266.001</ele>
        <time>2016-09-05T13:07:26.000Z</time>
      </trkpt>
      <trkpt lat="47.37455" lon="6.50198">
        <ele>266.283</ele>
        <time>2016-09-05T13:07:27.000Z</time>
      </trkpt>
      <trkpt lat="47.37451" lon="6.50195">
        <ele>266.939</ele>
        <time>2016-09-05T13:07:28.000Z</time>
      </trkpt>
      <trkpt lat="47.37448" lon="6.50193">
        <ele>267.572</ele>
        <time>2016-09-05T13:07:29.000Z</time>
      </trkpt>
      <trkpt lat="47.37445" lon="6.50191">
        <ele>268.318</ele>
        <time>2016-09-05T13:07:30.000Z</time>
      </trkpt>
      <trkpt lat="47.37441" lon="6.50188">
        <ele>268.627</ele>
        <time>2016-09-05T13:07:31.000Z</time>
      </trkpt>
      <trkpt lat="47.37438" lon="6.50186">
        <ele>268.69</ele>
        <time>2016-09-05T13:07:32.000Z</time>
      </trkpt>
      <trkpt lat="47.37434" lon="6.50183">
        <ele>269.357</ele>
        <time>2016-09-05T13:07:33.000Z</time>
      </trkpt>
      <trkpt lat="47.37431" lon="6.5018">
        <ele>270.021</ele>
        <time>2016-09-05T13:07:34.000Z</time>
      </trkpt>
      <trkpt lat="47.37427" lon="6.50177">
        <ele>269.301</ele>
        <time>2016-09-05T13:07:35.000Z</time>
      </trkpt>
      <trkpt lat="47.37424" lon="6.50175">
        <ele>269.573</ele>
        <time>2016-09-05T13:07:36.000Z</time>
      </trkpt>
      <trkpt lat="47.37421" lon="6.50173">
        <ele>270.324</ele>
        <time>2016-09-05T13:07:37.000Z</time>
      </trkpt>
      <trkpt lat="47.37417" lon="6.5017">
        <ele>270.031</ele>
        <time>2016-09-05T13:07:38.000Z</time>
      </trkpt>
      <trkpt lat="47.37413" lon="6.50167">
        <ele>269.478</ele>
        <time>2016-09-05T13:07:39.000Z</time>
      </trkpt>
      <trkpt lat="47.37409" lon="6.50163">
        <ele>269.532</ele>
        <time>2016-09-05T13:07:40.000Z</time>
      </trkpt>
      <trkpt lat="47.37405" lon="6.5016">
        <ele>270.484</ele>
        <time>2016-09-05T13:07:41.000Z</time>
      </trkpt>
      <trkpt lat="47.37399" lon="6.50155">
        <ele>271.545</ele>
        <time>2016-09-05T13:07:42.000Z</time>
      </trkpt>
      <trkpt lat="47.37394" lon="6.50154">
        <ele>271.913</ele>
        <time>2016-09-05T13:07:43.000Z</time>
      </trkpt>
      <trkpt lat="47.3739" lon="6.50152">
        <ele>272.689</ele>
        <time>2016-09-05T13:07:44.000Z</time>
      </trkpt>
      <trkpt lat="47.37386" lon="6.50151">
        <ele>271.872</ele>
        <time>2016-09-05T13:07:45.000Z</time>
      </trkpt>
      <trkpt lat="47.37382" lon="6.5015">
        <ele>272.53</ele>
        <time>2016-09-05T13:07:46.000Z</time>
      </trkpt>
      <trkpt lat="47.37379" lon="6.50149">
        <ele>272.817</ele>
        <time>2016-09-05T13:07:47.000Z</time>
      </trkpt>
      <trkpt lat="47.37375" lon="6.50147">
        <ele>272.951</ele>
        <time>2016-09-05T13:07:48.000Z</time>
      </trkpt>
      <trkpt lat="47.37374" lon="6.50147">
        <ele>272.651</ele>
        <time>2016-09-05T13:07:49.000Z</time>
      </trkpt>
      <trkpt lat="47.37371" lon="6.50145">
        <ele>273.929</ele>
        <time>2016-09-05T13:07:50.000Z</time>
      </trkpt>
      <trkpt lat="47.37369" lon="6.50145">
        <ele>274.621</ele>
        <time>2016-09-05T13:07:51.000Z</time>
      </trkpt>
      <trkpt lat="47.37366" lon="6.50145">
        <ele>274.993</ele>
        <time>2016-09-05T13:07:52.000Z</time>
      </trkpt>
      <trkpt lat="47.37364" lon="6.50144">
        <ele>273.11</ele>
        <time>2016-09-05T13:07:53.000Z</time>
      </trkpt>
      <trkpt lat="47.3736" lon="6.50144">
        <ele>272.495</ele>
        <time>2016-09-05T13:07:54.000Z</time>
      </trkpt>
      <trkpt lat="47.37357" lon="6.50143">
        <ele>273.517</ele>
        <time>2016-09-05T13:07:55.000Z</time>
      </trkpt>
      <trkpt lat="47.37354" lon="6.50142">
        <ele>271.981</ele>
        <time>2016-09-05T13:07:56.000Z</time>
      </trkpt>
      <trkpt lat="47.37351" lon="6.5014">
        <ele>272.158</ele>
        <time>2016-09-05T13:07:57.000Z</time>
      </trkpt>
      <trkpt lat="47.37348" lon="6.50139">
        <ele>270.648</ele>
        <time>2016-09-05T13:07:58.000Z</time>
      </trkpt>
      <trkpt lat="47.37344" lon="6.50138">
        <ele>270.652</ele>
        <time>2016-09-05T13:07:59.000Z</time>
      </trkpt>
      <trkpt lat="47.3734" lon="6.50138">
        <ele>271.324</ele>
        <time>2016-09-05T13:08:00.000Z</time>
      </trkpt>
      <trkpt lat="47.37336" lon="6.50137">
        <ele>272.988</ele>
        <time>2016-09-05T13:08:01.000Z</time>
      </trkpt>
      <trkpt lat="47.37332" lon="6.50135">
        <ele>273.584</ele>
        <time>2016-09-05T13:08:02.000Z</time>
      </trkpt>
      <trkpt lat="47.37327" lon="6.50134">
        <ele>273.89</ele>
        <time>2016-09-05T13:08:03.000Z</time>
      </trkpt>
      <trkpt lat="47.37323" lon="6.50132">
        <ele>273.833</ele>
        <time>2016-09-05T13:08:04.000Z</time>
      </trkpt>
      <trkpt lat="47.37319" lon="6.5013">
        <ele>273.791</ele>
        <time>2016-09-05T13:08:05.000Z</time>
      </trkpt>
      <trkpt lat="47.37315" lon="6.50127">
        <ele>274.011</ele>
        <time>2016-09-05T13:08:06.000Z</time>
      </trkpt>
      <trkpt lat="47.37311" lon="6.50124">
        <ele>274.603</ele>
        <time>2016-09-05T13:08:07.000Z</time>
      </trkpt>
      <trkpt lat="47.37307" lon="6.50121">
        <ele>274.915</ele>
        <time>2016-09-05T13:08:08.000Z</time>
      </trkpt>
      <trkpt lat="47.37303" lon="6.50117">
        <ele>275.748</ele>
        <time>2016-09-05T13:08:09.000Z</time>
      </trkpt>
      <trkpt lat="47.373" lon="6.50113">
        <ele>275.181</ele>
        <time>2016-09-05T13:08:10.000Z</time>
      </trkpt>
      <trkpt lat="47.37297" lon="6.50109">
        <ele>275.531</ele>
        <time>2016-09-05T13:08:11.000Z</time>
      </trkpt>
      <trkpt lat="47.37294" lon="6.50105">
        <ele>275.829</ele>
        <time>2016-09-05T13:08:12.000Z</time>
      </trkpt>
      <trkpt lat="47.37291" lon="6.501">
        <ele>276.874</ele>
        <time>2016-09-05T13:08:13.000Z</time>
      </trkpt>
      <trkpt lat="47.37289" lon="6.50096">
        <ele>277.915</ele>
        <time>2016-09-05T13:08:14.000Z</time>
      </trkpt>
      <trkpt lat="47.37286" lon="6.50093">
        <ele>278.897</ele>
        <time>2016-09-05T13:08:15.000Z</time>
      </trkpt>
      <trkpt lat="47.37283" lon="6.5009">
        <ele>278.844</ele>
        <time>2016-09-05T13:08:16.000Z</time>
      </trkpt>
      <trkpt lat="47.3728" lon="6.50087">
        <ele>279.669</ele>
        <time>2016-09-05T13:08:17.000Z</time>
      </trkpt>
      <trkpt lat="47.37277" lon="6.50085">
        <ele>279.87</ele>
        <time>2016-09-05T13:08:18.000Z</time>
      </trkpt>
      <trkpt lat="47.37274" lon="6.50082">
        <ele>280.387</ele>
        <time>2016-09-05T13:08:19.000Z</time>
      </trkpt>
      <trkpt lat="47.37271" lon="6.50079">
        <ele>280.249</ele>
        <time>2016-09-05T13:08:20.000Z</time>
      </trkpt>
      <trkpt lat="47.37267" lon="6.50076">
        <ele>280.351</ele>
        <time>2016-09-05T13:08:21.000Z</time>
      </trkpt>
      <trkpt lat="47.37264" lon="6.50074">
        <ele>280.064</ele>
        <time>2016-09-05T13:08:22.000Z</time>
      </trkpt>
      <trkpt lat="47.37261" lon="6.50072">
        <ele>280.828</ele>
        <time>2016-09-05T13:08:23.000Z</time>
      </trkpt>
      <trkpt lat="47.37258" lon="6.50069">
        <ele>280.153</ele>
        <time>2016-09-05T13:08:24.000Z</time>
      </trkpt>
      <trkpt lat="47.37255" lon="6.50067">
        <ele>280.558</ele>
        <time>2016-09-05T13:08:25.000Z</time>
      </trkpt>
      <trkpt lat="47.37252" lon="6.50065">
        <ele>281.127</ele>
        <time>2016-09-05T13:08:26.000Z</time>
      </trkpt>
      <trkpt lat="47.37249" lon="6.50063">
        <ele>281.216</ele>
        <time>2016-09-05T13:08:27.000Z</time>
      </trkpt>
      <trkpt lat="47.37246" lon="6.50061">
        <ele>281.678</ele>
        <time>2016-09-05T13:08:28.000Z</time>
      </trkpt>
      <trkpt lat="47.37243" lon="6.50059">
        <ele>281.32</ele>
        <time>2016-09-05T13:08:29.000Z</time>
      </trkpt>
      <trkpt lat="47.37241" lon="6.50056">
        <ele>281.704</ele>
        <time>2016-09-05T13:08:30.000Z</time>
      </trkpt>
      <trkpt lat="47.37238" lon="6.50053">
        <ele>281.794</ele>
        <time>2016-09-05T13:08:31.000Z</time>
      </trkpt>
      <trkpt lat="47.37235" lon="6.5005">
        <ele>281.992</ele>
        <time>2016-09-05T13:08:32.000Z</time>
      </trkpt>
      <trkpt lat="47.37232" lon="6.50048">
        <ele>283.14</ele>
        <time>2016-09-05T13:08:33.000Z</time>
      </trkpt>
      <trkpt lat="47.3723" lon="6.50045">
        <ele>283.803</ele>
        <time>2016-09-05T13:08:34.000Z</time>
      </trkpt>
      <trkpt lat="47.37227" lon="6.50042">
        <ele>284.161</ele>
        <time>2016-09-05T13:08:35.000Z</time>
      </trkpt>
      <trkpt lat="47.37224" lon="6.5004">
        <ele>284.75</ele>
        <time>2016-09-05T13:08:36.000Z</time>
      </trkpt>
      <trkpt lat="47.37221" lon="6.50037">
        <ele>285.605</ele>
        <time>2016-09-05T13:08:37.000Z</time>
      </trkpt>
      <trkpt lat="47.37218" lon="6.50034">
        <ele>286.498</ele>
        <time>2016-09-05T13:08:38.000Z</time>
      </trkpt>
      <trkpt lat="47.37216" lon="6.50032">
        <ele>286.835</ele>
        <time>2016-09-05T13:08:39.000Z</time>
      </trkpt>
      <trkpt lat="47.37213" lon="6.50029">
        <ele>287.194</ele>
        <time>2016-09-05T13:08:40.000Z</time>
      </trkpt>
      <trkpt lat="47.37211" lon="6.50026">
        <ele>286.92</ele>
        <time>2016-09-05T13:08:41.000Z</time>
      </trkpt>
      <trkpt lat="47.37208" lon="6.50024">
        <ele>288.03</ele>
        <time>2016-09-05T13:08:42.000Z</time>
      </trkpt>
      <trkpt lat="47.37206" lon="6.50021">
        <ele>288.254</ele>
        <time>2016-09-05T13:08:43.000Z</time>
      </trkpt>
      <trkpt lat="47.37204" lon="6.50018">
        <ele>288.588</ele>
        <time>2016-09-05T13:08:44.000Z</time>
      </trkpt>
      <trkpt lat="47.37202" lon="6.50015">
        <ele>288.286</ele>
        <time>2016-09-05T13:08:45.000Z</time>
      </trkpt>
      <trkpt lat="47.37199" lon="6.50012">
        <ele>288.554</ele>
        <time>2016-09-05T13:08:46.000Z</time>
      </trkpt>
      <trkpt lat="47.37197" lon="6.50009">
        <ele>288.446</ele>
        <time>2016-09-05T13:08:47.000Z</time>
      </trkpt>
      <trkpt lat="47.37194" lon="6.50005">
        <ele>288.123</ele>
        <time>2016-09-05T13:08:48.000Z</time>
      </trkpt>
      <trkpt lat="47.37192" lon="6.50001">
        <ele>288.028</ele>
        <time>2016-09-05T13:08:49.000Z</time>
      </trkpt>
      <trkpt lat="47.37189" lon="6.49997">
        <ele>287.212</ele>
        <time>2016-09-05T13:08:50.000Z</time>
      </trkpt>
      <trkpt lat="47.37186" lon="6.49993">
        <ele>287.258</ele>
        <time>2016-09-05T13:08:51.000Z</time>
      </trkpt>
      <trkpt lat="47.37182" lon="6.49989">
        <ele>286.431</ele>
        <time>2016-09-05T13:08:52.000Z</time>
      </trkpt>
      <trkpt lat="47.37179" lon="6.49984">
        <ele>285.929</ele>
        <time>2016-09-05T13:08:53.000Z</time>
      </trkpt>
      <trkpt lat="47.37174" lon="6.49978">
        <ele>285.703</ele>
        <time>2016-09-05T13:08:54.000Z</time>
      </trkpt>
      <trkpt lat="47.3717" lon="6.49975">
        <ele>285.428</ele>
        <time>2016-09-05T13:08:55.000Z</time>
      </trkpt>
      <trkpt lat="47.37165" lon="6.49968">
        <ele>284.709</ele>
        <time>2016-09-05T13:08:56.000Z</time>
      </trkpt>
      <trkpt lat="47.37162" lon="6.49963">
        <ele>284.857</ele>
        <time>2016-09-05T13:08:57.000Z</time>
      </trkpt>
      <trkpt lat="47.37159" lon="6.49954">
        <ele>285.114</ele>
        <time>2016-09-05T13:08:58.000Z</time>
      </trkpt>
      <trkpt lat="47.37156" lon="6.49947">
        <ele>285.666</ele>
        <time>2016-09-05T13:08:59.000Z</time>
      </trkpt>
      <trkpt lat="47.37153" lon="6.49939">
        <ele>285.556</ele>
        <time>2016-09-05T13:09:00.000Z</time>
      </trkpt>
      <trkpt lat="47.37153" lon="6.49933">
        <ele>285.828</ele>
        <time>2016-09-05T13:09:01.000Z</time>
      </trkpt>
      <trkpt lat="47.37149" lon="6.49927">
        <ele>285.719</ele>
        <time>2016-09-05T13:09:02.000Z</time>
      </trkpt>
      <trkpt lat="47.37147" lon="6.49922">
        <ele>285.44</ele>
        <time>2016-09-05T13:09:03.000Z</time>
      </trkpt>
      <trkpt lat="47.37139" lon="6.49912">
        <ele>283.923</ele>
        <time>2016-09-05T13:09:04.000Z</time>
      </trkpt>
      <trkpt lat="47.37132" lon="6.49905">
        <ele>282.43</ele>
        <time>2016-09-05T13:09:05.000Z</time>
      </trkpt>
      <trkpt lat="47.3713" lon="6.49895">
        <ele>282.598</ele>
        <time>2016-09-05T13:09:06.000Z</time>
      </trkpt>
      <trkpt lat="47.37126" lon="6.49885">
        <ele>281.751</ele>
        <time>2016-09-05T13:09:07.000Z</time>
      </trkpt>
      <trkpt lat="47.37121" lon="6.49877">
        <ele>281.092</ele>
        <time>2016-09-05T13:09:08.000Z</time>
      </trkpt>
      <trkpt lat="47.37117" lon="6.49867">
        <ele>281.347</ele>
        <time>2016-09-05T13:09:09.000Z</time>
      </trkpt>
      <trkpt lat="47.37114" lon="6.49857">
        <ele>281.428</ele>
        <time>2016-09-05T13:09:10.000Z</time>
      </trkpt>
      <trkpt lat="47.37112" lon="6.49847">
        <ele>281.6</ele>
        <time>2016-09-05T13:09:11.000Z</time>
      </trkpt>
      <trkpt lat="47.37108" lon="6.49842">
        <ele>282.094</ele>
        <time>2016-09-05T13:09:12.000Z</time>
      </trkpt>
      <trkpt lat="47.37102" lon="6.49834">
        <ele>280.774</ele>
        <time>2016-09-05T13:09:13.000Z</time>
      </trkpt>
      <trkpt lat="47.37096" lon="6.49827">
        <ele>279.557</ele>
        <time>2016-09-05T13:09:14.000Z</time>
      </trkpt>
      <trkpt lat="47.37093" lon="6.49819">
        <ele>279.321</ele>
        <time>2016-09-05T13:09:15.000Z</time>
      </trkpt>
      <trkpt lat="47.37092" lon="6.4981">
        <ele>279.26</ele>
        <time>2016-09-05T13:09:16.000Z</time>
      </trkpt>
      <trkpt lat="47.3709" lon="6.49803">
        <ele>279.084</ele>
        <time>2016-09-05T13:09:17.000Z</time>
      </trkpt>
      <trkpt lat="47.37088" lon="6.49796">
        <ele>278.826</ele>
        <time>2016-09-05T13:09:18.000Z</time>
      </trkpt>
      <trkpt lat="47.37086" lon="6.49789">
        <ele>279.514</ele>
        <time>2016-09-05T13:09:19.000Z</time>
      </trkpt>
      <trkpt lat="47.37081" lon="6.49784">
        <ele>279.389</ele>
        <time>2016-09-05T13:09:20.000Z</time>
      </trkpt>
      <trkpt lat="47.37079" lon="6.49778">
        <ele>280.509</ele>
        <time>2016-09-05T13:09:21.000Z</time>
      </trkpt>
      <trkpt lat="47.37074" lon="6.49772">
        <ele>279.86</ele>
        <time>2016-09-05T13:09:22.000Z</time>
      </trkpt>
      <trkpt lat="47.37072" lon="6.49764">
        <ele>279.803</ele>
        <time>2016-09-05T13:09:23.000Z</time>
      </trkpt>
      <trkpt lat="47.37068" lon="6.49758">
        <ele>279.359</ele>
        <time>2016-09-05T13:09:24.000Z</time>
      </trkpt>
      <trkpt lat="47.37065" lon="6.49751">
        <ele>279.577</ele>
        <time>2016-09-05T13:09:25.000Z</time>
      </trkpt>
      <trkpt lat="47.37063" lon="6.49743">
        <ele>279.711</ele>
        <time>2016-09-05T13:09:26.000Z</time>
      </trkpt>
      <trkpt lat="47.37061" lon="6.49738">
        <ele>280.168</ele>
        <time>2016-09-05T13:09:27.000Z</time>
      </trkpt>
      <trkpt lat="47.37058" lon="6.49731">
        <ele>280.677</ele>
        <time>2016-09-05T13:09:28.000Z</time>
      </trkpt>
      <trkpt lat="47.37054" lon="6.49725">
        <ele>281.138</ele>
        <time>2016-09-05T13:09:29.000Z</time>
      </trkpt>
      <trkpt lat="47.37051" lon="6.49719">
        <ele>281.182</ele>
        <time>2016-09-05T13:09:30.000Z</time>
      </trkpt>
      <trkpt lat="47.37046" lon="6.49713">
        <ele>279.628</ele>
        <time>2016-09-05T13:09:31.000Z</time>
      </trkpt>
      <trkpt lat="47.37044" lon="6.49708">
        <ele>281.432</ele>
        <time>2016-09-05T13:09:32.000Z</time>
      </trkpt>
      <trkpt lat="47.37044" lon="6.49703">
        <ele>284.045</ele>
        <time>2016-09-05T13:09:33.000Z</time>
      </trkpt>
      <trkpt lat="47.37041" lon="6.49696">
        <ele>283.754</ele>
        <time>2016-09-05T13:09:34.000Z</time>
      </trkpt>
      <trkpt lat="47.37036" lon="6.49689">
        <ele>279.609</ele>
        <time>2016-09-05T13:09:35.000Z</time>
      </trkpt>
      <trkpt lat="47.37036" lon="6.49684">
        <ele>280.892</ele>
        <time>2016-09-05T13:09:36.000Z</time>
      </trkpt>
      <trkpt lat="47.37028" lon="6.49678">
        <ele>277.517</ele>
        <time>2016-09-05T13:09:37.000Z</time>
      </trkpt>
      <trkpt lat="47.37025" lon="6.49675">
        <ele>278.119</ele>
        <time>2016-09-05T13:09:38.000Z</time>
      </trkpt>
      <trkpt lat="47.3702" lon="6.49668">
        <ele>277.179</ele>
        <time>2016-09-05T13:09:39.000Z</time>
      </trkpt>
      <trkpt lat="47.37018" lon="6.49662">
        <ele>276.608</ele>
        <time>2016-09-05T13:09:40.000Z</time>
      </trkpt>
      <trkpt lat="47.37016" lon="6.49657">
        <ele>277.163</ele>
        <time>2016-09-05T13:09:41.000Z</time>
      </trkpt>
      <trkpt lat="47.37014" lon="6.49651">
        <ele>277.907</ele>
        <time>2016-09-05T13:09:42.000Z</time>
      </trkpt>
      <trkpt lat="47.3701" lon="6.49647">
        <ele>278.167</ele>
        <time>2016-09-05T13:09:43.000Z</time>
      </trkpt>
      <trkpt lat="47.3701" lon="6.49642">
        <ele>279.963</ele>
        <time>2016-09-05T13:09:44.000Z</time>
      </trkpt>
      <trkpt lat="47.37009" lon="6.49637">
        <ele>281.139</ele>
        <time>2016-09-05T13:09:45.000Z</time>
      </trkpt>
      <trkpt lat="47.37006" lon="6.49631">
        <ele>280.606</ele>
        <time>2016-09-05T13:09:46.000Z</time>
      </trkpt>
      <trkpt lat="47.37004" lon="6.49625">
        <ele>280.688</ele>
        <time>2016-09-05T13:09:47.000Z</time>
      </trkpt>
      <trkpt lat="47.37002" lon="6.4962">
        <ele>281.243</ele>
        <time>2016-09-05T13:09:48.000Z</time>
      </trkpt>
      <trkpt lat="47.37003" lon="6.49614">
        <ele>282.612</ele>
        <time>2016-09-05T13:09:49.000Z</time>
      </trkpt>
      <trkpt lat="47.37001" lon="6.49609">
        <ele>283.445</ele>
        <time>2016-09-05T13:09:50.000Z</time>
      </trkpt>
      <trkpt lat="47.37001" lon="6.49609">
        <ele>284.34</ele>
        <time>2016-09-05T13:09:51.000Z</time>
      </trkpt>
      <trkpt lat="47.36999" lon="6.49604">
        <ele>285.069</ele>
        <time>2016-09-05T13:09:52.000Z</time>
      </trkpt>
      <trkpt lat="47.36996" lon="6.49598">
        <ele>284.054</ele>
        <time>2016-09-05T13:09:53.000Z</time>
      </trkpt>
      <trkpt lat="47.36993" lon="6.49593">
        <ele>284.82</ele>
        <time>2016-09-05T13:09:54.000Z</time>
      </trkpt>
      <trkpt lat="47.3699" lon="6.49588">
        <ele>286.354</ele>
        <time>2016-09-05T13:09:55.000Z</time>
      </trkpt>
      <trkpt lat="47.36987" lon="6.49583">
        <ele>285.658</ele>
        <time>2016-09-05T13:09:56.000Z</time>
      </trkpt>
      <trkpt lat="47.36984" lon="6.49577">
        <ele>286.527</ele>
        <time>2016-09-05T13:09:57.000Z</time>
      </trkpt>
      <trkpt lat="47.36982" lon="6.49571">
        <ele>287.254</ele>
        <time>2016-09-05T13:09:58.000Z</time>
      </trkpt>
      <trkpt lat="47.3698" lon="6.49564">
        <ele>286.791</ele>
        <time>2016-09-05T13:09:59.000Z</time>
      </trkpt>
      <trkpt lat="47.36974" lon="6.49554">
        <ele>282.992</ele>
        <time>2016-09-05T13:10:00.000Z</time>
      </trkpt>
      <trkpt lat="47.36973" lon="6.49551">
        <ele>284.536</ele>
        <time>2016-09-05T13:10:01.000Z</time>
      </trkpt>
      <trkpt lat="47.3697" lon="6.49544">
        <ele>284.091</ele>
        <time>2016-09-05T13:10:02.000Z</time>
      </trkpt>
      <trkpt lat="47.36967" lon="6.49537">
        <ele>284.842</ele>
        <time>2016-09-05T13:10:03.000Z</time>
      </trkpt>
      <trkpt lat="47.36964" lon="6.49532">
        <ele>283.92</ele>
        <time>2016-09-05T13:10:04.000Z</time>
      </trkpt>
      <trkpt lat="47.36962" lon="6.49524">
        <ele>284.08</ele>
        <time>2016-09-05T13:10:05.000Z</time>
      </trkpt>
      <trkpt lat="47.3696" lon="6.49517">
        <ele>284.264</ele>
        <time>2016-09-05T13:10:06.000Z</time>
      </trkpt>
      <trkpt lat="47.36959" lon="6.49511">
        <ele>284.027</ele>
        <time>2016-09-05T13:10:07.000Z</time>
      </trkpt>
      <trkpt lat="47.36957" lon="6.49506">
        <ele>282.805</ele>
        <time>2016-09-05T13:10:08.000Z</time>
      </trkpt>
      <trkpt lat="47.36955" lon="6.495">
        <ele>282.733</ele>
        <time>2016-09-05T13:10:09.000Z</time>
      </trkpt>
      <trkpt lat="47.36951" lon="6.49494">
        <ele>282.051</ele>
        <time>2016-09-05T13:10:10.000Z</time>
      </trkpt>
      <trkpt lat="47.36949" lon="6.49487">
        <ele>282.952</ele>
        <time>2016-09-05T13:10:11.000Z</time>
      </trkpt>
      <trkpt lat="47.36948" lon="6.49482">
        <ele>283.092</ele>
        <time>2016-09-05T13:10:12.000Z</time>
      </trkpt>
      <trkpt lat="47.36949" lon="6.49475">
        <ele>282.353</ele>
        <time>2016-09-05T13:10:13.000Z</time>
      </trkpt>
      <trkpt lat="47.36947" lon="6.49468">
        <ele>281.588</ele>
        <time>2016-09-05T13:10:14.000Z</time>
      </trkpt>
      <trkpt lat="47.36941" lon="6.49465">
        <ele>281.098</ele>
        <time>2016-09-05T13:10:15.000Z</time>
      </trkpt>
      <trkpt lat="47.36941" lon="6.49458">
        <ele>281.335</ele>
        <time>2016-09-05T13:10:16.000Z</time>
      </trkpt>
      <trkpt lat="47.36938" lon="6.4945">
        <ele>281.161</ele>
        <time>2016-09-05T13:10:17.000Z</time>
      </trkpt>
      <trkpt lat="47.36936" lon="6.49442">
        <ele>281.179</ele>
        <time>2016-09-05T13:10:18.000Z</time>
      </trkpt>
      <trkpt lat="47.36935" lon="6.49433">
        <ele>281.283</ele>
        <time>2016-09-05T13:10:19.000Z</time>
      </trkpt>
      <trkpt lat="47.36932" lon="6.4943">
        <ele>281.107</ele>
        <time>2016-09-05T13:10:20.000Z</time>
      </trkpt>
      <trkpt lat="47.36926" lon="6.49424">
        <ele>280.805</ele>
        <time>2016-09-05T13:10:21.000Z</time>
      </trkpt>
      <trkpt lat="47.36925" lon="6.49417">
        <ele>282.087</ele>
        <time>2016-09-05T13:10:22.000Z</time>
      </trkpt>
      <trkpt lat="47.36922" lon="6.4941">
        <ele>282.407</ele>
        <time>2016-09-05T13:10:23.000Z</time>
      </trkpt>
      <trkpt lat="47.36921" lon="6.49401">
        <ele>282.117</ele>
        <time>2016-09-05T13:10:24.000Z</time>
      </trkpt>
      <trkpt lat="47.36917" lon="6.49392">
        <ele>280.811</ele>
        <time>2016-09-05T13:10:25.000Z</time>
      </trkpt>
      <trkpt lat="47.36914" lon="6.49385">
        <ele>281.072</ele>
        <time>2016-09-05T13:10:26.000Z</time>
      </trkpt>
      <trkpt lat="47.3691" lon="6.49378">
        <ele>280.539</ele>
        <time>2016-09-05T13:10:27.000Z</time>
      </trkpt>
      <trkpt lat="47.36907" lon="6.4937">
        <ele>279.629</ele>
        <time>2016-09-05T13:10:28.000Z</time>
      </trkpt>
      <trkpt lat="47.36903" lon="6.49363">
        <ele>279.287</ele>
        <time>2016-09-05T13:10:29.000Z</time>
      </trkpt>
      <trkpt lat="47.36903" lon="6.49357">
        <ele>278.421</ele>
        <time>2016-09-05T13:10:30.000Z</time>
      </trkpt>
      <trkpt lat="47.36901" lon="6.4935">
        <ele>279.281</ele>
        <time>2016-09-05T13:10:31.000Z</time>
      </trkpt>
      <trkpt lat="47.369" lon="6.49346">
        <ele>280.02</ele>
        <time>2016-09-05T13:10:32.000Z</time>
      </trkpt>
      <trkpt lat="47.36899" lon="6.4934">
        <ele>280.081</ele>
        <time>2016-09-05T13:10:33.000Z</time>
      </trkpt>
      <trkpt lat="47.36896" lon="6.49333">
        <ele>280.045</ele>
        <time>2016-09-05T13:10:34.000Z</time>
      </trkpt>
      <trkpt lat="47.36892" lon="6.49326">
        <ele>281.174</ele>
        <time>2016-09-05T13:10:35.000Z</time>
      </trkpt>
      <trkpt lat="47.36889" lon="6.49323">
        <ele>280.724</ele>
        <time>2016-09-05T13:10:36.000Z</time>
      </trkpt>
      <trkpt lat="47.36886" lon="6.49317">
        <ele>280.597</ele>
        <time>2016-09-05T13:10:37.000Z</time>
      </trkpt>
      <trkpt lat="47.36885" lon="6.49308">
        <ele>281.42</ele>
        <time>2016-09-05T13:10:38.000Z</time>
      </trkpt>
      <trkpt lat="47.36884" lon="6.493">
        <ele>281.899</ele>
        <time>2016-09-05T13:10:39.000Z</time>
      </trkpt>
      <trkpt lat="47.36883" lon="6.49292">
        <ele>281.836</ele>
        <time>2016-09-05T13:10:40.000Z</time>
      </trkpt>
      <trkpt lat="47.3688" lon="6.49285">
        <ele>281.471</ele>
        <time>2016-09-05T13:10:41.000Z</time>
      </trkpt>
      <trkpt lat="47.36878" lon="6.4928">
        <ele>279.516</ele>
        <time>2016-09-05T13:10:42.000Z</time>
      </trkpt>
      <trkpt lat="47.36876" lon="6.49274">
        <ele>280.817</ele>
        <time>2016-09-05T13:10:43.000Z</time>
      </trkpt>
      <trkpt lat="47.36875" lon="6.49268">
        <ele>280.873</ele>
        <time>2016-09-05T13:10:44.000Z</time>
      </trkpt>
      <trkpt lat="47.36876" lon="6.4926">
        <ele>281.545</ele>
        <time>2016-09-05T13:10:45.000Z</time>
      </trkpt>
      <trkpt lat="47.36873" lon="6.49255">
        <ele>281.497</ele>
        <time>2016-09-05T13:10:46.000Z</time>
      </trkpt>
      <trkpt lat="47.36871" lon="6.49249">
        <ele>280.871</ele>
        <time>2016-09-05T13:10:47.000Z</time>
      </trkpt>
      <trkpt lat="47.36871" lon="6.49244">
        <ele>280.359</ele>
        <time>2016-09-05T13:10:48.000Z</time>
      </trkpt>
      <trkpt lat="47.36866" lon="6.49238">
        <ele>279.1</ele>
        <time>2016-09-05T13:10:49.000Z</time>
      </trkpt>
      <trkpt lat="47.36863" lon="6.49232">
        <ele>278.829</ele>
        <time>2016-09-05T13:10:50.000Z</time>
      </trkpt>
      <trkpt lat="47.36862" lon="6.49226">
        <ele>279.411</ele>
        <time>2016-09-05T13:10:51.000Z</time>
      </trkpt>
      <trkpt lat="47.36862" lon="6.49221">
        <ele>278.321</ele>
        <time>2016-09-05T13:10:52.000Z</time>
      </trkpt>
      <trkpt lat="47.36859" lon="6.49214">
        <ele>278.174</ele>
        <time>2016-09-05T13:10:53.000Z</time>
      </trkpt>
      <trkpt lat="47.36859" lon="6.49207">
        <ele>278.595</ele>
        <time>2016-09-05T13:10:54.000Z</time>
      </trkpt>
      <trkpt lat="47.36859" lon="6.49199">
        <ele>279.305</ele>
        <time>2016-09-05T13:10:55.000Z</time>
      </trkpt>
      <trkpt lat="47.36858" lon="6.49192">
        <ele>280.387</ele>
        <time>2016-09-05T13:10:56.000Z</time>
      </trkpt>
      <trkpt lat="47.36857" lon="6.49186">
        <ele>281.674</ele>
        <time>2016-09-05T13:10:57.000Z</time>
      </trkpt>
      <trkpt lat="47.36854" lon="6.49182">
        <ele>281.036</ele>
        <time>2016-09-05T13:10:58.000Z</time>
      </trkpt>
      <trkpt lat="47.36858" lon="6.49173">
        <ele>282.156</ele>
        <time>2016-09-05T13:10:59.000Z</time>
      </trkpt>
      <trkpt lat="47.36857" lon="6.49167">
        <ele>281.723</ele>
        <time>2016-09-05T13:11:00.000Z</time>
      </trkpt>
      <trkpt lat="47.36852" lon="6.49163">
        <ele>280.516</ele>
        <time>2016-09-05T13:11:01.000Z</time>
      </trkpt>
      <trkpt lat="47.3685" lon="6.49156">
        <ele>279.151</ele>
        <time>2016-09-05T13:11:02.000Z</time>
      </trkpt>
      <trkpt lat="47.36845" lon="6.49152">
        <ele>278.164</ele>
        <time>2016-09-05T13:11:03.000Z</time>
      </trkpt>
      <trkpt lat="47.36843" lon="6.49144">
        <ele>276.636</ele>
        <time>2016-09-05T13:11:04.000Z</time>
      </trkpt>
      <trkpt lat="47.3684" lon="6.49139">
        <ele>276.413</ele>
        <time>2016-09-05T13:11:05.000Z</time>
      </trkpt>
      <trkpt lat="47.36839" lon="6.49133">
        <ele>277.11</ele>
        <time>2016-09-05T13:11:06.000Z</time>
      </trkpt>
      <trkpt lat="47.36839" lon="6.49127">
        <ele>277.459</ele>
        <time>2016-09-05T13:11:07.000Z</time>
      </trkpt>
      <trkpt lat="47.36835" lon="6.49121">
        <ele>276.971</ele>
        <time>2016-09-05T13:11:08.000Z</time>
      </trkpt>
      <trkpt lat="47.36833" lon="6.49113">
        <ele>276.394</ele>
        <time>2016-09-05T13:11:09.000Z</time>
      </trkpt>
      <trkpt lat="47.3683" lon="6.49107">
        <ele>276.938</ele>
        <time>2016-09-05T13:11:10.000Z</time>
      </trkpt>
      <trkpt lat="47.36828" lon="6.49103">
        <ele>277.137</ele>
        <time>2016-09-05T13:11:11.000Z</time>
      </trkpt>
      <trkpt lat="47.36827" lon="6.49097">
        <ele>278.319</ele>
        <time>2016-09-05T13:11:12.000Z</time>
      </trkpt>
      <trkpt lat="47.36827" lon="6.49091">
        <ele>278.685</ele>
        <time>2016-09-05T13:11:13.000Z</time>
      </trkpt>
      <trkpt lat="47.36826" lon="6.49086">
        <ele>278.669</ele>
        <time>2016-09-05T13:11:14.000Z</time>
      </trkpt>
      <trkpt lat="47.36826" lon="6.4908">
        <ele>279.09</ele>
        <time>2016-09-05T13:11:15.000Z</time>
      </trkpt>
      <trkpt lat="47.36826" lon="6.49074">
        <ele>279.878</ele>
        <time>2016-09-05T13:11:16.000Z</time>
      </trkpt>
      <trkpt lat="47.36825" lon="6.49068">
        <ele>278.911</ele>
        <time>2016-09-05T13:11:17.000Z</time>
      </trkpt>
      <trkpt lat="47.36826" lon="6.49063">
        <ele>279.266</ele>
        <time>2016-09-05T13:11:18.000Z</time>
      </trkpt>
      <trkpt lat="47.36825" lon="6.49058">
        <ele>280.118</ele>
        <time>2016-09-05T13:11:19.000Z</time>
      </trkpt>
      <trkpt lat="47.36824" lon="6.49053">
        <ele>280.889</ele>
        <time>2016-09-05T13:11:20.000Z</time>
      </trkpt>
      <trkpt lat="47.36823" lon="6.49049">
        <ele>280.785</ele>
        <time>2016-09-05T13:11:21.000Z</time>
      </trkpt>
      <trkpt lat="47.36822" lon="6.49044">
        <ele>280.552</ele>
        <time>2016-09-05T13:11:22.000Z</time>
      </trkpt>
      <trkpt lat="47.36821" lon="6.49039">
        <ele>282.131</ele>
        <time>2016-09-05T13:11:23.000Z</time>
      </trkpt>
      <trkpt lat="47.3682" lon="6.49036">
        <ele>282.722</ele>
        <time>2016-09-05T13:11:24.000Z</time>
      </trkpt>
      <trkpt lat="47.36818" lon="6.49032">
        <ele>283.47</ele>
        <time>2016-09-05T13:11:25.000Z</time>
      </trkpt>
      <trkpt lat="47.36816" lon="6.49028">
        <ele>282.642</ele>
        <time>2016-09-05T13:11:26.000Z</time>
      </trkpt>
      <trkpt lat="47.36813" lon="6.49024">
        <ele>282.619</ele>
        <time>2016-09-05T13:11:27.000Z</time>
      </trkpt>
      <trkpt lat="47.36811" lon="6.49021">
        <ele>283.117</ele>
        <time>2016-09-05T13:11:28.000Z</time>
      </trkpt>
      <trkpt lat="47.36809" lon="6.49018">
        <ele>283.42</ele>
        <time>2016-09-05T13:11:29.000Z</time>
      </trkpt>
      <trkpt lat="47.36807" lon="6.49015">
        <ele>283.898</ele>
        <time>2016-09-05T13:11:30.000Z</time>
      </trkpt>
      <trkpt lat="47.36805" lon="6.49012">
        <ele>283.822</ele>
        <time>2016-09-05T13:11:31.000Z</time>
      </trkpt>
      <trkpt lat="47.36804" lon="6.49008">
        <ele>283.995</ele>
        <time>2016-09-05T13:11:32.000Z</time>
      </trkpt>
      <trkpt lat="47.36804" lon="6.49004">
        <ele>284.417</ele>
        <time>2016-09-05T13:11:33.000Z</time>
      </trkpt>
      <trkpt lat="47.36804" lon="6.49001">
        <ele>284.996</ele>
        <time>2016-09-05T13:11:34.000Z</time>
      </trkpt>
      <trkpt lat="47.36804" lon="6.48996">
        <ele>286.553</ele>
        <time>2016-09-05T13:11:35.000Z</time>
      </trkpt>
      <trkpt lat="47.36805" lon="6.48992">
        <ele>285.582</ele>
        <time>2016-09-05T13:11:36.000Z</time>
      </trkpt>
      <trkpt lat="47.36805" lon="6.48987">
        <ele>285.763</ele>
        <time>2016-09-05T13:11:37.000Z</time>
      </trkpt>
      <trkpt lat="47.36804" lon="6.48982">
        <ele>286.311</ele>
        <time>2016-09-05T13:11:38.000Z</time>
      </trkpt>
      <trkpt lat="47.36804" lon="6.48978">
        <ele>286.199</ele>
        <time>2016-09-05T13:11:39.000Z</time>
      </trkpt>
      <trkpt lat="47.36804" lon="6.48973">
        <ele>286.929</ele>
        <time>2016-09-05T13:11:40.000Z</time>
      </trkpt>
      <trkpt lat="47.36803" lon="6.4897">
        <ele>286.806</ele>
        <time>2016-09-05T13:11:41.000Z</time>
      </trkpt>
      <trkpt lat="47.36802" lon="6.48966">
        <ele>285.532</ele>
        <time>2016-09-05T13:11:42.000Z</time>
      </trkpt>
      <trkpt lat="47.368" lon="6.48963">
        <ele>285.499</ele>
        <time>2016-09-05T13:11:43.000Z</time>
      </trkpt>
      <trkpt lat="47.36799" lon="6.4896">
        <ele>285.876</ele>
        <time>2016-09-05T13:11:44.000Z</time>
      </trkpt>
      <trkpt lat="47.36798" lon="6.48957">
        <ele>286.874</ele>
        <time>2016-09-05T13:11:45.000Z</time>
      </trkpt>
      <trkpt lat="47.36797" lon="6.48954">
        <ele>286.181</ele>
        <time>2016-09-05T13:11:46.000Z</time>
      </trkpt>
      <trkpt lat="47.36796" lon="6.4895">
        <ele>287.032</ele>
        <time>2016-09-05T13:11:47.000Z</time>
      </trkpt>
      <trkpt lat="47.36795" lon="6.48947">
        <ele>287.509</ele>
        <time>2016-09-05T13:11:48.000Z</time>
      </trkpt>
      <trkpt lat="47.36794" lon="6.48943">
        <ele>288.177</ele>
        <time>2016-09-05T13:11:49.000Z</time>
      </trkpt>
      <trkpt lat="47.36793" lon="6.4894">
        <ele>289.434</ele>
        <time>2016-09-05T13:11:50.000Z</time>
      </trkpt>
      <trkpt lat="47.36792" lon="6.48935">
        <ele>288.718</ele>
        <time>2016-09-05T13:11:51.000Z</time>
      </trkpt>
      <trkpt lat="47.36792" lon="6.48931">
        <ele>288.423</ele>
        <time>2016-09-05T13:11:52.000Z</time>
      </trkpt>
      <trkpt lat="47.36791" lon="6.48926">
        <ele>288.745</ele>
        <time>2016-09-05T13:11:53.000Z</time>
      </trkpt>
      <trkpt lat="47.3679" lon="6.48922">
        <ele>287.587</ele>
        <time>2016-09-05T13:11:54.000Z</time>
      </trkpt>
      <trkpt lat="47.3679" lon="6.48918">
        <ele>288.787</ele>
        <time>2016-09-05T13:11:55.000Z</time>
      </trkpt>
      <trkpt lat="47.36789" lon="6.48914">
        <ele>288.54</ele>
        <time>2016-09-05T13:11:56.000Z</time>
      </trkpt>
      <trkpt lat="47.36789" lon="6.48909">
        <ele>289.538</ele>
        <time>2016-09-05T13:11:57.000Z</time>
      </trkpt>
      <trkpt lat="47.36789" lon="6.48905">
        <ele>291.128</ele>
        <time>2016-09-05T13:11:58.000Z</time>
      </trkpt>
      <trkpt lat="47.36788" lon="6.489">
        <ele>289.74</ele>
        <time>2016-09-05T13:11:59.000Z</time>
      </trkpt>
      <trkpt lat="47.36787" lon="6.48896">
        <ele>287.375</ele>
        <time>2016-09-05T13:12:00.000Z</time>
      </trkpt>
      <trkpt lat="47.36786" lon="6.48891">
        <ele>288.017</ele>
        <time>2016-09-05T13:12:01.000Z</time>
      </trkpt>
      <trkpt lat="47.36784" lon="6.48887">
        <ele>288.426</ele>
        <time>2016-09-05T13:12:02.000Z</time>
      </trkpt>
      <trkpt lat="47.36783" lon="6.48884">
        <ele>288.433</ele>
        <time>2016-09-05T13:12:03.000Z</time>
      </trkpt>
      <trkpt lat="47.36782" lon="6.4888">
        <ele>287.733</ele>
        <time>2016-09-05T13:12:04.000Z</time>
      </trkpt>
      <trkpt lat="47.36781" lon="6.48877">
        <ele>287.862</ele>
        <time>2016-09-05T13:12:05.000Z</time>
      </trkpt>
      <trkpt lat="47.3678" lon="6.48873">
        <ele>288.794</ele>
        <time>2016-09-05T13:12:06.000Z</time>
      </trkpt>
      <trkpt lat="47.36778" lon="6.4887">
        <ele>287.756</ele>
        <time>2016-09-05T13:12:07.000Z</time>
      </trkpt>
      <trkpt lat="47.36778" lon="6.48866">
        <ele>288.568</ele>
        <time>2016-09-05T13:12:08.000Z</time>
      </trkpt>
      <trkpt lat="47.36777" lon="6.48861">
        <ele>288.135</ele>
        <time>2016-09-05T13:12:09.000Z</time>
      </trkpt>
      <trkpt lat="47.36776" lon="6.48857">
        <ele>288.355</ele>
        <time>2016-09-05T13:12:10.000Z</time>
      </trkpt>
      <trkpt lat="47.36775" lon="6.48853">
        <ele>288.007</ele>
        <time>2016-09-05T13:12:11.000Z</time>
      </trkpt>
      <trkpt lat="47.36774" lon="6.48849">
        <ele>289.246</ele>
        <time>2016-09-05T13:12:12.000Z</time>
      </trkpt>
      <trkpt lat="47.36773" lon="6.48846">
        <ele>289.284</ele>
        <time>2016-09-05T13:12:13.000Z</time>
      </trkpt>
      <trkpt lat="47.36773" lon="6.48842">
        <ele>290.421</ele>
        <time>2016-09-05T13:12:14.000Z</time>
      </trkpt>
      <trkpt lat="47.36772" lon="6.48838">
        <ele>289.685</ele>
        <time>2016-09-05T13:12:15.000Z</time>
      </trkpt>
      <trkpt lat="47.36772" lon="6.48834">
        <ele>290.072</ele>
        <time>2016-09-05T13:12:16.000Z</time>
      </trkpt>
      <trkpt lat="47.36771" lon="6.4883">
        <ele>290.428</ele>
        <time>2016-09-05T13:12:17.000Z</time>
      </trkpt>
      <trkpt lat="47.36771" lon="6.48826">
        <ele>291.448</ele>
        <time>2016-09-05T13:12:18.000Z</time>
      </trkpt>
      <trkpt lat="47.36771" lon="6.48822">
        <ele>290.993</ele>
        <time>2016-09-05T13:12:19.000Z</time>
      </trkpt>
      <trkpt lat="47.3677" lon="6.48818">
        <ele>291.164</ele>
        <time>2016-09-05T13:12:20.000Z</time>
      </trkpt>
      <trkpt lat="47.3677" lon="6.48814">
        <ele>290.369</ele>
        <time>2016-09-05T13:12:21.000Z</time>
      </trkpt>
      <trkpt lat="47.3677" lon="6.4881">
        <ele>290.303</ele>
        <time>2016-09-05T13:12:22.000Z</time>
      </trkpt>
      <trkpt lat="47.3677" lon="6.48806">
        <ele>291.757</ele>
        <time>2016-09-05T13:12:23.000Z</time>
      </trkpt>
      <trkpt lat="47.36771" lon="6.48802">
        <ele>291.048</ele>
        <time>2016-09-05T13:12:24.000Z</time>
      </trkpt>
      <trkpt lat="47.36771" lon="6.48798">
        <ele>291.688</ele>
        <time>2016-09-05T13:12:25.000Z</time>
      </trkpt>
      <trkpt lat="47.36771" lon="6.48794">
        <ele>291.819</ele>
        <time>2016-09-05T13:12:26.000Z</time>
      </trkpt>
      <trkpt lat="47.36772" lon="6.48789">
        <ele>294.767</ele>
        <time>2016-09-05T13:12:27.000Z</time>
      </trkpt>
      <trkpt lat="47.36773" lon="6.48785">
        <ele>294.253</ele>
        <time>2016-09-05T13:12:28.000Z</time>
      </trkpt>
      <trkpt lat="47.36773" lon="6.48781">
        <ele>292.755</ele>
        <time>2016-09-05T13:12:29.000Z</time>
      </trkpt>
      <trkpt lat="47.36773" lon="6.48777">
        <ele>293.298</ele>
        <time>2016-09-05T13:12:30.000Z</time>
      </trkpt>
      <trkpt lat="47.36772" lon="6.48773">
        <ele>292.577</ele>
        <time>2016-09-05T13:12:31.000Z</time>
      </trkpt>
      <trkpt lat="47.36772" lon="6.48769">
        <ele>293.114</ele>
        <time>2016-09-05T13:12:32.000Z</time>
      </trkpt>
      <trkpt lat="47.36771" lon="6.48766">
        <ele>292.317</ele>
        <time>2016-09-05T13:12:33.000Z</time>
      </trkpt>
      <trkpt lat="47.3677" lon="6.48762">
        <ele>292.115</ele>
        <time>2016-09-05T13:12:34.000Z</time>
      </trkpt>
      <trkpt lat="47.3677" lon="6.4876">
        <ele>294.442</ele>
        <time>2016-09-05T13:12:35.000Z</time>
      </trkpt>
      <trkpt lat="47.36769" lon="6.48757">
        <ele>295.14</ele>
        <time>2016-09-05T13:12:36.003Z</time>
      </trkpt>
      <trkpt lat="47.36768" lon="6.48754">
        <ele>295.217</ele>
        <time>2016-09-05T13:12:37.000Z</time>
      </trkpt>
      <trkpt lat="47.36767" lon="6.4875">
        <ele>292.802</ele>
        <time>2016-09-05T13:12:38.000Z</time>
      </trkpt>
      <trkpt lat="47.36766" lon="6.48747">
        <ele>292.252</ele>
        <time>2016-09-05T13:12:39.000Z</time>
      </trkpt>
      <trkpt lat="47.36766" lon="6.48743">
        <ele>291.8</ele>
        <time>2016-09-05T13:12:40.000Z</time>
      </trkpt>
      <trkpt lat="47.36765" lon="6.4874">
        <ele>292.939</ele>
        <time>2016-09-05T13:12:41.000Z</time>
      </trkpt>
      <trkpt lat="47.36765" lon="6.48736">
        <ele>293.646</ele>
        <time>2016-09-05T13:12:42.000Z</time>
      </trkpt>
      <trkpt lat="47.36764" lon="6.48733">
        <ele>292.51</ele>
        <time>2016-09-05T13:12:43.000Z</time>
      </trkpt>
      <trkpt lat="47.36763" lon="6.48729">
        <ele>292.681</ele>
        <time>2016-09-05T13:12:44.000Z</time>
      </trkpt>
      <trkpt lat="47.36763" lon="6.48725">
        <ele>292.16</ele>
        <time>2016-09-05T13:12:45.000Z</time>
      </trkpt>
      <trkpt lat="47.36763" lon="6.48721">
        <ele>292.034</ele>
        <time>2016-09-05T13:12:46.000Z</time>
      </trkpt>
      <trkpt lat="47.36762" lon="6.48717">
        <ele>291.221</ele>
        <time>2016-09-05T13:12:47.000Z</time>
      </trkpt>
      <trkpt lat="47.36761" lon="6.48713">
        <ele>291.138</ele>
        <time>2016-09-05T13:12:48.000Z</time>
      </trkpt>
      <trkpt lat="47.36761" lon="6.48709">
        <ele>290.29</ele>
        <time>2016-09-05T13:12:49.000Z</time>
      </trkpt>
      <trkpt lat="47.36761" lon="6.48705">
        <ele>289.828</ele>
        <time>2016-09-05T13:12:50.000Z</time>
      </trkpt>
      <trkpt lat="47.3676" lon="6.48702">
        <ele>289.823</ele>
        <time>2016-09-05T13:12:51.000Z</time>
      </trkpt>
      <trkpt lat="47.36761" lon="6.48698">
        <ele>290.511</ele>
        <time>2016-09-05T13:12:52.000Z</time>
      </trkpt>
      <trkpt lat="47.36761" lon="6.48694">
        <ele>289.736</ele>
        <time>2016-09-05T13:12:53.000Z</time>
      </trkpt>
      <trkpt lat="47.36761" lon="6.4869">
        <ele>289.862</ele>
        <time>2016-09-05T13:12:54.000Z</time>
      </trkpt>
      <trkpt lat="47.36761" lon="6.48686">
        <ele>290.182</ele>
        <time>2016-09-05T13:12:55.000Z</time>
      </trkpt>
      <trkpt lat="47.36761" lon="6.48682">
        <ele>290.511</ele>
        <time>2016-09-05T13:12:56.000Z</time>
      </trkpt>
      <trkpt lat="47.36761" lon="6.48678">
        <ele>290.242</ele>
        <time>2016-09-05T13:12:57.000Z</time>
      </trkpt>
      <trkpt lat="47.36761" lon="6.48674">
        <ele>289.606</ele>
        <time>2016-09-05T13:12:58.000Z</time>
      </trkpt>
      <trkpt lat="47.36761" lon="6.4867">
        <ele>289.622</ele>
        <time>2016-09-05T13:12:59.000Z</time>
      </trkpt>
      <trkpt lat="47.36761" lon="6.48666">
        <ele>290.959</ele>
        <time>2016-09-05T13:13:00.000Z</time>
      </trkpt>
      <trkpt lat="47.36761" lon="6.48662">
        <ele>291.067</ele>
        <time>2016-09-05T13:13:01.000Z</time>
      </trkpt>
      <trkpt lat="47.36761" lon="6.48658">
        <ele>290.273</ele>
        <time>2016-09-05T13:13:02.000Z</time>
      </trkpt>
      <trkpt lat="47.36761" lon="6.48655">
        <ele>289.465</ele>
        <time>2016-09-05T13:13:03.000Z</time>
      </trkpt>
      <trkpt lat="47.3676" lon="6.48651">
        <ele>289.398</ele>
        <time>2016-09-05T13:13:04.000Z</time>
      </trkpt>
      <trkpt lat="47.3676" lon="6.48648">
        <ele>290.303</ele>
        <time>2016-09-05T13:13:05.000Z</time>
      </trkpt>
      <trkpt lat="47.36759" lon="6.48645">
        <ele>291.095</ele>
        <time>2016-09-05T13:13:06.000Z</time>
      </trkpt>
      <trkpt lat="47.36759" lon="6.48641">
        <ele>290.999</ele>
        <time>2016-09-05T13:13:07.000Z</time>
      </trkpt>
      <trkpt lat="47.36759" lon="6.48637">
        <ele>291.337</ele>
        <time>2016-09-05T13:13:08.000Z</time>
      </trkpt>
      <trkpt lat="47.3676" lon="6.48632">
        <ele>291.727</ele>
        <time>2016-09-05T13:13:09.000Z</time>
      </trkpt>
      <trkpt lat="47.36761" lon="6.48628">
        <ele>292.648</ele>
        <time>2016-09-05T13:13:10.000Z</time>
      </trkpt>
      <trkpt lat="47.36761" lon="6.48624">
        <ele>292.646</ele>
        <time>2016-09-05T13:13:11.000Z</time>
      </trkpt>
      <trkpt lat="47.36761" lon="6.4862">
        <ele>292.742</ele>
        <time>2016-09-05T13:13:12.000Z</time>
      </trkpt>
      <trkpt lat="47.36762" lon="6.48616">
        <ele>293.351</ele>
        <time>2016-09-05T13:13:13.000Z</time>
      </trkpt>
      <trkpt lat="47.36762" lon="6.48612">
        <ele>293.979</ele>
        <time>2016-09-05T13:13:14.000Z</time>
      </trkpt>
      <trkpt lat="47.36762" lon="6.48608">
        <ele>294.543</ele>
        <time>2016-09-05T13:13:15.000Z</time>
      </trkpt>
      <trkpt lat="47.36763" lon="6.48604">
        <ele>294.032</ele>
        <time>2016-09-05T13:13:16.000Z</time>
      </trkpt>
      <trkpt lat="47.36763" lon="6.486">
        <ele>294.254</ele>
        <time>2016-09-05T13:13:17.000Z</time>
      </trkpt>
      <trkpt lat="47.36763" lon="6.48596">
        <ele>295.344</ele>
        <time>2016-09-05T13:13:18.000Z</time>
      </trkpt>
      <trkpt lat="47.36764" lon="6.48592">
        <ele>296.073</ele>
        <time>2016-09-05T13:13:19.000Z</time>
      </trkpt>
      <trkpt lat="47.36765" lon="6.48587">
        <ele>296.756</ele>
        <time>2016-09-05T13:13:20.000Z</time>
      </trkpt>
      <trkpt lat="47.36765" lon="6.48582">
        <ele>297.105</ele>
        <time>2016-09-05T13:13:21.000Z</time>
      </trkpt>
      <trkpt lat="47.36766" lon="6.48578">
        <ele>297.652</ele>
        <time>2016-09-05T13:13:22.000Z</time>
      </trkpt>
      <trkpt lat="47.36766" lon="6.48574">
        <ele>297.666</ele>
        <time>2016-09-05T13:13:23.000Z</time>
      </trkpt>
      <trkpt lat="47.36766" lon="6.4857">
        <ele>297.579</ele>
        <time>2016-09-05T13:13:24.000Z</time>
      </trkpt>
      <trkpt lat="47.36767" lon="6.48566">
        <ele>297.445</ele>
        <time>2016-09-05T13:13:25.000Z</time>
      </trkpt>
      <trkpt lat="47.36767" lon="6.48563">
        <ele>297.438</ele>
        <time>2016-09-05T13:13:26.000Z</time>
      </trkpt>
      <trkpt lat="47.36767" lon="6.48559">
        <ele>298.091</ele>
        <time>2016-09-05T13:13:27.000Z</time>
      </trkpt>
      <trkpt lat="47.36767" lon="6.48555">
        <ele>298.928</ele>
        <time>2016-09-05T13:13:28.000Z</time>
      </trkpt>
      <trkpt lat="47.36767" lon="6.48552">
        <ele>299.482</ele>
        <time>2016-09-05T13:13:29.000Z</time>
      </trkpt>
      <trkpt lat="47.36767" lon="6.48548">
        <ele>299.423</ele>
        <time>2016-09-05T13:13:30.000Z</time>
      </trkpt>
      <trkpt lat="47.36767" lon="6.48544">
        <ele>298.88</ele>
        <time>2016-09-05T13:13:31.000Z</time>
      </trkpt>
      <trkpt lat="47.36768" lon="6.48541">
        <ele>298.606</ele>
        <time>2016-09-05T13:13:32.000Z</time>
      </trkpt>
      <trkpt lat="47.36768" lon="6.48537">
        <ele>298.322</ele>
        <time>2016-09-05T13:13:33.000Z</time>
      </trkpt>
      <trkpt lat="47.36768" lon="6.48534">
        <ele>298.323</ele>
        <time>2016-09-05T13:13:34.000Z</time>
      </trkpt>
      <trkpt lat="47.36768" lon="6.4853">
        <ele>298.096</ele>
        <time>2016-09-05T13:13:35.000Z</time>
      </trkpt>
      <trkpt lat="47.36768" lon="6.48526">
        <ele>298.834</ele>
        <time>2016-09-05T13:13:36.000Z</time>
      </trkpt>
      <trkpt lat="47.36768" lon="6.48523">
        <ele>298.649</ele>
        <time>2016-09-05T13:13:37.000Z</time>
      </trkpt>
      <trkpt lat="47.36767" lon="6.48519">
        <ele>299.29</ele>
        <time>2016-09-05T13:13:38.000Z</time>
      </trkpt>
      <trkpt lat="47.36767" lon="6.48516">
        <ele>299.679</ele>
        <time>2016-09-05T13:13:39.000Z</time>
      </trkpt>
      <trkpt lat="47.36767" lon="6.48512">
        <ele>298.667</ele>
        <time>2016-09-05T13:13:40.000Z</time>
      </trkpt>
      <trkpt lat="47.36767" lon="6.48508">
        <ele>297.96</ele>
        <time>2016-09-05T13:13:41.000Z</time>
      </trkpt>
      <trkpt lat="47.36767" lon="6.48504">
        <ele>298.039</ele>
        <time>2016-09-05T13:13:42.000Z</time>
      </trkpt>
      <trkpt lat="47.36768" lon="6.485">
        <ele>298.157</ele>
        <time>2016-09-05T13:13:43.000Z</time>
      </trkpt>
      <trkpt lat="47.36768" lon="6.48496">
        <ele>298.142</ele>
        <time>2016-09-05T13:13:44.000Z</time>
      </trkpt>
      <trkpt lat="47.36769" lon="6.48492">
        <ele>298.702</ele>
        <time>2016-09-05T13:13:45.000Z</time>
      </trkpt>
      <trkpt lat="47.36769" lon="6.48488">
        <ele>298.74</ele>
        <time>2016-09-05T13:13:46.000Z</time>
      </trkpt>
      <trkpt lat="47.3677" lon="6.48484">
        <ele>299.376</ele>
        <time>2016-09-05T13:13:47.000Z</time>
      </trkpt>
      <trkpt lat="47.3677" lon="6.4848">
        <ele>298.953</ele>
        <time>2016-09-05T13:13:48.000Z</time>
      </trkpt>
      <trkpt lat="47.3677" lon="6.48476">
        <ele>298.626</ele>
        <time>2016-09-05T13:13:49.000Z</time>
      </trkpt>
      <trkpt lat="47.3677" lon="6.48473">
        <ele>297.802</ele>
        <time>2016-09-05T13:13:50.000Z</time>
      </trkpt>
      <trkpt lat="47.3677" lon="6.48469">
        <ele>297.435</ele>
        <time>2016-09-05T13:13:51.000Z</time>
      </trkpt>
      <trkpt lat="47.3677" lon="6.48465">
        <ele>297.595</ele>
        <time>2016-09-05T13:13:52.000Z</time>
      </trkpt>
      <trkpt lat="47.36769" lon="6.48461">
        <ele>297.548</ele>
        <time>2016-09-05T13:13:53.000Z</time>
      </trkpt>
      <trkpt lat="47.36769" lon="6.48458">
        <ele>297.353</ele>
        <time>2016-09-05T13:13:54.000Z</time>
      </trkpt>
      <trkpt lat="47.36768" lon="6.48454">
        <ele>297.447</ele>
        <time>2016-09-05T13:13:55.000Z</time>
      </trkpt>
      <trkpt lat="47.36768" lon="6.4845">
        <ele>298.446</ele>
        <time>2016-09-05T13:13:56.000Z</time>
      </trkpt>
      <trkpt lat="47.36767" lon="6.48446">
        <ele>299.033</ele>
        <time>2016-09-05T13:13:57.000Z</time>
      </trkpt>
      <trkpt lat="47.36767" lon="6.48443">
        <ele>298.741</ele>
        <time>2016-09-05T13:13:58.000Z</time>
      </trkpt>
      <trkpt lat="47.36766" lon="6.48439">
        <ele>298.372</ele>
        <time>2016-09-05T13:13:59.000Z</time>
      </trkpt>
      <trkpt lat="47.36765" lon="6.48436">
        <ele>298.603</ele>
        <time>2016-09-05T13:14:00.000Z</time>
      </trkpt>
      <trkpt lat="47.36764" lon="6.48433">
        <ele>298.972</ele>
        <time>2016-09-05T13:14:01.000Z</time>
      </trkpt>
      <trkpt lat="47.36763" lon="6.48429">
        <ele>299.114</ele>
        <time>2016-09-05T13:14:02.000Z</time>
      </trkpt>
      <trkpt lat="47.36762" lon="6.48426">
        <ele>298.945</ele>
        <time>2016-09-05T13:14:03.000Z</time>
      </trkpt>
      <trkpt lat="47.36761" lon="6.48423">
        <ele>298.383</ele>
        <time>2016-09-05T13:14:04.000Z</time>
      </trkpt>
      <trkpt lat="47.36759" lon="6.48419">
        <ele>298.852</ele>
        <time>2016-09-05T13:14:05.000Z</time>
      </trkpt>
      <trkpt lat="47.36758" lon="6.48416">
        <ele>299.248</ele>
        <time>2016-09-05T13:14:06.000Z</time>
      </trkpt>
      <trkpt lat="47.36757" lon="6.48413">
        <ele>299.542</ele>
        <time>2016-09-05T13:14:07.000Z</time>
      </trkpt>
      <trkpt lat="47.36755" lon="6.4841">
        <ele>299.245</ele>
        <time>2016-09-05T13:14:08.000Z</time>
      </trkpt>
      <trkpt lat="47.36754" lon="6.48407">
        <ele>299.592</ele>
        <time>2016-09-05T13:14:09.000Z</time>
      </trkpt>
      <trkpt lat="47.36752" lon="6.48404">
        <ele>299.672</ele>
        <time>2016-09-05T13:14:10.000Z</time>
      </trkpt>
      <trkpt lat="47.36751" lon="6.48401">
        <ele>299.397</ele>
        <time>2016-09-05T13:14:11.000Z</time>
      </trkpt>
      <trkpt lat="47.36749" lon="6.48398">
        <ele>301.128</ele>
        <time>2016-09-05T13:14:12.000Z</time>
      </trkpt>
      <trkpt lat="47.36748" lon="6.48395">
        <ele>301.591</ele>
        <time>2016-09-05T13:14:13.000Z</time>
      </trkpt>
      <trkpt lat="47.36747" lon="6.48392">
        <ele>302.072</ele>
        <time>2016-09-05T13:14:14.000Z</time>
      </trkpt>
      <trkpt lat="47.36746" lon="6.48389">
        <ele>301.801</ele>
        <time>2016-09-05T13:14:15.000Z</time>
      </trkpt>
      <trkpt lat="47.36745" lon="6.48387">
        <ele>302.015</ele>
        <time>2016-09-05T13:14:16.000Z</time>
      </trkpt>
      <trkpt lat="47.36743" lon="6.48384">
        <ele>300.234</ele>
        <time>2016-09-05T13:14:17.000Z</time>
      </trkpt>
      <trkpt lat="47.36741" lon="6.48381">
        <ele>301.575</ele>
        <time>2016-09-05T13:14:18.000Z</time>
      </trkpt>
      <trkpt lat="47.3674" lon="6.48378">
        <ele>301.041</ele>
        <time>2016-09-05T13:14:19.000Z</time>
      </trkpt>
      <trkpt lat="47.36738" lon="6.48375">
        <ele>301.337</ele>
        <time>2016-09-05T13:14:20.000Z</time>
      </trkpt>
      <trkpt lat="47.36736" lon="6.48372">
        <ele>301.819</ele>
        <time>2016-09-05T13:14:21.000Z</time>
      </trkpt>
      <trkpt lat="47.36734" lon="6.48369">
        <ele>301.635</ele>
        <time>2016-09-05T13:14:22.000Z</time>
      </trkpt>
      <trkpt lat="47.36733" lon="6.48366">
        <ele>302.715</ele>
        <time>2016-09-05T13:14:23.000Z</time>
      </trkpt>
      <trkpt lat="47.36732" lon="6.48363">
        <ele>302.118</ele>
        <time>2016-09-05T13:14:24.000Z</time>
      </trkpt>
      <trkpt lat="47.36731" lon="6.4836">
        <ele>300.872</ele>
        <time>2016-09-05T13:14:25.000Z</time>
      </trkpt>
      <trkpt lat="47.36729" lon="6.48357">
        <ele>300.775</ele>
        <time>2016-09-05T13:14:26.000Z</time>
      </trkpt>
      <trkpt lat="47.36728" lon="6.48354">
        <ele>300.378</ele>
        <time>2016-09-05T13:14:27.000Z</time>
      </trkpt>
      <trkpt lat="47.36727" lon="6.4835">
        <ele>300.246</ele>
        <time>2016-09-05T13:14:28.000Z</time>
      </trkpt>
      <trkpt lat="47.36726" lon="6.48346">
        <ele>299.895</ele>
        <time>2016-09-05T13:14:29.000Z</time>
      </trkpt>
      <trkpt lat="47.36725" lon="6.48342">
        <ele>299.283</ele>
        <time>2016-09-05T13:14:30.000Z</time>
      </trkpt>
      <trkpt lat="47.36724" lon="6.48337">
        <ele>299.139</ele>
        <time>2016-09-05T13:14:31.000Z</time>
      </trkpt>
      <trkpt lat="47.36724" lon="6.48333">
        <ele>299.746</ele>
        <time>2016-09-05T13:14:32.000Z</time>
      </trkpt>
      <trkpt lat="47.36723" lon="6.48329">
        <ele>299.254</ele>
        <time>2016-09-05T13:14:33.000Z</time>
      </trkpt>
      <trkpt lat="47.36723" lon="6.48325">
        <ele>298.739</ele>
        <time>2016-09-05T13:14:34.000Z</time>
      </trkpt>
      <trkpt lat="47.36723" lon="6.48321">
        <ele>299.048</ele>
        <time>2016-09-05T13:14:35.000Z</time>
      </trkpt>
      <trkpt lat="47.36723" lon="6.48317">
        <ele>298.966</ele>
        <time>2016-09-05T13:14:36.000Z</time>
      </trkpt>
      <trkpt lat="47.36723" lon="6.48313">
        <ele>298.186</ele>
        <time>2016-09-05T13:14:37.000Z</time>
      </trkpt>
      <trkpt lat="47.36724" lon="6.4831">
        <ele>298.032</ele>
        <time>2016-09-05T13:14:38.000Z</time>
      </trkpt>
      <trkpt lat="47.36724" lon="6.48306">
        <ele>299.329</ele>
        <time>2016-09-05T13:14:39.000Z</time>
      </trkpt>
      <trkpt lat="47.36725" lon="6.48303">
        <ele>299.166</ele>
        <time>2016-09-05T13:14:40.000Z</time>
      </trkpt>
      <trkpt lat="47.36725" lon="6.483">
        <ele>300.402</ele>
        <time>2016-09-05T13:14:41.000Z</time>
      </trkpt>
      <trkpt lat="47.36726" lon="6.48296">
        <ele>300.171</ele>
        <time>2016-09-05T13:14:42.000Z</time>
      </trkpt>
      <trkpt lat="47.36728" lon="6.48293">
        <ele>300.454</ele>
        <time>2016-09-05T13:14:43.000Z</time>
      </trkpt>
      <trkpt lat="47.36729" lon="6.48289">
        <ele>301.922</ele>
        <time>2016-09-05T13:14:44.000Z</time>
      </trkpt>
      <trkpt lat="47.3673" lon="6.48286">
        <ele>302.119</ele>
        <time>2016-09-05T13:14:45.000Z</time>
      </trkpt>
      <trkpt lat="47.36732" lon="6.48282">
        <ele>301.616</ele>
        <time>2016-09-05T13:14:46.000Z</time>
      </trkpt>
      <trkpt lat="47.36733" lon="6.48279">
        <ele>301.271</ele>
        <time>2016-09-05T13:14:47.000Z</time>
      </trkpt>
      <trkpt lat="47.36734" lon="6.48275">
        <ele>301.075</ele>
        <time>2016-09-05T13:14:48.000Z</time>
      </trkpt>
      <trkpt lat="47.36734" lon="6.48271">
        <ele>300.911</ele>
        <time>2016-09-05T13:14:49.000Z</time>
      </trkpt>
      <trkpt lat="47.36735" lon="6.48268">
        <ele>301.296</ele>
        <time>2016-09-05T13:14:50.000Z</time>
      </trkpt>
      <trkpt lat="47.36735" lon="6.48264">
        <ele>300.96</ele>
        <time>2016-09-05T13:14:51.000Z</time>
      </trkpt>
      <trkpt lat="47.36737" lon="6.4826">
        <ele>301.148</ele>
        <time>2016-09-05T13:14:52.000Z</time>
      </trkpt>
      <trkpt lat="47.36738" lon="6.48257">
        <ele>301.124</ele>
        <time>2016-09-05T13:14:53.000Z</time>
      </trkpt>
      <trkpt lat="47.36739" lon="6.48253">
        <ele>301.307</ele>
        <time>2016-09-05T13:14:54.000Z</time>
      </trkpt>
      <trkpt lat="47.36741" lon="6.48249">
        <ele>301.018</ele>
        <time>2016-09-05T13:14:55.000Z</time>
      </trkpt>
      <trkpt lat="47.36742" lon="6.48246">
        <ele>300.87</ele>
        <time>2016-09-05T13:14:56.000Z</time>
      </trkpt>
      <trkpt lat="47.36744" lon="6.48242">
        <ele>300.299</ele>
        <time>2016-09-05T13:14:57.000Z</time>
      </trkpt>
      <trkpt lat="47.36745" lon="6.48239">
        <ele>300.743</ele>
        <time>2016-09-05T13:14:58.000Z</time>
      </trkpt>
      <trkpt lat="47.36746" lon="6.48236">
        <ele>301.724</ele>
        <time>2016-09-05T13:14:59.000Z</time>
      </trkpt>
      <trkpt lat="47.36746" lon="6.48233">
        <ele>301.551</ele>
        <time>2016-09-05T13:15:00.000Z</time>
      </trkpt>
      <trkpt lat="47.36747" lon="6.4823">
        <ele>301.997</ele>
        <time>2016-09-05T13:15:01.000Z</time>
      </trkpt>
      <trkpt lat="47.36748" lon="6.48227">
        <ele>301.842</ele>
        <time>2016-09-05T13:15:02.000Z</time>
      </trkpt>
      <trkpt lat="47.3675" lon="6.48224">
        <ele>301.823</ele>
        <time>2016-09-05T13:15:03.000Z</time>
      </trkpt>
      <trkpt lat="47.36751" lon="6.48221">
        <ele>302.993</ele>
        <time>2016-09-05T13:15:04.000Z</time>
      </trkpt>
      <trkpt lat="47.36753" lon="6.48218">
        <ele>303.685</ele>
        <time>2016-09-05T13:15:05.000Z</time>
      </trkpt>
      <trkpt lat="47.36754" lon="6.48215">
        <ele>304.352</ele>
        <time>2016-09-05T13:15:06.000Z</time>
      </trkpt>
      <trkpt lat="47.36755" lon="6.48212">
        <ele>305.148</ele>
        <time>2016-09-05T13:15:07.000Z</time>
      </trkpt>
      <trkpt lat="47.36755" lon="6.48209">
        <ele>304.837</ele>
        <time>2016-09-05T13:15:08.000Z</time>
      </trkpt>
      <trkpt lat="47.36756" lon="6.48207">
        <ele>305.131</ele>
        <time>2016-09-05T13:15:09.000Z</time>
      </trkpt>
      <trkpt lat="47.36757" lon="6.48204">
        <ele>306.664</ele>
        <time>2016-09-05T13:15:10.000Z</time>
      </trkpt>
      <trkpt lat="47.36758" lon="6.48201">
        <ele>307.587</ele>
        <time>2016-09-05T13:15:11.000Z</time>
      </trkpt>
      <trkpt lat="47.36759" lon="6.48198">
        <ele>309.998</ele>
        <time>2016-09-05T13:15:12.000Z</time>
      </trkpt>
      <trkpt lat="47.3676" lon="6.48196">
        <ele>308.644</ele>
        <time>2016-09-05T13:15:13.000Z</time>
      </trkpt>
      <trkpt lat="47.36761" lon="6.48193">
        <ele>308.523</ele>
        <time>2016-09-05T13:15:14.000Z</time>
      </trkpt>
      <trkpt lat="47.36762" lon="6.48191">
        <ele>309.457</ele>
        <time>2016-09-05T13:15:15.000Z</time>
      </trkpt>
      <trkpt lat="47.36764" lon="6.48187">
        <ele>309.295</ele>
        <time>2016-09-05T13:15:16.000Z</time>
      </trkpt>
      <trkpt lat="47.36765" lon="6.48183">
        <ele>308.418</ele>
        <time>2016-09-05T13:15:17.000Z</time>
      </trkpt>
      <trkpt lat="47.36767" lon="6.4818">
        <ele>308.462</ele>
        <time>2016-09-05T13:15:18.000Z</time>
      </trkpt>
      <trkpt lat="47.36768" lon="6.48176">
        <ele>309.163</ele>
        <time>2016-09-05T13:15:19.000Z</time>
      </trkpt>
      <trkpt lat="47.36768" lon="6.48172">
        <ele>308.117</ele>
        <time>2016-09-05T13:15:20.000Z</time>
      </trkpt>
      <trkpt lat="47.36768" lon="6.48168">
        <ele>308.58</ele>
        <time>2016-09-05T13:15:21.000Z</time>
      </trkpt>
      <trkpt lat="47.36769" lon="6.48164">
        <ele>308.74</ele>
        <time>2016-09-05T13:15:22.000Z</time>
      </trkpt>
      <trkpt lat="47.36769" lon="6.4816">
        <ele>309.728</ele>
        <time>2016-09-05T13:15:23.000Z</time>
      </trkpt>
      <trkpt lat="47.36769" lon="6.48155">
        <ele>309.504</ele>
        <time>2016-09-05T13:15:24.000Z</time>
      </trkpt>
      <trkpt lat="47.3677" lon="6.48151">
        <ele>309.17</ele>
        <time>2016-09-05T13:15:25.000Z</time>
      </trkpt>
      <trkpt lat="47.36771" lon="6.48148">
        <ele>309.164</ele>
        <time>2016-09-05T13:15:26.000Z</time>
      </trkpt>
      <trkpt lat="47.36771" lon="6.48144">
        <ele>309.031</ele>
        <time>2016-09-05T13:15:27.000Z</time>
      </trkpt>
      <trkpt lat="47.36771" lon="6.4814">
        <ele>309.177</ele>
        <time>2016-09-05T13:15:28.000Z</time>
      </trkpt>
      <trkpt lat="47.36771" lon="6.48137">
        <ele>309.553</ele>
        <time>2016-09-05T13:15:29.000Z</time>
      </trkpt>
      <trkpt lat="47.36771" lon="6.48133">
        <ele>309.075</ele>
        <time>2016-09-05T13:15:30.000Z</time>
      </trkpt>
      <trkpt lat="47.36771" lon="6.4813">
        <ele>309.887</ele>
        <time>2016-09-05T13:15:31.000Z</time>
      </trkpt>
      <trkpt lat="47.36772" lon="6.48126">
        <ele>309.376</ele>
        <time>2016-09-05T13:15:32.000Z</time>
      </trkpt>
      <trkpt lat="47.36773" lon="6.48122">
        <ele>310.577</ele>
        <time>2016-09-05T13:15:33.000Z</time>
      </trkpt>
      <trkpt lat="47.36773" lon="6.48117">
        <ele>310.698</ele>
        <time>2016-09-05T13:15:34.000Z</time>
      </trkpt>
      <trkpt lat="47.36774" lon="6.48114">
        <ele>312.115</ele>
        <time>2016-09-05T13:15:35.000Z</time>
      </trkpt>
      <trkpt lat="47.36774" lon="6.4811">
        <ele>311.3</ele>
        <time>2016-09-05T13:15:36.000Z</time>
      </trkpt>
      <trkpt lat="47.36775" lon="6.48105">
        <ele>312.03</ele>
        <time>2016-09-05T13:15:37.000Z</time>
      </trkpt>
      <trkpt lat="47.36776" lon="6.48101">
        <ele>311.23</ele>
        <time>2016-09-05T13:15:38.000Z</time>
      </trkpt>
      <trkpt lat="47.36776" lon="6.48095">
        <ele>311.374</ele>
        <time>2016-09-05T13:15:39.000Z</time>
      </trkpt>
      <trkpt lat="47.36776" lon="6.48091">
        <ele>310.446</ele>
        <time>2016-09-05T13:15:40.000Z</time>
      </trkpt>
      <trkpt lat="47.36777" lon="6.48086">
        <ele>310.901</ele>
        <time>2016-09-05T13:15:41.000Z</time>
      </trkpt>
      <trkpt lat="47.36777" lon="6.48081">
        <ele>311.347</ele>
        <time>2016-09-05T13:15:42.000Z</time>
      </trkpt>
      <trkpt lat="47.36777" lon="6.48076">
        <ele>310.462</ele>
        <time>2016-09-05T13:15:43.000Z</time>
      </trkpt>
      <trkpt lat="47.36777" lon="6.4807">
        <ele>309.689</ele>
        <time>2016-09-05T13:15:44.000Z</time>
      </trkpt>
      <trkpt lat="47.36777" lon="6.48065">
        <ele>306.027</ele>
        <time>2016-09-05T13:15:45.000Z</time>
      </trkpt>
      <trkpt lat="47.36777" lon="6.4806">
        <ele>306.812</ele>
        <time>2016-09-05T13:15:46.000Z</time>
      </trkpt>
      <trkpt lat="47.36776" lon="6.48055">
        <ele>305.767</ele>
        <time>2016-09-05T13:15:47.000Z</time>
      </trkpt>
      <trkpt lat="47.36776" lon="6.4805">
        <ele>305.634</ele>
        <time>2016-09-05T13:15:48.000Z</time>
      </trkpt>
      <trkpt lat="47.36775" lon="6.48045">
        <ele>304.478</ele>
        <time>2016-09-05T13:15:49.000Z</time>
      </trkpt>
      <trkpt lat="47.36775" lon="6.4804">
        <ele>304.282</ele>
        <time>2016-09-05T13:15:50.000Z</time>
      </trkpt>
      <trkpt lat="47.36775" lon="6.48035">
        <ele>304.39</ele>
        <time>2016-09-05T13:15:51.000Z</time>
      </trkpt>
      <trkpt lat="47.36775" lon="6.48031">
        <ele>302.734</ele>
        <time>2016-09-05T13:15:52.000Z</time>
      </trkpt>
      <trkpt lat="47.36774" lon="6.48026">
        <ele>302.418</ele>
        <time>2016-09-05T13:15:53.000Z</time>
      </trkpt>
      <trkpt lat="47.36774" lon="6.48021">
        <ele>300.615</ele>
        <time>2016-09-05T13:15:54.000Z</time>
      </trkpt>
      <trkpt lat="47.36773" lon="6.48016">
        <ele>299.494</ele>
        <time>2016-09-05T13:15:55.000Z</time>
      </trkpt>
      <trkpt lat="47.36772" lon="6.48011">
        <ele>299.498</ele>
        <time>2016-09-05T13:15:56.000Z</time>
      </trkpt>
      <trkpt lat="47.36772" lon="6.48007">
        <ele>301.078</ele>
        <time>2016-09-05T13:15:57.000Z</time>
      </trkpt>
      <trkpt lat="47.36771" lon="6.48003">
        <ele>301.591</ele>
        <time>2016-09-05T13:15:58.000Z</time>
      </trkpt>
      <trkpt lat="47.36771" lon="6.47999">
        <ele>301.304</ele>
        <time>2016-09-05T13:15:59.000Z</time>
      </trkpt>
      <trkpt lat="47.3677" lon="6.47996">
        <ele>303.102</ele>
        <time>2016-09-05T13:16:00.000Z</time>
      </trkpt>
      <trkpt lat="47.36768" lon="6.47993">
        <ele>303.409</ele>
        <time>2016-09-05T13:16:01.000Z</time>
      </trkpt>
      <trkpt lat="47.36766" lon="6.4799">
        <ele>302.4</ele>
        <time>2016-09-05T13:16:02.000Z</time>
      </trkpt>
      <trkpt lat="47.36765" lon="6.47986">
        <ele>302.85</ele>
        <time>2016-09-05T13:16:03.000Z</time>
      </trkpt>
      <trkpt lat="47.36763" lon="6.47983">
        <ele>302.793</ele>
        <time>2016-09-05T13:16:04.000Z</time>
      </trkpt>
      <trkpt lat="47.36762" lon="6.47979">
        <ele>302.907</ele>
        <time>2016-09-05T13:16:05.000Z</time>
      </trkpt>
      <trkpt lat="47.3676" lon="6.47975">
        <ele>302.31</ele>
        <time>2016-09-05T13:16:06.000Z</time>
      </trkpt>
      <trkpt lat="47.36759" lon="6.47972">
        <ele>302.08</ele>
        <time>2016-09-05T13:16:07.000Z</time>
      </trkpt>
      <trkpt lat="47.36757" lon="6.47968">
        <ele>302.584</ele>
        <time>2016-09-05T13:16:08.000Z</time>
      </trkpt>
      <trkpt lat="47.36756" lon="6.47965">
        <ele>303.561</ele>
        <time>2016-09-05T13:16:09.000Z</time>
      </trkpt>
      <trkpt lat="47.36755" lon="6.47962">
        <ele>304.718</ele>
        <time>2016-09-05T13:16:10.000Z</time>
      </trkpt>
      <trkpt lat="47.36754" lon="6.47959">
        <ele>304.635</ele>
        <time>2016-09-05T13:16:11.000Z</time>
      </trkpt>
      <trkpt lat="47.36753" lon="6.47955">
        <ele>304.805</ele>
        <time>2016-09-05T13:16:12.000Z</time>
      </trkpt>
      <trkpt lat="47.36754" lon="6.47952">
        <ele>305.824</ele>
        <time>2016-09-05T13:16:13.000Z</time>
      </trkpt>
      <trkpt lat="47.36754" lon="6.47949">
        <ele>304.787</ele>
        <time>2016-09-05T13:16:14.000Z</time>
      </trkpt>
      <trkpt lat="47.36755" lon="6.47945">
        <ele>304.651</ele>
        <time>2016-09-05T13:16:15.000Z</time>
      </trkpt>
      <trkpt lat="47.36755" lon="6.47941">
        <ele>305.72</ele>
        <time>2016-09-05T13:16:16.000Z</time>
      </trkpt>
      <trkpt lat="47.36755" lon="6.47938">
        <ele>307.077</ele>
        <time>2016-09-05T13:16:17.000Z</time>
      </trkpt>
      <trkpt lat="47.36754" lon="6.47935">
        <ele>307.721</ele>
        <time>2016-09-05T13:16:18.000Z</time>
      </trkpt>
      <trkpt lat="47.36753" lon="6.47931">
        <ele>307.647</ele>
        <time>2016-09-05T13:16:19.000Z</time>
      </trkpt>
      <trkpt lat="47.36752" lon="6.47927">
        <ele>308.327</ele>
        <time>2016-09-05T13:16:20.000Z</time>
      </trkpt>
      <trkpt lat="47.3675" lon="6.47923">
        <ele>309.626</ele>
        <time>2016-09-05T13:16:21.000Z</time>
      </trkpt>
      <trkpt lat="47.36749" lon="6.47919">
        <ele>309.294</ele>
        <time>2016-09-05T13:16:22.000Z</time>
      </trkpt>
      <trkpt lat="47.36748" lon="6.47915">
        <ele>309.407</ele>
        <time>2016-09-05T13:16:23.000Z</time>
      </trkpt>
      <trkpt lat="47.36747" lon="6.4791">
        <ele>307.586</ele>
        <time>2016-09-05T13:16:24.000Z</time>
      </trkpt>
      <trkpt lat="47.36746" lon="6.47907">
        <ele>309.187</ele>
        <time>2016-09-05T13:16:25.000Z</time>
      </trkpt>
      <trkpt lat="47.36746" lon="6.47903">
        <ele>310.289</ele>
        <time>2016-09-05T13:16:26.000Z</time>
      </trkpt>
      <trkpt lat="47.36745" lon="6.479">
        <ele>309.198</ele>
        <time>2016-09-05T13:16:27.000Z</time>
      </trkpt>
      <trkpt lat="47.36745" lon="6.47896">
        <ele>309.197</ele>
        <time>2016-09-05T13:16:28.000Z</time>
      </trkpt>
      <trkpt lat="47.36744" lon="6.47892">
        <ele>308.533</ele>
        <time>2016-09-05T13:16:29.000Z</time>
      </trkpt>
      <trkpt lat="47.36743" lon="6.47888">
        <ele>308.529</ele>
        <time>2016-09-05T13:16:30.000Z</time>
      </trkpt>
      <trkpt lat="47.36742" lon="6.47885">
        <ele>309.995</ele>
        <time>2016-09-05T13:16:31.000Z</time>
      </trkpt>
      <trkpt lat="47.36741" lon="6.47881">
        <ele>309.509</ele>
        <time>2016-09-05T13:16:32.000Z</time>
      </trkpt>
      <trkpt lat="47.3674" lon="6.47877">
        <ele>308.875</ele>
        <time>2016-09-05T13:16:33.000Z</time>
      </trkpt>
      <trkpt lat="47.3674" lon="6.47873">
        <ele>308.766</ele>
        <time>2016-09-05T13:16:34.000Z</time>
      </trkpt>
      <trkpt lat="47.36739" lon="6.47869">
        <ele>308.619</ele>
        <time>2016-09-05T13:16:35.000Z</time>
      </trkpt>
      <trkpt lat="47.36738" lon="6.47864">
        <ele>308.29</ele>
        <time>2016-09-05T13:16:36.000Z</time>
      </trkpt>
      <trkpt lat="47.36738" lon="6.4786">
        <ele>308.894</ele>
        <time>2016-09-05T13:16:37.000Z</time>
      </trkpt>
      <trkpt lat="47.36737" lon="6.47855">
        <ele>308.053</ele>
        <time>2016-09-05T13:16:38.000Z</time>
      </trkpt>
      <trkpt lat="47.36736" lon="6.4785">
        <ele>307.991</ele>
        <time>2016-09-05T13:16:39.000Z</time>
      </trkpt>
      <trkpt lat="47.36736" lon="6.47845">
        <ele>307.99</ele>
        <time>2016-09-05T13:16:40.000Z</time>
      </trkpt>
      <trkpt lat="47.36735" lon="6.47841">
        <ele>306.896</ele>
        <time>2016-09-05T13:16:41.000Z</time>
      </trkpt>
      <trkpt lat="47.36734" lon="6.47836">
        <ele>307.131</ele>
        <time>2016-09-05T13:16:42.000Z</time>
      </trkpt>
      <trkpt lat="47.36734" lon="6.47831">
        <ele>306.761</ele>
        <time>2016-09-05T13:16:43.000Z</time>
      </trkpt>
      <trkpt lat="47.36733" lon="6.47826">
        <ele>306.796</ele>
        <time>2016-09-05T13:16:44.000Z</time>
      </trkpt>
      <trkpt lat="47.36733" lon="6.47821">
        <ele>307.077</ele>
        <time>2016-09-05T13:16:45.000Z</time>
      </trkpt>
      <trkpt lat="47.36732" lon="6.47815">
        <ele>306.151</ele>
        <time>2016-09-05T13:16:46.000Z</time>
      </trkpt>
      <trkpt lat="47.36732" lon="6.4781">
        <ele>305.791</ele>
        <time>2016-09-05T13:16:47.000Z</time>
      </trkpt>
      <trkpt lat="47.36731" lon="6.47804">
        <ele>305.854</ele>
        <time>2016-09-05T13:16:48.000Z</time>
      </trkpt>
      <trkpt lat="47.36731" lon="6.478">
        <ele>307.918</ele>
        <time>2016-09-05T13:16:49.000Z</time>
      </trkpt>
      <trkpt lat="47.3673" lon="6.47795">
        <ele>307.905</ele>
        <time>2016-09-05T13:16:50.000Z</time>
      </trkpt>
      <trkpt lat="47.3673" lon="6.47791">
        <ele>308.633</ele>
        <time>2016-09-05T13:16:51.000Z</time>
      </trkpt>
      <trkpt lat="47.36729" lon="6.47787">
        <ele>307.537</ele>
        <time>2016-09-05T13:16:52.000Z</time>
      </trkpt>
      <trkpt lat="47.36728" lon="6.47782">
        <ele>309.145</ele>
        <time>2016-09-05T13:16:53.000Z</time>
      </trkpt>
      <trkpt lat="47.36727" lon="6.47778">
        <ele>310.277</ele>
        <time>2016-09-05T13:16:54.000Z</time>
      </trkpt>
      <trkpt lat="47.36727" lon="6.47773">
        <ele>311.032</ele>
        <time>2016-09-05T13:16:55.000Z</time>
      </trkpt>
      <trkpt lat="47.36726" lon="6.47768">
        <ele>311.512</ele>
        <time>2016-09-05T13:16:56.000Z</time>
      </trkpt>
      <trkpt lat="47.36725" lon="6.47764">
        <ele>311.814</ele>
        <time>2016-09-05T13:16:57.000Z</time>
      </trkpt>
      <trkpt lat="47.36725" lon="6.47759">
        <ele>310.107</ele>
        <time>2016-09-05T13:16:58.000Z</time>
      </trkpt>
      <trkpt lat="47.36725" lon="6.47754">
        <ele>310.627</ele>
        <time>2016-09-05T13:16:59.000Z</time>
      </trkpt>
      <trkpt lat="47.36725" lon="6.47749">
        <ele>310.797</ele>
        <time>2016-09-05T13:17:00.000Z</time>
      </trkpt>
      <trkpt lat="47.36725" lon="6.47744">
        <ele>310.189</ele>
        <time>2016-09-05T13:17:01.000Z</time>
      </trkpt>
      <trkpt lat="47.36725" lon="6.4774">
        <ele>310.095</ele>
        <time>2016-09-05T13:17:02.000Z</time>
      </trkpt>
      <trkpt lat="47.36725" lon="6.47735">
        <ele>310.041</ele>
        <time>2016-09-05T13:17:03.000Z</time>
      </trkpt>
      <trkpt lat="47.36725" lon="6.4773">
        <ele>309.194</ele>
        <time>2016-09-05T13:17:04.000Z</time>
      </trkpt>
      <trkpt lat="47.36725" lon="6.47725">
        <ele>309.024</ele>
        <time>2016-09-05T13:17:05.000Z</time>
      </trkpt>
      <trkpt lat="47.36725" lon="6.47721">
        <ele>309.64</ele>
        <time>2016-09-05T13:17:06.000Z</time>
      </trkpt>
      <trkpt lat="47.36725" lon="6.47716">
        <ele>309.603</ele>
        <time>2016-09-05T13:17:07.000Z</time>
      </trkpt>
      <trkpt lat="47.36726" lon="6.47711">
        <ele>309.439</ele>
        <time>2016-09-05T13:17:08.000Z</time>
      </trkpt>
      <trkpt lat="47.36726" lon="6.47707">
        <ele>309.4</ele>
        <time>2016-09-05T13:17:09.000Z</time>
      </trkpt>
      <trkpt lat="47.36726" lon="6.47703">
        <ele>308.916</ele>
        <time>2016-09-05T13:17:10.000Z</time>
      </trkpt>
      <trkpt lat="47.36726" lon="6.47699">
        <ele>309.503</ele>
        <time>2016-09-05T13:17:11.000Z</time>
      </trkpt>
      <trkpt lat="47.36726" lon="6.47695">
        <ele>309.569</ele>
        <time>2016-09-05T13:17:12.000Z</time>
      </trkpt>
      <trkpt lat="47.36726" lon="6.47691">
        <ele>311.111</ele>
        <time>2016-09-05T13:17:13.000Z</time>
      </trkpt>
      <trkpt lat="47.36726" lon="6.47687">
        <ele>313.13</ele>
        <time>2016-09-05T13:17:14.000Z</time>
      </trkpt>
      <trkpt lat="47.36725" lon="6.47683">
        <ele>313.175</ele>
        <time>2016-09-05T13:17:15.000Z</time>
      </trkpt>
      <trkpt lat="47.36725" lon="6.47679">
        <ele>314.581</ele>
        <time>2016-09-05T13:17:16.000Z</time>
      </trkpt>
      <trkpt lat="47.36725" lon="6.47676">
        <ele>315.573</ele>
        <time>2016-09-05T13:17:17.000Z</time>
      </trkpt>
      <trkpt lat="47.36725" lon="6.47672">
        <ele>315.288</ele>
        <time>2016-09-05T13:17:18.000Z</time>
      </trkpt>
      <trkpt lat="47.36725" lon="6.47669">
        <ele>315.798</ele>
        <time>2016-09-05T13:17:19.000Z</time>
      </trkpt>
      <trkpt lat="47.36726" lon="6.47665">
        <ele>315.57</ele>
        <time>2016-09-05T13:17:20.000Z</time>
      </trkpt>
      <trkpt lat="47.36726" lon="6.47661">
        <ele>314.664</ele>
        <time>2016-09-05T13:17:21.000Z</time>
      </trkpt>
      <trkpt lat="47.36727" lon="6.47658">
        <ele>316.282</ele>
        <time>2016-09-05T13:17:22.000Z</time>
      </trkpt>
      <trkpt lat="47.36728" lon="6.47655">
        <ele>318.269</ele>
        <time>2016-09-05T13:17:23.000Z</time>
      </trkpt>
      <trkpt lat="47.36729" lon="6.47651">
        <ele>318.699</ele>
        <time>2016-09-05T13:17:24.000Z</time>
      </trkpt>
      <trkpt lat="47.36729" lon="6.47648">
        <ele>318.792</ele>
        <time>2016-09-05T13:17:25.000Z</time>
      </trkpt>
      <trkpt lat="47.36729" lon="6.47644">
        <ele>318.777</ele>
        <time>2016-09-05T13:17:26.000Z</time>
      </trkpt>
      <trkpt lat="47.3673" lon="6.4764">
        <ele>316.99</ele>
        <time>2016-09-05T13:17:27.000Z</time>
      </trkpt>
      <trkpt lat="47.3673" lon="6.47636">
        <ele>317.498</ele>
        <time>2016-09-05T13:17:28.000Z</time>
      </trkpt>
      <trkpt lat="47.36731" lon="6.47631">
        <ele>317.649</ele>
        <time>2016-09-05T13:17:29.000Z</time>
      </trkpt>
      <trkpt lat="47.36731" lon="6.47627">
        <ele>316.745</ele>
        <time>2016-09-05T13:17:30.000Z</time>
      </trkpt>
      <trkpt lat="47.36732" lon="6.47622">
        <ele>316.906</ele>
        <time>2016-09-05T13:17:31.000Z</time>
      </trkpt>
      <trkpt lat="47.36732" lon="6.47618">
        <ele>314.193</ele>
        <time>2016-09-05T13:17:32.000Z</time>
      </trkpt>
      <trkpt lat="47.36733" lon="6.47613">
        <ele>313.573</ele>
        <time>2016-09-05T13:17:33.000Z</time>
      </trkpt>
      <trkpt lat="47.36733" lon="6.47609">
        <ele>313.45</ele>
        <time>2016-09-05T13:17:34.000Z</time>
      </trkpt>
      <trkpt lat="47.36734" lon="6.47605">
        <ele>314.219</ele>
        <time>2016-09-05T13:17:35.000Z</time>
      </trkpt>
      <trkpt lat="47.36735" lon="6.47601">
        <ele>314.163</ele>
        <time>2016-09-05T13:17:36.000Z</time>
      </trkpt>
      <trkpt lat="47.36735" lon="6.47597">
        <ele>313.391</ele>
        <time>2016-09-05T13:17:37.000Z</time>
      </trkpt>
      <trkpt lat="47.36736" lon="6.47592">
        <ele>312.056</ele>
        <time>2016-09-05T13:17:38.000Z</time>
      </trkpt>
      <trkpt lat="47.36736" lon="6.47588">
        <ele>311.868</ele>
        <time>2016-09-05T13:17:39.000Z</time>
      </trkpt>
      <trkpt lat="47.36736" lon="6.47584">
        <ele>312.394</ele>
        <time>2016-09-05T13:17:40.000Z</time>
      </trkpt>
      <trkpt lat="47.36736" lon="6.47579">
        <ele>313.849</ele>
        <time>2016-09-05T13:17:41.000Z</time>
      </trkpt>
      <trkpt lat="47.36736" lon="6.47575">
        <ele>314.973</ele>
        <time>2016-09-05T13:17:42.000Z</time>
      </trkpt>
      <trkpt lat="47.36736" lon="6.47571">
        <ele>315.904</ele>
        <time>2016-09-05T13:17:43.000Z</time>
      </trkpt>
      <trkpt lat="47.36737" lon="6.47567">
        <ele>317.032</ele>
        <time>2016-09-05T13:17:44.000Z</time>
      </trkpt>
      <trkpt lat="47.36737" lon="6.47564">
        <ele>317.212</ele>
        <time>2016-09-05T13:17:45.000Z</time>
      </trkpt>
      <trkpt lat="47.36737" lon="6.4756">
        <ele>317.287</ele>
        <time>2016-09-05T13:17:46.000Z</time>
      </trkpt>
      <trkpt lat="47.36737" lon="6.47556">
        <ele>317.649</ele>
        <time>2016-09-05T13:17:47.000Z</time>
      </trkpt>
      <trkpt lat="47.36737" lon="6.47552">
        <ele>316.336</ele>
        <time>2016-09-05T13:17:48.000Z</time>
      </trkpt>
      <trkpt lat="47.36737" lon="6.47549">
        <ele>317.133</ele>
        <time>2016-09-05T13:17:49.000Z</time>
      </trkpt>
      <trkpt lat="47.36737" lon="6.47545">
        <ele>316.709</ele>
        <time>2016-09-05T13:17:50.000Z</time>
      </trkpt>
      <trkpt lat="47.36737" lon="6.47541">
        <ele>316.716</ele>
        <time>2016-09-05T13:17:51.000Z</time>
      </trkpt>
      <trkpt lat="47.36736" lon="6.47539">
        <ele>315.124</ele>
        <time>2016-09-05T13:17:52.000Z</time>
      </trkpt>
      <trkpt lat="47.36736" lon="6.47539">
        <ele>316.443</ele>
        <time>2016-09-05T13:17:53.000Z</time>
      </trkpt>
      <trkpt lat="47.36736" lon="6.4754">
        <ele>318.154</ele>
        <time>2016-09-05T13:17:54.000Z</time>
      </trkpt>
      <trkpt lat="47.36736" lon="6.4754">
        <ele>318.191</ele>
        <time>2016-09-05T13:17:55.000Z</time>
      </trkpt>
      <trkpt lat="47.36736" lon="6.47541">
        <ele>316.397</ele>
        <time>2016-09-05T13:17:56.000Z</time>
      </trkpt>
      <trkpt lat="47.36737" lon="6.47541">
        <ele>315.641</ele>
        <time>2016-09-05T13:17:57.000Z</time>
      </trkpt>
      <trkpt lat="47.36737" lon="6.47541">
        <ele>314.917</ele>
        <time>2016-09-05T13:17:58.000Z</time>
      </trkpt>
      <trkpt lat="47.36737" lon="6.47541">
        <ele>315.364</ele>
        <time>2016-09-05T13:17:59.000Z</time>
      </trkpt>
      <trkpt lat="47.36737" lon="6.47541">
        <ele>316.46</ele>
        <time>2016-09-05T13:18:00.000Z</time>
      </trkpt>
      <trkpt lat="47.36737" lon="6.47541">
        <ele>316.663</ele>
        <time>2016-09-05T13:18:01.000Z</time>
      </trkpt>
      <trkpt lat="47.36737" lon="6.47541">
        <ele>316.957</ele>
        <time>2016-09-05T13:18:02.000Z</time>
      </trkpt>
      <trkpt lat="47.36737" lon="6.47541">
        <ele>315.639</ele>
        <time>2016-09-05T13:18:03.000Z</time>
      </trkpt>
      <trkpt lat="47.36737" lon="6.47541">
        <ele>315.773</ele>
        <time>2016-09-05T13:18:04.000Z</time>
      </trkpt>
      <trkpt lat="47.36737" lon="6.47541">
        <ele>314.669</ele>
        <time>2016-09-05T13:18:05.000Z</time>
      </trkpt>
      <trkpt lat="47.36736" lon="6.47541">
        <ele>314.12</ele>
        <time>2016-09-05T13:18:06.000Z</time>
      </trkpt>
      <trkpt lat="47.36736" lon="6.47541">
        <ele>314.629</ele>
        <time>2016-09-05T13:18:07.000Z</time>
      </trkpt>
      <trkpt lat="47.36736" lon="6.47541">
        <ele>315.853</ele>
        <time>2016-09-05T13:18:08.000Z</time>
      </trkpt>
      <trkpt lat="47.36736" lon="6.47541">
        <ele>316.155</ele>
        <time>2016-09-05T13:18:09.000Z</time>
      </trkpt>
      <trkpt lat="47.36736" lon="6.47541">
        <ele>315.004</ele>
        <time>2016-09-05T13:18:10.000Z</time>
      </trkpt>
      <trkpt lat="47.36736" lon="6.47541">
        <ele>314.073</ele>
        <time>2016-09-05T13:18:11.000Z</time>
      </trkpt>
      <trkpt lat="47.36736" lon="6.47541">
        <ele>314.327</ele>
        <time>2016-09-05T13:18:12.000Z</time>
      </trkpt>
      <trkpt lat="47.36736" lon="6.47541">
        <ele>314.025</ele>
        <time>2016-09-05T13:18:13.000Z</time>
      </trkpt>
      <trkpt lat="47.36736" lon="6.47541">
        <ele>314.199</ele>
        <time>2016-09-05T13:18:14.000Z</time>
      </trkpt>
      <trkpt lat="47.36736" lon="6.47541">
        <ele>314.564</ele>
        <time>2016-09-05T13:18:15.000Z</time>
      </trkpt>
      <trkpt lat="47.36736" lon="6.47541">
        <ele>314.491</ele>
        <time>2016-09-05T13:18:16.000Z</time>
      </trkpt>
      <trkpt lat="47.36736" lon="6.47541">
        <ele>313.934</ele>
        <time>2016-09-05T13:18:17.000Z</time>
      </trkpt>
      <trkpt lat="47.36736" lon="6.47541">
        <ele>314.851</ele>
        <time>2016-09-05T13:18:18.000Z</time>
      </trkpt>
      <trkpt lat="47.36736" lon="6.47541">
        <ele>316.077</ele>
        <time>2016-09-05T13:18:19.000Z</time>
      </trkpt>
      <trkpt lat="47.36736" lon="6.47537">
        <ele>318.549</ele>
        <time>2016-09-05T13:18:20.000Z</time>
      </trkpt>
      <trkpt lat="47.36735" lon="6.47537">
        <ele>318.389</ele>
        <time>2016-09-05T13:18:21.000Z</time>
      </trkpt>
      <trkpt lat="47.36735" lon="6.47537">
        <ele>318.518</ele>
        <time>2016-09-05T13:18:22.000Z</time>
      </trkpt>
      <trkpt lat="47.36735" lon="6.47537">
        <ele>319.097</ele>
        <time>2016-09-05T13:18:23.000Z</time>
      </trkpt>
      <trkpt lat="47.36735" lon="6.47537">
        <ele>321.016</ele>
        <time>2016-09-05T13:18:24.000Z</time>
      </trkpt>
      <trkpt lat="47.36735" lon="6.47537">
        <ele>321.404</ele>
        <time>2016-09-05T13:18:25.000Z</time>
      </trkpt>
      <trkpt lat="47.36735" lon="6.47537">
        <ele>321.618</ele>
        <time>2016-09-05T13:18:26.000Z</time>
      </trkpt>
      <trkpt lat="47.36735" lon="6.47535">
        <ele>319.998</ele>
        <time>2016-09-05T13:18:27.000Z</time>
      </trkpt>
      <trkpt lat="47.36735" lon="6.47535">
        <ele>319.969</ele>
        <time>2016-09-05T13:18:28.000Z</time>
      </trkpt>
      <trkpt lat="47.36735" lon="6.47535">
        <ele>320.589</ele>
        <time>2016-09-05T13:18:29.000Z</time>
      </trkpt>
      <trkpt lat="47.36735" lon="6.47535">
        <ele>320.101</ele>
        <time>2016-09-05T13:18:30.000Z</time>
      </trkpt>
      <trkpt lat="47.36735" lon="6.47535">
        <ele>319.555</ele>
        <time>2016-09-05T13:18:31.000Z</time>
      </trkpt>
      <trkpt lat="47.36735" lon="6.47535">
        <ele>318.646</ele>
        <time>2016-09-05T13:18:32.000Z</time>
      </trkpt>
      <trkpt lat="47.36734" lon="6.47535">
        <ele>318.556</ele>
        <time>2016-09-05T13:18:33.000Z</time>
      </trkpt>
      <trkpt lat="47.36734" lon="6.47535">
        <ele>318.064</ele>
        <time>2016-09-05T13:18:34.000Z</time>
      </trkpt>
      <trkpt lat="47.36734" lon="6.47535">
        <ele>319.104</ele>
        <time>2016-09-05T13:18:35.000Z</time>
      </trkpt>
      <trkpt lat="47.36734" lon="6.47535">
        <ele>319.103</ele>
        <time>2016-09-05T13:18:36.000Z</time>
      </trkpt>
      <trkpt lat="47.36734" lon="6.47535">
        <ele>318.249</ele>
        <time>2016-09-05T13:18:37.000Z</time>
      </trkpt>
      <trkpt lat="47.36734" lon="6.47534">
        <ele>316.96</ele>
        <time>2016-09-05T13:18:38.000Z</time>
      </trkpt>
      <trkpt lat="47.36734" lon="6.47534">
        <ele>316.593</ele>
        <time>2016-09-05T13:18:39.000Z</time>
      </trkpt>
      <trkpt lat="47.36734" lon="6.47534">
        <ele>317.66</ele>
        <time>2016-09-05T13:18:40.000Z</time>
      </trkpt>
      <trkpt lat="47.36734" lon="6.47534">
        <ele>318.022</ele>
        <time>2016-09-05T13:18:41.000Z</time>
      </trkpt>
      <trkpt lat="47.36733" lon="6.47533">
        <ele>317.87</ele>
        <time>2016-09-05T13:18:42.000Z</time>
      </trkpt>
      <trkpt lat="47.36732" lon="6.47533">
        <ele>318.293</ele>
        <time>2016-09-05T13:18:43.000Z</time>
      </trkpt>
      <trkpt lat="47.36732" lon="6.47533">
        <ele>317.62</ele>
        <time>2016-09-05T13:18:44.000Z</time>
      </trkpt>
      <trkpt lat="47.36732" lon="6.47534">
        <ele>316.955</ele>
        <time>2016-09-05T13:18:45.000Z</time>
      </trkpt>
      <trkpt lat="47.36733" lon="6.47535">
        <ele>316.862</ele>
        <time>2016-09-05T13:18:46.000Z</time>
      </trkpt>
      <trkpt lat="47.36733" lon="6.47536">
        <ele>316.255</ele>
        <time>2016-09-05T13:18:47.000Z</time>
      </trkpt>
      <trkpt lat="47.36733" lon="6.47536">
        <ele>315.346</ele>
        <time>2016-09-05T13:18:48.000Z</time>
      </trkpt>
      <trkpt lat="47.36732" lon="6.47537">
        <ele>315.013</ele>
        <time>2016-09-05T13:18:49.000Z</time>
      </trkpt>
      <trkpt lat="47.36732" lon="6.47537">
        <ele>314.447</ele>
        <time>2016-09-05T13:18:50.000Z</time>
      </trkpt>
      <trkpt lat="47.36732" lon="6.47537">
        <ele>314.814</ele>
        <time>2016-09-05T13:18:51.000Z</time>
      </trkpt>
      <trkpt lat="47.36732" lon="6.47537">
        <ele>314.38</ele>
        <time>2016-09-05T13:18:52.000Z</time>
      </trkpt>
      <trkpt lat="47.36732" lon="6.47537">
        <ele>313.69</ele>
        <time>2016-09-05T13:18:53.000Z</time>
      </trkpt>
      <trkpt lat="47.36732" lon="6.47537">
        <ele>314.122</ele>
        <time>2016-09-05T13:18:54.000Z</time>
      </trkpt>
      <trkpt lat="47.36732" lon="6.47537">
        <ele>314.443</ele>
        <time>2016-09-05T13:18:55.000Z</time>
      </trkpt>
      <trkpt lat="47.36732" lon="6.47537">
        <ele>314.684</ele>
        <time>2016-09-05T13:18:56.000Z</time>
      </trkpt>
      <trkpt lat="47.36732" lon="6.47537">
        <ele>314.772</ele>
        <time>2016-09-05T13:18:57.000Z</time>
      </trkpt>
      <trkpt lat="47.36732" lon="6.47537">
        <ele>315.751</ele>
        <time>2016-09-05T13:18:58.000Z</time>
      </trkpt>
      <trkpt lat="47.36732" lon="6.47537">
        <ele>316.067</ele>
        <time>2016-09-05T13:18:59.000Z</time>
      </trkpt>
      <trkpt lat="47.36732" lon="6.47537">
        <ele>316.516</ele>
        <time>2016-09-05T13:19:00.000Z</time>
      </trkpt>
      <trkpt lat="47.36732" lon="6.47537">
        <ele>316.123</ele>
        <time>2016-09-05T13:19:01.000Z</time>
      </trkpt>
      <trkpt lat="47.36732" lon="6.47537">
        <ele>316.123</ele>
        <time>2016-09-05T13:19:02.000Z</time>
      </trkpt>
      <trkpt lat="47.36732" lon="6.47537">
        <ele>316.258</ele>
        <time>2016-09-05T13:19:03.000Z</time>
      </trkpt>
      <trkpt lat="47.36732" lon="6.47537">
        <ele>315.696</ele>
        <time>2016-09-05T13:19:04.000Z</time>
      </trkpt>
      <trkpt lat="47.36732" lon="6.47537">
        <ele>316.354</ele>
        <time>2016-09-05T13:19:05.000Z</time>
      </trkpt>
      <trkpt lat="47.36732" lon="6.47537">
        <ele>316.448</ele>
        <time>2016-09-05T13:19:06.000Z</time>
      </trkpt>
      <trkpt lat="47.36733" lon="6.47538">
        <ele>314.674</ele>
        <time>2016-09-05T13:19:07.000Z</time>
      </trkpt>
      <trkpt lat="47.36733" lon="6.47538">
        <ele>314.611</ele>
        <time>2016-09-05T13:19:08.000Z</time>
      </trkpt>
      <trkpt lat="47.36734" lon="6.47537">
        <ele>313.795</ele>
        <time>2016-09-05T13:19:09.000Z</time>
      </trkpt>
      <trkpt lat="47.36734" lon="6.47535">
        <ele>315.509</ele>
        <time>2016-09-05T13:19:10.000Z</time>
      </trkpt>
      <trkpt lat="47.36734" lon="6.47535">
        <ele>314.268</ele>
        <time>2016-09-05T13:19:11.000Z</time>
      </trkpt>
      <trkpt lat="47.36734" lon="6.47534">
        <ele>314.909</ele>
        <time>2016-09-05T13:19:12.000Z</time>
      </trkpt>
      <trkpt lat="47.36734" lon="6.47534">
        <ele>315.295</ele>
        <time>2016-09-05T13:19:13.000Z</time>
      </trkpt>
      <trkpt lat="47.36734" lon="6.47534">
        <ele>315.451</ele>
        <time>2016-09-05T13:19:14.000Z</time>
      </trkpt>
      <trkpt lat="47.36733" lon="6.47534">
        <ele>315.089</ele>
        <time>2016-09-05T13:19:15.000Z</time>
      </trkpt>
      <trkpt lat="47.36733" lon="6.47534">
        <ele>314.191</ele>
        <time>2016-09-05T13:19:16.000Z</time>
      </trkpt>
      <trkpt lat="47.36733" lon="6.47534">
        <ele>314.057</ele>
        <time>2016-09-05T13:19:17.000Z</time>
      </trkpt>
      <trkpt lat="47.36733" lon="6.47534">
        <ele>314.183</ele>
        <time>2016-09-05T13:19:18.000Z</time>
      </trkpt>
      <trkpt lat="47.36733" lon="6.47534">
        <ele>314.326</ele>
        <time>2016-09-05T13:19:19.000Z</time>
      </trkpt>
      <trkpt lat="47.36733" lon="6.47534">
        <ele>312.878</ele>
        <time>2016-09-05T13:19:20.000Z</time>
      </trkpt>
      <trkpt lat="47.36733" lon="6.47534">
        <ele>313.544</ele>
        <time>2016-09-05T13:19:21.000Z</time>
      </trkpt>
      <trkpt lat="47.36733" lon="6.47534">
        <ele>313.545</ele>
        <time>2016-09-05T13:19:22.000Z</time>
      </trkpt>
      <trkpt lat="47.36733" lon="6.47534">
        <ele>313.629</ele>
        <time>2016-09-05T13:19:23.000Z</time>
      </trkpt>
      <trkpt lat="47.36733" lon="6.47534">
        <ele>312.675</ele>
        <time>2016-09-05T13:19:24.000Z</time>
      </trkpt>
      <trkpt lat="47.36733" lon="6.47534">
        <ele>312.864</ele>
        <time>2016-09-05T13:19:25.000Z</time>
      </trkpt>
      <trkpt lat="47.36733" lon="6.47534">
        <ele>312.292</ele>
        <time>2016-09-05T13:19:26.000Z</time>
      </trkpt>
      <trkpt lat="47.36733" lon="6.47534">
        <ele>312.519</ele>
        <time>2016-09-05T13:19:27.000Z</time>
      </trkpt>
      <trkpt lat="47.36733" lon="6.47534">
        <ele>312.041</ele>
        <time>2016-09-05T13:19:28.000Z</time>
      </trkpt>
      <trkpt lat="47.36733" lon="6.47534">
        <ele>312.453</ele>
        <time>2016-09-05T13:19:29.000Z</time>
      </trkpt>
      <trkpt lat="47.36733" lon="6.47534">
        <ele>312.932</ele>
        <time>2016-09-05T13:19:30.000Z</time>
      </trkpt>
      <trkpt lat="47.36733" lon="6.47534">
        <ele>317.716</ele>
        <time>2016-09-05T13:19:31.000Z</time>
      </trkpt>
      <trkpt lat="47.36732" lon="6.47535">
        <ele>320.42</ele>
        <time>2016-09-05T13:19:32.000Z</time>
      </trkpt>
      <trkpt lat="47.36732" lon="6.47535">
        <ele>321.504</ele>
        <time>2016-09-05T13:19:33.000Z</time>
      </trkpt>
      <trkpt lat="47.36732" lon="6.47537">
        <ele>322.238</ele>
        <time>2016-09-05T13:19:34.000Z</time>
      </trkpt>
      <trkpt lat="47.36732" lon="6.47537">
        <ele>322.62</ele>
        <time>2016-09-05T13:19:35.000Z</time>
      </trkpt>
      <trkpt lat="47.36732" lon="6.47537">
        <ele>321.475</ele>
        <time>2016-09-05T13:19:36.000Z</time>
      </trkpt>
      <trkpt lat="47.36732" lon="6.47537">
        <ele>322.968</ele>
        <time>2016-09-05T13:19:37.000Z</time>
      </trkpt>
      <trkpt lat="47.36732" lon="6.47537">
        <ele>320.65</ele>
        <time>2016-09-05T13:19:38.000Z</time>
      </trkpt>
      <trkpt lat="47.36731" lon="6.47537">
        <ele>319.736</ele>
        <time>2016-09-05T13:19:39.000Z</time>
      </trkpt>
      <trkpt lat="47.36731" lon="6.47537">
        <ele>322.174</ele>
        <time>2016-09-05T13:19:40.000Z</time>
      </trkpt>
      <trkpt lat="47.36731" lon="6.47537">
        <ele>322.523</ele>
        <time>2016-09-05T13:19:41.000Z</time>
      </trkpt>
      <trkpt lat="47.36731" lon="6.47537">
        <ele>323.841</ele>
        <time>2016-09-05T13:19:42.000Z</time>
      </trkpt>
      <trkpt lat="47.36731" lon="6.47537">
        <ele>325.714</ele>
        <time>2016-09-05T13:19:43.000Z</time>
      </trkpt>
      <trkpt lat="47.36731" lon="6.47537">
        <ele>325.964</ele>
        <time>2016-09-05T13:19:44.000Z</time>
      </trkpt>
      <trkpt lat="47.36731" lon="6.47537">
        <ele>326.657</ele>
        <time>2016-09-05T13:19:45.000Z</time>
      </trkpt>
      <trkpt lat="47.36731" lon="6.47537">
        <ele>327.097</ele>
        <time>2016-09-05T13:19:46.000Z</time>
      </trkpt>
      <trkpt lat="47.36731" lon="6.47537">
        <ele>327.914</ele>
        <time>2016-09-05T13:19:47.000Z</time>
      </trkpt>
      <trkpt lat="47.36731" lon="6.47537">
        <ele>328.842</ele>
        <time>2016-09-05T13:19:48.002Z</time>
      </trkpt>
      <trkpt lat="47.36731" lon="6.47537">
        <ele>327.42</ele>
        <time>2016-09-05T13:19:49.000Z</time>
      </trkpt>
      <trkpt lat="47.36731" lon="6.47537">
        <ele>325.312</ele>
        <time>2016-09-05T13:19:50.000Z</time>
      </trkpt>
      <trkpt lat="47.36731" lon="6.47537">
        <ele>324.796</ele>
        <time>2016-09-05T13:19:51.000Z</time>
      </trkpt>
      <trkpt lat="47.36731" lon="6.47537">
        <ele>325.924</ele>
        <time>2016-09-05T13:19:52.000Z</time>
      </trkpt>
      <trkpt lat="47.36731" lon="6.47537">
        <ele>324.749</ele>
        <time>2016-09-05T13:19:53.000Z</time>
      </trkpt>
      <trkpt lat="47.36731" lon="6.47537">
        <ele>325.146</ele>
        <time>2016-09-05T13:19:54.000Z</time>
      </trkpt>
      <trkpt lat="47.36731" lon="6.47537">
        <ele>326.009</ele>
        <time>2016-09-05T13:19:55.000Z</time>
      </trkpt>
      <trkpt lat="47.36731" lon="6.47537">
        <ele>326.213</ele>
        <time>2016-09-05T13:19:56.000Z</time>
      </trkpt>
      <trkpt lat="47.36731" lon="6.47537">
        <ele>326.385</ele>
        <time>2016-09-05T13:19:57.000Z</time>
      </trkpt>
      <trkpt lat="47.36731" lon="6.47537">
        <ele>326.109</ele>
        <time>2016-09-05T13:19:58.000Z</time>
      </trkpt>
      <trkpt lat="47.36731" lon="6.47537">
        <ele>326.859</ele>
        <time>2016-09-05T13:19:59.000Z</time>
      </trkpt>
      <trkpt lat="47.36731" lon="6.47537">
        <ele>327.243</ele>
        <time>2016-09-05T13:20:00.000Z</time>
      </trkpt>
      <trkpt lat="47.36731" lon="6.47537">
        <ele>327.995</ele>
        <time>2016-09-05T13:20:01.000Z</time>
      </trkpt>
      <trkpt lat="47.36731" lon="6.47537">
        <ele>327.733</ele>
        <time>2016-09-05T13:20:02.000Z</time>
      </trkpt>
      <trkpt lat="47.36731" lon="6.47536">
        <ele>328.006</ele>
        <time>2016-09-05T13:20:03.000Z</time>
      </trkpt>
      <trkpt lat="47.36731" lon="6.47536">
        <ele>327.214</ele>
        <time>2016-09-05T13:20:04.000Z</time>
      </trkpt>
      <trkpt lat="47.3673" lon="6.47536">
        <ele>326.417</ele>
        <time>2016-09-05T13:20:05.000Z</time>
      </trkpt>
      <trkpt lat="47.3673" lon="6.47536">
        <ele>326.296</ele>
        <time>2016-09-05T13:20:06.000Z</time>
      </trkpt>
      <trkpt lat="47.3673" lon="6.47536">
        <ele>325.533</ele>
        <time>2016-09-05T13:20:07.000Z</time>
      </trkpt>
      <trkpt lat="47.3673" lon="6.47536">
        <ele>324.662</ele>
        <time>2016-09-05T13:20:08.000Z</time>
      </trkpt>
      <trkpt lat="47.3673" lon="6.47536">
        <ele>324.15</ele>
        <time>2016-09-05T13:20:09.000Z</time>
      </trkpt>
      <trkpt lat="47.3673" lon="6.47536">
        <ele>324.053</ele>
        <time>2016-09-05T13:20:10.000Z</time>
      </trkpt>
      <trkpt lat="47.3673" lon="6.47536">
        <ele>324.068</ele>
        <time>2016-09-05T13:20:11.000Z</time>
      </trkpt>
      <trkpt lat="47.3673" lon="6.47536">
        <ele>323.714</ele>
        <time>2016-09-05T13:20:12.000Z</time>
      </trkpt>
      <trkpt lat="47.3673" lon="6.47536">
        <ele>323.484</ele>
        <time>2016-09-05T13:20:13.000Z</time>
      </trkpt>
      <trkpt lat="47.3673" lon="6.47536">
        <ele>322.254</ele>
        <time>2016-09-05T13:20:14.000Z</time>
      </trkpt>
      <trkpt lat="47.3673" lon="6.47536">
        <ele>322.172</ele>
        <time>2016-09-05T13:20:15.000Z</time>
      </trkpt>
      <trkpt lat="47.3673" lon="6.47536">
        <ele>322.135</ele>
        <time>2016-09-05T13:20:16.000Z</time>
      </trkpt>
      <trkpt lat="47.3673" lon="6.47536">
        <ele>322.406</ele>
        <time>2016-09-05T13:20:17.000Z</time>
      </trkpt>
      <trkpt lat="47.3673" lon="6.47536">
        <ele>322.652</ele>
        <time>2016-09-05T13:20:18.000Z</time>
      </trkpt>
      <trkpt lat="47.3673" lon="6.47536">
        <ele>323.019</ele>
        <time>2016-09-05T13:20:19.000Z</time>
      </trkpt>
      <trkpt lat="47.3673" lon="6.47536">
        <ele>323.344</ele>
        <time>2016-09-05T13:20:20.000Z</time>
      </trkpt>
      <trkpt lat="47.3673" lon="6.47536">
        <ele>322.684</ele>
        <time>2016-09-05T13:20:21.000Z</time>
      </trkpt>
      <trkpt lat="47.3673" lon="6.47536">
        <ele>322.711</ele>
        <time>2016-09-05T13:20:22.000Z</time>
      </trkpt>
      <trkpt lat="47.3673" lon="6.47536">
        <ele>322.799</ele>
        <time>2016-09-05T13:20:23.000Z</time>
      </trkpt>
      <trkpt lat="47.3673" lon="6.47536">
        <ele>322.775</ele>
        <time>2016-09-05T13:20:24.000Z</time>
      </trkpt>
      <trkpt lat="47.3673" lon="6.47536">
        <ele>322.205</ele>
        <time>2016-09-05T13:20:25.000Z</time>
      </trkpt>
      <trkpt lat="47.3673" lon="6.47536">
        <ele>322.201</ele>
        <time>2016-09-05T13:20:26.000Z</time>
      </trkpt>
      <trkpt lat="47.3673" lon="6.47536">
        <ele>322.219</ele>
        <time>2016-09-05T13:20:27.000Z</time>
      </trkpt>
      <trkpt lat="47.3673" lon="6.47536">
        <ele>322.398</ele>
        <time>2016-09-05T13:20:28.000Z</time>
      </trkpt>
      <trkpt lat="47.3673" lon="6.47536">
        <ele>322.225</ele>
        <time>2016-09-05T13:20:29.000Z</time>
      </trkpt>
      <trkpt lat="47.3673" lon="6.47536">
        <ele>322.563</ele>
        <time>2016-09-05T13:20:30.000Z</time>
      </trkpt>
      <trkpt lat="47.3673" lon="6.47536">
        <ele>322.728</ele>
        <time>2016-09-05T13:20:31.000Z</time>
      </trkpt>
      <trkpt lat="47.3673" lon="6.47536">
        <ele>321.48</ele>
        <time>2016-09-05T13:20:32.000Z</time>
      </trkpt>
      <trkpt lat="47.3673" lon="6.47536">
        <ele>321.502</ele>
        <time>2016-09-05T13:20:33.000Z</time>
      </trkpt>
      <trkpt lat="47.3673" lon="6.47536">
        <ele>321.078</ele>
        <time>2016-09-05T13:20:34.000Z</time>
      </trkpt>
      <trkpt lat="47.3673" lon="6.47536">
        <ele>319.684</ele>
        <time>2016-09-05T13:20:35.000Z</time>
      </trkpt>
      <trkpt lat="47.3673" lon="6.47536">
        <ele>319.683</ele>
        <time>2016-09-05T13:20:36.000Z</time>
      </trkpt>
      <trkpt lat="47.36731" lon="6.47533">
        <ele>319.719</ele>
        <time>2016-09-05T13:20:37.000Z</time>
      </trkpt>
      <trkpt lat="47.36731" lon="6.47533">
        <ele>318.872</ele>
        <time>2016-09-05T13:20:38.000Z</time>
      </trkpt>
      <trkpt lat="47.36731" lon="6.47533">
        <ele>318.499</ele>
        <time>2016-09-05T13:20:39.000Z</time>
      </trkpt>
      <trkpt lat="47.36731" lon="6.47533">
        <ele>319.211</ele>
        <time>2016-09-05T13:20:40.000Z</time>
      </trkpt>
      <trkpt lat="47.36731" lon="6.47533">
        <ele>318.833</ele>
        <time>2016-09-05T13:20:41.000Z</time>
      </trkpt>
      <trkpt lat="47.36731" lon="6.47533">
        <ele>319.317</ele>
        <time>2016-09-05T13:20:42.000Z</time>
      </trkpt>
      <trkpt lat="47.36731" lon="6.47533">
        <ele>319.368</ele>
        <time>2016-09-05T13:20:43.000Z</time>
      </trkpt>
      <trkpt lat="47.36731" lon="6.47533">
        <ele>319.22</ele>
        <time>2016-09-05T13:20:44.000Z</time>
      </trkpt>
      <trkpt lat="47.36731" lon="6.47533">
        <ele>319.469</ele>
        <time>2016-09-05T13:20:45.000Z</time>
      </trkpt>
      <trkpt lat="47.36731" lon="6.47533">
        <ele>319.272</ele>
        <time>2016-09-05T13:20:46.000Z</time>
      </trkpt>
      <trkpt lat="47.36731" lon="6.47533">
        <ele>319.064</ele>
        <time>2016-09-05T13:20:47.000Z</time>
      </trkpt>
      <trkpt lat="47.36731" lon="6.47533">
        <ele>318.957</ele>
        <time>2016-09-05T13:20:48.000Z</time>
      </trkpt>
      <trkpt lat="47.36731" lon="6.47533">
        <ele>319.905</ele>
        <time>2016-09-05T13:20:49.000Z</time>
      </trkpt>
      <trkpt lat="47.36731" lon="6.47533">
        <ele>320.624</ele>
        <time>2016-09-05T13:20:50.000Z</time>
      </trkpt>
      <trkpt lat="47.36731" lon="6.47533">
        <ele>320.862</ele>
        <time>2016-09-05T13:20:51.000Z</time>
      </trkpt>
      <trkpt lat="47.36731" lon="6.47533">
        <ele>320.417</ele>
        <time>2016-09-05T13:20:52.000Z</time>
      </trkpt>
      <trkpt lat="47.36731" lon="6.47533">
        <ele>320.828</ele>
        <time>2016-09-05T13:20:53.000Z</time>
      </trkpt>
      <trkpt lat="47.36731" lon="6.47533">
        <ele>320.233</ele>
        <time>2016-09-05T13:20:54.000Z</time>
      </trkpt>
      <trkpt lat="47.36731" lon="6.47533">
        <ele>319.615</ele>
        <time>2016-09-05T13:20:55.000Z</time>
      </trkpt>
      <trkpt lat="47.36731" lon="6.47533">
        <ele>319.465</ele>
        <time>2016-09-05T13:20:56.000Z</time>
      </trkpt>
      <trkpt lat="47.36731" lon="6.47533">
        <ele>319.526</ele>
        <time>2016-09-05T13:20:57.000Z</time>
      </trkpt>
      <trkpt lat="47.36731" lon="6.47533">
        <ele>319.686</ele>
        <time>2016-09-05T13:20:58.000Z</time>
      </trkpt>
      <trkpt lat="47.36731" lon="6.47533">
        <ele>318.967</ele>
        <time>2016-09-05T13:20:59.000Z</time>
      </trkpt>
      <trkpt lat="47.36731" lon="6.47533">
        <ele>318.948</ele>
        <time>2016-09-05T13:21:00.000Z</time>
      </trkpt>
      <trkpt lat="47.36731" lon="6.47533">
        <ele>318.346</ele>
        <time>2016-09-05T13:21:01.000Z</time>
      </trkpt>
      <trkpt lat="47.36731" lon="6.47533">
        <ele>317.812</ele>
        <time>2016-09-05T13:21:02.000Z</time>
      </trkpt>
      <trkpt lat="47.36731" lon="6.47533">
        <ele>317.794</ele>
        <time>2016-09-05T13:21:03.000Z</time>
      </trkpt>
      <trkpt lat="47.36731" lon="6.47533">
        <ele>317.85</ele>
        <time>2016-09-05T13:21:04.000Z</time>
      </trkpt>
      <trkpt lat="47.36731" lon="6.47533">
        <ele>318.069</ele>
        <time>2016-09-05T13:21:05.000Z</time>
      </trkpt>
      <trkpt lat="47.36731" lon="6.47533">
        <ele>317.623</ele>
        <time>2016-09-05T13:21:06.000Z</time>
      </trkpt>
      <trkpt lat="47.36731" lon="6.47533">
        <ele>317.301</ele>
        <time>2016-09-05T13:21:07.000Z</time>
      </trkpt>
      <trkpt lat="47.36731" lon="6.47533">
        <ele>317.982</ele>
        <time>2016-09-05T13:21:08.000Z</time>
      </trkpt>
      <trkpt lat="47.36733" lon="6.47532">
        <ele>318.838</ele>
        <time>2016-09-05T13:21:09.000Z</time>
      </trkpt>
      <trkpt lat="47.36733" lon="6.47532">
        <ele>318.247</ele>
        <time>2016-09-05T13:21:10.000Z</time>
      </trkpt>
      <trkpt lat="47.36733" lon="6.47532">
        <ele>319.148</ele>
        <time>2016-09-05T13:21:11.000Z</time>
      </trkpt>
      <trkpt lat="47.36733" lon="6.47532">
        <ele>318.89</ele>
        <time>2016-09-05T13:21:12.000Z</time>
      </trkpt>
      <trkpt lat="47.36733" lon="6.47532">
        <ele>319.113</ele>
        <time>2016-09-05T13:21:13.000Z</time>
      </trkpt>
      <trkpt lat="47.36733" lon="6.47532">
        <ele>319.536</ele>
        <time>2016-09-05T13:21:14.000Z</time>
      </trkpt>
      <trkpt lat="47.36733" lon="6.47532">
        <ele>319.657</ele>
        <time>2016-09-05T13:21:15.000Z</time>
      </trkpt>
      <trkpt lat="47.36733" lon="6.47532">
        <ele>319.969</ele>
        <time>2016-09-05T13:21:16.000Z</time>
      </trkpt>
      <trkpt lat="47.36733" lon="6.47532">
        <ele>320.443</ele>
        <time>2016-09-05T13:21:17.000Z</time>
      </trkpt>
      <trkpt lat="47.36733" lon="6.47532">
        <ele>320.414</ele>
        <time>2016-09-05T13:21:18.000Z</time>
      </trkpt>
      <trkpt lat="47.36733" lon="6.47532">
        <ele>321.111</ele>
        <time>2016-09-05T13:21:19.000Z</time>
      </trkpt>
      <trkpt lat="47.36733" lon="6.47532">
        <ele>320.475</ele>
        <time>2016-09-05T13:21:20.000Z</time>
      </trkpt>
      <trkpt lat="47.36733" lon="6.47532">
        <ele>320.529</ele>
        <time>2016-09-05T13:21:21.000Z</time>
      </trkpt>
      <trkpt lat="47.36733" lon="6.47532">
        <ele>320.856</ele>
        <time>2016-09-05T13:21:22.000Z</time>
      </trkpt>
      <trkpt lat="47.36733" lon="6.47532">
        <ele>321.583</ele>
        <time>2016-09-05T13:21:23.000Z</time>
      </trkpt>
      <trkpt lat="47.36733" lon="6.47532">
        <ele>321.375</ele>
        <time>2016-09-05T13:21:24.000Z</time>
      </trkpt>
      <trkpt lat="47.36732" lon="6.47529">
        <ele>320.809</ele>
        <time>2016-09-05T13:21:25.000Z</time>
      </trkpt>
      <trkpt lat="47.36732" lon="6.47529">
        <ele>321.559</ele>
        <time>2016-09-05T13:21:26.000Z</time>
      </trkpt>
      <trkpt lat="47.36732" lon="6.47529">
        <ele>322.431</ele>
        <time>2016-09-05T13:21:27.000Z</time>
      </trkpt>
      <trkpt lat="47.36732" lon="6.47529">
        <ele>322.328</ele>
        <time>2016-09-05T13:21:28.000Z</time>
      </trkpt>
      <trkpt lat="47.36732" lon="6.47529">
        <ele>321.797</ele>
        <time>2016-09-05T13:21:29.000Z</time>
      </trkpt>
      <trkpt lat="47.36732" lon="6.47528">
        <ele>321.929</ele>
        <time>2016-09-05T13:21:30.000Z</time>
      </trkpt>
      <trkpt lat="47.36732" lon="6.47528">
        <ele>322.341</ele>
        <time>2016-09-05T13:21:31.000Z</time>
      </trkpt>
      <trkpt lat="47.36731" lon="6.47528">
        <ele>322.415</ele>
        <time>2016-09-05T13:21:32.000Z</time>
      </trkpt>
      <trkpt lat="47.36731" lon="6.47528">
        <ele>322.904</ele>
        <time>2016-09-05T13:21:33.000Z</time>
      </trkpt>
      <trkpt lat="47.36731" lon="6.47528">
        <ele>323.387</ele>
        <time>2016-09-05T13:21:34.000Z</time>
      </trkpt>
      <trkpt lat="47.36731" lon="6.47528">
        <ele>323.803</ele>
        <time>2016-09-05T13:21:35.000Z</time>
      </trkpt>
      <trkpt lat="47.36731" lon="6.47528">
        <ele>323.346</ele>
        <time>2016-09-05T13:21:36.000Z</time>
      </trkpt>
      <trkpt lat="47.36731" lon="6.47528">
        <ele>323.9</ele>
        <time>2016-09-05T13:21:37.000Z</time>
      </trkpt>
      <trkpt lat="47.36731" lon="6.47528">
        <ele>323.875</ele>
        <time>2016-09-05T13:21:38.000Z</time>
      </trkpt>
      <trkpt lat="47.36731" lon="6.47528">
        <ele>323.768</ele>
        <time>2016-09-05T13:21:39.000Z</time>
      </trkpt>
      <trkpt lat="47.36731" lon="6.47528">
        <ele>323.671</ele>
        <time>2016-09-05T13:21:40.000Z</time>
      </trkpt>
      <trkpt lat="47.36731" lon="6.47528">
        <ele>323.954</ele>
        <time>2016-09-05T13:21:41.000Z</time>
      </trkpt>
      <trkpt lat="47.36731" lon="6.47528">
        <ele>324.074</ele>
        <time>2016-09-05T13:21:42.000Z</time>
      </trkpt>
      <trkpt lat="47.36731" lon="6.47528">
        <ele>324.085</ele>
        <time>2016-09-05T13:21:43.000Z</time>
      </trkpt>
      <trkpt lat="47.36731" lon="6.47528">
        <ele>324.64</ele>
        <time>2016-09-05T13:21:44.000Z</time>
      </trkpt>
      <trkpt lat="47.36731" lon="6.47528">
        <ele>324.771</ele>
        <time>2016-09-05T13:21:45.000Z</time>
      </trkpt>
      <trkpt lat="47.36731" lon="6.47528">
        <ele>324.545</ele>
        <time>2016-09-05T13:21:46.000Z</time>
      </trkpt>
      <trkpt lat="47.36731" lon="6.47528">
        <ele>324.067</ele>
        <time>2016-09-05T13:21:47.000Z</time>
      </trkpt>
      <trkpt lat="47.36731" lon="6.47528">
        <ele>323.356</ele>
        <time>2016-09-05T13:21:48.000Z</time>
      </trkpt>
      <trkpt lat="47.36731" lon="6.47528">
        <ele>323.179</ele>
        <time>2016-09-05T13:21:49.000Z</time>
      </trkpt>
      <trkpt lat="47.36731" lon="6.47528">
        <ele>322.917</ele>
        <time>2016-09-05T13:21:50.000Z</time>
      </trkpt>
      <trkpt lat="47.36731" lon="6.47528">
        <ele>322.235</ele>
        <time>2016-09-05T13:21:51.000Z</time>
      </trkpt>
      <trkpt lat="47.36731" lon="6.47528">
        <ele>321.798</ele>
        <time>2016-09-05T13:21:52.000Z</time>
      </trkpt>
      <trkpt lat="47.36731" lon="6.47528">
        <ele>321.303</ele>
        <time>2016-09-05T13:21:53.000Z</time>
      </trkpt>
      <trkpt lat="47.36731" lon="6.47528">
        <ele>321.41</ele>
        <time>2016-09-05T13:21:54.000Z</time>
      </trkpt>
      <trkpt lat="47.36731" lon="6.47528">
        <ele>320.813</ele>
        <time>2016-09-05T13:21:55.000Z</time>
      </trkpt>
      <trkpt lat="47.36731" lon="6.47528">
        <ele>321.41</ele>
        <time>2016-09-05T13:21:56.000Z</time>
      </trkpt>
      <trkpt lat="47.36731" lon="6.47528">
        <ele>321.648</ele>
        <time>2016-09-05T13:21:57.000Z</time>
      </trkpt>
      <trkpt lat="47.36731" lon="6.47528">
        <ele>321.275</ele>
        <time>2016-09-05T13:21:58.000Z</time>
      </trkpt>
      <trkpt lat="47.36731" lon="6.47528">
        <ele>321.078</ele>
        <time>2016-09-05T13:21:59.000Z</time>
      </trkpt>
      <trkpt lat="47.36733" lon="6.47528">
        <ele>321.162</ele>
        <time>2016-09-05T13:22:00.000Z</time>
      </trkpt>
      <trkpt lat="47.36733" lon="6.47528">
        <ele>320.691</ele>
        <time>2016-09-05T13:22:01.000Z</time>
      </trkpt>
      <trkpt lat="47.36733" lon="6.47528">
        <ele>320.587</ele>
        <time>2016-09-05T13:22:02.000Z</time>
      </trkpt>
      <trkpt lat="47.36733" lon="6.47528">
        <ele>320.525</ele>
        <time>2016-09-05T13:22:03.000Z</time>
      </trkpt>
      <trkpt lat="47.36733" lon="6.47528">
        <ele>322.103</ele>
        <time>2016-09-05T13:22:04.000Z</time>
      </trkpt>
      <trkpt lat="47.36733" lon="6.47528">
        <ele>321.244</ele>
        <time>2016-09-05T13:22:05.000Z</time>
      </trkpt>
      <trkpt lat="47.36733" lon="6.47528">
        <ele>321.269</ele>
        <time>2016-09-05T13:22:06.000Z</time>
      </trkpt>
      <trkpt lat="47.36733" lon="6.47528">
        <ele>320.987</ele>
        <time>2016-09-05T13:22:07.000Z</time>
      </trkpt>
      <trkpt lat="47.36733" lon="6.47528">
        <ele>320.923</ele>
        <time>2016-09-05T13:22:08.000Z</time>
      </trkpt>
      <trkpt lat="47.36733" lon="6.47528">
        <ele>321.092</ele>
        <time>2016-09-05T13:22:09.000Z</time>
      </trkpt>
      <trkpt lat="47.36733" lon="6.47528">
        <ele>320.806</ele>
        <time>2016-09-05T13:22:10.000Z</time>
      </trkpt>
      <trkpt lat="47.36733" lon="6.47529">
        <ele>321.399</ele>
        <time>2016-09-05T13:22:11.000Z</time>
      </trkpt>
      <trkpt lat="47.36733" lon="6.47529">
        <ele>321.222</ele>
        <time>2016-09-05T13:22:12.000Z</time>
      </trkpt>
      <trkpt lat="47.36733" lon="6.4753">
        <ele>320.948</ele>
        <time>2016-09-05T13:22:13.000Z</time>
      </trkpt>
      <trkpt lat="47.36733" lon="6.4753">
        <ele>320.824</ele>
        <time>2016-09-05T13:22:14.000Z</time>
      </trkpt>
      <trkpt lat="47.36733" lon="6.4753">
        <ele>321.223</ele>
        <time>2016-09-05T13:22:15.000Z</time>
      </trkpt>
      <trkpt lat="47.36733" lon="6.4753">
        <ele>320.874</ele>
        <time>2016-09-05T13:22:16.000Z</time>
      </trkpt>
      <trkpt lat="47.36733" lon="6.4753">
        <ele>320.033</ele>
        <time>2016-09-05T13:22:17.000Z</time>
      </trkpt>
      <trkpt lat="47.36733" lon="6.47529">
        <ele>319.677</ele>
        <time>2016-09-05T13:22:18.000Z</time>
      </trkpt>
      <trkpt lat="47.36733" lon="6.47529">
        <ele>320.083</ele>
        <time>2016-09-05T13:22:19.000Z</time>
      </trkpt>
      <trkpt lat="47.36733" lon="6.47527">
        <ele>320.002</ele>
        <time>2016-09-05T13:22:20.000Z</time>
      </trkpt>
      <trkpt lat="47.36734" lon="6.47525">
        <ele>320.585</ele>
        <time>2016-09-05T13:22:21.000Z</time>
      </trkpt>
      <trkpt lat="47.36734" lon="6.47523">
        <ele>319.803</ele>
        <time>2016-09-05T13:22:22.000Z</time>
      </trkpt>
      <trkpt lat="47.36735" lon="6.4752">
        <ele>321.201</ele>
        <time>2016-09-05T13:22:23.000Z</time>
      </trkpt>
      <trkpt lat="47.36736" lon="6.47517">
        <ele>320.5</ele>
        <time>2016-09-05T13:22:24.000Z</time>
      </trkpt>
      <trkpt lat="47.36737" lon="6.47513">
        <ele>318.825</ele>
        <time>2016-09-05T13:22:25.000Z</time>
      </trkpt>
      <trkpt lat="47.36738" lon="6.47508">
        <ele>318.358</ele>
        <time>2016-09-05T13:22:26.000Z</time>
      </trkpt>
      <trkpt lat="47.36739" lon="6.47502">
        <ele>318.982</ele>
        <time>2016-09-05T13:22:27.000Z</time>
      </trkpt>
      <trkpt lat="47.36739" lon="6.47495">
        <ele>317.644</ele>
        <time>2016-09-05T13:22:28.000Z</time>
      </trkpt>
      <trkpt lat="47.36739" lon="6.47485">
        <ele>316.985</ele>
        <time>2016-09-05T13:22:29.000Z</time>
      </trkpt>
      <trkpt lat="47.36739" lon="6.47477">
        <ele>316.926</ele>
        <time>2016-09-05T13:22:30.000Z</time>
      </trkpt>
      <trkpt lat="47.3674" lon="6.47469">
        <ele>316.447</ele>
        <time>2016-09-05T13:22:31.000Z</time>
      </trkpt>
      <trkpt lat="47.3674" lon="6.47461">
        <ele>315.034</ele>
        <time>2016-09-05T13:22:32.000Z</time>
      </trkpt>
      <trkpt lat="47.3674" lon="6.47452">
        <ele>315.357</ele>
        <time>2016-09-05T13:22:33.000Z</time>
      </trkpt>
      <trkpt lat="47.36741" lon="6.47443">
        <ele>313.323</ele>
        <time>2016-09-05T13:22:34.000Z</time>
      </trkpt>
      <trkpt lat="47.36742" lon="6.47434">
        <ele>313.965</ele>
        <time>2016-09-05T13:22:35.000Z</time>
      </trkpt>
      <trkpt lat="47.36744" lon="6.47426">
        <ele>314.407</ele>
        <time>2016-09-05T13:22:36.000Z</time>
      </trkpt>
      <trkpt lat="47.36746" lon="6.47419">
        <ele>314.216</ele>
        <time>2016-09-05T13:22:37.000Z</time>
      </trkpt>
      <trkpt lat="47.36747" lon="6.4741">
        <ele>314.766</ele>
        <time>2016-09-05T13:22:38.000Z</time>
      </trkpt>
      <trkpt lat="47.3675" lon="6.474">
        <ele>312.341</ele>
        <time>2016-09-05T13:22:39.000Z</time>
      </trkpt>
      <trkpt lat="47.36752" lon="6.47392">
        <ele>312.355</ele>
        <time>2016-09-05T13:22:40.000Z</time>
      </trkpt>
      <trkpt lat="47.36755" lon="6.47386">
        <ele>314.125</ele>
        <time>2016-09-05T13:22:41.000Z</time>
      </trkpt>
      <trkpt lat="47.36757" lon="6.47379">
        <ele>314.37</ele>
        <time>2016-09-05T13:22:42.000Z</time>
      </trkpt>
      <trkpt lat="47.36759" lon="6.47372">
        <ele>315.363</ele>
        <time>2016-09-05T13:22:43.000Z</time>
      </trkpt>
      <trkpt lat="47.36761" lon="6.47365">
        <ele>314.81</ele>
        <time>2016-09-05T13:22:44.000Z</time>
      </trkpt>
      <trkpt lat="47.36763" lon="6.47359">
        <ele>315.25</ele>
        <time>2016-09-05T13:22:45.000Z</time>
      </trkpt>
      <trkpt lat="47.36765" lon="6.47353">
        <ele>315.385</ele>
        <time>2016-09-05T13:22:46.000Z</time>
      </trkpt>
      <trkpt lat="47.36764" lon="6.47348">
        <ele>316.337</ele>
        <time>2016-09-05T13:22:47.000Z</time>
      </trkpt>
      <trkpt lat="47.36764" lon="6.47342">
        <ele>316.891</ele>
        <time>2016-09-05T13:22:48.000Z</time>
      </trkpt>
      <trkpt lat="47.36761" lon="6.47337">
        <ele>314.251</ele>
        <time>2016-09-05T13:22:49.000Z</time>
      </trkpt>
      <trkpt lat="47.36761" lon="6.47332">
        <ele>314.22</ele>
        <time>2016-09-05T13:22:50.000Z</time>
      </trkpt>
      <trkpt lat="47.3676" lon="6.47323">
        <ele>313.313</ele>
        <time>2016-09-05T13:22:51.000Z</time>
      </trkpt>
      <trkpt lat="47.36761" lon="6.47317">
        <ele>312.984</ele>
        <time>2016-09-05T13:22:52.000Z</time>
      </trkpt>
      <trkpt lat="47.3676" lon="6.47312">
        <ele>313.51</ele>
        <time>2016-09-05T13:22:53.000Z</time>
      </trkpt>
      <trkpt lat="47.36761" lon="6.47306">
        <ele>312.769</ele>
        <time>2016-09-05T13:22:54.000Z</time>
      </trkpt>
      <trkpt lat="47.36763" lon="6.47301">
        <ele>312.656</ele>
        <time>2016-09-05T13:22:55.000Z</time>
      </trkpt>
      <trkpt lat="47.36764" lon="6.47295">
        <ele>312.874</ele>
        <time>2016-09-05T13:22:56.000Z</time>
      </trkpt>
      <trkpt lat="47.36765" lon="6.4729">
        <ele>311.435</ele>
        <time>2016-09-05T13:22:57.000Z</time>
      </trkpt>
      <trkpt lat="47.36766" lon="6.47284">
        <ele>311.909</ele>
        <time>2016-09-05T13:22:58.000Z</time>
      </trkpt>
      <trkpt lat="47.36767" lon="6.47278">
        <ele>312.432</ele>
        <time>2016-09-05T13:22:59.000Z</time>
      </trkpt>
      <trkpt lat="47.36768" lon="6.47273">
        <ele>312.69</ele>
        <time>2016-09-05T13:23:00.000Z</time>
      </trkpt>
      <trkpt lat="47.36768" lon="6.47269">
        <ele>313.148</ele>
        <time>2016-09-05T13:23:01.000Z</time>
      </trkpt>
      <trkpt lat="47.36769" lon="6.47263">
        <ele>313.356</ele>
        <time>2016-09-05T13:23:02.000Z</time>
      </trkpt>
      <trkpt lat="47.36769" lon="6.47258">
        <ele>313.847</ele>
        <time>2016-09-05T13:23:03.000Z</time>
      </trkpt>
      <trkpt lat="47.3677" lon="6.47253">
        <ele>314.447</ele>
        <time>2016-09-05T13:23:04.000Z</time>
      </trkpt>
      <trkpt lat="47.36771" lon="6.47248">
        <ele>313.988</ele>
        <time>2016-09-05T13:23:05.000Z</time>
      </trkpt>
      <trkpt lat="47.36771" lon="6.47243">
        <ele>314.715</ele>
        <time>2016-09-05T13:23:06.000Z</time>
      </trkpt>
      <trkpt lat="47.36772" lon="6.47238">
        <ele>314.881</ele>
        <time>2016-09-05T13:23:07.000Z</time>
      </trkpt>
      <trkpt lat="47.36772" lon="6.47232">
        <ele>314.314</ele>
        <time>2016-09-05T13:23:08.000Z</time>
      </trkpt>
      <trkpt lat="47.36773" lon="6.47227">
        <ele>312.827</ele>
        <time>2016-09-05T13:23:09.000Z</time>
      </trkpt>
      <trkpt lat="47.36774" lon="6.47221">
        <ele>312.772</ele>
        <time>2016-09-05T13:23:10.000Z</time>
      </trkpt>
      <trkpt lat="47.36774" lon="6.47215">
        <ele>313.996</ele>
        <time>2016-09-05T13:23:11.000Z</time>
      </trkpt>
      <trkpt lat="47.36775" lon="6.47209">
        <ele>314.832</ele>
        <time>2016-09-05T13:23:12.000Z</time>
      </trkpt>
      <trkpt lat="47.36776" lon="6.47203">
        <ele>315.268</ele>
        <time>2016-09-05T13:23:13.000Z</time>
      </trkpt>
      <trkpt lat="47.36777" lon="6.47197">
        <ele>314.681</ele>
        <time>2016-09-05T13:23:14.000Z</time>
      </trkpt>
      <trkpt lat="47.36778" lon="6.47191">
        <ele>314.195</ele>
        <time>2016-09-05T13:23:15.000Z</time>
      </trkpt>
      <trkpt lat="47.36779" lon="6.47185">
        <ele>314.635</ele>
        <time>2016-09-05T13:23:16.000Z</time>
      </trkpt>
      <trkpt lat="47.36779" lon="6.47176">
        <ele>313.273</ele>
        <time>2016-09-05T13:23:17.000Z</time>
      </trkpt>
      <trkpt lat="47.3678" lon="6.47169">
        <ele>313.245</ele>
        <time>2016-09-05T13:23:18.000Z</time>
      </trkpt>
      <trkpt lat="47.36779" lon="6.47161">
        <ele>311.655</ele>
        <time>2016-09-05T13:23:19.000Z</time>
      </trkpt>
      <trkpt lat="47.36779" lon="6.47154">
        <ele>310.273</ele>
        <time>2016-09-05T13:23:20.000Z</time>
      </trkpt>
      <trkpt lat="47.3678" lon="6.47147">
        <ele>310.137</ele>
        <time>2016-09-05T13:23:21.000Z</time>
      </trkpt>
      <trkpt lat="47.36779" lon="6.47143">
        <ele>310.403</ele>
        <time>2016-09-05T13:23:22.000Z</time>
      </trkpt>
      <trkpt lat="47.3678" lon="6.47136">
        <ele>310.73</ele>
        <time>2016-09-05T13:23:23.000Z</time>
      </trkpt>
      <trkpt lat="47.3678" lon="6.4713">
        <ele>308.681</ele>
        <time>2016-09-05T13:23:24.000Z</time>
      </trkpt>
      <trkpt lat="47.36782" lon="6.4712">
        <ele>307.977</ele>
        <time>2016-09-05T13:23:25.000Z</time>
      </trkpt>
      <trkpt lat="47.36783" lon="6.47112">
        <ele>307.915</ele>
        <time>2016-09-05T13:23:26.000Z</time>
      </trkpt>
      <trkpt lat="47.36783" lon="6.47103">
        <ele>309.012</ele>
        <time>2016-09-05T13:23:27.000Z</time>
      </trkpt>
      <trkpt lat="47.36783" lon="6.47094">
        <ele>312.004</ele>
        <time>2016-09-05T13:23:28.000Z</time>
      </trkpt>
      <trkpt lat="47.36784" lon="6.47087">
        <ele>312.529</ele>
        <time>2016-09-05T13:23:29.000Z</time>
      </trkpt>
      <trkpt lat="47.36784" lon="6.47078">
        <ele>312.116</ele>
        <time>2016-09-05T13:23:30.000Z</time>
      </trkpt>
      <trkpt lat="47.36784" lon="6.4707">
        <ele>309.22</ele>
        <time>2016-09-05T13:23:31.000Z</time>
      </trkpt>
      <trkpt lat="47.36784" lon="6.4706">
        <ele>307.887</ele>
        <time>2016-09-05T13:23:32.000Z</time>
      </trkpt>
      <trkpt lat="47.36783" lon="6.47052">
        <ele>308.609</ele>
        <time>2016-09-05T13:23:33.000Z</time>
      </trkpt>
      <trkpt lat="47.36784" lon="6.47043">
        <ele>309.153</ele>
        <time>2016-09-05T13:23:34.000Z</time>
      </trkpt>
      <trkpt lat="47.36785" lon="6.47035">
        <ele>310.451</ele>
        <time>2016-09-05T13:23:35.000Z</time>
      </trkpt>
      <trkpt lat="47.36785" lon="6.47028">
        <ele>312.787</ele>
        <time>2016-09-05T13:23:36.000Z</time>
      </trkpt>
      <trkpt lat="47.36786" lon="6.47017">
        <ele>311.769</ele>
        <time>2016-09-05T13:23:37.000Z</time>
      </trkpt>
      <trkpt lat="47.36784" lon="6.4701">
        <ele>309.472</ele>
        <time>2016-09-05T13:23:38.000Z</time>
      </trkpt>
      <trkpt lat="47.36783" lon="6.47002">
        <ele>309.13</ele>
        <time>2016-09-05T13:23:39.000Z</time>
      </trkpt>
      <trkpt lat="47.36785" lon="6.4699">
        <ele>307.168</ele>
        <time>2016-09-05T13:23:40.000Z</time>
      </trkpt>
      <trkpt lat="47.36785" lon="6.46981">
        <ele>308.925</ele>
        <time>2016-09-05T13:23:41.000Z</time>
      </trkpt>
      <trkpt lat="47.36785" lon="6.46973">
        <ele>308.805</ele>
        <time>2016-09-05T13:23:42.000Z</time>
      </trkpt>
      <trkpt lat="47.36783" lon="6.46966">
        <ele>307.897</ele>
        <time>2016-09-05T13:23:43.000Z</time>
      </trkpt>
      <trkpt lat="47.36782" lon="6.46958">
        <ele>307.252</ele>
        <time>2016-09-05T13:23:44.000Z</time>
      </trkpt>
      <trkpt lat="47.36782" lon="6.46951">
        <ele>306.946</ele>
        <time>2016-09-05T13:23:45.000Z</time>
      </trkpt>
      <trkpt lat="47.36781" lon="6.46943">
        <ele>306.84</ele>
        <time>2016-09-05T13:23:46.000Z</time>
      </trkpt>
      <trkpt lat="47.36781" lon="6.46937">
        <ele>306.358</ele>
        <time>2016-09-05T13:23:47.000Z</time>
      </trkpt>
      <trkpt lat="47.3678" lon="6.46929">
        <ele>306.102</ele>
        <time>2016-09-05T13:23:48.000Z</time>
      </trkpt>
      <trkpt lat="47.36777" lon="6.46922">
        <ele>306.952</ele>
        <time>2016-09-05T13:23:49.000Z</time>
      </trkpt>
      <trkpt lat="47.36776" lon="6.46916">
        <ele>307.532</ele>
        <time>2016-09-05T13:23:50.000Z</time>
      </trkpt>
      <trkpt lat="47.36775" lon="6.46909">
        <ele>306.939</ele>
        <time>2016-09-05T13:23:51.000Z</time>
      </trkpt>
      <trkpt lat="47.36774" lon="6.46902">
        <ele>306.609</ele>
        <time>2016-09-05T13:23:52.000Z</time>
      </trkpt>
      <trkpt lat="47.36773" lon="6.46898">
        <ele>308.328</ele>
        <time>2016-09-05T13:23:53.000Z</time>
      </trkpt>
      <trkpt lat="47.36773" lon="6.46893">
        <ele>307.753</ele>
        <time>2016-09-05T13:23:54.000Z</time>
      </trkpt>
      <trkpt lat="47.36772" lon="6.46887">
        <ele>307.776</ele>
        <time>2016-09-05T13:23:55.000Z</time>
      </trkpt>
      <trkpt lat="47.36771" lon="6.46881">
        <ele>307.869</ele>
        <time>2016-09-05T13:23:56.000Z</time>
      </trkpt>
      <trkpt lat="47.3677" lon="6.46873">
        <ele>308.882</ele>
        <time>2016-09-05T13:23:57.000Z</time>
      </trkpt>
      <trkpt lat="47.36769" lon="6.46867">
        <ele>307.629</ele>
        <time>2016-09-05T13:23:58.000Z</time>
      </trkpt>
      <trkpt lat="47.36768" lon="6.4686">
        <ele>306.918</ele>
        <time>2016-09-05T13:23:59.000Z</time>
      </trkpt>
      <trkpt lat="47.36767" lon="6.46854">
        <ele>307.746</ele>
        <time>2016-09-05T13:24:00.000Z</time>
      </trkpt>
      <trkpt lat="47.36767" lon="6.46851">
        <ele>307.713</ele>
        <time>2016-09-05T13:24:01.000Z</time>
      </trkpt>
      <trkpt lat="47.36767" lon="6.46848">
        <ele>305.49</ele>
        <time>2016-09-05T13:24:02.000Z</time>
      </trkpt>
      <trkpt lat="47.36767" lon="6.46839">
        <ele>304.76</ele>
        <time>2016-09-05T13:24:03.000Z</time>
      </trkpt>
      <trkpt lat="47.36767" lon="6.46832">
        <ele>304.623</ele>
        <time>2016-09-05T13:24:04.000Z</time>
      </trkpt>
      <trkpt lat="47.36767" lon="6.46827">
        <ele>304.629</ele>
        <time>2016-09-05T13:24:05.000Z</time>
      </trkpt>
      <trkpt lat="47.36767" lon="6.46825">
        <ele>304.689</ele>
        <time>2016-09-05T13:24:06.000Z</time>
      </trkpt>
      <trkpt lat="47.36768" lon="6.46817">
        <ele>306.747</ele>
        <time>2016-09-05T13:24:07.000Z</time>
      </trkpt>
      <trkpt lat="47.36768" lon="6.46812">
        <ele>306.978</ele>
        <time>2016-09-05T13:24:08.000Z</time>
      </trkpt>
      <trkpt lat="47.36768" lon="6.46808">
        <ele>308.536</ele>
        <time>2016-09-05T13:24:09.000Z</time>
      </trkpt>
      <trkpt lat="47.36767" lon="6.46804">
        <ele>309.207</ele>
        <time>2016-09-05T13:24:10.000Z</time>
      </trkpt>
      <trkpt lat="47.36767" lon="6.46801">
        <ele>308.88</ele>
        <time>2016-09-05T13:24:11.000Z</time>
      </trkpt>
      <trkpt lat="47.36767" lon="6.46797">
        <ele>308.858</ele>
        <time>2016-09-05T13:24:12.000Z</time>
      </trkpt>
      <trkpt lat="47.36768" lon="6.46793">
        <ele>308.596</ele>
        <time>2016-09-05T13:24:13.000Z</time>
      </trkpt>
      <trkpt lat="47.36769" lon="6.46791">
        <ele>308.237</ele>
        <time>2016-09-05T13:24:14.000Z</time>
      </trkpt>
      <trkpt lat="47.3677" lon="6.46789">
        <ele>308.167</ele>
        <time>2016-09-05T13:24:15.000Z</time>
      </trkpt>
      <trkpt lat="47.36772" lon="6.46787">
        <ele>308.12</ele>
        <time>2016-09-05T13:24:16.000Z</time>
      </trkpt>
      <trkpt lat="47.36773" lon="6.46784">
        <ele>310.2</ele>
        <time>2016-09-05T13:24:17.000Z</time>
      </trkpt>
      <trkpt lat="47.36775" lon="6.46781">
        <ele>310.391</ele>
        <time>2016-09-05T13:24:18.000Z</time>
      </trkpt>
      <trkpt lat="47.36776" lon="6.46777">
        <ele>309.535</ele>
        <time>2016-09-05T13:24:19.000Z</time>
      </trkpt>
      <trkpt lat="47.36777" lon="6.46773">
        <ele>309.501</ele>
        <time>2016-09-05T13:24:20.000Z</time>
      </trkpt>
      <trkpt lat="47.36778" lon="6.46769">
        <ele>309.402</ele>
        <time>2016-09-05T13:24:21.000Z</time>
      </trkpt>
      <trkpt lat="47.36779" lon="6.46764">
        <ele>309.018</ele>
        <time>2016-09-05T13:24:22.000Z</time>
      </trkpt>
      <trkpt lat="47.36781" lon="6.46758">
        <ele>309.019</ele>
        <time>2016-09-05T13:24:23.000Z</time>
      </trkpt>
      <trkpt lat="47.36782" lon="6.46754">
        <ele>313.381</ele>
        <time>2016-09-05T13:24:24.000Z</time>
      </trkpt>
      <trkpt lat="47.36783" lon="6.46748">
        <ele>312.64</ele>
        <time>2016-09-05T13:24:25.000Z</time>
      </trkpt>
      <trkpt lat="47.36785" lon="6.46743">
        <ele>314.241</ele>
        <time>2016-09-05T13:24:26.000Z</time>
      </trkpt>
      <trkpt lat="47.36787" lon="6.46737">
        <ele>313.855</ele>
        <time>2016-09-05T13:24:27.000Z</time>
      </trkpt>
      <trkpt lat="47.3679" lon="6.46733">
        <ele>313.015</ele>
        <time>2016-09-05T13:24:28.000Z</time>
      </trkpt>
      <trkpt lat="47.36792" lon="6.46719">
        <ele>308.28</ele>
        <time>2016-09-05T13:24:29.000Z</time>
      </trkpt>
      <trkpt lat="47.36794" lon="6.46714">
        <ele>309.705</ele>
        <time>2016-09-05T13:24:30.000Z</time>
      </trkpt>
      <trkpt lat="47.36798" lon="6.46708">
        <ele>309.485</ele>
        <time>2016-09-05T13:24:31.000Z</time>
      </trkpt>
      <trkpt lat="47.36802" lon="6.46698">
        <ele>305.113</ele>
        <time>2016-09-05T13:24:32.000Z</time>
      </trkpt>
      <trkpt lat="47.36804" lon="6.46693">
        <ele>304.678</ele>
        <time>2016-09-05T13:24:33.000Z</time>
      </trkpt>
      <trkpt lat="47.36808" lon="6.46685">
        <ele>304.113</ele>
        <time>2016-09-05T13:24:34.000Z</time>
      </trkpt>
      <trkpt lat="47.36812" lon="6.46678">
        <ele>304.739</ele>
        <time>2016-09-05T13:24:35.000Z</time>
      </trkpt>
      <trkpt lat="47.36814" lon="6.46669">
        <ele>303.144</ele>
        <time>2016-09-05T13:24:36.000Z</time>
      </trkpt>
      <trkpt lat="47.36819" lon="6.46662">
        <ele>303.553</ele>
        <time>2016-09-05T13:24:37.000Z</time>
      </trkpt>
      <trkpt lat="47.36823" lon="6.46655">
        <ele>303.416</ele>
        <time>2016-09-05T13:24:38.000Z</time>
      </trkpt>
      <trkpt lat="47.36827" lon="6.46647">
        <ele>299.337</ele>
        <time>2016-09-05T13:24:39.000Z</time>
      </trkpt>
      <trkpt lat="47.36831" lon="6.46641">
        <ele>300.767</ele>
        <time>2016-09-05T13:24:40.000Z</time>
      </trkpt>
      <trkpt lat="47.36835" lon="6.46634">
        <ele>300.463</ele>
        <time>2016-09-05T13:24:41.000Z</time>
      </trkpt>
      <trkpt lat="47.36837" lon="6.46626">
        <ele>298.404</ele>
        <time>2016-09-05T13:24:42.000Z</time>
      </trkpt>
      <trkpt lat="47.36842" lon="6.46619">
        <ele>298.08</ele>
        <time>2016-09-05T13:24:43.000Z</time>
      </trkpt>
      <trkpt lat="47.36848" lon="6.46612">
        <ele>295.854</ele>
        <time>2016-09-05T13:24:44.000Z</time>
      </trkpt>
      <trkpt lat="47.3685" lon="6.46604">
        <ele>294.046</ele>
        <time>2016-09-05T13:24:45.000Z</time>
      </trkpt>
      <trkpt lat="47.36854" lon="6.46596">
        <ele>293.069</ele>
        <time>2016-09-05T13:24:46.000Z</time>
      </trkpt>
      <trkpt lat="47.36863" lon="6.46586">
        <ele>293.337</ele>
        <time>2016-09-05T13:24:47.000Z</time>
      </trkpt>
      <trkpt lat="47.36868" lon="6.46579">
        <ele>296.626</ele>
        <time>2016-09-05T13:24:48.000Z</time>
      </trkpt>
      <trkpt lat="47.36874" lon="6.46568">
        <ele>296.699</ele>
        <time>2016-09-05T13:24:49.000Z</time>
      </trkpt>
      <trkpt lat="47.3688" lon="6.4656">
        <ele>300.697</ele>
        <time>2016-09-05T13:24:50.000Z</time>
      </trkpt>
      <trkpt lat="47.36886" lon="6.46551">
        <ele>302.611</ele>
        <time>2016-09-05T13:24:51.000Z</time>
      </trkpt>
      <trkpt lat="47.36892" lon="6.4654">
        <ele>304.1</ele>
        <time>2016-09-05T13:24:52.000Z</time>
      </trkpt>
      <trkpt lat="47.36898" lon="6.46529">
        <ele>304.133</ele>
        <time>2016-09-05T13:24:53.000Z</time>
      </trkpt>
      <trkpt lat="47.36905" lon="6.46516">
        <ele>304.546</ele>
        <time>2016-09-05T13:24:54.000Z</time>
      </trkpt>
      <trkpt lat="47.36911" lon="6.46504">
        <ele>303.574</ele>
        <time>2016-09-05T13:24:55.000Z</time>
      </trkpt>
      <trkpt lat="47.36918" lon="6.46495">
        <ele>301.794</ele>
        <time>2016-09-05T13:24:56.000Z</time>
      </trkpt>
      <trkpt lat="47.36924" lon="6.46489">
        <ele>299.184</ele>
        <time>2016-09-05T13:24:57.000Z</time>
      </trkpt>
      <trkpt lat="47.36931" lon="6.46482">
        <ele>299.414</ele>
        <time>2016-09-05T13:24:58.000Z</time>
      </trkpt>
      <trkpt lat="47.36938" lon="6.46476">
        <ele>300.676</ele>
        <time>2016-09-05T13:24:59.000Z</time>
      </trkpt>
      <trkpt lat="47.36945" lon="6.46469">
        <ele>300.005</ele>
        <time>2016-09-05T13:25:00.000Z</time>
      </trkpt>
      <trkpt lat="47.36952" lon="6.46463">
        <ele>300.335</ele>
        <time>2016-09-05T13:25:01.000Z</time>
      </trkpt>
      <trkpt lat="47.3696" lon="6.46457">
        <ele>299.634</ele>
        <time>2016-09-05T13:25:02.000Z</time>
      </trkpt>
      <trkpt lat="47.36967" lon="6.46452">
        <ele>300.112</ele>
        <time>2016-09-05T13:25:03.000Z</time>
      </trkpt>
      <trkpt lat="47.36974" lon="6.46447">
        <ele>298.831</ele>
        <time>2016-09-05T13:25:04.000Z</time>
      </trkpt>
      <trkpt lat="47.36982" lon="6.46441">
        <ele>299.328</ele>
        <time>2016-09-05T13:25:05.000Z</time>
      </trkpt>
      <trkpt lat="47.36991" lon="6.46436">
        <ele>296.56</ele>
        <time>2016-09-05T13:25:06.000Z</time>
      </trkpt>
      <trkpt lat="47.37" lon="6.46431">
        <ele>296.465</ele>
        <time>2016-09-05T13:25:07.000Z</time>
      </trkpt>
      <trkpt lat="47.37007" lon="6.46426">
        <ele>296.08</ele>
        <time>2016-09-05T13:25:08.000Z</time>
      </trkpt>
      <trkpt lat="47.37016" lon="6.46421">
        <ele>294.376</ele>
        <time>2016-09-05T13:25:09.000Z</time>
      </trkpt>
      <trkpt lat="47.37024" lon="6.46417">
        <ele>293.701</ele>
        <time>2016-09-05T13:25:10.000Z</time>
      </trkpt>
      <trkpt lat="47.37029" lon="6.46412">
        <ele>294.905</ele>
        <time>2016-09-05T13:25:11.000Z</time>
      </trkpt>
      <trkpt lat="47.37035" lon="6.46407">
        <ele>295.866</ele>
        <time>2016-09-05T13:25:12.000Z</time>
      </trkpt>
      <trkpt lat="47.37043" lon="6.46404">
        <ele>295.51</ele>
        <time>2016-09-05T13:25:13.000Z</time>
      </trkpt>
      <trkpt lat="47.37049" lon="6.46398">
        <ele>294.902</ele>
        <time>2016-09-05T13:25:14.000Z</time>
      </trkpt>
      <trkpt lat="47.37056" lon="6.46393">
        <ele>293.011</ele>
        <time>2016-09-05T13:25:15.000Z</time>
      </trkpt>
      <trkpt lat="47.37063" lon="6.46389">
        <ele>292.847</ele>
        <time>2016-09-05T13:25:16.000Z</time>
      </trkpt>
      <trkpt lat="47.37071" lon="6.4638">
        <ele>294.282</ele>
        <time>2016-09-05T13:25:17.000Z</time>
      </trkpt>
      <trkpt lat="47.37078" lon="6.46374">
        <ele>294.157</ele>
        <time>2016-09-05T13:25:18.000Z</time>
      </trkpt>
      <trkpt lat="47.37082" lon="6.46369">
        <ele>294.119</ele>
        <time>2016-09-05T13:25:19.000Z</time>
      </trkpt>
      <trkpt lat="47.37089" lon="6.46362">
        <ele>294.699</ele>
        <time>2016-09-05T13:25:20.000Z</time>
      </trkpt>
      <trkpt lat="47.37094" lon="6.46354">
        <ele>294.959</ele>
        <time>2016-09-05T13:25:21.000Z</time>
      </trkpt>
      <trkpt lat="47.371" lon="6.4635">
        <ele>293.255</ele>
        <time>2016-09-05T13:25:22.000Z</time>
      </trkpt>
      <trkpt lat="47.37108" lon="6.46343">
        <ele>291.591</ele>
        <time>2016-09-05T13:25:23.000Z</time>
      </trkpt>
      <trkpt lat="47.37114" lon="6.46337">
        <ele>289.422</ele>
        <time>2016-09-05T13:25:24.000Z</time>
      </trkpt>
      <trkpt lat="47.37119" lon="6.46326">
        <ele>289.668</ele>
        <time>2016-09-05T13:25:25.000Z</time>
      </trkpt>
      <trkpt lat="47.37124" lon="6.46318">
        <ele>289.875</ele>
        <time>2016-09-05T13:25:26.000Z</time>
      </trkpt>
      <trkpt lat="47.37127" lon="6.46309">
        <ele>289.576</ele>
        <time>2016-09-05T13:25:27.000Z</time>
      </trkpt>
      <trkpt lat="47.37131" lon="6.46301">
        <ele>289.49</ele>
        <time>2016-09-05T13:25:28.000Z</time>
      </trkpt>
      <trkpt lat="47.37136" lon="6.46292">
        <ele>287.865</ele>
        <time>2016-09-05T13:25:29.000Z</time>
      </trkpt>
      <trkpt lat="47.37139" lon="6.46284">
        <ele>287.922</ele>
        <time>2016-09-05T13:25:30.000Z</time>
      </trkpt>
      <trkpt lat="47.37141" lon="6.46277">
        <ele>286.98</ele>
        <time>2016-09-05T13:25:31.000Z</time>
      </trkpt>
      <trkpt lat="47.37144" lon="6.46269">
        <ele>286.676</ele>
        <time>2016-09-05T13:25:32.000Z</time>
      </trkpt>
      <trkpt lat="47.37146" lon="6.46263">
        <ele>285.865</ele>
        <time>2016-09-05T13:25:33.000Z</time>
      </trkpt>
      <trkpt lat="47.37149" lon="6.46255">
        <ele>285.084</ele>
        <time>2016-09-05T13:25:34.000Z</time>
      </trkpt>
      <trkpt lat="47.37151" lon="6.46247">
        <ele>285.1</ele>
        <time>2016-09-05T13:25:35.000Z</time>
      </trkpt>
      <trkpt lat="47.3715" lon="6.46243">
        <ele>284.621</ele>
        <time>2016-09-05T13:25:36.000Z</time>
      </trkpt>
      <trkpt lat="47.37152" lon="6.46237">
        <ele>284.921</ele>
        <time>2016-09-05T13:25:37.000Z</time>
      </trkpt>
      <trkpt lat="47.37156" lon="6.46228">
        <ele>285.98</ele>
        <time>2016-09-05T13:25:38.000Z</time>
      </trkpt>
      <trkpt lat="47.37157" lon="6.46224">
        <ele>287.102</ele>
        <time>2016-09-05T13:25:39.000Z</time>
      </trkpt>
      <trkpt lat="47.37159" lon="6.46217">
        <ele>287.515</ele>
        <time>2016-09-05T13:25:40.000Z</time>
      </trkpt>
      <trkpt lat="47.37161" lon="6.46214">
        <ele>285.819</ele>
        <time>2016-09-05T13:25:41.000Z</time>
      </trkpt>
      <trkpt lat="47.37163" lon="6.46208">
        <ele>285.902</ele>
        <time>2016-09-05T13:25:42.000Z</time>
      </trkpt>
      <trkpt lat="47.37166" lon="6.46202">
        <ele>286.283</ele>
        <time>2016-09-05T13:25:43.000Z</time>
      </trkpt>
      <trkpt lat="47.37167" lon="6.46195">
        <ele>285.888</ele>
        <time>2016-09-05T13:25:44.000Z</time>
      </trkpt>
      <trkpt lat="47.37169" lon="6.46191">
        <ele>286.728</ele>
        <time>2016-09-05T13:25:45.000Z</time>
      </trkpt>
      <trkpt lat="47.37171" lon="6.46186">
        <ele>286.87</ele>
        <time>2016-09-05T13:25:46.000Z</time>
      </trkpt>
      <trkpt lat="47.37175" lon="6.46176">
        <ele>287.047</ele>
        <time>2016-09-05T13:25:47.000Z</time>
      </trkpt>
      <trkpt lat="47.37179" lon="6.46169">
        <ele>286.35</ele>
        <time>2016-09-05T13:25:48.000Z</time>
      </trkpt>
      <trkpt lat="47.37181" lon="6.46163">
        <ele>286.307</ele>
        <time>2016-09-05T13:25:49.000Z</time>
      </trkpt>
      <trkpt lat="47.37185" lon="6.46152">
        <ele>285.199</ele>
        <time>2016-09-05T13:25:50.000Z</time>
      </trkpt>
      <trkpt lat="47.37189" lon="6.46145">
        <ele>285.238</ele>
        <time>2016-09-05T13:25:51.000Z</time>
      </trkpt>
      <trkpt lat="47.37192" lon="6.46139">
        <ele>285.29</ele>
        <time>2016-09-05T13:25:52.000Z</time>
      </trkpt>
      <trkpt lat="47.37193" lon="6.46133">
        <ele>285.705</ele>
        <time>2016-09-05T13:25:53.000Z</time>
      </trkpt>
      <trkpt lat="47.37196" lon="6.46126">
        <ele>285.613</ele>
        <time>2016-09-05T13:25:54.000Z</time>
      </trkpt>
      <trkpt lat="47.372" lon="6.46117">
        <ele>284.489</ele>
        <time>2016-09-05T13:25:55.000Z</time>
      </trkpt>
      <trkpt lat="47.37204" lon="6.46106">
        <ele>283.321</ele>
        <time>2016-09-05T13:25:56.000Z</time>
      </trkpt>
      <trkpt lat="47.37209" lon="6.46097">
        <ele>283.968</ele>
        <time>2016-09-05T13:25:57.000Z</time>
      </trkpt>
      <trkpt lat="47.37215" lon="6.46086">
        <ele>283.037</ele>
        <time>2016-09-05T13:25:58.000Z</time>
      </trkpt>
      <trkpt lat="47.37219" lon="6.46077">
        <ele>282.843</ele>
        <time>2016-09-05T13:25:59.000Z</time>
      </trkpt>
      <trkpt lat="47.37224" lon="6.46068">
        <ele>283.545</ele>
        <time>2016-09-05T13:26:00.000Z</time>
      </trkpt>
      <trkpt lat="47.37229" lon="6.4606">
        <ele>282.003</ele>
        <time>2016-09-05T13:26:01.000Z</time>
      </trkpt>
      <trkpt lat="47.37235" lon="6.4605">
        <ele>282.747</ele>
        <time>2016-09-05T13:26:02.000Z</time>
      </trkpt>
      <trkpt lat="47.37238" lon="6.46042">
        <ele>284.626</ele>
        <time>2016-09-05T13:26:03.000Z</time>
      </trkpt>
      <trkpt lat="47.37242" lon="6.46033">
        <ele>284.365</ele>
        <time>2016-09-05T13:26:04.000Z</time>
      </trkpt>
      <trkpt lat="47.37247" lon="6.46023">
        <ele>284.978</ele>
        <time>2016-09-05T13:26:05.000Z</time>
      </trkpt>
      <trkpt lat="47.37252" lon="6.46015">
        <ele>283.036</ele>
        <time>2016-09-05T13:26:06.000Z</time>
      </trkpt>
      <trkpt lat="47.37255" lon="6.46006">
        <ele>282.926</ele>
        <time>2016-09-05T13:26:07.000Z</time>
      </trkpt>
      <trkpt lat="47.37258" lon="6.46">
        <ele>282.194</ele>
        <time>2016-09-05T13:26:08.000Z</time>
      </trkpt>
      <trkpt lat="47.37262" lon="6.45992">
        <ele>281.576</ele>
        <time>2016-09-05T13:26:09.000Z</time>
      </trkpt>
      <trkpt lat="47.37265" lon="6.45986">
        <ele>281.3</ele>
        <time>2016-09-05T13:26:10.000Z</time>
      </trkpt>
      <trkpt lat="47.37269" lon="6.45982">
        <ele>282.54</ele>
        <time>2016-09-05T13:26:11.000Z</time>
      </trkpt>
      <trkpt lat="47.37274" lon="6.45975">
        <ele>282.782</ele>
        <time>2016-09-05T13:26:12.000Z</time>
      </trkpt>
      <trkpt lat="47.37281" lon="6.45968">
        <ele>282.313</ele>
        <time>2016-09-05T13:26:13.000Z</time>
      </trkpt>
      <trkpt lat="47.37285" lon="6.45963">
        <ele>282.195</ele>
        <time>2016-09-05T13:26:14.000Z</time>
      </trkpt>
      <trkpt lat="47.37289" lon="6.45958">
        <ele>282.313</ele>
        <time>2016-09-05T13:26:15.000Z</time>
      </trkpt>
      <trkpt lat="47.37294" lon="6.45955">
        <ele>281.576</ele>
        <time>2016-09-05T13:26:16.000Z</time>
      </trkpt>
      <trkpt lat="47.373" lon="6.45951">
        <ele>279.758</ele>
        <time>2016-09-05T13:26:17.000Z</time>
      </trkpt>
      <trkpt lat="47.37305" lon="6.45948">
        <ele>279.366</ele>
        <time>2016-09-05T13:26:18.000Z</time>
      </trkpt>
      <trkpt lat="47.37311" lon="6.45946">
        <ele>278.692</ele>
        <time>2016-09-05T13:26:19.000Z</time>
      </trkpt>
      <trkpt lat="47.37316" lon="6.45943">
        <ele>279.07</ele>
        <time>2016-09-05T13:26:20.000Z</time>
      </trkpt>
      <trkpt lat="47.37322" lon="6.4594">
        <ele>278.793</ele>
        <time>2016-09-05T13:26:21.000Z</time>
      </trkpt>
      <trkpt lat="47.37327" lon="6.45937">
        <ele>279.466</ele>
        <time>2016-09-05T13:26:22.000Z</time>
      </trkpt>
      <trkpt lat="47.37331" lon="6.45934">
        <ele>279.233</ele>
        <time>2016-09-05T13:26:23.000Z</time>
      </trkpt>
      <trkpt lat="47.37336" lon="6.45934">
        <ele>278.423</ele>
        <time>2016-09-05T13:26:24.000Z</time>
      </trkpt>
      <trkpt lat="47.37339" lon="6.4593">
        <ele>276.984</ele>
        <time>2016-09-05T13:26:25.000Z</time>
      </trkpt>
      <trkpt lat="47.37344" lon="6.45928">
        <ele>274.302</ele>
        <time>2016-09-05T13:26:26.000Z</time>
      </trkpt>
      <trkpt lat="47.3735" lon="6.45927">
        <ele>272.402</ele>
        <time>2016-09-05T13:26:27.000Z</time>
      </trkpt>
      <trkpt lat="47.37353" lon="6.45922">
        <ele>270.912</ele>
        <time>2016-09-05T13:26:28.000Z</time>
      </trkpt>
      <trkpt lat="47.37357" lon="6.45917">
        <ele>268.191</ele>
        <time>2016-09-05T13:26:29.000Z</time>
      </trkpt>
      <trkpt lat="47.37359" lon="6.45913">
        <ele>268.148</ele>
        <time>2016-09-05T13:26:30.000Z</time>
      </trkpt>
      <trkpt lat="47.3736" lon="6.45908">
        <ele>267.517</ele>
        <time>2016-09-05T13:26:31.000Z</time>
      </trkpt>
      <trkpt lat="47.37361" lon="6.45905">
        <ele>267.72</ele>
        <time>2016-09-05T13:26:32.000Z</time>
      </trkpt>
      <trkpt lat="47.37362" lon="6.45903">
        <ele>267.697</ele>
        <time>2016-09-05T13:26:33.000Z</time>
      </trkpt>
      <trkpt lat="47.37362" lon="6.45903">
        <ele>268.742</ele>
        <time>2016-09-05T13:26:34.000Z</time>
      </trkpt>
      <trkpt lat="47.3736" lon="6.45903">
        <ele>268.632</ele>
        <time>2016-09-05T13:26:35.000Z</time>
      </trkpt>
      <trkpt lat="47.3736" lon="6.45903">
        <ele>269.296</ele>
        <time>2016-09-05T13:26:36.000Z</time>
      </trkpt>
      <trkpt lat="47.3736" lon="6.45903">
        <ele>269.49</ele>
        <time>2016-09-05T13:26:37.000Z</time>
      </trkpt>
      <trkpt lat="47.3736" lon="6.45903">
        <ele>269.745</ele>
        <time>2016-09-05T13:26:38.000Z</time>
      </trkpt>
      <trkpt lat="47.3736" lon="6.45903">
        <ele>269.639</ele>
        <time>2016-09-05T13:26:39.000Z</time>
      </trkpt>
      <trkpt lat="47.3736" lon="6.45903">
        <ele>269.108</ele>
        <time>2016-09-05T13:26:40.000Z</time>
      </trkpt>
      <trkpt lat="47.3736" lon="6.45903">
        <ele>269.281</ele>
        <time>2016-09-05T13:26:41.000Z</time>
      </trkpt>
      <trkpt lat="47.3736" lon="6.45903">
        <ele>269.786</ele>
        <time>2016-09-05T13:26:42.000Z</time>
      </trkpt>
      <trkpt lat="47.3736" lon="6.45903">
        <ele>269.63</ele>
        <time>2016-09-05T13:26:43.000Z</time>
      </trkpt>
      <trkpt lat="47.3736" lon="6.45903">
        <ele>269.847</ele>
        <time>2016-09-05T13:26:44.000Z</time>
      </trkpt>
      <trkpt lat="47.3736" lon="6.45903">
        <ele>270.44</ele>
        <time>2016-09-05T13:26:45.000Z</time>
      </trkpt>
      <trkpt lat="47.3736" lon="6.45903">
        <ele>270.815</ele>
        <time>2016-09-05T13:26:46.000Z</time>
      </trkpt>
      <trkpt lat="47.3736" lon="6.45903">
        <ele>270.743</ele>
        <time>2016-09-05T13:26:47.000Z</time>
      </trkpt>
      <trkpt lat="47.3736" lon="6.45903">
        <ele>270.59</ele>
        <time>2016-09-05T13:26:48.000Z</time>
      </trkpt>
      <trkpt lat="47.3736" lon="6.45903">
        <ele>271.165</ele>
        <time>2016-09-05T13:26:49.000Z</time>
      </trkpt>
      <trkpt lat="47.3736" lon="6.45903">
        <ele>271.638</ele>
        <time>2016-09-05T13:26:50.000Z</time>
      </trkpt>
      <trkpt lat="47.3736" lon="6.45903">
        <ele>272.184</ele>
        <time>2016-09-05T13:26:51.000Z</time>
      </trkpt>
      <trkpt lat="47.3736" lon="6.45905">
        <ele>272.625</ele>
        <time>2016-09-05T13:26:52.000Z</time>
      </trkpt>
      <trkpt lat="47.3736" lon="6.45905">
        <ele>273.056</ele>
        <time>2016-09-05T13:26:53.000Z</time>
      </trkpt>
      <trkpt lat="47.3736" lon="6.45905">
        <ele>273.768</ele>
        <time>2016-09-05T13:26:54.000Z</time>
      </trkpt>
      <trkpt lat="47.3736" lon="6.45905">
        <ele>273.654</ele>
        <time>2016-09-05T13:26:55.000Z</time>
      </trkpt>
      <trkpt lat="47.37359" lon="6.45904">
        <ele>273.57</ele>
        <time>2016-09-05T13:26:56.000Z</time>
      </trkpt>
      <trkpt lat="47.37359" lon="6.45904">
        <ele>273.353</ele>
        <time>2016-09-05T13:26:57.000Z</time>
      </trkpt>
      <trkpt lat="47.37358" lon="6.45905">
        <ele>273.402</ele>
        <time>2016-09-05T13:26:58.000Z</time>
      </trkpt>
      <trkpt lat="47.37358" lon="6.45905">
        <ele>273.178</ele>
        <time>2016-09-05T13:26:59.000Z</time>
      </trkpt>
      <trkpt lat="47.37358" lon="6.45905">
        <ele>273.343</ele>
        <time>2016-09-05T13:27:00.000Z</time>
      </trkpt>
      <trkpt lat="47.37358" lon="6.45906">
        <ele>273.087</ele>
        <time>2016-09-05T13:27:01.000Z</time>
      </trkpt>
      <trkpt lat="47.37358" lon="6.45906">
        <ele>270.61</ele>
        <time>2016-09-05T13:27:02.000Z</time>
      </trkpt>
      <trkpt lat="47.37356" lon="6.45906">
        <ele>270.36</ele>
        <time>2016-09-05T13:27:03.000Z</time>
      </trkpt>
      <trkpt lat="47.37356" lon="6.45906">
        <ele>270.511</ele>
        <time>2016-09-05T13:27:04.000Z</time>
      </trkpt>
      <trkpt lat="47.37356" lon="6.45906">
        <ele>271.72</ele>
        <time>2016-09-05T13:27:05.000Z</time>
      </trkpt>
      <trkpt lat="47.37356" lon="6.45906">
        <ele>272.844</ele>
        <time>2016-09-05T13:27:06.000Z</time>
      </trkpt>
      <trkpt lat="47.37356" lon="6.45906">
        <ele>272.836</ele>
        <time>2016-09-05T13:27:07.000Z</time>
      </trkpt>
      <trkpt lat="47.37356" lon="6.45906">
        <ele>272.758</ele>
        <time>2016-09-05T13:27:08.000Z</time>
      </trkpt>
      <trkpt lat="47.37356" lon="6.45906">
        <ele>273.19</ele>
        <time>2016-09-05T13:27:09.000Z</time>
      </trkpt>
      <trkpt lat="47.37356" lon="6.45906">
        <ele>273.836</ele>
        <time>2016-09-05T13:27:10.000Z</time>
      </trkpt>
      <trkpt lat="47.37358" lon="6.45906">
        <ele>274.147</ele>
        <time>2016-09-05T13:27:11.000Z</time>
      </trkpt>
      <trkpt lat="47.37358" lon="6.45906">
        <ele>274.226</ele>
        <time>2016-09-05T13:27:12.000Z</time>
      </trkpt>
      <trkpt lat="47.37358" lon="6.45906">
        <ele>273.756</ele>
        <time>2016-09-05T13:27:13.000Z</time>
      </trkpt>
      <trkpt lat="47.37358" lon="6.45906">
        <ele>276.376</ele>
        <time>2016-09-05T13:27:14.000Z</time>
      </trkpt>
      <trkpt lat="47.37358" lon="6.45906">
        <ele>277.168</ele>
        <time>2016-09-05T13:27:15.000Z</time>
      </trkpt>
      <trkpt lat="47.37356" lon="6.45906">
        <ele>275.271</ele>
        <time>2016-09-05T13:27:16.000Z</time>
      </trkpt>
      <trkpt lat="47.37356" lon="6.45906">
        <ele>272.911</ele>
        <time>2016-09-05T13:27:17.000Z</time>
      </trkpt>
      <trkpt lat="47.37356" lon="6.45906">
        <ele>272.922</ele>
        <time>2016-09-05T13:27:18.000Z</time>
      </trkpt>
      <trkpt lat="47.37356" lon="6.45906">
        <ele>275.609</ele>
        <time>2016-09-05T13:27:19.000Z</time>
      </trkpt>
      <trkpt lat="47.37356" lon="6.45908">
        <ele>275.178</ele>
        <time>2016-09-05T13:27:20.000Z</time>
      </trkpt>
      <trkpt lat="47.37356" lon="6.45908">
        <ele>275.621</ele>
        <time>2016-09-05T13:27:21.000Z</time>
      </trkpt>
      <trkpt lat="47.37356" lon="6.45908">
        <ele>275.774</ele>
        <time>2016-09-05T13:27:22.000Z</time>
      </trkpt>
      <trkpt lat="47.37357" lon="6.45907">
        <ele>275.978</ele>
        <time>2016-09-05T13:27:23.000Z</time>
      </trkpt>
      <trkpt lat="47.37357" lon="6.45907">
        <ele>275.806</ele>
        <time>2016-09-05T13:27:24.000Z</time>
      </trkpt>
      <trkpt lat="47.37358" lon="6.45906">
        <ele>275.491</ele>
        <time>2016-09-05T13:27:25.000Z</time>
      </trkpt>
      <trkpt lat="47.37358" lon="6.45905">
        <ele>276.108</ele>
        <time>2016-09-05T13:27:26.000Z</time>
      </trkpt>
      <trkpt lat="47.37359" lon="6.45905">
        <ele>277.003</ele>
        <time>2016-09-05T13:27:27.000Z</time>
      </trkpt>
      <trkpt lat="47.37359" lon="6.45905">
        <ele>277.239</ele>
        <time>2016-09-05T13:27:28.000Z</time>
      </trkpt>
      <trkpt lat="47.37359" lon="6.45905">
        <ele>275.93</ele>
        <time>2016-09-05T13:27:29.000Z</time>
      </trkpt>
      <trkpt lat="47.37359" lon="6.45905">
        <ele>277.325</ele>
        <time>2016-09-05T13:27:30.000Z</time>
      </trkpt>
      <trkpt lat="47.37359" lon="6.45905">
        <ele>278.176</ele>
        <time>2016-09-05T13:27:31.000Z</time>
      </trkpt>
      <trkpt lat="47.37359" lon="6.45905">
        <ele>277.691</ele>
        <time>2016-09-05T13:27:32.000Z</time>
      </trkpt>
      <trkpt lat="47.37359" lon="6.45905">
        <ele>277.991</ele>
        <time>2016-09-05T13:27:33.000Z</time>
      </trkpt>
      <trkpt lat="47.37359" lon="6.45905">
        <ele>278.339</ele>
        <time>2016-09-05T13:27:34.000Z</time>
      </trkpt>
      <trkpt lat="47.37359" lon="6.45905">
        <ele>279.391</ele>
        <time>2016-09-05T13:27:35.000Z</time>
      </trkpt>
      <trkpt lat="47.3736" lon="6.45906">
        <ele>279.849</ele>
        <time>2016-09-05T13:27:36.000Z</time>
      </trkpt>
      <trkpt lat="47.3736" lon="6.45906">
        <ele>279.81</ele>
        <time>2016-09-05T13:27:37.000Z</time>
      </trkpt>
      <trkpt lat="47.3736" lon="6.45906">
        <ele>280.033</ele>
        <time>2016-09-05T13:27:38.000Z</time>
      </trkpt>
      <trkpt lat="47.3736" lon="6.45907">
        <ele>278.047</ele>
        <time>2016-09-05T13:27:39.000Z</time>
      </trkpt>
      <trkpt lat="47.3736" lon="6.45907">
        <ele>277.684</ele>
        <time>2016-09-05T13:27:40.000Z</time>
      </trkpt>
      <trkpt lat="47.3736" lon="6.45907">
        <ele>277.369</ele>
        <time>2016-09-05T13:27:41.000Z</time>
      </trkpt>
      <trkpt lat="47.37359" lon="6.45908">
        <ele>278.241</ele>
        <time>2016-09-05T13:27:42.000Z</time>
      </trkpt>
      <trkpt lat="47.37359" lon="6.45909">
        <ele>278.298</ele>
        <time>2016-09-05T13:27:43.000Z</time>
      </trkpt>
      <trkpt lat="47.37359" lon="6.4591">
        <ele>276.301</ele>
        <time>2016-09-05T13:27:44.000Z</time>
      </trkpt>
      <trkpt lat="47.37359" lon="6.4591">
        <ele>272.036</ele>
        <time>2016-09-05T13:27:45.000Z</time>
      </trkpt>
      <trkpt lat="47.37359" lon="6.4591">
        <ele>269.415</ele>
        <time>2016-09-05T13:27:46.000Z</time>
      </trkpt>
      <trkpt lat="47.37358" lon="6.45911">
        <ele>269.38</ele>
        <time>2016-09-05T13:27:47.000Z</time>
      </trkpt>
      <trkpt lat="47.37358" lon="6.45911">
        <ele>268.815</ele>
        <time>2016-09-05T13:27:48.000Z</time>
      </trkpt>
      <trkpt lat="47.37358" lon="6.45911">
        <ele>268.922</ele>
        <time>2016-09-05T13:27:49.000Z</time>
      </trkpt>
      <trkpt lat="47.37358" lon="6.45911">
        <ele>269.205</ele>
        <time>2016-09-05T13:27:50.000Z</time>
      </trkpt>
      <trkpt lat="47.37358" lon="6.45911">
        <ele>269.693</ele>
        <time>2016-09-05T13:27:51.000Z</time>
      </trkpt>
      <trkpt lat="47.37358" lon="6.45911">
        <ele>270.578</ele>
        <time>2016-09-05T13:27:52.000Z</time>
      </trkpt>
      <trkpt lat="47.37361" lon="6.45914">
        <ele>269.713</ele>
        <time>2016-09-05T13:27:53.000Z</time>
      </trkpt>
      <trkpt lat="47.37362" lon="6.45914">
        <ele>269.365</ele>
        <time>2016-09-05T13:27:54.000Z</time>
      </trkpt>
      <trkpt lat="47.37362" lon="6.45914">
        <ele>267.035</ele>
        <time>2016-09-05T13:27:55.000Z</time>
      </trkpt>
      <trkpt lat="47.37362" lon="6.45914">
        <ele>266.896</ele>
        <time>2016-09-05T13:27:56.000Z</time>
      </trkpt>
      <trkpt lat="47.37362" lon="6.45914">
        <ele>267.871</ele>
        <time>2016-09-05T13:27:57.000Z</time>
      </trkpt>
      <trkpt lat="47.37363" lon="6.45914">
        <ele>268.292</ele>
        <time>2016-09-05T13:27:58.000Z</time>
      </trkpt>
      <trkpt lat="47.37363" lon="6.45914">
        <ele>267.315</ele>
        <time>2016-09-05T13:27:59.000Z</time>
      </trkpt>
      <trkpt lat="47.37363" lon="6.45914">
        <ele>267.366</ele>
        <time>2016-09-05T13:28:00.000Z</time>
      </trkpt>
      <trkpt lat="47.37364" lon="6.45913">
        <ele>266.432</ele>
        <time>2016-09-05T13:28:01.000Z</time>
      </trkpt>
      <trkpt lat="47.37364" lon="6.45912">
        <ele>266.946</ele>
        <time>2016-09-05T13:28:02.000Z</time>
      </trkpt>
      <trkpt lat="47.37363" lon="6.4591">
        <ele>266.293</ele>
        <time>2016-09-05T13:28:03.000Z</time>
      </trkpt>
      <trkpt lat="47.37363" lon="6.45907">
        <ele>268.129</ele>
        <time>2016-09-05T13:28:04.000Z</time>
      </trkpt>
      <trkpt lat="47.37362" lon="6.45905">
        <ele>267.926</ele>
        <time>2016-09-05T13:28:05.000Z</time>
      </trkpt>
      <trkpt lat="47.37361" lon="6.45903">
        <ele>267.221</ele>
        <time>2016-09-05T13:28:06.000Z</time>
      </trkpt>
      <trkpt lat="47.37361" lon="6.45903">
        <ele>269.42</ele>
        <time>2016-09-05T13:28:07.000Z</time>
      </trkpt>
      <trkpt lat="47.37361" lon="6.45903">
        <ele>269.276</ele>
        <time>2016-09-05T13:28:08.000Z</time>
      </trkpt>
      <trkpt lat="47.37361" lon="6.45903">
        <ele>267.902</ele>
        <time>2016-09-05T13:28:09.000Z</time>
      </trkpt>
      <trkpt lat="47.37361" lon="6.45903">
        <ele>265.809</ele>
        <time>2016-09-05T13:28:10.000Z</time>
      </trkpt>
      <trkpt lat="47.37361" lon="6.45903">
        <ele>264.33</ele>
        <time>2016-09-05T13:28:11.000Z</time>
      </trkpt>
      <trkpt lat="47.37361" lon="6.45903">
        <ele>263.493</ele>
        <time>2016-09-05T13:28:12.000Z</time>
      </trkpt>
      <trkpt lat="47.37363" lon="6.45899">
        <ele>263.243</ele>
        <time>2016-09-05T13:28:13.000Z</time>
      </trkpt>
      <trkpt lat="47.37363" lon="6.45899">
        <ele>263.91</ele>
        <time>2016-09-05T13:28:14.000Z</time>
      </trkpt>
      <trkpt lat="47.37363" lon="6.45899">
        <ele>263.844</ele>
        <time>2016-09-05T13:28:15.000Z</time>
      </trkpt>
      <trkpt lat="47.37363" lon="6.45899">
        <ele>263.551</ele>
        <time>2016-09-05T13:28:16.000Z</time>
      </trkpt>
      <trkpt lat="47.37363" lon="6.45899">
        <ele>263.086</ele>
        <time>2016-09-05T13:28:17.000Z</time>
      </trkpt>
      <trkpt lat="47.37363" lon="6.45899">
        <ele>264.086</ele>
        <time>2016-09-05T13:28:18.000Z</time>
      </trkpt>
      <trkpt lat="47.37362" lon="6.459">
        <ele>263.534</ele>
        <time>2016-09-05T13:28:19.000Z</time>
      </trkpt>
      <trkpt lat="47.37362" lon="6.459">
        <ele>262.793</ele>
        <time>2016-09-05T13:28:20.000Z</time>
      </trkpt>
      <trkpt lat="47.37362" lon="6.459">
        <ele>261.972</ele>
        <time>2016-09-05T13:28:21.000Z</time>
      </trkpt>
      <trkpt lat="47.37362" lon="6.459">
        <ele>262.287</ele>
        <time>2016-09-05T13:28:22.000Z</time>
      </trkpt>
      <trkpt lat="47.37362" lon="6.459">
        <ele>261.87</ele>
        <time>2016-09-05T13:28:23.000Z</time>
      </trkpt>
      <trkpt lat="47.37362" lon="6.459">
        <ele>262.763</ele>
        <time>2016-09-05T13:28:24.000Z</time>
      </trkpt>
      <trkpt lat="47.37362" lon="6.459">
        <ele>262.416</ele>
        <time>2016-09-05T13:28:25.000Z</time>
      </trkpt>
      <trkpt lat="47.37362" lon="6.459">
        <ele>262.05</ele>
        <time>2016-09-05T13:28:26.000Z</time>
      </trkpt>
      <trkpt lat="47.37362" lon="6.459">
        <ele>261.849</ele>
        <time>2016-09-05T13:28:27.000Z</time>
      </trkpt>
      <trkpt lat="47.37359" lon="6.45902">
        <ele>261.764</ele>
        <time>2016-09-05T13:28:28.000Z</time>
      </trkpt>
      <trkpt lat="47.37359" lon="6.45902">
        <ele>262.052</ele>
        <time>2016-09-05T13:28:29.000Z</time>
      </trkpt>
      <trkpt lat="47.37359" lon="6.45902">
        <ele>262.278</ele>
        <time>2016-09-05T13:28:30.000Z</time>
      </trkpt>
      <trkpt lat="47.37359" lon="6.45902">
        <ele>264.736</ele>
        <time>2016-09-05T13:28:31.000Z</time>
      </trkpt>
      <trkpt lat="47.37359" lon="6.45902">
        <ele>265.108</ele>
        <time>2016-09-05T13:28:32.000Z</time>
      </trkpt>
      <trkpt lat="47.37359" lon="6.45902">
        <ele>265.671</ele>
        <time>2016-09-05T13:28:33.000Z</time>
      </trkpt>
      <trkpt lat="47.37359" lon="6.45902">
        <ele>266.737</ele>
        <time>2016-09-05T13:28:34.000Z</time>
      </trkpt>
      <trkpt lat="47.37359" lon="6.45904">
        <ele>266.846</ele>
        <time>2016-09-05T13:28:35.000Z</time>
      </trkpt>
      <trkpt lat="47.37359" lon="6.45904">
        <ele>267.172</ele>
        <time>2016-09-05T13:28:36.000Z</time>
      </trkpt>
      <trkpt lat="47.37359" lon="6.45904">
        <ele>268.012</ele>
        <time>2016-09-05T13:28:37.000Z</time>
      </trkpt>
      <trkpt lat="47.37359" lon="6.45904">
        <ele>267.813</ele>
        <time>2016-09-05T13:28:38.000Z</time>
      </trkpt>
      <trkpt lat="47.37359" lon="6.45904">
        <ele>267.878</ele>
        <time>2016-09-05T13:28:39.000Z</time>
      </trkpt>
      <trkpt lat="47.37359" lon="6.45904">
        <ele>270.855</ele>
        <time>2016-09-05T13:28:40.000Z</time>
      </trkpt>
      <trkpt lat="47.37359" lon="6.45904">
        <ele>270.667</ele>
        <time>2016-09-05T13:28:41.000Z</time>
      </trkpt>
      <trkpt lat="47.37359" lon="6.45904">
        <ele>269.661</ele>
        <time>2016-09-05T13:28:42.000Z</time>
      </trkpt>
      <trkpt lat="47.37359" lon="6.45904">
        <ele>269.832</ele>
        <time>2016-09-05T13:28:43.000Z</time>
      </trkpt>
      <trkpt lat="47.37356" lon="6.45905">
        <ele>270.01</ele>
        <time>2016-09-05T13:28:44.000Z</time>
      </trkpt>
      <trkpt lat="47.37356" lon="6.45905">
        <ele>270.595</ele>
        <time>2016-09-05T13:28:45.000Z</time>
      </trkpt>
      <trkpt lat="47.37356" lon="6.45905">
        <ele>270.88</ele>
        <time>2016-09-05T13:28:46.000Z</time>
      </trkpt>
      <trkpt lat="47.37356" lon="6.45905">
        <ele>269.785</ele>
        <time>2016-09-05T13:28:47.000Z</time>
      </trkpt>
      <trkpt lat="47.37356" lon="6.45905">
        <ele>269.78</ele>
        <time>2016-09-05T13:28:48.000Z</time>
      </trkpt>
      <trkpt lat="47.37354" lon="6.45903">
        <ele>270.205</ele>
        <time>2016-09-05T13:28:49.000Z</time>
      </trkpt>
      <trkpt lat="47.37354" lon="6.45903">
        <ele>270.247</ele>
        <time>2016-09-05T13:28:50.000Z</time>
      </trkpt>
      <trkpt lat="47.37354" lon="6.45903">
        <ele>270.008</ele>
        <time>2016-09-05T13:28:51.000Z</time>
      </trkpt>
      <trkpt lat="47.37354" lon="6.45903">
        <ele>270.943</ele>
        <time>2016-09-05T13:28:52.000Z</time>
      </trkpt>
      <trkpt lat="47.37354" lon="6.45903">
        <ele>274.211</ele>
        <time>2016-09-05T13:28:53.000Z</time>
      </trkpt>
      <trkpt lat="47.37354" lon="6.45903">
        <ele>275.092</ele>
        <time>2016-09-05T13:28:54.000Z</time>
      </trkpt>
      <trkpt lat="47.37354" lon="6.45903">
        <ele>275.182</ele>
        <time>2016-09-05T13:28:55.000Z</time>
      </trkpt>
      <trkpt lat="47.37354" lon="6.45903">
        <ele>274.781</ele>
        <time>2016-09-05T13:28:56.000Z</time>
      </trkpt>
      <trkpt lat="47.37354" lon="6.45903">
        <ele>275.757</ele>
        <time>2016-09-05T13:28:57.000Z</time>
      </trkpt>
      <trkpt lat="47.37354" lon="6.45903">
        <ele>275.712</ele>
        <time>2016-09-05T13:28:58.000Z</time>
      </trkpt>
      <trkpt lat="47.37352" lon="6.45898">
        <ele>276.419</ele>
        <time>2016-09-05T13:28:59.000Z</time>
      </trkpt>
      <trkpt lat="47.37352" lon="6.45898">
        <ele>275.259</ele>
        <time>2016-09-05T13:29:00.000Z</time>
      </trkpt>
      <trkpt lat="47.37352" lon="6.45898">
        <ele>274.433</ele>
        <time>2016-09-05T13:29:01.000Z</time>
      </trkpt>
      <trkpt lat="47.37352" lon="6.45898">
        <ele>274.593</ele>
        <time>2016-09-05T13:29:02.000Z</time>
      </trkpt>
      <trkpt lat="47.37352" lon="6.45898">
        <ele>274.956</ele>
        <time>2016-09-05T13:29:03.000Z</time>
      </trkpt>
      <trkpt lat="47.37349" lon="6.45897">
        <ele>275.138</ele>
        <time>2016-09-05T13:29:04.000Z</time>
      </trkpt>
      <trkpt lat="47.37349" lon="6.45897">
        <ele>275.768</ele>
        <time>2016-09-05T13:29:05.000Z</time>
      </trkpt>
      <trkpt lat="47.37349" lon="6.45897">
        <ele>275.753</ele>
        <time>2016-09-05T13:29:06.000Z</time>
      </trkpt>
      <trkpt lat="47.37349" lon="6.45898">
        <ele>275.955</ele>
        <time>2016-09-05T13:29:07.000Z</time>
      </trkpt>
      <trkpt lat="47.3735" lon="6.45898">
        <ele>274.186</ele>
        <time>2016-09-05T13:29:08.005Z</time>
      </trkpt>
      <trkpt lat="47.37351" lon="6.45899">
        <ele>274.452</ele>
        <time>2016-09-05T13:29:09.001Z</time>
      </trkpt>
      <trkpt lat="47.37352" lon="6.45899">
        <ele>274.904</ele>
        <time>2016-09-05T13:29:09.998Z</time>
      </trkpt>
      <trkpt lat="47.37352" lon="6.45899">
        <ele>274.612</ele>
        <time>2016-09-05T13:29:10.999Z</time>
      </trkpt>
      <trkpt lat="47.37352" lon="6.45899">
        <ele>273.576</ele>
        <time>2016-09-05T13:29:12.000Z</time>
      </trkpt>
      <trkpt lat="47.37352" lon="6.45899">
        <ele>273.203</ele>
        <time>2016-09-05T13:29:13.000Z</time>
      </trkpt>
      <trkpt lat="47.37352" lon="6.45899">
        <ele>273.545</ele>
        <time>2016-09-05T13:29:14.000Z</time>
      </trkpt>
      <trkpt lat="47.37352" lon="6.45899">
        <ele>273.905</ele>
        <time>2016-09-05T13:29:15.000Z</time>
      </trkpt>
      <trkpt lat="47.37357" lon="6.45899">
        <ele>274.584</ele>
        <time>2016-09-05T13:29:16.000Z</time>
      </trkpt>
      <trkpt lat="47.37357" lon="6.45899">
        <ele>274.85</ele>
        <time>2016-09-05T13:29:17.000Z</time>
      </trkpt>
      <trkpt lat="47.37357" lon="6.45899">
        <ele>274.773</ele>
        <time>2016-09-05T13:29:18.000Z</time>
      </trkpt>
      <trkpt lat="47.37357" lon="6.45899">
        <ele>274.287</ele>
        <time>2016-09-05T13:29:19.000Z</time>
      </trkpt>
      <trkpt lat="47.37357" lon="6.45899">
        <ele>273.749</ele>
        <time>2016-09-05T13:29:20.000Z</time>
      </trkpt>
      <trkpt lat="47.37357" lon="6.45899">
        <ele>273.179</ele>
        <time>2016-09-05T13:29:21.000Z</time>
      </trkpt>
      <trkpt lat="47.37357" lon="6.45899">
        <ele>272.968</ele>
        <time>2016-09-05T13:29:22.000Z</time>
      </trkpt>
      <trkpt lat="47.37357" lon="6.45899">
        <ele>272.962</ele>
        <time>2016-09-05T13:29:23.000Z</time>
      </trkpt>
      <trkpt lat="47.37357" lon="6.45899">
        <ele>272.561</ele>
        <time>2016-09-05T13:29:24.000Z</time>
      </trkpt>
      <trkpt lat="47.37357" lon="6.45899">
        <ele>272.712</ele>
        <time>2016-09-05T13:29:25.000Z</time>
      </trkpt>
      <trkpt lat="47.37357" lon="6.45899">
        <ele>273.217</ele>
        <time>2016-09-05T13:29:26.000Z</time>
      </trkpt>
      <trkpt lat="47.37357" lon="6.45899">
        <ele>273.431</ele>
        <time>2016-09-05T13:29:27.000Z</time>
      </trkpt>
      <trkpt lat="47.37357" lon="6.45899">
        <ele>273.598</ele>
        <time>2016-09-05T13:29:28.000Z</time>
      </trkpt>
      <trkpt lat="47.37357" lon="6.45899">
        <ele>273.465</ele>
        <time>2016-09-05T13:29:29.000Z</time>
      </trkpt>
      <trkpt lat="47.37357" lon="6.45899">
        <ele>273.667</ele>
        <time>2016-09-05T13:29:30.000Z</time>
      </trkpt>
      <trkpt lat="47.37357" lon="6.45899">
        <ele>273.547</ele>
        <time>2016-09-05T13:29:31.000Z</time>
      </trkpt>
      <trkpt lat="47.37357" lon="6.45899">
        <ele>273.62</ele>
        <time>2016-09-05T13:29:32.000Z</time>
      </trkpt>
      <trkpt lat="47.37357" lon="6.45899">
        <ele>273.88</ele>
        <time>2016-09-05T13:29:33.000Z</time>
      </trkpt>
      <trkpt lat="47.37357" lon="6.45899">
        <ele>274.129</ele>
        <time>2016-09-05T13:29:34.000Z</time>
      </trkpt>
      <trkpt lat="47.37356" lon="6.45899">
        <ele>273.398</ele>
        <time>2016-09-05T13:29:35.000Z</time>
      </trkpt>
      <trkpt lat="47.37356" lon="6.45899">
        <ele>273.326</ele>
        <time>2016-09-05T13:29:36.000Z</time>
      </trkpt>
      <trkpt lat="47.37356" lon="6.45899">
        <ele>272.635</ele>
        <time>2016-09-05T13:29:37.000Z</time>
      </trkpt>
      <trkpt lat="47.37356" lon="6.45899">
        <ele>272.87</ele>
        <time>2016-09-05T13:29:38.000Z</time>
      </trkpt>
      <trkpt lat="47.37356" lon="6.45899">
        <ele>271.01</ele>
        <time>2016-09-05T13:29:39.000Z</time>
      </trkpt>
      <trkpt lat="47.37356" lon="6.45899">
        <ele>270.189</ele>
        <time>2016-09-05T13:29:40.000Z</time>
      </trkpt>
      <trkpt lat="47.37356" lon="6.45899">
        <ele>269.979</ele>
        <time>2016-09-05T13:29:41.000Z</time>
      </trkpt>
      <trkpt lat="47.37356" lon="6.45899">
        <ele>270.747</ele>
        <time>2016-09-05T13:29:42.000Z</time>
      </trkpt>
      <trkpt lat="47.37356" lon="6.45899">
        <ele>271.029</ele>
        <time>2016-09-05T13:29:43.000Z</time>
      </trkpt>
      <trkpt lat="47.37358" lon="6.45898">
        <ele>271.826</ele>
        <time>2016-09-05T13:29:44.000Z</time>
      </trkpt>
      <trkpt lat="47.37358" lon="6.45898">
        <ele>271.888</ele>
        <time>2016-09-05T13:29:45.000Z</time>
      </trkpt>
      <trkpt lat="47.37358" lon="6.45898">
        <ele>271.916</ele>
        <time>2016-09-05T13:29:46.000Z</time>
      </trkpt>
      <trkpt lat="47.37358" lon="6.45898">
        <ele>272.677</ele>
        <time>2016-09-05T13:29:47.000Z</time>
      </trkpt>
      <trkpt lat="47.3736" lon="6.45897">
        <ele>272.492</ele>
        <time>2016-09-05T13:29:48.000Z</time>
      </trkpt>
      <trkpt lat="47.3736" lon="6.45897">
        <ele>271.694</ele>
        <time>2016-09-05T13:29:49.000Z</time>
      </trkpt>
      <trkpt lat="47.3736" lon="6.45896">
        <ele>270.872</ele>
        <time>2016-09-05T13:29:50.000Z</time>
      </trkpt>
      <trkpt lat="47.3736" lon="6.45896">
        <ele>271.185</ele>
        <time>2016-09-05T13:29:51.000Z</time>
      </trkpt>
      <trkpt lat="47.3736" lon="6.45896">
        <ele>270.764</ele>
        <time>2016-09-05T13:29:52.000Z</time>
      </trkpt>
      <trkpt lat="47.3736" lon="6.45896">
        <ele>270.063</ele>
        <time>2016-09-05T13:29:53.000Z</time>
      </trkpt>
      <trkpt lat="47.3736" lon="6.45896">
        <ele>270.483</ele>
        <time>2016-09-05T13:29:54.000Z</time>
      </trkpt>
      <trkpt lat="47.3736" lon="6.45896">
        <ele>269.665</ele>
        <time>2016-09-05T13:29:55.000Z</time>
      </trkpt>
      <trkpt lat="47.3736" lon="6.45896">
        <ele>269.692</ele>
        <time>2016-09-05T13:29:56.000Z</time>
      </trkpt>
      <trkpt lat="47.3736" lon="6.45896">
        <ele>269.587</ele>
        <time>2016-09-05T13:29:57.000Z</time>
      </trkpt>
      <trkpt lat="47.3736" lon="6.45896">
        <ele>269.397</ele>
        <time>2016-09-05T13:29:58.000Z</time>
      </trkpt>
      <trkpt lat="47.37364" lon="6.45897">
        <ele>268.475</ele>
        <time>2016-09-05T13:29:59.000Z</time>
      </trkpt>
      <trkpt lat="47.37364" lon="6.45897">
        <ele>268.132</ele>
        <time>2016-09-05T13:30:00.000Z</time>
      </trkpt>
      <trkpt lat="47.37364" lon="6.45897">
        <ele>268.231</ele>
        <time>2016-09-05T13:30:01.000Z</time>
      </trkpt>
      <trkpt lat="47.37364" lon="6.45898">
        <ele>267.758</ele>
        <time>2016-09-05T13:30:02.000Z</time>
      </trkpt>
      <trkpt lat="47.37364" lon="6.45898">
        <ele>267.576</ele>
        <time>2016-09-05T13:30:03.000Z</time>
      </trkpt>
      <trkpt lat="47.37364" lon="6.45898">
        <ele>267.251</ele>
        <time>2016-09-05T13:30:04.000Z</time>
      </trkpt>
      <trkpt lat="47.37364" lon="6.45898">
        <ele>265.375</ele>
        <time>2016-09-05T13:30:05.000Z</time>
      </trkpt>
      <trkpt lat="47.37364" lon="6.45898">
        <ele>265.433</ele>
        <time>2016-09-05T13:30:06.000Z</time>
      </trkpt>
      <trkpt lat="47.37365" lon="6.45898">
        <ele>265.134</ele>
        <time>2016-09-05T13:30:07.000Z</time>
      </trkpt>
      <trkpt lat="47.37365" lon="6.45898">
        <ele>265.736</ele>
        <time>2016-09-05T13:30:08.000Z</time>
      </trkpt>
      <trkpt lat="47.37365" lon="6.45898">
        <ele>266.561</ele>
        <time>2016-09-05T13:30:09.000Z</time>
      </trkpt>
      <trkpt lat="47.37365" lon="6.45898">
        <ele>266.667</ele>
        <time>2016-09-05T13:30:10.000Z</time>
      </trkpt>
      <trkpt lat="47.37365" lon="6.45898">
        <ele>266.728</ele>
        <time>2016-09-05T13:30:11.000Z</time>
      </trkpt>
      <trkpt lat="47.37365" lon="6.45898">
        <ele>266.544</ele>
        <time>2016-09-05T13:30:12.000Z</time>
      </trkpt>
      <trkpt lat="47.37365" lon="6.45898">
        <ele>266.581</ele>
        <time>2016-09-05T13:30:13.000Z</time>
      </trkpt>
      <trkpt lat="47.37365" lon="6.459">
        <ele>267.134</ele>
        <time>2016-09-05T13:30:14.000Z</time>
      </trkpt>
      <trkpt lat="47.37365" lon="6.459">
        <ele>266.898</ele>
        <time>2016-09-05T13:30:15.000Z</time>
      </trkpt>
      <trkpt lat="47.37365" lon="6.459">
        <ele>267.982</ele>
        <time>2016-09-05T13:30:16.000Z</time>
      </trkpt>
      <trkpt lat="47.37364" lon="6.459">
        <ele>268.58</ele>
        <time>2016-09-05T13:30:17.000Z</time>
      </trkpt>
      <trkpt lat="47.37364" lon="6.459">
        <ele>268.945</ele>
        <time>2016-09-05T13:30:18.000Z</time>
      </trkpt>
      <trkpt lat="47.37364" lon="6.459">
        <ele>268.97</ele>
        <time>2016-09-05T13:30:19.000Z</time>
      </trkpt>
      <trkpt lat="47.37364" lon="6.459">
        <ele>269.339</ele>
        <time>2016-09-05T13:30:20.000Z</time>
      </trkpt>
      <trkpt lat="47.37364" lon="6.459">
        <ele>269.497</ele>
        <time>2016-09-05T13:30:21.000Z</time>
      </trkpt>
      <trkpt lat="47.37364" lon="6.459">
        <ele>269.822</ele>
        <time>2016-09-05T13:30:22.000Z</time>
      </trkpt>
      <trkpt lat="47.37364" lon="6.459">
        <ele>270.748</ele>
        <time>2016-09-05T13:30:23.000Z</time>
      </trkpt>
      <trkpt lat="47.37364" lon="6.459">
        <ele>271.003</ele>
        <time>2016-09-05T13:30:24.000Z</time>
      </trkpt>
      <trkpt lat="47.37364" lon="6.459">
        <ele>271.087</ele>
        <time>2016-09-05T13:30:25.000Z</time>
      </trkpt>
      <trkpt lat="47.37364" lon="6.459">
        <ele>271.655</ele>
        <time>2016-09-05T13:30:26.000Z</time>
      </trkpt>
      <trkpt lat="47.37364" lon="6.459">
        <ele>271.568</ele>
        <time>2016-09-05T13:30:27.000Z</time>
      </trkpt>
      <trkpt lat="47.37364" lon="6.459">
        <ele>271.601</ele>
        <time>2016-09-05T13:30:28.000Z</time>
      </trkpt>
      <trkpt lat="47.37363" lon="6.459">
        <ele>272.671</ele>
        <time>2016-09-05T13:30:29.000Z</time>
      </trkpt>
      <trkpt lat="47.37363" lon="6.459">
        <ele>272.42</ele>
        <time>2016-09-05T13:30:30.000Z</time>
      </trkpt>
      <trkpt lat="47.37362" lon="6.459">
        <ele>272.966</ele>
        <time>2016-09-05T13:30:31.000Z</time>
      </trkpt>
      <trkpt lat="47.37362" lon="6.459">
        <ele>272.689</ele>
        <time>2016-09-05T13:30:32.000Z</time>
      </trkpt>
      <trkpt lat="47.37362" lon="6.459">
        <ele>272.829</ele>
        <time>2016-09-05T13:30:33.000Z</time>
      </trkpt>
      <trkpt lat="47.37362" lon="6.459">
        <ele>272.889</ele>
        <time>2016-09-05T13:30:34.000Z</time>
      </trkpt>
      <trkpt lat="47.37361" lon="6.459">
        <ele>273.943</ele>
        <time>2016-09-05T13:30:35.000Z</time>
      </trkpt>
      <trkpt lat="47.37361" lon="6.459">
        <ele>274.676</ele>
        <time>2016-09-05T13:30:36.000Z</time>
      </trkpt>
      <trkpt lat="47.37361" lon="6.459">
        <ele>275.308</ele>
        <time>2016-09-05T13:30:37.000Z</time>
      </trkpt>
      <trkpt lat="47.37361" lon="6.45901">
        <ele>275.54</ele>
        <time>2016-09-05T13:30:38.000Z</time>
      </trkpt>
      <trkpt lat="47.37361" lon="6.45901">
        <ele>274.634</ele>
        <time>2016-09-05T13:30:39.000Z</time>
      </trkpt>
      <trkpt lat="47.37362" lon="6.45901">
        <ele>274.626</ele>
        <time>2016-09-05T13:30:40.000Z</time>
      </trkpt>
      <trkpt lat="47.37362" lon="6.45901">
        <ele>273.706</ele>
        <time>2016-09-05T13:30:41.000Z</time>
      </trkpt>
      <trkpt lat="47.37362" lon="6.45901">
        <ele>273.319</ele>
        <time>2016-09-05T13:30:42.000Z</time>
      </trkpt>
      <trkpt lat="47.37362" lon="6.45901">
        <ele>273.659</ele>
        <time>2016-09-05T13:30:43.000Z</time>
      </trkpt>
      <trkpt lat="47.37361" lon="6.45901">
        <ele>271.998</ele>
        <time>2016-09-05T13:30:44.000Z</time>
      </trkpt>
      <trkpt lat="47.37361" lon="6.45901">
        <ele>272.032</ele>
        <time>2016-09-05T13:30:45.000Z</time>
      </trkpt>
      <trkpt lat="47.37361" lon="6.45901">
        <ele>272.344</ele>
        <time>2016-09-05T13:30:46.000Z</time>
      </trkpt>
      <trkpt lat="47.37361" lon="6.45901">
        <ele>271.093</ele>
        <time>2016-09-05T13:30:47.000Z</time>
      </trkpt>
      <trkpt lat="47.37361" lon="6.45901">
        <ele>271.057</ele>
        <time>2016-09-05T13:30:48.000Z</time>
      </trkpt>
      <trkpt lat="47.37361" lon="6.45901">
        <ele>270.851</ele>
        <time>2016-09-05T13:30:49.000Z</time>
      </trkpt>
      <trkpt lat="47.37361" lon="6.45901">
        <ele>271.177</ele>
        <time>2016-09-05T13:30:50.000Z</time>
      </trkpt>
      <trkpt lat="47.37359" lon="6.45895">
        <ele>271.526</ele>
        <time>2016-09-05T13:30:51.000Z</time>
      </trkpt>
      <trkpt lat="47.37359" lon="6.45895">
        <ele>271.616</ele>
        <time>2016-09-05T13:30:52.000Z</time>
      </trkpt>
      <trkpt lat="47.37359" lon="6.45895">
        <ele>271.611</ele>
        <time>2016-09-05T13:30:53.000Z</time>
      </trkpt>
      <trkpt lat="47.37359" lon="6.45895">
        <ele>272.963</ele>
        <time>2016-09-05T13:30:54.000Z</time>
      </trkpt>
      <trkpt lat="47.37359" lon="6.45895">
        <ele>273.203</ele>
        <time>2016-09-05T13:30:55.000Z</time>
      </trkpt>
      <trkpt lat="47.37358" lon="6.45893">
        <ele>272.695</ele>
        <time>2016-09-05T13:30:56.000Z</time>
      </trkpt>
      <trkpt lat="47.37358" lon="6.45893">
        <ele>271.729</ele>
        <time>2016-09-05T13:30:57.000Z</time>
      </trkpt>
      <trkpt lat="47.37358" lon="6.45893">
        <ele>269.931</ele>
        <time>2016-09-05T13:30:58.000Z</time>
      </trkpt>
      <trkpt lat="47.37358" lon="6.45893">
        <ele>271.668</ele>
        <time>2016-09-05T13:30:59.000Z</time>
      </trkpt>
      <trkpt lat="47.37358" lon="6.45893">
        <ele>271.443</ele>
        <time>2016-09-05T13:31:00.000Z</time>
      </trkpt>
      <trkpt lat="47.37356" lon="6.45892">
        <ele>271.397</ele>
        <time>2016-09-05T13:31:01.000Z</time>
      </trkpt>
      <trkpt lat="47.37356" lon="6.45892">
        <ele>268.611</ele>
        <time>2016-09-05T13:31:02.000Z</time>
      </trkpt>
      <trkpt lat="47.37356" lon="6.45892">
        <ele>265.133</ele>
        <time>2016-09-05T13:31:03.000Z</time>
      </trkpt>
      <trkpt lat="47.37356" lon="6.45892">
        <ele>264.74</ele>
        <time>2016-09-05T13:31:04.000Z</time>
      </trkpt>
      <trkpt lat="47.37356" lon="6.45892">
        <ele>264.622</ele>
        <time>2016-09-05T13:31:05.000Z</time>
      </trkpt>
      <trkpt lat="47.37356" lon="6.45892">
        <ele>266.116</ele>
        <time>2016-09-05T13:31:06.000Z</time>
      </trkpt>
      <trkpt lat="47.37358" lon="6.45895">
        <ele>265.824</ele>
        <time>2016-09-05T13:31:07.000Z</time>
      </trkpt>
      <trkpt lat="47.37358" lon="6.45895">
        <ele>264.536</ele>
        <time>2016-09-05T13:31:08.000Z</time>
      </trkpt>
      <trkpt lat="47.37359" lon="6.45895">
        <ele>264.99</ele>
        <time>2016-09-05T13:31:09.000Z</time>
      </trkpt>
      <trkpt lat="47.37359" lon="6.45895">
        <ele>264.426</ele>
        <time>2016-09-05T13:31:10.000Z</time>
      </trkpt>
      <trkpt lat="47.37359" lon="6.45895">
        <ele>260.909</ele>
        <time>2016-09-05T13:31:11.000Z</time>
      </trkpt>
      <trkpt lat="47.37359" lon="6.45895">
        <ele>260.301</ele>
        <time>2016-09-05T13:31:12.000Z</time>
      </trkpt>
      <trkpt lat="47.37359" lon="6.45895">
        <ele>259.636</ele>
        <time>2016-09-05T13:31:13.000Z</time>
      </trkpt>
      <trkpt lat="47.37359" lon="6.45895">
        <ele>260.021</ele>
        <time>2016-09-05T13:31:14.000Z</time>
      </trkpt>
      <trkpt lat="47.37359" lon="6.45895">
        <ele>260.056</ele>
        <time>2016-09-05T13:31:15.000Z</time>
      </trkpt>
      <trkpt lat="47.37361" lon="6.45897">
        <ele>260.477</ele>
        <time>2016-09-05T13:31:16.000Z</time>
      </trkpt>
      <trkpt lat="47.37361" lon="6.45897">
        <ele>261.3</ele>
        <time>2016-09-05T13:31:17.000Z</time>
      </trkpt>
      <trkpt lat="47.37361" lon="6.45898">
        <ele>261.556</ele>
        <time>2016-09-05T13:31:18.000Z</time>
      </trkpt>
      <trkpt lat="47.37361" lon="6.45898">
        <ele>260.688</ele>
        <time>2016-09-05T13:31:19.000Z</time>
      </trkpt>
      <trkpt lat="47.37361" lon="6.45898">
        <ele>260.643</ele>
        <time>2016-09-05T13:31:20.000Z</time>
      </trkpt>
      <trkpt lat="47.37361" lon="6.45898">
        <ele>259.831</ele>
        <time>2016-09-05T13:31:21.000Z</time>
      </trkpt>
      <trkpt lat="47.37361" lon="6.45898">
        <ele>260.005</ele>
        <time>2016-09-05T13:31:22.000Z</time>
      </trkpt>
      <trkpt lat="47.37361" lon="6.45898">
        <ele>261.293</ele>
        <time>2016-09-05T13:31:23.000Z</time>
      </trkpt>
      <trkpt lat="47.37361" lon="6.45898">
        <ele>261.859</ele>
        <time>2016-09-05T13:31:24.000Z</time>
      </trkpt>
      <trkpt lat="47.37361" lon="6.45898">
        <ele>261.974</ele>
        <time>2016-09-05T13:31:25.000Z</time>
      </trkpt>
      <trkpt lat="47.37363" lon="6.45901">
        <ele>258.993</ele>
        <time>2016-09-05T13:31:26.000Z</time>
      </trkpt>
      <trkpt lat="47.37363" lon="6.45901">
        <ele>258.89</ele>
        <time>2016-09-05T13:31:27.000Z</time>
      </trkpt>
      <trkpt lat="47.37363" lon="6.45901">
        <ele>259.034</ele>
        <time>2016-09-05T13:31:28.000Z</time>
      </trkpt>
      <trkpt lat="47.37363" lon="6.45901">
        <ele>258.989</ele>
        <time>2016-09-05T13:31:29.000Z</time>
      </trkpt>
      <trkpt lat="47.37363" lon="6.45901">
        <ele>259.164</ele>
        <time>2016-09-05T13:31:30.000Z</time>
      </trkpt>
      <trkpt lat="47.37363" lon="6.45901">
        <ele>259.11</ele>
        <time>2016-09-05T13:31:31.000Z</time>
      </trkpt>
      <trkpt lat="47.37363" lon="6.45901">
        <ele>259.149</ele>
        <time>2016-09-05T13:31:32.000Z</time>
      </trkpt>
      <trkpt lat="47.37363" lon="6.45901">
        <ele>259.631</ele>
        <time>2016-09-05T13:31:33.000Z</time>
      </trkpt>
      <trkpt lat="47.37363" lon="6.45901">
        <ele>259.733</ele>
        <time>2016-09-05T13:31:34.000Z</time>
      </trkpt>
      <trkpt lat="47.37365" lon="6.45902">
        <ele>259.922</ele>
        <time>2016-09-05T13:31:35.000Z</time>
      </trkpt>
      <trkpt lat="47.37365" lon="6.45902">
        <ele>259.992</ele>
        <time>2016-09-05T13:31:36.000Z</time>
      </trkpt>
      <trkpt lat="47.37365" lon="6.45902">
        <ele>260.676</ele>
        <time>2016-09-05T13:31:37.000Z</time>
      </trkpt>
      <trkpt lat="47.37365" lon="6.45902">
        <ele>260.438</ele>
        <time>2016-09-05T13:31:38.000Z</time>
      </trkpt>
      <trkpt lat="47.37365" lon="6.45902">
        <ele>258.15</ele>
        <time>2016-09-05T13:31:39.000Z</time>
      </trkpt>
      <trkpt lat="47.37364" lon="6.45901">
        <ele>260.485</ele>
        <time>2016-09-05T13:31:40.000Z</time>
      </trkpt>
      <trkpt lat="47.37363" lon="6.45901">
        <ele>263.215</ele>
        <time>2016-09-05T13:31:41.000Z</time>
      </trkpt>
      <trkpt lat="47.37362" lon="6.45899">
        <ele>263.012</ele>
        <time>2016-09-05T13:31:42.000Z</time>
      </trkpt>
      <trkpt lat="47.37362" lon="6.45897">
        <ele>263.21</ele>
        <time>2016-09-05T13:31:43.000Z</time>
      </trkpt>
      <trkpt lat="47.37362" lon="6.45895">
        <ele>264.295</ele>
        <time>2016-09-05T13:31:44.000Z</time>
      </trkpt>
      <trkpt lat="47.37362" lon="6.45892">
        <ele>265.548</ele>
        <time>2016-09-05T13:31:45.000Z</time>
      </trkpt>
      <trkpt lat="47.37362" lon="6.4589">
        <ele>265.22</ele>
        <time>2016-09-05T13:31:46.000Z</time>
      </trkpt>
      <trkpt lat="47.37362" lon="6.45888">
        <ele>265.878</ele>
        <time>2016-09-05T13:31:47.000Z</time>
      </trkpt>
      <trkpt lat="47.37362" lon="6.45886">
        <ele>265.806</ele>
        <time>2016-09-05T13:31:48.000Z</time>
      </trkpt>
      <trkpt lat="47.37361" lon="6.45883">
        <ele>266.263</ele>
        <time>2016-09-05T13:31:49.000Z</time>
      </trkpt>
      <trkpt lat="47.37361" lon="6.45881">
        <ele>267.066</ele>
        <time>2016-09-05T13:31:50.000Z</time>
      </trkpt>
      <trkpt lat="47.3736" lon="6.45878">
        <ele>267.111</ele>
        <time>2016-09-05T13:31:51.000Z</time>
      </trkpt>
      <trkpt lat="47.37359" lon="6.45875">
        <ele>266.897</ele>
        <time>2016-09-05T13:31:52.000Z</time>
      </trkpt>
      <trkpt lat="47.37358" lon="6.45872">
        <ele>266.864</ele>
        <time>2016-09-05T13:31:53.000Z</time>
      </trkpt>
      <trkpt lat="47.37357" lon="6.45869">
        <ele>266.95</ele>
        <time>2016-09-05T13:31:54.000Z</time>
      </trkpt>
      <trkpt lat="47.37356" lon="6.45865">
        <ele>265.252</ele>
        <time>2016-09-05T13:31:55.000Z</time>
      </trkpt>
      <trkpt lat="47.37355" lon="6.45862">
        <ele>265.151</ele>
        <time>2016-09-05T13:31:56.000Z</time>
      </trkpt>
      <trkpt lat="47.37354" lon="6.45858">
        <ele>263.84</ele>
        <time>2016-09-05T13:31:57.000Z</time>
      </trkpt>
      <trkpt lat="47.37353" lon="6.45853">
        <ele>264.39</ele>
        <time>2016-09-05T13:31:58.000Z</time>
      </trkpt>
      <trkpt lat="47.37352" lon="6.45848">
        <ele>263.73</ele>
        <time>2016-09-05T13:31:59.000Z</time>
      </trkpt>
      <trkpt lat="47.37352" lon="6.45844">
        <ele>263.322</ele>
        <time>2016-09-05T13:32:00.000Z</time>
      </trkpt>
      <trkpt lat="47.37352" lon="6.45839">
        <ele>263.272</ele>
        <time>2016-09-05T13:32:01.000Z</time>
      </trkpt>
      <trkpt lat="47.37351" lon="6.45834">
        <ele>262.835</ele>
        <time>2016-09-05T13:32:02.000Z</time>
      </trkpt>
      <trkpt lat="47.37351" lon="6.45829">
        <ele>262.34</ele>
        <time>2016-09-05T13:32:03.000Z</time>
      </trkpt>
      <trkpt lat="47.3735" lon="6.45824">
        <ele>263.124</ele>
        <time>2016-09-05T13:32:04.000Z</time>
      </trkpt>
      <trkpt lat="47.3735" lon="6.45819">
        <ele>263.614</ele>
        <time>2016-09-05T13:32:05.000Z</time>
      </trkpt>
      <trkpt lat="47.3735" lon="6.45814">
        <ele>263.27</ele>
        <time>2016-09-05T13:32:06.000Z</time>
      </trkpt>
      <trkpt lat="47.37349" lon="6.4581">
        <ele>263.388</ele>
        <time>2016-09-05T13:32:07.000Z</time>
      </trkpt>
      <trkpt lat="47.37349" lon="6.45805">
        <ele>263.529</ele>
        <time>2016-09-05T13:32:08.000Z</time>
      </trkpt>
      <trkpt lat="47.37348" lon="6.458">
        <ele>263.751</ele>
        <time>2016-09-05T13:32:09.000Z</time>
      </trkpt>
      <trkpt lat="47.37347" lon="6.45795">
        <ele>263.423</ele>
        <time>2016-09-05T13:32:10.000Z</time>
      </trkpt>
      <trkpt lat="47.37347" lon="6.4579">
        <ele>264.287</ele>
        <time>2016-09-05T13:32:11.000Z</time>
      </trkpt>
      <trkpt lat="47.37346" lon="6.45785">
        <ele>263.613</ele>
        <time>2016-09-05T13:32:12.000Z</time>
      </trkpt>
      <trkpt lat="47.37347" lon="6.45777">
        <ele>265.087</ele>
        <time>2016-09-05T13:32:13.000Z</time>
      </trkpt>
      <trkpt lat="47.37345" lon="6.45774">
        <ele>265.207</ele>
        <time>2016-09-05T13:32:14.000Z</time>
      </trkpt>
      <trkpt lat="47.37343" lon="6.45769">
        <ele>265.327</ele>
        <time>2016-09-05T13:32:15.000Z</time>
      </trkpt>
      <trkpt lat="47.37342" lon="6.45764">
        <ele>265.445</ele>
        <time>2016-09-05T13:32:16.000Z</time>
      </trkpt>
      <trkpt lat="47.37341" lon="6.45758">
        <ele>265.56</ele>
        <time>2016-09-05T13:32:17.000Z</time>
      </trkpt>
      <trkpt lat="47.37339" lon="6.45753">
        <ele>265.671</ele>
        <time>2016-09-05T13:32:18.000Z</time>
      </trkpt>
      <trkpt lat="47.37337" lon="6.45748">
        <ele>265.776</ele>
        <time>2016-09-05T13:32:19.000Z</time>
      </trkpt>
      <trkpt lat="47.37335" lon="6.45743">
        <ele>265.874</ele>
        <time>2016-09-05T13:32:20.000Z</time>
      </trkpt>
      <trkpt lat="47.37333" lon="6.45739">
        <ele>265.962</ele>
        <time>2016-09-05T13:32:21.000Z</time>
      </trkpt>
      <trkpt lat="47.3733" lon="6.45734">
        <ele>266.039</ele>
        <time>2016-09-05T13:32:22.000Z</time>
      </trkpt>
      <trkpt lat="47.37328" lon="6.45729">
        <ele>266.1</ele>
        <time>2016-09-05T13:32:23.000Z</time>
      </trkpt>
      <trkpt lat="47.37326" lon="6.45724">
        <ele>266.143</ele>
        <time>2016-09-05T13:32:24.000Z</time>
      </trkpt>
      <trkpt lat="47.37324" lon="6.45719">
        <ele>266.166</ele>
        <time>2016-09-05T13:32:25.000Z</time>
      </trkpt>
      <trkpt lat="47.37322" lon="6.45715">
        <ele>266.166</ele>
        <time>2016-09-05T13:32:26.000Z</time>
      </trkpt>
      <trkpt lat="47.3732" lon="6.4571">
        <ele>266.142</ele>
        <time>2016-09-05T13:32:27.000Z</time>
      </trkpt>
      <trkpt lat="47.37318" lon="6.45706">
        <ele>266.092</ele>
        <time>2016-09-05T13:32:28.000Z</time>
      </trkpt>
      <trkpt lat="47.37316" lon="6.45702">
        <ele>266.016</ele>
        <time>2016-09-05T13:32:29.000Z</time>
      </trkpt>
      <trkpt lat="47.37313" lon="6.45697">
        <ele>265.915</ele>
        <time>2016-09-05T13:32:30.000Z</time>
      </trkpt>
      <trkpt lat="47.37311" lon="6.45693">
        <ele>265.787</ele>
        <time>2016-09-05T13:32:31.000Z</time>
      </trkpt>
      <trkpt lat="47.37309" lon="6.45689">
        <ele>265.635</ele>
        <time>2016-09-05T13:32:32.000Z</time>
      </trkpt>
      <trkpt lat="47.37306" lon="6.45685">
        <ele>265.458</ele>
        <time>2016-09-05T13:32:33.000Z</time>
      </trkpt>
      <trkpt lat="47.37303" lon="6.45681">
        <ele>265.26</ele>
        <time>2016-09-05T13:32:34.000Z</time>
      </trkpt>
      <trkpt lat="47.37301" lon="6.45678">
        <ele>265.042</ele>
        <time>2016-09-05T13:32:35.000Z</time>
      </trkpt>
      <trkpt lat="47.37298" lon="6.45674">
        <ele>264.806</ele>
        <time>2016-09-05T13:32:36.000Z</time>
      </trkpt>
      <trkpt lat="47.37295" lon="6.4567">
        <ele>264.553</ele>
        <time>2016-09-05T13:32:37.000Z</time>
      </trkpt>
      <trkpt lat="47.37292" lon="6.45667">
        <ele>264.285</ele>
        <time>2016-09-05T13:32:38.000Z</time>
      </trkpt>
      <trkpt lat="47.37289" lon="6.45664">
        <ele>264.006</ele>
        <time>2016-09-05T13:32:39.000Z</time>
      </trkpt>
      <trkpt lat="47.37286" lon="6.45661">
        <ele>263.719</ele>
        <time>2016-09-05T13:32:40.000Z</time>
      </trkpt>
      <trkpt lat="47.37283" lon="6.45658">
        <ele>263.426</ele>
        <time>2016-09-05T13:32:41.000Z</time>
      </trkpt>
      <trkpt lat="47.3728" lon="6.45654">
        <ele>263.129</ele>
        <time>2016-09-05T13:32:42.000Z</time>
      </trkpt>
      <trkpt lat="47.37277" lon="6.45651">
        <ele>262.83</ele>
        <time>2016-09-05T13:32:43.000Z</time>
      </trkpt>
      <trkpt lat="47.37275" lon="6.45647">
        <ele>262.529</ele>
        <time>2016-09-05T13:32:44.000Z</time>
      </trkpt>
      <trkpt lat="47.37272" lon="6.45643">
        <ele>262.23</ele>
        <time>2016-09-05T13:32:45.000Z</time>
      </trkpt>
      <trkpt lat="47.37269" lon="6.4564">
        <ele>261.932</ele>
        <time>2016-09-05T13:32:46.000Z</time>
      </trkpt>
      <trkpt lat="47.37267" lon="6.45637">
        <ele>261.639</ele>
        <time>2016-09-05T13:32:47.000Z</time>
      </trkpt>
      <trkpt lat="47.37264" lon="6.45633">
        <ele>261.35</ele>
        <time>2016-09-05T13:32:48.000Z</time>
      </trkpt>
      <trkpt lat="47.37262" lon="6.4563">
        <ele>261.064</ele>
        <time>2016-09-05T13:32:49.000Z</time>
      </trkpt>
      <trkpt lat="47.37259" lon="6.45626">
        <ele>260.78</ele>
        <time>2016-09-05T13:32:50.000Z</time>
      </trkpt>
      <trkpt lat="47.37256" lon="6.45622">
        <ele>260.497</ele>
        <time>2016-09-05T13:32:51.000Z</time>
      </trkpt>
      <trkpt lat="47.37256" lon="6.45622">
        <ele>260.497</ele>
        <time>2016-09-05T13:32:52.166Z</time>
      </trkpt>
      <trkpt lat="47.37254" lon="6.45619">
        <ele>260.693</ele>
        <time>2016-09-05T13:32:52.199Z</time>
      </trkpt>
      <trkpt lat="47.37251" lon="6.45614">
        <ele>261.126</ele>
        <time>2016-09-05T13:32:53.283Z</time>
      </trkpt>
      <trkpt lat="47.37248" lon="6.4561">
        <ele>261.269</ele>
        <time>2016-09-05T13:32:54.283Z</time>
      </trkpt>
      <trkpt lat="47.37246" lon="6.45606">
        <ele>262.075</ele>
        <time>2016-09-05T13:32:55.279Z</time>
      </trkpt>
      <trkpt lat="47.37243" lon="6.45603">
        <ele>262.418</ele>
        <time>2016-09-05T13:32:56.265Z</time>
      </trkpt>
      <trkpt lat="47.3724" lon="6.45599">
        <ele>263.234</ele>
        <time>2016-09-05T13:32:57.185Z</time>
      </trkpt>
      <trkpt lat="47.37237" lon="6.45595">
        <ele>262.735</ele>
        <time>2016-09-05T13:32:58.259Z</time>
      </trkpt>
      <trkpt lat="47.37234" lon="6.45592">
        <ele>262.559</ele>
        <time>2016-09-05T13:32:59.276Z</time>
      </trkpt>
      <trkpt lat="47.37231" lon="6.45589">
        <ele>262.135</ele>
        <time>2016-09-05T13:33:00.253Z</time>
      </trkpt>
      <trkpt lat="47.37228" lon="6.45586">
        <ele>261.958</ele>
        <time>2016-09-05T13:33:01.251Z</time>
      </trkpt>
      <trkpt lat="47.37224" lon="6.45582">
        <ele>262.613</ele>
        <time>2016-09-05T13:33:02.196Z</time>
      </trkpt>
      <trkpt lat="47.37221" lon="6.45579">
        <ele>262.802</ele>
        <time>2016-09-05T13:33:03.217Z</time>
      </trkpt>
      <trkpt lat="47.37218" lon="6.45576">
        <ele>262.764</ele>
        <time>2016-09-05T13:33:04.190Z</time>
      </trkpt>
      <trkpt lat="47.37215" lon="6.45572">
        <ele>262.108</ele>
        <time>2016-09-05T13:33:05.211Z</time>
      </trkpt>
      <trkpt lat="47.37212" lon="6.45569">
        <ele>262.702</ele>
        <time>2016-09-05T13:33:06.218Z</time>
      </trkpt>
      <trkpt lat="47.37209" lon="6.45566">
        <ele>262.639</ele>
        <time>2016-09-05T13:33:07.196Z</time>
      </trkpt>
      <trkpt lat="47.37206" lon="6.45563">
        <ele>262.403</ele>
        <time>2016-09-05T13:33:08.188Z</time>
      </trkpt>
      <trkpt lat="47.37202" lon="6.4556">
        <ele>262.601</ele>
        <time>2016-09-05T13:33:09.180Z</time>
      </trkpt>
      <trkpt lat="47.37199" lon="6.45557">
        <ele>262.796</ele>
        <time>2016-09-05T13:33:10.174Z</time>
      </trkpt>
      <trkpt lat="47.37196" lon="6.45554">
        <ele>262.715</ele>
        <time>2016-09-05T13:33:11.193Z</time>
      </trkpt>
      <trkpt lat="47.37193" lon="6.45552">
        <ele>262.178</ele>
        <time>2016-09-05T13:33:12.197Z</time>
      </trkpt>
      <trkpt lat="47.37189" lon="6.45551">
        <ele>262.315</ele>
        <time>2016-09-05T13:33:13.197Z</time>
      </trkpt>
      <trkpt lat="47.37186" lon="6.45547">
        <ele>262.404</ele>
        <time>2016-09-05T13:33:14.197Z</time>
      </trkpt>
      <trkpt lat="47.37183" lon="6.45544">
        <ele>262.494</ele>
        <time>2016-09-05T13:33:15.197Z</time>
      </trkpt>
      <trkpt lat="47.3718" lon="6.45541">
        <ele>262.585</ele>
        <time>2016-09-05T13:33:16.197Z</time>
      </trkpt>
      <trkpt lat="47.37177" lon="6.45538">
        <ele>262.678</ele>
        <time>2016-09-05T13:33:17.197Z</time>
      </trkpt>
      <trkpt lat="47.37174" lon="6.45535">
        <ele>262.774</ele>
        <time>2016-09-05T13:33:18.197Z</time>
      </trkpt>
      <trkpt lat="47.37171" lon="6.45532">
        <ele>262.874</ele>
        <time>2016-09-05T13:33:19.197Z</time>
      </trkpt>
      <trkpt lat="47.37168" lon="6.45529">
        <ele>262.98</ele>
        <time>2016-09-05T13:33:20.197Z</time>
      </trkpt>
      <trkpt lat="47.37164" lon="6.45526">
        <ele>263.091</ele>
        <time>2016-09-05T13:33:21.197Z</time>
      </trkpt>
      <trkpt lat="47.37161" lon="6.45523">
        <ele>263.208</ele>
        <time>2016-09-05T13:33:22.197Z</time>
      </trkpt>
      <trkpt lat="47.37158" lon="6.4552">
        <ele>263.33</ele>
        <time>2016-09-05T13:33:23.197Z</time>
      </trkpt>
      <trkpt lat="47.37155" lon="6.45517">
        <ele>263.457</ele>
        <time>2016-09-05T13:33:24.197Z</time>
      </trkpt>
      <trkpt lat="47.37152" lon="6.45514">
        <ele>263.588</ele>
        <time>2016-09-05T13:33:25.197Z</time>
      </trkpt>
      <trkpt lat="47.37149" lon="6.45511">
        <ele>263.722</ele>
        <time>2016-09-05T13:33:26.197Z</time>
      </trkpt>
      <trkpt lat="47.37146" lon="6.45509">
        <ele>263.857</ele>
        <time>2016-09-05T13:33:27.197Z</time>
      </trkpt>
      <trkpt lat="47.37143" lon="6.45506">
        <ele>263.992</ele>
        <time>2016-09-05T13:33:28.197Z</time>
      </trkpt>
      <trkpt lat="47.37139" lon="6.45503">
        <ele>264.127</ele>
        <time>2016-09-05T13:33:29.197Z</time>
      </trkpt>
      <trkpt lat="47.37136" lon="6.455">
        <ele>264.259</ele>
        <time>2016-09-05T13:33:30.197Z</time>
      </trkpt>
      <trkpt lat="47.37133" lon="6.45497">
        <ele>264.384</ele>
        <time>2016-09-05T13:33:31.197Z</time>
      </trkpt>
      <trkpt lat="47.37129" lon="6.45493">
        <ele>264.501</ele>
        <time>2016-09-05T13:33:32.197Z</time>
      </trkpt>
      <trkpt lat="47.37126" lon="6.4549">
        <ele>264.606</ele>
        <time>2016-09-05T13:33:33.197Z</time>
      </trkpt>
      <trkpt lat="47.37123" lon="6.45487">
        <ele>264.698</ele>
        <time>2016-09-05T13:33:34.197Z</time>
      </trkpt>
      <trkpt lat="47.3712" lon="6.45484">
        <ele>264.776</ele>
        <time>2016-09-05T13:33:35.197Z</time>
      </trkpt>
      <trkpt lat="47.37116" lon="6.45481">
        <ele>264.836</ele>
        <time>2016-09-05T13:33:36.197Z</time>
      </trkpt>
      <trkpt lat="47.37113" lon="6.45478">
        <ele>264.881</ele>
        <time>2016-09-05T13:33:37.197Z</time>
      </trkpt>
      <trkpt lat="47.3711" lon="6.45476">
        <ele>264.91</ele>
        <time>2016-09-05T13:33:38.197Z</time>
      </trkpt>
      <trkpt lat="47.37107" lon="6.45473">
        <ele>264.925</ele>
        <time>2016-09-05T13:33:39.197Z</time>
      </trkpt>
      <trkpt lat="47.37104" lon="6.4547">
        <ele>264.928</ele>
        <time>2016-09-05T13:33:40.197Z</time>
      </trkpt>
      <trkpt lat="47.371" lon="6.45467">
        <ele>264.919</ele>
        <time>2016-09-05T13:33:41.197Z</time>
      </trkpt>
      <trkpt lat="47.37097" lon="6.45465">
        <ele>264.899</ele>
        <time>2016-09-05T13:33:42.197Z</time>
      </trkpt>
      <trkpt lat="47.37094" lon="6.45462">
        <ele>264.87</ele>
        <time>2016-09-05T13:33:43.197Z</time>
      </trkpt>
      <trkpt lat="47.3709" lon="6.45459">
        <ele>264.831</ele>
        <time>2016-09-05T13:33:44.197Z</time>
      </trkpt>
      <trkpt lat="47.37087" lon="6.45456">
        <ele>264.785</ele>
        <time>2016-09-05T13:33:45.197Z</time>
      </trkpt>
      <trkpt lat="47.37084" lon="6.45452">
        <ele>264.734</ele>
        <time>2016-09-05T13:33:46.197Z</time>
      </trkpt>
      <trkpt lat="47.3708" lon="6.45449">
        <ele>264.68</ele>
        <time>2016-09-05T13:33:47.197Z</time>
      </trkpt>
      <trkpt lat="47.37076" lon="6.45447">
        <ele>264.625</ele>
        <time>2016-09-05T13:33:48.197Z</time>
      </trkpt>
      <trkpt lat="47.37072" lon="6.45444">
        <ele>264.571</ele>
        <time>2016-09-05T13:33:49.197Z</time>
      </trkpt>
      <trkpt lat="47.37068" lon="6.45441">
        <ele>264.518</ele>
        <time>2016-09-05T13:33:50.197Z</time>
      </trkpt>
      <trkpt lat="47.37065" lon="6.45437">
        <ele>264.467</ele>
        <time>2016-09-05T13:33:51.197Z</time>
      </trkpt>
      <trkpt lat="47.37062" lon="6.45432">
        <ele>264.418</ele>
        <time>2016-09-05T13:33:52.197Z</time>
      </trkpt>
      <trkpt lat="47.37059" lon="6.45428">
        <ele>264.37</ele>
        <time>2016-09-05T13:33:53.197Z</time>
      </trkpt>
      <trkpt lat="47.37045" lon="6.45426">
        <ele>266.492</ele>
        <time>2016-09-05T13:33:55.178Z</time>
      </trkpt>
      <trkpt lat="47.37043" lon="6.45422">
        <ele>265.956</ele>
        <time>2016-09-05T13:33:56.177Z</time>
      </trkpt>
      <trkpt lat="47.37039" lon="6.45419">
        <ele>265.963</ele>
        <time>2016-09-05T13:33:57.257Z</time>
      </trkpt>
      <trkpt lat="47.37037" lon="6.45415">
        <ele>265.506</ele>
        <time>2016-09-05T13:33:58.261Z</time>
      </trkpt>
      <trkpt lat="47.37033" lon="6.45412">
        <ele>265.396</ele>
        <time>2016-09-05T13:33:59.247Z</time>
      </trkpt>
      <trkpt lat="47.3703" lon="6.45409">
        <ele>264.383</ele>
        <time>2016-09-05T13:34:00.244Z</time>
      </trkpt>
      <trkpt lat="47.37026" lon="6.45406">
        <ele>264.637</ele>
        <time>2016-09-05T13:34:01.198Z</time>
      </trkpt>
      <trkpt lat="47.37021" lon="6.45404">
        <ele>266.277</ele>
        <time>2016-09-05T13:34:02.189Z</time>
      </trkpt>
      <trkpt lat="47.37017" lon="6.45401">
        <ele>266.933</ele>
        <time>2016-09-05T13:34:03.194Z</time>
      </trkpt>
      <trkpt lat="47.37013" lon="6.45398">
        <ele>266.98</ele>
        <time>2016-09-05T13:34:04.145Z</time>
      </trkpt>
      <trkpt lat="47.37009" lon="6.45396">
        <ele>266.497</ele>
        <time>2016-09-05T13:34:05.402Z</time>
      </trkpt>
      <trkpt lat="47.37006" lon="6.45393">
        <ele>266.444</ele>
        <time>2016-09-05T13:34:06.616Z</time>
      </trkpt>
      <trkpt lat="47.37002" lon="6.4539">
        <ele>266.936</ele>
        <time>2016-09-05T13:34:07.594Z</time>
      </trkpt>
      <trkpt lat="47.36998" lon="6.45388">
        <ele>267.2</ele>
        <time>2016-09-05T13:34:08.441Z</time>
      </trkpt>
      <trkpt lat="47.36995" lon="6.45386">
        <ele>267.188</ele>
        <time>2016-09-05T13:34:09.338Z</time>
      </trkpt>
      <trkpt lat="47.36991" lon="6.45383">
        <ele>267.26</ele>
        <time>2016-09-05T13:34:10.327Z</time>
      </trkpt>
      <trkpt lat="47.36987" lon="6.45381">
        <ele>266.875</ele>
        <time>2016-09-05T13:34:11.352Z</time>
      </trkpt>
      <trkpt lat="47.36984" lon="6.45378">
        <ele>266.655</ele>
        <time>2016-09-05T13:34:12.314Z</time>
      </trkpt>
      <trkpt lat="47.3698" lon="6.45376">
        <ele>267.282</ele>
        <time>2016-09-05T13:34:13.228Z</time>
      </trkpt>
      <trkpt lat="47.36974" lon="6.45377">
        <ele>267.974</ele>
        <time>2016-09-05T13:34:14.228Z</time>
      </trkpt>
      <trkpt lat="47.36971" lon="6.45373">
        <ele>267.984</ele>
        <time>2016-09-05T13:34:15.228Z</time>
      </trkpt>
      <trkpt lat="47.36968" lon="6.4537">
        <ele>267.993</ele>
        <time>2016-09-05T13:34:16.228Z</time>
      </trkpt>
      <trkpt lat="47.36965" lon="6.45367">
        <ele>268.001</ele>
        <time>2016-09-05T13:34:17.228Z</time>
      </trkpt>
      <trkpt lat="47.36962" lon="6.45364">
        <ele>268.008</ele>
        <time>2016-09-05T13:34:18.228Z</time>
      </trkpt>
      <trkpt lat="47.36959" lon="6.45362">
        <ele>268.015</ele>
        <time>2016-09-05T13:34:19.228Z</time>
      </trkpt>
      <trkpt lat="47.36955" lon="6.45359">
        <ele>268.023</ele>
        <time>2016-09-05T13:34:20.228Z</time>
      </trkpt>
      <trkpt lat="47.36951" lon="6.45358">
        <ele>268.034</ele>
        <time>2016-09-05T13:34:21.228Z</time>
      </trkpt>
      <trkpt lat="47.36947" lon="6.45357">
        <ele>268.047</ele>
        <time>2016-09-05T13:34:22.228Z</time>
      </trkpt>
      <trkpt lat="47.36943" lon="6.45355">
        <ele>268.063</ele>
        <time>2016-09-05T13:34:23.228Z</time>
      </trkpt>
      <trkpt lat="47.36939" lon="6.45353">
        <ele>268.081</ele>
        <time>2016-09-05T13:34:24.228Z</time>
      </trkpt>
      <trkpt lat="47.36936" lon="6.45351">
        <ele>268.102</ele>
        <time>2016-09-05T13:34:25.228Z</time>
      </trkpt>
      <trkpt lat="47.36932" lon="6.45349">
        <ele>268.128</ele>
        <time>2016-09-05T13:34:26.228Z</time>
      </trkpt>
      <trkpt lat="47.36929" lon="6.45347">
        <ele>268.16</ele>
        <time>2016-09-05T13:34:27.228Z</time>
      </trkpt>
      <trkpt lat="47.36926" lon="6.45345">
        <ele>268.199</ele>
        <time>2016-09-05T13:34:28.228Z</time>
      </trkpt>
      <trkpt lat="47.36922" lon="6.45343">
        <ele>268.246</ele>
        <time>2016-09-05T13:34:29.228Z</time>
      </trkpt>
      <trkpt lat="47.36919" lon="6.45341">
        <ele>268.3</ele>
        <time>2016-09-05T13:34:30.228Z</time>
      </trkpt>
      <trkpt lat="47.36915" lon="6.4534">
        <ele>268.358</ele>
        <time>2016-09-05T13:34:31.228Z</time>
      </trkpt>
      <trkpt lat="47.36911" lon="6.4534">
        <ele>268.42</ele>
        <time>2016-09-05T13:34:32.228Z</time>
      </trkpt>
      <trkpt lat="47.36907" lon="6.45338">
        <ele>268.482</ele>
        <time>2016-09-05T13:34:33.228Z</time>
      </trkpt>
      <trkpt lat="47.36903" lon="6.45337">
        <ele>268.545</ele>
        <time>2016-09-05T13:34:34.228Z</time>
      </trkpt>
      <trkpt lat="47.36899" lon="6.45336">
        <ele>268.606</ele>
        <time>2016-09-05T13:34:35.228Z</time>
      </trkpt>
      <trkpt lat="47.36895" lon="6.45335">
        <ele>268.664</ele>
        <time>2016-09-05T13:34:36.228Z</time>
      </trkpt>
      <trkpt lat="47.36891" lon="6.45334">
        <ele>268.718</ele>
        <time>2016-09-05T13:34:37.228Z</time>
      </trkpt>
      <trkpt lat="47.36887" lon="6.45333">
        <ele>268.768</ele>
        <time>2016-09-05T13:34:38.228Z</time>
      </trkpt>
      <trkpt lat="47.36883" lon="6.45332">
        <ele>268.814</ele>
        <time>2016-09-05T13:34:39.228Z</time>
      </trkpt>
      <trkpt lat="47.36879" lon="6.4533">
        <ele>268.855</ele>
        <time>2016-09-05T13:34:40.228Z</time>
      </trkpt>
      <trkpt lat="47.36875" lon="6.45328">
        <ele>268.894</ele>
        <time>2016-09-05T13:34:41.228Z</time>
      </trkpt>
      <trkpt lat="47.36871" lon="6.45327">
        <ele>268.93</ele>
        <time>2016-09-05T13:34:42.228Z</time>
      </trkpt>
      <trkpt lat="47.36867" lon="6.45326">
        <ele>268.964</ele>
        <time>2016-09-05T13:34:43.228Z</time>
      </trkpt>
      <trkpt lat="47.36862" lon="6.45326">
        <ele>268.995</ele>
        <time>2016-09-05T13:34:44.228Z</time>
      </trkpt>
      <trkpt lat="47.36858" lon="6.45326">
        <ele>269.022</ele>
        <time>2016-09-05T13:34:45.228Z</time>
      </trkpt>
      <trkpt lat="47.36854" lon="6.45326">
        <ele>269.046</ele>
        <time>2016-09-05T13:34:46.228Z</time>
      </trkpt>
      <trkpt lat="47.36851" lon="6.45324">
        <ele>269.064</ele>
        <time>2016-09-05T13:34:47.228Z</time>
      </trkpt>
      <trkpt lat="47.36847" lon="6.45323">
        <ele>269.076</ele>
        <time>2016-09-05T13:34:48.228Z</time>
      </trkpt>
      <trkpt lat="47.36844" lon="6.45322">
        <ele>269.083</ele>
        <time>2016-09-05T13:34:49.228Z</time>
      </trkpt>
      <trkpt lat="47.3684" lon="6.45323">
        <ele>269.084</ele>
        <time>2016-09-05T13:34:50.228Z</time>
      </trkpt>
      <trkpt lat="47.36836" lon="6.45324">
        <ele>269.082</ele>
        <time>2016-09-05T13:34:51.228Z</time>
      </trkpt>
      <trkpt lat="47.36832" lon="6.45323">
        <ele>269.078</ele>
        <time>2016-09-05T13:34:52.228Z</time>
      </trkpt>
      <trkpt lat="47.3683" lon="6.45321">
        <ele>269.074</ele>
        <time>2016-09-05T13:34:53.228Z</time>
      </trkpt>
      <trkpt lat="47.36829" lon="6.45317">
        <ele>269.07</ele>
        <time>2016-09-05T13:34:54.228Z</time>
      </trkpt>
      <trkpt lat="47.36822" lon="6.45324">
        <ele>269.55</ele>
        <time>2016-09-05T13:34:55.304Z</time>
      </trkpt>
      <trkpt lat="47.36818" lon="6.45324">
        <ele>270.297</ele>
        <time>2016-09-05T13:34:56.368Z</time>
      </trkpt>
      <trkpt lat="47.36814" lon="6.45325">
        <ele>270.639</ele>
        <time>2016-09-05T13:34:57.489Z</time>
      </trkpt>
      <trkpt lat="47.3681" lon="6.45325">
        <ele>269.508</ele>
        <time>2016-09-05T13:34:58.317Z</time>
      </trkpt>
      <trkpt lat="47.36806" lon="6.45326">
        <ele>268.836</ele>
        <time>2016-09-05T13:34:59.193Z</time>
      </trkpt>
      <trkpt lat="47.36802" lon="6.45326">
        <ele>269.414</ele>
        <time>2016-09-05T13:35:00.200Z</time>
      </trkpt>
      <trkpt lat="47.36798" lon="6.45326">
        <ele>269.362</ele>
        <time>2016-09-05T13:35:01.189Z</time>
      </trkpt>
      <trkpt lat="47.36794" lon="6.45325">
        <ele>269.258</ele>
        <time>2016-09-05T13:35:02.200Z</time>
      </trkpt>
      <trkpt lat="47.36791" lon="6.45326">
        <ele>269.19</ele>
        <time>2016-09-05T13:35:03.343Z</time>
      </trkpt>
      <trkpt lat="47.36785" lon="6.45324">
        <ele>268.464</ele>
        <time>2016-09-05T13:35:04.352Z</time>
      </trkpt>
      <trkpt lat="47.3678" lon="6.45322">
        <ele>267.951</ele>
        <time>2016-09-05T13:35:05.200Z</time>
      </trkpt>
      <trkpt lat="47.36775" lon="6.45321">
        <ele>268.067</ele>
        <time>2016-09-05T13:35:06.198Z</time>
      </trkpt>
      <trkpt lat="47.36771" lon="6.4532">
        <ele>269.07</ele>
        <time>2016-09-05T13:35:07.217Z</time>
      </trkpt>
      <trkpt lat="47.36767" lon="6.45319">
        <ele>269.646</ele>
        <time>2016-09-05T13:35:08.209Z</time>
      </trkpt>
      <trkpt lat="47.36762" lon="6.45319">
        <ele>269.847</ele>
        <time>2016-09-05T13:35:09.205Z</time>
      </trkpt>
      <trkpt lat="47.36758" lon="6.45318">
        <ele>269.994</ele>
        <time>2016-09-05T13:35:10.296Z</time>
      </trkpt>
      <trkpt lat="47.36752" lon="6.45316">
        <ele>269.437</ele>
        <time>2016-09-05T13:35:11.287Z</time>
      </trkpt>
      <trkpt lat="47.36748" lon="6.45317">
        <ele>269.963</ele>
        <time>2016-09-05T13:35:12.325Z</time>
      </trkpt>
      <trkpt lat="47.36745" lon="6.45317">
        <ele>269.128</ele>
        <time>2016-09-05T13:35:13.341Z</time>
      </trkpt>
      <trkpt lat="47.3674" lon="6.45316">
        <ele>269.731</ele>
        <time>2016-09-05T13:35:14.209Z</time>
      </trkpt>
      <trkpt lat="47.36737" lon="6.45316">
        <ele>269.573</ele>
        <time>2016-09-05T13:35:15.213Z</time>
      </trkpt>
      <trkpt lat="47.3673" lon="6.45321">
        <ele>269.366</ele>
        <time>2016-09-05T13:35:16.213Z</time>
      </trkpt>
      <trkpt lat="47.36728" lon="6.45319">
        <ele>269.201</ele>
        <time>2016-09-05T13:35:17.213Z</time>
      </trkpt>
      <trkpt lat="47.36725" lon="6.45318">
        <ele>269.036</ele>
        <time>2016-09-05T13:35:18.213Z</time>
      </trkpt>
      <trkpt lat="47.36721" lon="6.45317">
        <ele>268.87</ele>
        <time>2016-09-05T13:35:19.213Z</time>
      </trkpt>
      <trkpt lat="47.36718" lon="6.45317">
        <ele>268.705</ele>
        <time>2016-09-05T13:35:20.213Z</time>
      </trkpt>
      <trkpt lat="47.36714" lon="6.45317">
        <ele>268.54</ele>
        <time>2016-09-05T13:35:21.213Z</time>
      </trkpt>
      <trkpt lat="47.36711" lon="6.45316">
        <ele>268.376</ele>
        <time>2016-09-05T13:35:22.213Z</time>
      </trkpt>
      <trkpt lat="47.36707" lon="6.45316">
        <ele>268.216</ele>
        <time>2016-09-05T13:35:23.213Z</time>
      </trkpt>
      <trkpt lat="47.36703" lon="6.45315">
        <ele>268.061</ele>
        <time>2016-09-05T13:35:24.213Z</time>
      </trkpt>
      <trkpt lat="47.36699" lon="6.45316">
        <ele>267.91</ele>
        <time>2016-09-05T13:35:25.213Z</time>
      </trkpt>
      <trkpt lat="47.36695" lon="6.45315">
        <ele>267.765</ele>
        <time>2016-09-05T13:35:26.213Z</time>
      </trkpt>
      <trkpt lat="47.36692" lon="6.45315">
        <ele>267.627</ele>
        <time>2016-09-05T13:35:27.213Z</time>
      </trkpt>
      <trkpt lat="47.36688" lon="6.45315">
        <ele>267.497</ele>
        <time>2016-09-05T13:35:28.213Z</time>
      </trkpt>
      <trkpt lat="47.36684" lon="6.45314">
        <ele>267.377</ele>
        <time>2016-09-05T13:35:29.213Z</time>
      </trkpt>
      <trkpt lat="47.3668" lon="6.45313">
        <ele>267.267</ele>
        <time>2016-09-05T13:35:30.213Z</time>
      </trkpt>
      <trkpt lat="47.36676" lon="6.45313">
        <ele>267.171</ele>
        <time>2016-09-05T13:35:31.213Z</time>
      </trkpt>
      <trkpt lat="47.36672" lon="6.45314">
        <ele>267.089</ele>
        <time>2016-09-05T13:35:32.213Z</time>
      </trkpt>
      <trkpt lat="47.36668" lon="6.45315">
        <ele>267.026</ele>
        <time>2016-09-05T13:35:33.213Z</time>
      </trkpt>
      <trkpt lat="47.36663" lon="6.45316">
        <ele>266.982</ele>
        <time>2016-09-05T13:35:34.213Z</time>
      </trkpt>
      <trkpt lat="47.3666" lon="6.45315">
        <ele>266.959</ele>
        <time>2016-09-05T13:35:35.213Z</time>
      </trkpt>
      <trkpt lat="47.36657" lon="6.45313">
        <ele>266.959</ele>
        <time>2016-09-05T13:35:36.213Z</time>
      </trkpt>
      <trkpt lat="47.36654" lon="6.45312">
        <ele>266.983</ele>
        <time>2016-09-05T13:35:37.213Z</time>
      </trkpt>
      <trkpt lat="47.3665" lon="6.45312">
        <ele>267.033</ele>
        <time>2016-09-05T13:35:38.213Z</time>
      </trkpt>
      <trkpt lat="47.36646" lon="6.45313">
        <ele>267.11</ele>
        <time>2016-09-05T13:35:39.213Z</time>
      </trkpt>
      <trkpt lat="47.36642" lon="6.45313">
        <ele>267.216</ele>
        <time>2016-09-05T13:35:40.213Z</time>
      </trkpt>
      <trkpt lat="47.36639" lon="6.45314">
        <ele>267.35</ele>
        <time>2016-09-05T13:35:41.213Z</time>
      </trkpt>
      <trkpt lat="47.36635" lon="6.45314">
        <ele>267.511</ele>
        <time>2016-09-05T13:35:42.213Z</time>
      </trkpt>
      <trkpt lat="47.3663" lon="6.45314">
        <ele>267.699</ele>
        <time>2016-09-05T13:35:43.213Z</time>
      </trkpt>
      <trkpt lat="47.36627" lon="6.45314">
        <ele>267.912</ele>
        <time>2016-09-05T13:35:44.213Z</time>
      </trkpt>
      <trkpt lat="47.36623" lon="6.45313">
        <ele>268.149</ele>
        <time>2016-09-05T13:35:45.213Z</time>
      </trkpt>
      <trkpt lat="47.36619" lon="6.45314">
        <ele>268.408</ele>
        <time>2016-09-05T13:35:46.213Z</time>
      </trkpt>
      <trkpt lat="47.36614" lon="6.45315">
        <ele>268.689</ele>
        <time>2016-09-05T13:35:47.213Z</time>
      </trkpt>
      <trkpt lat="47.3661" lon="6.45315">
        <ele>268.99</ele>
        <time>2016-09-05T13:35:48.213Z</time>
      </trkpt>
      <trkpt lat="47.36606" lon="6.45314">
        <ele>269.308</ele>
        <time>2016-09-05T13:35:49.213Z</time>
      </trkpt>
      <trkpt lat="47.36602" lon="6.45315">
        <ele>269.643</ele>
        <time>2016-09-05T13:35:50.213Z</time>
      </trkpt>
      <trkpt lat="47.36598" lon="6.45314">
        <ele>269.99</ele>
        <time>2016-09-05T13:35:51.213Z</time>
      </trkpt>
      <trkpt lat="47.36594" lon="6.45313">
        <ele>270.348</ele>
        <time>2016-09-05T13:35:52.213Z</time>
      </trkpt>
      <trkpt lat="47.3659" lon="6.45313">
        <ele>270.713</ele>
        <time>2016-09-05T13:35:53.213Z</time>
      </trkpt>
      <trkpt lat="47.36586" lon="6.45313">
        <ele>271.082</ele>
        <time>2016-09-05T13:35:54.213Z</time>
      </trkpt>
      <trkpt lat="47.36583" lon="6.45311">
        <ele>271.454</ele>
        <time>2016-09-05T13:35:55.213Z</time>
      </trkpt>
      <trkpt lat="47.3658" lon="6.45307">
        <ele>271.826</ele>
        <time>2016-09-05T13:35:56.213Z</time>
      </trkpt>
      <trkpt lat="47.36574" lon="6.45311">
        <ele>272.736</ele>
        <time>2016-09-05T13:35:57.210Z</time>
      </trkpt>
      <trkpt lat="47.3657" lon="6.4531">
        <ele>271.834</ele>
        <time>2016-09-05T13:35:58.199Z</time>
      </trkpt>
      <trkpt lat="47.36567" lon="6.4531">
        <ele>271.055</ele>
        <time>2016-09-05T13:35:59.198Z</time>
      </trkpt>
      <trkpt lat="47.36563" lon="6.4531">
        <ele>271.037</ele>
        <time>2016-09-05T13:36:00.246Z</time>
      </trkpt>
      <trkpt lat="47.3656" lon="6.45309">
        <ele>270.793</ele>
        <time>2016-09-05T13:36:01.246Z</time>
      </trkpt>
      <trkpt lat="47.36556" lon="6.45308">
        <ele>268.926</ele>
        <time>2016-09-05T13:36:02.195Z</time>
      </trkpt>
      <trkpt lat="47.36553" lon="6.45306">
        <ele>268.788</ele>
        <time>2016-09-05T13:36:03.199Z</time>
      </trkpt>
      <trkpt lat="47.36549" lon="6.45305">
        <ele>268.637</ele>
        <time>2016-09-05T13:36:04.194Z</time>
      </trkpt>
      <trkpt lat="47.36545" lon="6.45304">
        <ele>268.027</ele>
        <time>2016-09-05T13:36:05.185Z</time>
      </trkpt>
      <trkpt lat="47.36541" lon="6.45302">
        <ele>268.073</ele>
        <time>2016-09-05T13:36:06.185Z</time>
      </trkpt>
      <trkpt lat="47.36538" lon="6.45301">
        <ele>267.884</ele>
        <time>2016-09-05T13:36:07.282Z</time>
      </trkpt>
      <trkpt lat="47.36534" lon="6.45299">
        <ele>267.308</ele>
        <time>2016-09-05T13:36:08.287Z</time>
      </trkpt>
      <trkpt lat="47.3653" lon="6.45298">
        <ele>267.225</ele>
        <time>2016-09-05T13:36:09.196Z</time>
      </trkpt>
      <trkpt lat="47.36524" lon="6.45298">
        <ele>266.867</ele>
        <time>2016-09-05T13:36:10.210Z</time>
      </trkpt>
      <trkpt lat="47.36519" lon="6.45297">
        <ele>266.445</ele>
        <time>2016-09-05T13:36:11.199Z</time>
      </trkpt>
      <trkpt lat="47.36513" lon="6.45296">
        <ele>264.848</ele>
        <time>2016-09-05T13:36:12.196Z</time>
      </trkpt>
      <trkpt lat="47.36509" lon="6.45293">
        <ele>264.36</ele>
        <time>2016-09-05T13:36:13.193Z</time>
      </trkpt>
      <trkpt lat="47.36504" lon="6.45291">
        <ele>264.806</ele>
        <time>2016-09-05T13:36:14.261Z</time>
      </trkpt>
      <trkpt lat="47.36501" lon="6.45291">
        <ele>264.871</ele>
        <time>2016-09-05T13:36:15.268Z</time>
      </trkpt>
      <trkpt lat="47.36498" lon="6.45291">
        <ele>266.515</ele>
        <time>2016-09-05T13:36:16.262Z</time>
      </trkpt>
      <trkpt lat="47.36495" lon="6.4529">
        <ele>266.082</ele>
        <time>2016-09-05T13:36:17.251Z</time>
      </trkpt>
      <trkpt lat="47.36488" lon="6.45295">
        <ele>266.779</ele>
        <time>2016-09-05T13:36:18.251Z</time>
      </trkpt>
      <trkpt lat="47.36486" lon="6.45291">
        <ele>266.893</ele>
        <time>2016-09-05T13:36:19.251Z</time>
      </trkpt>
      <trkpt lat="47.36483" lon="6.45288">
        <ele>267.009</ele>
        <time>2016-09-05T13:36:20.251Z</time>
      </trkpt>
      <trkpt lat="47.36479" lon="6.45286">
        <ele>267.125</ele>
        <time>2016-09-05T13:36:21.251Z</time>
      </trkpt>
      <trkpt lat="47.36476" lon="6.45285">
        <ele>267.243</ele>
        <time>2016-09-05T13:36:22.251Z</time>
      </trkpt>
      <trkpt lat="47.36472" lon="6.45284">
        <ele>267.36</ele>
        <time>2016-09-05T13:36:23.251Z</time>
      </trkpt>
      <trkpt lat="47.36468" lon="6.45283">
        <ele>267.476</ele>
        <time>2016-09-05T13:36:24.251Z</time>
      </trkpt>
      <trkpt lat="47.36464" lon="6.45283">
        <ele>267.592</ele>
        <time>2016-09-05T13:36:25.251Z</time>
      </trkpt>
      <trkpt lat="47.36459" lon="6.45282">
        <ele>267.707</ele>
        <time>2016-09-05T13:36:26.251Z</time>
      </trkpt>
      <trkpt lat="47.36455" lon="6.4528">
        <ele>267.822</ele>
        <time>2016-09-05T13:36:27.251Z</time>
      </trkpt>
      <trkpt lat="47.36451" lon="6.45278">
        <ele>267.936</ele>
        <time>2016-09-05T13:36:28.251Z</time>
      </trkpt>
      <trkpt lat="47.36447" lon="6.45275">
        <ele>268.052</ele>
        <time>2016-09-05T13:36:29.251Z</time>
      </trkpt>
      <trkpt lat="47.36443" lon="6.45274">
        <ele>268.167</ele>
        <time>2016-09-05T13:36:30.251Z</time>
      </trkpt>
      <trkpt lat="47.36439" lon="6.45272">
        <ele>268.28</ele>
        <time>2016-09-05T13:36:31.251Z</time>
      </trkpt>
      <trkpt lat="47.36434" lon="6.45271">
        <ele>268.391</ele>
        <time>2016-09-05T13:36:32.251Z</time>
      </trkpt>
      <trkpt lat="47.3643" lon="6.45268">
        <ele>268.498</ele>
        <time>2016-09-05T13:36:33.251Z</time>
      </trkpt>
      <trkpt lat="47.36426" lon="6.45265">
        <ele>268.598</ele>
        <time>2016-09-05T13:36:34.251Z</time>
      </trkpt>
      <trkpt lat="47.36422" lon="6.45264">
        <ele>268.691</ele>
        <time>2016-09-05T13:36:35.251Z</time>
      </trkpt>
      <trkpt lat="47.36417" lon="6.45263">
        <ele>268.774</ele>
        <time>2016-09-05T13:36:36.251Z</time>
      </trkpt>
      <trkpt lat="47.36413" lon="6.45261">
        <ele>268.844</ele>
        <time>2016-09-05T13:36:37.251Z</time>
      </trkpt>
      <trkpt lat="47.3641" lon="6.45258">
        <ele>268.898</ele>
        <time>2016-09-05T13:36:38.251Z</time>
      </trkpt>
      <trkpt lat="47.36406" lon="6.45256">
        <ele>268.933</ele>
        <time>2016-09-05T13:36:39.251Z</time>
      </trkpt>
      <trkpt lat="47.36402" lon="6.45256">
        <ele>268.949</ele>
        <time>2016-09-05T13:36:40.251Z</time>
      </trkpt>
      <trkpt lat="47.36398" lon="6.45255">
        <ele>268.944</ele>
        <time>2016-09-05T13:36:41.251Z</time>
      </trkpt>
      <trkpt lat="47.36393" lon="6.45255">
        <ele>268.921</ele>
        <time>2016-09-05T13:36:42.251Z</time>
      </trkpt>
      <trkpt lat="47.36388" lon="6.45254">
        <ele>268.881</ele>
        <time>2016-09-05T13:36:43.251Z</time>
      </trkpt>
      <trkpt lat="47.36383" lon="6.45253">
        <ele>268.825</ele>
        <time>2016-09-05T13:36:44.251Z</time>
      </trkpt>
      <trkpt lat="47.36379" lon="6.45251">
        <ele>268.755</ele>
        <time>2016-09-05T13:36:45.251Z</time>
      </trkpt>
      <trkpt lat="47.36375" lon="6.45247">
        <ele>268.673</ele>
        <time>2016-09-05T13:36:46.251Z</time>
      </trkpt>
      <trkpt lat="47.36372" lon="6.45243">
        <ele>268.579</ele>
        <time>2016-09-05T13:36:47.251Z</time>
      </trkpt>
      <trkpt lat="47.36368" lon="6.45239">
        <ele>268.477</ele>
        <time>2016-09-05T13:36:48.251Z</time>
      </trkpt>
      <trkpt lat="47.36364" lon="6.45236">
        <ele>268.366</ele>
        <time>2016-09-05T13:36:49.251Z</time>
      </trkpt>
      <trkpt lat="47.3636" lon="6.45232">
        <ele>268.251</ele>
        <time>2016-09-05T13:36:50.251Z</time>
      </trkpt>
      <trkpt lat="47.36356" lon="6.45229">
        <ele>268.132</ele>
        <time>2016-09-05T13:36:51.251Z</time>
      </trkpt>
      <trkpt lat="47.36352" lon="6.45225">
        <ele>268.011</ele>
        <time>2016-09-05T13:36:52.251Z</time>
      </trkpt>
      <trkpt lat="47.36349" lon="6.45221">
        <ele>267.889</ele>
        <time>2016-09-05T13:36:53.251Z</time>
      </trkpt>
      <trkpt lat="47.36345" lon="6.45217">
        <ele>267.764</ele>
        <time>2016-09-05T13:36:54.251Z</time>
      </trkpt>
      <trkpt lat="47.36342" lon="6.45213">
        <ele>267.639</ele>
        <time>2016-09-05T13:36:55.251Z</time>
      </trkpt>
      <trkpt lat="47.36339" lon="6.45209">
        <ele>267.512</ele>
        <time>2016-09-05T13:36:56.251Z</time>
      </trkpt>
      <trkpt lat="47.36336" lon="6.45206">
        <ele>267.386</ele>
        <time>2016-09-05T13:36:57.251Z</time>
      </trkpt>
      <trkpt lat="47.36333" lon="6.45202">
        <ele>267.26</ele>
        <time>2016-09-05T13:36:58.251Z</time>
      </trkpt>
      <trkpt lat="47.36327" lon="6.45196">
        <ele>266.583</ele>
        <time>2016-09-05T13:37:00.211Z</time>
      </trkpt>
      <trkpt lat="47.36324" lon="6.45192">
        <ele>266.717</ele>
        <time>2016-09-05T13:37:01.197Z</time>
      </trkpt>
      <trkpt lat="47.36321" lon="6.45188">
        <ele>267.648</ele>
        <time>2016-09-05T13:37:02.286Z</time>
      </trkpt>
      <trkpt lat="47.36319" lon="6.45185">
        <ele>268.092</ele>
        <time>2016-09-05T13:37:03.307Z</time>
      </trkpt>
      <trkpt lat="47.36316" lon="6.45181">
        <ele>267.888</ele>
        <time>2016-09-05T13:37:04.267Z</time>
      </trkpt>
      <trkpt lat="47.36313" lon="6.45176">
        <ele>268.822</ele>
        <time>2016-09-05T13:37:05.270Z</time>
      </trkpt>
      <trkpt lat="47.3631" lon="6.45172">
        <ele>268.911</ele>
        <time>2016-09-05T13:37:06.206Z</time>
      </trkpt>
      <trkpt lat="47.36306" lon="6.45167">
        <ele>268.556</ele>
        <time>2016-09-05T13:37:07.210Z</time>
      </trkpt>
      <trkpt lat="47.36302" lon="6.45163">
        <ele>268.836</ele>
        <time>2016-09-05T13:37:08.209Z</time>
      </trkpt>
      <trkpt lat="47.36298" lon="6.45158">
        <ele>268.471</ele>
        <time>2016-09-05T13:37:09.185Z</time>
      </trkpt>
      <trkpt lat="47.36295" lon="6.45155">
        <ele>267.685</ele>
        <time>2016-09-05T13:37:10.191Z</time>
      </trkpt>
      <trkpt lat="47.36292" lon="6.45151">
        <ele>268.768</ele>
        <time>2016-09-05T13:37:11.267Z</time>
      </trkpt>
      <trkpt lat="47.36288" lon="6.45145">
        <ele>269.085</ele>
        <time>2016-09-05T13:37:12.278Z</time>
      </trkpt>
      <trkpt lat="47.36285" lon="6.45141">
        <ele>269.445</ele>
        <time>2016-09-05T13:37:13.197Z</time>
      </trkpt>
      <trkpt lat="47.36282" lon="6.45137">
        <ele>269.054</ele>
        <time>2016-09-05T13:37:14.193Z</time>
      </trkpt>
      <trkpt lat="47.36277" lon="6.4513">
        <ele>269.173</ele>
        <time>2016-09-05T13:37:15.198Z</time>
      </trkpt>
      <trkpt lat="47.36276" lon="6.45127">
        <ele>269.987</ele>
        <time>2016-09-05T13:37:16.191Z</time>
      </trkpt>
      <trkpt lat="47.36266" lon="6.45117">
        <ele>264.57</ele>
        <time>2016-09-05T13:37:17.204Z</time>
      </trkpt>
      <trkpt lat="47.36263" lon="6.45109">
        <ele>266.807</ele>
        <time>2016-09-05T13:37:18.373Z</time>
      </trkpt>
      <trkpt lat="47.36261" lon="6.45101">
        <ele>269.26</ele>
        <time>2016-09-05T13:37:19.373Z</time>
      </trkpt>
      <trkpt lat="47.36258" lon="6.45095">
        <ele>269.547</ele>
        <time>2016-09-05T13:37:20.373Z</time>
      </trkpt>
      <trkpt lat="47.36255" lon="6.45088">
        <ele>269.833</ele>
        <time>2016-09-05T13:37:21.373Z</time>
      </trkpt>
      <trkpt lat="47.36253" lon="6.4508">
        <ele>270.118</ele>
        <time>2016-09-05T13:37:22.373Z</time>
      </trkpt>
      <trkpt lat="47.36252" lon="6.45073">
        <ele>270.402</ele>
        <time>2016-09-05T13:37:23.373Z</time>
      </trkpt>
      <trkpt lat="47.3625" lon="6.45066">
        <ele>270.683</ele>
        <time>2016-09-05T13:37:24.373Z</time>
      </trkpt>
      <trkpt lat="47.36249" lon="6.45061">
        <ele>270.962</ele>
        <time>2016-09-05T13:37:25.373Z</time>
      </trkpt>
      <trkpt lat="47.36248" lon="6.45055">
        <ele>271.236</ele>
        <time>2016-09-05T13:37:26.373Z</time>
      </trkpt>
      <trkpt lat="47.36247" lon="6.4505">
        <ele>271.507</ele>
        <time>2016-09-05T13:37:27.373Z</time>
      </trkpt>
      <trkpt lat="47.36247" lon="6.45044">
        <ele>271.774</ele>
        <time>2016-09-05T13:37:28.373Z</time>
      </trkpt>
      <trkpt lat="47.36247" lon="6.45039">
        <ele>272.038</ele>
        <time>2016-09-05T13:37:29.373Z</time>
      </trkpt>
      <trkpt lat="47.36247" lon="6.45032">
        <ele>272.3</ele>
        <time>2016-09-05T13:37:30.373Z</time>
      </trkpt>
      <trkpt lat="47.36247" lon="6.45025">
        <ele>272.562</ele>
        <time>2016-09-05T13:37:31.373Z</time>
      </trkpt>
      <trkpt lat="47.36247" lon="6.45018">
        <ele>272.826</ele>
        <time>2016-09-05T13:37:32.373Z</time>
      </trkpt>
      <trkpt lat="47.36246" lon="6.45011">
        <ele>273.091</ele>
        <time>2016-09-05T13:37:33.373Z</time>
      </trkpt>
      <trkpt lat="47.36246" lon="6.45004">
        <ele>273.359</ele>
        <time>2016-09-05T13:37:34.373Z</time>
      </trkpt>
      <trkpt lat="47.36246" lon="6.44997">
        <ele>273.631</ele>
        <time>2016-09-05T13:37:35.373Z</time>
      </trkpt>
      <trkpt lat="47.36245" lon="6.44991">
        <ele>273.906</ele>
        <time>2016-09-05T13:37:36.373Z</time>
      </trkpt>
      <trkpt lat="47.36244" lon="6.44986">
        <ele>274.185</ele>
        <time>2016-09-05T13:37:37.373Z</time>
      </trkpt>
      <trkpt lat="47.36244" lon="6.4498">
        <ele>274.469</ele>
        <time>2016-09-05T13:37:38.373Z</time>
      </trkpt>
      <trkpt lat="47.36243" lon="6.44973">
        <ele>274.758</ele>
        <time>2016-09-05T13:37:39.373Z</time>
      </trkpt>
      <trkpt lat="47.36242" lon="6.44967">
        <ele>275.052</ele>
        <time>2016-09-05T13:37:40.373Z</time>
      </trkpt>
      <trkpt lat="47.36242" lon="6.4496">
        <ele>275.353</ele>
        <time>2016-09-05T13:37:41.373Z</time>
      </trkpt>
      <trkpt lat="47.36241" lon="6.44953">
        <ele>275.66</ele>
        <time>2016-09-05T13:37:42.373Z</time>
      </trkpt>
      <trkpt lat="47.36241" lon="6.44946">
        <ele>275.975</ele>
        <time>2016-09-05T13:37:43.373Z</time>
      </trkpt>
      <trkpt lat="47.36242" lon="6.44939">
        <ele>276.298</ele>
        <time>2016-09-05T13:37:44.373Z</time>
      </trkpt>
      <trkpt lat="47.36242" lon="6.44931">
        <ele>276.629</ele>
        <time>2016-09-05T13:37:45.373Z</time>
      </trkpt>
      <trkpt lat="47.36243" lon="6.44924">
        <ele>276.969</ele>
        <time>2016-09-05T13:37:46.373Z</time>
      </trkpt>
      <trkpt lat="47.36243" lon="6.44918">
        <ele>277.318</ele>
        <time>2016-09-05T13:37:47.373Z</time>
      </trkpt>
      <trkpt lat="47.36243" lon="6.44913">
        <ele>277.676</ele>
        <time>2016-09-05T13:37:48.373Z</time>
      </trkpt>
      <trkpt lat="47.36244" lon="6.44907">
        <ele>278.043</ele>
        <time>2016-09-05T13:37:49.373Z</time>
      </trkpt>
      <trkpt lat="47.36245" lon="6.44901">
        <ele>278.418</ele>
        <time>2016-09-05T13:37:50.373Z</time>
      </trkpt>
      <trkpt lat="47.36246" lon="6.44895">
        <ele>278.8</ele>
        <time>2016-09-05T13:37:51.373Z</time>
      </trkpt>
      <trkpt lat="47.36247" lon="6.44889">
        <ele>279.188</ele>
        <time>2016-09-05T13:37:52.373Z</time>
      </trkpt>
      <trkpt lat="47.36248" lon="6.44884">
        <ele>279.582</ele>
        <time>2016-09-05T13:37:53.373Z</time>
      </trkpt>
      <trkpt lat="47.36249" lon="6.44878">
        <ele>279.98</ele>
        <time>2016-09-05T13:37:54.373Z</time>
      </trkpt>
      <trkpt lat="47.3625" lon="6.44873">
        <ele>280.38</ele>
        <time>2016-09-05T13:37:55.373Z</time>
      </trkpt>
      <trkpt lat="47.3625" lon="6.44868">
        <ele>280.781</ele>
        <time>2016-09-05T13:37:56.373Z</time>
      </trkpt>
      <trkpt lat="47.36251" lon="6.44864">
        <ele>281.184</ele>
        <time>2016-09-05T13:37:57.373Z</time>
      </trkpt>
      <trkpt lat="47.3625" lon="6.44861">
        <ele>281.586</ele>
        <time>2016-09-05T13:37:58.373Z</time>
      </trkpt>
      <trkpt lat="47.36255" lon="6.44845">
        <ele>282.539</ele>
        <time>2016-09-05T13:37:59.195Z</time>
      </trkpt>
      <trkpt lat="47.36256" lon="6.44839">
        <ele>282.667</ele>
        <time>2016-09-05T13:38:00.202Z</time>
      </trkpt>
      <trkpt lat="47.36256" lon="6.44833">
        <ele>282.059</ele>
        <time>2016-09-05T13:38:01.006Z</time>
      </trkpt>
      <trkpt lat="47.36257" lon="6.44828">
        <ele>281.905</ele>
        <time>2016-09-05T13:38:02.002Z</time>
      </trkpt>
      <trkpt lat="47.36257" lon="6.44821">
        <ele>281.071</ele>
        <time>2016-09-05T13:38:03.000Z</time>
      </trkpt>
      <trkpt lat="47.36258" lon="6.44815">
        <ele>280.398</ele>
        <time>2016-09-05T13:38:04.000Z</time>
      </trkpt>
      <trkpt lat="47.36259" lon="6.44809">
        <ele>280.924</ele>
        <time>2016-09-05T13:38:05.000Z</time>
      </trkpt>
      <trkpt lat="47.3626" lon="6.44803">
        <ele>280.102</ele>
        <time>2016-09-05T13:38:06.000Z</time>
      </trkpt>
      <trkpt lat="47.36261" lon="6.44797">
        <ele>277.403</ele>
        <time>2016-09-05T13:38:07.000Z</time>
      </trkpt>
      <trkpt lat="47.36261" lon="6.4479">
        <ele>275.992</ele>
        <time>2016-09-05T13:38:08.000Z</time>
      </trkpt>
      <trkpt lat="47.36262" lon="6.44784">
        <ele>274.488</ele>
        <time>2016-09-05T13:38:09.000Z</time>
      </trkpt>
      <trkpt lat="47.36262" lon="6.44778">
        <ele>274.688</ele>
        <time>2016-09-05T13:38:10.000Z</time>
      </trkpt>
      <trkpt lat="47.36263" lon="6.44772">
        <ele>274.785</ele>
        <time>2016-09-05T13:38:11.000Z</time>
      </trkpt>
      <trkpt lat="47.36265" lon="6.44766">
        <ele>275.388</ele>
        <time>2016-09-05T13:38:12.000Z</time>
      </trkpt>
      <trkpt lat="47.36267" lon="6.4476">
        <ele>274.568</ele>
        <time>2016-09-05T13:38:13.000Z</time>
      </trkpt>
      <trkpt lat="47.36268" lon="6.44754">
        <ele>274.162</ele>
        <time>2016-09-05T13:38:14.000Z</time>
      </trkpt>
      <trkpt lat="47.3627" lon="6.44748">
        <ele>274.199</ele>
        <time>2016-09-05T13:38:15.000Z</time>
      </trkpt>
      <trkpt lat="47.3627" lon="6.44742">
        <ele>272.214</ele>
        <time>2016-09-05T13:38:16.000Z</time>
      </trkpt>
      <trkpt lat="47.36271" lon="6.44736">
        <ele>271.401</ele>
        <time>2016-09-05T13:38:17.000Z</time>
      </trkpt>
      <trkpt lat="47.36272" lon="6.4473">
        <ele>271.118</ele>
        <time>2016-09-05T13:38:18.000Z</time>
      </trkpt>
      <trkpt lat="47.36274" lon="6.44724">
        <ele>271.745</ele>
        <time>2016-09-05T13:38:19.000Z</time>
      </trkpt>
      <trkpt lat="47.36277" lon="6.44717">
        <ele>272.924</ele>
        <time>2016-09-05T13:38:20.000Z</time>
      </trkpt>
      <trkpt lat="47.36279" lon="6.44705">
        <ele>268.638</ele>
        <time>2016-09-05T13:38:21.000Z</time>
      </trkpt>
      <trkpt lat="47.36279" lon="6.44704">
        <ele>268.482</ele>
        <time>2016-09-05T13:38:22.000Z</time>
      </trkpt>
      <trkpt lat="47.36279" lon="6.447">
        <ele>268.329</ele>
        <time>2016-09-05T13:38:23.000Z</time>
      </trkpt>
      <trkpt lat="47.36279" lon="6.44696">
        <ele>268.183</ele>
        <time>2016-09-05T13:38:24.000Z</time>
      </trkpt>
      <trkpt lat="47.3628" lon="6.44691">
        <ele>268.047</ele>
        <time>2016-09-05T13:38:25.000Z</time>
      </trkpt>
      <trkpt lat="47.36281" lon="6.44686">
        <ele>267.926</ele>
        <time>2016-09-05T13:38:26.000Z</time>
      </trkpt>
      <trkpt lat="47.36283" lon="6.4468">
        <ele>267.824</ele>
        <time>2016-09-05T13:38:27.000Z</time>
      </trkpt>
      <trkpt lat="47.36284" lon="6.44674">
        <ele>267.742</ele>
        <time>2016-09-05T13:38:28.000Z</time>
      </trkpt>
      <trkpt lat="47.36286" lon="6.44668">
        <ele>267.685</ele>
        <time>2016-09-05T13:38:29.000Z</time>
      </trkpt>
      <trkpt lat="47.36288" lon="6.44662">
        <ele>267.653</ele>
        <time>2016-09-05T13:38:30.000Z</time>
      </trkpt>
      <trkpt lat="47.3629" lon="6.44656">
        <ele>267.648</ele>
        <time>2016-09-05T13:38:31.000Z</time>
      </trkpt>
      <trkpt lat="47.36292" lon="6.44649">
        <ele>267.671</ele>
        <time>2016-09-05T13:38:32.000Z</time>
      </trkpt>
      <trkpt lat="47.36294" lon="6.44643">
        <ele>267.72</ele>
        <time>2016-09-05T13:38:33.000Z</time>
      </trkpt>
      <trkpt lat="47.36295" lon="6.44636">
        <ele>267.794</ele>
        <time>2016-09-05T13:38:34.000Z</time>
      </trkpt>
      <trkpt lat="47.36297" lon="6.4463">
        <ele>267.892</ele>
        <time>2016-09-05T13:38:35.000Z</time>
      </trkpt>
      <trkpt lat="47.36299" lon="6.44625">
        <ele>268.009</ele>
        <time>2016-09-05T13:38:36.000Z</time>
      </trkpt>
      <trkpt lat="47.363" lon="6.44621">
        <ele>268.143</ele>
        <time>2016-09-05T13:38:37.000Z</time>
      </trkpt>
      <trkpt lat="47.36302" lon="6.44617">
        <ele>268.29</ele>
        <time>2016-09-05T13:38:38.000Z</time>
      </trkpt>
      <trkpt lat="47.36305" lon="6.44612">
        <ele>268.449</ele>
        <time>2016-09-05T13:38:39.000Z</time>
      </trkpt>
      <trkpt lat="47.36308" lon="6.44605">
        <ele>268.615</ele>
        <time>2016-09-05T13:38:40.000Z</time>
      </trkpt>
      <trkpt lat="47.36311" lon="6.44598">
        <ele>268.787</ele>
        <time>2016-09-05T13:38:41.000Z</time>
      </trkpt>
      <trkpt lat="47.36314" lon="6.44592">
        <ele>268.963</ele>
        <time>2016-09-05T13:38:42.000Z</time>
      </trkpt>
      <trkpt lat="47.36317" lon="6.44587">
        <ele>269.14</ele>
        <time>2016-09-05T13:38:43.000Z</time>
      </trkpt>
      <trkpt lat="47.3632" lon="6.44583">
        <ele>269.318</ele>
        <time>2016-09-05T13:38:44.000Z</time>
      </trkpt>
      <trkpt lat="47.36322" lon="6.44578">
        <ele>269.494</ele>
        <time>2016-09-05T13:38:45.000Z</time>
      </trkpt>
      <trkpt lat="47.36324" lon="6.44574">
        <ele>269.666</ele>
        <time>2016-09-05T13:38:46.000Z</time>
      </trkpt>
      <trkpt lat="47.36327" lon="6.4457">
        <ele>269.834</ele>
        <time>2016-09-05T13:38:47.000Z</time>
      </trkpt>
      <trkpt lat="47.36329" lon="6.44565">
        <ele>269.995</ele>
        <time>2016-09-05T13:38:48.000Z</time>
      </trkpt>
      <trkpt lat="47.36331" lon="6.4456">
        <ele>270.149</ele>
        <time>2016-09-05T13:38:49.000Z</time>
      </trkpt>
      <trkpt lat="47.36334" lon="6.44555">
        <ele>270.295</ele>
        <time>2016-09-05T13:38:50.000Z</time>
      </trkpt>
      <trkpt lat="47.36336" lon="6.44549">
        <ele>270.432</ele>
        <time>2016-09-05T13:38:51.000Z</time>
      </trkpt>
      <trkpt lat="47.36339" lon="6.44544">
        <ele>270.56</ele>
        <time>2016-09-05T13:38:52.000Z</time>
      </trkpt>
      <trkpt lat="47.36341" lon="6.44538">
        <ele>270.679</ele>
        <time>2016-09-05T13:38:53.000Z</time>
      </trkpt>
      <trkpt lat="47.36344" lon="6.44534">
        <ele>270.79</ele>
        <time>2016-09-05T13:38:54.000Z</time>
      </trkpt>
      <trkpt lat="47.36346" lon="6.44529">
        <ele>270.892</ele>
        <time>2016-09-05T13:38:55.000Z</time>
      </trkpt>
      <trkpt lat="47.36348" lon="6.44524">
        <ele>270.986</ele>
        <time>2016-09-05T13:38:56.000Z</time>
      </trkpt>
      <trkpt lat="47.36351" lon="6.44519">
        <ele>271.074</ele>
        <time>2016-09-05T13:38:57.000Z</time>
      </trkpt>
      <trkpt lat="47.36353" lon="6.44514">
        <ele>271.157</ele>
        <time>2016-09-05T13:38:58.000Z</time>
      </trkpt>
      <trkpt lat="47.36355" lon="6.4451">
        <ele>271.237</ele>
        <time>2016-09-05T13:38:59.000Z</time>
      </trkpt>
      <trkpt lat="47.36356" lon="6.44505">
        <ele>271.316</ele>
        <time>2016-09-05T13:39:00.000Z</time>
      </trkpt>
      <trkpt lat="47.36357" lon="6.44502">
        <ele>271.395</ele>
        <time>2016-09-05T13:39:01.000Z</time>
      </trkpt>
      <trkpt lat="47.36362" lon="6.44492">
        <ele>270</ele>
        <time>2016-09-05T13:39:02.195Z</time>
      </trkpt>
      <trkpt lat="47.36364" lon="6.44487">
        <ele>270.04</ele>
        <time>2016-09-05T13:39:03.182Z</time>
      </trkpt>
      <trkpt lat="47.36367" lon="6.44482">
        <ele>270.904</ele>
        <time>2016-09-05T13:39:04.198Z</time>
      </trkpt>
      <trkpt lat="47.36369" lon="6.44477">
        <ele>271.709</ele>
        <time>2016-09-05T13:39:05.216Z</time>
      </trkpt>
      <trkpt lat="47.36371" lon="6.44472">
        <ele>271.721</ele>
        <time>2016-09-05T13:39:06.179Z</time>
      </trkpt>
      <trkpt lat="47.36374" lon="6.44466">
        <ele>271.312</ele>
        <time>2016-09-05T13:39:07.184Z</time>
      </trkpt>
      <trkpt lat="47.36377" lon="6.44459">
        <ele>271.251</ele>
        <time>2016-09-05T13:39:08.219Z</time>
      </trkpt>
      <trkpt lat="47.36379" lon="6.44453">
        <ele>271.271</ele>
        <time>2016-09-05T13:39:09.179Z</time>
      </trkpt>
      <trkpt lat="47.36377" lon="6.44448">
        <ele>270.797</ele>
        <time>2016-09-05T13:39:10.251Z</time>
      </trkpt>
      <trkpt lat="47.36383" lon="6.44442">
        <ele>271.856</ele>
        <time>2016-09-05T13:39:11.278Z</time>
      </trkpt>
      <trkpt lat="47.36385" lon="6.44436">
        <ele>271.842</ele>
        <time>2016-09-05T13:39:12.140Z</time>
      </trkpt>
      <trkpt lat="47.36386" lon="6.44431">
        <ele>270.443</ele>
        <time>2016-09-05T13:39:13.178Z</time>
      </trkpt>
      <trkpt lat="47.36388" lon="6.44426">
        <ele>270.322</ele>
        <time>2016-09-05T13:39:14.180Z</time>
      </trkpt>
      <trkpt lat="47.3639" lon="6.44422">
        <ele>270.326</ele>
        <time>2016-09-05T13:39:15.175Z</time>
      </trkpt>
      <trkpt lat="47.3639" lon="6.44417">
        <ele>267.209</ele>
        <time>2016-09-05T13:39:16.218Z</time>
      </trkpt>
      <trkpt lat="47.36392" lon="6.44411">
        <ele>267.339</ele>
        <time>2016-09-05T13:39:17.178Z</time>
      </trkpt>
      <trkpt lat="47.36394" lon="6.44406">
        <ele>267.334</ele>
        <time>2016-09-05T13:39:18.160Z</time>
      </trkpt>
      <trkpt lat="47.36397" lon="6.444">
        <ele>267.756</ele>
        <time>2016-09-05T13:39:19.154Z</time>
      </trkpt>
      <trkpt lat="47.36404" lon="6.44391">
        <ele>269.308</ele>
        <time>2016-09-05T13:39:20.198Z</time>
      </trkpt>
      <trkpt lat="47.36405" lon="6.44386">
        <ele>268.15</ele>
        <time>2016-09-05T13:39:21.198Z</time>
      </trkpt>
      <trkpt lat="47.36408" lon="6.44381">
        <ele>267.008</ele>
        <time>2016-09-05T13:39:22.195Z</time>
      </trkpt>
      <trkpt lat="47.36415" lon="6.4437">
        <ele>268.052</ele>
        <time>2016-09-05T13:39:23.195Z</time>
      </trkpt>
      <trkpt lat="47.36416" lon="6.44367">
        <ele>267.877</ele>
        <time>2016-09-05T13:39:24.195Z</time>
      </trkpt>
      <trkpt lat="47.36418" lon="6.44364">
        <ele>267.701</ele>
        <time>2016-09-05T13:39:25.195Z</time>
      </trkpt>
      <trkpt lat="47.36421" lon="6.4436">
        <ele>267.527</ele>
        <time>2016-09-05T13:39:26.195Z</time>
      </trkpt>
      <trkpt lat="47.36423" lon="6.44355">
        <ele>267.354</ele>
        <time>2016-09-05T13:39:27.195Z</time>
      </trkpt>
      <trkpt lat="47.36426" lon="6.4435">
        <ele>267.183</ele>
        <time>2016-09-05T13:39:28.195Z</time>
      </trkpt>
      <trkpt lat="47.36429" lon="6.44345">
        <ele>267.015</ele>
        <time>2016-09-05T13:39:29.195Z</time>
      </trkpt>
      <trkpt lat="47.36432" lon="6.44339">
        <ele>266.852</ele>
        <time>2016-09-05T13:39:30.195Z</time>
      </trkpt>
      <trkpt lat="47.36435" lon="6.44333">
        <ele>266.694</ele>
        <time>2016-09-05T13:39:31.195Z</time>
      </trkpt>
      <trkpt lat="47.36438" lon="6.44327">
        <ele>266.543</ele>
        <time>2016-09-05T13:39:32.195Z</time>
      </trkpt>
      <trkpt lat="47.36441" lon="6.4432">
        <ele>266.402</ele>
        <time>2016-09-05T13:39:33.195Z</time>
      </trkpt>
      <trkpt lat="47.36444" lon="6.44313">
        <ele>266.273</ele>
        <time>2016-09-05T13:39:34.195Z</time>
      </trkpt>
      <trkpt lat="47.36447" lon="6.44307">
        <ele>266.159</ele>
        <time>2016-09-05T13:39:35.195Z</time>
      </trkpt>
      <trkpt lat="47.3645" lon="6.44303">
        <ele>266.064</ele>
        <time>2016-09-05T13:39:36.195Z</time>
      </trkpt>
      <trkpt lat="47.36451" lon="6.443">
        <ele>265.99</ele>
        <time>2016-09-05T13:39:37.195Z</time>
      </trkpt>
      <trkpt lat="47.36453" lon="6.44297">
        <ele>265.94</ele>
        <time>2016-09-05T13:39:38.195Z</time>
      </trkpt>
      <trkpt lat="47.36456" lon="6.44293">
        <ele>265.915</ele>
        <time>2016-09-05T13:39:39.195Z</time>
      </trkpt>
      <trkpt lat="47.36459" lon="6.44289">
        <ele>265.917</ele>
        <time>2016-09-05T13:39:40.195Z</time>
      </trkpt>
      <trkpt lat="47.36462" lon="6.44284">
        <ele>265.947</ele>
        <time>2016-09-05T13:39:41.195Z</time>
      </trkpt>
      <trkpt lat="47.36465" lon="6.44279">
        <ele>266.005</ele>
        <time>2016-09-05T13:39:42.195Z</time>
      </trkpt>
      <trkpt lat="47.36468" lon="6.44273">
        <ele>266.091</ele>
        <time>2016-09-05T13:39:43.195Z</time>
      </trkpt>
      <trkpt lat="47.36471" lon="6.44268">
        <ele>266.205</ele>
        <time>2016-09-05T13:39:44.195Z</time>
      </trkpt>
      <trkpt lat="47.36474" lon="6.44262">
        <ele>266.345</ele>
        <time>2016-09-05T13:39:45.195Z</time>
      </trkpt>
      <trkpt lat="47.36477" lon="6.44255">
        <ele>266.514</ele>
        <time>2016-09-05T13:39:46.195Z</time>
      </trkpt>
      <trkpt lat="47.3648" lon="6.44248">
        <ele>266.709</ele>
        <time>2016-09-05T13:39:47.195Z</time>
      </trkpt>
      <trkpt lat="47.36481" lon="6.44245">
        <ele>266.93</ele>
        <time>2016-09-05T13:39:48.195Z</time>
      </trkpt>
      <trkpt lat="47.36483" lon="6.44242">
        <ele>267.176</ele>
        <time>2016-09-05T13:39:49.195Z</time>
      </trkpt>
      <trkpt lat="47.36485" lon="6.44237">
        <ele>267.445</ele>
        <time>2016-09-05T13:39:50.195Z</time>
      </trkpt>
      <trkpt lat="47.36489" lon="6.44232">
        <ele>267.732</ele>
        <time>2016-09-05T13:39:51.195Z</time>
      </trkpt>
      <trkpt lat="47.36492" lon="6.44227">
        <ele>268.038</ele>
        <time>2016-09-05T13:39:52.195Z</time>
      </trkpt>
      <trkpt lat="47.36495" lon="6.44224">
        <ele>268.357</ele>
        <time>2016-09-05T13:39:53.195Z</time>
      </trkpt>
      <trkpt lat="47.36497" lon="6.44222">
        <ele>268.688</ele>
        <time>2016-09-05T13:39:54.195Z</time>
      </trkpt>
      <trkpt lat="47.36499" lon="6.44218">
        <ele>269.028</ele>
        <time>2016-09-05T13:39:55.195Z</time>
      </trkpt>
      <trkpt lat="47.36501" lon="6.44213">
        <ele>269.372</ele>
        <time>2016-09-05T13:39:56.195Z</time>
      </trkpt>
      <trkpt lat="47.36503" lon="6.44207">
        <ele>269.719</ele>
        <time>2016-09-05T13:39:57.195Z</time>
      </trkpt>
      <trkpt lat="47.36505" lon="6.44202">
        <ele>270.067</ele>
        <time>2016-09-05T13:39:58.195Z</time>
      </trkpt>
      <trkpt lat="47.36506" lon="6.44197">
        <ele>270.414</ele>
        <time>2016-09-05T13:39:59.195Z</time>
      </trkpt>
      <trkpt lat="47.36508" lon="6.44192">
        <ele>270.759</ele>
        <time>2016-09-05T13:40:00.195Z</time>
      </trkpt>
      <trkpt lat="47.36508" lon="6.44188">
        <ele>271.102</ele>
        <time>2016-09-05T13:40:01.195Z</time>
      </trkpt>
      <trkpt lat="47.36509" lon="6.44185">
        <ele>271.445</ele>
        <time>2016-09-05T13:40:02.195Z</time>
      </trkpt>
      <trkpt lat="47.36508" lon="6.44183">
        <ele>271.787</ele>
        <time>2016-09-05T13:40:03.195Z</time>
      </trkpt>
      <trkpt lat="47.36513" lon="6.44167">
        <ele>269.62</ele>
        <time>2016-09-05T13:40:04.142Z</time>
      </trkpt>
      <trkpt lat="47.36513" lon="6.44153">
        <ele>267.621</ele>
        <time>2016-09-05T13:40:05.190Z</time>
      </trkpt>
      <trkpt lat="47.36516" lon="6.44148">
        <ele>266.692</ele>
        <time>2016-09-05T13:40:06.226Z</time>
      </trkpt>
      <trkpt lat="47.36517" lon="6.44142">
        <ele>266.576</ele>
        <time>2016-09-05T13:40:07.344Z</time>
      </trkpt>
      <trkpt lat="47.36523" lon="6.44139">
        <ele>267.712</ele>
        <time>2016-09-05T13:40:08.337Z</time>
      </trkpt>
      <trkpt lat="47.36526" lon="6.44134">
        <ele>268.94</ele>
        <time>2016-09-05T13:40:09.147Z</time>
      </trkpt>
      <trkpt lat="47.36527" lon="6.44131">
        <ele>268.181</ele>
        <time>2016-09-05T13:40:10.165Z</time>
      </trkpt>
      <trkpt lat="47.36531" lon="6.44126">
        <ele>267.865</ele>
        <time>2016-09-05T13:40:11.191Z</time>
      </trkpt>
      <trkpt lat="47.36536" lon="6.44121">
        <ele>268.061</ele>
        <time>2016-09-05T13:40:12.189Z</time>
      </trkpt>
      <trkpt lat="47.36539" lon="6.44117">
        <ele>268.195</ele>
        <time>2016-09-05T13:40:13.183Z</time>
      </trkpt>
      <trkpt lat="47.36543" lon="6.44112">
        <ele>268.871</ele>
        <time>2016-09-05T13:40:14.186Z</time>
      </trkpt>
      <trkpt lat="47.36544" lon="6.44108">
        <ele>269.207</ele>
        <time>2016-09-05T13:40:15.191Z</time>
      </trkpt>
      <trkpt lat="47.36547" lon="6.44103">
        <ele>269.414</ele>
        <time>2016-09-05T13:40:16.182Z</time>
      </trkpt>
      <trkpt lat="47.36549" lon="6.44097">
        <ele>268.377</ele>
        <time>2016-09-05T13:40:17.189Z</time>
      </trkpt>
      <trkpt lat="47.36551" lon="6.44093">
        <ele>269.587</ele>
        <time>2016-09-05T13:40:18.191Z</time>
      </trkpt>
      <trkpt lat="47.36553" lon="6.44089">
        <ele>269.603</ele>
        <time>2016-09-05T13:40:19.211Z</time>
      </trkpt>
      <trkpt lat="47.36555" lon="6.44084">
        <ele>270.05</ele>
        <time>2016-09-05T13:40:20.207Z</time>
      </trkpt>
      <trkpt lat="47.36558" lon="6.44079">
        <ele>269.299</ele>
        <time>2016-09-05T13:40:21.201Z</time>
      </trkpt>
      <trkpt lat="47.3656" lon="6.44074">
        <ele>269.923</ele>
        <time>2016-09-05T13:40:22.205Z</time>
      </trkpt>
      <trkpt lat="47.36563" lon="6.44069">
        <ele>270.74</ele>
        <time>2016-09-05T13:40:23.201Z</time>
      </trkpt>
      <trkpt lat="47.36566" lon="6.44064">
        <ele>272.887</ele>
        <time>2016-09-05T13:40:24.207Z</time>
      </trkpt>
      <trkpt lat="47.36575" lon="6.4405">
        <ele>270.587</ele>
        <time>2016-09-05T13:40:25.207Z</time>
      </trkpt>
      <trkpt lat="47.36576" lon="6.44048">
        <ele>270.253</ele>
        <time>2016-09-05T13:40:26.207Z</time>
      </trkpt>
      <trkpt lat="47.36577" lon="6.44045">
        <ele>269.921</ele>
        <time>2016-09-05T13:40:27.207Z</time>
      </trkpt>
      <trkpt lat="47.36578" lon="6.44042">
        <ele>269.591</ele>
        <time>2016-09-05T13:40:28.207Z</time>
      </trkpt>
      <trkpt lat="47.3658" lon="6.44038">
        <ele>269.264</ele>
        <time>2016-09-05T13:40:29.207Z</time>
      </trkpt>
      <trkpt lat="47.36583" lon="6.44033">
        <ele>268.943</ele>
        <time>2016-09-05T13:40:30.207Z</time>
      </trkpt>
      <trkpt lat="47.36585" lon="6.44028">
        <ele>268.629</ele>
        <time>2016-09-05T13:40:31.207Z</time>
      </trkpt>
      <trkpt lat="47.36587" lon="6.44022">
        <ele>268.322</ele>
        <time>2016-09-05T13:40:32.207Z</time>
      </trkpt>
      <trkpt lat="47.36589" lon="6.44017">
        <ele>268.024</ele>
        <time>2016-09-05T13:40:33.207Z</time>
      </trkpt>
      <trkpt lat="47.36591" lon="6.4401">
        <ele>267.736</ele>
        <time>2016-09-05T13:40:34.207Z</time>
      </trkpt>
      <trkpt lat="47.36594" lon="6.44003">
        <ele>267.459</ele>
        <time>2016-09-05T13:40:35.207Z</time>
      </trkpt>
      <trkpt lat="47.36596" lon="6.43996">
        <ele>267.196</ele>
        <time>2016-09-05T13:40:36.207Z</time>
      </trkpt>
      <trkpt lat="47.36599" lon="6.43989">
        <ele>266.949</ele>
        <time>2016-09-05T13:40:37.207Z</time>
      </trkpt>
      <trkpt lat="47.36602" lon="6.43981">
        <ele>266.719</ele>
        <time>2016-09-05T13:40:38.207Z</time>
      </trkpt>
      <trkpt lat="47.36606" lon="6.43973">
        <ele>266.506</ele>
        <time>2016-09-05T13:40:39.207Z</time>
      </trkpt>
      <trkpt lat="47.3661" lon="6.43965">
        <ele>266.312</ele>
        <time>2016-09-05T13:40:40.207Z</time>
      </trkpt>
      <trkpt lat="47.36613" lon="6.43959">
        <ele>266.136</ele>
        <time>2016-09-05T13:40:41.207Z</time>
      </trkpt>
      <trkpt lat="47.36615" lon="6.43954">
        <ele>265.976</ele>
        <time>2016-09-05T13:40:42.207Z</time>
      </trkpt>
      <trkpt lat="47.36618" lon="6.43948">
        <ele>265.832</ele>
        <time>2016-09-05T13:40:43.207Z</time>
      </trkpt>
      <trkpt lat="47.3662" lon="6.43945">
        <ele>265.701</ele>
        <time>2016-09-05T13:40:44.207Z</time>
      </trkpt>
      <trkpt lat="47.36622" lon="6.43942">
        <ele>265.584</ele>
        <time>2016-09-05T13:40:45.207Z</time>
      </trkpt>
      <trkpt lat="47.36623" lon="6.4394">
        <ele>265.477</ele>
        <time>2016-09-05T13:40:46.207Z</time>
      </trkpt>
      <trkpt lat="47.36625" lon="6.43936">
        <ele>265.38</ele>
        <time>2016-09-05T13:40:47.207Z</time>
      </trkpt>
      <trkpt lat="47.36627" lon="6.43931">
        <ele>265.291</ele>
        <time>2016-09-05T13:40:48.207Z</time>
      </trkpt>
      <trkpt lat="47.36629" lon="6.43926">
        <ele>265.212</ele>
        <time>2016-09-05T13:40:49.207Z</time>
      </trkpt>
      <trkpt lat="47.36631" lon="6.43922">
        <ele>265.141</ele>
        <time>2016-09-05T13:40:50.207Z</time>
      </trkpt>
      <trkpt lat="47.36633" lon="6.43916">
        <ele>265.08</ele>
        <time>2016-09-05T13:40:51.207Z</time>
      </trkpt>
      <trkpt lat="47.36635" lon="6.43908">
        <ele>265.029</ele>
        <time>2016-09-05T13:40:52.207Z</time>
      </trkpt>
      <trkpt lat="47.36638" lon="6.439">
        <ele>264.988</ele>
        <time>2016-09-05T13:40:53.207Z</time>
      </trkpt>
      <trkpt lat="47.3664" lon="6.43895">
        <ele>264.958</ele>
        <time>2016-09-05T13:40:54.207Z</time>
      </trkpt>
      <trkpt lat="47.36641" lon="6.43891">
        <ele>264.938</ele>
        <time>2016-09-05T13:40:55.207Z</time>
      </trkpt>
      <trkpt lat="47.36642" lon="6.43888">
        <ele>264.929</ele>
        <time>2016-09-05T13:40:56.207Z</time>
      </trkpt>
      <trkpt lat="47.36642" lon="6.43885">
        <ele>264.929</ele>
        <time>2016-09-05T13:40:57.207Z</time>
      </trkpt>
      <trkpt lat="47.36642" lon="6.43881">
        <ele>264.938</ele>
        <time>2016-09-05T13:40:58.207Z</time>
      </trkpt>
      <trkpt lat="47.36643" lon="6.43876">
        <ele>264.954</ele>
        <time>2016-09-05T13:40:59.207Z</time>
      </trkpt>
      <trkpt lat="47.36644" lon="6.43868">
        <ele>264.976</ele>
        <time>2016-09-05T13:41:00.207Z</time>
      </trkpt>
      <trkpt lat="47.36645" lon="6.4386">
        <ele>265.002</ele>
        <time>2016-09-05T13:41:01.207Z</time>
      </trkpt>
      <trkpt lat="47.36646" lon="6.43854">
        <ele>265.034</ele>
        <time>2016-09-05T13:41:02.207Z</time>
      </trkpt>
      <trkpt lat="47.36645" lon="6.43849">
        <ele>265.068</ele>
        <time>2016-09-05T13:41:03.207Z</time>
      </trkpt>
      <trkpt lat="47.36644" lon="6.43847">
        <ele>265.104</ele>
        <time>2016-09-05T13:41:04.207Z</time>
      </trkpt>
      <trkpt lat="47.36643" lon="6.43845">
        <ele>265.141</ele>
        <time>2016-09-05T13:41:05.207Z</time>
      </trkpt>
      <trkpt lat="47.36646" lon="6.43828">
        <ele>262.398</ele>
        <time>2016-09-05T13:41:06.192Z</time>
      </trkpt>
      <trkpt lat="47.36646" lon="6.43822">
        <ele>263.293</ele>
        <time>2016-09-05T13:41:07.190Z</time>
      </trkpt>
      <trkpt lat="47.36646" lon="6.43816">
        <ele>263.479</ele>
        <time>2016-09-05T13:41:08.208Z</time>
      </trkpt>
      <trkpt lat="47.36647" lon="6.4381">
        <ele>264.952</ele>
        <time>2016-09-05T13:41:09.236Z</time>
      </trkpt>
      <trkpt lat="47.36647" lon="6.43805">
        <ele>265.735</ele>
        <time>2016-09-05T13:41:10.226Z</time>
      </trkpt>
      <trkpt lat="47.36647" lon="6.43799">
        <ele>264.707</ele>
        <time>2016-09-05T13:41:11.333Z</time>
      </trkpt>
      <trkpt lat="47.36647" lon="6.43794">
        <ele>264.551</ele>
        <time>2016-09-05T13:41:12.337Z</time>
      </trkpt>
      <trkpt lat="47.36648" lon="6.43788">
        <ele>262.012</ele>
        <time>2016-09-05T13:41:13.360Z</time>
      </trkpt>
      <trkpt lat="47.36648" lon="6.43783">
        <ele>262.004</ele>
        <time>2016-09-05T13:41:14.482Z</time>
      </trkpt>
      <trkpt lat="47.36648" lon="6.43777">
        <ele>262.663</ele>
        <time>2016-09-05T13:41:15.316Z</time>
      </trkpt>
      <trkpt lat="47.36649" lon="6.43772">
        <ele>263.312</ele>
        <time>2016-09-05T13:41:16.201Z</time>
      </trkpt>
      <trkpt lat="47.36649" lon="6.43766">
        <ele>263.571</ele>
        <time>2016-09-05T13:41:17.196Z</time>
      </trkpt>
      <trkpt lat="47.36649" lon="6.4376">
        <ele>261.902</ele>
        <time>2016-09-05T13:41:18.310Z</time>
      </trkpt>
      <trkpt lat="47.36649" lon="6.43755">
        <ele>261.92</ele>
        <time>2016-09-05T13:41:19.306Z</time>
      </trkpt>
      <trkpt lat="47.36649" lon="6.43749">
        <ele>261.004</ele>
        <time>2016-09-05T13:41:20.284Z</time>
      </trkpt>
      <trkpt lat="47.36649" lon="6.43743">
        <ele>262.531</ele>
        <time>2016-09-05T13:41:21.300Z</time>
      </trkpt>
      <trkpt lat="47.36649" lon="6.43737">
        <ele>263.917</ele>
        <time>2016-09-05T13:41:22.204Z</time>
      </trkpt>
      <trkpt lat="47.36649" lon="6.43731">
        <ele>264.291</ele>
        <time>2016-09-05T13:41:23.206Z</time>
      </trkpt>
      <trkpt lat="47.36649" lon="6.43724">
        <ele>265.933</ele>
        <time>2016-09-05T13:41:24.207Z</time>
      </trkpt>
      <trkpt lat="47.3665" lon="6.43717">
        <ele>266.903</ele>
        <time>2016-09-05T13:41:25.196Z</time>
      </trkpt>
      <trkpt lat="47.36656" lon="6.437">
        <ele>267.098</ele>
        <time>2016-09-05T13:41:26.196Z</time>
      </trkpt>
      <trkpt lat="47.36654" lon="6.43699">
        <ele>267.238</ele>
        <time>2016-09-05T13:41:27.196Z</time>
      </trkpt>
      <trkpt lat="47.36654" lon="6.43694">
        <ele>267.376</ele>
        <time>2016-09-05T13:41:28.196Z</time>
      </trkpt>
      <trkpt lat="47.36655" lon="6.43689">
        <ele>267.51</ele>
        <time>2016-09-05T13:41:29.196Z</time>
      </trkpt>
      <trkpt lat="47.36655" lon="6.43684">
        <ele>267.637</ele>
        <time>2016-09-05T13:41:30.196Z</time>
      </trkpt>
      <trkpt lat="47.36655" lon="6.43679">
        <ele>267.755</ele>
        <time>2016-09-05T13:41:31.196Z</time>
      </trkpt>
      <trkpt lat="47.36655" lon="6.43674">
        <ele>267.862</ele>
        <time>2016-09-05T13:41:32.196Z</time>
      </trkpt>
      <trkpt lat="47.36656" lon="6.43669">
        <ele>267.957</ele>
        <time>2016-09-05T13:41:33.196Z</time>
      </trkpt>
      <trkpt lat="47.36657" lon="6.43664">
        <ele>268.039</ele>
        <time>2016-09-05T13:41:34.196Z</time>
      </trkpt>
      <trkpt lat="47.36658" lon="6.43659">
        <ele>268.107</ele>
        <time>2016-09-05T13:41:35.196Z</time>
      </trkpt>
      <trkpt lat="47.36658" lon="6.43653">
        <ele>268.161</ele>
        <time>2016-09-05T13:41:36.196Z</time>
      </trkpt>
      <trkpt lat="47.36659" lon="6.43648">
        <ele>268.203</ele>
        <time>2016-09-05T13:41:37.196Z</time>
      </trkpt>
      <trkpt lat="47.36659" lon="6.43643">
        <ele>268.233</ele>
        <time>2016-09-05T13:41:38.196Z</time>
      </trkpt>
      <trkpt lat="47.3666" lon="6.43638">
        <ele>268.251</ele>
        <time>2016-09-05T13:41:39.196Z</time>
      </trkpt>
      <trkpt lat="47.36661" lon="6.43633">
        <ele>268.255</ele>
        <time>2016-09-05T13:41:40.196Z</time>
      </trkpt>
      <trkpt lat="47.36662" lon="6.43628">
        <ele>268.245</ele>
        <time>2016-09-05T13:41:41.196Z</time>
      </trkpt>
      <trkpt lat="47.36663" lon="6.43621">
        <ele>268.218</ele>
        <time>2016-09-05T13:41:42.196Z</time>
      </trkpt>
      <trkpt lat="47.36664" lon="6.43613">
        <ele>268.173</ele>
        <time>2016-09-05T13:41:43.196Z</time>
      </trkpt>
      <trkpt lat="47.36665" lon="6.43606">
        <ele>268.108</ele>
        <time>2016-09-05T13:41:44.196Z</time>
      </trkpt>
      <trkpt lat="47.36665" lon="6.436">
        <ele>268.024</ele>
        <time>2016-09-05T13:41:45.196Z</time>
      </trkpt>
      <trkpt lat="47.36666" lon="6.43595">
        <ele>267.921</ele>
        <time>2016-09-05T13:41:46.196Z</time>
      </trkpt>
      <trkpt lat="47.36667" lon="6.4359">
        <ele>267.798</ele>
        <time>2016-09-05T13:41:47.196Z</time>
      </trkpt>
      <trkpt lat="47.36668" lon="6.43584">
        <ele>267.659</ele>
        <time>2016-09-05T13:41:48.196Z</time>
      </trkpt>
      <trkpt lat="47.36668" lon="6.43579">
        <ele>267.504</ele>
        <time>2016-09-05T13:41:49.196Z</time>
      </trkpt>
      <trkpt lat="47.36669" lon="6.43573">
        <ele>267.337</ele>
        <time>2016-09-05T13:41:50.196Z</time>
      </trkpt>
      <trkpt lat="47.36669" lon="6.43566">
        <ele>267.159</ele>
        <time>2016-09-05T13:41:51.196Z</time>
      </trkpt>
      <trkpt lat="47.36669" lon="6.43559">
        <ele>266.974</ele>
        <time>2016-09-05T13:41:52.196Z</time>
      </trkpt>
      <trkpt lat="47.3667" lon="6.43552">
        <ele>266.784</ele>
        <time>2016-09-05T13:41:53.196Z</time>
      </trkpt>
      <trkpt lat="47.3667" lon="6.43544">
        <ele>266.593</ele>
        <time>2016-09-05T13:41:54.196Z</time>
      </trkpt>
      <trkpt lat="47.3667" lon="6.43537">
        <ele>266.405</ele>
        <time>2016-09-05T13:41:55.196Z</time>
      </trkpt>
      <trkpt lat="47.3667" lon="6.43531">
        <ele>266.22</ele>
        <time>2016-09-05T13:41:56.196Z</time>
      </trkpt>
      <trkpt lat="47.36671" lon="6.43525">
        <ele>266.042</ele>
        <time>2016-09-05T13:41:57.196Z</time>
      </trkpt>
      <trkpt lat="47.36671" lon="6.43518">
        <ele>265.869</ele>
        <time>2016-09-05T13:41:58.196Z</time>
      </trkpt>
      <trkpt lat="47.36672" lon="6.43512">
        <ele>265.702</ele>
        <time>2016-09-05T13:41:59.196Z</time>
      </trkpt>
      <trkpt lat="47.36673" lon="6.43506">
        <ele>265.539</ele>
        <time>2016-09-05T13:42:00.196Z</time>
      </trkpt>
      <trkpt lat="47.36674" lon="6.43499">
        <ele>265.381</ele>
        <time>2016-09-05T13:42:01.196Z</time>
      </trkpt>
      <trkpt lat="47.36675" lon="6.43493">
        <ele>265.226</ele>
        <time>2016-09-05T13:42:02.196Z</time>
      </trkpt>
      <trkpt lat="47.36675" lon="6.43488">
        <ele>265.074</ele>
        <time>2016-09-05T13:42:03.196Z</time>
      </trkpt>
      <trkpt lat="47.36676" lon="6.43482">
        <ele>264.924</ele>
        <time>2016-09-05T13:42:04.196Z</time>
      </trkpt>
      <trkpt lat="47.36676" lon="6.43478">
        <ele>264.775</ele>
        <time>2016-09-05T13:42:05.196Z</time>
      </trkpt>
      <trkpt lat="47.36675" lon="6.43474">
        <ele>264.627</ele>
        <time>2016-09-05T13:42:06.196Z</time>
      </trkpt>
      <trkpt lat="47.36677" lon="6.43465">
        <ele>264.547</ele>
        <time>2016-09-05T13:42:07.198Z</time>
      </trkpt>
      <trkpt lat="47.36678" lon="6.4346">
        <ele>265.067</ele>
        <time>2016-09-05T13:42:08.187Z</time>
      </trkpt>
      <trkpt lat="47.36679" lon="6.43454">
        <ele>265.218</ele>
        <time>2016-09-05T13:42:09.189Z</time>
      </trkpt>
      <trkpt lat="47.3668" lon="6.43448">
        <ele>265.35</ele>
        <time>2016-09-05T13:42:10.285Z</time>
      </trkpt>
      <trkpt lat="47.3668" lon="6.43443">
        <ele>264.894</ele>
        <time>2016-09-05T13:42:11.302Z</time>
      </trkpt>
      <trkpt lat="47.36681" lon="6.43437">
        <ele>265.562</ele>
        <time>2016-09-05T13:42:12.215Z</time>
      </trkpt>
      <trkpt lat="47.36682" lon="6.43431">
        <ele>265.659</ele>
        <time>2016-09-05T13:42:13.194Z</time>
      </trkpt>
      <trkpt lat="47.36682" lon="6.43425">
        <ele>266.014</ele>
        <time>2016-09-05T13:42:14.212Z</time>
      </trkpt>
      <trkpt lat="47.36683" lon="6.43419">
        <ele>265.473</ele>
        <time>2016-09-05T13:42:15.325Z</time>
      </trkpt>
      <trkpt lat="47.36684" lon="6.43414">
        <ele>265.424</ele>
        <time>2016-09-05T13:42:16.358Z</time>
      </trkpt>
      <trkpt lat="47.36684" lon="6.43408">
        <ele>265.512</ele>
        <time>2016-09-05T13:42:17.345Z</time>
      </trkpt>
      <trkpt lat="47.36685" lon="6.43402">
        <ele>265.234</ele>
        <time>2016-09-05T13:42:18.286Z</time>
      </trkpt>
      <trkpt lat="47.36685" lon="6.43396">
        <ele>264.451</ele>
        <time>2016-09-05T13:42:19.267Z</time>
      </trkpt>
      <trkpt lat="47.36686" lon="6.4339">
        <ele>264.247</ele>
        <time>2016-09-05T13:42:20.330Z</time>
      </trkpt>
      <trkpt lat="47.36687" lon="6.43385">
        <ele>264.241</ele>
        <time>2016-09-05T13:42:21.337Z</time>
      </trkpt>
      <trkpt lat="47.36687" lon="6.43379">
        <ele>265.074</ele>
        <time>2016-09-05T13:42:22.416Z</time>
      </trkpt>
      <trkpt lat="47.36688" lon="6.43372">
        <ele>264.8</ele>
        <time>2016-09-05T13:42:23.392Z</time>
      </trkpt>
      <trkpt lat="47.36689" lon="6.43366">
        <ele>265.936</ele>
        <time>2016-09-05T13:42:24.339Z</time>
      </trkpt>
      <trkpt lat="47.36689" lon="6.4336">
        <ele>268.151</ele>
        <time>2016-09-05T13:42:25.319Z</time>
      </trkpt>
      <trkpt lat="47.3669" lon="6.43354">
        <ele>267.563</ele>
        <time>2016-09-05T13:42:26.353Z</time>
      </trkpt>
      <trkpt lat="47.36691" lon="6.43346">
        <ele>267.361</ele>
        <time>2016-09-05T13:42:27.353Z</time>
      </trkpt>
      <trkpt lat="47.36691" lon="6.43342">
        <ele>267.282</ele>
        <time>2016-09-05T13:42:28.353Z</time>
      </trkpt>
      <trkpt lat="47.36691" lon="6.43336">
        <ele>267.203</ele>
        <time>2016-09-05T13:42:29.353Z</time>
      </trkpt>
      <trkpt lat="47.36692" lon="6.43329">
        <ele>267.125</ele>
        <time>2016-09-05T13:42:30.353Z</time>
      </trkpt>
      <trkpt lat="47.36693" lon="6.43322">
        <ele>267.048</ele>
        <time>2016-09-05T13:42:31.353Z</time>
      </trkpt>
      <trkpt lat="47.36694" lon="6.43316">
        <ele>266.975</ele>
        <time>2016-09-05T13:42:32.353Z</time>
      </trkpt>
      <trkpt lat="47.36695" lon="6.43311">
        <ele>266.904</ele>
        <time>2016-09-05T13:42:33.353Z</time>
      </trkpt>
      <trkpt lat="47.36696" lon="6.43306">
        <ele>266.836</ele>
        <time>2016-09-05T13:42:34.353Z</time>
      </trkpt>
      <trkpt lat="47.36697" lon="6.43301">
        <ele>266.771</ele>
        <time>2016-09-05T13:42:35.353Z</time>
      </trkpt>
      <trkpt lat="47.36697" lon="6.43297">
        <ele>266.71</ele>
        <time>2016-09-05T13:42:36.353Z</time>
      </trkpt>
      <trkpt lat="47.36696" lon="6.43295">
        <ele>266.65</ele>
        <time>2016-09-05T13:42:37.353Z</time>
      </trkpt>
      <trkpt lat="47.36696" lon="6.43292">
        <ele>266.593</ele>
        <time>2016-09-05T13:42:38.353Z</time>
      </trkpt>
      <trkpt lat="47.36695" lon="6.43288">
        <ele>266.538</ele>
        <time>2016-09-05T13:42:39.353Z</time>
      </trkpt>
      <trkpt lat="47.36695" lon="6.43284">
        <ele>266.484</ele>
        <time>2016-09-05T13:42:40.353Z</time>
      </trkpt>
      <trkpt lat="47.36694" lon="6.43281">
        <ele>266.431</ele>
        <time>2016-09-05T13:42:41.353Z</time>
      </trkpt>
      <trkpt lat="47.36692" lon="6.43279">
        <ele>266.379</ele>
        <time>2016-09-05T13:42:42.353Z</time>
      </trkpt>
      <trkpt lat="47.36699" lon="6.4326">
        <ele>266.952</ele>
        <time>2016-09-05T13:42:43.148Z</time>
      </trkpt>
      <trkpt lat="47.36699" lon="6.43254">
        <ele>267.14</ele>
        <time>2016-09-05T13:42:44.190Z</time>
      </trkpt>
      <trkpt lat="47.36699" lon="6.43254">
        <ele>267.14</ele>
        <time>2016-09-05T13:42:45.201Z</time>
      </trkpt>
      <trkpt lat="47.367" lon="6.43249">
        <ele>267.154</ele>
        <time>2016-09-05T13:42:45.284Z</time>
      </trkpt>
      <trkpt lat="47.367" lon="6.43242">
        <ele>267.314</ele>
        <time>2016-09-05T13:42:46.248Z</time>
      </trkpt>
      <trkpt lat="47.36701" lon="6.43236">
        <ele>266.154</ele>
        <time>2016-09-05T13:42:47.183Z</time>
      </trkpt>
      <trkpt lat="47.36701" lon="6.4323">
        <ele>265.263</ele>
        <time>2016-09-05T13:42:48.174Z</time>
      </trkpt>
      <trkpt lat="47.36701" lon="6.43225">
        <ele>266.336</ele>
        <time>2016-09-05T13:42:49.173Z</time>
      </trkpt>
      <trkpt lat="47.36701" lon="6.4322">
        <ele>265.907</ele>
        <time>2016-09-05T13:42:50.167Z</time>
      </trkpt>
      <trkpt lat="47.36702" lon="6.43214">
        <ele>269.815</ele>
        <time>2016-09-05T13:42:51.171Z</time>
      </trkpt>
      <trkpt lat="47.36703" lon="6.43207">
        <ele>269.394</ele>
        <time>2016-09-05T13:42:52.177Z</time>
      </trkpt>
      <trkpt lat="47.36703" lon="6.432">
        <ele>268.017</ele>
        <time>2016-09-05T13:42:53.188Z</time>
      </trkpt>
      <trkpt lat="47.36703" lon="6.43194">
        <ele>267.883</ele>
        <time>2016-09-05T13:42:54.251Z</time>
      </trkpt>
      <trkpt lat="47.36704" lon="6.43187">
        <ele>267.837</ele>
        <time>2016-09-05T13:42:55.251Z</time>
      </trkpt>
      <trkpt lat="47.36705" lon="6.43181">
        <ele>269.371</ele>
        <time>2016-09-05T13:42:56.172Z</time>
      </trkpt>
      <trkpt lat="47.36706" lon="6.43175">
        <ele>269.672</ele>
        <time>2016-09-05T13:42:57.155Z</time>
      </trkpt>
      <trkpt lat="47.36707" lon="6.4317">
        <ele>267.385</ele>
        <time>2016-09-05T13:42:58.153Z</time>
      </trkpt>
      <trkpt lat="47.36708" lon="6.43163">
        <ele>268.21</ele>
        <time>2016-09-05T13:42:59.176Z</time>
      </trkpt>
      <trkpt lat="47.36709" lon="6.43157">
        <ele>267.273</ele>
        <time>2016-09-05T13:43:00.201Z</time>
      </trkpt>
      <trkpt lat="47.36711" lon="6.43151">
        <ele>268.881</ele>
        <time>2016-09-05T13:43:01.188Z</time>
      </trkpt>
      <trkpt lat="47.36713" lon="6.43145">
        <ele>269.338</ele>
        <time>2016-09-05T13:43:02.203Z</time>
      </trkpt>
      <trkpt lat="47.36715" lon="6.43139">
        <ele>268.258</ele>
        <time>2016-09-05T13:43:03.222Z</time>
      </trkpt>
      <trkpt lat="47.36716" lon="6.43134">
        <ele>267.889</ele>
        <time>2016-09-05T13:43:04.191Z</time>
      </trkpt>
      <trkpt lat="47.36718" lon="6.43128">
        <ele>268.507</ele>
        <time>2016-09-05T13:43:05.187Z</time>
      </trkpt>
      <trkpt lat="47.36719" lon="6.43122">
        <ele>268.517</ele>
        <time>2016-09-05T13:43:06.221Z</time>
      </trkpt>
      <trkpt lat="47.36721" lon="6.43117">
        <ele>270.02</ele>
        <time>2016-09-05T13:43:07.256Z</time>
      </trkpt>
      <trkpt lat="47.36723" lon="6.43111">
        <ele>270.887</ele>
        <time>2016-09-05T13:43:08.239Z</time>
      </trkpt>
      <trkpt lat="47.36725" lon="6.43105">
        <ele>270.925</ele>
        <time>2016-09-05T13:43:09.239Z</time>
      </trkpt>
      <trkpt lat="47.36727" lon="6.431">
        <ele>270.938</ele>
        <time>2016-09-05T13:43:10.232Z</time>
      </trkpt>
      <trkpt lat="47.36729" lon="6.43094">
        <ele>270.927</ele>
        <time>2016-09-05T13:43:11.225Z</time>
      </trkpt>
      <trkpt lat="47.3673" lon="6.43088">
        <ele>271.594</ele>
        <time>2016-09-05T13:43:12.232Z</time>
      </trkpt>
      <trkpt lat="47.36731" lon="6.43081">
        <ele>272.384</ele>
        <time>2016-09-05T13:43:13.190Z</time>
      </trkpt>
      <trkpt lat="47.36732" lon="6.43075">
        <ele>272.582</ele>
        <time>2016-09-05T13:43:14.188Z</time>
      </trkpt>
      <trkpt lat="47.36733" lon="6.43069">
        <ele>272.707</ele>
        <time>2016-09-05T13:43:15.205Z</time>
      </trkpt>
      <trkpt lat="47.36734" lon="6.43062">
        <ele>273.037</ele>
        <time>2016-09-05T13:43:16.201Z</time>
      </trkpt>
      <trkpt lat="47.36736" lon="6.43056">
        <ele>273.262</ele>
        <time>2016-09-05T13:43:17.175Z</time>
      </trkpt>
      <trkpt lat="47.36739" lon="6.43047">
        <ele>272.983</ele>
        <time>2016-09-05T13:43:18.179Z</time>
      </trkpt>
      <trkpt lat="47.36739" lon="6.43041">
        <ele>274.702</ele>
        <time>2016-09-05T13:43:19.314Z</time>
      </trkpt>
      <trkpt lat="47.36741" lon="6.43033">
        <ele>274.864</ele>
        <time>2016-09-05T13:43:20.327Z</time>
      </trkpt>
      <trkpt lat="47.36743" lon="6.43027">
        <ele>275.63</ele>
        <time>2016-09-05T13:43:21.169Z</time>
      </trkpt>
      <trkpt lat="47.36745" lon="6.43021">
        <ele>277.26</ele>
        <time>2016-09-05T13:43:22.170Z</time>
      </trkpt>
      <trkpt lat="47.36747" lon="6.43013">
        <ele>278.009</ele>
        <time>2016-09-05T13:43:23.170Z</time>
      </trkpt>
      <trkpt lat="47.36747" lon="6.43008">
        <ele>280.575</ele>
        <time>2016-09-05T13:43:24.175Z</time>
      </trkpt>
      <trkpt lat="47.36747" lon="6.43003">
        <ele>280.017</ele>
        <time>2016-09-05T13:43:25.185Z</time>
      </trkpt>
      <trkpt lat="47.36748" lon="6.42997">
        <ele>280.959</ele>
        <time>2016-09-05T13:43:26.257Z</time>
      </trkpt>
      <trkpt lat="47.3675" lon="6.42991">
        <ele>282.308</ele>
        <time>2016-09-05T13:43:27.260Z</time>
      </trkpt>
      <trkpt lat="47.3675" lon="6.42985">
        <ele>283.352</ele>
        <time>2016-09-05T13:43:28.239Z</time>
      </trkpt>
      <trkpt lat="47.36752" lon="6.42978">
        <ele>283.54</ele>
        <time>2016-09-05T13:43:29.238Z</time>
      </trkpt>
      <trkpt lat="47.36755" lon="6.42974">
        <ele>285.378</ele>
        <time>2016-09-05T13:43:30.200Z</time>
      </trkpt>
      <trkpt lat="47.36757" lon="6.42968">
        <ele>285.136</ele>
        <time>2016-09-05T13:43:31.191Z</time>
      </trkpt>
      <trkpt lat="47.36761" lon="6.42961">
        <ele>286.465</ele>
        <time>2016-09-05T13:43:32.192Z</time>
      </trkpt>
      <trkpt lat="47.36764" lon="6.42955">
        <ele>287.802</ele>
        <time>2016-09-05T13:43:33.190Z</time>
      </trkpt>
      <trkpt lat="47.36767" lon="6.42949">
        <ele>290.013</ele>
        <time>2016-09-05T13:43:34.201Z</time>
      </trkpt>
      <trkpt lat="47.36768" lon="6.42943">
        <ele>290.532</ele>
        <time>2016-09-05T13:43:35.284Z</time>
      </trkpt>
      <trkpt lat="47.36769" lon="6.42938">
        <ele>290.292</ele>
        <time>2016-09-05T13:43:36.286Z</time>
      </trkpt>
      <trkpt lat="47.36767" lon="6.42932">
        <ele>286.619</ele>
        <time>2016-09-05T13:43:37.188Z</time>
      </trkpt>
      <trkpt lat="47.36767" lon="6.42927">
        <ele>287.022</ele>
        <time>2016-09-05T13:43:38.191Z</time>
      </trkpt>
      <trkpt lat="47.3677" lon="6.4292">
        <ele>285.78</ele>
        <time>2016-09-05T13:43:39.189Z</time>
      </trkpt>
      <trkpt lat="47.3677" lon="6.42914">
        <ele>284.784</ele>
        <time>2016-09-05T13:43:40.176Z</time>
      </trkpt>
      <trkpt lat="47.36773" lon="6.4291">
        <ele>286.111</ele>
        <time>2016-09-05T13:43:41.190Z</time>
      </trkpt>
      <trkpt lat="47.36772" lon="6.42904">
        <ele>282.009</ele>
        <time>2016-09-05T13:43:42.288Z</time>
      </trkpt>
      <trkpt lat="47.3677" lon="6.42896">
        <ele>275.951</ele>
        <time>2016-09-05T13:43:43.296Z</time>
      </trkpt>
      <trkpt lat="47.36772" lon="6.42889">
        <ele>274.754</ele>
        <time>2016-09-05T13:43:44.367Z</time>
      </trkpt>
      <trkpt lat="47.36772" lon="6.42884">
        <ele>272.965</ele>
        <time>2016-09-05T13:43:45.350Z</time>
      </trkpt>
      <trkpt lat="47.36774" lon="6.42879">
        <ele>273.816</ele>
        <time>2016-09-05T13:43:46.214Z</time>
      </trkpt>
      <trkpt lat="47.36775" lon="6.42874">
        <ele>274.346</ele>
        <time>2016-09-05T13:43:47.204Z</time>
      </trkpt>
      <trkpt lat="47.36777" lon="6.42869">
        <ele>274.133</ele>
        <time>2016-09-05T13:43:48.200Z</time>
      </trkpt>
      <trkpt lat="47.36779" lon="6.42864">
        <ele>275.648</ele>
        <time>2016-09-05T13:43:49.188Z</time>
      </trkpt>
      <trkpt lat="47.3678" lon="6.42859">
        <ele>275.613</ele>
        <time>2016-09-05T13:43:50.209Z</time>
      </trkpt>
      <trkpt lat="47.36785" lon="6.4285">
        <ele>276.327</ele>
        <time>2016-09-05T13:43:51.209Z</time>
      </trkpt>
      <trkpt lat="47.36785" lon="6.42849">
        <ele>276.272</ele>
        <time>2016-09-05T13:43:52.209Z</time>
      </trkpt>
      <trkpt lat="47.36787" lon="6.42845">
        <ele>276.216</ele>
        <time>2016-09-05T13:43:53.209Z</time>
      </trkpt>
      <trkpt lat="47.36788" lon="6.4284">
        <ele>276.156</ele>
        <time>2016-09-05T13:43:54.209Z</time>
      </trkpt>
      <trkpt lat="47.36791" lon="6.42835">
        <ele>276.09</ele>
        <time>2016-09-05T13:43:55.209Z</time>
      </trkpt>
      <trkpt lat="47.36793" lon="6.42831">
        <ele>276.016</ele>
        <time>2016-09-05T13:43:56.209Z</time>
      </trkpt>
      <trkpt lat="47.36796" lon="6.42828">
        <ele>275.93</ele>
        <time>2016-09-05T13:43:57.209Z</time>
      </trkpt>
      <trkpt lat="47.36798" lon="6.42825">
        <ele>275.831</ele>
        <time>2016-09-05T13:43:58.209Z</time>
      </trkpt>
      <trkpt lat="47.36801" lon="6.42821">
        <ele>275.716</ele>
        <time>2016-09-05T13:43:59.209Z</time>
      </trkpt>
      <trkpt lat="47.36804" lon="6.42817">
        <ele>275.583</ele>
        <time>2016-09-05T13:44:00.209Z</time>
      </trkpt>
      <trkpt lat="47.36808" lon="6.42813">
        <ele>275.432</ele>
        <time>2016-09-05T13:44:01.209Z</time>
      </trkpt>
      <trkpt lat="47.36811" lon="6.42808">
        <ele>275.262</ele>
        <time>2016-09-05T13:44:02.209Z</time>
      </trkpt>
      <trkpt lat="47.36814" lon="6.42804">
        <ele>275.073</ele>
        <time>2016-09-05T13:44:03.209Z</time>
      </trkpt>
      <trkpt lat="47.36818" lon="6.42799">
        <ele>274.866</ele>
        <time>2016-09-05T13:44:04.209Z</time>
      </trkpt>
      <trkpt lat="47.36822" lon="6.42794">
        <ele>274.643</ele>
        <time>2016-09-05T13:44:05.209Z</time>
      </trkpt>
      <trkpt lat="47.36825" lon="6.4279">
        <ele>274.404</ele>
        <time>2016-09-05T13:44:06.209Z</time>
      </trkpt>
      <trkpt lat="47.36829" lon="6.42787">
        <ele>274.15</ele>
        <time>2016-09-05T13:44:07.209Z</time>
      </trkpt>
      <trkpt lat="47.36834" lon="6.42784">
        <ele>273.884</ele>
        <time>2016-09-05T13:44:08.209Z</time>
      </trkpt>
      <trkpt lat="47.36838" lon="6.42781">
        <ele>273.606</ele>
        <time>2016-09-05T13:44:09.209Z</time>
      </trkpt>
      <trkpt lat="47.36843" lon="6.42778">
        <ele>273.317</ele>
        <time>2016-09-05T13:44:10.209Z</time>
      </trkpt>
      <trkpt lat="47.36847" lon="6.42774">
        <ele>273.018</ele>
        <time>2016-09-05T13:44:11.209Z</time>
      </trkpt>
      <trkpt lat="47.36851" lon="6.42771">
        <ele>272.71</ele>
        <time>2016-09-05T13:44:12.209Z</time>
      </trkpt>
      <trkpt lat="47.36855" lon="6.42768">
        <ele>272.395</ele>
        <time>2016-09-05T13:44:13.209Z</time>
      </trkpt>
      <trkpt lat="47.36859" lon="6.42765">
        <ele>272.073</ele>
        <time>2016-09-05T13:44:14.209Z</time>
      </trkpt>
      <trkpt lat="47.36863" lon="6.42762">
        <ele>271.746</ele>
        <time>2016-09-05T13:44:15.209Z</time>
      </trkpt>
      <trkpt lat="47.36868" lon="6.42759">
        <ele>271.417</ele>
        <time>2016-09-05T13:44:16.209Z</time>
      </trkpt>
      <trkpt lat="47.36872" lon="6.42757">
        <ele>271.089</ele>
        <time>2016-09-05T13:44:17.209Z</time>
      </trkpt>
      <trkpt lat="47.36877" lon="6.42754">
        <ele>270.762</ele>
        <time>2016-09-05T13:44:18.209Z</time>
      </trkpt>
      <trkpt lat="47.36881" lon="6.4275">
        <ele>270.438</ele>
        <time>2016-09-05T13:44:19.209Z</time>
      </trkpt>
      <trkpt lat="47.36886" lon="6.42746">
        <ele>270.118</ele>
        <time>2016-09-05T13:44:20.209Z</time>
      </trkpt>
      <trkpt lat="47.36889" lon="6.42744">
        <ele>269.803</ele>
        <time>2016-09-05T13:44:21.209Z</time>
      </trkpt>
      <trkpt lat="47.36893" lon="6.42742">
        <ele>269.491</ele>
        <time>2016-09-05T13:44:22.209Z</time>
      </trkpt>
      <trkpt lat="47.36896" lon="6.42738">
        <ele>269.182</ele>
        <time>2016-09-05T13:44:23.209Z</time>
      </trkpt>
      <trkpt lat="47.369" lon="6.42735">
        <ele>268.874</ele>
        <time>2016-09-05T13:44:24.209Z</time>
      </trkpt>
      <trkpt lat="47.36903" lon="6.42732">
        <ele>268.567</ele>
        <time>2016-09-05T13:44:25.209Z</time>
      </trkpt>
      <trkpt lat="47.36907" lon="6.42728">
        <ele>268.26</ele>
        <time>2016-09-05T13:44:26.209Z</time>
      </trkpt>
      <trkpt lat="47.3691" lon="6.42726">
        <ele>267.953</ele>
        <time>2016-09-05T13:44:27.209Z</time>
      </trkpt>
      <trkpt lat="47.36914" lon="6.42724">
        <ele>267.646</ele>
        <time>2016-09-05T13:44:28.209Z</time>
      </trkpt>
      <trkpt lat="47.36916" lon="6.42724">
        <ele>267.339</ele>
        <time>2016-09-05T13:44:29.209Z</time>
      </trkpt>
      <trkpt lat="47.36919" lon="6.42725">
        <ele>267.032</ele>
        <time>2016-09-05T13:44:30.209Z</time>
      </trkpt>
      <trkpt lat="47.36928" lon="6.42716">
        <ele>265.875</ele>
        <time>2016-09-05T13:44:31.260Z</time>
      </trkpt>
      <trkpt lat="47.36928" lon="6.42716">
        <ele>265.875</ele>
        <time>2016-09-05T13:44:31.906Z</time>
      </trkpt>
      <trkpt lat="47.36931" lon="6.42715">
        <ele>267.44</ele>
        <time>2016-09-05T13:44:32.278Z</time>
      </trkpt>
      <trkpt lat="47.36935" lon="6.42714">
        <ele>268.224</ele>
        <time>2016-09-05T13:44:33.277Z</time>
      </trkpt>
      <trkpt lat="47.36938" lon="6.42712">
        <ele>267.774</ele>
        <time>2016-09-05T13:44:34.190Z</time>
      </trkpt>
      <trkpt lat="47.36942" lon="6.42711">
        <ele>269.455</ele>
        <time>2016-09-05T13:44:35.188Z</time>
      </trkpt>
      <trkpt lat="47.36946" lon="6.42711">
        <ele>270.192</ele>
        <time>2016-09-05T13:44:36.186Z</time>
      </trkpt>
      <trkpt lat="47.36951" lon="6.42712">
        <ele>269.33</ele>
        <time>2016-09-05T13:44:37.185Z</time>
      </trkpt>
      <trkpt lat="47.36955" lon="6.42712">
        <ele>268.965</ele>
        <time>2016-09-05T13:44:38.185Z</time>
      </trkpt>
      <trkpt lat="47.36958" lon="6.42713">
        <ele>270.997</ele>
        <time>2016-09-05T13:44:39.345Z</time>
      </trkpt>
      <trkpt lat="47.36962" lon="6.42714">
        <ele>273.743</ele>
        <time>2016-09-05T13:44:40.349Z</time>
      </trkpt>
      <trkpt lat="47.36966" lon="6.42713">
        <ele>272.973</ele>
        <time>2016-09-05T13:44:41.180Z</time>
      </trkpt>
      <trkpt lat="47.36971" lon="6.42714">
        <ele>273.804</ele>
        <time>2016-09-05T13:44:42.174Z</time>
      </trkpt>
      <trkpt lat="47.36975" lon="6.42714">
        <ele>274.103</ele>
        <time>2016-09-05T13:44:43.174Z</time>
      </trkpt>
      <trkpt lat="47.36981" lon="6.42709">
        <ele>268.79</ele>
        <time>2016-09-05T13:44:44.173Z</time>
      </trkpt>
      <trkpt lat="47.36985" lon="6.42712">
        <ele>269.387</ele>
        <time>2016-09-05T13:44:45.181Z</time>
      </trkpt>
      <trkpt lat="47.36989" lon="6.42715">
        <ele>269.242</ele>
        <time>2016-09-05T13:44:46.192Z</time>
      </trkpt>
      <trkpt lat="47.36994" lon="6.42716">
        <ele>268.8</ele>
        <time>2016-09-05T13:44:47.185Z</time>
      </trkpt>
      <trkpt lat="47.36998" lon="6.42716">
        <ele>268.814</ele>
        <time>2016-09-05T13:44:48.306Z</time>
      </trkpt>
      <trkpt lat="47.37002" lon="6.42715">
        <ele>267.566</ele>
        <time>2016-09-05T13:44:49.356Z</time>
      </trkpt>
      <trkpt lat="47.37007" lon="6.42717">
        <ele>267.334</ele>
        <time>2016-09-05T13:44:50.324Z</time>
      </trkpt>
      <trkpt lat="47.3701" lon="6.42716">
        <ele>266.367</ele>
        <time>2016-09-05T13:44:51.530Z</time>
      </trkpt>
      <trkpt lat="47.3702" lon="6.42713">
        <ele>264.505</ele>
        <time>2016-09-05T13:44:52.530Z</time>
      </trkpt>
      <trkpt lat="47.37022" lon="6.42715">
        <ele>264.514</ele>
        <time>2016-09-05T13:44:53.530Z</time>
      </trkpt>
      <trkpt lat="47.37026" lon="6.42717">
        <ele>264.523</ele>
        <time>2016-09-05T13:44:54.530Z</time>
      </trkpt>
      <trkpt lat="47.37029" lon="6.42717">
        <ele>264.532</ele>
        <time>2016-09-05T13:44:55.530Z</time>
      </trkpt>
      <trkpt lat="47.37032" lon="6.42717">
        <ele>264.543</ele>
        <time>2016-09-05T13:44:56.530Z</time>
      </trkpt>
      <trkpt lat="47.37036" lon="6.42716">
        <ele>264.557</ele>
        <time>2016-09-05T13:44:57.530Z</time>
      </trkpt>
      <trkpt lat="47.3704" lon="6.42715">
        <ele>264.572</ele>
        <time>2016-09-05T13:44:58.530Z</time>
      </trkpt>
      <trkpt lat="47.37044" lon="6.42714">
        <ele>264.59</ele>
        <time>2016-09-05T13:44:59.530Z</time>
      </trkpt>
      <trkpt lat="47.37048" lon="6.42713">
        <ele>264.611</ele>
        <time>2016-09-05T13:45:00.530Z</time>
      </trkpt>
      <trkpt lat="47.37052" lon="6.42711">
        <ele>264.634</ele>
        <time>2016-09-05T13:45:01.530Z</time>
      </trkpt>
      <trkpt lat="47.37056" lon="6.4271">
        <ele>264.661</ele>
        <time>2016-09-05T13:45:02.530Z</time>
      </trkpt>
      <trkpt lat="47.3706" lon="6.42708">
        <ele>264.692</ele>
        <time>2016-09-05T13:45:03.530Z</time>
      </trkpt>
      <trkpt lat="47.37064" lon="6.42708">
        <ele>264.727</ele>
        <time>2016-09-05T13:45:04.530Z</time>
      </trkpt>
      <trkpt lat="47.37069" lon="6.42708">
        <ele>264.768</ele>
        <time>2016-09-05T13:45:05.530Z</time>
      </trkpt>
      <trkpt lat="47.37073" lon="6.42708">
        <ele>264.817</ele>
        <time>2016-09-05T13:45:06.530Z</time>
      </trkpt>
      <trkpt lat="47.37078" lon="6.42708">
        <ele>264.877</ele>
        <time>2016-09-05T13:45:07.530Z</time>
      </trkpt>
      <trkpt lat="47.37083" lon="6.42707">
        <ele>264.951</ele>
        <time>2016-09-05T13:45:08.530Z</time>
      </trkpt>
      <trkpt lat="47.37088" lon="6.42705">
        <ele>265.043</ele>
        <time>2016-09-05T13:45:09.530Z</time>
      </trkpt>
      <trkpt lat="47.37093" lon="6.42704">
        <ele>265.153</ele>
        <time>2016-09-05T13:45:10.530Z</time>
      </trkpt>
      <trkpt lat="47.37098" lon="6.42702">
        <ele>265.284</ele>
        <time>2016-09-05T13:45:11.530Z</time>
      </trkpt>
      <trkpt lat="47.37103" lon="6.427">
        <ele>265.437</ele>
        <time>2016-09-05T13:45:12.530Z</time>
      </trkpt>
      <trkpt lat="47.37108" lon="6.42696">
        <ele>265.614</ele>
        <time>2016-09-05T13:45:13.530Z</time>
      </trkpt>
      <trkpt lat="47.37112" lon="6.4269">
        <ele>265.813</ele>
        <time>2016-09-05T13:45:14.530Z</time>
      </trkpt>
      <trkpt lat="47.37115" lon="6.42685">
        <ele>266.036</ele>
        <time>2016-09-05T13:45:15.530Z</time>
      </trkpt>
      <trkpt lat="47.37116" lon="6.42682">
        <ele>266.282</ele>
        <time>2016-09-05T13:45:16.530Z</time>
      </trkpt>
      <trkpt lat="47.37118" lon="6.42679">
        <ele>266.549</ele>
        <time>2016-09-05T13:45:17.530Z</time>
      </trkpt>
      <trkpt lat="47.37119" lon="6.42674">
        <ele>266.835</ele>
        <time>2016-09-05T13:45:18.530Z</time>
      </trkpt>
      <trkpt lat="47.37119" lon="6.42671">
        <ele>267.139</ele>
        <time>2016-09-05T13:45:19.530Z</time>
      </trkpt>
      <trkpt lat="47.3712" lon="6.42668">
        <ele>267.46</ele>
        <time>2016-09-05T13:45:20.530Z</time>
      </trkpt>
      <trkpt lat="47.37121" lon="6.42662">
        <ele>267.799</ele>
        <time>2016-09-05T13:45:21.530Z</time>
      </trkpt>
      <trkpt lat="47.37124" lon="6.42656">
        <ele>268.155</ele>
        <time>2016-09-05T13:45:22.530Z</time>
      </trkpt>
      <trkpt lat="47.37127" lon="6.42649">
        <ele>268.528</ele>
        <time>2016-09-05T13:45:23.530Z</time>
      </trkpt>
      <trkpt lat="47.3713" lon="6.42644">
        <ele>268.918</ele>
        <time>2016-09-05T13:45:24.530Z</time>
      </trkpt>
      <trkpt lat="47.37133" lon="6.42639">
        <ele>269.322</ele>
        <time>2016-09-05T13:45:25.530Z</time>
      </trkpt>
      <trkpt lat="47.37136" lon="6.42634">
        <ele>269.739</ele>
        <time>2016-09-05T13:45:26.530Z</time>
      </trkpt>
      <trkpt lat="47.37139" lon="6.4263">
        <ele>270.167</ele>
        <time>2016-09-05T13:45:27.530Z</time>
      </trkpt>
      <trkpt lat="47.37142" lon="6.42627">
        <ele>270.604</ele>
        <time>2016-09-05T13:45:28.530Z</time>
      </trkpt>
      <trkpt lat="47.37144" lon="6.42624">
        <ele>271.046</ele>
        <time>2016-09-05T13:45:29.530Z</time>
      </trkpt>
      <trkpt lat="47.37146" lon="6.42622">
        <ele>271.492</ele>
        <time>2016-09-05T13:45:30.530Z</time>
      </trkpt>
      <trkpt lat="47.37148" lon="6.42621">
        <ele>271.94</ele>
        <time>2016-09-05T13:45:31.530Z</time>
      </trkpt>
      <trkpt lat="47.37148" lon="6.42621">
        <ele>272.389</ele>
        <time>2016-09-05T13:45:32.530Z</time>
      </trkpt>
      <trkpt lat="47.37157" lon="6.42605">
        <ele>270.362</ele>
        <time>2016-09-05T13:45:33.194Z</time>
      </trkpt>
      <trkpt lat="47.37158" lon="6.426">
        <ele>268.595</ele>
        <time>2016-09-05T13:45:34.268Z</time>
      </trkpt>
      <trkpt lat="47.3716" lon="6.42595">
        <ele>269.765</ele>
        <time>2016-09-05T13:45:35.262Z</time>
      </trkpt>
      <trkpt lat="47.37162" lon="6.42589">
        <ele>269.62</ele>
        <time>2016-09-05T13:45:36.252Z</time>
      </trkpt>
      <trkpt lat="47.37163" lon="6.42583">
        <ele>271.115</ele>
        <time>2016-09-05T13:45:37.258Z</time>
      </trkpt>
      <trkpt lat="47.37165" lon="6.42577">
        <ele>270.274</ele>
        <time>2016-09-05T13:45:38.201Z</time>
      </trkpt>
      <trkpt lat="47.37166" lon="6.42571">
        <ele>270.591</ele>
        <time>2016-09-05T13:45:39.199Z</time>
      </trkpt>
      <trkpt lat="47.37167" lon="6.42565">
        <ele>270.615</ele>
        <time>2016-09-05T13:45:40.206Z</time>
      </trkpt>
      <trkpt lat="47.37167" lon="6.42558">
        <ele>270.379</ele>
        <time>2016-09-05T13:45:41.202Z</time>
      </trkpt>
      <trkpt lat="47.37167" lon="6.42552">
        <ele>270.211</ele>
        <time>2016-09-05T13:45:42.212Z</time>
      </trkpt>
      <trkpt lat="47.37167" lon="6.42546">
        <ele>269.691</ele>
        <time>2016-09-05T13:45:43.361Z</time>
      </trkpt>
      <trkpt lat="47.37167" lon="6.4254">
        <ele>270.217</ele>
        <time>2016-09-05T13:45:44.356Z</time>
      </trkpt>
      <trkpt lat="47.37166" lon="6.42534">
        <ele>269.497</ele>
        <time>2016-09-05T13:45:45.209Z</time>
      </trkpt>
      <trkpt lat="47.37165" lon="6.42528">
        <ele>269.815</ele>
        <time>2016-09-05T13:45:46.211Z</time>
      </trkpt>
      <trkpt lat="47.37164" lon="6.42522">
        <ele>269.299</ele>
        <time>2016-09-05T13:45:47.199Z</time>
      </trkpt>
      <trkpt lat="47.37163" lon="6.42517">
        <ele>269.854</ele>
        <time>2016-09-05T13:45:48.197Z</time>
      </trkpt>
      <trkpt lat="47.37161" lon="6.42511">
        <ele>271.339</ele>
        <time>2016-09-05T13:45:49.201Z</time>
      </trkpt>
      <trkpt lat="47.3716" lon="6.42506">
        <ele>271.371</ele>
        <time>2016-09-05T13:45:50.292Z</time>
      </trkpt>
      <trkpt lat="47.37158" lon="6.42501">
        <ele>271.072</ele>
        <time>2016-09-05T13:45:51.301Z</time>
      </trkpt>
      <trkpt lat="47.37156" lon="6.42495">
        <ele>271.14</ele>
        <time>2016-09-05T13:45:52.254Z</time>
      </trkpt>
      <trkpt lat="47.37154" lon="6.42488">
        <ele>270.618</ele>
        <time>2016-09-05T13:45:53.254Z</time>
      </trkpt>
      <trkpt lat="47.37155" lon="6.42481">
        <ele>272.855</ele>
        <time>2016-09-05T13:45:54.254Z</time>
      </trkpt>
      <trkpt lat="47.37152" lon="6.42477">
        <ele>272.653</ele>
        <time>2016-09-05T13:45:55.254Z</time>
      </trkpt>
      <trkpt lat="47.37149" lon="6.42472">
        <ele>272.449</ele>
        <time>2016-09-05T13:45:56.254Z</time>
      </trkpt>
      <trkpt lat="47.37147" lon="6.42467">
        <ele>272.241</ele>
        <time>2016-09-05T13:45:57.254Z</time>
      </trkpt>
      <trkpt lat="47.37144" lon="6.42462">
        <ele>272.028</ele>
        <time>2016-09-05T13:45:58.254Z</time>
      </trkpt>
      <trkpt lat="47.37142" lon="6.42457">
        <ele>271.811</ele>
        <time>2016-09-05T13:45:59.254Z</time>
      </trkpt>
      <trkpt lat="47.3714" lon="6.42451">
        <ele>271.59</ele>
        <time>2016-09-05T13:46:00.254Z</time>
      </trkpt>
      <trkpt lat="47.37138" lon="6.42445">
        <ele>271.367</ele>
        <time>2016-09-05T13:46:01.254Z</time>
      </trkpt>
      <trkpt lat="47.37136" lon="6.4244">
        <ele>271.144</ele>
        <time>2016-09-05T13:46:02.254Z</time>
      </trkpt>
      <trkpt lat="47.37134" lon="6.42435">
        <ele>270.926</ele>
        <time>2016-09-05T13:46:03.254Z</time>
      </trkpt>
      <trkpt lat="47.37132" lon="6.4243">
        <ele>270.714</ele>
        <time>2016-09-05T13:46:04.254Z</time>
      </trkpt>
      <trkpt lat="47.3713" lon="6.42425">
        <ele>270.514</ele>
        <time>2016-09-05T13:46:05.254Z</time>
      </trkpt>
      <trkpt lat="47.37128" lon="6.42419">
        <ele>270.328</ele>
        <time>2016-09-05T13:46:06.254Z</time>
      </trkpt>
      <trkpt lat="47.37126" lon="6.42414">
        <ele>270.16</ele>
        <time>2016-09-05T13:46:07.254Z</time>
      </trkpt>
      <trkpt lat="47.37124" lon="6.42409">
        <ele>270.012</ele>
        <time>2016-09-05T13:46:08.254Z</time>
      </trkpt>
      <trkpt lat="47.37122" lon="6.42405">
        <ele>269.885</ele>
        <time>2016-09-05T13:46:09.254Z</time>
      </trkpt>
      <trkpt lat="47.3712" lon="6.424">
        <ele>269.78</ele>
        <time>2016-09-05T13:46:10.254Z</time>
      </trkpt>
      <trkpt lat="47.37118" lon="6.42394">
        <ele>269.699</ele>
        <time>2016-09-05T13:46:11.254Z</time>
      </trkpt>
      <trkpt lat="47.37115" lon="6.42389">
        <ele>269.643</ele>
        <time>2016-09-05T13:46:12.254Z</time>
      </trkpt>
      <trkpt lat="47.37113" lon="6.42384">
        <ele>269.613</ele>
        <time>2016-09-05T13:46:13.254Z</time>
      </trkpt>
      <trkpt lat="47.37111" lon="6.42379">
        <ele>269.61</ele>
        <time>2016-09-05T13:46:14.254Z</time>
      </trkpt>
      <trkpt lat="47.37109" lon="6.42374">
        <ele>269.635</ele>
        <time>2016-09-05T13:46:15.254Z</time>
      </trkpt>
      <trkpt lat="47.37107" lon="6.42368">
        <ele>269.687</ele>
        <time>2016-09-05T13:46:16.254Z</time>
      </trkpt>
      <trkpt lat="47.37104" lon="6.42363">
        <ele>269.767</ele>
        <time>2016-09-05T13:46:17.254Z</time>
      </trkpt>
      <trkpt lat="47.37102" lon="6.42359">
        <ele>269.874</ele>
        <time>2016-09-05T13:46:18.254Z</time>
      </trkpt>
      <trkpt lat="47.371" lon="6.42354">
        <ele>270.006</ele>
        <time>2016-09-05T13:46:19.254Z</time>
      </trkpt>
      <trkpt lat="47.37098" lon="6.42349">
        <ele>270.16</ele>
        <time>2016-09-05T13:46:20.254Z</time>
      </trkpt>
      <trkpt lat="47.37096" lon="6.42344">
        <ele>270.334</ele>
        <time>2016-09-05T13:46:21.254Z</time>
      </trkpt>
      <trkpt lat="47.37094" lon="6.4234">
        <ele>270.526</ele>
        <time>2016-09-05T13:46:22.254Z</time>
      </trkpt>
      <trkpt lat="47.37093" lon="6.42335">
        <ele>270.734</ele>
        <time>2016-09-05T13:46:23.254Z</time>
      </trkpt>
      <trkpt lat="47.37091" lon="6.42331">
        <ele>270.955</ele>
        <time>2016-09-05T13:46:24.254Z</time>
      </trkpt>
      <trkpt lat="47.37089" lon="6.42327">
        <ele>271.186</ele>
        <time>2016-09-05T13:46:25.254Z</time>
      </trkpt>
      <trkpt lat="47.37088" lon="6.42323">
        <ele>271.428</ele>
        <time>2016-09-05T13:46:26.254Z</time>
      </trkpt>
      <trkpt lat="47.37086" lon="6.42319">
        <ele>271.68</ele>
        <time>2016-09-05T13:46:27.254Z</time>
      </trkpt>
      <trkpt lat="47.37084" lon="6.42315">
        <ele>271.94</ele>
        <time>2016-09-05T13:46:28.254Z</time>
      </trkpt>
      <trkpt lat="47.37082" lon="6.42311">
        <ele>272.207</ele>
        <time>2016-09-05T13:46:29.254Z</time>
      </trkpt>
      <trkpt lat="47.37079" lon="6.42307">
        <ele>272.478</ele>
        <time>2016-09-05T13:46:30.254Z</time>
      </trkpt>
      <trkpt lat="47.37077" lon="6.42302">
        <ele>272.752</ele>
        <time>2016-09-05T13:46:31.254Z</time>
      </trkpt>
      <trkpt lat="47.37075" lon="6.42298">
        <ele>273.028</ele>
        <time>2016-09-05T13:46:32.254Z</time>
      </trkpt>
      <trkpt lat="47.37072" lon="6.42294">
        <ele>273.304</ele>
        <time>2016-09-05T13:46:33.254Z</time>
      </trkpt>
      <trkpt lat="47.3707" lon="6.42289">
        <ele>273.738</ele>
        <time>2016-09-05T13:46:34.545Z</time>
      </trkpt>
      <trkpt lat="47.37067" lon="6.42284">
        <ele>275.67</ele>
        <time>2016-09-05T13:46:35.303Z</time>
      </trkpt>
      <trkpt lat="47.37065" lon="6.4228">
        <ele>274.932</ele>
        <time>2016-09-05T13:46:36.201Z</time>
      </trkpt>
      <trkpt lat="47.37062" lon="6.42275">
        <ele>274.939</ele>
        <time>2016-09-05T13:46:37.215Z</time>
      </trkpt>
      <trkpt lat="47.37059" lon="6.42271">
        <ele>276.676</ele>
        <time>2016-09-05T13:46:38.291Z</time>
      </trkpt>
      <trkpt lat="47.37056" lon="6.42266">
        <ele>278.117</ele>
        <time>2016-09-05T13:46:39.300Z</time>
      </trkpt>
      <trkpt lat="47.37053" lon="6.42261">
        <ele>277.94</ele>
        <time>2016-09-05T13:46:40.345Z</time>
      </trkpt>
      <trkpt lat="47.3705" lon="6.42256">
        <ele>275.327</ele>
        <time>2016-09-05T13:46:41.336Z</time>
      </trkpt>
      <trkpt lat="47.37048" lon="6.42251">
        <ele>273.671</ele>
        <time>2016-09-05T13:46:42.189Z</time>
      </trkpt>
      <trkpt lat="47.37044" lon="6.42246">
        <ele>270.123</ele>
        <time>2016-09-05T13:46:43.194Z</time>
      </trkpt>
      <trkpt lat="47.3704" lon="6.42241">
        <ele>270.524</ele>
        <time>2016-09-05T13:46:44.209Z</time>
      </trkpt>
      <trkpt lat="47.37037" lon="6.42236">
        <ele>270.958</ele>
        <time>2016-09-05T13:46:45.231Z</time>
      </trkpt>
      <trkpt lat="47.37033" lon="6.42231">
        <ele>270.534</ele>
        <time>2016-09-05T13:46:46.222Z</time>
      </trkpt>
      <trkpt lat="47.3703" lon="6.42226">
        <ele>271.368</ele>
        <time>2016-09-05T13:46:47.265Z</time>
      </trkpt>
      <trkpt lat="47.37027" lon="6.42222">
        <ele>271.736</ele>
        <time>2016-09-05T13:46:48.269Z</time>
      </trkpt>
      <trkpt lat="47.37024" lon="6.42217">
        <ele>270.708</ele>
        <time>2016-09-05T13:46:49.191Z</time>
      </trkpt>
      <trkpt lat="47.37021" lon="6.42212">
        <ele>270.417</ele>
        <time>2016-09-05T13:46:50.182Z</time>
      </trkpt>
      <trkpt lat="47.37018" lon="6.42208">
        <ele>270.657</ele>
        <time>2016-09-05T13:46:51.193Z</time>
      </trkpt>
      <trkpt lat="47.37016" lon="6.42204">
        <ele>271.093</ele>
        <time>2016-09-05T13:46:52.205Z</time>
      </trkpt>
      <trkpt lat="47.37013" lon="6.422">
        <ele>271.676</ele>
        <time>2016-09-05T13:46:53.207Z</time>
      </trkpt>
      <trkpt lat="47.37009" lon="6.42197">
        <ele>272.369</ele>
        <time>2016-09-05T13:46:54.282Z</time>
      </trkpt>
      <trkpt lat="47.37005" lon="6.42194">
        <ele>274.116</ele>
        <time>2016-09-05T13:46:55.282Z</time>
      </trkpt>
      <trkpt lat="47.37002" lon="6.42189">
        <ele>274.398</ele>
        <time>2016-09-05T13:46:56.282Z</time>
      </trkpt>
      <trkpt lat="47.36999" lon="6.42185">
        <ele>274.679</ele>
        <time>2016-09-05T13:46:57.282Z</time>
      </trkpt>
      <trkpt lat="47.36996" lon="6.42181">
        <ele>274.958</ele>
        <time>2016-09-05T13:46:58.282Z</time>
      </trkpt>
      <trkpt lat="47.36993" lon="6.42177">
        <ele>275.232</ele>
        <time>2016-09-05T13:46:59.282Z</time>
      </trkpt>
      <trkpt lat="47.3699" lon="6.42174">
        <ele>275.5</ele>
        <time>2016-09-05T13:47:00.282Z</time>
      </trkpt>
      <trkpt lat="47.36987" lon="6.42171">
        <ele>275.757</ele>
        <time>2016-09-05T13:47:01.282Z</time>
      </trkpt>
      <trkpt lat="47.36984" lon="6.42167">
        <ele>276.002</ele>
        <time>2016-09-05T13:47:02.282Z</time>
      </trkpt>
      <trkpt lat="47.36981" lon="6.42163">
        <ele>276.229</ele>
        <time>2016-09-05T13:47:03.282Z</time>
      </trkpt>
      <trkpt lat="47.36977" lon="6.4216">
        <ele>276.437</ele>
        <time>2016-09-05T13:47:04.282Z</time>
      </trkpt>
      <trkpt lat="47.36974" lon="6.42157">
        <ele>276.622</ele>
        <time>2016-09-05T13:47:05.282Z</time>
      </trkpt>
      <trkpt lat="47.3697" lon="6.42154">
        <ele>276.782</ele>
        <time>2016-09-05T13:47:06.282Z</time>
      </trkpt>
      <trkpt lat="47.36967" lon="6.42151">
        <ele>276.917</ele>
        <time>2016-09-05T13:47:07.282Z</time>
      </trkpt>
      <trkpt lat="47.36963" lon="6.42148">
        <ele>277.025</ele>
        <time>2016-09-05T13:47:08.282Z</time>
      </trkpt>
      <trkpt lat="47.3696" lon="6.42145">
        <ele>277.107</ele>
        <time>2016-09-05T13:47:09.282Z</time>
      </trkpt>
      <trkpt lat="47.36956" lon="6.42142">
        <ele>277.165</ele>
        <time>2016-09-05T13:47:10.282Z</time>
      </trkpt>
      <trkpt lat="47.36953" lon="6.42139">
        <ele>277.2</ele>
        <time>2016-09-05T13:47:11.282Z</time>
      </trkpt>
      <trkpt lat="47.36949" lon="6.42136">
        <ele>277.215</ele>
        <time>2016-09-05T13:47:12.282Z</time>
      </trkpt>
      <trkpt lat="47.36945" lon="6.42133">
        <ele>277.213</ele>
        <time>2016-09-05T13:47:13.282Z</time>
      </trkpt>
      <trkpt lat="47.36941" lon="6.42131">
        <ele>277.197</ele>
        <time>2016-09-05T13:47:14.282Z</time>
      </trkpt>
      <trkpt lat="47.36938" lon="6.4213">
        <ele>277.17</ele>
        <time>2016-09-05T13:47:15.282Z</time>
      </trkpt>
      <trkpt lat="47.36934" lon="6.42128">
        <ele>277.137</ele>
        <time>2016-09-05T13:47:16.282Z</time>
      </trkpt>
      <trkpt lat="47.3693" lon="6.42126">
        <ele>277.1</ele>
        <time>2016-09-05T13:47:17.282Z</time>
      </trkpt>
      <trkpt lat="47.36927" lon="6.42124">
        <ele>277.065</ele>
        <time>2016-09-05T13:47:18.282Z</time>
      </trkpt>
      <trkpt lat="47.36924" lon="6.4212">
        <ele>277.033</ele>
        <time>2016-09-05T13:47:19.282Z</time>
      </trkpt>
      <trkpt lat="47.36921" lon="6.42116">
        <ele>277.006</ele>
        <time>2016-09-05T13:47:20.282Z</time>
      </trkpt>
      <trkpt lat="47.36917" lon="6.42112">
        <ele>276.986</ele>
        <time>2016-09-05T13:47:21.282Z</time>
      </trkpt>
      <trkpt lat="47.36913" lon="6.42109">
        <ele>276.975</ele>
        <time>2016-09-05T13:47:22.282Z</time>
      </trkpt>
      <trkpt lat="47.36909" lon="6.42106">
        <ele>276.973</ele>
        <time>2016-09-05T13:47:23.282Z</time>
      </trkpt>
      <trkpt lat="47.36904" lon="6.42103">
        <ele>276.98</ele>
        <time>2016-09-05T13:47:24.282Z</time>
      </trkpt>
      <trkpt lat="47.369" lon="6.42101">
        <ele>276.996</ele>
        <time>2016-09-05T13:47:25.282Z</time>
      </trkpt>
      <trkpt lat="47.36896" lon="6.42098">
        <ele>277.022</ele>
        <time>2016-09-05T13:47:26.282Z</time>
      </trkpt>
      <trkpt lat="47.36893" lon="6.42094">
        <ele>277.057</ele>
        <time>2016-09-05T13:47:27.282Z</time>
      </trkpt>
      <trkpt lat="47.36889" lon="6.42091">
        <ele>277.099</ele>
        <time>2016-09-05T13:47:28.282Z</time>
      </trkpt>
      <trkpt lat="47.36885" lon="6.42089">
        <ele>277.148</ele>
        <time>2016-09-05T13:47:29.282Z</time>
      </trkpt>
      <trkpt lat="47.36881" lon="6.42086">
        <ele>277.203</ele>
        <time>2016-09-05T13:47:30.282Z</time>
      </trkpt>
      <trkpt lat="47.36878" lon="6.42083">
        <ele>277.263</ele>
        <time>2016-09-05T13:47:31.282Z</time>
      </trkpt>
      <trkpt lat="47.36874" lon="6.4208">
        <ele>277.327</ele>
        <time>2016-09-05T13:47:32.282Z</time>
      </trkpt>
      <trkpt lat="47.36871" lon="6.42077">
        <ele>277.394</ele>
        <time>2016-09-05T13:47:33.282Z</time>
      </trkpt>
      <trkpt lat="47.36868" lon="6.42073">
        <ele>277.461</ele>
        <time>2016-09-05T13:47:34.282Z</time>
      </trkpt>
      <trkpt lat="47.36865" lon="6.42069">
        <ele>277.529</ele>
        <time>2016-09-05T13:47:35.282Z</time>
      </trkpt>
      <trkpt lat="47.36859" lon="6.4207">
        <ele>277.955</ele>
        <time>2016-09-05T13:47:36.352Z</time>
      </trkpt>
      <trkpt lat="47.36855" lon="6.42067">
        <ele>276.612</ele>
        <time>2016-09-05T13:47:37.211Z</time>
      </trkpt>
      <trkpt lat="47.36851" lon="6.42065">
        <ele>276.728</ele>
        <time>2016-09-05T13:47:38.210Z</time>
      </trkpt>
      <trkpt lat="47.36847" lon="6.42062">
        <ele>276.396</ele>
        <time>2016-09-05T13:47:39.211Z</time>
      </trkpt>
      <trkpt lat="47.36843" lon="6.4206">
        <ele>276.173</ele>
        <time>2016-09-05T13:47:40.197Z</time>
      </trkpt>
      <trkpt lat="47.36839" lon="6.42058">
        <ele>275.9</ele>
        <time>2016-09-05T13:47:41.200Z</time>
      </trkpt>
      <trkpt lat="47.36835" lon="6.42055">
        <ele>277.207</ele>
        <time>2016-09-05T13:47:42.328Z</time>
      </trkpt>
      <trkpt lat="47.36831" lon="6.42053">
        <ele>276.866</ele>
        <time>2016-09-05T13:47:43.329Z</time>
      </trkpt>
      <trkpt lat="47.36827" lon="6.42051">
        <ele>276.502</ele>
        <time>2016-09-05T13:47:44.342Z</time>
      </trkpt>
      <trkpt lat="47.36823" lon="6.42049">
        <ele>275.625</ele>
        <time>2016-09-05T13:47:45.329Z</time>
      </trkpt>
      <trkpt lat="47.36819" lon="6.42046">
        <ele>275.529</ele>
        <time>2016-09-05T13:47:46.189Z</time>
      </trkpt>
      <trkpt lat="47.36816" lon="6.42044">
        <ele>275.6</ele>
        <time>2016-09-05T13:47:47.202Z</time>
      </trkpt>
      <trkpt lat="47.36812" lon="6.42042">
        <ele>275.637</ele>
        <time>2016-09-05T13:47:48.209Z</time>
      </trkpt>
      <trkpt lat="47.36808" lon="6.42039">
        <ele>275.708</ele>
        <time>2016-09-05T13:47:49.233Z</time>
      </trkpt>
      <trkpt lat="47.36804" lon="6.42037">
        <ele>274.5</ele>
        <time>2016-09-05T13:47:50.229Z</time>
      </trkpt>
      <trkpt lat="47.36801" lon="6.42034">
        <ele>274.46</ele>
        <time>2016-09-05T13:47:51.366Z</time>
      </trkpt>
      <trkpt lat="47.36796" lon="6.42032">
        <ele>275.064</ele>
        <time>2016-09-05T13:47:52.366Z</time>
      </trkpt>
      <trkpt lat="47.36792" lon="6.4203">
        <ele>276.786</ele>
        <time>2016-09-05T13:47:53.213Z</time>
      </trkpt>
      <trkpt lat="47.36788" lon="6.42027">
        <ele>275.751</ele>
        <time>2016-09-05T13:47:54.206Z</time>
      </trkpt>
      <trkpt lat="47.36784" lon="6.42024">
        <ele>275.607</ele>
        <time>2016-09-05T13:47:55.211Z</time>
      </trkpt>
      <trkpt lat="47.36778" lon="6.42024">
        <ele>274.758</ele>
        <time>2016-09-05T13:47:56.211Z</time>
      </trkpt>
      <trkpt lat="47.36775" lon="6.42021">
        <ele>274.347</ele>
        <time>2016-09-05T13:47:57.211Z</time>
      </trkpt>
      <trkpt lat="47.36771" lon="6.42019">
        <ele>273.938</ele>
        <time>2016-09-05T13:47:58.211Z</time>
      </trkpt>
      <trkpt lat="47.36767" lon="6.42016">
        <ele>273.532</ele>
        <time>2016-09-05T13:47:59.211Z</time>
      </trkpt>
      <trkpt lat="47.36764" lon="6.42012">
        <ele>273.132</ele>
        <time>2016-09-05T13:48:00.211Z</time>
      </trkpt>
      <trkpt lat="47.3676" lon="6.42009">
        <ele>272.738</ele>
        <time>2016-09-05T13:48:01.211Z</time>
      </trkpt>
      <trkpt lat="47.36756" lon="6.42007">
        <ele>272.352</ele>
        <time>2016-09-05T13:48:02.211Z</time>
      </trkpt>
      <trkpt lat="47.36752" lon="6.42004">
        <ele>271.976</ele>
        <time>2016-09-05T13:48:03.211Z</time>
      </trkpt>
      <trkpt lat="47.36748" lon="6.42002">
        <ele>271.611</ele>
        <time>2016-09-05T13:48:04.211Z</time>
      </trkpt>
      <trkpt lat="47.36744" lon="6.42">
        <ele>271.259</ele>
        <time>2016-09-05T13:48:05.211Z</time>
      </trkpt>
      <trkpt lat="47.3674" lon="6.41999">
        <ele>270.92</ele>
        <time>2016-09-05T13:48:06.211Z</time>
      </trkpt>
      <trkpt lat="47.36736" lon="6.41996">
        <ele>270.598</ele>
        <time>2016-09-05T13:48:07.211Z</time>
      </trkpt>
      <trkpt lat="47.36732" lon="6.41994">
        <ele>270.294</ele>
        <time>2016-09-05T13:48:08.211Z</time>
      </trkpt>
      <trkpt lat="47.36728" lon="6.41992">
        <ele>270.01</ele>
        <time>2016-09-05T13:48:09.211Z</time>
      </trkpt>
      <trkpt lat="47.36724" lon="6.4199">
        <ele>269.749</ele>
        <time>2016-09-05T13:48:10.211Z</time>
      </trkpt>
      <trkpt lat="47.36721" lon="6.41989">
        <ele>269.51</ele>
        <time>2016-09-05T13:48:11.211Z</time>
      </trkpt>
      <trkpt lat="47.36717" lon="6.41986">
        <ele>269.295</ele>
        <time>2016-09-05T13:48:12.211Z</time>
      </trkpt>
      <trkpt lat="47.36714" lon="6.41983">
        <ele>269.103</ele>
        <time>2016-09-05T13:48:13.211Z</time>
      </trkpt>
      <trkpt lat="47.3671" lon="6.4198">
        <ele>268.935</ele>
        <time>2016-09-05T13:48:14.211Z</time>
      </trkpt>
      <trkpt lat="47.36707" lon="6.41978">
        <ele>268.791</ele>
        <time>2016-09-05T13:48:15.211Z</time>
      </trkpt>
      <trkpt lat="47.36703" lon="6.41976">
        <ele>268.671</ele>
        <time>2016-09-05T13:48:16.211Z</time>
      </trkpt>
      <trkpt lat="47.36699" lon="6.41974">
        <ele>268.576</ele>
        <time>2016-09-05T13:48:17.211Z</time>
      </trkpt>
      <trkpt lat="47.36695" lon="6.41973">
        <ele>268.506</ele>
        <time>2016-09-05T13:48:18.211Z</time>
      </trkpt>
      <trkpt lat="47.36691" lon="6.41971">
        <ele>268.461</ele>
        <time>2016-09-05T13:48:19.211Z</time>
      </trkpt>
      <trkpt lat="47.36687" lon="6.41969">
        <ele>268.442</ele>
        <time>2016-09-05T13:48:20.211Z</time>
      </trkpt>
      <trkpt lat="47.36684" lon="6.41966">
        <ele>268.449</ele>
        <time>2016-09-05T13:48:21.211Z</time>
      </trkpt>
      <trkpt lat="47.3668" lon="6.41963">
        <ele>268.482</ele>
        <time>2016-09-05T13:48:22.211Z</time>
      </trkpt>
      <trkpt lat="47.36677" lon="6.41961">
        <ele>268.539</ele>
        <time>2016-09-05T13:48:23.211Z</time>
      </trkpt>
      <trkpt lat="47.36673" lon="6.41959">
        <ele>268.618</ele>
        <time>2016-09-05T13:48:24.211Z</time>
      </trkpt>
      <trkpt lat="47.36669" lon="6.41957">
        <ele>268.717</ele>
        <time>2016-09-05T13:48:25.211Z</time>
      </trkpt>
      <trkpt lat="47.36666" lon="6.41955">
        <ele>268.831</ele>
        <time>2016-09-05T13:48:26.211Z</time>
      </trkpt>
      <trkpt lat="47.36662" lon="6.41953">
        <ele>268.959</ele>
        <time>2016-09-05T13:48:27.211Z</time>
      </trkpt>
      <trkpt lat="47.36658" lon="6.41952">
        <ele>269.096</ele>
        <time>2016-09-05T13:48:28.211Z</time>
      </trkpt>
      <trkpt lat="47.36653" lon="6.41951">
        <ele>269.24</ele>
        <time>2016-09-05T13:48:29.211Z</time>
      </trkpt>
      <trkpt lat="47.3665" lon="6.41949">
        <ele>269.387</ele>
        <time>2016-09-05T13:48:30.211Z</time>
      </trkpt>
      <trkpt lat="47.36646" lon="6.41946">
        <ele>269.537</ele>
        <time>2016-09-05T13:48:31.211Z</time>
      </trkpt>
      <trkpt lat="47.36643" lon="6.41943">
        <ele>269.69</ele>
        <time>2016-09-05T13:48:32.211Z</time>
      </trkpt>
      <trkpt lat="47.3664" lon="6.41941">
        <ele>269.844</ele>
        <time>2016-09-05T13:48:33.211Z</time>
      </trkpt>
      <trkpt lat="47.36636" lon="6.41939">
        <ele>269.999</ele>
        <time>2016-09-05T13:48:34.211Z</time>
      </trkpt>
      <trkpt lat="47.36633" lon="6.41936">
        <ele>270.153</ele>
        <time>2016-09-05T13:48:35.211Z</time>
      </trkpt>
      <trkpt lat="47.3663" lon="6.41932">
        <ele>270.308</ele>
        <time>2016-09-05T13:48:36.211Z</time>
      </trkpt>
      <trkpt lat="47.36622" lon="6.41936">
        <ele>269.678</ele>
        <time>2016-09-05T13:48:37.204Z</time>
      </trkpt>
      <trkpt lat="47.36618" lon="6.41934">
        <ele>269.518</ele>
        <time>2016-09-05T13:48:38.213Z</time>
      </trkpt>
      <trkpt lat="47.36612" lon="6.41933">
        <ele>268.87</ele>
        <time>2016-09-05T13:48:39.385Z</time>
      </trkpt>
      <trkpt lat="47.36607" lon="6.4193">
        <ele>266.979</ele>
        <time>2016-09-05T13:48:40.370Z</time>
      </trkpt>
      <trkpt lat="47.36606" lon="6.41928">
        <ele>265.264</ele>
        <time>2016-09-05T13:48:41.207Z</time>
      </trkpt>
      <trkpt lat="47.36602" lon="6.41927">
        <ele>265.086</ele>
        <time>2016-09-05T13:48:42.167Z</time>
      </trkpt>
      <trkpt lat="47.36597" lon="6.41926">
        <ele>264.847</ele>
        <time>2016-09-05T13:48:43.214Z</time>
      </trkpt>
      <trkpt lat="47.36593" lon="6.41924">
        <ele>264.141</ele>
        <time>2016-09-05T13:48:44.238Z</time>
      </trkpt>
      <trkpt lat="47.36588" lon="6.41924">
        <ele>264.014</ele>
        <time>2016-09-05T13:48:45.202Z</time>
      </trkpt>
      <trkpt lat="47.36585" lon="6.41921">
        <ele>264.294</ele>
        <time>2016-09-05T13:48:46.271Z</time>
      </trkpt>
      <trkpt lat="47.36581" lon="6.4192">
        <ele>264.794</ele>
        <time>2016-09-05T13:48:47.276Z</time>
      </trkpt>
      <trkpt lat="47.36577" lon="6.41919">
        <ele>265.022</ele>
        <time>2016-09-05T13:48:48.318Z</time>
      </trkpt>
      <trkpt lat="47.36572" lon="6.41917">
        <ele>264.59</ele>
        <time>2016-09-05T13:48:49.327Z</time>
      </trkpt>
      <trkpt lat="47.36568" lon="6.41916">
        <ele>263.712</ele>
        <time>2016-09-05T13:48:50.359Z</time>
      </trkpt>
      <trkpt lat="47.36564" lon="6.41915">
        <ele>263.204</ele>
        <time>2016-09-05T13:48:51.487Z</time>
      </trkpt>
      <trkpt lat="47.36561" lon="6.41914">
        <ele>263.126</ele>
        <time>2016-09-05T13:48:52.458Z</time>
      </trkpt>
      <trkpt lat="47.36557" lon="6.41912">
        <ele>262.427</ele>
        <time>2016-09-05T13:48:53.356Z</time>
      </trkpt>
      <trkpt lat="47.36553" lon="6.41911">
        <ele>263.139</ele>
        <time>2016-09-05T13:48:54.206Z</time>
      </trkpt>
      <trkpt lat="47.36549" lon="6.4191">
        <ele>263.719</ele>
        <time>2016-09-05T13:48:55.357Z</time>
      </trkpt>
      <trkpt lat="47.36546" lon="6.41909">
        <ele>264.398</ele>
        <time>2016-09-05T13:48:56.352Z</time>
      </trkpt>
      <trkpt lat="47.36536" lon="6.41918">
        <ele>264.588</ele>
        <time>2016-09-05T13:48:57.352Z</time>
      </trkpt>
      <trkpt lat="47.36534" lon="6.41914">
        <ele>264.682</ele>
        <time>2016-09-05T13:48:58.352Z</time>
      </trkpt>
      <trkpt lat="47.36532" lon="6.41911">
        <ele>264.777</ele>
        <time>2016-09-05T13:48:59.352Z</time>
      </trkpt>
      <trkpt lat="47.36529" lon="6.41909">
        <ele>264.875</ele>
        <time>2016-09-05T13:49:00.352Z</time>
      </trkpt>
      <trkpt lat="47.36525" lon="6.41909">
        <ele>264.975</ele>
        <time>2016-09-05T13:49:01.352Z</time>
      </trkpt>
      <trkpt lat="47.36522" lon="6.41908">
        <ele>265.079</ele>
        <time>2016-09-05T13:49:02.352Z</time>
      </trkpt>
      <trkpt lat="47.36518" lon="6.41907">
        <ele>265.186</ele>
        <time>2016-09-05T13:49:03.352Z</time>
      </trkpt>
      <trkpt lat="47.36515" lon="6.41906">
        <ele>265.297</ele>
        <time>2016-09-05T13:49:04.352Z</time>
      </trkpt>
      <trkpt lat="47.36511" lon="6.41905">
        <ele>265.411</ele>
        <time>2016-09-05T13:49:05.352Z</time>
      </trkpt>
      <trkpt lat="47.36507" lon="6.41905">
        <ele>265.53</ele>
        <time>2016-09-05T13:49:06.352Z</time>
      </trkpt>
      <trkpt lat="47.36503" lon="6.41905">
        <ele>265.654</ele>
        <time>2016-09-05T13:49:07.352Z</time>
      </trkpt>
      <trkpt lat="47.36498" lon="6.41905">
        <ele>265.784</ele>
        <time>2016-09-05T13:49:08.352Z</time>
      </trkpt>
      <trkpt lat="47.36495" lon="6.41904">
        <ele>265.922</ele>
        <time>2016-09-05T13:49:09.352Z</time>
      </trkpt>
      <trkpt lat="47.3649" lon="6.41903">
        <ele>266.07</ele>
        <time>2016-09-05T13:49:10.352Z</time>
      </trkpt>
      <trkpt lat="47.36486" lon="6.41904">
        <ele>266.229</ele>
        <time>2016-09-05T13:49:11.352Z</time>
      </trkpt>
      <trkpt lat="47.36481" lon="6.41905">
        <ele>266.401</ele>
        <time>2016-09-05T13:49:12.352Z</time>
      </trkpt>
      <trkpt lat="47.36476" lon="6.41905">
        <ele>266.587</ele>
        <time>2016-09-05T13:49:13.352Z</time>
      </trkpt>
      <trkpt lat="47.36473" lon="6.41904">
        <ele>266.786</ele>
        <time>2016-09-05T13:49:14.352Z</time>
      </trkpt>
      <trkpt lat="47.36469" lon="6.41902">
        <ele>266.998</ele>
        <time>2016-09-05T13:49:15.352Z</time>
      </trkpt>
      <trkpt lat="47.36464" lon="6.41902">
        <ele>267.223</ele>
        <time>2016-09-05T13:49:16.352Z</time>
      </trkpt>
      <trkpt lat="47.3646" lon="6.41902">
        <ele>267.46</ele>
        <time>2016-09-05T13:49:17.352Z</time>
      </trkpt>
      <trkpt lat="47.36455" lon="6.41902">
        <ele>267.706</ele>
        <time>2016-09-05T13:49:18.352Z</time>
      </trkpt>
      <trkpt lat="47.36449" lon="6.41904">
        <ele>267.961</ele>
        <time>2016-09-05T13:49:19.352Z</time>
      </trkpt>
      <trkpt lat="47.36444" lon="6.41905">
        <ele>268.221</ele>
        <time>2016-09-05T13:49:20.352Z</time>
      </trkpt>
      <trkpt lat="47.3644" lon="6.41904">
        <ele>268.484</ele>
        <time>2016-09-05T13:49:21.352Z</time>
      </trkpt>
      <trkpt lat="47.36436" lon="6.41904">
        <ele>268.746</ele>
        <time>2016-09-05T13:49:22.352Z</time>
      </trkpt>
      <trkpt lat="47.36432" lon="6.41902">
        <ele>269.004</ele>
        <time>2016-09-05T13:49:23.352Z</time>
      </trkpt>
      <trkpt lat="47.36428" lon="6.41901">
        <ele>269.256</ele>
        <time>2016-09-05T13:49:24.352Z</time>
      </trkpt>
      <trkpt lat="47.36424" lon="6.41902">
        <ele>269.499</ele>
        <time>2016-09-05T13:49:25.352Z</time>
      </trkpt>
      <trkpt lat="47.36418" lon="6.41904">
        <ele>269.733</ele>
        <time>2016-09-05T13:49:26.352Z</time>
      </trkpt>
      <trkpt lat="47.36414" lon="6.41904">
        <ele>269.956</ele>
        <time>2016-09-05T13:49:27.352Z</time>
      </trkpt>
      <trkpt lat="47.36409" lon="6.41904">
        <ele>270.169</ele>
        <time>2016-09-05T13:49:28.352Z</time>
      </trkpt>
      <trkpt lat="47.36405" lon="6.41904">
        <ele>270.372</ele>
        <time>2016-09-05T13:49:29.352Z</time>
      </trkpt>
      <trkpt lat="47.36401" lon="6.41905">
        <ele>270.566</ele>
        <time>2016-09-05T13:49:30.352Z</time>
      </trkpt>
      <trkpt lat="47.36397" lon="6.41905">
        <ele>270.753</ele>
        <time>2016-09-05T13:49:31.352Z</time>
      </trkpt>
      <trkpt lat="47.36394" lon="6.41904">
        <ele>270.934</ele>
        <time>2016-09-05T13:49:32.352Z</time>
      </trkpt>
      <trkpt lat="47.3639" lon="6.41904">
        <ele>271.11</ele>
        <time>2016-09-05T13:49:33.352Z</time>
      </trkpt>
      <trkpt lat="47.36386" lon="6.41904">
        <ele>271.285</ele>
        <time>2016-09-05T13:49:34.352Z</time>
      </trkpt>
      <trkpt lat="47.36382" lon="6.41905">
        <ele>271.457</ele>
        <time>2016-09-05T13:49:35.352Z</time>
      </trkpt>
      <trkpt lat="47.36378" lon="6.41904">
        <ele>271.628</ele>
        <time>2016-09-05T13:49:36.352Z</time>
      </trkpt>
      <trkpt lat="47.36375" lon="6.41902">
        <ele>271.798</ele>
        <time>2016-09-05T13:49:37.352Z</time>
      </trkpt>
      <trkpt lat="47.36372" lon="6.41899">
        <ele>271.967</ele>
        <time>2016-09-05T13:49:38.352Z</time>
      </trkpt>
      <trkpt lat="47.36362" lon="6.41907">
        <ele>268.681</ele>
        <time>2016-09-05T13:49:39.211Z</time>
      </trkpt>
      <trkpt lat="47.36357" lon="6.41906">
        <ele>268.644</ele>
        <time>2016-09-05T13:49:40.201Z</time>
      </trkpt>
      <trkpt lat="47.36352" lon="6.41906">
        <ele>267.92</ele>
        <time>2016-09-05T13:49:41.195Z</time>
      </trkpt>
      <trkpt lat="47.36348" lon="6.41907">
        <ele>267.386</ele>
        <time>2016-09-05T13:49:42.197Z</time>
      </trkpt>
      <trkpt lat="47.36342" lon="6.41906">
        <ele>267.191</ele>
        <time>2016-09-05T13:49:43.364Z</time>
      </trkpt>
      <trkpt lat="47.36339" lon="6.41908">
        <ele>267.036</ele>
        <time>2016-09-05T13:49:44.364Z</time>
      </trkpt>
      <trkpt lat="47.36335" lon="6.41909">
        <ele>266.595</ele>
        <time>2016-09-05T13:49:45.213Z</time>
      </trkpt>
      <trkpt lat="47.36331" lon="6.41911">
        <ele>267.181</ele>
        <time>2016-09-05T13:49:46.184Z</time>
      </trkpt>
      <trkpt lat="47.36326" lon="6.41912">
        <ele>266.817</ele>
        <time>2016-09-05T13:49:47.192Z</time>
      </trkpt>
      <trkpt lat="47.36322" lon="6.41913">
        <ele>267.17</ele>
        <time>2016-09-05T13:49:48.192Z</time>
      </trkpt>
      <trkpt lat="47.36318" lon="6.41914">
        <ele>268.423</ele>
        <time>2016-09-05T13:49:49.207Z</time>
      </trkpt>
      <trkpt lat="47.36314" lon="6.41915">
        <ele>268.082</ele>
        <time>2016-09-05T13:49:50.365Z</time>
      </trkpt>
      <trkpt lat="47.3631" lon="6.41916">
        <ele>267.956</ele>
        <time>2016-09-05T13:49:51.345Z</time>
      </trkpt>
      <trkpt lat="47.36307" lon="6.41917">
        <ele>268.037</ele>
        <time>2016-09-05T13:49:52.284Z</time>
      </trkpt>
      <trkpt lat="47.36303" lon="6.41918">
        <ele>268.286</ele>
        <time>2016-09-05T13:49:53.287Z</time>
      </trkpt>
      <trkpt lat="47.36299" lon="6.41919">
        <ele>268.134</ele>
        <time>2016-09-05T13:49:54.201Z</time>
      </trkpt>
      <trkpt lat="47.36295" lon="6.4192">
        <ele>267.779</ele>
        <time>2016-09-05T13:49:55.192Z</time>
      </trkpt>
      <trkpt lat="47.36291" lon="6.41922">
        <ele>269.463</ele>
        <time>2016-09-05T13:49:56.208Z</time>
      </trkpt>
      <trkpt lat="47.36288" lon="6.41924">
        <ele>269.333</ele>
        <time>2016-09-05T13:49:57.243Z</time>
      </trkpt>
      <trkpt lat="47.36284" lon="6.41926">
        <ele>269.637</ele>
        <time>2016-09-05T13:49:58.242Z</time>
      </trkpt>
      <trkpt lat="47.36274" lon="6.41938">
        <ele>268.154</ele>
        <time>2016-09-05T13:49:59.242Z</time>
      </trkpt>
      <trkpt lat="47.36273" lon="6.41935">
        <ele>268.246</ele>
        <time>2016-09-05T13:50:00.242Z</time>
      </trkpt>
      <trkpt lat="47.36271" lon="6.41932">
        <ele>268.34</ele>
        <time>2016-09-05T13:50:01.242Z</time>
      </trkpt>
      <trkpt lat="47.36268" lon="6.41931">
        <ele>268.437</ele>
        <time>2016-09-05T13:50:02.242Z</time>
      </trkpt>
      <trkpt lat="47.36265" lon="6.41931">
        <ele>268.537</ele>
        <time>2016-09-05T13:50:03.242Z</time>
      </trkpt>
      <trkpt lat="47.36262" lon="6.41929">
        <ele>268.642</ele>
        <time>2016-09-05T13:50:04.242Z</time>
      </trkpt>
      <trkpt lat="47.36258" lon="6.41929">
        <ele>268.754</ele>
        <time>2016-09-05T13:50:05.242Z</time>
      </trkpt>
      <trkpt lat="47.36254" lon="6.41932">
        <ele>268.873</ele>
        <time>2016-09-05T13:50:06.242Z</time>
      </trkpt>
      <trkpt lat="47.36249" lon="6.41934">
        <ele>269</ele>
        <time>2016-09-05T13:50:07.242Z</time>
      </trkpt>
      <trkpt lat="47.36245" lon="6.41935">
        <ele>269.137</ele>
        <time>2016-09-05T13:50:08.242Z</time>
      </trkpt>
      <trkpt lat="47.36241" lon="6.41935">
        <ele>269.285</ele>
        <time>2016-09-05T13:50:09.242Z</time>
      </trkpt>
      <trkpt lat="47.36237" lon="6.41936">
        <ele>269.444</ele>
        <time>2016-09-05T13:50:10.242Z</time>
      </trkpt>
      <trkpt lat="47.36233" lon="6.41937">
        <ele>269.615</ele>
        <time>2016-09-05T13:50:11.242Z</time>
      </trkpt>
      <trkpt lat="47.36228" lon="6.41936">
        <ele>269.801</ele>
        <time>2016-09-05T13:50:12.242Z</time>
      </trkpt>
      <trkpt lat="47.36223" lon="6.41937">
        <ele>270.002</ele>
        <time>2016-09-05T13:50:13.242Z</time>
      </trkpt>
      <trkpt lat="47.36217" lon="6.41938">
        <ele>270.218</ele>
        <time>2016-09-05T13:50:14.242Z</time>
      </trkpt>
      <trkpt lat="47.36211" lon="6.4194">
        <ele>270.451</ele>
        <time>2016-09-05T13:50:15.242Z</time>
      </trkpt>
      <trkpt lat="47.36206" lon="6.41941">
        <ele>270.7</ele>
        <time>2016-09-05T13:50:16.242Z</time>
      </trkpt>
      <trkpt lat="47.36201" lon="6.4194">
        <ele>270.963</ele>
        <time>2016-09-05T13:50:17.242Z</time>
      </trkpt>
      <trkpt lat="47.36197" lon="6.41938">
        <ele>271.242</ele>
        <time>2016-09-05T13:50:18.242Z</time>
      </trkpt>
      <trkpt lat="47.36192" lon="6.41937">
        <ele>271.533</ele>
        <time>2016-09-05T13:50:19.242Z</time>
      </trkpt>
      <trkpt lat="47.36187" lon="6.41937">
        <ele>271.836</ele>
        <time>2016-09-05T13:50:20.242Z</time>
      </trkpt>
      <trkpt lat="47.36182" lon="6.41937">
        <ele>272.15</ele>
        <time>2016-09-05T13:50:21.242Z</time>
      </trkpt>
      <trkpt lat="47.36177" lon="6.41937">
        <ele>272.472</ele>
        <time>2016-09-05T13:50:22.242Z</time>
      </trkpt>
      <trkpt lat="47.36172" lon="6.41938">
        <ele>272.803</ele>
        <time>2016-09-05T13:50:23.242Z</time>
      </trkpt>
      <trkpt lat="47.36167" lon="6.41941">
        <ele>273.141</ele>
        <time>2016-09-05T13:50:24.242Z</time>
      </trkpt>
      <trkpt lat="47.36163" lon="6.41942">
        <ele>273.485</ele>
        <time>2016-09-05T13:50:25.242Z</time>
      </trkpt>
      <trkpt lat="47.36158" lon="6.41944">
        <ele>273.835</ele>
        <time>2016-09-05T13:50:26.242Z</time>
      </trkpt>
      <trkpt lat="47.36154" lon="6.41945">
        <ele>274.188</ele>
        <time>2016-09-05T13:50:27.242Z</time>
      </trkpt>
      <trkpt lat="47.36151" lon="6.41944">
        <ele>274.543</ele>
        <time>2016-09-05T13:50:28.242Z</time>
      </trkpt>
      <trkpt lat="47.36148" lon="6.41944">
        <ele>274.898</ele>
        <time>2016-09-05T13:50:29.242Z</time>
      </trkpt>
      <trkpt lat="47.36144" lon="6.41944">
        <ele>275.252</ele>
        <time>2016-09-05T13:50:30.242Z</time>
      </trkpt>
      <trkpt lat="47.3614" lon="6.41946">
        <ele>275.603</ele>
        <time>2016-09-05T13:50:31.242Z</time>
      </trkpt>
      <trkpt lat="47.36136" lon="6.41948">
        <ele>275.949</ele>
        <time>2016-09-05T13:50:32.242Z</time>
      </trkpt>
      <trkpt lat="47.36131" lon="6.4195">
        <ele>276.291</ele>
        <time>2016-09-05T13:50:33.242Z</time>
      </trkpt>
      <trkpt lat="47.36127" lon="6.41953">
        <ele>276.627</ele>
        <time>2016-09-05T13:50:34.242Z</time>
      </trkpt>
      <trkpt lat="47.36124" lon="6.41952">
        <ele>276.958</ele>
        <time>2016-09-05T13:50:35.242Z</time>
      </trkpt>
      <trkpt lat="47.3612" lon="6.41951">
        <ele>277.285</ele>
        <time>2016-09-05T13:50:36.242Z</time>
      </trkpt>
      <trkpt lat="47.36118" lon="6.41948">
        <ele>277.611</ele>
        <time>2016-09-05T13:50:37.242Z</time>
      </trkpt>
      <trkpt lat="47.36115" lon="6.41945">
        <ele>277.935</ele>
        <time>2016-09-05T13:50:38.242Z</time>
      </trkpt>
      <trkpt lat="47.36114" lon="6.41941">
        <ele>278.258</ele>
        <time>2016-09-05T13:50:39.242Z</time>
      </trkpt>
      <trkpt lat="47.36104" lon="6.4195">
        <ele>277.245</ele>
        <time>2016-09-05T13:50:40.261Z</time>
      </trkpt>
      <trkpt lat="47.361" lon="6.4195">
        <ele>277.651</ele>
        <time>2016-09-05T13:50:41.259Z</time>
      </trkpt>
      <trkpt lat="47.36095" lon="6.41949">
        <ele>277.139</ele>
        <time>2016-09-05T13:50:42.195Z</time>
      </trkpt>
      <trkpt lat="47.36091" lon="6.41949">
        <ele>275.215</ele>
        <time>2016-09-05T13:50:43.208Z</time>
      </trkpt>
      <trkpt lat="47.36087" lon="6.4195">
        <ele>274.613</ele>
        <time>2016-09-05T13:50:44.208Z</time>
      </trkpt>
      <trkpt lat="47.36083" lon="6.4195">
        <ele>273.557</ele>
        <time>2016-09-05T13:50:45.220Z</time>
      </trkpt>
      <trkpt lat="47.36079" lon="6.4195">
        <ele>273.838</ele>
        <time>2016-09-05T13:50:46.217Z</time>
      </trkpt>
      <trkpt lat="47.36075" lon="6.41949">
        <ele>274.003</ele>
        <time>2016-09-05T13:50:47.367Z</time>
      </trkpt>
      <trkpt lat="47.36071" lon="6.41949">
        <ele>274.592</ele>
        <time>2016-09-05T13:50:48.375Z</time>
      </trkpt>
      <trkpt lat="47.36067" lon="6.41949">
        <ele>274.501</ele>
        <time>2016-09-05T13:50:49.209Z</time>
      </trkpt>
      <trkpt lat="47.36063" lon="6.41949">
        <ele>274.573</ele>
        <time>2016-09-05T13:50:50.188Z</time>
      </trkpt>
      <trkpt lat="47.36059" lon="6.41948">
        <ele>274.539</ele>
        <time>2016-09-05T13:50:51.193Z</time>
      </trkpt>
      <trkpt lat="47.36055" lon="6.41948">
        <ele>273.367</ele>
        <time>2016-09-05T13:50:52.192Z</time>
      </trkpt>
      <trkpt lat="47.36051" lon="6.41947">
        <ele>273.414</ele>
        <time>2016-09-05T13:50:53.198Z</time>
      </trkpt>
      <trkpt lat="47.36047" lon="6.41947">
        <ele>274.459</ele>
        <time>2016-09-05T13:50:54.279Z</time>
      </trkpt>
      <trkpt lat="47.36043" lon="6.41946">
        <ele>274.801</ele>
        <time>2016-09-05T13:50:55.290Z</time>
      </trkpt>
      <trkpt lat="47.36038" lon="6.41946">
        <ele>274.422</ele>
        <time>2016-09-05T13:50:56.261Z</time>
      </trkpt>
      <trkpt lat="47.36034" lon="6.41945">
        <ele>274.68</ele>
        <time>2016-09-05T13:50:57.251Z</time>
      </trkpt>
      <trkpt lat="47.36029" lon="6.41945">
        <ele>276.22</ele>
        <time>2016-09-05T13:50:58.206Z</time>
      </trkpt>
      <trkpt lat="47.36025" lon="6.41943">
        <ele>277.691</ele>
        <time>2016-09-05T13:50:59.207Z</time>
      </trkpt>
      <trkpt lat="47.3602" lon="6.41943">
        <ele>278.346</ele>
        <time>2016-09-05T13:51:00.194Z</time>
      </trkpt>
      <trkpt lat="47.36009" lon="6.41951">
        <ele>277.849</ele>
        <time>2016-09-05T13:51:01.194Z</time>
      </trkpt>
      <trkpt lat="47.36006" lon="6.41947">
        <ele>277.265</ele>
        <time>2016-09-05T13:51:02.194Z</time>
      </trkpt>
      <trkpt lat="47.36002" lon="6.41944">
        <ele>276.682</ele>
        <time>2016-09-05T13:51:03.194Z</time>
      </trkpt>
      <trkpt lat="47.35997" lon="6.41942">
        <ele>276.099</ele>
        <time>2016-09-05T13:51:04.194Z</time>
      </trkpt>
      <trkpt lat="47.35992" lon="6.41941">
        <ele>275.517</ele>
        <time>2016-09-05T13:51:05.194Z</time>
      </trkpt>
      <trkpt lat="47.35987" lon="6.41941">
        <ele>274.938</ele>
        <time>2016-09-05T13:51:06.194Z</time>
      </trkpt>
      <trkpt lat="47.35982" lon="6.41941">
        <ele>274.366</ele>
        <time>2016-09-05T13:51:07.194Z</time>
      </trkpt>
      <trkpt lat="47.35977" lon="6.4194">
        <ele>273.805</ele>
        <time>2016-09-05T13:51:08.194Z</time>
      </trkpt>
      <trkpt lat="47.35973" lon="6.41937">
        <ele>273.26</ele>
        <time>2016-09-05T13:51:09.194Z</time>
      </trkpt>
      <trkpt lat="47.35969" lon="6.41936">
        <ele>272.737</ele>
        <time>2016-09-05T13:51:10.194Z</time>
      </trkpt>
      <trkpt lat="47.35965" lon="6.41935">
        <ele>272.241</ele>
        <time>2016-09-05T13:51:11.194Z</time>
      </trkpt>
      <trkpt lat="47.35961" lon="6.41935">
        <ele>271.778</ele>
        <time>2016-09-05T13:51:12.194Z</time>
      </trkpt>
      <trkpt lat="47.35956" lon="6.41935">
        <ele>271.353</ele>
        <time>2016-09-05T13:51:13.194Z</time>
      </trkpt>
      <trkpt lat="47.35953" lon="6.41935">
        <ele>270.966</ele>
        <time>2016-09-05T13:51:14.194Z</time>
      </trkpt>
      <trkpt lat="47.35949" lon="6.41934">
        <ele>270.62</ele>
        <time>2016-09-05T13:51:15.194Z</time>
      </trkpt>
      <trkpt lat="47.35945" lon="6.41933">
        <ele>270.315</ele>
        <time>2016-09-05T13:51:16.194Z</time>
      </trkpt>
      <trkpt lat="47.35942" lon="6.41932">
        <ele>270.048</ele>
        <time>2016-09-05T13:51:17.194Z</time>
      </trkpt>
      <trkpt lat="47.35938" lon="6.41931">
        <ele>269.817</ele>
        <time>2016-09-05T13:51:18.194Z</time>
      </trkpt>
      <trkpt lat="47.35934" lon="6.4193">
        <ele>269.62</ele>
        <time>2016-09-05T13:51:19.194Z</time>
      </trkpt>
      <trkpt lat="47.3593" lon="6.41929">
        <ele>269.454</ele>
        <time>2016-09-05T13:51:20.194Z</time>
      </trkpt>
      <trkpt lat="47.35927" lon="6.41927">
        <ele>269.316</ele>
        <time>2016-09-05T13:51:21.194Z</time>
      </trkpt>
      <trkpt lat="47.35923" lon="6.41926">
        <ele>269.203</ele>
        <time>2016-09-05T13:51:22.194Z</time>
      </trkpt>
      <trkpt lat="47.35918" lon="6.41926">
        <ele>269.111</ele>
        <time>2016-09-05T13:51:23.194Z</time>
      </trkpt>
      <trkpt lat="47.35915" lon="6.41924">
        <ele>269.036</ele>
        <time>2016-09-05T13:51:24.194Z</time>
      </trkpt>
      <trkpt lat="47.35911" lon="6.41923">
        <ele>268.976</ele>
        <time>2016-09-05T13:51:25.194Z</time>
      </trkpt>
      <trkpt lat="47.35907" lon="6.41921">
        <ele>268.927</ele>
        <time>2016-09-05T13:51:26.194Z</time>
      </trkpt>
      <trkpt lat="47.35903" lon="6.41918">
        <ele>268.887</ele>
        <time>2016-09-05T13:51:27.194Z</time>
      </trkpt>
      <trkpt lat="47.359" lon="6.41917">
        <ele>268.854</ele>
        <time>2016-09-05T13:51:28.194Z</time>
      </trkpt>
      <trkpt lat="47.35896" lon="6.41915">
        <ele>268.824</ele>
        <time>2016-09-05T13:51:29.194Z</time>
      </trkpt>
      <trkpt lat="47.35892" lon="6.41914">
        <ele>268.796</ele>
        <time>2016-09-05T13:51:30.194Z</time>
      </trkpt>
      <trkpt lat="47.35889" lon="6.41911">
        <ele>268.768</ele>
        <time>2016-09-05T13:51:31.194Z</time>
      </trkpt>
      <trkpt lat="47.35885" lon="6.41908">
        <ele>268.736</ele>
        <time>2016-09-05T13:51:32.194Z</time>
      </trkpt>
      <trkpt lat="47.35882" lon="6.41906">
        <ele>268.7</ele>
        <time>2016-09-05T13:51:33.194Z</time>
      </trkpt>
      <trkpt lat="47.35878" lon="6.41904">
        <ele>268.659</ele>
        <time>2016-09-05T13:51:34.194Z</time>
      </trkpt>
      <trkpt lat="47.35875" lon="6.41901">
        <ele>268.612</ele>
        <time>2016-09-05T13:51:35.194Z</time>
      </trkpt>
      <trkpt lat="47.35872" lon="6.41898">
        <ele>268.561</ele>
        <time>2016-09-05T13:51:36.194Z</time>
      </trkpt>
      <trkpt lat="47.35868" lon="6.41895">
        <ele>268.506</ele>
        <time>2016-09-05T13:51:37.194Z</time>
      </trkpt>
      <trkpt lat="47.35865" lon="6.41891">
        <ele>268.449</ele>
        <time>2016-09-05T13:51:38.194Z</time>
      </trkpt>
      <trkpt lat="47.35861" lon="6.41888">
        <ele>268.389</ele>
        <time>2016-09-05T13:51:39.194Z</time>
      </trkpt>
      <trkpt lat="47.35858" lon="6.41884">
        <ele>268.328</ele>
        <time>2016-09-05T13:51:40.194Z</time>
      </trkpt>
      <trkpt lat="47.35855" lon="6.41879">
        <ele>268.267</ele>
        <time>2016-09-05T13:51:41.194Z</time>
      </trkpt>
      <trkpt lat="47.3585" lon="6.41879">
        <ele>268.704</ele>
        <time>2016-09-05T13:51:42.233Z</time>
      </trkpt>
      <trkpt lat="47.35847" lon="6.41875">
        <ele>268.865</ele>
        <time>2016-09-05T13:51:43.211Z</time>
      </trkpt>
      <trkpt lat="47.35843" lon="6.41871">
        <ele>268.477</ele>
        <time>2016-09-05T13:51:44.373Z</time>
      </trkpt>
      <trkpt lat="47.3584" lon="6.41868">
        <ele>269.295</ele>
        <time>2016-09-05T13:51:45.545Z</time>
      </trkpt>
      <trkpt lat="47.35838" lon="6.41865">
        <ele>269.425</ele>
        <time>2016-09-05T13:51:46.331Z</time>
      </trkpt>
      <trkpt lat="47.35835" lon="6.41862">
        <ele>269.967</ele>
        <time>2016-09-05T13:51:47.196Z</time>
      </trkpt>
      <trkpt lat="47.35834" lon="6.41859">
        <ele>269.582</ele>
        <time>2016-09-05T13:51:48.198Z</time>
      </trkpt>
      <trkpt lat="47.35834" lon="6.41859">
        <ele>271.941</ele>
        <time>2016-09-05T13:51:49.188Z</time>
      </trkpt>
      <trkpt lat="47.35834" lon="6.41859">
        <ele>272.4</ele>
        <time>2016-09-05T13:51:50.189Z</time>
      </trkpt>
      <trkpt lat="47.35835" lon="6.4186">
        <ele>272.412</ele>
        <time>2016-09-05T13:51:51.366Z</time>
      </trkpt>
      <trkpt lat="47.35835" lon="6.41859">
        <ele>270.984</ele>
        <time>2016-09-05T13:51:52.365Z</time>
      </trkpt>
      <trkpt lat="47.35835" lon="6.41859">
        <ele>269.974</ele>
        <time>2016-09-05T13:51:53.184Z</time>
      </trkpt>
      <trkpt lat="47.35835" lon="6.41859">
        <ele>268.835</ele>
        <time>2016-09-05T13:51:54.191Z</time>
      </trkpt>
      <trkpt lat="47.35835" lon="6.41859">
        <ele>268.637</ele>
        <time>2016-09-05T13:51:55.190Z</time>
      </trkpt>
      <trkpt lat="47.35837" lon="6.41858">
        <ele>267.993</ele>
        <time>2016-09-05T13:51:56.182Z</time>
      </trkpt>
      <trkpt lat="47.35837" lon="6.41857">
        <ele>267.798</ele>
        <time>2016-09-05T13:51:57.155Z</time>
      </trkpt>
      <trkpt lat="47.35837" lon="6.41857">
        <ele>267.427</ele>
        <time>2016-09-05T13:51:58.231Z</time>
      </trkpt>
      <trkpt lat="47.35837" lon="6.41857">
        <ele>267.538</ele>
        <time>2016-09-05T13:51:59.279Z</time>
      </trkpt>
      <trkpt lat="47.35837" lon="6.41857">
        <ele>267.442</ele>
        <time>2016-09-05T13:52:00.240Z</time>
      </trkpt>
      <trkpt lat="47.35837" lon="6.41857">
        <ele>267.45</ele>
        <time>2016-09-05T13:52:01.252Z</time>
      </trkpt>
      <trkpt lat="47.35837" lon="6.41859">
        <ele>268.94</ele>
        <time>2016-09-05T13:52:02.200Z</time>
      </trkpt>
      <trkpt lat="47.35837" lon="6.41861">
        <ele>268.656</ele>
        <time>2016-09-05T13:52:03.200Z</time>
      </trkpt>
      <trkpt lat="47.35836" lon="6.41861">
        <ele>268.512</ele>
        <time>2016-09-05T13:52:04.200Z</time>
      </trkpt>
      <trkpt lat="47.35836" lon="6.41861">
        <ele>268.366</ele>
        <time>2016-09-05T13:52:05.200Z</time>
      </trkpt>
      <trkpt lat="47.35836" lon="6.41861">
        <ele>268.22</ele>
        <time>2016-09-05T13:52:06.200Z</time>
      </trkpt>
      <trkpt lat="47.35836" lon="6.41861">
        <ele>268.073</ele>
        <time>2016-09-05T13:52:07.200Z</time>
      </trkpt>
      <trkpt lat="47.35836" lon="6.41862">
        <ele>267.924</ele>
        <time>2016-09-05T13:52:08.200Z</time>
      </trkpt>
      <trkpt lat="47.35836" lon="6.41862">
        <ele>267.773</ele>
        <time>2016-09-05T13:52:09.200Z</time>
      </trkpt>
      <trkpt lat="47.35836" lon="6.41862">
        <ele>267.619</ele>
        <time>2016-09-05T13:52:10.200Z</time>
      </trkpt>
      <trkpt lat="47.35836" lon="6.41863">
        <ele>267.462</ele>
        <time>2016-09-05T13:52:11.200Z</time>
      </trkpt>
      <trkpt lat="47.35837" lon="6.41864">
        <ele>267.301</ele>
        <time>2016-09-05T13:52:12.200Z</time>
      </trkpt>
      <trkpt lat="47.35838" lon="6.41866">
        <ele>267.136</ele>
        <time>2016-09-05T13:52:13.200Z</time>
      </trkpt>
      <trkpt lat="47.35839" lon="6.41868">
        <ele>266.968</ele>
        <time>2016-09-05T13:52:14.200Z</time>
      </trkpt>
      <trkpt lat="47.3584" lon="6.4187">
        <ele>266.799</ele>
        <time>2016-09-05T13:52:15.200Z</time>
      </trkpt>
      <trkpt lat="47.35842" lon="6.41872">
        <ele>266.631</ele>
        <time>2016-09-05T13:52:16.200Z</time>
      </trkpt>
      <trkpt lat="47.35843" lon="6.41874">
        <ele>266.465</ele>
        <time>2016-09-05T13:52:17.200Z</time>
      </trkpt>
      <trkpt lat="47.35844" lon="6.41877">
        <ele>266.304</ele>
        <time>2016-09-05T13:52:18.200Z</time>
      </trkpt>
      <trkpt lat="47.35846" lon="6.41879">
        <ele>266.147</ele>
        <time>2016-09-05T13:52:19.200Z</time>
      </trkpt>
      <trkpt lat="47.35848" lon="6.41882">
        <ele>265.996</ele>
        <time>2016-09-05T13:52:20.200Z</time>
      </trkpt>
      <trkpt lat="47.3585" lon="6.41885">
        <ele>265.851</ele>
        <time>2016-09-05T13:52:21.200Z</time>
      </trkpt>
      <trkpt lat="47.35852" lon="6.41888">
        <ele>265.713</ele>
        <time>2016-09-05T13:52:22.200Z</time>
      </trkpt>
      <trkpt lat="47.35854" lon="6.41891">
        <ele>265.58</ele>
        <time>2016-09-05T13:52:23.200Z</time>
      </trkpt>
      <trkpt lat="47.35856" lon="6.41894">
        <ele>265.453</ele>
        <time>2016-09-05T13:52:24.200Z</time>
      </trkpt>
      <trkpt lat="47.35858" lon="6.41897">
        <ele>265.331</ele>
        <time>2016-09-05T13:52:25.200Z</time>
      </trkpt>
      <trkpt lat="47.35861" lon="6.41901">
        <ele>265.212</ele>
        <time>2016-09-05T13:52:26.200Z</time>
      </trkpt>
      <trkpt lat="47.35864" lon="6.41904">
        <ele>265.095</ele>
        <time>2016-09-05T13:52:27.200Z</time>
      </trkpt>
      <trkpt lat="47.35866" lon="6.41907">
        <ele>264.981</ele>
        <time>2016-09-05T13:52:28.200Z</time>
      </trkpt>
      <trkpt lat="47.35869" lon="6.4191">
        <ele>264.867</ele>
        <time>2016-09-05T13:52:29.200Z</time>
      </trkpt>
      <trkpt lat="47.35873" lon="6.4191">
        <ele>265.459</ele>
        <time>2016-09-05T13:52:30.153Z</time>
      </trkpt>
      <trkpt lat="47.35873" lon="6.4191">
        <ele>265.459</ele>
        <time>2016-09-05T13:52:30.989Z</time>
      </trkpt>
      <trkpt lat="47.35876" lon="6.41913">
        <ele>267.285</ele>
        <time>2016-09-05T13:52:31.194Z</time>
      </trkpt>
      <trkpt lat="47.35879" lon="6.41915">
        <ele>266.099</ele>
        <time>2016-09-05T13:52:32.282Z</time>
      </trkpt>
      <trkpt lat="47.35882" lon="6.41918">
        <ele>264.918</ele>
        <time>2016-09-05T13:52:33.255Z</time>
      </trkpt>
      <trkpt lat="47.35885" lon="6.4192">
        <ele>263.932</ele>
        <time>2016-09-05T13:52:34.206Z</time>
      </trkpt>
      <trkpt lat="47.35888" lon="6.41922">
        <ele>264.006</ele>
        <time>2016-09-05T13:52:35.214Z</time>
      </trkpt>
      <trkpt lat="47.35891" lon="6.41924">
        <ele>264.982</ele>
        <time>2016-09-05T13:52:36.217Z</time>
      </trkpt>
      <trkpt lat="47.35895" lon="6.41926">
        <ele>264.319</ele>
        <time>2016-09-05T13:52:37.179Z</time>
      </trkpt>
      <trkpt lat="47.35899" lon="6.41927">
        <ele>265.103</ele>
        <time>2016-09-05T13:52:38.182Z</time>
      </trkpt>
      <trkpt lat="47.35902" lon="6.41929">
        <ele>264.001</ele>
        <time>2016-09-05T13:52:39.296Z</time>
      </trkpt>
      <trkpt lat="47.35906" lon="6.4193">
        <ele>264.508</ele>
        <time>2016-09-05T13:52:40.300Z</time>
      </trkpt>
      <trkpt lat="47.3591" lon="6.41931">
        <ele>265.067</ele>
        <time>2016-09-05T13:52:41.201Z</time>
      </trkpt>
      <trkpt lat="47.35915" lon="6.41932">
        <ele>265.951</ele>
        <time>2016-09-05T13:52:42.202Z</time>
      </trkpt>
      <trkpt lat="47.35919" lon="6.41933">
        <ele>265.525</ele>
        <time>2016-09-05T13:52:43.202Z</time>
      </trkpt>
      <trkpt lat="47.35924" lon="6.41934">
        <ele>264.942</ele>
        <time>2016-09-05T13:52:44.203Z</time>
      </trkpt>
      <trkpt lat="47.35929" lon="6.41934">
        <ele>264.815</ele>
        <time>2016-09-05T13:52:45.209Z</time>
      </trkpt>
      <trkpt lat="47.35933" lon="6.41935">
        <ele>264.956</ele>
        <time>2016-09-05T13:52:46.293Z</time>
      </trkpt>
      <trkpt lat="47.35938" lon="6.41936">
        <ele>263.726</ele>
        <time>2016-09-05T13:52:47.306Z</time>
      </trkpt>
      <trkpt lat="47.35942" lon="6.41937">
        <ele>264.82</ele>
        <time>2016-09-05T13:52:48.253Z</time>
      </trkpt>
      <trkpt lat="47.35947" lon="6.41938">
        <ele>266.17</ele>
        <time>2016-09-05T13:52:49.250Z</time>
      </trkpt>
      <trkpt lat="47.35953" lon="6.4194">
        <ele>264.13</ele>
        <time>2016-09-05T13:52:50.198Z</time>
      </trkpt>
      <trkpt lat="47.35958" lon="6.41941">
        <ele>265.574</ele>
        <time>2016-09-05T13:52:51.188Z</time>
      </trkpt>
      <trkpt lat="47.35962" lon="6.41943">
        <ele>264.835</ele>
        <time>2016-09-05T13:52:52.207Z</time>
      </trkpt>
      <trkpt lat="47.35967" lon="6.41943">
        <ele>267.082</ele>
        <time>2016-09-05T13:52:53.203Z</time>
      </trkpt>
      <trkpt lat="47.3597" lon="6.41945">
        <ele>267.437</ele>
        <time>2016-09-05T13:52:54.200Z</time>
      </trkpt>
      <trkpt lat="47.35975" lon="6.41945">
        <ele>268.473</ele>
        <time>2016-09-05T13:52:55.357Z</time>
      </trkpt>
      <trkpt lat="47.3598" lon="6.41945">
        <ele>267.807</ele>
        <time>2016-09-05T13:52:56.355Z</time>
      </trkpt>
      <trkpt lat="47.35985" lon="6.41944">
        <ele>268.353</ele>
        <time>2016-09-05T13:52:57.207Z</time>
      </trkpt>
      <trkpt lat="47.35989" lon="6.41945">
        <ele>269.206</ele>
        <time>2016-09-05T13:52:58.216Z</time>
      </trkpt>
      <trkpt lat="47.35993" lon="6.41944">
        <ele>268.892</ele>
        <time>2016-09-05T13:52:59.204Z</time>
      </trkpt>
      <trkpt lat="47.35997" lon="6.41944">
        <ele>268.257</ele>
        <time>2016-09-05T13:53:00.193Z</time>
      </trkpt>
      <trkpt lat="47.36002" lon="6.41945">
        <ele>267.407</ele>
        <time>2016-09-05T13:53:01.203Z</time>
      </trkpt>
      <trkpt lat="47.36007" lon="6.41947">
        <ele>268.776</ele>
        <time>2016-09-05T13:53:02.325Z</time>
      </trkpt>
      <trkpt lat="47.36011" lon="6.41947">
        <ele>269.47</ele>
        <time>2016-09-05T13:53:03.324Z</time>
      </trkpt>
      <trkpt lat="47.36017" lon="6.41946">
        <ele>267.436</ele>
        <time>2016-09-05T13:53:04.268Z</time>
      </trkpt>
      <trkpt lat="47.36022" lon="6.41946">
        <ele>266.658</ele>
        <time>2016-09-05T13:53:05.271Z</time>
      </trkpt>
      <trkpt lat="47.36026" lon="6.41946">
        <ele>266.383</ele>
        <time>2016-09-05T13:53:06.201Z</time>
      </trkpt>
      <trkpt lat="47.3603" lon="6.41945">
        <ele>266.232</ele>
        <time>2016-09-05T13:53:07.174Z</time>
      </trkpt>
      <trkpt lat="47.36034" lon="6.41944">
        <ele>267.571</ele>
        <time>2016-09-05T13:53:08.184Z</time>
      </trkpt>
      <trkpt lat="47.36038" lon="6.41945">
        <ele>267.951</ele>
        <time>2016-09-05T13:53:09.143Z</time>
      </trkpt>
      <trkpt lat="47.36042" lon="6.41945">
        <ele>269.074</ele>
        <time>2016-09-05T13:53:10.224Z</time>
      </trkpt>
      <trkpt lat="47.36046" lon="6.41946">
        <ele>270.21</ele>
        <time>2016-09-05T13:53:11.374Z</time>
      </trkpt>
      <trkpt lat="47.3605" lon="6.41947">
        <ele>271.318</ele>
        <time>2016-09-05T13:53:12.326Z</time>
      </trkpt>
      <trkpt lat="47.36054" lon="6.41947">
        <ele>272.11</ele>
        <time>2016-09-05T13:53:13.188Z</time>
      </trkpt>
      <trkpt lat="47.36057" lon="6.41948">
        <ele>271.367</ele>
        <time>2016-09-05T13:53:14.192Z</time>
      </trkpt>
      <trkpt lat="47.36061" lon="6.41948">
        <ele>270.806</ele>
        <time>2016-09-05T13:53:15.190Z</time>
      </trkpt>
      <trkpt lat="47.36064" lon="6.41949">
        <ele>267.81</ele>
        <time>2016-09-05T13:53:16.192Z</time>
      </trkpt>
      <trkpt lat="47.36068" lon="6.41949">
        <ele>267.599</ele>
        <time>2016-09-05T13:53:17.151Z</time>
      </trkpt>
      <trkpt lat="47.36071" lon="6.41949">
        <ele>267.782</ele>
        <time>2016-09-05T13:53:18.258Z</time>
      </trkpt>
      <trkpt lat="47.36072" lon="6.41949">
        <ele>267.558</ele>
        <time>2016-09-05T13:53:19.292Z</time>
      </trkpt>
      <trkpt lat="47.36074" lon="6.4195">
        <ele>267.55</ele>
        <time>2016-09-05T13:53:20.140Z</time>
      </trkpt>
      <trkpt lat="47.36074" lon="6.4195">
        <ele>262.675</ele>
        <time>2016-09-05T13:53:21.177Z</time>
      </trkpt>
      <trkpt lat="47.36074" lon="6.4195">
        <ele>262.288</ele>
        <time>2016-09-05T13:53:22.212Z</time>
      </trkpt>
      <trkpt lat="47.36074" lon="6.4195">
        <ele>262.845</ele>
        <time>2016-09-05T13:53:23.184Z</time>
      </trkpt>
      <trkpt lat="47.36074" lon="6.4195">
        <ele>263.31</ele>
        <time>2016-09-05T13:53:24.193Z</time>
      </trkpt>
      <trkpt lat="47.36074" lon="6.4195">
        <ele>260.956</ele>
        <time>2016-09-05T13:53:25.194Z</time>
      </trkpt>
      <trkpt lat="47.36074" lon="6.4195">
        <ele>259.478</ele>
        <time>2016-09-05T13:53:26.185Z</time>
      </trkpt>
      <trkpt lat="47.36073" lon="6.41952">
        <ele>260.838</ele>
        <time>2016-09-05T13:53:27.356Z</time>
      </trkpt>
      <trkpt lat="47.36073" lon="6.41952">
        <ele>261.475</ele>
        <time>2016-09-05T13:53:28.345Z</time>
      </trkpt>
      <trkpt lat="47.36073" lon="6.41952">
        <ele>259.176</ele>
        <time>2016-09-05T13:53:29.179Z</time>
      </trkpt>
      <trkpt lat="47.36073" lon="6.41952">
        <ele>258.219</ele>
        <time>2016-09-05T13:53:30.180Z</time>
      </trkpt>
      <trkpt lat="47.36073" lon="6.41952">
        <ele>259.543</ele>
        <time>2016-09-05T13:53:31.195Z</time>
      </trkpt>
      <trkpt lat="47.36073" lon="6.41952">
        <ele>260.494</ele>
        <time>2016-09-05T13:53:32.184Z</time>
      </trkpt>
      <trkpt lat="47.36073" lon="6.41952">
        <ele>261.602</ele>
        <time>2016-09-05T13:53:33.196Z</time>
      </trkpt>
      <trkpt lat="47.36073" lon="6.41952">
        <ele>263.093</ele>
        <time>2016-09-05T13:53:34.295Z</time>
      </trkpt>
      <trkpt lat="47.36073" lon="6.41952">
        <ele>263.435</ele>
        <time>2016-09-05T13:53:35.295Z</time>
      </trkpt>
      <trkpt lat="47.36073" lon="6.41952">
        <ele>262.993</ele>
        <time>2016-09-05T13:53:36.234Z</time>
      </trkpt>
      <trkpt lat="47.36073" lon="6.41952">
        <ele>263.196</ele>
        <time>2016-09-05T13:53:37.252Z</time>
      </trkpt>
      <trkpt lat="47.36073" lon="6.41952">
        <ele>263.042</ele>
        <time>2016-09-05T13:53:38.179Z</time>
      </trkpt>
      <trkpt lat="47.36073" lon="6.41952">
        <ele>263.139</ele>
        <time>2016-09-05T13:53:39.184Z</time>
      </trkpt>
      <trkpt lat="47.36073" lon="6.41952">
        <ele>262.468</ele>
        <time>2016-09-05T13:53:40.178Z</time>
      </trkpt>
      <trkpt lat="47.36073" lon="6.41952">
        <ele>262.128</ele>
        <time>2016-09-05T13:53:41.179Z</time>
      </trkpt>
      <trkpt lat="47.36071" lon="6.41952">
        <ele>261.331</ele>
        <time>2016-09-05T13:53:42.195Z</time>
      </trkpt>
      <trkpt lat="47.36071" lon="6.41952">
        <ele>263.037</ele>
        <time>2016-09-05T13:53:43.344Z</time>
      </trkpt>
      <trkpt lat="47.36071" lon="6.41952">
        <ele>263.27</ele>
        <time>2016-09-05T13:53:44.359Z</time>
      </trkpt>
      <trkpt lat="47.36071" lon="6.41952">
        <ele>263.818</ele>
        <time>2016-09-05T13:53:45.321Z</time>
      </trkpt>
      <trkpt lat="47.36071" lon="6.41952">
        <ele>264.51</ele>
        <time>2016-09-05T13:53:46.376Z</time>
      </trkpt>
      <trkpt lat="47.36071" lon="6.41952">
        <ele>265.232</ele>
        <time>2016-09-05T13:53:47.230Z</time>
      </trkpt>
      <trkpt lat="47.36071" lon="6.41952">
        <ele>265.942</ele>
        <time>2016-09-05T13:53:48.184Z</time>
      </trkpt>
      <trkpt lat="47.36071" lon="6.41952">
        <ele>265.195</ele>
        <time>2016-09-05T13:53:49.180Z</time>
      </trkpt>
      <trkpt lat="47.36071" lon="6.41952">
        <ele>265.283</ele>
        <time>2016-09-05T13:53:50.225Z</time>
      </trkpt>
      <trkpt lat="47.36071" lon="6.41952">
        <ele>264.59</ele>
        <time>2016-09-05T13:53:51.236Z</time>
      </trkpt>
      <trkpt lat="47.36071" lon="6.41952">
        <ele>265.437</ele>
        <time>2016-09-05T13:53:52.242Z</time>
      </trkpt>
      <trkpt lat="47.36071" lon="6.41952">
        <ele>265.499</ele>
        <time>2016-09-05T13:53:53.244Z</time>
      </trkpt>
      <trkpt lat="47.36071" lon="6.41952">
        <ele>265.815</ele>
        <time>2016-09-05T13:53:54.181Z</time>
      </trkpt>
      <trkpt lat="47.36071" lon="6.41952">
        <ele>266.379</ele>
        <time>2016-09-05T13:53:55.175Z</time>
      </trkpt>
      <trkpt lat="47.36071" lon="6.41952">
        <ele>266.546</ele>
        <time>2016-09-05T13:53:56.179Z</time>
      </trkpt>
      <trkpt lat="47.36071" lon="6.41952">
        <ele>266.858</ele>
        <time>2016-09-05T13:53:57.169Z</time>
      </trkpt>
      <trkpt lat="47.36072" lon="6.4195">
        <ele>267.902</ele>
        <time>2016-09-05T13:53:58.180Z</time>
      </trkpt>
      <trkpt lat="47.36072" lon="6.4195">
        <ele>268.19</ele>
        <time>2016-09-05T13:53:59.269Z</time>
      </trkpt>
      <trkpt lat="47.36072" lon="6.4195">
        <ele>267.975</ele>
        <time>2016-09-05T13:54:00.261Z</time>
      </trkpt>
      <trkpt lat="47.36072" lon="6.4195">
        <ele>268.027</ele>
        <time>2016-09-05T13:54:01.170Z</time>
      </trkpt>
      <trkpt lat="47.36072" lon="6.4195">
        <ele>268.656</ele>
        <time>2016-09-05T13:54:02.175Z</time>
      </trkpt>
      <trkpt lat="47.36072" lon="6.4195">
        <ele>268.534</ele>
        <time>2016-09-05T13:54:03.186Z</time>
      </trkpt>
      <trkpt lat="47.36072" lon="6.4195">
        <ele>268.267</ele>
        <time>2016-09-05T13:54:04.178Z</time>
      </trkpt>
      <trkpt lat="47.36072" lon="6.4195">
        <ele>267.738</ele>
        <time>2016-09-05T13:54:05.183Z</time>
      </trkpt>
      <trkpt lat="47.36072" lon="6.4195">
        <ele>267.524</ele>
        <time>2016-09-05T13:54:06.233Z</time>
      </trkpt>
      <trkpt lat="47.36072" lon="6.4195">
        <ele>268.703</ele>
        <time>2016-09-05T13:54:07.238Z</time>
      </trkpt>
      <trkpt lat="47.36072" lon="6.41946">
        <ele>269.152</ele>
        <time>2016-09-05T13:54:08.258Z</time>
      </trkpt>
      <trkpt lat="47.36072" lon="6.41946">
        <ele>269.528</ele>
        <time>2016-09-05T13:54:09.249Z</time>
      </trkpt>
      <trkpt lat="47.36072" lon="6.41946">
        <ele>269.886</ele>
        <time>2016-09-05T13:54:10.182Z</time>
      </trkpt>
      <trkpt lat="47.36072" lon="6.41946">
        <ele>270.25</ele>
        <time>2016-09-05T13:54:11.189Z</time>
      </trkpt>
      <trkpt lat="47.36072" lon="6.41946">
        <ele>270.718</ele>
        <time>2016-09-05T13:54:12.149Z</time>
      </trkpt>
      <trkpt lat="47.36072" lon="6.41946">
        <ele>271.805</ele>
        <time>2016-09-05T13:54:13.176Z</time>
      </trkpt>
      <trkpt lat="47.36072" lon="6.41946">
        <ele>271.714</ele>
        <time>2016-09-05T13:54:14.214Z</time>
      </trkpt>
      <trkpt lat="47.36072" lon="6.41946">
        <ele>271.477</ele>
        <time>2016-09-05T13:54:15.359Z</time>
      </trkpt>
      <trkpt lat="47.36072" lon="6.41946">
        <ele>271.121</ele>
        <time>2016-09-05T13:54:16.362Z</time>
      </trkpt>
      <trkpt lat="47.36072" lon="6.41946">
        <ele>271.895</ele>
        <time>2016-09-05T13:54:17.189Z</time>
      </trkpt>
      <trkpt lat="47.36072" lon="6.41946">
        <ele>272.753</ele>
        <time>2016-09-05T13:54:18.178Z</time>
      </trkpt>
      <trkpt lat="47.36072" lon="6.41946">
        <ele>273.25</ele>
        <time>2016-09-05T13:54:19.187Z</time>
      </trkpt>
      <trkpt lat="47.36072" lon="6.41946">
        <ele>274.305</ele>
        <time>2016-09-05T13:54:20.186Z</time>
      </trkpt>
      <trkpt lat="47.36073" lon="6.41944">
        <ele>274.726</ele>
        <time>2016-09-05T13:54:21.181Z</time>
      </trkpt>
      <trkpt lat="47.36073" lon="6.41944">
        <ele>274.056</ele>
        <time>2016-09-05T13:54:22.283Z</time>
      </trkpt>
      <trkpt lat="47.36073" lon="6.41944">
        <ele>273.939</ele>
        <time>2016-09-05T13:54:23.289Z</time>
      </trkpt>
      <trkpt lat="47.36074" lon="6.41944">
        <ele>275.965</ele>
        <time>2016-09-05T13:54:24.256Z</time>
      </trkpt>
      <trkpt lat="47.36074" lon="6.41944">
        <ele>276.164</ele>
        <time>2016-09-05T13:54:25.224Z</time>
      </trkpt>
      <trkpt lat="47.36074" lon="6.41945">
        <ele>277.997</ele>
        <time>2016-09-05T13:54:26.242Z</time>
      </trkpt>
      <trkpt lat="47.36075" lon="6.41945">
        <ele>277.354</ele>
        <time>2016-09-05T13:54:27.258Z</time>
      </trkpt>
      <trkpt lat="47.36075" lon="6.41946">
        <ele>276.775</ele>
        <time>2016-09-05T13:54:28.192Z</time>
      </trkpt>
      <trkpt lat="47.36075" lon="6.41946">
        <ele>277.654</ele>
        <time>2016-09-05T13:54:29.168Z</time>
      </trkpt>
      <trkpt lat="47.36075" lon="6.41946">
        <ele>279.418</ele>
        <time>2016-09-05T13:54:30.182Z</time>
      </trkpt>
      <trkpt lat="47.36075" lon="6.41946">
        <ele>279.188</ele>
        <time>2016-09-05T13:54:31.343Z</time>
      </trkpt>
      <trkpt lat="47.36074" lon="6.41946">
        <ele>278.198</ele>
        <time>2016-09-05T13:54:32.345Z</time>
      </trkpt>
      <trkpt lat="47.36074" lon="6.41946">
        <ele>278.241</ele>
        <time>2016-09-05T13:54:33.148Z</time>
      </trkpt>
      <trkpt lat="47.36074" lon="6.41946">
        <ele>278.251</ele>
        <time>2016-09-05T13:54:34.212Z</time>
      </trkpt>
      <trkpt lat="47.36074" lon="6.41946">
        <ele>278.686</ele>
        <time>2016-09-05T13:54:35.225Z</time>
      </trkpt>
      <trkpt lat="47.36074" lon="6.41946">
        <ele>278.725</ele>
        <time>2016-09-05T13:54:36.190Z</time>
      </trkpt>
      <trkpt lat="47.36074" lon="6.41946">
        <ele>278.674</ele>
        <time>2016-09-05T13:54:37.357Z</time>
      </trkpt>
      <trkpt lat="47.36073" lon="6.41947">
        <ele>278.688</ele>
        <time>2016-09-05T13:54:38.499Z</time>
      </trkpt>
      <trkpt lat="47.36073" lon="6.41947">
        <ele>274.661</ele>
        <time>2016-09-05T13:54:39.330Z</time>
      </trkpt>
      <trkpt lat="47.36073" lon="6.41947">
        <ele>274.696</ele>
        <time>2016-09-05T13:54:40.149Z</time>
      </trkpt>
      <trkpt lat="47.36072" lon="6.41949">
        <ele>272.743</ele>
        <time>2016-09-05T13:54:41.198Z</time>
      </trkpt>
      <trkpt lat="47.36071" lon="6.4195">
        <ele>272.654</ele>
        <time>2016-09-05T13:54:42.217Z</time>
      </trkpt>
      <trkpt lat="47.36071" lon="6.4195">
        <ele>271.726</ele>
        <time>2016-09-05T13:54:43.180Z</time>
      </trkpt>
      <trkpt lat="47.36071" lon="6.4195">
        <ele>272.238</ele>
        <time>2016-09-05T13:54:44.192Z</time>
      </trkpt>
      <trkpt lat="47.36071" lon="6.4195">
        <ele>272.004</ele>
        <time>2016-09-05T13:54:45.197Z</time>
      </trkpt>
      <trkpt lat="47.36071" lon="6.4195">
        <ele>265.211</ele>
        <time>2016-09-05T13:54:46.198Z</time>
      </trkpt>
      <trkpt lat="47.36072" lon="6.41951">
        <ele>263.516</ele>
        <time>2016-09-05T13:54:47.362Z</time>
      </trkpt>
      <trkpt lat="47.36072" lon="6.41951">
        <ele>263.663</ele>
        <time>2016-09-05T13:54:48.351Z</time>
      </trkpt>
      <trkpt lat="47.36073" lon="6.41951">
        <ele>266.683</ele>
        <time>2016-09-05T13:54:49.209Z</time>
      </trkpt>
      <trkpt lat="47.36073" lon="6.41951">
        <ele>267.635</ele>
        <time>2016-09-05T13:54:50.193Z</time>
      </trkpt>
      <trkpt lat="47.36073" lon="6.41951">
        <ele>267.69</ele>
        <time>2016-09-05T13:54:51.197Z</time>
      </trkpt>
      <trkpt lat="47.36072" lon="6.41951">
        <ele>266.185</ele>
        <time>2016-09-05T13:54:52.195Z</time>
      </trkpt>
      <trkpt lat="47.36072" lon="6.41951">
        <ele>266.277</ele>
        <time>2016-09-05T13:54:53.149Z</time>
      </trkpt>
      <trkpt lat="47.36072" lon="6.4195">
        <ele>268.644</ele>
        <time>2016-09-05T13:54:54.244Z</time>
      </trkpt>
      <trkpt lat="47.36072" lon="6.4195">
        <ele>270.748</ele>
        <time>2016-09-05T13:54:55.285Z</time>
      </trkpt>
      <trkpt lat="47.36071" lon="6.4195">
        <ele>271.097</ele>
        <time>2016-09-05T13:54:56.156Z</time>
      </trkpt>
      <trkpt lat="47.36071" lon="6.4195">
        <ele>271.45</ele>
        <time>2016-09-05T13:54:57.184Z</time>
      </trkpt>
      <trkpt lat="47.36072" lon="6.41949">
        <ele>271.289</ele>
        <time>2016-09-05T13:54:58.192Z</time>
      </trkpt>
      <trkpt lat="47.36072" lon="6.4195">
        <ele>273.186</ele>
        <time>2016-09-05T13:54:59.180Z</time>
      </trkpt>
      <trkpt lat="47.36072" lon="6.4195">
        <ele>273.381</ele>
        <time>2016-09-05T13:55:00.178Z</time>
      </trkpt>
      <trkpt lat="47.36072" lon="6.41951">
        <ele>273.443</ele>
        <time>2016-09-05T13:55:01.192Z</time>
      </trkpt>
      <trkpt lat="47.36072" lon="6.41951">
        <ele>273.357</ele>
        <time>2016-09-05T13:55:02.245Z</time>
      </trkpt>
      <trkpt lat="47.36072" lon="6.41951">
        <ele>274.183</ele>
        <time>2016-09-05T13:55:03.359Z</time>
      </trkpt>
      <trkpt lat="47.36072" lon="6.41951">
        <ele>272.704</ele>
        <time>2016-09-05T13:55:04.353Z</time>
      </trkpt>
      <trkpt lat="47.36072" lon="6.41951">
        <ele>274.21</ele>
        <time>2016-09-05T13:55:05.180Z</time>
      </trkpt>
      <trkpt lat="47.36072" lon="6.41951">
        <ele>274.333</ele>
        <time>2016-09-05T13:55:06.144Z</time>
      </trkpt>
      <trkpt lat="47.36072" lon="6.41951">
        <ele>274.98</ele>
        <time>2016-09-05T13:55:07.326Z</time>
      </trkpt>
      <trkpt lat="47.36072" lon="6.41951">
        <ele>273.561</ele>
        <time>2016-09-05T13:55:08.500Z</time>
      </trkpt>
      <trkpt lat="47.36072" lon="6.41955">
        <ele>274.755</ele>
        <time>2016-09-05T13:55:09.326Z</time>
      </trkpt>
      <trkpt lat="47.36073" lon="6.41956">
        <ele>273.461</ele>
        <time>2016-09-05T13:55:10.261Z</time>
      </trkpt>
      <trkpt lat="47.36073" lon="6.41957">
        <ele>271.716</ele>
        <time>2016-09-05T13:55:11.280Z</time>
      </trkpt>
      <trkpt lat="47.36073" lon="6.41957">
        <ele>273.196</ele>
        <time>2016-09-05T13:55:12.253Z</time>
      </trkpt>
      <trkpt lat="47.36074" lon="6.41958">
        <ele>274.13</ele>
        <time>2016-09-05T13:55:13.259Z</time>
      </trkpt>
      <trkpt lat="47.36074" lon="6.41958">
        <ele>273.069</ele>
        <time>2016-09-05T13:55:14.185Z</time>
      </trkpt>
      <trkpt lat="47.36074" lon="6.41958">
        <ele>272.912</ele>
        <time>2016-09-05T13:55:15.182Z</time>
      </trkpt>
      <trkpt lat="47.36074" lon="6.41957">
        <ele>274.104</ele>
        <time>2016-09-05T13:55:16.185Z</time>
      </trkpt>
      <trkpt lat="47.36074" lon="6.41957">
        <ele>274.09</ele>
        <time>2016-09-05T13:55:17.144Z</time>
      </trkpt>
      <trkpt lat="47.36074" lon="6.41957">
        <ele>274.529</ele>
        <time>2016-09-05T13:55:18.202Z</time>
      </trkpt>
      <trkpt lat="47.36074" lon="6.41957">
        <ele>275.434</ele>
        <time>2016-09-05T13:55:19.366Z</time>
      </trkpt>
      <trkpt lat="47.36074" lon="6.41957">
        <ele>275.847</ele>
        <time>2016-09-05T13:55:20.344Z</time>
      </trkpt>
      <trkpt lat="47.36074" lon="6.41957">
        <ele>279.093</ele>
        <time>2016-09-05T13:55:21.186Z</time>
      </trkpt>
      <trkpt lat="47.36074" lon="6.41957">
        <ele>279.342</ele>
        <time>2016-09-05T13:55:22.135Z</time>
      </trkpt>
      <trkpt lat="47.36074" lon="6.41957">
        <ele>280.887</ele>
        <time>2016-09-05T13:55:23.334Z</time>
      </trkpt>
      <trkpt lat="47.36074" lon="6.41958">
        <ele>280.665</ele>
        <time>2016-09-05T13:55:24.369Z</time>
      </trkpt>
      <trkpt lat="47.36074" lon="6.41958">
        <ele>280.16</ele>
        <time>2016-09-05T13:55:25.304Z</time>
      </trkpt>
      <trkpt lat="47.36074" lon="6.41958">
        <ele>280.16</ele>
        <time>2016-09-05T13:55:26.401Z</time>
      </trkpt>
      <trkpt lat="47.36073" lon="6.41958">
        <ele>281.027</ele>
        <time>2016-09-05T13:55:27.200Z</time>
      </trkpt>
      <trkpt lat="47.36073" lon="6.41957">
        <ele>280.966</ele>
        <time>2016-09-05T13:55:28.152Z</time>
      </trkpt>
      <trkpt lat="47.36073" lon="6.41957">
        <ele>282.008</ele>
        <time>2016-09-05T13:55:29.203Z</time>
      </trkpt>
      <trkpt lat="47.36073" lon="6.41956">
        <ele>281.62</ele>
        <time>2016-09-05T13:55:30.232Z</time>
      </trkpt>
      <trkpt lat="47.36073" lon="6.41956">
        <ele>282.023</ele>
        <time>2016-09-05T13:55:31.200Z</time>
      </trkpt>
      <trkpt lat="47.36073" lon="6.41956">
        <ele>281.195</ele>
        <time>2016-09-05T13:55:32.205Z</time>
      </trkpt>
      <trkpt lat="47.36071" lon="6.41955">
        <ele>281.109</ele>
        <time>2016-09-05T13:55:33.201Z</time>
      </trkpt>
      <trkpt lat="47.36071" lon="6.41955">
        <ele>281.12</ele>
        <time>2016-09-05T13:55:34.204Z</time>
      </trkpt>
      <trkpt lat="47.3607" lon="6.41955">
        <ele>280.736</ele>
        <time>2016-09-05T13:55:35.346Z</time>
      </trkpt>
      <trkpt lat="47.3607" lon="6.41955">
        <ele>281.94</ele>
        <time>2016-09-05T13:55:36.337Z</time>
      </trkpt>
      <trkpt lat="47.3607" lon="6.41955">
        <ele>281.761</ele>
        <time>2016-09-05T13:55:37.181Z</time>
      </trkpt>
      <trkpt lat="47.3607" lon="6.41955">
        <ele>282.069</ele>
        <time>2016-09-05T13:55:38.186Z</time>
      </trkpt>
      <trkpt lat="47.3607" lon="6.41955">
        <ele>282.283</ele>
        <time>2016-09-05T13:55:39.177Z</time>
      </trkpt>
      <trkpt lat="47.3607" lon="6.41955">
        <ele>282.644</ele>
        <time>2016-09-05T13:55:40.223Z</time>
      </trkpt>
      <trkpt lat="47.3607" lon="6.41955">
        <ele>282.647</ele>
        <time>2016-09-05T13:55:41.190Z</time>
      </trkpt>
      <trkpt lat="47.3607" lon="6.41955">
        <ele>282.57</ele>
        <time>2016-09-05T13:55:42.230Z</time>
      </trkpt>
      <trkpt lat="47.3607" lon="6.41955">
        <ele>282.353</ele>
        <time>2016-09-05T13:55:43.237Z</time>
      </trkpt>
      <trkpt lat="47.3607" lon="6.41955">
        <ele>282.592</ele>
        <time>2016-09-05T13:55:44.337Z</time>
      </trkpt>
      <trkpt lat="47.3607" lon="6.41955">
        <ele>283.396</ele>
        <time>2016-09-05T13:55:45.329Z</time>
      </trkpt>
      <trkpt lat="47.3607" lon="6.41955">
        <ele>283.396</ele>
        <time>2016-09-05T13:55:46.147Z</time>
      </trkpt>
      <trkpt lat="47.3607" lon="6.41955">
        <ele>282.77</ele>
        <time>2016-09-05T13:55:47.200Z</time>
      </trkpt>
      <trkpt lat="47.3607" lon="6.41955">
        <ele>282.667</ele>
        <time>2016-09-05T13:55:48.246Z</time>
      </trkpt>
      <trkpt lat="47.3607" lon="6.41955">
        <ele>282.058</ele>
        <time>2016-09-05T13:55:49.184Z</time>
      </trkpt>
      <trkpt lat="47.3607" lon="6.41955">
        <ele>280.303</ele>
        <time>2016-09-05T13:55:50.180Z</time>
      </trkpt>
      <trkpt lat="47.36067" lon="6.41953">
        <ele>279.079</ele>
        <time>2016-09-05T13:55:51.340Z</time>
      </trkpt>
      <trkpt lat="47.36067" lon="6.41953">
        <ele>277.186</ele>
        <time>2016-09-05T13:55:52.348Z</time>
      </trkpt>
      <trkpt lat="47.36067" lon="6.41953">
        <ele>276.623</ele>
        <time>2016-09-05T13:55:53.271Z</time>
      </trkpt>
      <trkpt lat="47.36067" lon="6.41953">
        <ele>276.542</ele>
        <time>2016-09-05T13:55:54.270Z</time>
      </trkpt>
      <trkpt lat="47.36067" lon="6.41953">
        <ele>276.529</ele>
        <time>2016-09-05T13:55:55.183Z</time>
      </trkpt>
      <trkpt lat="47.36067" lon="6.41953">
        <ele>276.877</ele>
        <time>2016-09-05T13:55:56.176Z</time>
      </trkpt>
      <trkpt lat="47.36067" lon="6.41953">
        <ele>276.743</ele>
        <time>2016-09-05T13:55:57.187Z</time>
      </trkpt>
      <trkpt lat="47.36067" lon="6.41953">
        <ele>276.743</ele>
        <time>2016-09-05T13:55:58.153Z</time>
      </trkpt>
      <trkpt lat="47.36067" lon="6.41953">
        <ele>275.606</ele>
        <time>2016-09-05T13:55:59.187Z</time>
      </trkpt>
      <trkpt lat="47.36067" lon="6.41953">
        <ele>275.873</ele>
        <time>2016-09-05T13:56:00.273Z</time>
      </trkpt>
      <trkpt lat="47.36067" lon="6.41953">
        <ele>276.442</ele>
        <time>2016-09-05T13:56:01.255Z</time>
      </trkpt>
      <trkpt lat="47.36067" lon="6.41953">
        <ele>275.545</ele>
        <time>2016-09-05T13:56:02.315Z</time>
      </trkpt>
      <trkpt lat="47.36067" lon="6.41953">
        <ele>275.596</ele>
        <time>2016-09-05T13:56:03.470Z</time>
      </trkpt>
      <trkpt lat="47.36067" lon="6.41953">
        <ele>275.05</ele>
        <time>2016-09-05T13:56:04.285Z</time>
      </trkpt>
      <trkpt lat="47.36067" lon="6.41953">
        <ele>274.478</ele>
        <time>2016-09-05T13:56:05.192Z</time>
      </trkpt>
      <trkpt lat="47.36067" lon="6.41953">
        <ele>274.144</ele>
        <time>2016-09-05T13:56:06.207Z</time>
      </trkpt>
      <trkpt lat="47.36067" lon="6.41953">
        <ele>274.147</ele>
        <time>2016-09-05T13:56:07.289Z</time>
      </trkpt>
      <trkpt lat="47.36067" lon="6.41953">
        <ele>273.586</ele>
        <time>2016-09-05T13:56:08.281Z</time>
      </trkpt>
      <trkpt lat="47.36067" lon="6.41953">
        <ele>273.608</ele>
        <time>2016-09-05T13:56:09.179Z</time>
      </trkpt>
      <trkpt lat="47.36067" lon="6.41953">
        <ele>273.618</ele>
        <time>2016-09-05T13:56:10.183Z</time>
      </trkpt>
      <trkpt lat="47.36067" lon="6.41953">
        <ele>273.616</ele>
        <time>2016-09-05T13:56:11.189Z</time>
      </trkpt>
      <trkpt lat="47.36067" lon="6.41953">
        <ele>273.604</ele>
        <time>2016-09-05T13:56:12.176Z</time>
      </trkpt>
      <trkpt lat="47.36067" lon="6.41953">
        <ele>273.602</ele>
        <time>2016-09-05T13:56:13.171Z</time>
      </trkpt>
      <trkpt lat="47.36067" lon="6.41953">
        <ele>273.592</ele>
        <time>2016-09-05T13:56:14.226Z</time>
      </trkpt>
      <trkpt lat="47.36067" lon="6.41953">
        <ele>273.578</ele>
        <time>2016-09-05T13:56:15.237Z</time>
      </trkpt>
      <trkpt lat="47.36067" lon="6.41953">
        <ele>273.578</ele>
        <time>2016-09-05T13:56:16.148Z</time>
      </trkpt>
      <trkpt lat="47.36067" lon="6.41953">
        <ele>272.806</ele>
        <time>2016-09-05T13:56:17.176Z</time>
      </trkpt>
      <trkpt lat="47.36067" lon="6.41953">
        <ele>272.624</ele>
        <time>2016-09-05T13:56:18.185Z</time>
      </trkpt>
      <trkpt lat="47.36067" lon="6.41953">
        <ele>271.81</ele>
        <time>2016-09-05T13:56:19.172Z</time>
      </trkpt>
      <trkpt lat="47.36067" lon="6.41952">
        <ele>271.862</ele>
        <time>2016-09-05T13:56:20.175Z</time>
      </trkpt>
      <trkpt lat="47.36067" lon="6.41952">
        <ele>271.79</ele>
        <time>2016-09-05T13:56:21.200Z</time>
      </trkpt>
      <trkpt lat="47.36067" lon="6.41952">
        <ele>271.8</ele>
        <time>2016-09-05T13:56:22.228Z</time>
      </trkpt>
      <trkpt lat="47.36067" lon="6.41952">
        <ele>271.799</ele>
        <time>2016-09-05T13:56:23.164Z</time>
      </trkpt>
      <trkpt lat="47.36067" lon="6.41952">
        <ele>271.102</ele>
        <time>2016-09-05T13:56:24.235Z</time>
      </trkpt>
      <trkpt lat="47.36067" lon="6.41952">
        <ele>271.102</ele>
        <time>2016-09-05T13:56:25.188Z</time>
      </trkpt>
      <trkpt lat="47.36067" lon="6.41951">
        <ele>271.298</ele>
        <time>2016-09-05T13:56:26.199Z</time>
      </trkpt>
      <trkpt lat="47.36067" lon="6.41951">
        <ele>271.492</ele>
        <time>2016-09-05T13:56:27.231Z</time>
      </trkpt>
      <trkpt lat="47.36067" lon="6.41951">
        <ele>271.491</ele>
        <time>2016-09-05T13:56:28.179Z</time>
      </trkpt>
      <trkpt lat="47.36067" lon="6.41951">
        <ele>271.487</ele>
        <time>2016-09-05T13:56:29.184Z</time>
      </trkpt>
      <trkpt lat="47.36067" lon="6.41951">
        <ele>271.482</ele>
        <time>2016-09-05T13:56:30.265Z</time>
      </trkpt>
      <trkpt lat="47.36067" lon="6.41951">
        <ele>271.482</ele>
        <time>2016-09-05T13:56:31.218Z</time>
      </trkpt>
      <trkpt lat="47.36067" lon="6.41951">
        <ele>271.487</ele>
        <time>2016-09-05T13:56:32.172Z</time>
      </trkpt>
      <trkpt lat="47.36067" lon="6.41951">
        <ele>271.486</ele>
        <time>2016-09-05T13:56:33.266Z</time>
      </trkpt>
      <trkpt lat="47.36067" lon="6.41951">
        <ele>271.479</ele>
        <time>2016-09-05T13:56:34.282Z</time>
      </trkpt>
      <trkpt lat="47.36067" lon="6.41951">
        <ele>271.48</ele>
        <time>2016-09-05T13:56:35.166Z</time>
      </trkpt>
      <trkpt lat="47.36067" lon="6.41951">
        <ele>271.476</ele>
        <time>2016-09-05T13:56:36.282Z</time>
      </trkpt>
      <trkpt lat="47.36067" lon="6.41951">
        <ele>271.464</ele>
        <time>2016-09-05T13:56:37.395Z</time>
      </trkpt>
      <trkpt lat="47.36067" lon="6.41951">
        <ele>271.464</ele>
        <time>2016-09-05T13:56:38.306Z</time>
      </trkpt>
      <trkpt lat="47.36067" lon="6.41951">
        <ele>271.471</ele>
        <time>2016-09-05T13:56:39.323Z</time>
      </trkpt>
      <trkpt lat="47.36067" lon="6.41951">
        <ele>271.471</ele>
        <time>2016-09-05T13:56:40.218Z</time>
      </trkpt>
      <trkpt lat="47.36067" lon="6.41951">
        <ele>271.475</ele>
        <time>2016-09-05T13:56:41.176Z</time>
      </trkpt>
      <trkpt lat="47.36067" lon="6.41951">
        <ele>271.476</ele>
        <time>2016-09-05T13:56:42.240Z</time>
      </trkpt>
      <trkpt lat="47.36067" lon="6.41951">
        <ele>271.471</ele>
        <time>2016-09-05T13:56:43.238Z</time>
      </trkpt>
      <trkpt lat="47.36067" lon="6.41951">
        <ele>271.465</ele>
        <time>2016-09-05T13:56:44.236Z</time>
      </trkpt>
      <trkpt lat="47.36067" lon="6.41951">
        <ele>271.459</ele>
        <time>2016-09-05T13:56:45.264Z</time>
      </trkpt>
      <trkpt lat="47.36067" lon="6.41951">
        <ele>271.455</ele>
        <time>2016-09-05T13:56:46.296Z</time>
      </trkpt>
      <trkpt lat="47.36067" lon="6.41951">
        <ele>271.457</ele>
        <time>2016-09-05T13:56:47.320Z</time>
      </trkpt>
      <trkpt lat="47.36067" lon="6.41951">
        <ele>271.45</ele>
        <time>2016-09-05T13:56:48.324Z</time>
      </trkpt>
      <trkpt lat="47.36067" lon="6.41951">
        <ele>271.439</ele>
        <time>2016-09-05T13:56:49.295Z</time>
      </trkpt>
      <trkpt lat="47.36067" lon="6.41951">
        <ele>271.439</ele>
        <time>2016-09-05T13:56:50.176Z</time>
      </trkpt>
      <trkpt lat="47.36067" lon="6.41951">
        <ele>271.434</ele>
        <time>2016-09-05T13:56:51.179Z</time>
      </trkpt>
      <trkpt lat="47.36067" lon="6.41951">
        <ele>271.445</ele>
        <time>2016-09-05T13:56:52.275Z</time>
      </trkpt>
      <trkpt lat="47.36067" lon="6.41951">
        <ele>271.438</ele>
        <time>2016-09-05T13:56:53.331Z</time>
      </trkpt>
      <trkpt lat="47.36067" lon="6.41951">
        <ele>271.435</ele>
        <time>2016-09-05T13:56:54.319Z</time>
      </trkpt>
      <trkpt lat="47.36067" lon="6.41951">
        <ele>271.444</ele>
        <time>2016-09-05T13:56:55.326Z</time>
      </trkpt>
      <trkpt lat="47.36067" lon="6.41951">
        <ele>271.444</ele>
        <time>2016-09-05T13:56:56.306Z</time>
      </trkpt>
      <trkpt lat="47.36067" lon="6.41951">
        <ele>271.452</ele>
        <time>2016-09-05T13:56:57.336Z</time>
      </trkpt>
      <trkpt lat="47.36067" lon="6.41951">
        <ele>271.442</ele>
        <time>2016-09-05T13:56:58.261Z</time>
      </trkpt>
      <trkpt lat="47.36067" lon="6.41951">
        <ele>271.437</ele>
        <time>2016-09-05T13:56:59.204Z</time>
      </trkpt>
      <trkpt lat="47.36067" lon="6.41951">
        <ele>271.45</ele>
        <time>2016-09-05T13:57:00.180Z</time>
      </trkpt>
      <trkpt lat="47.36067" lon="6.41951">
        <ele>271.45</ele>
        <time>2016-09-05T13:57:01.155Z</time>
      </trkpt>
      <trkpt lat="47.36067" lon="6.41951">
        <ele>271.452</ele>
        <time>2016-09-05T13:57:02.306Z</time>
      </trkpt>
      <trkpt lat="47.36067" lon="6.41951">
        <ele>272.229</ele>
        <time>2016-09-05T13:57:03.405Z</time>
      </trkpt>
      <trkpt lat="47.36067" lon="6.41951">
        <ele>272.306</ele>
        <time>2016-09-05T13:57:04.332Z</time>
      </trkpt>
      <trkpt lat="47.36067" lon="6.41951">
        <ele>272.311</ele>
        <time>2016-09-05T13:57:05.322Z</time>
      </trkpt>
      <trkpt lat="47.36067" lon="6.41951">
        <ele>272.301</ele>
        <time>2016-09-05T13:57:06.317Z</time>
      </trkpt>
      <trkpt lat="47.36067" lon="6.41951">
        <ele>272.301</ele>
        <time>2016-09-05T13:57:07.218Z</time>
      </trkpt>
      <trkpt lat="47.36067" lon="6.41951">
        <ele>272.366</ele>
        <time>2016-09-05T13:57:08.175Z</time>
      </trkpt>
      <trkpt lat="47.36067" lon="6.41951">
        <ele>272.357</ele>
        <time>2016-09-05T13:57:09.277Z</time>
      </trkpt>
      <trkpt lat="47.36067" lon="6.41951">
        <ele>272.334</ele>
        <time>2016-09-05T13:57:10.312Z</time>
      </trkpt>
      <trkpt lat="47.36067" lon="6.41951">
        <ele>272.334</ele>
        <time>2016-09-05T13:57:11.212Z</time>
      </trkpt>
      <trkpt lat="47.36067" lon="6.41951">
        <ele>272.348</ele>
        <time>2016-09-05T13:57:12.274Z</time>
      </trkpt>
      <trkpt lat="47.36067" lon="6.41951">
        <ele>272.359</ele>
        <time>2016-09-05T13:57:13.384Z</time>
      </trkpt>
      <trkpt lat="47.36067" lon="6.41951">
        <ele>272.387</ele>
        <time>2016-09-05T13:57:14.274Z</time>
      </trkpt>
      <trkpt lat="47.36067" lon="6.41951">
        <ele>272.387</ele>
        <time>2016-09-05T13:57:15.221Z</time>
      </trkpt>
      <trkpt lat="47.36067" lon="6.41951">
        <ele>272.412</ele>
        <time>2016-09-05T13:57:16.174Z</time>
      </trkpt>
      <trkpt lat="47.36067" lon="6.41951">
        <ele>272.388</ele>
        <time>2016-09-05T13:57:17.244Z</time>
      </trkpt>
      <trkpt lat="47.36067" lon="6.41951">
        <ele>272.373</ele>
        <time>2016-09-05T13:57:18.241Z</time>
      </trkpt>
      <trkpt lat="47.36067" lon="6.41951">
        <ele>272.375</ele>
        <time>2016-09-05T13:57:19.268Z</time>
      </trkpt>
      <trkpt lat="47.36067" lon="6.41951">
        <ele>272.382</ele>
        <time>2016-09-05T13:57:20.257Z</time>
      </trkpt>
      <trkpt lat="47.36067" lon="6.41951">
        <ele>272.388</ele>
        <time>2016-09-05T13:57:21.262Z</time>
      </trkpt>
      <trkpt lat="47.36067" lon="6.41951">
        <ele>272.393</ele>
        <time>2016-09-05T13:57:22.292Z</time>
      </trkpt>
      <trkpt lat="47.36067" lon="6.41951">
        <ele>272.382</ele>
        <time>2016-09-05T13:57:23.227Z</time>
      </trkpt>
      <trkpt lat="47.36067" lon="6.41951">
        <ele>272.381</ele>
        <time>2016-09-05T13:57:24.163Z</time>
      </trkpt>
      <trkpt lat="47.36067" lon="6.41951">
        <ele>272.369</ele>
        <time>2016-09-05T13:57:25.170Z</time>
      </trkpt>
      <trkpt lat="47.36067" lon="6.41951">
        <ele>272.358</ele>
        <time>2016-09-05T13:57:26.017Z</time>
      </trkpt>
      <trkpt lat="47.36067" lon="6.41951">
        <ele>272.359</ele>
        <time>2016-09-05T13:57:27.013Z</time>
      </trkpt>
      <trkpt lat="47.36068" lon="6.4195">
        <ele>272.929</ele>
        <time>2016-09-05T13:57:28.009Z</time>
      </trkpt>
      <trkpt lat="47.36068" lon="6.4195">
        <ele>272.944</ele>
        <time>2016-09-05T13:57:29.005Z</time>
      </trkpt>
      <trkpt lat="47.36068" lon="6.4195">
        <ele>272.948</ele>
        <time>2016-09-05T13:57:30.001Z</time>
      </trkpt>
      <trkpt lat="47.36068" lon="6.4195">
        <ele>272.94</ele>
        <time>2016-09-05T13:57:31.000Z</time>
      </trkpt>
      <trkpt lat="47.36068" lon="6.4195">
        <ele>272.944</ele>
        <time>2016-09-05T13:57:32.000Z</time>
      </trkpt>
      <trkpt lat="47.36068" lon="6.4195">
        <ele>272.941</ele>
        <time>2016-09-05T13:57:33.000Z</time>
      </trkpt>
      <trkpt lat="47.36068" lon="6.4195">
        <ele>272.944</ele>
        <time>2016-09-05T13:57:34.000Z</time>
      </trkpt>
      <trkpt lat="47.36068" lon="6.4195">
        <ele>272.954</ele>
        <time>2016-09-05T13:57:35.000Z</time>
      </trkpt>
      <trkpt lat="47.36068" lon="6.4195">
        <ele>272.957</ele>
        <time>2016-09-05T13:57:36.000Z</time>
      </trkpt>
      <trkpt lat="47.36068" lon="6.4195">
        <ele>272.955</ele>
        <time>2016-09-05T13:57:37.000Z</time>
      </trkpt>
      <trkpt lat="47.36068" lon="6.4195">
        <ele>272.359</ele>
        <time>2016-09-05T13:57:38.000Z</time>
      </trkpt>
      <trkpt lat="47.36068" lon="6.4195">
        <ele>272.391</ele>
        <time>2016-09-05T13:57:39.000Z</time>
      </trkpt>
      <trkpt lat="47.36068" lon="6.4195">
        <ele>272.392</ele>
        <time>2016-09-05T13:57:40.000Z</time>
      </trkpt>
      <trkpt lat="47.36068" lon="6.4195">
        <ele>271.974</ele>
        <time>2016-09-05T13:57:41.000Z</time>
      </trkpt>
      <trkpt lat="47.36068" lon="6.41949">
        <ele>271.7</ele>
        <time>2016-09-05T13:57:42.000Z</time>
      </trkpt>
      <trkpt lat="47.36069" lon="6.41949">
        <ele>272.034</ele>
        <time>2016-09-05T13:57:43.000Z</time>
      </trkpt>
      <trkpt lat="47.36069" lon="6.41949">
        <ele>272.024</ele>
        <time>2016-09-05T13:57:44.000Z</time>
      </trkpt>
      <trkpt lat="47.36069" lon="6.41949">
        <ele>272.016</ele>
        <time>2016-09-05T13:57:45.000Z</time>
      </trkpt>
      <trkpt lat="47.36069" lon="6.41949">
        <ele>272.462</ele>
        <time>2016-09-05T13:57:46.000Z</time>
      </trkpt>
      <trkpt lat="47.36069" lon="6.41948">
        <ele>272.838</ele>
        <time>2016-09-05T13:57:47.000Z</time>
      </trkpt>
      <trkpt lat="47.3607" lon="6.41948">
        <ele>272.977</ele>
        <time>2016-09-05T13:57:48.000Z</time>
      </trkpt>
      <trkpt lat="47.3607" lon="6.41948">
        <ele>272.779</ele>
        <time>2016-09-05T13:57:49.000Z</time>
      </trkpt>
      <trkpt lat="47.3607" lon="6.41948">
        <ele>272.662</ele>
        <time>2016-09-05T13:57:50.000Z</time>
      </trkpt>
      <trkpt lat="47.3607" lon="6.41948">
        <ele>272.665</ele>
        <time>2016-09-05T13:57:51.000Z</time>
      </trkpt>
      <trkpt lat="47.3607" lon="6.41948">
        <ele>272.664</ele>
        <time>2016-09-05T13:57:52.000Z</time>
      </trkpt>
      <trkpt lat="47.3607" lon="6.41948">
        <ele>272.665</ele>
        <time>2016-09-05T13:57:53.000Z</time>
      </trkpt>
      <trkpt lat="47.3607" lon="6.41948">
        <ele>272.332</ele>
        <time>2016-09-05T13:57:54.000Z</time>
      </trkpt>
      <trkpt lat="47.3607" lon="6.41948">
        <ele>272.328</ele>
        <time>2016-09-05T13:57:55.000Z</time>
      </trkpt>
      <trkpt lat="47.3607" lon="6.41948">
        <ele>272.33</ele>
        <time>2016-09-05T13:57:56.000Z</time>
      </trkpt>
      <trkpt lat="47.3607" lon="6.41948">
        <ele>272.333</ele>
        <time>2016-09-05T13:57:57.000Z</time>
      </trkpt>
      <trkpt lat="47.3607" lon="6.41948">
        <ele>272.333</ele>
        <time>2016-09-05T13:57:58.000Z</time>
      </trkpt>
      <trkpt lat="47.3607" lon="6.41948">
        <ele>272.333</ele>
        <time>2016-09-05T13:57:59.000Z</time>
      </trkpt>
      <trkpt lat="47.3607" lon="6.41948">
        <ele>273.743</ele>
        <time>2016-09-05T13:58:00.000Z</time>
      </trkpt>
      <trkpt lat="47.3607" lon="6.41948">
        <ele>273.769</ele>
        <time>2016-09-05T13:58:01.000Z</time>
      </trkpt>
      <trkpt lat="47.3607" lon="6.41948">
        <ele>273.906</ele>
        <time>2016-09-05T13:58:02.000Z</time>
      </trkpt>
      <trkpt lat="47.3607" lon="6.41948">
        <ele>274.562</ele>
        <time>2016-09-05T13:58:03.000Z</time>
      </trkpt>
      <trkpt lat="47.3607" lon="6.41948">
        <ele>274.561</ele>
        <time>2016-09-05T13:58:04.000Z</time>
      </trkpt>
      <trkpt lat="47.3607" lon="6.41948">
        <ele>274.556</ele>
        <time>2016-09-05T13:58:05.000Z</time>
      </trkpt>
      <trkpt lat="47.3607" lon="6.41948">
        <ele>274.552</ele>
        <time>2016-09-05T13:58:06.000Z</time>
      </trkpt>
      <trkpt lat="47.3607" lon="6.41948">
        <ele>274.552</ele>
        <time>2016-09-05T13:58:07.000Z</time>
      </trkpt>
      <trkpt lat="47.3607" lon="6.41948">
        <ele>274.552</ele>
        <time>2016-09-05T13:58:08.000Z</time>
      </trkpt>
      <trkpt lat="47.3607" lon="6.41948">
        <ele>274.558</ele>
        <time>2016-09-05T13:58:09.000Z</time>
      </trkpt>
      <trkpt lat="47.3607" lon="6.41948">
        <ele>274.561</ele>
        <time>2016-09-05T13:58:10.000Z</time>
      </trkpt>
      <trkpt lat="47.3607" lon="6.41948">
        <ele>274.561</ele>
        <time>2016-09-05T13:58:11.000Z</time>
      </trkpt>
      <trkpt lat="47.3607" lon="6.41948">
        <ele>274.558</ele>
        <time>2016-09-05T13:58:12.000Z</time>
      </trkpt>
      <trkpt lat="47.3607" lon="6.41948">
        <ele>274.557</ele>
        <time>2016-09-05T13:58:13.000Z</time>
      </trkpt>
      <trkpt lat="47.3607" lon="6.41948">
        <ele>274.554</ele>
        <time>2016-09-05T13:58:14.000Z</time>
      </trkpt>
      <trkpt lat="47.3607" lon="6.41948">
        <ele>274.553</ele>
        <time>2016-09-05T13:58:15.000Z</time>
      </trkpt>
      <trkpt lat="47.3607" lon="6.41948">
        <ele>274.547</ele>
        <time>2016-09-05T13:58:16.000Z</time>
      </trkpt>
      <trkpt lat="47.3607" lon="6.41948">
        <ele>274.547</ele>
        <time>2016-09-05T13:58:17.000Z</time>
      </trkpt>
      <trkpt lat="47.3607" lon="6.41948">
        <ele>274.555</ele>
        <time>2016-09-05T13:58:18.000Z</time>
      </trkpt>
      <trkpt lat="47.3607" lon="6.41948">
        <ele>274.562</ele>
        <time>2016-09-05T13:58:19.000Z</time>
      </trkpt>
      <trkpt lat="47.3607" lon="6.41948">
        <ele>274.562</ele>
        <time>2016-09-05T13:58:20.000Z</time>
      </trkpt>
      <trkpt lat="47.3607" lon="6.41948">
        <ele>274.546</ele>
        <time>2016-09-05T13:58:21.000Z</time>
      </trkpt>
      <trkpt lat="47.3607" lon="6.41948">
        <ele>274.547</ele>
        <time>2016-09-05T13:58:22.000Z</time>
      </trkpt>
      <trkpt lat="47.3607" lon="6.41948">
        <ele>274.542</ele>
        <time>2016-09-05T13:58:23.000Z</time>
      </trkpt>
      <trkpt lat="47.3607" lon="6.41948">
        <ele>274.542</ele>
        <time>2016-09-05T13:58:24.000Z</time>
      </trkpt>
      <trkpt lat="47.3607" lon="6.41948">
        <ele>274.535</ele>
        <time>2016-09-05T13:58:25.000Z</time>
      </trkpt>
      <trkpt lat="47.3607" lon="6.41948">
        <ele>274.528</ele>
        <time>2016-09-05T13:58:26.000Z</time>
      </trkpt>
      <trkpt lat="47.3607" lon="6.41948">
        <ele>274.536</ele>
        <time>2016-09-05T13:58:27.000Z</time>
      </trkpt>
      <trkpt lat="47.3607" lon="6.41948">
        <ele>274.537</ele>
        <time>2016-09-05T13:58:28.000Z</time>
      </trkpt>
      <trkpt lat="47.3607" lon="6.41948">
        <ele>274.531</ele>
        <time>2016-09-05T13:58:29.000Z</time>
      </trkpt>
      <trkpt lat="47.3607" lon="6.41948">
        <ele>274.536</ele>
        <time>2016-09-05T13:58:30.000Z</time>
      </trkpt>
      <trkpt lat="47.3607" lon="6.41948">
        <ele>274.541</ele>
        <time>2016-09-05T13:58:31.000Z</time>
      </trkpt>
      <trkpt lat="47.3607" lon="6.41948">
        <ele>274.545</ele>
        <time>2016-09-05T13:58:32.000Z</time>
      </trkpt>
      <trkpt lat="47.3607" lon="6.41948">
        <ele>274.545</ele>
        <time>2016-09-05T13:58:33.000Z</time>
      </trkpt>
      <trkpt lat="47.3607" lon="6.41948">
        <ele>274.548</ele>
        <time>2016-09-05T13:58:34.000Z</time>
      </trkpt>
      <trkpt lat="47.3607" lon="6.41948">
        <ele>274.547</ele>
        <time>2016-09-05T13:58:35.000Z</time>
      </trkpt>
      <trkpt lat="47.3607" lon="6.41948">
        <ele>274.547</ele>
        <time>2016-09-05T13:58:36.000Z</time>
      </trkpt>
      <trkpt lat="47.3607" lon="6.41948">
        <ele>274.548</ele>
        <time>2016-09-05T13:58:37.000Z</time>
      </trkpt>
      <trkpt lat="47.3607" lon="6.41948">
        <ele>274.55</ele>
        <time>2016-09-05T13:58:38.000Z</time>
      </trkpt>
      <trkpt lat="47.3607" lon="6.41948">
        <ele>274.55</ele>
        <time>2016-09-05T13:58:39.000Z</time>
      </trkpt>
      <trkpt lat="47.3607" lon="6.41948">
        <ele>274.552</ele>
        <time>2016-09-05T13:58:40.000Z</time>
      </trkpt>
      <trkpt lat="47.3607" lon="6.41948">
        <ele>274.564</ele>
        <time>2016-09-05T13:58:41.000Z</time>
      </trkpt>
      <trkpt lat="47.3607" lon="6.41948">
        <ele>274.566</ele>
        <time>2016-09-05T13:58:42.000Z</time>
      </trkpt>
      <trkpt lat="47.3607" lon="6.41948">
        <ele>274.578</ele>
        <time>2016-09-05T13:58:43.000Z</time>
      </trkpt>
      <trkpt lat="47.3607" lon="6.41948">
        <ele>274.574</ele>
        <time>2016-09-05T13:58:44.000Z</time>
      </trkpt>
      <trkpt lat="47.3607" lon="6.41948">
        <ele>274.563</ele>
        <time>2016-09-05T13:58:45.000Z</time>
      </trkpt>
      <trkpt lat="47.3607" lon="6.41948">
        <ele>274.564</ele>
        <time>2016-09-05T13:58:46.000Z</time>
      </trkpt>
      <trkpt lat="47.3607" lon="6.41948">
        <ele>274.556</ele>
        <time>2016-09-05T13:58:47.000Z</time>
      </trkpt>
      <trkpt lat="47.3607" lon="6.41948">
        <ele>274.551</ele>
        <time>2016-09-05T13:58:48.000Z</time>
      </trkpt>
      <trkpt lat="47.3607" lon="6.41948">
        <ele>274.529</ele>
        <time>2016-09-05T13:58:49.000Z</time>
      </trkpt>
      <trkpt lat="47.3607" lon="6.41948">
        <ele>274.505</ele>
        <time>2016-09-05T13:58:50.000Z</time>
      </trkpt>
      <trkpt lat="47.3607" lon="6.41948">
        <ele>274.512</ele>
        <time>2016-09-05T13:58:51.000Z</time>
      </trkpt>
      <trkpt lat="47.3607" lon="6.41948">
        <ele>274.51</ele>
        <time>2016-09-05T13:58:52.000Z</time>
      </trkpt>
      <trkpt lat="47.3607" lon="6.41948">
        <ele>274.5</ele>
        <time>2016-09-05T13:58:53.000Z</time>
      </trkpt>
      <trkpt lat="47.3607" lon="6.41948">
        <ele>274.496</ele>
        <time>2016-09-05T13:58:54.000Z</time>
      </trkpt>
      <trkpt lat="47.3607" lon="6.41948">
        <ele>274.496</ele>
        <time>2016-09-05T13:58:55.000Z</time>
      </trkpt>
      <trkpt lat="47.3607" lon="6.41948">
        <ele>274.494</ele>
        <time>2016-09-05T13:58:56.000Z</time>
      </trkpt>
      <trkpt lat="47.3607" lon="6.41948">
        <ele>274.497</ele>
        <time>2016-09-05T13:58:57.000Z</time>
      </trkpt>
      <trkpt lat="47.3607" lon="6.41948">
        <ele>274.501</ele>
        <time>2016-09-05T13:58:58.000Z</time>
      </trkpt>
      <trkpt lat="47.3607" lon="6.41948">
        <ele>274.509</ele>
        <time>2016-09-05T13:58:59.000Z</time>
      </trkpt>
      <trkpt lat="47.3607" lon="6.41948">
        <ele>274.509</ele>
        <time>2016-09-05T13:59:00.000Z</time>
      </trkpt>
      <trkpt lat="47.3607" lon="6.41948">
        <ele>274.517</ele>
        <time>2016-09-05T13:59:01.000Z</time>
      </trkpt>
      <trkpt lat="47.3607" lon="6.41948">
        <ele>274.511</ele>
        <time>2016-09-05T13:59:02.000Z</time>
      </trkpt>
      <trkpt lat="47.3607" lon="6.41948">
        <ele>274.509</ele>
        <time>2016-09-05T13:59:03.000Z</time>
      </trkpt>
      <trkpt lat="47.3607" lon="6.41948">
        <ele>274.509</ele>
        <time>2016-09-05T13:59:04.000Z</time>
      </trkpt>
      <trkpt lat="47.3607" lon="6.41948">
        <ele>274.508</ele>
        <time>2016-09-05T13:59:05.000Z</time>
      </trkpt>
      <trkpt lat="47.3607" lon="6.41948">
        <ele>274.506</ele>
        <time>2016-09-05T13:59:06.000Z</time>
      </trkpt>
      <trkpt lat="47.3607" lon="6.41948">
        <ele>274.507</ele>
        <time>2016-09-05T13:59:07.000Z</time>
      </trkpt>
      <trkpt lat="47.3607" lon="6.41948">
        <ele>274.505</ele>
        <time>2016-09-05T13:59:08.000Z</time>
      </trkpt>
      <trkpt lat="47.3607" lon="6.41948">
        <ele>274.499</ele>
        <time>2016-09-05T13:59:09.000Z</time>
      </trkpt>
      <trkpt lat="47.3607" lon="6.41948">
        <ele>274.498</ele>
        <time>2016-09-05T13:59:10.000Z</time>
      </trkpt>
      <trkpt lat="47.3607" lon="6.41948">
        <ele>274.493</ele>
        <time>2016-09-05T13:59:11.000Z</time>
      </trkpt>
      <trkpt lat="47.3607" lon="6.41948">
        <ele>274.488</ele>
        <time>2016-09-05T13:59:12.000Z</time>
      </trkpt>
      <trkpt lat="47.3607" lon="6.41948">
        <ele>274.485</ele>
        <time>2016-09-05T13:59:13.000Z</time>
      </trkpt>
      <trkpt lat="47.3607" lon="6.41948">
        <ele>274.49</ele>
        <time>2016-09-05T13:59:14.000Z</time>
      </trkpt>
      <trkpt lat="47.3607" lon="6.41948">
        <ele>274.483</ele>
        <time>2016-09-05T13:59:15.000Z</time>
      </trkpt>
      <trkpt lat="47.3607" lon="6.41948">
        <ele>274.484</ele>
        <time>2016-09-05T13:59:16.000Z</time>
      </trkpt>
      <trkpt lat="47.3607" lon="6.41948">
        <ele>274.488</ele>
        <time>2016-09-05T13:59:17.000Z</time>
      </trkpt>
      <trkpt lat="47.3607" lon="6.41948">
        <ele>274.498</ele>
        <time>2016-09-05T13:59:18.000Z</time>
      </trkpt>
      <trkpt lat="47.3607" lon="6.41948">
        <ele>274.507</ele>
        <time>2016-09-05T13:59:19.000Z</time>
      </trkpt>
      <trkpt lat="47.3607" lon="6.41948">
        <ele>274.513</ele>
        <time>2016-09-05T13:59:20.000Z</time>
      </trkpt>
      <trkpt lat="47.3607" lon="6.41948">
        <ele>274.52</ele>
        <time>2016-09-05T13:59:21.000Z</time>
      </trkpt>
      <trkpt lat="47.3607" lon="6.41948">
        <ele>274.523</ele>
        <time>2016-09-05T13:59:22.000Z</time>
      </trkpt>
      <trkpt lat="47.3607" lon="6.41948">
        <ele>274.521</ele>
        <time>2016-09-05T13:59:23.000Z</time>
      </trkpt>
      <trkpt lat="47.3607" lon="6.41948">
        <ele>274.525</ele>
        <time>2016-09-05T13:59:24.000Z</time>
      </trkpt>
      <trkpt lat="47.3607" lon="6.41948">
        <ele>274.524</ele>
        <time>2016-09-05T13:59:25.000Z</time>
      </trkpt>
      <trkpt lat="47.3607" lon="6.41948">
        <ele>274.519</ele>
        <time>2016-09-05T13:59:26.000Z</time>
      </trkpt>
      <trkpt lat="47.3607" lon="6.41948">
        <ele>274.526</ele>
        <time>2016-09-05T13:59:27.000Z</time>
      </trkpt>
      <trkpt lat="47.3607" lon="6.41948">
        <ele>274.527</ele>
        <time>2016-09-05T13:59:28.000Z</time>
      </trkpt>
      <trkpt lat="47.3607" lon="6.41948">
        <ele>274.523</ele>
        <time>2016-09-05T13:59:29.000Z</time>
      </trkpt>
      <trkpt lat="47.3607" lon="6.41948">
        <ele>274.522</ele>
        <time>2016-09-05T13:59:30.000Z</time>
      </trkpt>
      <trkpt lat="47.36071" lon="6.41948">
        <ele>274.422</ele>
        <time>2016-09-05T13:59:31.000Z</time>
      </trkpt>
      <trkpt lat="47.36071" lon="6.41948">
        <ele>274.691</ele>
        <time>2016-09-05T13:59:32.000Z</time>
      </trkpt>
      <trkpt lat="47.36071" lon="6.41949">
        <ele>273.338</ele>
        <time>2016-09-05T13:59:33.000Z</time>
      </trkpt>
      <trkpt lat="47.36071" lon="6.41949">
        <ele>273.345</ele>
        <time>2016-09-05T13:59:34.000Z</time>
      </trkpt>
      <trkpt lat="47.35458" lon="6.39173">
        <ele>274.651</ele>
        <time>2016-09-05T14:15:48.000Z</time>
      </trkpt>
      <trkpt lat="47.35458" lon="6.39173">
        <ele>274.525</ele>
        <time>2016-09-05T14:15:49.000Z</time>
      </trkpt>
      <trkpt lat="47.35458" lon="6.39173">
        <ele>274.773</ele>
        <time>2016-09-05T14:15:50.000Z</time>
      </trkpt>
      <trkpt lat="47.35458" lon="6.39173">
        <ele>274.773</ele>
        <time>2016-09-05T14:15:51.107Z</time>
      </trkpt>
      <trkpt lat="47.35458" lon="6.39173">
        <ele>274.773</ele>
        <time>2016-09-05T14:15:51.121Z</time>
      </trkpt>
      <trkpt lat="47.35458" lon="6.39173">
        <ele>275.866</ele>
        <time>2016-09-05T14:15:52.000Z</time>
      </trkpt>
      <trkpt lat="47.35458" lon="6.39173">
        <ele>275.662</ele>
        <time>2016-09-05T14:15:53.000Z</time>
      </trkpt>
      <trkpt lat="47.35458" lon="6.39173">
        <ele>275.174</ele>
        <time>2016-09-05T14:15:54.000Z</time>
      </trkpt>
      <trkpt lat="47.35458" lon="6.39173">
        <ele>277.567</ele>
        <time>2016-09-05T14:15:55.000Z</time>
      </trkpt>
      <trkpt lat="47.35459" lon="6.39173">
        <ele>280.702</ele>
        <time>2016-09-05T14:15:56.000Z</time>
      </trkpt>
      <trkpt lat="47.35457" lon="6.39173">
        <ele>278.219</ele>
        <time>2016-09-05T14:15:57.000Z</time>
      </trkpt>
      <trkpt lat="47.35457" lon="6.39173">
        <ele>276.52</ele>
        <time>2016-09-05T14:15:58.000Z</time>
      </trkpt>
      <trkpt lat="47.35457" lon="6.39173">
        <ele>277.774</ele>
        <time>2016-09-05T14:15:59.000Z</time>
      </trkpt>
      <trkpt lat="47.35457" lon="6.39173">
        <ele>278.204</ele>
        <time>2016-09-05T14:16:00.000Z</time>
      </trkpt>
      <trkpt lat="47.35457" lon="6.39173">
        <ele>280.405</ele>
        <time>2016-09-05T14:16:01.000Z</time>
      </trkpt>
      <trkpt lat="47.35457" lon="6.39173">
        <ele>281.037</ele>
        <time>2016-09-05T14:16:02.000Z</time>
      </trkpt>
      <trkpt lat="47.35457" lon="6.39173">
        <ele>281.037</ele>
        <time>2016-09-05T14:16:03.103Z</time>
      </trkpt>
      <trkpt lat="47.35454" lon="6.39175">
        <ele>281.769</ele>
        <time>2016-09-05T14:16:04.000Z</time>
      </trkpt>
      <trkpt lat="47.35454" lon="6.39175">
        <ele>281.366</ele>
        <time>2016-09-05T14:16:05.000Z</time>
      </trkpt>
      <trkpt lat="47.35454" lon="6.39174">
        <ele>281.597</ele>
        <time>2016-09-05T14:16:06.000Z</time>
      </trkpt>
      <trkpt lat="47.35454" lon="6.39173">
        <ele>281.438</ele>
        <time>2016-09-05T14:16:07.000Z</time>
      </trkpt>
      <trkpt lat="47.35454" lon="6.39173">
        <ele>281.438</ele>
        <time>2016-09-05T14:16:08.236Z</time>
      </trkpt>
      <trkpt lat="47.35454" lon="6.39173">
        <ele>281.438</ele>
        <time>2016-09-05T14:16:08.451Z</time>
      </trkpt>
      <trkpt lat="47.35454" lon="6.39173">
        <ele>279.058</ele>
        <time>2016-09-05T14:16:09.000Z</time>
      </trkpt>
      <trkpt lat="47.35454" lon="6.39173">
        <ele>279.058</ele>
        <time>2016-09-05T14:16:09.200Z</time>
      </trkpt>
      <trkpt lat="47.35454" lon="6.39173">
        <ele>277.628</ele>
        <time>2016-09-05T14:16:10.000Z</time>
      </trkpt>
      <trkpt lat="47.35454" lon="6.39173">
        <ele>276.686</ele>
        <time>2016-09-05T14:16:11.000Z</time>
      </trkpt>
      <trkpt lat="47.35454" lon="6.39173">
        <ele>276.259</ele>
        <time>2016-09-05T14:16:12.000Z</time>
      </trkpt>
      <trkpt lat="47.35454" lon="6.39173">
        <ele>274.253</ele>
        <time>2016-09-05T14:16:13.000Z</time>
      </trkpt>
      <trkpt lat="47.35454" lon="6.39173">
        <ele>274.111</ele>
        <time>2016-09-05T14:16:14.000Z</time>
      </trkpt>
      <trkpt lat="47.35452" lon="6.39179">
        <ele>274.66</ele>
        <time>2016-09-05T14:16:15.000Z</time>
      </trkpt>
      <trkpt lat="47.35452" lon="6.3918">
        <ele>274.815</ele>
        <time>2016-09-05T14:16:16.000Z</time>
      </trkpt>
      <trkpt lat="47.35452" lon="6.3918">
        <ele>273.165</ele>
        <time>2016-09-05T14:16:17.000Z</time>
      </trkpt>
      <trkpt lat="47.35452" lon="6.3918">
        <ele>271.599</ele>
        <time>2016-09-05T14:16:18.000Z</time>
      </trkpt>
      <trkpt lat="47.35452" lon="6.3918">
        <ele>271.091</ele>
        <time>2016-09-05T14:16:19.000Z</time>
      </trkpt>
      <trkpt lat="47.35452" lon="6.3918">
        <ele>269.803</ele>
        <time>2016-09-05T14:16:20.000Z</time>
      </trkpt>
      <trkpt lat="47.35452" lon="6.3918">
        <ele>269.772</ele>
        <time>2016-09-05T14:16:21.000Z</time>
      </trkpt>
      <trkpt lat="47.35452" lon="6.3918">
        <ele>269.953</ele>
        <time>2016-09-05T14:16:22.000Z</time>
      </trkpt>
      <trkpt lat="47.35452" lon="6.3918">
        <ele>271.083</ele>
        <time>2016-09-05T14:16:23.000Z</time>
      </trkpt>
      <trkpt lat="47.35452" lon="6.3918">
        <ele>271.099</ele>
        <time>2016-09-05T14:16:24.000Z</time>
      </trkpt>
      <trkpt lat="47.35452" lon="6.3918">
        <ele>271.438</ele>
        <time>2016-09-05T14:16:25.000Z</time>
      </trkpt>
      <trkpt lat="47.35452" lon="6.3918">
        <ele>271.438</ele>
        <time>2016-09-05T14:16:26.000Z</time>
      </trkpt>
      <trkpt lat="47.35452" lon="6.3918">
        <ele>271.787</ele>
        <time>2016-09-05T14:16:27.000Z</time>
      </trkpt>
      <trkpt lat="47.35452" lon="6.3918">
        <ele>271.735</ele>
        <time>2016-09-05T14:16:28.000Z</time>
      </trkpt>
      <trkpt lat="47.35452" lon="6.3918">
        <ele>271.989</ele>
        <time>2016-09-05T14:16:29.000Z</time>
      </trkpt>
      <trkpt lat="47.35452" lon="6.3918">
        <ele>271.82</ele>
        <time>2016-09-05T14:16:30.000Z</time>
      </trkpt>
      <trkpt lat="47.35452" lon="6.3918">
        <ele>271.493</ele>
        <time>2016-09-05T14:16:31.000Z</time>
      </trkpt>
      <trkpt lat="47.35452" lon="6.3918">
        <ele>271.552</ele>
        <time>2016-09-05T14:16:32.000Z</time>
      </trkpt>
      <trkpt lat="47.35452" lon="6.3918">
        <ele>271.266</ele>
        <time>2016-09-05T14:16:33.000Z</time>
      </trkpt>
      <trkpt lat="47.35452" lon="6.3918">
        <ele>271.264</ele>
        <time>2016-09-05T14:16:34.000Z</time>
      </trkpt>
      <trkpt lat="47.35452" lon="6.3918">
        <ele>271.284</ele>
        <time>2016-09-05T14:16:35.000Z</time>
      </trkpt>
      <trkpt lat="47.35452" lon="6.3918">
        <ele>271.277</ele>
        <time>2016-09-05T14:16:36.000Z</time>
      </trkpt>
      <trkpt lat="47.35452" lon="6.3918">
        <ele>271.269</ele>
        <time>2016-09-05T14:16:37.000Z</time>
      </trkpt>
      <trkpt lat="47.35452" lon="6.3918">
        <ele>271.262</ele>
        <time>2016-09-05T14:16:38.000Z</time>
      </trkpt>
      <trkpt lat="47.35452" lon="6.3918">
        <ele>271.266</ele>
        <time>2016-09-05T14:16:39.000Z</time>
      </trkpt>
      <trkpt lat="47.35452" lon="6.3918">
        <ele>271.264</ele>
        <time>2016-09-05T14:16:40.000Z</time>
      </trkpt>
      <trkpt lat="47.35452" lon="6.3918">
        <ele>271.267</ele>
        <time>2016-09-05T14:16:41.000Z</time>
      </trkpt>
      <trkpt lat="47.35452" lon="6.3918">
        <ele>271.273</ele>
        <time>2016-09-05T14:16:42.000Z</time>
      </trkpt>
      <trkpt lat="47.35452" lon="6.3918">
        <ele>271.275</ele>
        <time>2016-09-05T14:16:43.000Z</time>
      </trkpt>
      <trkpt lat="47.35452" lon="6.3918">
        <ele>271.272</ele>
        <time>2016-09-05T14:16:44.000Z</time>
      </trkpt>
      <trkpt lat="47.35452" lon="6.3918">
        <ele>271.276</ele>
        <time>2016-09-05T14:16:45.000Z</time>
      </trkpt>
      <trkpt lat="47.35452" lon="6.3918">
        <ele>271.281</ele>
        <time>2016-09-05T14:16:46.000Z</time>
      </trkpt>
      <trkpt lat="47.35452" lon="6.3918">
        <ele>271.282</ele>
        <time>2016-09-05T14:16:47.000Z</time>
      </trkpt>
      <trkpt lat="47.35452" lon="6.3918">
        <ele>271.287</ele>
        <time>2016-09-05T14:16:48.000Z</time>
      </trkpt>
      <trkpt lat="47.35452" lon="6.3918">
        <ele>271.297</ele>
        <time>2016-09-05T14:16:49.000Z</time>
      </trkpt>
      <trkpt lat="47.35452" lon="6.3918">
        <ele>271.312</ele>
        <time>2016-09-05T14:16:50.000Z</time>
      </trkpt>
      <trkpt lat="47.35452" lon="6.3918">
        <ele>271.321</ele>
        <time>2016-09-05T14:16:51.000Z</time>
      </trkpt>
      <trkpt lat="47.35452" lon="6.3918">
        <ele>271.336</ele>
        <time>2016-09-05T14:16:52.000Z</time>
      </trkpt>
      <trkpt lat="47.35452" lon="6.3918">
        <ele>271.335</ele>
        <time>2016-09-05T14:16:53.000Z</time>
      </trkpt>
      <trkpt lat="47.35452" lon="6.3918">
        <ele>271.338</ele>
        <time>2016-09-05T14:16:54.000Z</time>
      </trkpt>
      <trkpt lat="47.35452" lon="6.3918">
        <ele>271.346</ele>
        <time>2016-09-05T14:16:55.000Z</time>
      </trkpt>
      <trkpt lat="47.35452" lon="6.3918">
        <ele>271.344</ele>
        <time>2016-09-05T14:16:56.000Z</time>
      </trkpt>
      <trkpt lat="47.35452" lon="6.3918">
        <ele>271.343</ele>
        <time>2016-09-05T14:16:57.000Z</time>
      </trkpt>
      <trkpt lat="47.35452" lon="6.3918">
        <ele>271.332</ele>
        <time>2016-09-05T14:16:58.000Z</time>
      </trkpt>
      <trkpt lat="47.35452" lon="6.3918">
        <ele>271.324</ele>
        <time>2016-09-05T14:16:59.000Z</time>
      </trkpt>
      <trkpt lat="47.35452" lon="6.3918">
        <ele>271.33</ele>
        <time>2016-09-05T14:17:00.000Z</time>
      </trkpt>
      <trkpt lat="47.35452" lon="6.3918">
        <ele>271.329</ele>
        <time>2016-09-05T14:17:01.000Z</time>
      </trkpt>
      <trkpt lat="47.35452" lon="6.3918">
        <ele>271.326</ele>
        <time>2016-09-05T14:17:02.000Z</time>
      </trkpt>
      <trkpt lat="47.35452" lon="6.3918">
        <ele>271.323</ele>
        <time>2016-09-05T14:17:03.000Z</time>
      </trkpt>
      <trkpt lat="47.35452" lon="6.3918">
        <ele>271.322</ele>
        <time>2016-09-05T14:17:04.000Z</time>
      </trkpt>
      <trkpt lat="47.35452" lon="6.3918">
        <ele>271.323</ele>
        <time>2016-09-05T14:17:05.000Z</time>
      </trkpt>
      <trkpt lat="47.35452" lon="6.3918">
        <ele>271.318</ele>
        <time>2016-09-05T14:17:06.000Z</time>
      </trkpt>
      <trkpt lat="47.35452" lon="6.3918">
        <ele>271.313</ele>
        <time>2016-09-05T14:17:07.000Z</time>
      </trkpt>
      <trkpt lat="47.35452" lon="6.3918">
        <ele>271.315</ele>
        <time>2016-09-05T14:17:08.000Z</time>
      </trkpt>
      <trkpt lat="47.35452" lon="6.3918">
        <ele>271.347</ele>
        <time>2016-09-05T14:17:09.000Z</time>
      </trkpt>
      <trkpt lat="47.35452" lon="6.3918">
        <ele>271.376</ele>
        <time>2016-09-05T14:17:10.000Z</time>
      </trkpt>
      <trkpt lat="47.35452" lon="6.3918">
        <ele>271.445</ele>
        <time>2016-09-05T14:17:11.000Z</time>
      </trkpt>
      <trkpt lat="47.35452" lon="6.3918">
        <ele>271.535</ele>
        <time>2016-09-05T14:17:12.000Z</time>
      </trkpt>
      <trkpt lat="47.35452" lon="6.3918">
        <ele>271.529</ele>
        <time>2016-09-05T14:17:13.000Z</time>
      </trkpt>
      <trkpt lat="47.35452" lon="6.3918">
        <ele>271.524</ele>
        <time>2016-09-05T14:17:14.250Z</time>
      </trkpt>
      <trkpt lat="47.35453" lon="6.39183">
        <ele>271.428</ele>
        <time>2016-09-05T14:17:15.250Z</time>
      </trkpt>
      <trkpt lat="47.35453" lon="6.39183">
        <ele>271.428</ele>
        <time>2016-09-05T14:17:16.250Z</time>
      </trkpt>
      <trkpt lat="47.35453" lon="6.39183">
        <ele>271.429</ele>
        <time>2016-09-05T14:17:17.250Z</time>
      </trkpt>
      <trkpt lat="47.35453" lon="6.39183">
        <ele>271.429</ele>
        <time>2016-09-05T14:17:18.250Z</time>
      </trkpt>
      <trkpt lat="47.35453" lon="6.39183">
        <ele>271.429</ele>
        <time>2016-09-05T14:17:19.250Z</time>
      </trkpt>
      <trkpt lat="47.35453" lon="6.39183">
        <ele>271.43</ele>
        <time>2016-09-05T14:17:20.250Z</time>
      </trkpt>
      <trkpt lat="47.35453" lon="6.39183">
        <ele>271.43</ele>
        <time>2016-09-05T14:17:21.250Z</time>
      </trkpt>
      <trkpt lat="47.35453" lon="6.39183">
        <ele>271.43</ele>
        <time>2016-09-05T14:17:22.250Z</time>
      </trkpt>
      <trkpt lat="47.35453" lon="6.39183">
        <ele>271.43</ele>
        <time>2016-09-05T14:17:23.250Z</time>
      </trkpt>
      <trkpt lat="47.35453" lon="6.39183">
        <ele>271.43</ele>
        <time>2016-09-05T14:17:24.250Z</time>
      </trkpt>
      <trkpt lat="47.35453" lon="6.39183">
        <ele>271.43</ele>
        <time>2016-09-05T14:17:25.250Z</time>
      </trkpt>
      <trkpt lat="47.35453" lon="6.39183">
        <ele>271.43</ele>
        <time>2016-09-05T14:17:26.250Z</time>
      </trkpt>
      <trkpt lat="47.35453" lon="6.39183">
        <ele>271.429</ele>
        <time>2016-09-05T14:17:27.250Z</time>
      </trkpt>
      <trkpt lat="47.35453" lon="6.39183">
        <ele>271.429</ele>
        <time>2016-09-05T14:17:28.250Z</time>
      </trkpt>
      <trkpt lat="47.35453" lon="6.39183">
        <ele>271.428</ele>
        <time>2016-09-05T14:17:29.250Z</time>
      </trkpt>
      <trkpt lat="47.35453" lon="6.39183">
        <ele>271.427</ele>
        <time>2016-09-05T14:17:30.250Z</time>
      </trkpt>
      <trkpt lat="47.35453" lon="6.39183">
        <ele>271.426</ele>
        <time>2016-09-05T14:17:31.250Z</time>
      </trkpt>
      <trkpt lat="47.35453" lon="6.39183">
        <ele>271.425</ele>
        <time>2016-09-05T14:17:32.250Z</time>
      </trkpt>
      <trkpt lat="47.35453" lon="6.39183">
        <ele>271.424</ele>
        <time>2016-09-05T14:17:33.250Z</time>
      </trkpt>
      <trkpt lat="47.35453" lon="6.39183">
        <ele>271.423</ele>
        <time>2016-09-05T14:17:34.250Z</time>
      </trkpt>
      <trkpt lat="47.35453" lon="6.39183">
        <ele>271.422</ele>
        <time>2016-09-05T14:17:35.250Z</time>
      </trkpt>
      <trkpt lat="47.35453" lon="6.39183">
        <ele>271.421</ele>
        <time>2016-09-05T14:17:36.250Z</time>
      </trkpt>
      <trkpt lat="47.35453" lon="6.39183">
        <ele>271.42</ele>
        <time>2016-09-05T14:17:37.250Z</time>
      </trkpt>
      <trkpt lat="47.35453" lon="6.39183">
        <ele>271.419</ele>
        <time>2016-09-05T14:17:38.250Z</time>
      </trkpt>
      <trkpt lat="47.35453" lon="6.39183">
        <ele>271.418</ele>
        <time>2016-09-05T14:17:39.250Z</time>
      </trkpt>
      <trkpt lat="47.35453" lon="6.39183">
        <ele>271.416</ele>
        <time>2016-09-05T14:17:40.250Z</time>
      </trkpt>
      <trkpt lat="47.35453" lon="6.39183">
        <ele>271.415</ele>
        <time>2016-09-05T14:17:41.250Z</time>
      </trkpt>
      <trkpt lat="47.35453" lon="6.39183">
        <ele>271.413</ele>
        <time>2016-09-05T14:17:42.250Z</time>
      </trkpt>
      <trkpt lat="47.35453" lon="6.39183">
        <ele>271.412</ele>
        <time>2016-09-05T14:17:43.250Z</time>
      </trkpt>
      <trkpt lat="47.35453" lon="6.39183">
        <ele>271.41</ele>
        <time>2016-09-05T14:17:44.250Z</time>
      </trkpt>
      <trkpt lat="47.35453" lon="6.39183">
        <ele>271.408</ele>
        <time>2016-09-05T14:17:45.250Z</time>
      </trkpt>
      <trkpt lat="47.35453" lon="6.39183">
        <ele>271.406</ele>
        <time>2016-09-05T14:17:46.250Z</time>
      </trkpt>
      <trkpt lat="47.35453" lon="6.39183">
        <ele>271.404</ele>
        <time>2016-09-05T14:17:47.250Z</time>
      </trkpt>
      <trkpt lat="47.35453" lon="6.39183">
        <ele>271.402</ele>
        <time>2016-09-05T14:17:48.250Z</time>
      </trkpt>
      <trkpt lat="47.35453" lon="6.39183">
        <ele>271.4</ele>
        <time>2016-09-05T14:17:49.250Z</time>
      </trkpt>
      <trkpt lat="47.35453" lon="6.39183">
        <ele>271.398</ele>
        <time>2016-09-05T14:17:50.250Z</time>
      </trkpt>
      <trkpt lat="47.35453" lon="6.39183">
        <ele>271.396</ele>
        <time>2016-09-05T14:17:51.250Z</time>
      </trkpt>
      <trkpt lat="47.35453" lon="6.39183">
        <ele>271.394</ele>
        <time>2016-09-05T14:17:52.250Z</time>
      </trkpt>
      <trkpt lat="47.35453" lon="6.39183">
        <ele>271.392</ele>
        <time>2016-09-05T14:17:53.250Z</time>
      </trkpt>
      <trkpt lat="47.35453" lon="6.39183">
        <ele>271.39</ele>
        <time>2016-09-05T14:17:54.250Z</time>
      </trkpt>
      <trkpt lat="47.35453" lon="6.39183">
        <ele>271.495</ele>
        <time>2016-09-05T14:17:55.162Z</time>
      </trkpt>
      <trkpt lat="47.35453" lon="6.39183">
        <ele>271.495</ele>
        <time>2016-09-05T14:17:55.983Z</time>
      </trkpt>
      <trkpt lat="47.35453" lon="6.39183">
        <ele>271.467</ele>
        <time>2016-09-05T14:17:56.184Z</time>
      </trkpt>
      <trkpt lat="47.35453" lon="6.39183">
        <ele>271.467</ele>
        <time>2016-09-05T14:17:57.157Z</time>
      </trkpt>
      <trkpt lat="47.35453" lon="6.39183">
        <ele>271.447</ele>
        <time>2016-09-05T14:17:58.174Z</time>
      </trkpt>
      <trkpt lat="47.35453" lon="6.39183">
        <ele>271.447</ele>
        <time>2016-09-05T14:17:59.199Z</time>
      </trkpt>
      <trkpt lat="47.35453" lon="6.39183">
        <ele>271.457</ele>
        <time>2016-09-05T14:18:00.325Z</time>
      </trkpt>
      <trkpt lat="47.35453" lon="6.39183">
        <ele>271.465</ele>
        <time>2016-09-05T14:18:01.333Z</time>
      </trkpt>
      <trkpt lat="47.35453" lon="6.39183">
        <ele>271.467</ele>
        <time>2016-09-05T14:18:02.158Z</time>
      </trkpt>
      <trkpt lat="47.35453" lon="6.39183">
        <ele>271.47</ele>
        <time>2016-09-05T14:18:03.172Z</time>
      </trkpt>
      <trkpt lat="47.35453" lon="6.39183">
        <ele>271.479</ele>
        <time>2016-09-05T14:18:04.160Z</time>
      </trkpt>
      <trkpt lat="47.35453" lon="6.39183">
        <ele>271.479</ele>
        <time>2016-09-05T14:18:05.127Z</time>
      </trkpt>
      <trkpt lat="47.35453" lon="6.39182">
        <ele>271.642</ele>
        <time>2016-09-05T14:18:06.186Z</time>
      </trkpt>
      <trkpt lat="47.35453" lon="6.39182">
        <ele>271.518</ele>
        <time>2016-09-05T14:18:07.169Z</time>
      </trkpt>
      <trkpt lat="47.35453" lon="6.39182">
        <ele>272.435</ele>
        <time>2016-09-05T14:18:08.167Z</time>
      </trkpt>
      <trkpt lat="47.35453" lon="6.39182">
        <ele>272.369</ele>
        <time>2016-09-05T14:18:09.249Z</time>
      </trkpt>
      <trkpt lat="47.35453" lon="6.39182">
        <ele>272.369</ele>
        <time>2016-09-05T14:18:10.182Z</time>
      </trkpt>
      <trkpt lat="47.35453" lon="6.39182">
        <ele>272.367</ele>
        <time>2016-09-05T14:18:11.165Z</time>
      </trkpt>
      <trkpt lat="47.35453" lon="6.39182">
        <ele>272.365</ele>
        <time>2016-09-05T14:18:12.198Z</time>
      </trkpt>
      <trkpt lat="47.35453" lon="6.39182">
        <ele>272.36</ele>
        <time>2016-09-05T14:18:13.165Z</time>
      </trkpt>
      <trkpt lat="47.35453" lon="6.39182">
        <ele>272.355</ele>
        <time>2016-09-05T14:18:14.159Z</time>
      </trkpt>
      <trkpt lat="47.35453" lon="6.39182">
        <ele>272.351</ele>
        <time>2016-09-05T14:18:15.161Z</time>
      </trkpt>
      <trkpt lat="47.35453" lon="6.39181">
        <ele>272.237</ele>
        <time>2016-09-05T14:18:16.161Z</time>
      </trkpt>
      <trkpt lat="47.35453" lon="6.39181">
        <ele>272.237</ele>
        <time>2016-09-05T14:18:17.161Z</time>
      </trkpt>
      <trkpt lat="47.35453" lon="6.39181">
        <ele>272.237</ele>
        <time>2016-09-05T14:18:18.161Z</time>
      </trkpt>
      <trkpt lat="47.35453" lon="6.39181">
        <ele>272.238</ele>
        <time>2016-09-05T14:18:19.161Z</time>
      </trkpt>
      <trkpt lat="47.35453" lon="6.39181">
        <ele>272.238</ele>
        <time>2016-09-05T14:18:20.161Z</time>
      </trkpt>
      <trkpt lat="47.35453" lon="6.39181">
        <ele>272.238</ele>
        <time>2016-09-05T14:18:21.161Z</time>
      </trkpt>
      <trkpt lat="47.35453" lon="6.39181">
        <ele>272.238</ele>
        <time>2016-09-05T14:18:22.161Z</time>
      </trkpt>
      <trkpt lat="47.35453" lon="6.39181">
        <ele>272.238</ele>
        <time>2016-09-05T14:18:23.161Z</time>
      </trkpt>
      <trkpt lat="47.35453" lon="6.39181">
        <ele>272.238</ele>
        <time>2016-09-05T14:18:24.161Z</time>
      </trkpt>
      <trkpt lat="47.35453" lon="6.39181">
        <ele>272.238</ele>
        <time>2016-09-05T14:18:25.161Z</time>
      </trkpt>
      <trkpt lat="47.35453" lon="6.39181">
        <ele>272.238</ele>
        <time>2016-09-05T14:18:26.161Z</time>
      </trkpt>
      <trkpt lat="47.35453" lon="6.39181">
        <ele>272.238</ele>
        <time>2016-09-05T14:18:27.161Z</time>
      </trkpt>
      <trkpt lat="47.35453" lon="6.39181">
        <ele>272.239</ele>
        <time>2016-09-05T14:18:28.161Z</time>
      </trkpt>
      <trkpt lat="47.35453" lon="6.39181">
        <ele>272.239</ele>
        <time>2016-09-05T14:18:29.161Z</time>
      </trkpt>
      <trkpt lat="47.35453" lon="6.3918">
        <ele>272.239</ele>
        <time>2016-09-05T14:18:30.161Z</time>
      </trkpt>
      <trkpt lat="47.35453" lon="6.3918">
        <ele>272.239</ele>
        <time>2016-09-05T14:18:31.161Z</time>
      </trkpt>
      <trkpt lat="47.35453" lon="6.3918">
        <ele>272.24</ele>
        <time>2016-09-05T14:18:32.161Z</time>
      </trkpt>
      <trkpt lat="47.35453" lon="6.3918">
        <ele>272.24</ele>
        <time>2016-09-05T14:18:33.161Z</time>
      </trkpt>
      <trkpt lat="47.35453" lon="6.3918">
        <ele>272.24</ele>
        <time>2016-09-05T14:18:34.161Z</time>
      </trkpt>
      <trkpt lat="47.35453" lon="6.3918">
        <ele>272.24</ele>
        <time>2016-09-05T14:18:35.161Z</time>
      </trkpt>
      <trkpt lat="47.35453" lon="6.3918">
        <ele>272.24</ele>
        <time>2016-09-05T14:18:36.161Z</time>
      </trkpt>
      <trkpt lat="47.35453" lon="6.3918">
        <ele>272.241</ele>
        <time>2016-09-05T14:18:37.161Z</time>
      </trkpt>
      <trkpt lat="47.35453" lon="6.3918">
        <ele>272.241</ele>
        <time>2016-09-05T14:18:38.161Z</time>
      </trkpt>
      <trkpt lat="47.35453" lon="6.3918">
        <ele>272.241</ele>
        <time>2016-09-05T14:18:39.161Z</time>
      </trkpt>
      <trkpt lat="47.35453" lon="6.3918">
        <ele>272.333</ele>
        <time>2016-09-05T14:18:41.235Z</time>
      </trkpt>
      <trkpt lat="47.35453" lon="6.3918">
        <ele>272.324</ele>
        <time>2016-09-05T14:18:42.176Z</time>
      </trkpt>
      <trkpt lat="47.35453" lon="6.3918">
        <ele>272.319</ele>
        <time>2016-09-05T14:18:43.177Z</time>
      </trkpt>
      <trkpt lat="47.35453" lon="6.3918">
        <ele>272.323</ele>
        <time>2016-09-05T14:18:44.170Z</time>
      </trkpt>
      <trkpt lat="47.35453" lon="6.3918">
        <ele>272.319</ele>
        <time>2016-09-05T14:18:45.205Z</time>
      </trkpt>
      <trkpt lat="47.35453" lon="6.3918">
        <ele>272.313</ele>
        <time>2016-09-05T14:18:46.198Z</time>
      </trkpt>
      <trkpt lat="47.35453" lon="6.3918">
        <ele>272.31</ele>
        <time>2016-09-05T14:18:47.321Z</time>
      </trkpt>
      <trkpt lat="47.35453" lon="6.3918">
        <ele>272.305</ele>
        <time>2016-09-05T14:18:48.478Z</time>
      </trkpt>
      <trkpt lat="47.35453" lon="6.3918">
        <ele>272.305</ele>
        <time>2016-09-05T14:18:49.286Z</time>
      </trkpt>
      <trkpt lat="47.35453" lon="6.3918">
        <ele>272.291</ele>
        <time>2016-09-05T14:18:50.173Z</time>
      </trkpt>
      <trkpt lat="47.35453" lon="6.3918">
        <ele>272.288</ele>
        <time>2016-09-05T14:18:51.185Z</time>
      </trkpt>
      <trkpt lat="47.35453" lon="6.3918">
        <ele>272.291</ele>
        <time>2016-09-05T14:18:52.194Z</time>
      </trkpt>
      <trkpt lat="47.35453" lon="6.3918">
        <ele>272.291</ele>
        <time>2016-09-05T14:18:52.512Z</time>
      </trkpt>
      <trkpt lat="47.35453" lon="6.3918">
        <ele>272.291</ele>
        <time>2016-09-05T14:18:52.540Z</time>
      </trkpt>
      <trkpt lat="47.35453" lon="6.3918">
        <ele>272.292</ele>
        <time>2016-09-05T14:18:53.159Z</time>
      </trkpt>
      <trkpt lat="47.35453" lon="6.3918">
        <ele>272.292</ele>
        <time>2016-09-05T14:18:54.157Z</time>
      </trkpt>
      <trkpt lat="47.35453" lon="6.3918">
        <ele>272.292</ele>
        <time>2016-09-05T14:18:55.204Z</time>
      </trkpt>
      <trkpt lat="47.35453" lon="6.3918">
        <ele>272.291</ele>
        <time>2016-09-05T14:18:56.219Z</time>
      </trkpt>
      <trkpt lat="47.35453" lon="6.3918">
        <ele>272.238</ele>
        <time>2016-09-05T14:18:57.229Z</time>
      </trkpt>
      <trkpt lat="47.35453" lon="6.3918">
        <ele>272.201</ele>
        <time>2016-09-05T14:18:58.227Z</time>
      </trkpt>
      <trkpt lat="47.35453" lon="6.3918">
        <ele>272.193</ele>
        <time>2016-09-05T14:18:59.157Z</time>
      </trkpt>
      <trkpt lat="47.35453" lon="6.39181">
        <ele>271.18</ele>
        <time>2016-09-05T14:19:00.164Z</time>
      </trkpt>
      <trkpt lat="47.35453" lon="6.39181">
        <ele>270.631</ele>
        <time>2016-09-05T14:19:01.168Z</time>
      </trkpt>
      <trkpt lat="47.35453" lon="6.39181">
        <ele>270.657</ele>
        <time>2016-09-05T14:19:02.134Z</time>
      </trkpt>
      <trkpt lat="47.35453" lon="6.39181">
        <ele>272.442</ele>
        <time>2016-09-05T14:19:03.168Z</time>
      </trkpt>
      <trkpt lat="47.35453" lon="6.39181">
        <ele>273.615</ele>
        <time>2016-09-05T14:19:04.338Z</time>
      </trkpt>
      <trkpt lat="47.35453" lon="6.39181">
        <ele>272.741</ele>
        <time>2016-09-05T14:19:05.306Z</time>
      </trkpt>
      <trkpt lat="47.35453" lon="6.39181">
        <ele>272.96</ele>
        <time>2016-09-05T14:19:06.136Z</time>
      </trkpt>
      <trkpt lat="47.35453" lon="6.39181">
        <ele>272.918</ele>
        <time>2016-09-05T14:19:07.168Z</time>
      </trkpt>
      <trkpt lat="47.35453" lon="6.39181">
        <ele>272.918</ele>
        <time>2016-09-05T14:19:07.343Z</time>
      </trkpt>
      <trkpt lat="47.35453" lon="6.39181">
        <ele>272.92</ele>
        <time>2016-09-05T14:19:08.241Z</time>
      </trkpt>
      <trkpt lat="47.35453" lon="6.39181">
        <ele>272.92</ele>
        <time>2016-09-05T14:19:09.168Z</time>
      </trkpt>
      <trkpt lat="47.35453" lon="6.39181">
        <ele>272.392</ele>
        <time>2016-09-05T14:19:10.164Z</time>
      </trkpt>
      <trkpt lat="47.35453" lon="6.39181">
        <ele>271.982</ele>
        <time>2016-09-05T14:19:11.244Z</time>
      </trkpt>
      <trkpt lat="47.35453" lon="6.39181">
        <ele>271.715</ele>
        <time>2016-09-05T14:19:12.234Z</time>
      </trkpt>
      <trkpt lat="47.35453" lon="6.39181">
        <ele>271.712</ele>
        <time>2016-09-05T14:19:13.250Z</time>
      </trkpt>
      <trkpt lat="47.35453" lon="6.39181">
        <ele>271.167</ele>
        <time>2016-09-05T14:19:14.264Z</time>
      </trkpt>
      <trkpt lat="47.35453" lon="6.39181">
        <ele>270.898</ele>
        <time>2016-09-05T14:19:15.156Z</time>
      </trkpt>
      <trkpt lat="47.35452" lon="6.39182">
        <ele>271.148</ele>
        <time>2016-09-05T14:19:16.175Z</time>
      </trkpt>
      <trkpt lat="47.35451" lon="6.39182">
        <ele>271.186</ele>
        <time>2016-09-05T14:19:17.120Z</time>
      </trkpt>
      <trkpt lat="47.35451" lon="6.39182">
        <ele>271.146</ele>
        <time>2016-09-05T14:19:18.159Z</time>
      </trkpt>
      <trkpt lat="47.35451" lon="6.39182">
        <ele>270.464</ele>
        <time>2016-09-05T14:19:19.209Z</time>
      </trkpt>
      <trkpt lat="47.35451" lon="6.39182">
        <ele>270.36</ele>
        <time>2016-09-05T14:19:20.187Z</time>
      </trkpt>
      <trkpt lat="47.35451" lon="6.39182">
        <ele>270.579</ele>
        <time>2016-09-05T14:19:21.192Z</time>
      </trkpt>
      <trkpt lat="47.35452" lon="6.39184">
        <ele>271.064</ele>
        <time>2016-09-05T14:19:22.211Z</time>
      </trkpt>
      <trkpt lat="47.35452" lon="6.39184">
        <ele>270.953</ele>
        <time>2016-09-05T14:19:23.197Z</time>
      </trkpt>
      <trkpt lat="47.35453" lon="6.39185">
        <ele>271.452</ele>
        <time>2016-09-05T14:19:24.166Z</time>
      </trkpt>
      <trkpt lat="47.35453" lon="6.39185">
        <ele>272.032</ele>
        <time>2016-09-05T14:19:25.157Z</time>
      </trkpt>
      <trkpt lat="47.35454" lon="6.39185">
        <ele>271.927</ele>
        <time>2016-09-05T14:19:26.141Z</time>
      </trkpt>
      <trkpt lat="47.35454" lon="6.39184">
        <ele>271.629</ele>
        <time>2016-09-05T14:19:27.153Z</time>
      </trkpt>
      <trkpt lat="47.35454" lon="6.39184">
        <ele>271.845</ele>
        <time>2016-09-05T14:19:28.181Z</time>
      </trkpt>
      <trkpt lat="47.35454" lon="6.39184">
        <ele>270.686</ele>
        <time>2016-09-05T14:19:29.182Z</time>
      </trkpt>
      <trkpt lat="47.35454" lon="6.39184">
        <ele>269.298</ele>
        <time>2016-09-05T14:19:30.197Z</time>
      </trkpt>
      <trkpt lat="47.35454" lon="6.39184">
        <ele>269.521</ele>
        <time>2016-09-05T14:19:31.181Z</time>
      </trkpt>
      <trkpt lat="47.35454" lon="6.39184">
        <ele>269.526</ele>
        <time>2016-09-05T14:19:32.190Z</time>
      </trkpt>
      <trkpt lat="47.35454" lon="6.39184">
        <ele>269.086</ele>
        <time>2016-09-05T14:19:33.215Z</time>
      </trkpt>
      <trkpt lat="47.35454" lon="6.39184">
        <ele>268.443</ele>
        <time>2016-09-05T14:19:34.201Z</time>
      </trkpt>
      <trkpt lat="47.35454" lon="6.39184">
        <ele>268.736</ele>
        <time>2016-09-05T14:19:35.179Z</time>
      </trkpt>
      <trkpt lat="47.35454" lon="6.39184">
        <ele>268.256</ele>
        <time>2016-09-05T14:19:36.185Z</time>
      </trkpt>
      <trkpt lat="47.35454" lon="6.39184">
        <ele>267.314</ele>
        <time>2016-09-05T14:19:37.196Z</time>
      </trkpt>
      <trkpt lat="47.35454" lon="6.39184">
        <ele>267.165</ele>
        <time>2016-09-05T14:19:38.198Z</time>
      </trkpt>
      <trkpt lat="47.35454" lon="6.39184">
        <ele>266.159</ele>
        <time>2016-09-05T14:19:39.186Z</time>
      </trkpt>
      <trkpt lat="47.35454" lon="6.39184">
        <ele>265.891</ele>
        <time>2016-09-05T14:19:40.371Z</time>
      </trkpt>
      <trkpt lat="47.35454" lon="6.39184">
        <ele>265.902</ele>
        <time>2016-09-05T14:19:41.353Z</time>
      </trkpt>
      <trkpt lat="47.35454" lon="6.39178">
        <ele>266.157</ele>
        <time>2016-09-05T14:19:42.174Z</time>
      </trkpt>
      <trkpt lat="47.35454" lon="6.39178">
        <ele>266.336</ele>
        <time>2016-09-05T14:19:43.286Z</time>
      </trkpt>
      <trkpt lat="47.35454" lon="6.39178">
        <ele>265.426</ele>
        <time>2016-09-05T14:19:44.273Z</time>
      </trkpt>
      <trkpt lat="47.35454" lon="6.39178">
        <ele>265.532</ele>
        <time>2016-09-05T14:19:45.127Z</time>
      </trkpt>
      <trkpt lat="47.35454" lon="6.39178">
        <ele>265.5</ele>
        <time>2016-09-05T14:19:46.160Z</time>
      </trkpt>
      <trkpt lat="47.35454" lon="6.39178">
        <ele>265.497</ele>
        <time>2016-09-05T14:19:47.205Z</time>
      </trkpt>
      <trkpt lat="47.35454" lon="6.39178">
        <ele>265.501</ele>
        <time>2016-09-05T14:19:48.167Z</time>
      </trkpt>
      <trkpt lat="47.35454" lon="6.39178">
        <ele>265.501</ele>
        <time>2016-09-05T14:19:49.131Z</time>
      </trkpt>
      <trkpt lat="47.35454" lon="6.39178">
        <ele>265.481</ele>
        <time>2016-09-05T14:19:50.173Z</time>
      </trkpt>
      <trkpt lat="47.35454" lon="6.39178">
        <ele>265.415</ele>
        <time>2016-09-05T14:19:51.205Z</time>
      </trkpt>
      <trkpt lat="47.35454" lon="6.39178">
        <ele>265.411</ele>
        <time>2016-09-05T14:19:52.293Z</time>
      </trkpt>
      <trkpt lat="47.35454" lon="6.39178">
        <ele>265.409</ele>
        <time>2016-09-05T14:19:53.328Z</time>
      </trkpt>
      <trkpt lat="47.35454" lon="6.3918">
        <ele>265.25</ele>
        <time>2016-09-05T14:19:54.290Z</time>
      </trkpt>
      <trkpt lat="47.35454" lon="6.3918">
        <ele>264.737</ele>
        <time>2016-09-05T14:19:55.405Z</time>
      </trkpt>
      <trkpt lat="47.35454" lon="6.3918">
        <ele>264.779</ele>
        <time>2016-09-05T14:19:56.260Z</time>
      </trkpt>
      <trkpt lat="47.35454" lon="6.3918">
        <ele>264.797</ele>
        <time>2016-09-05T14:19:57.169Z</time>
      </trkpt>
      <trkpt lat="47.35454" lon="6.3918">
        <ele>264.797</ele>
        <time>2016-09-05T14:19:58.133Z</time>
      </trkpt>
      <trkpt lat="47.35454" lon="6.39179">
        <ele>265.454</ele>
        <time>2016-09-05T14:19:59.216Z</time>
      </trkpt>
      <trkpt lat="47.35454" lon="6.39179">
        <ele>266.122</ele>
        <time>2016-09-05T14:20:00.253Z</time>
      </trkpt>
      <trkpt lat="47.35455" lon="6.39179">
        <ele>266.184</ele>
        <time>2016-09-05T14:20:01.124Z</time>
      </trkpt>
      <trkpt lat="47.35455" lon="6.39179">
        <ele>267.773</ele>
        <time>2016-09-05T14:20:02.155Z</time>
      </trkpt>
      <trkpt lat="47.35455" lon="6.39179">
        <ele>267.634</ele>
        <time>2016-09-05T14:20:03.151Z</time>
      </trkpt>
      <trkpt lat="47.35455" lon="6.39179">
        <ele>268.063</ele>
        <time>2016-09-05T14:20:04.171Z</time>
      </trkpt>
      <trkpt lat="47.35455" lon="6.39184">
        <ele>267.442</ele>
        <time>2016-09-05T14:20:05.199Z</time>
      </trkpt>
      <trkpt lat="47.35455" lon="6.39184">
        <ele>267.479</ele>
        <time>2016-09-05T14:20:06.169Z</time>
      </trkpt>
      <trkpt lat="47.35455" lon="6.39186">
        <ele>267.561</ele>
        <time>2016-09-05T14:20:07.158Z</time>
      </trkpt>
      <trkpt lat="47.35455" lon="6.39186">
        <ele>267.465</ele>
        <time>2016-09-05T14:20:08.124Z</time>
      </trkpt>
      <trkpt lat="47.35455" lon="6.39186">
        <ele>266.804</ele>
        <time>2016-09-05T14:20:09.169Z</time>
      </trkpt>
      <trkpt lat="47.35454" lon="6.39185">
        <ele>266.925</ele>
        <time>2016-09-05T14:20:10.204Z</time>
      </trkpt>
      <trkpt lat="47.35453" lon="6.39184">
        <ele>265.819</ele>
        <time>2016-09-05T14:20:11.177Z</time>
      </trkpt>
      <trkpt lat="47.35452" lon="6.39184">
        <ele>265.684</ele>
        <time>2016-09-05T14:20:12.139Z</time>
      </trkpt>
      <trkpt lat="47.35451" lon="6.39183">
        <ele>265.435</ele>
        <time>2016-09-05T14:20:13.169Z</time>
      </trkpt>
      <trkpt lat="47.35449" lon="6.39181">
        <ele>264.412</ele>
        <time>2016-09-05T14:20:14.224Z</time>
      </trkpt>
      <trkpt lat="47.35447" lon="6.39181">
        <ele>261.722</ele>
        <time>2016-09-05T14:20:15.288Z</time>
      </trkpt>
      <trkpt lat="47.35445" lon="6.3918">
        <ele>260.935</ele>
        <time>2016-09-05T14:20:16.291Z</time>
      </trkpt>
      <trkpt lat="47.35443" lon="6.39179">
        <ele>260.839</ele>
        <time>2016-09-05T14:20:17.223Z</time>
      </trkpt>
      <trkpt lat="47.35441" lon="6.39178">
        <ele>260.53</ele>
        <time>2016-09-05T14:20:18.227Z</time>
      </trkpt>
      <trkpt lat="47.35439" lon="6.39177">
        <ele>260.752</ele>
        <time>2016-09-05T14:20:19.173Z</time>
      </trkpt>
      <trkpt lat="47.35436" lon="6.39175">
        <ele>261.066</ele>
        <time>2016-09-05T14:20:20.188Z</time>
      </trkpt>
      <trkpt lat="47.35434" lon="6.39173">
        <ele>260.806</ele>
        <time>2016-09-05T14:20:21.172Z</time>
      </trkpt>
      <trkpt lat="47.35432" lon="6.3917">
        <ele>260.351</ele>
        <time>2016-09-05T14:20:22.170Z</time>
      </trkpt>
      <trkpt lat="47.35429" lon="6.39167">
        <ele>260.044</ele>
        <time>2016-09-05T14:20:23.180Z</time>
      </trkpt>
      <trkpt lat="47.35427" lon="6.39163">
        <ele>259.956</ele>
        <time>2016-09-05T14:20:24.307Z</time>
      </trkpt>
      <trkpt lat="47.35424" lon="6.39159">
        <ele>258.972</ele>
        <time>2016-09-05T14:20:25.312Z</time>
      </trkpt>
      <trkpt lat="47.35422" lon="6.39156">
        <ele>259.13</ele>
        <time>2016-09-05T14:20:26.246Z</time>
      </trkpt>
      <trkpt lat="47.35419" lon="6.39152">
        <ele>259.641</ele>
        <time>2016-09-05T14:20:27.241Z</time>
      </trkpt>
      <trkpt lat="47.35417" lon="6.39149">
        <ele>260.702</ele>
        <time>2016-09-05T14:20:28.179Z</time>
      </trkpt>
      <trkpt lat="47.35415" lon="6.39145">
        <ele>261.007</ele>
        <time>2016-09-05T14:20:29.170Z</time>
      </trkpt>
      <trkpt lat="47.35412" lon="6.39141">
        <ele>261.071</ele>
        <time>2016-09-05T14:20:30.142Z</time>
      </trkpt>
      <trkpt lat="47.35411" lon="6.39139">
        <ele>262.245</ele>
        <time>2016-09-05T14:20:31.143Z</time>
      </trkpt>
      <trkpt lat="47.35409" lon="6.39136">
        <ele>262.078</ele>
        <time>2016-09-05T14:20:32.187Z</time>
      </trkpt>
      <trkpt lat="47.35407" lon="6.39133">
        <ele>263.447</ele>
        <time>2016-09-05T14:20:33.227Z</time>
      </trkpt>
      <trkpt lat="47.35405" lon="6.39128">
        <ele>265.536</ele>
        <time>2016-09-05T14:20:34.225Z</time>
      </trkpt>
      <trkpt lat="47.35403" lon="6.39124">
        <ele>266.141</ele>
        <time>2016-09-05T14:20:35.257Z</time>
      </trkpt>
      <trkpt lat="47.35401" lon="6.39119">
        <ele>267.339</ele>
        <time>2016-09-05T14:20:36.241Z</time>
      </trkpt>
      <trkpt lat="47.35399" lon="6.39115">
        <ele>267.185</ele>
        <time>2016-09-05T14:20:37.195Z</time>
      </trkpt>
      <trkpt lat="47.35397" lon="6.39111">
        <ele>266.606</ele>
        <time>2016-09-05T14:20:38.203Z</time>
      </trkpt>
      <trkpt lat="47.35394" lon="6.39107">
        <ele>265.884</ele>
        <time>2016-09-05T14:20:39.229Z</time>
      </trkpt>
      <trkpt lat="47.35391" lon="6.39104">
        <ele>266.601</ele>
        <time>2016-09-05T14:20:40.210Z</time>
      </trkpt>
      <trkpt lat="47.3539" lon="6.39101">
        <ele>266.307</ele>
        <time>2016-09-05T14:20:41.172Z</time>
      </trkpt>
      <trkpt lat="47.35387" lon="6.39097">
        <ele>263.888</ele>
        <time>2016-09-05T14:20:42.206Z</time>
      </trkpt>
      <trkpt lat="47.35384" lon="6.39093">
        <ele>263.969</ele>
        <time>2016-09-05T14:20:43.242Z</time>
      </trkpt>
      <trkpt lat="47.35381" lon="6.39089">
        <ele>263.865</ele>
        <time>2016-09-05T14:20:44.282Z</time>
      </trkpt>
      <trkpt lat="47.35378" lon="6.39085">
        <ele>263.231</ele>
        <time>2016-09-05T14:20:45.248Z</time>
      </trkpt>
      <trkpt lat="47.35376" lon="6.3908">
        <ele>265.064</ele>
        <time>2016-09-05T14:20:46.206Z</time>
      </trkpt>
      <trkpt lat="47.35373" lon="6.39074">
        <ele>264.786</ele>
        <time>2016-09-05T14:20:47.197Z</time>
      </trkpt>
      <trkpt lat="47.3537" lon="6.39069">
        <ele>265.276</ele>
        <time>2016-09-05T14:20:48.181Z</time>
      </trkpt>
      <trkpt lat="47.35368" lon="6.39064">
        <ele>264.499</ele>
        <time>2016-09-05T14:20:49.208Z</time>
      </trkpt>
      <trkpt lat="47.35365" lon="6.39059">
        <ele>264.52</ele>
        <time>2016-09-05T14:20:50.207Z</time>
      </trkpt>
      <trkpt lat="47.35362" lon="6.39054">
        <ele>264.603</ele>
        <time>2016-09-05T14:20:51.194Z</time>
      </trkpt>
      <trkpt lat="47.3536" lon="6.39049">
        <ele>264.803</ele>
        <time>2016-09-05T14:20:52.192Z</time>
      </trkpt>
      <trkpt lat="47.35357" lon="6.39043">
        <ele>265.446</ele>
        <time>2016-09-05T14:20:53.203Z</time>
      </trkpt>
      <trkpt lat="47.35354" lon="6.39038">
        <ele>265.598</ele>
        <time>2016-09-05T14:20:54.200Z</time>
      </trkpt>
      <trkpt lat="47.35352" lon="6.39032">
        <ele>265.712</ele>
        <time>2016-09-05T14:20:55.207Z</time>
      </trkpt>
      <trkpt lat="47.3535" lon="6.39027">
        <ele>267.733</ele>
        <time>2016-09-05T14:20:56.205Z</time>
      </trkpt>
      <trkpt lat="47.35347" lon="6.39021">
        <ele>269.13</ele>
        <time>2016-09-05T14:20:57.197Z</time>
      </trkpt>
      <trkpt lat="47.35344" lon="6.39016">
        <ele>269.594</ele>
        <time>2016-09-05T14:20:58.197Z</time>
      </trkpt>
      <trkpt lat="47.35342" lon="6.3901">
        <ele>269.638</ele>
        <time>2016-09-05T14:20:59.211Z</time>
      </trkpt>
      <trkpt lat="47.3534" lon="6.39005">
        <ele>270.102</ele>
        <time>2016-09-05T14:21:00.259Z</time>
      </trkpt>
      <trkpt lat="47.35337" lon="6.39">
        <ele>270.358</ele>
        <time>2016-09-05T14:21:01.232Z</time>
      </trkpt>
      <trkpt lat="47.35335" lon="6.38996">
        <ele>269.801</ele>
        <time>2016-09-05T14:21:02.196Z</time>
      </trkpt>
      <trkpt lat="47.35333" lon="6.38992">
        <ele>270.718</ele>
        <time>2016-09-05T14:21:03.296Z</time>
      </trkpt>
      <trkpt lat="47.3533" lon="6.38988">
        <ele>271.293</ele>
        <time>2016-09-05T14:21:04.370Z</time>
      </trkpt>
      <trkpt lat="47.35328" lon="6.38984">
        <ele>271.826</ele>
        <time>2016-09-05T14:21:05.310Z</time>
      </trkpt>
      <trkpt lat="47.35326" lon="6.38979">
        <ele>271.075</ele>
        <time>2016-09-05T14:21:06.298Z</time>
      </trkpt>
      <trkpt lat="47.35323" lon="6.38975">
        <ele>270.464</ele>
        <time>2016-09-05T14:21:07.363Z</time>
      </trkpt>
      <trkpt lat="47.3532" lon="6.3897">
        <ele>270.392</ele>
        <time>2016-09-05T14:21:08.292Z</time>
      </trkpt>
      <trkpt lat="47.35317" lon="6.38966">
        <ele>269.145</ele>
        <time>2016-09-05T14:21:09.178Z</time>
      </trkpt>
      <trkpt lat="47.35313" lon="6.38961">
        <ele>269.999</ele>
        <time>2016-09-05T14:21:10.192Z</time>
      </trkpt>
      <trkpt lat="47.35309" lon="6.38955">
        <ele>270.188</ele>
        <time>2016-09-05T14:21:11.229Z</time>
      </trkpt>
      <trkpt lat="47.35306" lon="6.3895">
        <ele>269.959</ele>
        <time>2016-09-05T14:21:12.349Z</time>
      </trkpt>
      <trkpt lat="47.35303" lon="6.38945">
        <ele>270.127</ele>
        <time>2016-09-05T14:21:13.341Z</time>
      </trkpt>
      <trkpt lat="47.353" lon="6.3894">
        <ele>269.544</ele>
        <time>2016-09-05T14:21:14.177Z</time>
      </trkpt>
      <trkpt lat="47.35297" lon="6.38936">
        <ele>269.668</ele>
        <time>2016-09-05T14:21:15.139Z</time>
      </trkpt>
      <trkpt lat="47.35292" lon="6.38929">
        <ele>268.818</ele>
        <time>2016-09-05T14:21:16.200Z</time>
      </trkpt>
      <trkpt lat="47.3529" lon="6.38925">
        <ele>269.35</ele>
        <time>2016-09-05T14:21:17.231Z</time>
      </trkpt>
      <trkpt lat="47.3529" lon="6.38922">
        <ele>271.549</ele>
        <time>2016-09-05T14:21:18.162Z</time>
      </trkpt>
      <trkpt lat="47.35287" lon="6.38916">
        <ele>270.424</ele>
        <time>2016-09-05T14:21:19.172Z</time>
      </trkpt>
      <trkpt lat="47.35286" lon="6.38915">
        <ele>269</ele>
        <time>2016-09-05T14:21:20.166Z</time>
      </trkpt>
      <trkpt lat="47.35284" lon="6.3891">
        <ele>269.128</ele>
        <time>2016-09-05T14:21:21.179Z</time>
      </trkpt>
      <trkpt lat="47.35281" lon="6.38905">
        <ele>267.926</ele>
        <time>2016-09-05T14:21:22.186Z</time>
      </trkpt>
      <trkpt lat="47.35278" lon="6.38899">
        <ele>264.902</ele>
        <time>2016-09-05T14:21:23.191Z</time>
      </trkpt>
      <trkpt lat="47.35275" lon="6.38894">
        <ele>264.789</ele>
        <time>2016-09-05T14:21:24.140Z</time>
      </trkpt>
      <trkpt lat="47.35273" lon="6.38889">
        <ele>266.777</ele>
        <time>2016-09-05T14:21:25.310Z</time>
      </trkpt>
      <trkpt lat="47.35273" lon="6.38886">
        <ele>266.803</ele>
        <time>2016-09-05T14:21:26.340Z</time>
      </trkpt>
      <trkpt lat="47.3527" lon="6.38882">
        <ele>267.044</ele>
        <time>2016-09-05T14:21:27.179Z</time>
      </trkpt>
      <trkpt lat="47.35268" lon="6.38879">
        <ele>266.379</ele>
        <time>2016-09-05T14:21:28.178Z</time>
      </trkpt>
      <trkpt lat="47.35266" lon="6.38875">
        <ele>266.364</ele>
        <time>2016-09-05T14:21:29.182Z</time>
      </trkpt>
      <trkpt lat="47.35264" lon="6.38871">
        <ele>266.266</ele>
        <time>2016-09-05T14:21:30.179Z</time>
      </trkpt>
      <trkpt lat="47.35262" lon="6.38866">
        <ele>266.118</ele>
        <time>2016-09-05T14:21:31.177Z</time>
      </trkpt>
      <trkpt lat="47.3526" lon="6.38862">
        <ele>266.328</ele>
        <time>2016-09-05T14:21:32.271Z</time>
      </trkpt>
      <trkpt lat="47.35258" lon="6.38857">
        <ele>266.088</ele>
        <time>2016-09-05T14:21:33.277Z</time>
      </trkpt>
      <trkpt lat="47.35256" lon="6.38852">
        <ele>266.315</ele>
        <time>2016-09-05T14:21:34.236Z</time>
      </trkpt>
      <trkpt lat="47.35254" lon="6.38847">
        <ele>266.965</ele>
        <time>2016-09-05T14:21:35.234Z</time>
      </trkpt>
      <trkpt lat="47.35252" lon="6.38842">
        <ele>266.323</ele>
        <time>2016-09-05T14:21:36.183Z</time>
      </trkpt>
      <trkpt lat="47.3525" lon="6.38836">
        <ele>263.295</ele>
        <time>2016-09-05T14:21:37.183Z</time>
      </trkpt>
      <trkpt lat="47.35248" lon="6.38831">
        <ele>264.139</ele>
        <time>2016-09-05T14:21:38.176Z</time>
      </trkpt>
      <trkpt lat="47.35246" lon="6.38826">
        <ele>264.377</ele>
        <time>2016-09-05T14:21:39.136Z</time>
      </trkpt>
      <trkpt lat="47.35244" lon="6.38819">
        <ele>264.114</ele>
        <time>2016-09-05T14:21:40.164Z</time>
      </trkpt>
      <trkpt lat="47.35241" lon="6.3881">
        <ele>266.158</ele>
        <time>2016-09-05T14:21:41.368Z</time>
      </trkpt>
      <trkpt lat="47.35239" lon="6.38803">
        <ele>265.903</ele>
        <time>2016-09-05T14:21:42.332Z</time>
      </trkpt>
      <trkpt lat="47.35234" lon="6.38796">
        <ele>262.776</ele>
        <time>2016-09-05T14:21:43.321Z</time>
      </trkpt>
      <trkpt lat="47.35232" lon="6.3879">
        <ele>263.67</ele>
        <time>2016-09-05T14:21:44.417Z</time>
      </trkpt>
      <trkpt lat="47.35228" lon="6.38782">
        <ele>263.198</ele>
        <time>2016-09-05T14:21:45.267Z</time>
      </trkpt>
      <trkpt lat="47.35224" lon="6.38776">
        <ele>263.093</ele>
        <time>2016-09-05T14:21:46.179Z</time>
      </trkpt>
      <trkpt lat="47.35221" lon="6.38769">
        <ele>263.046</ele>
        <time>2016-09-05T14:21:47.133Z</time>
      </trkpt>
      <trkpt lat="47.35216" lon="6.3876">
        <ele>260.961</ele>
        <time>2016-09-05T14:21:48.236Z</time>
      </trkpt>
      <trkpt lat="47.35214" lon="6.38753">
        <ele>260.882</ele>
        <time>2016-09-05T14:21:49.242Z</time>
      </trkpt>
      <trkpt lat="47.35214" lon="6.38746">
        <ele>262.505</ele>
        <time>2016-09-05T14:21:50.331Z</time>
      </trkpt>
      <trkpt lat="47.35211" lon="6.3874">
        <ele>261.626</ele>
        <time>2016-09-05T14:21:51.450Z</time>
      </trkpt>
      <trkpt lat="47.35208" lon="6.38736">
        <ele>261.339</ele>
        <time>2016-09-05T14:21:52.265Z</time>
      </trkpt>
      <trkpt lat="47.35207" lon="6.38728">
        <ele>261.121</ele>
        <time>2016-09-05T14:21:53.195Z</time>
      </trkpt>
      <trkpt lat="47.35205" lon="6.38721">
        <ele>259.416</ele>
        <time>2016-09-05T14:21:54.197Z</time>
      </trkpt>
      <trkpt lat="47.35204" lon="6.38714">
        <ele>261.708</ele>
        <time>2016-09-05T14:21:55.234Z</time>
      </trkpt>
      <trkpt lat="47.352" lon="6.38707">
        <ele>260.15</ele>
        <time>2016-09-05T14:21:56.214Z</time>
      </trkpt>
      <trkpt lat="47.35199" lon="6.387">
        <ele>261.017</ele>
        <time>2016-09-05T14:21:57.283Z</time>
      </trkpt>
      <trkpt lat="47.352" lon="6.38695">
        <ele>263.226</ele>
        <time>2016-09-05T14:21:58.314Z</time>
      </trkpt>
      <trkpt lat="47.35198" lon="6.38687">
        <ele>263.887</ele>
        <time>2016-09-05T14:21:59.173Z</time>
      </trkpt>
      <trkpt lat="47.35194" lon="6.38678">
        <ele>262.388</ele>
        <time>2016-09-05T14:22:00.168Z</time>
      </trkpt>
      <trkpt lat="47.35192" lon="6.38671">
        <ele>260.774</ele>
        <time>2016-09-05T14:22:01.168Z</time>
      </trkpt>
      <trkpt lat="47.3519" lon="6.38665">
        <ele>258.533</ele>
        <time>2016-09-05T14:22:02.171Z</time>
      </trkpt>
      <trkpt lat="47.3519" lon="6.38659">
        <ele>260.928</ele>
        <time>2016-09-05T14:22:03.171Z</time>
      </trkpt>
      <trkpt lat="47.35188" lon="6.38653">
        <ele>261.491</ele>
        <time>2016-09-05T14:22:04.270Z</time>
      </trkpt>
      <trkpt lat="47.3519" lon="6.38647">
        <ele>264.698</ele>
        <time>2016-09-05T14:22:05.271Z</time>
      </trkpt>
      <trkpt lat="47.35189" lon="6.38642">
        <ele>264.568</ele>
        <time>2016-09-05T14:22:06.231Z</time>
      </trkpt>
      <trkpt lat="47.35188" lon="6.38634">
        <ele>265.082</ele>
        <time>2016-09-05T14:22:07.244Z</time>
      </trkpt>
      <trkpt lat="47.35187" lon="6.38627">
        <ele>263.325</ele>
        <time>2016-09-05T14:22:08.187Z</time>
      </trkpt>
      <trkpt lat="47.35187" lon="6.38619">
        <ele>262.733</ele>
        <time>2016-09-05T14:22:09.173Z</time>
      </trkpt>
      <trkpt lat="47.35188" lon="6.3861">
        <ele>265.546</ele>
        <time>2016-09-05T14:22:10.170Z</time>
      </trkpt>
      <trkpt lat="47.35186" lon="6.38602">
        <ele>265.956</ele>
        <time>2016-09-05T14:22:11.179Z</time>
      </trkpt>
      <trkpt lat="47.35184" lon="6.38596">
        <ele>265.351</ele>
        <time>2016-09-05T14:22:12.170Z</time>
      </trkpt>
      <trkpt lat="47.35184" lon="6.3859">
        <ele>266.247</ele>
        <time>2016-09-05T14:22:13.320Z</time>
      </trkpt>
      <trkpt lat="47.35183" lon="6.38585">
        <ele>265.26</ele>
        <time>2016-09-05T14:22:14.320Z</time>
      </trkpt>
      <trkpt lat="47.35182" lon="6.38578">
        <ele>265.362</ele>
        <time>2016-09-05T14:22:15.182Z</time>
      </trkpt>
      <trkpt lat="47.35182" lon="6.38572">
        <ele>265.915</ele>
        <time>2016-09-05T14:22:16.182Z</time>
      </trkpt>
      <trkpt lat="47.35181" lon="6.38564">
        <ele>267.109</ele>
        <time>2016-09-05T14:22:17.177Z</time>
      </trkpt>
      <trkpt lat="47.3518" lon="6.38556">
        <ele>267.283</ele>
        <time>2016-09-05T14:22:18.180Z</time>
      </trkpt>
      <trkpt lat="47.35179" lon="6.3855">
        <ele>266.125</ele>
        <time>2016-09-05T14:22:19.188Z</time>
      </trkpt>
      <trkpt lat="47.35177" lon="6.38543">
        <ele>265.401</ele>
        <time>2016-09-05T14:22:20.266Z</time>
      </trkpt>
      <trkpt lat="47.35176" lon="6.38536">
        <ele>265.85</ele>
        <time>2016-09-05T14:22:21.271Z</time>
      </trkpt>
      <trkpt lat="47.35174" lon="6.3853">
        <ele>265.26</ele>
        <time>2016-09-05T14:22:22.234Z</time>
      </trkpt>
      <trkpt lat="47.35173" lon="6.38526">
        <ele>265.537</ele>
        <time>2016-09-05T14:22:23.244Z</time>
      </trkpt>
      <trkpt lat="47.35173" lon="6.38522">
        <ele>264.368</ele>
        <time>2016-09-05T14:22:24.184Z</time>
      </trkpt>
      <trkpt lat="47.35173" lon="6.38515">
        <ele>263.802</ele>
        <time>2016-09-05T14:22:25.200Z</time>
      </trkpt>
      <trkpt lat="47.35174" lon="6.38508">
        <ele>263.396</ele>
        <time>2016-09-05T14:22:26.188Z</time>
      </trkpt>
      <trkpt lat="47.35174" lon="6.38502">
        <ele>263.282</ele>
        <time>2016-09-05T14:22:27.235Z</time>
      </trkpt>
      <trkpt lat="47.35175" lon="6.38495">
        <ele>261.216</ele>
        <time>2016-09-05T14:22:28.244Z</time>
      </trkpt>
      <trkpt lat="47.35176" lon="6.3849">
        <ele>261.783</ele>
        <time>2016-09-05T14:22:29.349Z</time>
      </trkpt>
      <trkpt lat="47.35177" lon="6.38484">
        <ele>261.746</ele>
        <time>2016-09-05T14:22:30.346Z</time>
      </trkpt>
      <trkpt lat="47.35177" lon="6.38479">
        <ele>262.058</ele>
        <time>2016-09-05T14:22:31.184Z</time>
      </trkpt>
      <trkpt lat="47.35178" lon="6.38472">
        <ele>262.164</ele>
        <time>2016-09-05T14:22:32.190Z</time>
      </trkpt>
      <trkpt lat="47.3518" lon="6.38465">
        <ele>263.635</ele>
        <time>2016-09-05T14:22:33.192Z</time>
      </trkpt>
      <trkpt lat="47.35182" lon="6.38458">
        <ele>265.279</ele>
        <time>2016-09-05T14:22:34.182Z</time>
      </trkpt>
      <trkpt lat="47.35182" lon="6.38452">
        <ele>264.81</ele>
        <time>2016-09-05T14:22:35.199Z</time>
      </trkpt>
      <trkpt lat="47.35183" lon="6.38447">
        <ele>265.716</ele>
        <time>2016-09-05T14:22:36.316Z</time>
      </trkpt>
      <trkpt lat="47.35183" lon="6.3844">
        <ele>267.038</ele>
        <time>2016-09-05T14:22:37.321Z</time>
      </trkpt>
      <trkpt lat="47.35185" lon="6.38434">
        <ele>268.702</ele>
        <time>2016-09-05T14:22:38.235Z</time>
      </trkpt>
      <trkpt lat="47.35186" lon="6.38427">
        <ele>270.047</ele>
        <time>2016-09-05T14:22:39.242Z</time>
      </trkpt>
      <trkpt lat="47.35186" lon="6.38422">
        <ele>269.937</ele>
        <time>2016-09-05T14:22:40.183Z</time>
      </trkpt>
      <trkpt lat="47.35186" lon="6.38416">
        <ele>269.97</ele>
        <time>2016-09-05T14:22:41.136Z</time>
      </trkpt>
      <trkpt lat="47.35187" lon="6.3841">
        <ele>271.148</ele>
        <time>2016-09-05T14:22:42.354Z</time>
      </trkpt>
      <trkpt lat="47.35189" lon="6.38404">
        <ele>269.968</ele>
        <time>2016-09-05T14:22:43.561Z</time>
      </trkpt>
      <trkpt lat="47.3519" lon="6.38397">
        <ele>269.14</ele>
        <time>2016-09-05T14:22:44.349Z</time>
      </trkpt>
      <trkpt lat="47.35192" lon="6.38391">
        <ele>267.173</ele>
        <time>2016-09-05T14:22:45.353Z</time>
      </trkpt>
      <trkpt lat="47.35193" lon="6.38384">
        <ele>263.583</ele>
        <time>2016-09-05T14:22:46.347Z</time>
      </trkpt>
      <trkpt lat="47.35195" lon="6.38378">
        <ele>264.619</ele>
        <time>2016-09-05T14:22:47.172Z</time>
      </trkpt>
      <trkpt lat="47.35195" lon="6.38371">
        <ele>264.266</ele>
        <time>2016-09-05T14:22:48.138Z</time>
      </trkpt>
      <trkpt lat="47.35196" lon="6.38364">
        <ele>262.995</ele>
        <time>2016-09-05T14:22:49.201Z</time>
      </trkpt>
      <trkpt lat="47.35196" lon="6.38358">
        <ele>263.729</ele>
        <time>2016-09-05T14:22:50.307Z</time>
      </trkpt>
      <trkpt lat="47.35197" lon="6.38351">
        <ele>263.836</ele>
        <time>2016-09-05T14:22:51.253Z</time>
      </trkpt>
      <trkpt lat="47.35199" lon="6.38345">
        <ele>264.699</ele>
        <time>2016-09-05T14:22:52.282Z</time>
      </trkpt>
      <trkpt lat="47.352" lon="6.38338">
        <ele>265.46</ele>
        <time>2016-09-05T14:22:53.272Z</time>
      </trkpt>
      <trkpt lat="47.35202" lon="6.38331">
        <ele>265.446</ele>
        <time>2016-09-05T14:22:54.317Z</time>
      </trkpt>
      <trkpt lat="47.35204" lon="6.38323">
        <ele>266.528</ele>
        <time>2016-09-05T14:22:55.316Z</time>
      </trkpt>
      <trkpt lat="47.35201" lon="6.38317">
        <ele>265.002</ele>
        <time>2016-09-05T14:22:56.171Z</time>
      </trkpt>
      <trkpt lat="47.35201" lon="6.38311">
        <ele>264.82</ele>
        <time>2016-09-05T14:22:57.139Z</time>
      </trkpt>
      <trkpt lat="47.35204" lon="6.38302">
        <ele>264.707</ele>
        <time>2016-09-05T14:22:58.319Z</time>
      </trkpt>
      <trkpt lat="47.35205" lon="6.38294">
        <ele>264.135</ele>
        <time>2016-09-05T14:22:59.515Z</time>
      </trkpt>
      <trkpt lat="47.35206" lon="6.38287">
        <ele>264.272</ele>
        <time>2016-09-05T14:23:00.341Z</time>
      </trkpt>
      <trkpt lat="47.35205" lon="6.38281">
        <ele>263.134</ele>
        <time>2016-09-05T14:23:01.357Z</time>
      </trkpt>
      <trkpt lat="47.35205" lon="6.38274">
        <ele>263.262</ele>
        <time>2016-09-05T14:23:02.349Z</time>
      </trkpt>
      <trkpt lat="47.35207" lon="6.38267">
        <ele>264.497</ele>
        <time>2016-09-05T14:23:03.205Z</time>
      </trkpt>
      <trkpt lat="47.35208" lon="6.38261">
        <ele>265.073</ele>
        <time>2016-09-05T14:23:04.206Z</time>
      </trkpt>
      <trkpt lat="47.3521" lon="6.38255">
        <ele>267.373</ele>
        <time>2016-09-05T14:23:05.202Z</time>
      </trkpt>
      <trkpt lat="47.35211" lon="6.38247">
        <ele>266.144</ele>
        <time>2016-09-05T14:23:06.189Z</time>
      </trkpt>
      <trkpt lat="47.35211" lon="6.38241">
        <ele>265.729</ele>
        <time>2016-09-05T14:23:07.194Z</time>
      </trkpt>
      <trkpt lat="47.35213" lon="6.38236">
        <ele>267.577</ele>
        <time>2016-09-05T14:23:08.317Z</time>
      </trkpt>
      <trkpt lat="47.35214" lon="6.3823">
        <ele>268.013</ele>
        <time>2016-09-05T14:23:09.316Z</time>
      </trkpt>
      <trkpt lat="47.35215" lon="6.38224">
        <ele>268.061</ele>
        <time>2016-09-05T14:23:10.141Z</time>
      </trkpt>
      <trkpt lat="47.35217" lon="6.38217">
        <ele>266.632</ele>
        <time>2016-09-05T14:23:11.189Z</time>
      </trkpt>
      <trkpt lat="47.35217" lon="6.38211">
        <ele>267.138</ele>
        <time>2016-09-05T14:23:12.227Z</time>
      </trkpt>
      <trkpt lat="47.35217" lon="6.38205">
        <ele>268.055</ele>
        <time>2016-09-05T14:23:13.188Z</time>
      </trkpt>
      <trkpt lat="47.35218" lon="6.38198">
        <ele>268.409</ele>
        <time>2016-09-05T14:23:14.189Z</time>
      </trkpt>
      <trkpt lat="47.3522" lon="6.38192">
        <ele>269.224</ele>
        <time>2016-09-05T14:23:15.218Z</time>
      </trkpt>
      <trkpt lat="47.3522" lon="6.38186">
        <ele>270.088</ele>
        <time>2016-09-05T14:23:16.219Z</time>
      </trkpt>
      <trkpt lat="47.35222" lon="6.38179">
        <ele>272.971</ele>
        <time>2016-09-05T14:23:17.368Z</time>
      </trkpt>
      <trkpt lat="47.35223" lon="6.38174">
        <ele>272.956</ele>
        <time>2016-09-05T14:23:18.372Z</time>
      </trkpt>
      <trkpt lat="47.35223" lon="6.38165">
        <ele>267.777</ele>
        <time>2016-09-05T14:23:19.206Z</time>
      </trkpt>
      <trkpt lat="47.35222" lon="6.38161">
        <ele>266.265</ele>
        <time>2016-09-05T14:23:20.185Z</time>
      </trkpt>
      <trkpt lat="47.35223" lon="6.38154">
        <ele>266.152</ele>
        <time>2016-09-05T14:23:21.141Z</time>
      </trkpt>
      <trkpt lat="47.35224" lon="6.38148">
        <ele>266.601</ele>
        <time>2016-09-05T14:23:22.185Z</time>
      </trkpt>
      <trkpt lat="47.35226" lon="6.38141">
        <ele>267.006</ele>
        <time>2016-09-05T14:23:23.226Z</time>
      </trkpt>
      <trkpt lat="47.35224" lon="6.38136">
        <ele>264.52</ele>
        <time>2016-09-05T14:23:24.308Z</time>
      </trkpt>
      <trkpt lat="47.35224" lon="6.38129">
        <ele>263.236</ele>
        <time>2016-09-05T14:23:25.311Z</time>
      </trkpt>
      <trkpt lat="47.35224" lon="6.38122">
        <ele>259.223</ele>
        <time>2016-09-05T14:23:26.171Z</time>
      </trkpt>
      <trkpt lat="47.35224" lon="6.38115">
        <ele>258.985</ele>
        <time>2016-09-05T14:23:27.142Z</time>
      </trkpt>
      <trkpt lat="47.35226" lon="6.3811">
        <ele>259.489</ele>
        <time>2016-09-05T14:23:28.320Z</time>
      </trkpt>
      <trkpt lat="47.35227" lon="6.38104">
        <ele>258.674</ele>
        <time>2016-09-05T14:23:29.507Z</time>
      </trkpt>
      <trkpt lat="47.35227" lon="6.38097">
        <ele>258.256</ele>
        <time>2016-09-05T14:23:30.323Z</time>
      </trkpt>
      <trkpt lat="47.35229" lon="6.38092">
        <ele>259.293</ele>
        <time>2016-09-05T14:23:31.216Z</time>
      </trkpt>
      <trkpt lat="47.3523" lon="6.38086">
        <ele>259.296</ele>
        <time>2016-09-05T14:23:32.181Z</time>
      </trkpt>
      <trkpt lat="47.35227" lon="6.38081">
        <ele>256.857</ele>
        <time>2016-09-05T14:23:33.294Z</time>
      </trkpt>
      <trkpt lat="47.35228" lon="6.38075">
        <ele>256.024</ele>
        <time>2016-09-05T14:23:34.344Z</time>
      </trkpt>
      <trkpt lat="47.3523" lon="6.38069">
        <ele>257.26</ele>
        <time>2016-09-05T14:23:35.319Z</time>
      </trkpt>
      <trkpt lat="47.35231" lon="6.38063">
        <ele>257.625</ele>
        <time>2016-09-05T14:23:36.471Z</time>
      </trkpt>
      <trkpt lat="47.35232" lon="6.38057">
        <ele>258.188</ele>
        <time>2016-09-05T14:23:37.308Z</time>
      </trkpt>
      <trkpt lat="47.35233" lon="6.38051">
        <ele>258.889</ele>
        <time>2016-09-05T14:23:38.177Z</time>
      </trkpt>
      <trkpt lat="47.35234" lon="6.38044">
        <ele>258.881</ele>
        <time>2016-09-05T14:23:39.143Z</time>
      </trkpt>
      <trkpt lat="47.35236" lon="6.38038">
        <ele>259.921</ele>
        <time>2016-09-05T14:23:40.258Z</time>
      </trkpt>
      <trkpt lat="47.35237" lon="6.38032">
        <ele>260.255</ele>
        <time>2016-09-05T14:23:41.302Z</time>
      </trkpt>
      <trkpt lat="47.35238" lon="6.38026">
        <ele>260.209</ele>
        <time>2016-09-05T14:23:42.144Z</time>
      </trkpt>
      <trkpt lat="47.3524" lon="6.38019">
        <ele>260.419</ele>
        <time>2016-09-05T14:23:43.176Z</time>
      </trkpt>
      <trkpt lat="47.35241" lon="6.38012">
        <ele>261.112</ele>
        <time>2016-09-05T14:23:44.211Z</time>
      </trkpt>
      <trkpt lat="47.3524" lon="6.38005">
        <ele>259.102</ele>
        <time>2016-09-05T14:23:45.172Z</time>
      </trkpt>
      <trkpt lat="47.3524" lon="6.37999">
        <ele>259.996</ele>
        <time>2016-09-05T14:23:46.160Z</time>
      </trkpt>
      <trkpt lat="47.35241" lon="6.37992">
        <ele>259.971</ele>
        <time>2016-09-05T14:23:47.144Z</time>
      </trkpt>
      <trkpt lat="47.35242" lon="6.37986">
        <ele>261.462</ele>
        <time>2016-09-05T14:23:48.146Z</time>
      </trkpt>
      <trkpt lat="47.35245" lon="6.37979">
        <ele>262.004</ele>
        <time>2016-09-05T14:23:49.005Z</time>
      </trkpt>
      <trkpt lat="47.3525" lon="6.37972">
        <ele>262.234</ele>
        <time>2016-09-05T14:23:50.001Z</time>
      </trkpt>
      <trkpt lat="47.35251" lon="6.37965">
        <ele>262.853</ele>
        <time>2016-09-05T14:23:50.999Z</time>
      </trkpt>
      <trkpt lat="47.35251" lon="6.37959">
        <ele>262.251</ele>
        <time>2016-09-05T14:23:52.000Z</time>
      </trkpt>
      <trkpt lat="47.35252" lon="6.37953">
        <ele>262.859</ele>
        <time>2016-09-05T14:23:53.000Z</time>
      </trkpt>
      <trkpt lat="47.35253" lon="6.37947">
        <ele>263.46</ele>
        <time>2016-09-05T14:23:54.000Z</time>
      </trkpt>
      <trkpt lat="47.35255" lon="6.3794">
        <ele>262.684</ele>
        <time>2016-09-05T14:23:55.000Z</time>
      </trkpt>
      <trkpt lat="47.35256" lon="6.37933">
        <ele>263.662</ele>
        <time>2016-09-05T14:23:56.000Z</time>
      </trkpt>
      <trkpt lat="47.35256" lon="6.37928">
        <ele>264.51</ele>
        <time>2016-09-05T14:23:57.000Z</time>
      </trkpt>
      <trkpt lat="47.35256" lon="6.37922">
        <ele>264.207</ele>
        <time>2016-09-05T14:23:58.000Z</time>
      </trkpt>
      <trkpt lat="47.35257" lon="6.37916">
        <ele>265.315</ele>
        <time>2016-09-05T14:23:59.000Z</time>
      </trkpt>
      <trkpt lat="47.35262" lon="6.37909">
        <ele>266.883</ele>
        <time>2016-09-05T14:24:00.000Z</time>
      </trkpt>
      <trkpt lat="47.35268" lon="6.37901">
        <ele>266.931</ele>
        <time>2016-09-05T14:24:01.000Z</time>
      </trkpt>
      <trkpt lat="47.35269" lon="6.37895">
        <ele>267.346</ele>
        <time>2016-09-05T14:24:02.000Z</time>
      </trkpt>
      <trkpt lat="47.35272" lon="6.37889">
        <ele>267.578</ele>
        <time>2016-09-05T14:24:03.000Z</time>
      </trkpt>
      <trkpt lat="47.35274" lon="6.37882">
        <ele>267.53</ele>
        <time>2016-09-05T14:24:04.000Z</time>
      </trkpt>
      <trkpt lat="47.35276" lon="6.37877">
        <ele>267.902</ele>
        <time>2016-09-05T14:24:05.000Z</time>
      </trkpt>
      <trkpt lat="47.35277" lon="6.37871">
        <ele>267.67</ele>
        <time>2016-09-05T14:24:06.000Z</time>
      </trkpt>
      <trkpt lat="47.35279" lon="6.37864">
        <ele>268.237</ele>
        <time>2016-09-05T14:24:07.000Z</time>
      </trkpt>
      <trkpt lat="47.35281" lon="6.37859">
        <ele>268.209</ele>
        <time>2016-09-05T14:24:08.000Z</time>
      </trkpt>
      <trkpt lat="47.35282" lon="6.37852">
        <ele>268.329</ele>
        <time>2016-09-05T14:24:09.000Z</time>
      </trkpt>
      <trkpt lat="47.35281" lon="6.37849">
        <ele>265.772</ele>
        <time>2016-09-05T14:24:10.000Z</time>
      </trkpt>
      <trkpt lat="47.35283" lon="6.37843">
        <ele>266.46</ele>
        <time>2016-09-05T14:24:11.000Z</time>
      </trkpt>
      <trkpt lat="47.35284" lon="6.37838">
        <ele>267.028</ele>
        <time>2016-09-05T14:24:12.000Z</time>
      </trkpt>
      <trkpt lat="47.35285" lon="6.37832">
        <ele>267.67</ele>
        <time>2016-09-05T14:24:13.000Z</time>
      </trkpt>
      <trkpt lat="47.35285" lon="6.37827">
        <ele>265.756</ele>
        <time>2016-09-05T14:24:14.000Z</time>
      </trkpt>
      <trkpt lat="47.35286" lon="6.37821">
        <ele>266.164</ele>
        <time>2016-09-05T14:24:15.000Z</time>
      </trkpt>
      <trkpt lat="47.35286" lon="6.37816">
        <ele>266.464</ele>
        <time>2016-09-05T14:24:16.000Z</time>
      </trkpt>
      <trkpt lat="47.35287" lon="6.3781">
        <ele>266.163</ele>
        <time>2016-09-05T14:24:17.000Z</time>
      </trkpt>
      <trkpt lat="47.35287" lon="6.37804">
        <ele>266</ele>
        <time>2016-09-05T14:24:18.000Z</time>
      </trkpt>
      <trkpt lat="47.35287" lon="6.37798">
        <ele>266.163</ele>
        <time>2016-09-05T14:24:19.000Z</time>
      </trkpt>
      <trkpt lat="47.35288" lon="6.37792">
        <ele>267.578</ele>
        <time>2016-09-05T14:24:20.000Z</time>
      </trkpt>
      <trkpt lat="47.35289" lon="6.37786">
        <ele>268.871</ele>
        <time>2016-09-05T14:24:21.000Z</time>
      </trkpt>
      <trkpt lat="47.35289" lon="6.3778">
        <ele>268.884</ele>
        <time>2016-09-05T14:24:22.000Z</time>
      </trkpt>
      <trkpt lat="47.3529" lon="6.37774">
        <ele>269.384</ele>
        <time>2016-09-05T14:24:23.000Z</time>
      </trkpt>
      <trkpt lat="47.3529" lon="6.37767">
        <ele>269.275</ele>
        <time>2016-09-05T14:24:24.000Z</time>
      </trkpt>
      <trkpt lat="47.35291" lon="6.37761">
        <ele>268.445</ele>
        <time>2016-09-05T14:24:25.000Z</time>
      </trkpt>
      <trkpt lat="47.35291" lon="6.37755">
        <ele>269.517</ele>
        <time>2016-09-05T14:24:26.000Z</time>
      </trkpt>
      <trkpt lat="47.35291" lon="6.3775">
        <ele>270.009</ele>
        <time>2016-09-05T14:24:27.000Z</time>
      </trkpt>
      <trkpt lat="47.35291" lon="6.37744">
        <ele>269.719</ele>
        <time>2016-09-05T14:24:28.000Z</time>
      </trkpt>
      <trkpt lat="47.3529" lon="6.37739">
        <ele>270.308</ele>
        <time>2016-09-05T14:24:29.000Z</time>
      </trkpt>
      <trkpt lat="47.3529" lon="6.37733">
        <ele>270.574</ele>
        <time>2016-09-05T14:24:30.000Z</time>
      </trkpt>
      <trkpt lat="47.35289" lon="6.37728">
        <ele>270.457</ele>
        <time>2016-09-05T14:24:31.000Z</time>
      </trkpt>
      <trkpt lat="47.35288" lon="6.37722">
        <ele>269.665</ele>
        <time>2016-09-05T14:24:32.000Z</time>
      </trkpt>
      <trkpt lat="47.35288" lon="6.37716">
        <ele>269.437</ele>
        <time>2016-09-05T14:24:33.000Z</time>
      </trkpt>
      <trkpt lat="47.35287" lon="6.37711">
        <ele>270.499</ele>
        <time>2016-09-05T14:24:34.000Z</time>
      </trkpt>
      <trkpt lat="47.35286" lon="6.37705">
        <ele>271.244</ele>
        <time>2016-09-05T14:24:35.000Z</time>
      </trkpt>
      <trkpt lat="47.35285" lon="6.37698">
        <ele>273.034</ele>
        <time>2016-09-05T14:24:36.000Z</time>
      </trkpt>
      <trkpt lat="47.35285" lon="6.37692">
        <ele>273.058</ele>
        <time>2016-09-05T14:24:37.000Z</time>
      </trkpt>
      <trkpt lat="47.35284" lon="6.37686">
        <ele>273.789</ele>
        <time>2016-09-05T14:24:38.000Z</time>
      </trkpt>
      <trkpt lat="47.35283" lon="6.3768">
        <ele>274.318</ele>
        <time>2016-09-05T14:24:39.000Z</time>
      </trkpt>
      <trkpt lat="47.35283" lon="6.37671">
        <ele>273.928</ele>
        <time>2016-09-05T14:24:40.000Z</time>
      </trkpt>
      <trkpt lat="47.35283" lon="6.37664">
        <ele>274.82</ele>
        <time>2016-09-05T14:24:41.000Z</time>
      </trkpt>
      <trkpt lat="47.35281" lon="6.37658">
        <ele>274.141</ele>
        <time>2016-09-05T14:24:42.000Z</time>
      </trkpt>
      <trkpt lat="47.35281" lon="6.37651">
        <ele>274.353</ele>
        <time>2016-09-05T14:24:43.000Z</time>
      </trkpt>
      <trkpt lat="47.3528" lon="6.37645">
        <ele>276.821</ele>
        <time>2016-09-05T14:24:44.000Z</time>
      </trkpt>
      <trkpt lat="47.3528" lon="6.37638">
        <ele>275.81</ele>
        <time>2016-09-05T14:24:45.000Z</time>
      </trkpt>
      <trkpt lat="47.35279" lon="6.37631">
        <ele>275.554</ele>
        <time>2016-09-05T14:24:46.000Z</time>
      </trkpt>
      <trkpt lat="47.35279" lon="6.37625">
        <ele>277.388</ele>
        <time>2016-09-05T14:24:47.000Z</time>
      </trkpt>
      <trkpt lat="47.35277" lon="6.37619">
        <ele>276.913</ele>
        <time>2016-09-05T14:24:48.000Z</time>
      </trkpt>
      <trkpt lat="47.35276" lon="6.37613">
        <ele>276.963</ele>
        <time>2016-09-05T14:24:49.000Z</time>
      </trkpt>
      <trkpt lat="47.35276" lon="6.37608">
        <ele>278.095</ele>
        <time>2016-09-05T14:24:50.000Z</time>
      </trkpt>
      <trkpt lat="47.35274" lon="6.37601">
        <ele>278.695</ele>
        <time>2016-09-05T14:24:51.000Z</time>
      </trkpt>
      <trkpt lat="47.35273" lon="6.37595">
        <ele>278.257</ele>
        <time>2016-09-05T14:24:52.000Z</time>
      </trkpt>
      <trkpt lat="47.35272" lon="6.37589">
        <ele>277.557</ele>
        <time>2016-09-05T14:24:53.000Z</time>
      </trkpt>
      <trkpt lat="47.35269" lon="6.37583">
        <ele>275.813</ele>
        <time>2016-09-05T14:24:54.000Z</time>
      </trkpt>
      <trkpt lat="47.35268" lon="6.37576">
        <ele>276.184</ele>
        <time>2016-09-05T14:24:55.000Z</time>
      </trkpt>
      <trkpt lat="47.35266" lon="6.37569">
        <ele>275.933</ele>
        <time>2016-09-05T14:24:56.000Z</time>
      </trkpt>
      <trkpt lat="47.35264" lon="6.37563">
        <ele>275.168</ele>
        <time>2016-09-05T14:24:57.000Z</time>
      </trkpt>
      <trkpt lat="47.35262" lon="6.37558">
        <ele>275.485</ele>
        <time>2016-09-05T14:24:58.000Z</time>
      </trkpt>
      <trkpt lat="47.3526" lon="6.37553">
        <ele>275.808</ele>
        <time>2016-09-05T14:24:59.000Z</time>
      </trkpt>
      <trkpt lat="47.35259" lon="6.37546">
        <ele>274.84</ele>
        <time>2016-09-05T14:25:00.000Z</time>
      </trkpt>
      <trkpt lat="47.35257" lon="6.3754">
        <ele>274.524</ele>
        <time>2016-09-05T14:25:01.000Z</time>
      </trkpt>
      <trkpt lat="47.35256" lon="6.37534">
        <ele>274.294</ele>
        <time>2016-09-05T14:25:02.000Z</time>
      </trkpt>
      <trkpt lat="47.35254" lon="6.37528">
        <ele>275.993</ele>
        <time>2016-09-05T14:25:03.000Z</time>
      </trkpt>
      <trkpt lat="47.35253" lon="6.37523">
        <ele>276.389</ele>
        <time>2016-09-05T14:25:04.000Z</time>
      </trkpt>
      <trkpt lat="47.35249" lon="6.37519">
        <ele>276.028</ele>
        <time>2016-09-05T14:25:05.000Z</time>
      </trkpt>
      <trkpt lat="47.35247" lon="6.37514">
        <ele>275.912</ele>
        <time>2016-09-05T14:25:06.000Z</time>
      </trkpt>
      <trkpt lat="47.35245" lon="6.37508">
        <ele>275.9</ele>
        <time>2016-09-05T14:25:07.000Z</time>
      </trkpt>
      <trkpt lat="47.35244" lon="6.37504">
        <ele>277.548</ele>
        <time>2016-09-05T14:25:08.000Z</time>
      </trkpt>
      <trkpt lat="47.35241" lon="6.37498">
        <ele>276.975</ele>
        <time>2016-09-05T14:25:09.000Z</time>
      </trkpt>
      <trkpt lat="47.35238" lon="6.37493">
        <ele>276.889</ele>
        <time>2016-09-05T14:25:10.000Z</time>
      </trkpt>
      <trkpt lat="47.35235" lon="6.37488">
        <ele>275.992</ele>
        <time>2016-09-05T14:25:11.000Z</time>
      </trkpt>
      <trkpt lat="47.35233" lon="6.37483">
        <ele>278.476</ele>
        <time>2016-09-05T14:25:12.000Z</time>
      </trkpt>
      <trkpt lat="47.35231" lon="6.37477">
        <ele>277.285</ele>
        <time>2016-09-05T14:25:13.000Z</time>
      </trkpt>
      <trkpt lat="47.35228" lon="6.37471">
        <ele>277.831</ele>
        <time>2016-09-05T14:25:14.000Z</time>
      </trkpt>
      <trkpt lat="47.35225" lon="6.37466">
        <ele>278.531</ele>
        <time>2016-09-05T14:25:15.000Z</time>
      </trkpt>
      <trkpt lat="47.35223" lon="6.3746">
        <ele>279.113</ele>
        <time>2016-09-05T14:25:16.000Z</time>
      </trkpt>
      <trkpt lat="47.3522" lon="6.37454">
        <ele>279.158</ele>
        <time>2016-09-05T14:25:17.000Z</time>
      </trkpt>
      <trkpt lat="47.35217" lon="6.37449">
        <ele>279.565</ele>
        <time>2016-09-05T14:25:18.000Z</time>
      </trkpt>
      <trkpt lat="47.35215" lon="6.37444">
        <ele>279.754</ele>
        <time>2016-09-05T14:25:19.000Z</time>
      </trkpt>
      <trkpt lat="47.35213" lon="6.37439">
        <ele>280.084</ele>
        <time>2016-09-05T14:25:20.000Z</time>
      </trkpt>
      <trkpt lat="47.3521" lon="6.37434">
        <ele>280.063</ele>
        <time>2016-09-05T14:25:21.000Z</time>
      </trkpt>
      <trkpt lat="47.35206" lon="6.37428">
        <ele>279.309</ele>
        <time>2016-09-05T14:25:22.000Z</time>
      </trkpt>
      <trkpt lat="47.35203" lon="6.37422">
        <ele>279.921</ele>
        <time>2016-09-05T14:25:23.000Z</time>
      </trkpt>
      <trkpt lat="47.352" lon="6.37418">
        <ele>279.566</ele>
        <time>2016-09-05T14:25:24.000Z</time>
      </trkpt>
      <trkpt lat="47.35198" lon="6.37413">
        <ele>283.096</ele>
        <time>2016-09-05T14:25:25.000Z</time>
      </trkpt>
      <trkpt lat="47.35196" lon="6.37409">
        <ele>283.137</ele>
        <time>2016-09-05T14:25:26.000Z</time>
      </trkpt>
      <trkpt lat="47.35194" lon="6.37404">
        <ele>283.061</ele>
        <time>2016-09-05T14:25:27.000Z</time>
      </trkpt>
      <trkpt lat="47.3519" lon="6.37398">
        <ele>279.843</ele>
        <time>2016-09-05T14:25:28.000Z</time>
      </trkpt>
      <trkpt lat="47.35187" lon="6.37393">
        <ele>278.894</ele>
        <time>2016-09-05T14:25:29.000Z</time>
      </trkpt>
      <trkpt lat="47.35183" lon="6.37389">
        <ele>277.84</ele>
        <time>2016-09-05T14:25:30.000Z</time>
      </trkpt>
      <trkpt lat="47.3518" lon="6.37385">
        <ele>277.773</ele>
        <time>2016-09-05T14:25:31.000Z</time>
      </trkpt>
      <trkpt lat="47.35178" lon="6.3738">
        <ele>277.981</ele>
        <time>2016-09-05T14:25:32.000Z</time>
      </trkpt>
      <trkpt lat="47.35174" lon="6.37374">
        <ele>278.269</ele>
        <time>2016-09-05T14:25:33.000Z</time>
      </trkpt>
      <trkpt lat="47.35171" lon="6.37369">
        <ele>278.611</ele>
        <time>2016-09-05T14:25:34.000Z</time>
      </trkpt>
      <trkpt lat="47.35167" lon="6.37365">
        <ele>278.239</ele>
        <time>2016-09-05T14:25:35.000Z</time>
      </trkpt>
      <trkpt lat="47.35164" lon="6.37362">
        <ele>277.959</ele>
        <time>2016-09-05T14:25:36.000Z</time>
      </trkpt>
      <trkpt lat="47.35161" lon="6.37359">
        <ele>278.409</ele>
        <time>2016-09-05T14:25:37.000Z</time>
      </trkpt>
      <trkpt lat="47.35158" lon="6.37356">
        <ele>277.228</ele>
        <time>2016-09-05T14:25:38.000Z</time>
      </trkpt>
      <trkpt lat="47.35155" lon="6.37354">
        <ele>276.345</ele>
        <time>2016-09-05T14:25:39.000Z</time>
      </trkpt>
      <trkpt lat="47.35151" lon="6.37351">
        <ele>276.487</ele>
        <time>2016-09-05T14:25:40.000Z</time>
      </trkpt>
      <trkpt lat="47.35148" lon="6.37349">
        <ele>276.418</ele>
        <time>2016-09-05T14:25:41.000Z</time>
      </trkpt>
      <trkpt lat="47.35146" lon="6.37347">
        <ele>276.011</ele>
        <time>2016-09-05T14:25:42.000Z</time>
      </trkpt>
      <trkpt lat="47.35144" lon="6.37345">
        <ele>275.208</ele>
        <time>2016-09-05T14:25:43.000Z</time>
      </trkpt>
      <trkpt lat="47.35142" lon="6.37344">
        <ele>274.652</ele>
        <time>2016-09-05T14:25:44.000Z</time>
      </trkpt>
      <trkpt lat="47.35141" lon="6.37344">
        <ele>274.601</ele>
        <time>2016-09-05T14:25:45.000Z</time>
      </trkpt>
      <trkpt lat="47.3514" lon="6.37344">
        <ele>275.275</ele>
        <time>2016-09-05T14:25:46.000Z</time>
      </trkpt>
      <trkpt lat="47.35139" lon="6.37344">
        <ele>275.138</ele>
        <time>2016-09-05T14:25:47.000Z</time>
      </trkpt>
      <trkpt lat="47.35138" lon="6.37344">
        <ele>275.232</ele>
        <time>2016-09-05T14:25:48.000Z</time>
      </trkpt>
      <trkpt lat="47.35137" lon="6.37344">
        <ele>275.613</ele>
        <time>2016-09-05T14:25:49.000Z</time>
      </trkpt>
      <trkpt lat="47.35137" lon="6.37345">
        <ele>275.529</ele>
        <time>2016-09-05T14:25:50.000Z</time>
      </trkpt>
      <trkpt lat="47.35136" lon="6.37345">
        <ele>275.188</ele>
        <time>2016-09-05T14:25:51.000Z</time>
      </trkpt>
      <trkpt lat="47.35136" lon="6.37345">
        <ele>274.951</ele>
        <time>2016-09-05T14:25:52.000Z</time>
      </trkpt>
      <trkpt lat="47.35135" lon="6.37346">
        <ele>274.267</ele>
        <time>2016-09-05T14:25:53.000Z</time>
      </trkpt>
      <trkpt lat="47.35135" lon="6.37346">
        <ele>273.609</ele>
        <time>2016-09-05T14:25:54.000Z</time>
      </trkpt>
      <trkpt lat="47.35134" lon="6.37347">
        <ele>273.558</ele>
        <time>2016-09-05T14:25:55.000Z</time>
      </trkpt>
      <trkpt lat="47.35133" lon="6.37348">
        <ele>273.949</ele>
        <time>2016-09-05T14:25:56.000Z</time>
      </trkpt>
      <trkpt lat="47.35132" lon="6.37348">
        <ele>274.347</ele>
        <time>2016-09-05T14:25:57.000Z</time>
      </trkpt>
      <trkpt lat="47.35132" lon="6.37349">
        <ele>274.233</ele>
        <time>2016-09-05T14:25:58.000Z</time>
      </trkpt>
      <trkpt lat="47.35131" lon="6.3735">
        <ele>273.766</ele>
        <time>2016-09-05T14:25:59.000Z</time>
      </trkpt>
      <trkpt lat="47.35131" lon="6.3735">
        <ele>274.316</ele>
        <time>2016-09-05T14:26:00.000Z</time>
      </trkpt>
      <trkpt lat="47.3513" lon="6.37352">
        <ele>275.82</ele>
        <time>2016-09-05T14:26:01.000Z</time>
      </trkpt>
      <trkpt lat="47.35129" lon="6.37353">
        <ele>275.163</ele>
        <time>2016-09-05T14:26:02.000Z</time>
      </trkpt>
      <trkpt lat="47.35128" lon="6.37354">
        <ele>275.336</ele>
        <time>2016-09-05T14:26:03.000Z</time>
      </trkpt>
      <trkpt lat="47.35127" lon="6.37356">
        <ele>274.942</ele>
        <time>2016-09-05T14:26:04.000Z</time>
      </trkpt>
      <trkpt lat="47.35126" lon="6.37357">
        <ele>274.359</ele>
        <time>2016-09-05T14:26:05.000Z</time>
      </trkpt>
      <trkpt lat="47.35125" lon="6.37359">
        <ele>275.928</ele>
        <time>2016-09-05T14:26:06.000Z</time>
      </trkpt>
      <trkpt lat="47.35124" lon="6.3736">
        <ele>274.729</ele>
        <time>2016-09-05T14:26:07.000Z</time>
      </trkpt>
      <trkpt lat="47.35123" lon="6.37362">
        <ele>274.276</ele>
        <time>2016-09-05T14:26:08.000Z</time>
      </trkpt>
      <trkpt lat="47.35122" lon="6.37364">
        <ele>273.905</ele>
        <time>2016-09-05T14:26:09.000Z</time>
      </trkpt>
      <trkpt lat="47.35121" lon="6.37365">
        <ele>273.96</ele>
        <time>2016-09-05T14:26:10.000Z</time>
      </trkpt>
      <trkpt lat="47.3512" lon="6.37366">
        <ele>273.564</ele>
        <time>2016-09-05T14:26:11.000Z</time>
      </trkpt>
      <trkpt lat="47.3512" lon="6.37367">
        <ele>273.234</ele>
        <time>2016-09-05T14:26:12.000Z</time>
      </trkpt>
      <trkpt lat="47.35119" lon="6.37369">
        <ele>275.256</ele>
        <time>2016-09-05T14:26:13.000Z</time>
      </trkpt>
      <trkpt lat="47.35118" lon="6.3737">
        <ele>274.866</ele>
        <time>2016-09-05T14:26:14.000Z</time>
      </trkpt>
      <trkpt lat="47.35117" lon="6.37371">
        <ele>276.589</ele>
        <time>2016-09-05T14:26:15.000Z</time>
      </trkpt>
      <trkpt lat="47.35116" lon="6.37372">
        <ele>273.874</ele>
        <time>2016-09-05T14:26:16.000Z</time>
      </trkpt>
      <trkpt lat="47.35115" lon="6.37374">
        <ele>273.63</ele>
        <time>2016-09-05T14:26:17.000Z</time>
      </trkpt>
      <trkpt lat="47.35114" lon="6.37375">
        <ele>274.488</ele>
        <time>2016-09-05T14:26:18.000Z</time>
      </trkpt>
      <trkpt lat="47.35113" lon="6.37377">
        <ele>277.108</ele>
        <time>2016-09-05T14:26:19.000Z</time>
      </trkpt>
      <trkpt lat="47.35112" lon="6.37378">
        <ele>277.122</ele>
        <time>2016-09-05T14:26:20.000Z</time>
      </trkpt>
      <trkpt lat="47.35111" lon="6.37379">
        <ele>277.688</ele>
        <time>2016-09-05T14:26:21.000Z</time>
      </trkpt>
      <trkpt lat="47.3511" lon="6.37379">
        <ele>278.578</ele>
        <time>2016-09-05T14:26:22.000Z</time>
      </trkpt>
      <trkpt lat="47.35109" lon="6.3738">
        <ele>278.156</ele>
        <time>2016-09-05T14:26:23.000Z</time>
      </trkpt>
      <trkpt lat="47.35108" lon="6.3738">
        <ele>276.26</ele>
        <time>2016-09-05T14:26:24.000Z</time>
      </trkpt>
      <trkpt lat="47.35107" lon="6.3738">
        <ele>276.218</ele>
        <time>2016-09-05T14:26:25.000Z</time>
      </trkpt>
      <trkpt lat="47.35106" lon="6.3738">
        <ele>274.327</ele>
        <time>2016-09-05T14:26:26.000Z</time>
      </trkpt>
      <trkpt lat="47.35104" lon="6.3738">
        <ele>276.766</ele>
        <time>2016-09-05T14:26:27.000Z</time>
      </trkpt>
      <trkpt lat="47.35103" lon="6.37381">
        <ele>277.26</ele>
        <time>2016-09-05T14:26:28.000Z</time>
      </trkpt>
      <trkpt lat="47.35102" lon="6.37381">
        <ele>276.68</ele>
        <time>2016-09-05T14:26:29.000Z</time>
      </trkpt>
      <trkpt lat="47.35101" lon="6.37381">
        <ele>274.772</ele>
        <time>2016-09-05T14:26:30.000Z</time>
      </trkpt>
      <trkpt lat="47.351" lon="6.3738">
        <ele>275.344</ele>
        <time>2016-09-05T14:26:31.000Z</time>
      </trkpt>
      <trkpt lat="47.35099" lon="6.37379">
        <ele>276.688</ele>
        <time>2016-09-05T14:26:32.000Z</time>
      </trkpt>
      <trkpt lat="47.35098" lon="6.37377">
        <ele>275.723</ele>
        <time>2016-09-05T14:26:33.000Z</time>
      </trkpt>
      <trkpt lat="47.35097" lon="6.37376">
        <ele>275.459</ele>
        <time>2016-09-05T14:26:34.000Z</time>
      </trkpt>
      <trkpt lat="47.35096" lon="6.37374">
        <ele>273.807</ele>
        <time>2016-09-05T14:26:35.000Z</time>
      </trkpt>
      <trkpt lat="47.35094" lon="6.37372">
        <ele>275.907</ele>
        <time>2016-09-05T14:26:36.000Z</time>
      </trkpt>
      <trkpt lat="47.35093" lon="6.37369">
        <ele>276.139</ele>
        <time>2016-09-05T14:26:37.000Z</time>
      </trkpt>
      <trkpt lat="47.35092" lon="6.37367">
        <ele>276.041</ele>
        <time>2016-09-05T14:26:38.000Z</time>
      </trkpt>
      <trkpt lat="47.35091" lon="6.37365">
        <ele>275.886</ele>
        <time>2016-09-05T14:26:39.000Z</time>
      </trkpt>
      <trkpt lat="47.3509" lon="6.37363">
        <ele>276.081</ele>
        <time>2016-09-05T14:26:40.000Z</time>
      </trkpt>
      <trkpt lat="47.35089" lon="6.37361">
        <ele>274.56</ele>
        <time>2016-09-05T14:26:41.000Z</time>
      </trkpt>
      <trkpt lat="47.35087" lon="6.37359">
        <ele>275.119</ele>
        <time>2016-09-05T14:26:42.000Z</time>
      </trkpt>
      <trkpt lat="47.35086" lon="6.37357">
        <ele>275.289</ele>
        <time>2016-09-05T14:26:43.000Z</time>
      </trkpt>
      <trkpt lat="47.35084" lon="6.37356">
        <ele>275.767</ele>
        <time>2016-09-05T14:26:44.000Z</time>
      </trkpt>
      <trkpt lat="47.35082" lon="6.37354">
        <ele>275.461</ele>
        <time>2016-09-05T14:26:45.000Z</time>
      </trkpt>
      <trkpt lat="47.3508" lon="6.37352">
        <ele>275.573</ele>
        <time>2016-09-05T14:26:46.000Z</time>
      </trkpt>
      <trkpt lat="47.35078" lon="6.37351">
        <ele>274.796</ele>
        <time>2016-09-05T14:26:47.000Z</time>
      </trkpt>
      <trkpt lat="47.35076" lon="6.3735">
        <ele>274.5</ele>
        <time>2016-09-05T14:26:48.000Z</time>
      </trkpt>
      <trkpt lat="47.35074" lon="6.37349">
        <ele>273.923</ele>
        <time>2016-09-05T14:26:49.000Z</time>
      </trkpt>
      <trkpt lat="47.35072" lon="6.37348">
        <ele>273.109</ele>
        <time>2016-09-05T14:26:50.000Z</time>
      </trkpt>
      <trkpt lat="47.3507" lon="6.37347">
        <ele>272.485</ele>
        <time>2016-09-05T14:26:51.000Z</time>
      </trkpt>
      <trkpt lat="47.35068" lon="6.37346">
        <ele>272.517</ele>
        <time>2016-09-05T14:26:52.000Z</time>
      </trkpt>
      <trkpt lat="47.35066" lon="6.37346">
        <ele>273.327</ele>
        <time>2016-09-05T14:26:53.000Z</time>
      </trkpt>
      <trkpt lat="47.35065" lon="6.37345">
        <ele>273.363</ele>
        <time>2016-09-05T14:26:54.000Z</time>
      </trkpt>
      <trkpt lat="47.35064" lon="6.37345">
        <ele>271.231</ele>
        <time>2016-09-05T14:26:55.000Z</time>
      </trkpt>
      <trkpt lat="47.35064" lon="6.37345">
        <ele>271.508</ele>
        <time>2016-09-05T14:26:56.000Z</time>
      </trkpt>
      <trkpt lat="47.35065" lon="6.37345">
        <ele>272.388</ele>
        <time>2016-09-05T14:26:57.000Z</time>
      </trkpt>
      <trkpt lat="47.35065" lon="6.37346">
        <ele>270.864</ele>
        <time>2016-09-05T14:26:58.000Z</time>
      </trkpt>
      <trkpt lat="47.35065" lon="6.37346">
        <ele>270.837</ele>
        <time>2016-09-05T14:26:59.000Z</time>
      </trkpt>
      <trkpt lat="47.35065" lon="6.37346">
        <ele>271.7</ele>
        <time>2016-09-05T14:27:00.000Z</time>
      </trkpt>
      <trkpt lat="47.35065" lon="6.37346">
        <ele>271.522</ele>
        <time>2016-09-05T14:27:01.000Z</time>
      </trkpt>
      <trkpt lat="47.35065" lon="6.37346">
        <ele>272.854</ele>
        <time>2016-09-05T14:27:02.000Z</time>
      </trkpt>
      <trkpt lat="47.35066" lon="6.37347">
        <ele>273.375</ele>
        <time>2016-09-05T14:27:03.000Z</time>
      </trkpt>
      <trkpt lat="47.35066" lon="6.37347">
        <ele>272.801</ele>
        <time>2016-09-05T14:27:04.000Z</time>
      </trkpt>
      <trkpt lat="47.35066" lon="6.37347">
        <ele>272.881</ele>
        <time>2016-09-05T14:27:05.000Z</time>
      </trkpt>
      <trkpt lat="47.35067" lon="6.37349">
        <ele>274.11</ele>
        <time>2016-09-05T14:27:06.000Z</time>
      </trkpt>
      <trkpt lat="47.35067" lon="6.37349">
        <ele>274.421</ele>
        <time>2016-09-05T14:27:07.000Z</time>
      </trkpt>
      <trkpt lat="47.35067" lon="6.37349">
        <ele>275.1</ele>
        <time>2016-09-05T14:27:08.000Z</time>
      </trkpt>
      <trkpt lat="47.35067" lon="6.37349">
        <ele>275.658</ele>
        <time>2016-09-05T14:27:09.000Z</time>
      </trkpt>
      <trkpt lat="47.35067" lon="6.37349">
        <ele>275.51</ele>
        <time>2016-09-05T14:27:10.000Z</time>
      </trkpt>
      <trkpt lat="47.35067" lon="6.37349">
        <ele>275.215</ele>
        <time>2016-09-05T14:27:11.000Z</time>
      </trkpt>
      <trkpt lat="47.35067" lon="6.37349">
        <ele>275.114</ele>
        <time>2016-09-05T14:27:12.000Z</time>
      </trkpt>
      <trkpt lat="47.35067" lon="6.37349">
        <ele>275.654</ele>
        <time>2016-09-05T14:27:13.000Z</time>
      </trkpt>
      <trkpt lat="47.35068" lon="6.37349">
        <ele>275.465</ele>
        <time>2016-09-05T14:27:14.000Z</time>
      </trkpt>
      <trkpt lat="47.35068" lon="6.37349">
        <ele>275.802</ele>
        <time>2016-09-05T14:27:15.000Z</time>
      </trkpt>
      <trkpt lat="47.35068" lon="6.37349">
        <ele>276.913</ele>
        <time>2016-09-05T14:27:16.000Z</time>
      </trkpt>
      <trkpt lat="47.35068" lon="6.37349">
        <ele>277.645</ele>
        <time>2016-09-05T14:27:17.000Z</time>
      </trkpt>
      <trkpt lat="47.35067" lon="6.3735">
        <ele>276.467</ele>
        <time>2016-09-05T14:27:18.000Z</time>
      </trkpt>
      <trkpt lat="47.35066" lon="6.3735">
        <ele>276.375</ele>
        <time>2016-09-05T14:27:19.000Z</time>
      </trkpt>
      <trkpt lat="47.35066" lon="6.3735">
        <ele>275.518</ele>
        <time>2016-09-05T14:27:20.000Z</time>
      </trkpt>
      <trkpt lat="47.35065" lon="6.3735">
        <ele>274.503</ele>
        <time>2016-09-05T14:27:21.000Z</time>
      </trkpt>
      <trkpt lat="47.35063" lon="6.3735">
        <ele>274.549</ele>
        <time>2016-09-05T14:27:22.000Z</time>
      </trkpt>
      <trkpt lat="47.35061" lon="6.3735">
        <ele>271.584</ele>
        <time>2016-09-05T14:27:23.000Z</time>
      </trkpt>
      <trkpt lat="47.35059" lon="6.37351">
        <ele>270.277</ele>
        <time>2016-09-05T14:27:24.000Z</time>
      </trkpt>
      <trkpt lat="47.35056" lon="6.37351">
        <ele>268.667</ele>
        <time>2016-09-05T14:27:25.000Z</time>
      </trkpt>
      <trkpt lat="47.35053" lon="6.37351">
        <ele>269.066</ele>
        <time>2016-09-05T14:27:26.000Z</time>
      </trkpt>
      <trkpt lat="47.3505" lon="6.37352">
        <ele>268.821</ele>
        <time>2016-09-05T14:27:27.000Z</time>
      </trkpt>
      <trkpt lat="47.35047" lon="6.37354">
        <ele>268.203</ele>
        <time>2016-09-05T14:27:28.000Z</time>
      </trkpt>
      <trkpt lat="47.35044" lon="6.37355">
        <ele>267.133</ele>
        <time>2016-09-05T14:27:29.000Z</time>
      </trkpt>
      <trkpt lat="47.3504" lon="6.37356">
        <ele>265.837</ele>
        <time>2016-09-05T14:27:30.000Z</time>
      </trkpt>
      <trkpt lat="47.35037" lon="6.37359">
        <ele>265.76</ele>
        <time>2016-09-05T14:27:31.000Z</time>
      </trkpt>
      <trkpt lat="47.35032" lon="6.37361">
        <ele>268.076</ele>
        <time>2016-09-05T14:27:32.000Z</time>
      </trkpt>
      <trkpt lat="47.35026" lon="6.37362">
        <ele>266.344</ele>
        <time>2016-09-05T14:27:33.000Z</time>
      </trkpt>
      <trkpt lat="47.35022" lon="6.37364">
        <ele>266.065</ele>
        <time>2016-09-05T14:27:34.000Z</time>
      </trkpt>
      <trkpt lat="47.35017" lon="6.37365">
        <ele>266.275</ele>
        <time>2016-09-05T14:27:35.000Z</time>
      </trkpt>
      <trkpt lat="47.35013" lon="6.37367">
        <ele>266.828</ele>
        <time>2016-09-05T14:27:36.000Z</time>
      </trkpt>
      <trkpt lat="47.35009" lon="6.37368">
        <ele>266.699</ele>
        <time>2016-09-05T14:27:37.000Z</time>
      </trkpt>
      <trkpt lat="47.35005" lon="6.37369">
        <ele>266.808</ele>
        <time>2016-09-05T14:27:38.000Z</time>
      </trkpt>
      <trkpt lat="47.35" lon="6.3737">
        <ele>267.087</ele>
        <time>2016-09-05T14:27:39.000Z</time>
      </trkpt>
      <trkpt lat="47.34996" lon="6.37372">
        <ele>267.359</ele>
        <time>2016-09-05T14:27:40.000Z</time>
      </trkpt>
      <trkpt lat="47.34992" lon="6.37374">
        <ele>267.547</ele>
        <time>2016-09-05T14:27:41.000Z</time>
      </trkpt>
      <trkpt lat="47.34987" lon="6.37375">
        <ele>267.143</ele>
        <time>2016-09-05T14:27:42.000Z</time>
      </trkpt>
      <trkpt lat="47.34983" lon="6.37377">
        <ele>268.189</ele>
        <time>2016-09-05T14:27:43.000Z</time>
      </trkpt>
      <trkpt lat="47.34979" lon="6.37379">
        <ele>269.483</ele>
        <time>2016-09-05T14:27:44.000Z</time>
      </trkpt>
      <trkpt lat="47.34975" lon="6.37381">
        <ele>270.368</ele>
        <time>2016-09-05T14:27:45.000Z</time>
      </trkpt>
      <trkpt lat="47.34971" lon="6.37383">
        <ele>269.779</ele>
        <time>2016-09-05T14:27:46.000Z</time>
      </trkpt>
      <trkpt lat="47.34967" lon="6.37384">
        <ele>269.714</ele>
        <time>2016-09-05T14:27:47.000Z</time>
      </trkpt>
      <trkpt lat="47.34964" lon="6.37385">
        <ele>269.801</ele>
        <time>2016-09-05T14:27:48.000Z</time>
      </trkpt>
      <trkpt lat="47.34961" lon="6.37386">
        <ele>270.128</ele>
        <time>2016-09-05T14:27:49.000Z</time>
      </trkpt>
      <trkpt lat="47.34958" lon="6.37388">
        <ele>270.766</ele>
        <time>2016-09-05T14:27:50.000Z</time>
      </trkpt>
      <trkpt lat="47.34955" lon="6.37389">
        <ele>271.246</ele>
        <time>2016-09-05T14:27:51.000Z</time>
      </trkpt>
      <trkpt lat="47.34952" lon="6.37391">
        <ele>271.729</ele>
        <time>2016-09-05T14:27:52.000Z</time>
      </trkpt>
      <trkpt lat="47.34949" lon="6.37392">
        <ele>272.254</ele>
        <time>2016-09-05T14:27:53.000Z</time>
      </trkpt>
      <trkpt lat="47.34946" lon="6.37394">
        <ele>272.481</ele>
        <time>2016-09-05T14:27:54.000Z</time>
      </trkpt>
      <trkpt lat="47.34944" lon="6.37396">
        <ele>272.938</ele>
        <time>2016-09-05T14:27:55.000Z</time>
      </trkpt>
      <trkpt lat="47.34941" lon="6.37397">
        <ele>272.34</ele>
        <time>2016-09-05T14:27:56.000Z</time>
      </trkpt>
      <trkpt lat="47.34938" lon="6.37399">
        <ele>273</ele>
        <time>2016-09-05T14:27:57.000Z</time>
      </trkpt>
      <trkpt lat="47.34934" lon="6.37401">
        <ele>272.309</ele>
        <time>2016-09-05T14:27:58.000Z</time>
      </trkpt>
      <trkpt lat="47.34931" lon="6.37402">
        <ele>272.321</ele>
        <time>2016-09-05T14:27:59.000Z</time>
      </trkpt>
      <trkpt lat="47.34928" lon="6.37404">
        <ele>272.308</ele>
        <time>2016-09-05T14:28:00.000Z</time>
      </trkpt>
      <trkpt lat="47.34925" lon="6.37405">
        <ele>272.73</ele>
        <time>2016-09-05T14:28:01.000Z</time>
      </trkpt>
      <trkpt lat="47.34922" lon="6.37407">
        <ele>272.391</ele>
        <time>2016-09-05T14:28:02.000Z</time>
      </trkpt>
      <trkpt lat="47.34918" lon="6.37408">
        <ele>272.56</ele>
        <time>2016-09-05T14:28:03.000Z</time>
      </trkpt>
      <trkpt lat="47.34915" lon="6.37409">
        <ele>273.685</ele>
        <time>2016-09-05T14:28:04.000Z</time>
      </trkpt>
      <trkpt lat="47.34911" lon="6.37411">
        <ele>273.817</ele>
        <time>2016-09-05T14:28:05.000Z</time>
      </trkpt>
      <trkpt lat="47.34908" lon="6.37412">
        <ele>273.916</ele>
        <time>2016-09-05T14:28:06.000Z</time>
      </trkpt>
      <trkpt lat="47.34905" lon="6.37413">
        <ele>274.613</ele>
        <time>2016-09-05T14:28:07.000Z</time>
      </trkpt>
      <trkpt lat="47.34902" lon="6.37415">
        <ele>274.423</ele>
        <time>2016-09-05T14:28:08.000Z</time>
      </trkpt>
      <trkpt lat="47.34898" lon="6.37416">
        <ele>274.723</ele>
        <time>2016-09-05T14:28:09.000Z</time>
      </trkpt>
      <trkpt lat="47.34895" lon="6.37417">
        <ele>275.84</ele>
        <time>2016-09-05T14:28:10.000Z</time>
      </trkpt>
      <trkpt lat="47.34891" lon="6.37418">
        <ele>276.458</ele>
        <time>2016-09-05T14:28:11.000Z</time>
      </trkpt>
      <trkpt lat="47.34888" lon="6.3742">
        <ele>276.641</ele>
        <time>2016-09-05T14:28:12.000Z</time>
      </trkpt>
      <trkpt lat="47.34885" lon="6.37421">
        <ele>277.021</ele>
        <time>2016-09-05T14:28:13.000Z</time>
      </trkpt>
      <trkpt lat="47.34881" lon="6.37423">
        <ele>276.2</ele>
        <time>2016-09-05T14:28:14.000Z</time>
      </trkpt>
      <trkpt lat="47.34877" lon="6.37424">
        <ele>276.706</ele>
        <time>2016-09-05T14:28:15.000Z</time>
      </trkpt>
      <trkpt lat="47.34873" lon="6.37425">
        <ele>275.708</ele>
        <time>2016-09-05T14:28:16.000Z</time>
      </trkpt>
      <trkpt lat="47.34869" lon="6.37426">
        <ele>276.587</ele>
        <time>2016-09-05T14:28:17.000Z</time>
      </trkpt>
      <trkpt lat="47.34864" lon="6.37427">
        <ele>276.344</ele>
        <time>2016-09-05T14:28:18.000Z</time>
      </trkpt>
      <trkpt lat="47.3486" lon="6.37428">
        <ele>276.813</ele>
        <time>2016-09-05T14:28:19.000Z</time>
      </trkpt>
      <trkpt lat="47.34856" lon="6.37429">
        <ele>277.176</ele>
        <time>2016-09-05T14:28:20.000Z</time>
      </trkpt>
      <trkpt lat="47.34851" lon="6.3743">
        <ele>277.114</ele>
        <time>2016-09-05T14:28:21.000Z</time>
      </trkpt>
      <trkpt lat="47.34847" lon="6.37431">
        <ele>277.327</ele>
        <time>2016-09-05T14:28:22.000Z</time>
      </trkpt>
      <trkpt lat="47.34843" lon="6.37432">
        <ele>277.02</ele>
        <time>2016-09-05T14:28:23.000Z</time>
      </trkpt>
      <trkpt lat="47.34838" lon="6.37433">
        <ele>277.875</ele>
        <time>2016-09-05T14:28:24.000Z</time>
      </trkpt>
      <trkpt lat="47.34834" lon="6.37433">
        <ele>278.11</ele>
        <time>2016-09-05T14:28:25.000Z</time>
      </trkpt>
      <trkpt lat="47.34829" lon="6.37434">
        <ele>277.795</ele>
        <time>2016-09-05T14:28:26.000Z</time>
      </trkpt>
      <trkpt lat="47.34824" lon="6.37434">
        <ele>277.53</ele>
        <time>2016-09-05T14:28:27.000Z</time>
      </trkpt>
      <trkpt lat="47.3482" lon="6.37435">
        <ele>276.447</ele>
        <time>2016-09-05T14:28:28.000Z</time>
      </trkpt>
      <trkpt lat="47.34815" lon="6.37435">
        <ele>276.168</ele>
        <time>2016-09-05T14:28:29.000Z</time>
      </trkpt>
      <trkpt lat="47.34811" lon="6.37434">
        <ele>276.045</ele>
        <time>2016-09-05T14:28:30.000Z</time>
      </trkpt>
      <trkpt lat="47.34806" lon="6.37434">
        <ele>276.371</ele>
        <time>2016-09-05T14:28:31.000Z</time>
      </trkpt>
      <trkpt lat="47.34802" lon="6.37435">
        <ele>276.389</ele>
        <time>2016-09-05T14:28:32.000Z</time>
      </trkpt>
      <trkpt lat="47.34797" lon="6.37433">
        <ele>276.477</ele>
        <time>2016-09-05T14:28:33.000Z</time>
      </trkpt>
      <trkpt lat="47.34792" lon="6.37433">
        <ele>276.079</ele>
        <time>2016-09-05T14:28:34.000Z</time>
      </trkpt>
      <trkpt lat="47.34787" lon="6.37433">
        <ele>276.168</ele>
        <time>2016-09-05T14:28:35.000Z</time>
      </trkpt>
      <trkpt lat="47.34781" lon="6.37433">
        <ele>274.612</ele>
        <time>2016-09-05T14:28:36.000Z</time>
      </trkpt>
      <trkpt lat="47.34777" lon="6.37433">
        <ele>274.059</ele>
        <time>2016-09-05T14:28:37.000Z</time>
      </trkpt>
      <trkpt lat="47.34772" lon="6.37434">
        <ele>273.84</ele>
        <time>2016-09-05T14:28:38.000Z</time>
      </trkpt>
      <trkpt lat="47.34768" lon="6.37434">
        <ele>274.236</ele>
        <time>2016-09-05T14:28:39.000Z</time>
      </trkpt>
      <trkpt lat="47.34762" lon="6.37433">
        <ele>273.909</ele>
        <time>2016-09-05T14:28:40.000Z</time>
      </trkpt>
      <trkpt lat="47.34758" lon="6.37433">
        <ele>273.997</ele>
        <time>2016-09-05T14:28:41.000Z</time>
      </trkpt>
      <trkpt lat="47.34753" lon="6.37434">
        <ele>273.968</ele>
        <time>2016-09-05T14:28:42.000Z</time>
      </trkpt>
      <trkpt lat="47.34749" lon="6.37433">
        <ele>273.659</ele>
        <time>2016-09-05T14:28:43.000Z</time>
      </trkpt>
      <trkpt lat="47.34745" lon="6.37433">
        <ele>273.805</ele>
        <time>2016-09-05T14:28:44.000Z</time>
      </trkpt>
      <trkpt lat="47.3474" lon="6.37433">
        <ele>273.761</ele>
        <time>2016-09-05T14:28:45.000Z</time>
      </trkpt>
      <trkpt lat="47.34737" lon="6.37434">
        <ele>273.982</ele>
        <time>2016-09-05T14:28:46.000Z</time>
      </trkpt>
      <trkpt lat="47.34732" lon="6.37434">
        <ele>274.278</ele>
        <time>2016-09-05T14:28:47.000Z</time>
      </trkpt>
      <trkpt lat="47.34728" lon="6.37433">
        <ele>273.734</ele>
        <time>2016-09-05T14:28:48.000Z</time>
      </trkpt>
      <trkpt lat="47.34723" lon="6.37433">
        <ele>273.967</ele>
        <time>2016-09-05T14:28:49.000Z</time>
      </trkpt>
      <trkpt lat="47.34719" lon="6.37434">
        <ele>274.082</ele>
        <time>2016-09-05T14:28:50.000Z</time>
      </trkpt>
      <trkpt lat="47.34715" lon="6.37433">
        <ele>273.905</ele>
        <time>2016-09-05T14:28:51.000Z</time>
      </trkpt>
      <trkpt lat="47.34711" lon="6.37433">
        <ele>273.434</ele>
        <time>2016-09-05T14:28:52.000Z</time>
      </trkpt>
      <trkpt lat="47.34705" lon="6.37433">
        <ele>273.448</ele>
        <time>2016-09-05T14:28:53.000Z</time>
      </trkpt>
      <trkpt lat="47.34701" lon="6.37433">
        <ele>272.709</ele>
        <time>2016-09-05T14:28:54.000Z</time>
      </trkpt>
      <trkpt lat="47.34696" lon="6.3743">
        <ele>272.442</ele>
        <time>2016-09-05T14:28:55.000Z</time>
      </trkpt>
      <trkpt lat="47.34692" lon="6.3743">
        <ele>271.474</ele>
        <time>2016-09-05T14:28:56.000Z</time>
      </trkpt>
      <trkpt lat="47.34688" lon="6.3743">
        <ele>272.214</ele>
        <time>2016-09-05T14:28:57.000Z</time>
      </trkpt>
      <trkpt lat="47.34684" lon="6.37431">
        <ele>272.177</ele>
        <time>2016-09-05T14:28:58.000Z</time>
      </trkpt>
      <trkpt lat="47.3468" lon="6.3743">
        <ele>272.748</ele>
        <time>2016-09-05T14:28:59.000Z</time>
      </trkpt>
      <trkpt lat="47.34674" lon="6.37428">
        <ele>270.66</ele>
        <time>2016-09-05T14:29:00.000Z</time>
      </trkpt>
      <trkpt lat="47.3467" lon="6.37428">
        <ele>269.609</ele>
        <time>2016-09-05T14:29:01.000Z</time>
      </trkpt>
      <trkpt lat="47.34666" lon="6.37427">
        <ele>269.656</ele>
        <time>2016-09-05T14:29:02.000Z</time>
      </trkpt>
      <trkpt lat="47.34662" lon="6.37428">
        <ele>271.483</ele>
        <time>2016-09-05T14:29:03.000Z</time>
      </trkpt>
      <trkpt lat="47.34658" lon="6.37427">
        <ele>269.02</ele>
        <time>2016-09-05T14:29:04.000Z</time>
      </trkpt>
      <trkpt lat="47.34654" lon="6.37426">
        <ele>268.98</ele>
        <time>2016-09-05T14:29:05.000Z</time>
      </trkpt>
      <trkpt lat="47.3465" lon="6.37425">
        <ele>268.299</ele>
        <time>2016-09-05T14:29:06.000Z</time>
      </trkpt>
      <trkpt lat="47.34646" lon="6.37424">
        <ele>268.759</ele>
        <time>2016-09-05T14:29:07.000Z</time>
      </trkpt>
      <trkpt lat="47.34642" lon="6.37422">
        <ele>268.11</ele>
        <time>2016-09-05T14:29:08.000Z</time>
      </trkpt>
      <trkpt lat="47.34638" lon="6.3742">
        <ele>266.883</ele>
        <time>2016-09-05T14:29:09.000Z</time>
      </trkpt>
      <trkpt lat="47.34633" lon="6.37418">
        <ele>266.839</ele>
        <time>2016-09-05T14:29:10.000Z</time>
      </trkpt>
      <trkpt lat="47.34629" lon="6.37416">
        <ele>266.88</ele>
        <time>2016-09-05T14:29:11.000Z</time>
      </trkpt>
      <trkpt lat="47.34625" lon="6.37414">
        <ele>267.48</ele>
        <time>2016-09-05T14:29:12.000Z</time>
      </trkpt>
      <trkpt lat="47.34621" lon="6.37412">
        <ele>265.842</ele>
        <time>2016-09-05T14:29:13.000Z</time>
      </trkpt>
      <trkpt lat="47.34617" lon="6.37411">
        <ele>265.234</ele>
        <time>2016-09-05T14:29:14.000Z</time>
      </trkpt>
      <trkpt lat="47.34612" lon="6.37409">
        <ele>265.966</ele>
        <time>2016-09-05T14:29:15.000Z</time>
      </trkpt>
      <trkpt lat="47.34608" lon="6.37407">
        <ele>264.529</ele>
        <time>2016-09-05T14:29:16.000Z</time>
      </trkpt>
      <trkpt lat="47.34605" lon="6.37406">
        <ele>263.568</ele>
        <time>2016-09-05T14:29:17.000Z</time>
      </trkpt>
      <trkpt lat="47.34601" lon="6.37404">
        <ele>263.382</ele>
        <time>2016-09-05T14:29:18.000Z</time>
      </trkpt>
      <trkpt lat="47.34597" lon="6.37403">
        <ele>263.212</ele>
        <time>2016-09-05T14:29:19.000Z</time>
      </trkpt>
      <trkpt lat="47.34593" lon="6.37401">
        <ele>264.121</ele>
        <time>2016-09-05T14:29:20.000Z</time>
      </trkpt>
      <trkpt lat="47.34589" lon="6.374">
        <ele>264.696</ele>
        <time>2016-09-05T14:29:21.000Z</time>
      </trkpt>
      <trkpt lat="47.34585" lon="6.37399">
        <ele>262.997</ele>
        <time>2016-09-05T14:29:22.000Z</time>
      </trkpt>
      <trkpt lat="47.34581" lon="6.37398">
        <ele>263.476</ele>
        <time>2016-09-05T14:29:23.000Z</time>
      </trkpt>
      <trkpt lat="47.34577" lon="6.37397">
        <ele>263.566</ele>
        <time>2016-09-05T14:29:24.000Z</time>
      </trkpt>
      <trkpt lat="47.34572" lon="6.37396">
        <ele>263.997</ele>
        <time>2016-09-05T14:29:25.000Z</time>
      </trkpt>
      <trkpt lat="47.34568" lon="6.37396">
        <ele>264.801</ele>
        <time>2016-09-05T14:29:26.000Z</time>
      </trkpt>
      <trkpt lat="47.34564" lon="6.37395">
        <ele>265.3</ele>
        <time>2016-09-05T14:29:27.000Z</time>
      </trkpt>
      <trkpt lat="47.3456" lon="6.37395">
        <ele>265.559</ele>
        <time>2016-09-05T14:29:28.000Z</time>
      </trkpt>
      <trkpt lat="47.34556" lon="6.37394">
        <ele>266.273</ele>
        <time>2016-09-05T14:29:29.000Z</time>
      </trkpt>
      <trkpt lat="47.34551" lon="6.37393">
        <ele>266.851</ele>
        <time>2016-09-05T14:29:30.000Z</time>
      </trkpt>
      <trkpt lat="47.34547" lon="6.37392">
        <ele>267.169</ele>
        <time>2016-09-05T14:29:31.000Z</time>
      </trkpt>
      <trkpt lat="47.34543" lon="6.37391">
        <ele>268.489</ele>
        <time>2016-09-05T14:29:32.000Z</time>
      </trkpt>
      <trkpt lat="47.34538" lon="6.37391">
        <ele>268.008</ele>
        <time>2016-09-05T14:29:33.000Z</time>
      </trkpt>
      <trkpt lat="47.34534" lon="6.3739">
        <ele>267.607</ele>
        <time>2016-09-05T14:29:34.000Z</time>
      </trkpt>
      <trkpt lat="47.34529" lon="6.37389">
        <ele>268.76</ele>
        <time>2016-09-05T14:29:35.000Z</time>
      </trkpt>
      <trkpt lat="47.34525" lon="6.37388">
        <ele>267.951</ele>
        <time>2016-09-05T14:29:36.000Z</time>
      </trkpt>
      <trkpt lat="47.34521" lon="6.37387">
        <ele>268.618</ele>
        <time>2016-09-05T14:29:37.000Z</time>
      </trkpt>
      <trkpt lat="47.34517" lon="6.37386">
        <ele>268.537</ele>
        <time>2016-09-05T14:29:38.000Z</time>
      </trkpt>
      <trkpt lat="47.34512" lon="6.37385">
        <ele>269.043</ele>
        <time>2016-09-05T14:29:39.000Z</time>
      </trkpt>
      <trkpt lat="47.34508" lon="6.37384">
        <ele>269.051</ele>
        <time>2016-09-05T14:29:40.000Z</time>
      </trkpt>
      <trkpt lat="47.34504" lon="6.37384">
        <ele>269.299</ele>
        <time>2016-09-05T14:29:41.000Z</time>
      </trkpt>
      <trkpt lat="47.345" lon="6.37384">
        <ele>270.434</ele>
        <time>2016-09-05T14:29:42.000Z</time>
      </trkpt>
      <trkpt lat="47.34496" lon="6.37383">
        <ele>270.177</ele>
        <time>2016-09-05T14:29:43.000Z</time>
      </trkpt>
      <trkpt lat="47.34492" lon="6.37383">
        <ele>271.142</ele>
        <time>2016-09-05T14:29:44.000Z</time>
      </trkpt>
      <trkpt lat="47.34488" lon="6.37383">
        <ele>271.976</ele>
        <time>2016-09-05T14:29:45.000Z</time>
      </trkpt>
      <trkpt lat="47.34484" lon="6.37383">
        <ele>271.812</ele>
        <time>2016-09-05T14:29:46.000Z</time>
      </trkpt>
      <trkpt lat="47.3448" lon="6.37383">
        <ele>272.839</ele>
        <time>2016-09-05T14:29:47.000Z</time>
      </trkpt>
      <trkpt lat="47.34476" lon="6.37384">
        <ele>274.412</ele>
        <time>2016-09-05T14:29:48.000Z</time>
      </trkpt>
      <trkpt lat="47.34473" lon="6.37384">
        <ele>273.403</ele>
        <time>2016-09-05T14:29:49.000Z</time>
      </trkpt>
      <trkpt lat="47.34469" lon="6.37385">
        <ele>273.244</ele>
        <time>2016-09-05T14:29:50.000Z</time>
      </trkpt>
      <trkpt lat="47.34465" lon="6.37385">
        <ele>273.786</ele>
        <time>2016-09-05T14:29:51.000Z</time>
      </trkpt>
      <trkpt lat="47.3446" lon="6.37385">
        <ele>272.62</ele>
        <time>2016-09-05T14:29:52.000Z</time>
      </trkpt>
      <trkpt lat="47.34456" lon="6.37386">
        <ele>272.379</ele>
        <time>2016-09-05T14:29:53.000Z</time>
      </trkpt>
      <trkpt lat="47.34451" lon="6.37386">
        <ele>272.709</ele>
        <time>2016-09-05T14:29:54.000Z</time>
      </trkpt>
      <trkpt lat="47.34447" lon="6.37387">
        <ele>273.639</ele>
        <time>2016-09-05T14:29:55.000Z</time>
      </trkpt>
      <trkpt lat="47.34443" lon="6.37388">
        <ele>273.937</ele>
        <time>2016-09-05T14:29:56.000Z</time>
      </trkpt>
      <trkpt lat="47.34439" lon="6.37389">
        <ele>274.17</ele>
        <time>2016-09-05T14:29:57.000Z</time>
      </trkpt>
      <trkpt lat="47.34434" lon="6.37389">
        <ele>274.036</ele>
        <time>2016-09-05T14:29:58.000Z</time>
      </trkpt>
      <trkpt lat="47.3443" lon="6.3739">
        <ele>271.768</ele>
        <time>2016-09-05T14:29:59.000Z</time>
      </trkpt>
      <trkpt lat="47.34425" lon="6.3739">
        <ele>272.766</ele>
        <time>2016-09-05T14:30:00.000Z</time>
      </trkpt>
      <trkpt lat="47.3442" lon="6.3739">
        <ele>272.644</ele>
        <time>2016-09-05T14:30:01.000Z</time>
      </trkpt>
      <trkpt lat="47.34415" lon="6.3739">
        <ele>271.582</ele>
        <time>2016-09-05T14:30:02.000Z</time>
      </trkpt>
      <trkpt lat="47.34411" lon="6.37391">
        <ele>271.414</ele>
        <time>2016-09-05T14:30:03.000Z</time>
      </trkpt>
      <trkpt lat="47.34406" lon="6.37392">
        <ele>270.734</ele>
        <time>2016-09-05T14:30:04.000Z</time>
      </trkpt>
      <trkpt lat="47.34402" lon="6.37393">
        <ele>270.524</ele>
        <time>2016-09-05T14:30:05.000Z</time>
      </trkpt>
      <trkpt lat="47.34397" lon="6.37394">
        <ele>270.37</ele>
        <time>2016-09-05T14:30:06.000Z</time>
      </trkpt>
      <trkpt lat="47.34393" lon="6.37395">
        <ele>271.095</ele>
        <time>2016-09-05T14:30:07.000Z</time>
      </trkpt>
      <trkpt lat="47.34389" lon="6.37395">
        <ele>270.068</ele>
        <time>2016-09-05T14:30:08.000Z</time>
      </trkpt>
      <trkpt lat="47.34384" lon="6.37395">
        <ele>269.839</ele>
        <time>2016-09-05T14:30:09.000Z</time>
      </trkpt>
      <trkpt lat="47.34379" lon="6.37397">
        <ele>269.085</ele>
        <time>2016-09-05T14:30:10.000Z</time>
      </trkpt>
      <trkpt lat="47.34375" lon="6.37398">
        <ele>268.571</ele>
        <time>2016-09-05T14:30:11.000Z</time>
      </trkpt>
      <trkpt lat="47.3437" lon="6.37399">
        <ele>268.141</ele>
        <time>2016-09-05T14:30:12.000Z</time>
      </trkpt>
      <trkpt lat="47.34365" lon="6.37399">
        <ele>267.831</ele>
        <time>2016-09-05T14:30:13.000Z</time>
      </trkpt>
      <trkpt lat="47.3436" lon="6.37399">
        <ele>267.64</ele>
        <time>2016-09-05T14:30:14.000Z</time>
      </trkpt>
      <trkpt lat="47.34355" lon="6.374">
        <ele>268.187</ele>
        <time>2016-09-05T14:30:15.000Z</time>
      </trkpt>
      <trkpt lat="47.3435" lon="6.37401">
        <ele>268.576</ele>
        <time>2016-09-05T14:30:16.005Z</time>
      </trkpt>
      <trkpt lat="47.34346" lon="6.37403">
        <ele>268.922</ele>
        <time>2016-09-05T14:30:17.000Z</time>
      </trkpt>
      <trkpt lat="47.34341" lon="6.37404">
        <ele>268.703</ele>
        <time>2016-09-05T14:30:18.000Z</time>
      </trkpt>
      <trkpt lat="47.34337" lon="6.37405">
        <ele>268.002</ele>
        <time>2016-09-05T14:30:19.000Z</time>
      </trkpt>
      <trkpt lat="47.34332" lon="6.37407">
        <ele>267.364</ele>
        <time>2016-09-05T14:30:20.000Z</time>
      </trkpt>
      <trkpt lat="47.34328" lon="6.37407">
        <ele>267.381</ele>
        <time>2016-09-05T14:30:21.000Z</time>
      </trkpt>
      <trkpt lat="47.34323" lon="6.37408">
        <ele>266.914</ele>
        <time>2016-09-05T14:30:22.000Z</time>
      </trkpt>
      <trkpt lat="47.34319" lon="6.3741">
        <ele>267.172</ele>
        <time>2016-09-05T14:30:23.000Z</time>
      </trkpt>
      <trkpt lat="47.34314" lon="6.3741">
        <ele>267.152</ele>
        <time>2016-09-05T14:30:24.000Z</time>
      </trkpt>
      <trkpt lat="47.34309" lon="6.3741">
        <ele>267.786</ele>
        <time>2016-09-05T14:30:25.000Z</time>
      </trkpt>
      <trkpt lat="47.34305" lon="6.37409">
        <ele>267.314</ele>
        <time>2016-09-05T14:30:26.000Z</time>
      </trkpt>
      <trkpt lat="47.343" lon="6.37407">
        <ele>268.106</ele>
        <time>2016-09-05T14:30:27.000Z</time>
      </trkpt>
      <trkpt lat="47.34296" lon="6.37406">
        <ele>268.121</ele>
        <time>2016-09-05T14:30:28.000Z</time>
      </trkpt>
      <trkpt lat="47.34293" lon="6.37405">
        <ele>267.701</ele>
        <time>2016-09-05T14:30:29.000Z</time>
      </trkpt>
      <trkpt lat="47.3429" lon="6.37403">
        <ele>266.876</ele>
        <time>2016-09-05T14:30:30.000Z</time>
      </trkpt>
      <trkpt lat="47.34287" lon="6.374">
        <ele>266.198</ele>
        <time>2016-09-05T14:30:31.000Z</time>
      </trkpt>
      <trkpt lat="47.34284" lon="6.37399">
        <ele>265.377</ele>
        <time>2016-09-05T14:30:32.000Z</time>
      </trkpt>
      <trkpt lat="47.3428" lon="6.37397">
        <ele>265.61</ele>
        <time>2016-09-05T14:30:33.000Z</time>
      </trkpt>
      <trkpt lat="47.34277" lon="6.37395">
        <ele>265.513</ele>
        <time>2016-09-05T14:30:34.000Z</time>
      </trkpt>
      <trkpt lat="47.34273" lon="6.37394">
        <ele>265.574</ele>
        <time>2016-09-05T14:30:35.000Z</time>
      </trkpt>
      <trkpt lat="47.3427" lon="6.37392">
        <ele>267.18</ele>
        <time>2016-09-05T14:30:36.000Z</time>
      </trkpt>
      <trkpt lat="47.34267" lon="6.3739">
        <ele>267.576</ele>
        <time>2016-09-05T14:30:37.000Z</time>
      </trkpt>
      <trkpt lat="47.34263" lon="6.3739">
        <ele>267.618</ele>
        <time>2016-09-05T14:30:38.000Z</time>
      </trkpt>
      <trkpt lat="47.34258" lon="6.37389">
        <ele>267.206</ele>
        <time>2016-09-05T14:30:39.000Z</time>
      </trkpt>
      <trkpt lat="47.34254" lon="6.37387">
        <ele>267.007</ele>
        <time>2016-09-05T14:30:40.000Z</time>
      </trkpt>
      <trkpt lat="47.34249" lon="6.37386">
        <ele>266.467</ele>
        <time>2016-09-05T14:30:41.000Z</time>
      </trkpt>
      <trkpt lat="47.34245" lon="6.37384">
        <ele>266.367</ele>
        <time>2016-09-05T14:30:42.000Z</time>
      </trkpt>
      <trkpt lat="47.34241" lon="6.37383">
        <ele>266.716</ele>
        <time>2016-09-05T14:30:43.000Z</time>
      </trkpt>
      <trkpt lat="47.34237" lon="6.37382">
        <ele>266.16</ele>
        <time>2016-09-05T14:30:44.000Z</time>
      </trkpt>
      <trkpt lat="47.34234" lon="6.37381">
        <ele>266.47</ele>
        <time>2016-09-05T14:30:45.000Z</time>
      </trkpt>
      <trkpt lat="47.3423" lon="6.37381">
        <ele>266.831</ele>
        <time>2016-09-05T14:30:46.000Z</time>
      </trkpt>
      <trkpt lat="47.34226" lon="6.3738">
        <ele>266.193</ele>
        <time>2016-09-05T14:30:47.000Z</time>
      </trkpt>
      <trkpt lat="47.34222" lon="6.3738">
        <ele>266.658</ele>
        <time>2016-09-05T14:30:48.000Z</time>
      </trkpt>
      <trkpt lat="47.34218" lon="6.37379">
        <ele>266.838</ele>
        <time>2016-09-05T14:30:49.000Z</time>
      </trkpt>
      <trkpt lat="47.34214" lon="6.37379">
        <ele>266.677</ele>
        <time>2016-09-05T14:30:50.000Z</time>
      </trkpt>
      <trkpt lat="47.3421" lon="6.37379">
        <ele>266.999</ele>
        <time>2016-09-05T14:30:51.000Z</time>
      </trkpt>
      <trkpt lat="47.34206" lon="6.37379">
        <ele>267.226</ele>
        <time>2016-09-05T14:30:52.000Z</time>
      </trkpt>
      <trkpt lat="47.34202" lon="6.37379">
        <ele>267.644</ele>
        <time>2016-09-05T14:30:53.000Z</time>
      </trkpt>
      <trkpt lat="47.34198" lon="6.37378">
        <ele>267.572</ele>
        <time>2016-09-05T14:30:54.000Z</time>
      </trkpt>
      <trkpt lat="47.34194" lon="6.37377">
        <ele>267.922</ele>
        <time>2016-09-05T14:30:55.000Z</time>
      </trkpt>
      <trkpt lat="47.3419" lon="6.37377">
        <ele>268.032</ele>
        <time>2016-09-05T14:30:56.000Z</time>
      </trkpt>
      <trkpt lat="47.34186" lon="6.37376">
        <ele>268.285</ele>
        <time>2016-09-05T14:30:57.000Z</time>
      </trkpt>
      <trkpt lat="47.34182" lon="6.37375">
        <ele>268.491</ele>
        <time>2016-09-05T14:30:58.000Z</time>
      </trkpt>
      <trkpt lat="47.34179" lon="6.37375">
        <ele>268.639</ele>
        <time>2016-09-05T14:30:59.000Z</time>
      </trkpt>
      <trkpt lat="47.34176" lon="6.37374">
        <ele>268.301</ele>
        <time>2016-09-05T14:31:00.000Z</time>
      </trkpt>
      <trkpt lat="47.34173" lon="6.37373">
        <ele>268.671</ele>
        <time>2016-09-05T14:31:01.000Z</time>
      </trkpt>
      <trkpt lat="47.3417" lon="6.37371">
        <ele>269.684</ele>
        <time>2016-09-05T14:31:02.000Z</time>
      </trkpt>
      <trkpt lat="47.34168" lon="6.37369">
        <ele>269.262</ele>
        <time>2016-09-05T14:31:03.000Z</time>
      </trkpt>
      <trkpt lat="47.34166" lon="6.37366">
        <ele>270.523</ele>
        <time>2016-09-05T14:31:04.000Z</time>
      </trkpt>
      <trkpt lat="47.34164" lon="6.37364">
        <ele>269.845</ele>
        <time>2016-09-05T14:31:05.000Z</time>
      </trkpt>
      <trkpt lat="47.34162" lon="6.37362">
        <ele>268.742</ele>
        <time>2016-09-05T14:31:06.000Z</time>
      </trkpt>
      <trkpt lat="47.34161" lon="6.37359">
        <ele>267.639</ele>
        <time>2016-09-05T14:31:07.000Z</time>
      </trkpt>
      <trkpt lat="47.34159" lon="6.37356">
        <ele>268.702</ele>
        <time>2016-09-05T14:31:08.000Z</time>
      </trkpt>
      <trkpt lat="47.34158" lon="6.37354">
        <ele>269.767</ele>
        <time>2016-09-05T14:31:09.000Z</time>
      </trkpt>
      <trkpt lat="47.34156" lon="6.37351">
        <ele>270.095</ele>
        <time>2016-09-05T14:31:10.000Z</time>
      </trkpt>
      <trkpt lat="47.34155" lon="6.37348">
        <ele>270.08</ele>
        <time>2016-09-05T14:31:11.000Z</time>
      </trkpt>
      <trkpt lat="47.34154" lon="6.37346">
        <ele>271.003</ele>
        <time>2016-09-05T14:31:12.000Z</time>
      </trkpt>
      <trkpt lat="47.34153" lon="6.37345">
        <ele>273.26</ele>
        <time>2016-09-05T14:31:13.000Z</time>
      </trkpt>
      <trkpt lat="47.34152" lon="6.37344">
        <ele>272.774</ele>
        <time>2016-09-05T14:31:14.000Z</time>
      </trkpt>
      <trkpt lat="47.34152" lon="6.37344">
        <ele>273.194</ele>
        <time>2016-09-05T14:31:15.000Z</time>
      </trkpt>
      <trkpt lat="47.34152" lon="6.37344">
        <ele>273.571</ele>
        <time>2016-09-05T14:31:16.000Z</time>
      </trkpt>
      <trkpt lat="47.34152" lon="6.37344">
        <ele>273.738</ele>
        <time>2016-09-05T14:31:17.000Z</time>
      </trkpt>
      <trkpt lat="47.34152" lon="6.37343">
        <ele>273.125</ele>
        <time>2016-09-05T14:31:18.000Z</time>
      </trkpt>
      <trkpt lat="47.34151" lon="6.37342">
        <ele>273.562</ele>
        <time>2016-09-05T14:31:19.000Z</time>
      </trkpt>
      <trkpt lat="47.3415" lon="6.3734">
        <ele>273.606</ele>
        <time>2016-09-05T14:31:20.000Z</time>
      </trkpt>
      <trkpt lat="47.34149" lon="6.37339">
        <ele>272.686</ele>
        <time>2016-09-05T14:31:21.000Z</time>
      </trkpt>
      <trkpt lat="47.34148" lon="6.37338">
        <ele>271.459</ele>
        <time>2016-09-05T14:31:22.000Z</time>
      </trkpt>
      <trkpt lat="47.34148" lon="6.37337">
        <ele>272.432</ele>
        <time>2016-09-05T14:31:23.000Z</time>
      </trkpt>
      <trkpt lat="47.34147" lon="6.37336">
        <ele>273.005</ele>
        <time>2016-09-05T14:31:24.000Z</time>
      </trkpt>
      <trkpt lat="47.34146" lon="6.37336">
        <ele>273.18</ele>
        <time>2016-09-05T14:31:25.000Z</time>
      </trkpt>
      <trkpt lat="47.34146" lon="6.37336">
        <ele>273.169</ele>
        <time>2016-09-05T14:31:26.000Z</time>
      </trkpt>
      <trkpt lat="47.34146" lon="6.37336">
        <ele>269.249</ele>
        <time>2016-09-05T14:31:27.000Z</time>
      </trkpt>
      <trkpt lat="47.34146" lon="6.37336">
        <ele>269.685</ele>
        <time>2016-09-05T14:31:28.000Z</time>
      </trkpt>
      <trkpt lat="47.34146" lon="6.37336">
        <ele>269.632</ele>
        <time>2016-09-05T14:31:29.000Z</time>
      </trkpt>
      <trkpt lat="47.34146" lon="6.37336">
        <ele>269.356</ele>
        <time>2016-09-05T14:31:30.000Z</time>
      </trkpt>
      <trkpt lat="47.34147" lon="6.37336">
        <ele>269.12</ele>
        <time>2016-09-05T14:31:31.000Z</time>
      </trkpt>
      <trkpt lat="47.34147" lon="6.37337">
        <ele>268.343</ele>
        <time>2016-09-05T14:31:32.000Z</time>
      </trkpt>
      <trkpt lat="47.34147" lon="6.37337">
        <ele>268.008</ele>
        <time>2016-09-05T14:31:33.000Z</time>
      </trkpt>
      <trkpt lat="47.34147" lon="6.37337">
        <ele>268.008</ele>
        <time>2016-09-05T14:31:33.304Z</time>
      </trkpt>
      <trkpt lat="47.34147" lon="6.37337">
        <ele>267.899</ele>
        <time>2016-09-05T14:31:34.000Z</time>
      </trkpt>
      <trkpt lat="47.34147" lon="6.37337">
        <ele>268.482</ele>
        <time>2016-09-05T14:31:35.000Z</time>
      </trkpt>
      <trkpt lat="47.34147" lon="6.37337">
        <ele>268.617</ele>
        <time>2016-09-05T14:31:36.000Z</time>
      </trkpt>
      <trkpt lat="47.34147" lon="6.37337">
        <ele>268.599</ele>
        <time>2016-09-05T14:31:37.000Z</time>
      </trkpt>
      <trkpt lat="47.34147" lon="6.37337">
        <ele>268.829</ele>
        <time>2016-09-05T14:31:38.000Z</time>
      </trkpt>
      <trkpt lat="47.34147" lon="6.37337">
        <ele>268.779</ele>
        <time>2016-09-05T14:31:39.000Z</time>
      </trkpt>
      <trkpt lat="47.34147" lon="6.37337">
        <ele>268.865</ele>
        <time>2016-09-05T14:31:40.000Z</time>
      </trkpt>
      <trkpt lat="47.34147" lon="6.37337">
        <ele>268.481</ele>
        <time>2016-09-05T14:31:41.000Z</time>
      </trkpt>
      <trkpt lat="47.34147" lon="6.37337">
        <ele>268.402</ele>
        <time>2016-09-05T14:31:42.000Z</time>
      </trkpt>
      <trkpt lat="47.34147" lon="6.37337">
        <ele>264.505</ele>
        <time>2016-09-05T14:31:43.000Z</time>
      </trkpt>
      <trkpt lat="47.34147" lon="6.37337">
        <ele>265.261</ele>
        <time>2016-09-05T14:31:44.000Z</time>
      </trkpt>
      <trkpt lat="47.34147" lon="6.37337">
        <ele>264.632</ele>
        <time>2016-09-05T14:31:45.003Z</time>
      </trkpt>
      <trkpt lat="47.34147" lon="6.37337">
        <ele>264.665</ele>
        <time>2016-09-05T14:31:46.000Z</time>
      </trkpt>
      <trkpt lat="47.34147" lon="6.37337">
        <ele>264.978</ele>
        <time>2016-09-05T14:31:47.000Z</time>
      </trkpt>
      <trkpt lat="47.34147" lon="6.37337">
        <ele>265.191</ele>
        <time>2016-09-05T14:31:48.000Z</time>
      </trkpt>
      <trkpt lat="47.34147" lon="6.37337">
        <ele>264.989</ele>
        <time>2016-09-05T14:31:49.000Z</time>
      </trkpt>
      <trkpt lat="47.34147" lon="6.37337">
        <ele>264.539</ele>
        <time>2016-09-05T14:31:50.000Z</time>
      </trkpt>
      <trkpt lat="47.34147" lon="6.37337">
        <ele>264.003</ele>
        <time>2016-09-05T14:31:51.000Z</time>
      </trkpt>
      <trkpt lat="47.34147" lon="6.37337">
        <ele>263.708</ele>
        <time>2016-09-05T14:31:52.000Z</time>
      </trkpt>
      <trkpt lat="47.34147" lon="6.37337">
        <ele>263.321</ele>
        <time>2016-09-05T14:31:53.000Z</time>
      </trkpt>
      <trkpt lat="47.34147" lon="6.37337">
        <ele>263.174</ele>
        <time>2016-09-05T14:31:54.000Z</time>
      </trkpt>
      <trkpt lat="47.34147" lon="6.37337">
        <ele>262.824</ele>
        <time>2016-09-05T14:31:55.000Z</time>
      </trkpt>
      <trkpt lat="47.34147" lon="6.37337">
        <ele>262.424</ele>
        <time>2016-09-05T14:31:56.000Z</time>
      </trkpt>
      <trkpt lat="47.34147" lon="6.37337">
        <ele>262.12</ele>
        <time>2016-09-05T14:31:57.000Z</time>
      </trkpt>
      <trkpt lat="47.34147" lon="6.37337">
        <ele>261.815</ele>
        <time>2016-09-05T14:31:58.000Z</time>
      </trkpt>
      <trkpt lat="47.34147" lon="6.37337">
        <ele>261.838</ele>
        <time>2016-09-05T14:31:59.000Z</time>
      </trkpt>
      <trkpt lat="47.34147" lon="6.37337">
        <ele>261.699</ele>
        <time>2016-09-05T14:32:00.000Z</time>
      </trkpt>
      <trkpt lat="47.34147" lon="6.37337">
        <ele>261.7</ele>
        <time>2016-09-05T14:32:01.000Z</time>
      </trkpt>
      <trkpt lat="47.34147" lon="6.37337">
        <ele>261.692</ele>
        <time>2016-09-05T14:32:02.000Z</time>
      </trkpt>
      <trkpt lat="47.34147" lon="6.37337">
        <ele>261.716</ele>
        <time>2016-09-05T14:32:03.000Z</time>
      </trkpt>
      <trkpt lat="47.34147" lon="6.37337">
        <ele>261.612</ele>
        <time>2016-09-05T14:32:04.000Z</time>
      </trkpt>
      <trkpt lat="47.34147" lon="6.37337">
        <ele>261.727</ele>
        <time>2016-09-05T14:32:05.000Z</time>
      </trkpt>
      <trkpt lat="47.34147" lon="6.37337">
        <ele>261.744</ele>
        <time>2016-09-05T14:32:06.000Z</time>
      </trkpt>
      <trkpt lat="47.34147" lon="6.37337">
        <ele>261.788</ele>
        <time>2016-09-05T14:32:07.000Z</time>
      </trkpt>
      <trkpt lat="47.34147" lon="6.37337">
        <ele>261.785</ele>
        <time>2016-09-05T14:32:08.000Z</time>
      </trkpt>
      <trkpt lat="47.34147" lon="6.37337">
        <ele>262.076</ele>
        <time>2016-09-05T14:32:09.000Z</time>
      </trkpt>
      <trkpt lat="47.34147" lon="6.37337">
        <ele>262.076</ele>
        <time>2016-09-05T14:32:09.565Z</time>
      </trkpt>
      <trkpt lat="47.34147" lon="6.37337">
        <ele>262.541</ele>
        <time>2016-09-05T14:32:10.000Z</time>
      </trkpt>
      <trkpt lat="47.34147" lon="6.37337">
        <ele>262.843</ele>
        <time>2016-09-05T14:32:11.000Z</time>
      </trkpt>
      <trkpt lat="47.34147" lon="6.37337">
        <ele>262.998</ele>
        <time>2016-09-05T14:32:12.000Z</time>
      </trkpt>
      <trkpt lat="47.34149" lon="6.37337">
        <ele>263.624</ele>
        <time>2016-09-05T14:32:13.000Z</time>
      </trkpt>
      <trkpt lat="47.34149" lon="6.37336">
        <ele>263.688</ele>
        <time>2016-09-05T14:32:14.000Z</time>
      </trkpt>
      <trkpt lat="47.34149" lon="6.37335">
        <ele>263.824</ele>
        <time>2016-09-05T14:32:15.000Z</time>
      </trkpt>
      <trkpt lat="47.34149" lon="6.37334">
        <ele>263.948</ele>
        <time>2016-09-05T14:32:16.000Z</time>
      </trkpt>
      <trkpt lat="47.34149" lon="6.37333">
        <ele>263.153</ele>
        <time>2016-09-05T14:32:17.000Z</time>
      </trkpt>
      <trkpt lat="47.34148" lon="6.37331">
        <ele>263.696</ele>
        <time>2016-09-05T14:32:18.000Z</time>
      </trkpt>
      <trkpt lat="47.34147" lon="6.3733">
        <ele>263.641</ele>
        <time>2016-09-05T14:32:19.000Z</time>
      </trkpt>
      <trkpt lat="47.34146" lon="6.37328">
        <ele>263.18</ele>
        <time>2016-09-05T14:32:20.000Z</time>
      </trkpt>
      <trkpt lat="47.34145" lon="6.37327">
        <ele>262.938</ele>
        <time>2016-09-05T14:32:21.000Z</time>
      </trkpt>
      <trkpt lat="47.34144" lon="6.37326">
        <ele>263.136</ele>
        <time>2016-09-05T14:32:22.000Z</time>
      </trkpt>
      <trkpt lat="47.34143" lon="6.37324">
        <ele>263.261</ele>
        <time>2016-09-05T14:32:23.000Z</time>
      </trkpt>
      <trkpt lat="47.34143" lon="6.37324">
        <ele>263.423</ele>
        <time>2016-09-05T14:32:24.000Z</time>
      </trkpt>
      <trkpt lat="47.34142" lon="6.37323">
        <ele>262.156</ele>
        <time>2016-09-05T14:32:25.000Z</time>
      </trkpt>
      <trkpt lat="47.34142" lon="6.37323">
        <ele>262.457</ele>
        <time>2016-09-05T14:32:26.000Z</time>
      </trkpt>
      <trkpt lat="47.34142" lon="6.37323">
        <ele>263.065</ele>
        <time>2016-09-05T14:32:27.000Z</time>
      </trkpt>
      <trkpt lat="47.34142" lon="6.37322">
        <ele>263.111</ele>
        <time>2016-09-05T14:32:28.000Z</time>
      </trkpt>
      <trkpt lat="47.34142" lon="6.37322">
        <ele>262.797</ele>
        <time>2016-09-05T14:32:29.000Z</time>
      </trkpt>
      <trkpt lat="47.34142" lon="6.37322">
        <ele>263.127</ele>
        <time>2016-09-05T14:32:30.000Z</time>
      </trkpt>
      <trkpt lat="47.34142" lon="6.37322">
        <ele>262.773</ele>
        <time>2016-09-05T14:32:31.000Z</time>
      </trkpt>
      <trkpt lat="47.34141" lon="6.37322">
        <ele>263.123</ele>
        <time>2016-09-05T14:32:32.000Z</time>
      </trkpt>
      <trkpt lat="47.34141" lon="6.37322">
        <ele>263.877</ele>
        <time>2016-09-05T14:32:33.000Z</time>
      </trkpt>
      <trkpt lat="47.34141" lon="6.37322">
        <ele>264.25</ele>
        <time>2016-09-05T14:32:34.000Z</time>
      </trkpt>
      <trkpt lat="47.34141" lon="6.37322">
        <ele>265.573</ele>
        <time>2016-09-05T14:32:35.000Z</time>
      </trkpt>
      <trkpt lat="47.34141" lon="6.37322">
        <ele>266.607</ele>
        <time>2016-09-05T14:32:36.000Z</time>
      </trkpt>
      <trkpt lat="47.34141" lon="6.37322">
        <ele>267.177</ele>
        <time>2016-09-05T14:32:37.000Z</time>
      </trkpt>
      <trkpt lat="47.34141" lon="6.37322">
        <ele>267.51</ele>
        <time>2016-09-05T14:32:38.000Z</time>
      </trkpt>
      <trkpt lat="47.34141" lon="6.37322">
        <ele>267.413</ele>
        <time>2016-09-05T14:32:39.000Z</time>
      </trkpt>
      <trkpt lat="47.34141" lon="6.37322">
        <ele>266.786</ele>
        <time>2016-09-05T14:32:40.000Z</time>
      </trkpt>
      <trkpt lat="47.34141" lon="6.37322">
        <ele>266.731</ele>
        <time>2016-09-05T14:32:41.000Z</time>
      </trkpt>
      <trkpt lat="47.34141" lon="6.37322">
        <ele>265.505</ele>
        <time>2016-09-05T14:32:42.000Z</time>
      </trkpt>
      <trkpt lat="47.34141" lon="6.37322">
        <ele>265.468</ele>
        <time>2016-09-05T14:32:43.000Z</time>
      </trkpt>
      <trkpt lat="47.34143" lon="6.37318">
        <ele>264.263</ele>
        <time>2016-09-05T14:32:44.000Z</time>
      </trkpt>
      <trkpt lat="47.34142" lon="6.37317">
        <ele>265.498</ele>
        <time>2016-09-05T14:32:45.000Z</time>
      </trkpt>
      <trkpt lat="47.34142" lon="6.37315">
        <ele>266.345</ele>
        <time>2016-09-05T14:32:46.000Z</time>
      </trkpt>
      <trkpt lat="47.34141" lon="6.37314">
        <ele>267.096</ele>
        <time>2016-09-05T14:32:47.000Z</time>
      </trkpt>
      <trkpt lat="47.34141" lon="6.37312">
        <ele>265.337</ele>
        <time>2016-09-05T14:32:48.000Z</time>
      </trkpt>
      <trkpt lat="47.34139" lon="6.3731">
        <ele>265.639</ele>
        <time>2016-09-05T14:32:49.000Z</time>
      </trkpt>
      <trkpt lat="47.34137" lon="6.37307">
        <ele>266.015</ele>
        <time>2016-09-05T14:32:50.000Z</time>
      </trkpt>
      <trkpt lat="47.34135" lon="6.37305">
        <ele>265.479</ele>
        <time>2016-09-05T14:32:51.000Z</time>
      </trkpt>
      <trkpt lat="47.34133" lon="6.37302">
        <ele>266.096</ele>
        <time>2016-09-05T14:32:52.000Z</time>
      </trkpt>
      <trkpt lat="47.34131" lon="6.37298">
        <ele>265.551</ele>
        <time>2016-09-05T14:32:53.000Z</time>
      </trkpt>
      <trkpt lat="47.34128" lon="6.37295">
        <ele>265.682</ele>
        <time>2016-09-05T14:32:54.000Z</time>
      </trkpt>
      <trkpt lat="47.34125" lon="6.37291">
        <ele>265.684</ele>
        <time>2016-09-05T14:32:55.000Z</time>
      </trkpt>
      <trkpt lat="47.34123" lon="6.37288">
        <ele>267.232</ele>
        <time>2016-09-05T14:32:56.000Z</time>
      </trkpt>
      <trkpt lat="47.34122" lon="6.37284">
        <ele>268.91</ele>
        <time>2016-09-05T14:32:57.000Z</time>
      </trkpt>
      <trkpt lat="47.3412" lon="6.3728">
        <ele>269.995</ele>
        <time>2016-09-05T14:32:58.000Z</time>
      </trkpt>
      <trkpt lat="47.3412" lon="6.37275">
        <ele>271.244</ele>
        <time>2016-09-05T14:32:59.000Z</time>
      </trkpt>
      <trkpt lat="47.3412" lon="6.3727">
        <ele>269.949</ele>
        <time>2016-09-05T14:33:00.000Z</time>
      </trkpt>
      <trkpt lat="47.34121" lon="6.37264">
        <ele>271.492</ele>
        <time>2016-09-05T14:33:01.000Z</time>
      </trkpt>
      <trkpt lat="47.34122" lon="6.37257">
        <ele>269.592</ele>
        <time>2016-09-05T14:33:02.000Z</time>
      </trkpt>
      <trkpt lat="47.34123" lon="6.37251">
        <ele>269.197</ele>
        <time>2016-09-05T14:33:03.000Z</time>
      </trkpt>
      <trkpt lat="47.34125" lon="6.37245">
        <ele>268.832</ele>
        <time>2016-09-05T14:33:04.000Z</time>
      </trkpt>
      <trkpt lat="47.34125" lon="6.37239">
        <ele>269.988</ele>
        <time>2016-09-05T14:33:05.000Z</time>
      </trkpt>
      <trkpt lat="47.34126" lon="6.37234">
        <ele>270.448</ele>
        <time>2016-09-05T14:33:06.000Z</time>
      </trkpt>
      <trkpt lat="47.34126" lon="6.37231">
        <ele>271.3</ele>
        <time>2016-09-05T14:33:07.000Z</time>
      </trkpt>
      <trkpt lat="47.34127" lon="6.37229">
        <ele>270.655</ele>
        <time>2016-09-05T14:33:08.000Z</time>
      </trkpt>
      <trkpt lat="47.34128" lon="6.37227">
        <ele>270.601</ele>
        <time>2016-09-05T14:33:09.000Z</time>
      </trkpt>
      <trkpt lat="47.34128" lon="6.37224">
        <ele>272.735</ele>
        <time>2016-09-05T14:33:10.000Z</time>
      </trkpt>
      <trkpt lat="47.34128" lon="6.37222">
        <ele>272.296</ele>
        <time>2016-09-05T14:33:11.000Z</time>
      </trkpt>
      <trkpt lat="47.34127" lon="6.37219">
        <ele>272.217</ele>
        <time>2016-09-05T14:33:12.000Z</time>
      </trkpt>
      <trkpt lat="47.34126" lon="6.37216">
        <ele>272.416</ele>
        <time>2016-09-05T14:33:13.000Z</time>
      </trkpt>
      <trkpt lat="47.34125" lon="6.37212">
        <ele>272.315</ele>
        <time>2016-09-05T14:33:14.000Z</time>
      </trkpt>
      <trkpt lat="47.34125" lon="6.37207">
        <ele>271.464</ele>
        <time>2016-09-05T14:33:15.000Z</time>
      </trkpt>
      <trkpt lat="47.34125" lon="6.37203">
        <ele>271.116</ele>
        <time>2016-09-05T14:33:16.000Z</time>
      </trkpt>
      <trkpt lat="47.34124" lon="6.37197">
        <ele>268.397</ele>
        <time>2016-09-05T14:33:17.000Z</time>
      </trkpt>
      <trkpt lat="47.34124" lon="6.37192">
        <ele>269.503</ele>
        <time>2016-09-05T14:33:18.000Z</time>
      </trkpt>
      <trkpt lat="47.34124" lon="6.37187">
        <ele>269.225</ele>
        <time>2016-09-05T14:33:19.000Z</time>
      </trkpt>
      <trkpt lat="47.34124" lon="6.37181">
        <ele>269.404</ele>
        <time>2016-09-05T14:33:20.000Z</time>
      </trkpt>
      <trkpt lat="47.34123" lon="6.37176">
        <ele>269.691</ele>
        <time>2016-09-05T14:33:21.000Z</time>
      </trkpt>
      <trkpt lat="47.34123" lon="6.37171">
        <ele>271.348</ele>
        <time>2016-09-05T14:33:22.000Z</time>
      </trkpt>
      <trkpt lat="47.34123" lon="6.37167">
        <ele>272.438</ele>
        <time>2016-09-05T14:33:23.000Z</time>
      </trkpt>
      <trkpt lat="47.34122" lon="6.37164">
        <ele>272.742</ele>
        <time>2016-09-05T14:33:24.000Z</time>
      </trkpt>
      <trkpt lat="47.34122" lon="6.37161">
        <ele>271.469</ele>
        <time>2016-09-05T14:33:25.000Z</time>
      </trkpt>
      <trkpt lat="47.34122" lon="6.3716">
        <ele>271.939</ele>
        <time>2016-09-05T14:33:26.000Z</time>
      </trkpt>
      <trkpt lat="47.34122" lon="6.37158">
        <ele>271.988</ele>
        <time>2016-09-05T14:33:27.000Z</time>
      </trkpt>
      <trkpt lat="47.34122" lon="6.37155">
        <ele>272.186</ele>
        <time>2016-09-05T14:33:28.000Z</time>
      </trkpt>
      <trkpt lat="47.34122" lon="6.37154">
        <ele>272.054</ele>
        <time>2016-09-05T14:33:29.000Z</time>
      </trkpt>
      <trkpt lat="47.34122" lon="6.37152">
        <ele>273.474</ele>
        <time>2016-09-05T14:33:30.000Z</time>
      </trkpt>
      <trkpt lat="47.34122" lon="6.3715">
        <ele>273.004</ele>
        <time>2016-09-05T14:33:31.000Z</time>
      </trkpt>
      <trkpt lat="47.34122" lon="6.37148">
        <ele>269.859</ele>
        <time>2016-09-05T14:33:32.000Z</time>
      </trkpt>
      <trkpt lat="47.34122" lon="6.37146">
        <ele>270.195</ele>
        <time>2016-09-05T14:33:33.000Z</time>
      </trkpt>
      <trkpt lat="47.34122" lon="6.37144">
        <ele>269.466</ele>
        <time>2016-09-05T14:33:34.000Z</time>
      </trkpt>
      <trkpt lat="47.34122" lon="6.37142">
        <ele>269.555</ele>
        <time>2016-09-05T14:33:35.000Z</time>
      </trkpt>
      <trkpt lat="47.34122" lon="6.37141">
        <ele>269.818</ele>
        <time>2016-09-05T14:33:36.000Z</time>
      </trkpt>
      <trkpt lat="47.34122" lon="6.37139">
        <ele>268.924</ele>
        <time>2016-09-05T14:33:37.000Z</time>
      </trkpt>
      <trkpt lat="47.34122" lon="6.37137">
        <ele>268.858</ele>
        <time>2016-09-05T14:33:38.000Z</time>
      </trkpt>
      <trkpt lat="47.34122" lon="6.37136">
        <ele>268.633</ele>
        <time>2016-09-05T14:33:39.000Z</time>
      </trkpt>
      <trkpt lat="47.34122" lon="6.37134">
        <ele>270.358</ele>
        <time>2016-09-05T14:33:40.000Z</time>
      </trkpt>
      <trkpt lat="47.34122" lon="6.37133">
        <ele>270.23</ele>
        <time>2016-09-05T14:33:41.000Z</time>
      </trkpt>
      <trkpt lat="47.34123" lon="6.37132">
        <ele>268.434</ele>
        <time>2016-09-05T14:33:42.000Z</time>
      </trkpt>
      <trkpt lat="47.34123" lon="6.37132">
        <ele>267.558</ele>
        <time>2016-09-05T14:33:43.000Z</time>
      </trkpt>
      <trkpt lat="47.34124" lon="6.37131">
        <ele>266.728</ele>
        <time>2016-09-05T14:33:44.000Z</time>
      </trkpt>
      <trkpt lat="47.34124" lon="6.3713">
        <ele>266.45</ele>
        <time>2016-09-05T14:33:45.000Z</time>
      </trkpt>
      <trkpt lat="47.34124" lon="6.37129">
        <ele>266.482</ele>
        <time>2016-09-05T14:33:46.000Z</time>
      </trkpt>
      <trkpt lat="47.34124" lon="6.37127">
        <ele>266.758</ele>
        <time>2016-09-05T14:33:47.000Z</time>
      </trkpt>
      <trkpt lat="47.34123" lon="6.37126">
        <ele>266.848</ele>
        <time>2016-09-05T14:33:48.000Z</time>
      </trkpt>
      <trkpt lat="47.34123" lon="6.37124">
        <ele>266.214</ele>
        <time>2016-09-05T14:33:49.000Z</time>
      </trkpt>
      <trkpt lat="47.34123" lon="6.37122">
        <ele>264.462</ele>
        <time>2016-09-05T14:33:50.000Z</time>
      </trkpt>
      <trkpt lat="47.34123" lon="6.3712">
        <ele>263.934</ele>
        <time>2016-09-05T14:33:51.000Z</time>
      </trkpt>
      <trkpt lat="47.34122" lon="6.37118">
        <ele>262.783</ele>
        <time>2016-09-05T14:33:52.000Z</time>
      </trkpt>
      <trkpt lat="47.34122" lon="6.37116">
        <ele>263.444</ele>
        <time>2016-09-05T14:33:53.000Z</time>
      </trkpt>
      <trkpt lat="47.34123" lon="6.37114">
        <ele>263.591</ele>
        <time>2016-09-05T14:33:54.000Z</time>
      </trkpt>
      <trkpt lat="47.34123" lon="6.37112">
        <ele>264.003</ele>
        <time>2016-09-05T14:33:55.000Z</time>
      </trkpt>
      <trkpt lat="47.34123" lon="6.3711">
        <ele>264.464</ele>
        <time>2016-09-05T14:33:56.000Z</time>
      </trkpt>
      <trkpt lat="47.34123" lon="6.37108">
        <ele>260.72</ele>
        <time>2016-09-05T14:33:57.000Z</time>
      </trkpt>
      <trkpt lat="47.34123" lon="6.37107">
        <ele>261.904</ele>
        <time>2016-09-05T14:33:58.000Z</time>
      </trkpt>
      <trkpt lat="47.34123" lon="6.37107">
        <ele>262.752</ele>
        <time>2016-09-05T14:33:59.000Z</time>
      </trkpt>
      <trkpt lat="47.34123" lon="6.37107">
        <ele>262.447</ele>
        <time>2016-09-05T14:34:00.000Z</time>
      </trkpt>
      <trkpt lat="47.34124" lon="6.37106">
        <ele>262.901</ele>
        <time>2016-09-05T14:34:01.000Z</time>
      </trkpt>
      <trkpt lat="47.34124" lon="6.37106">
        <ele>262.086</ele>
        <time>2016-09-05T14:34:02.000Z</time>
      </trkpt>
      <trkpt lat="47.34124" lon="6.37106">
        <ele>262.068</ele>
        <time>2016-09-05T14:34:03.000Z</time>
      </trkpt>
      <trkpt lat="47.34124" lon="6.37106">
        <ele>262.575</ele>
        <time>2016-09-05T14:34:04.000Z</time>
      </trkpt>
      <trkpt lat="47.34124" lon="6.37106">
        <ele>263.45</ele>
        <time>2016-09-05T14:34:05.000Z</time>
      </trkpt>
      <trkpt lat="47.34124" lon="6.37106">
        <ele>263.49</ele>
        <time>2016-09-05T14:34:06.000Z</time>
      </trkpt>
      <trkpt lat="47.34125" lon="6.37107">
        <ele>265.442</ele>
        <time>2016-09-05T14:34:07.000Z</time>
      </trkpt>
      <trkpt lat="47.34125" lon="6.37107">
        <ele>266.815</ele>
        <time>2016-09-05T14:34:08.000Z</time>
      </trkpt>
      <trkpt lat="47.34125" lon="6.37107">
        <ele>265.378</ele>
        <time>2016-09-05T14:34:09.000Z</time>
      </trkpt>
      <trkpt lat="47.34125" lon="6.37107">
        <ele>265.378</ele>
        <time>2016-09-05T14:34:09.807Z</time>
      </trkpt>
      <trkpt lat="47.34126" lon="6.3711">
        <ele>265.996</ele>
        <time>2016-09-05T14:34:10.000Z</time>
      </trkpt>
      <trkpt lat="47.34126" lon="6.3711">
        <ele>264.758</ele>
        <time>2016-09-05T14:34:11.000Z</time>
      </trkpt>
      <trkpt lat="47.34126" lon="6.3711">
        <ele>264.688</ele>
        <time>2016-09-05T14:34:12.000Z</time>
      </trkpt>
      <trkpt lat="47.34126" lon="6.3711">
        <ele>264.923</ele>
        <time>2016-09-05T14:34:13.000Z</time>
      </trkpt>
      <trkpt lat="47.34126" lon="6.3711">
        <ele>266.03</ele>
        <time>2016-09-05T14:34:14.000Z</time>
      </trkpt>
      <trkpt lat="47.34125" lon="6.37111">
        <ele>266.862</ele>
        <time>2016-09-05T14:34:15.000Z</time>
      </trkpt>
      <trkpt lat="47.34125" lon="6.37111">
        <ele>267.365</ele>
        <time>2016-09-05T14:34:16.000Z</time>
      </trkpt>
      <trkpt lat="47.34125" lon="6.37112">
        <ele>268.072</ele>
        <time>2016-09-05T14:34:17.000Z</time>
      </trkpt>
      <trkpt lat="47.34125" lon="6.37112">
        <ele>268.953</ele>
        <time>2016-09-05T14:34:18.000Z</time>
      </trkpt>
      <trkpt lat="47.34125" lon="6.37112">
        <ele>270.001</ele>
        <time>2016-09-05T14:34:19.000Z</time>
      </trkpt>
      <trkpt lat="47.34125" lon="6.37113">
        <ele>269.605</ele>
        <time>2016-09-05T14:34:20.000Z</time>
      </trkpt>
      <trkpt lat="47.34124" lon="6.37113">
        <ele>270.189</ele>
        <time>2016-09-05T14:34:21.000Z</time>
      </trkpt>
      <trkpt lat="47.34124" lon="6.37113">
        <ele>270.306</ele>
        <time>2016-09-05T14:34:22.000Z</time>
      </trkpt>
      <trkpt lat="47.34124" lon="6.37113">
        <ele>270.366</ele>
        <time>2016-09-05T14:34:23.000Z</time>
      </trkpt>
      <trkpt lat="47.34124" lon="6.37113">
        <ele>271.398</ele>
        <time>2016-09-05T14:34:24.000Z</time>
      </trkpt>
      <trkpt lat="47.34124" lon="6.37113">
        <ele>272.303</ele>
        <time>2016-09-05T14:34:25.000Z</time>
      </trkpt>
      <trkpt lat="47.34124" lon="6.37112">
        <ele>270.128</ele>
        <time>2016-09-05T14:34:26.000Z</time>
      </trkpt>
      <trkpt lat="47.34125" lon="6.37112">
        <ele>269.568</ele>
        <time>2016-09-05T14:34:27.000Z</time>
      </trkpt>
      <trkpt lat="47.34125" lon="6.37112">
        <ele>269.094</ele>
        <time>2016-09-05T14:34:28.000Z</time>
      </trkpt>
      <trkpt lat="47.34125" lon="6.37112">
        <ele>269.875</ele>
        <time>2016-09-05T14:34:29.000Z</time>
      </trkpt>
      <trkpt lat="47.34125" lon="6.37112">
        <ele>270.304</ele>
        <time>2016-09-05T14:34:30.000Z</time>
      </trkpt>
      <trkpt lat="47.34125" lon="6.37112">
        <ele>271.911</ele>
        <time>2016-09-05T14:34:31.000Z</time>
      </trkpt>
      <trkpt lat="47.34125" lon="6.37112">
        <ele>272.537</ele>
        <time>2016-09-05T14:34:32.000Z</time>
      </trkpt>
      <trkpt lat="47.34126" lon="6.37112">
        <ele>273.095</ele>
        <time>2016-09-05T14:34:33.000Z</time>
      </trkpt>
      <trkpt lat="47.34126" lon="6.37111">
        <ele>273.577</ele>
        <time>2016-09-05T14:34:34.000Z</time>
      </trkpt>
      <trkpt lat="47.34127" lon="6.37111">
        <ele>275.079</ele>
        <time>2016-09-05T14:34:35.000Z</time>
      </trkpt>
      <trkpt lat="47.34127" lon="6.3711">
        <ele>271.719</ele>
        <time>2016-09-05T14:34:36.000Z</time>
      </trkpt>
      <trkpt lat="47.34127" lon="6.37109">
        <ele>270.524</ele>
        <time>2016-09-05T14:34:37.000Z</time>
      </trkpt>
      <trkpt lat="47.34127" lon="6.37109">
        <ele>270.296</ele>
        <time>2016-09-05T14:34:38.000Z</time>
      </trkpt>
      <trkpt lat="47.34127" lon="6.37109">
        <ele>268.163</ele>
        <time>2016-09-05T14:34:39.000Z</time>
      </trkpt>
      <trkpt lat="47.34127" lon="6.37109">
        <ele>266.728</ele>
        <time>2016-09-05T14:34:40.000Z</time>
      </trkpt>
      <trkpt lat="47.34127" lon="6.37109">
        <ele>267.268</ele>
        <time>2016-09-05T14:34:41.000Z</time>
      </trkpt>
      <trkpt lat="47.34127" lon="6.37109">
        <ele>264.793</ele>
        <time>2016-09-05T14:34:42.000Z</time>
      </trkpt>
      <trkpt lat="47.34127" lon="6.37109">
        <ele>263.917</ele>
        <time>2016-09-05T14:34:43.000Z</time>
      </trkpt>
      <trkpt lat="47.34127" lon="6.37109">
        <ele>264.07</ele>
        <time>2016-09-05T14:34:44.000Z</time>
      </trkpt>
      <trkpt lat="47.34127" lon="6.37109">
        <ele>264.529</ele>
        <time>2016-09-05T14:34:45.000Z</time>
      </trkpt>
      <trkpt lat="47.34127" lon="6.37109">
        <ele>264.681</ele>
        <time>2016-09-05T14:34:46.000Z</time>
      </trkpt>
      <trkpt lat="47.34127" lon="6.37109">
        <ele>264.528</ele>
        <time>2016-09-05T14:34:47.000Z</time>
      </trkpt>
      <trkpt lat="47.34127" lon="6.37109">
        <ele>264.496</ele>
        <time>2016-09-05T14:34:48.000Z</time>
      </trkpt>
      <trkpt lat="47.34127" lon="6.37109">
        <ele>263.577</ele>
        <time>2016-09-05T14:34:49.000Z</time>
      </trkpt>
      <trkpt lat="47.34127" lon="6.37109">
        <ele>263.454</ele>
        <time>2016-09-05T14:34:50.000Z</time>
      </trkpt>
      <trkpt lat="47.34125" lon="6.37107">
        <ele>263.658</ele>
        <time>2016-09-05T14:34:51.000Z</time>
      </trkpt>
      <trkpt lat="47.34125" lon="6.37108">
        <ele>264.275</ele>
        <time>2016-09-05T14:34:52.000Z</time>
      </trkpt>
      <trkpt lat="47.34125" lon="6.37108">
        <ele>265.761</ele>
        <time>2016-09-05T14:34:53.000Z</time>
      </trkpt>
      <trkpt lat="47.34126" lon="6.37108">
        <ele>265.85</ele>
        <time>2016-09-05T14:34:54.000Z</time>
      </trkpt>
      <trkpt lat="47.34125" lon="6.37107">
        <ele>266.015</ele>
        <time>2016-09-05T14:34:55.000Z</time>
      </trkpt>
      <trkpt lat="47.34125" lon="6.37107">
        <ele>265.91</ele>
        <time>2016-09-05T14:34:56.000Z</time>
      </trkpt>
      <trkpt lat="47.34125" lon="6.37106">
        <ele>265.724</ele>
        <time>2016-09-05T14:34:57.000Z</time>
      </trkpt>
      <trkpt lat="47.34125" lon="6.37106">
        <ele>266.576</ele>
        <time>2016-09-05T14:34:58.000Z</time>
      </trkpt>
      <trkpt lat="47.34125" lon="6.37106">
        <ele>264.812</ele>
        <time>2016-09-05T14:34:59.000Z</time>
      </trkpt>
      <trkpt lat="47.34125" lon="6.37105">
        <ele>265.529</ele>
        <time>2016-09-05T14:35:00.000Z</time>
      </trkpt>
      <trkpt lat="47.34125" lon="6.37105">
        <ele>266.019</ele>
        <time>2016-09-05T14:35:01.000Z</time>
      </trkpt>
      <trkpt lat="47.34126" lon="6.37104">
        <ele>267.17</ele>
        <time>2016-09-05T14:35:02.000Z</time>
      </trkpt>
      <trkpt lat="47.34126" lon="6.37104">
        <ele>267.594</ele>
        <time>2016-09-05T14:35:03.000Z</time>
      </trkpt>
      <trkpt lat="47.34126" lon="6.37104">
        <ele>269.097</ele>
        <time>2016-09-05T14:35:04.000Z</time>
      </trkpt>
      <trkpt lat="47.34126" lon="6.37104">
        <ele>269.206</ele>
        <time>2016-09-05T14:35:05.000Z</time>
      </trkpt>
      <trkpt lat="47.34126" lon="6.37104">
        <ele>269.731</ele>
        <time>2016-09-05T14:35:06.000Z</time>
      </trkpt>
      <trkpt lat="47.34127" lon="6.37104">
        <ele>269.418</ele>
        <time>2016-09-05T14:35:07.000Z</time>
      </trkpt>
      <trkpt lat="47.34127" lon="6.37104">
        <ele>269.82</ele>
        <time>2016-09-05T14:35:08.000Z</time>
      </trkpt>
      <trkpt lat="47.34127" lon="6.37104">
        <ele>269.765</ele>
        <time>2016-09-05T14:35:09.000Z</time>
      </trkpt>
      <trkpt lat="47.34127" lon="6.37103">
        <ele>269.936</ele>
        <time>2016-09-05T14:35:10.000Z</time>
      </trkpt>
      <trkpt lat="47.34127" lon="6.37102">
        <ele>269.835</ele>
        <time>2016-09-05T14:35:11.000Z</time>
      </trkpt>
      <trkpt lat="47.34128" lon="6.371">
        <ele>270.017</ele>
        <time>2016-09-05T14:35:12.000Z</time>
      </trkpt>
      <trkpt lat="47.34128" lon="6.37096">
        <ele>267.896</ele>
        <time>2016-09-05T14:35:13.000Z</time>
      </trkpt>
      <trkpt lat="47.34128" lon="6.37093">
        <ele>264.834</ele>
        <time>2016-09-05T14:35:14.000Z</time>
      </trkpt>
      <trkpt lat="47.34127" lon="6.37089">
        <ele>265.474</ele>
        <time>2016-09-05T14:35:15.000Z</time>
      </trkpt>
      <trkpt lat="47.34126" lon="6.37086">
        <ele>265.319</ele>
        <time>2016-09-05T14:35:16.000Z</time>
      </trkpt>
      <trkpt lat="47.34126" lon="6.37082">
        <ele>265.786</ele>
        <time>2016-09-05T14:35:17.000Z</time>
      </trkpt>
      <trkpt lat="47.34125" lon="6.37079">
        <ele>265.515</ele>
        <time>2016-09-05T14:35:18.000Z</time>
      </trkpt>
      <trkpt lat="47.34125" lon="6.37076">
        <ele>267.418</ele>
        <time>2016-09-05T14:35:19.000Z</time>
      </trkpt>
      <trkpt lat="47.34125" lon="6.37073">
        <ele>267.321</ele>
        <time>2016-09-05T14:35:20.000Z</time>
      </trkpt>
      <trkpt lat="47.34125" lon="6.3707">
        <ele>267.493</ele>
        <time>2016-09-05T14:35:21.000Z</time>
      </trkpt>
      <trkpt lat="47.34126" lon="6.37067">
        <ele>267.457</ele>
        <time>2016-09-05T14:35:22.000Z</time>
      </trkpt>
      <trkpt lat="47.34126" lon="6.37064">
        <ele>267.234</ele>
        <time>2016-09-05T14:35:23.000Z</time>
      </trkpt>
      <trkpt lat="47.34126" lon="6.3706">
        <ele>267.876</ele>
        <time>2016-09-05T14:35:24.000Z</time>
      </trkpt>
      <trkpt lat="47.34126" lon="6.37056">
        <ele>268.033</ele>
        <time>2016-09-05T14:35:25.000Z</time>
      </trkpt>
      <trkpt lat="47.34126" lon="6.37053">
        <ele>269.352</ele>
        <time>2016-09-05T14:35:26.000Z</time>
      </trkpt>
      <trkpt lat="47.34127" lon="6.3705">
        <ele>270.283</ele>
        <time>2016-09-05T14:35:27.000Z</time>
      </trkpt>
      <trkpt lat="47.34127" lon="6.37046">
        <ele>269.488</ele>
        <time>2016-09-05T14:35:28.000Z</time>
      </trkpt>
      <trkpt lat="47.34127" lon="6.37043">
        <ele>269.348</ele>
        <time>2016-09-05T14:35:29.000Z</time>
      </trkpt>
      <trkpt lat="47.34126" lon="6.37039">
        <ele>268.777</ele>
        <time>2016-09-05T14:35:30.000Z</time>
      </trkpt>
      <trkpt lat="47.34125" lon="6.37035">
        <ele>269.363</ele>
        <time>2016-09-05T14:35:31.000Z</time>
      </trkpt>
      <trkpt lat="47.34125" lon="6.37031">
        <ele>269.83</ele>
        <time>2016-09-05T14:35:32.000Z</time>
      </trkpt>
      <trkpt lat="47.34125" lon="6.37027">
        <ele>269.775</ele>
        <time>2016-09-05T14:35:33.000Z</time>
      </trkpt>
      <trkpt lat="47.34125" lon="6.37022">
        <ele>269.287</ele>
        <time>2016-09-05T14:35:34.000Z</time>
      </trkpt>
      <trkpt lat="47.34125" lon="6.37019">
        <ele>270.836</ele>
        <time>2016-09-05T14:35:35.000Z</time>
      </trkpt>
      <trkpt lat="47.34126" lon="6.37014">
        <ele>271.023</ele>
        <time>2016-09-05T14:35:36.000Z</time>
      </trkpt>
      <trkpt lat="47.34126" lon="6.3701">
        <ele>271.255</ele>
        <time>2016-09-05T14:35:37.000Z</time>
      </trkpt>
      <trkpt lat="47.34125" lon="6.37006">
        <ele>271.359</ele>
        <time>2016-09-05T14:35:38.000Z</time>
      </trkpt>
      <trkpt lat="47.34125" lon="6.37001">
        <ele>270.745</ele>
        <time>2016-09-05T14:35:39.000Z</time>
      </trkpt>
      <trkpt lat="47.34124" lon="6.36997">
        <ele>272.566</ele>
        <time>2016-09-05T14:35:40.000Z</time>
      </trkpt>
      <trkpt lat="47.34124" lon="6.36993">
        <ele>274.898</ele>
        <time>2016-09-05T14:35:41.000Z</time>
      </trkpt>
      <trkpt lat="47.34124" lon="6.36989">
        <ele>276.952</ele>
        <time>2016-09-05T14:35:42.000Z</time>
      </trkpt>
      <trkpt lat="47.34124" lon="6.36984">
        <ele>279.985</ele>
        <time>2016-09-05T14:35:43.000Z</time>
      </trkpt>
      <trkpt lat="47.34125" lon="6.3698">
        <ele>280.311</ele>
        <time>2016-09-05T14:35:44.000Z</time>
      </trkpt>
      <trkpt lat="47.34125" lon="6.36975">
        <ele>281.788</ele>
        <time>2016-09-05T14:35:45.000Z</time>
      </trkpt>
      <trkpt lat="47.34125" lon="6.3697">
        <ele>282.179</ele>
        <time>2016-09-05T14:35:46.000Z</time>
      </trkpt>
      <trkpt lat="47.34125" lon="6.36965">
        <ele>282.963</ele>
        <time>2016-09-05T14:35:47.000Z</time>
      </trkpt>
      <trkpt lat="47.34124" lon="6.36961">
        <ele>283.16</ele>
        <time>2016-09-05T14:35:48.000Z</time>
      </trkpt>
      <trkpt lat="47.34124" lon="6.36957">
        <ele>285.414</ele>
        <time>2016-09-05T14:35:49.000Z</time>
      </trkpt>
      <trkpt lat="47.34124" lon="6.36952">
        <ele>286.283</ele>
        <time>2016-09-05T14:35:50.000Z</time>
      </trkpt>
      <trkpt lat="47.34124" lon="6.36947">
        <ele>286.426</ele>
        <time>2016-09-05T14:35:51.000Z</time>
      </trkpt>
      <trkpt lat="47.34125" lon="6.36942">
        <ele>283.922</ele>
        <time>2016-09-05T14:35:52.000Z</time>
      </trkpt>
      <trkpt lat="47.34125" lon="6.36937">
        <ele>283.497</ele>
        <time>2016-09-05T14:35:53.000Z</time>
      </trkpt>
      <trkpt lat="47.34124" lon="6.36933">
        <ele>287.052</ele>
        <time>2016-09-05T14:35:54.000Z</time>
      </trkpt>
      <trkpt lat="47.34124" lon="6.36928">
        <ele>287.007</ele>
        <time>2016-09-05T14:35:55.000Z</time>
      </trkpt>
      <trkpt lat="47.34124" lon="6.36923">
        <ele>286.883</ele>
        <time>2016-09-05T14:35:56.000Z</time>
      </trkpt>
      <trkpt lat="47.34125" lon="6.36918">
        <ele>285.401</ele>
        <time>2016-09-05T14:35:57.000Z</time>
      </trkpt>
      <trkpt lat="47.34125" lon="6.36913">
        <ele>284.1</ele>
        <time>2016-09-05T14:35:58.000Z</time>
      </trkpt>
      <trkpt lat="47.34126" lon="6.36907">
        <ele>284.091</ele>
        <time>2016-09-05T14:35:59.000Z</time>
      </trkpt>
      <trkpt lat="47.34126" lon="6.36901">
        <ele>281.837</ele>
        <time>2016-09-05T14:36:00.000Z</time>
      </trkpt>
      <trkpt lat="47.34126" lon="6.36896">
        <ele>282.067</ele>
        <time>2016-09-05T14:36:01.000Z</time>
      </trkpt>
      <trkpt lat="47.34125" lon="6.36891">
        <ele>282.491</ele>
        <time>2016-09-05T14:36:02.000Z</time>
      </trkpt>
      <trkpt lat="47.34125" lon="6.36886">
        <ele>283.076</ele>
        <time>2016-09-05T14:36:03.000Z</time>
      </trkpt>
      <trkpt lat="47.34124" lon="6.36881">
        <ele>282.701</ele>
        <time>2016-09-05T14:36:04.000Z</time>
      </trkpt>
      <trkpt lat="47.34123" lon="6.36876">
        <ele>282.788</ele>
        <time>2016-09-05T14:36:05.000Z</time>
      </trkpt>
      <trkpt lat="47.34123" lon="6.36872">
        <ele>282.357</ele>
        <time>2016-09-05T14:36:06.000Z</time>
      </trkpt>
      <trkpt lat="47.34122" lon="6.36867">
        <ele>282.257</ele>
        <time>2016-09-05T14:36:07.000Z</time>
      </trkpt>
      <trkpt lat="47.34122" lon="6.36863">
        <ele>285.224</ele>
        <time>2016-09-05T14:36:08.000Z</time>
      </trkpt>
      <trkpt lat="47.34123" lon="6.36857">
        <ele>287.435</ele>
        <time>2016-09-05T14:36:09.000Z</time>
      </trkpt>
      <trkpt lat="47.34123" lon="6.36852">
        <ele>288.16</ele>
        <time>2016-09-05T14:36:10.000Z</time>
      </trkpt>
      <trkpt lat="47.34124" lon="6.36848">
        <ele>288.793</ele>
        <time>2016-09-05T14:36:11.000Z</time>
      </trkpt>
      <trkpt lat="47.34126" lon="6.36844">
        <ele>289.416</ele>
        <time>2016-09-05T14:36:12.000Z</time>
      </trkpt>
      <trkpt lat="47.34128" lon="6.36839">
        <ele>291.479</ele>
        <time>2016-09-05T14:36:13.000Z</time>
      </trkpt>
      <trkpt lat="47.34129" lon="6.36835">
        <ele>291.036</ele>
        <time>2016-09-05T14:36:14.000Z</time>
      </trkpt>
      <trkpt lat="47.34131" lon="6.36829">
        <ele>291.852</ele>
        <time>2016-09-05T14:36:15.000Z</time>
      </trkpt>
      <trkpt lat="47.34132" lon="6.36824">
        <ele>291.866</ele>
        <time>2016-09-05T14:36:16.000Z</time>
      </trkpt>
      <trkpt lat="47.34132" lon="6.36818">
        <ele>290.955</ele>
        <time>2016-09-05T14:36:17.000Z</time>
      </trkpt>
      <trkpt lat="47.34132" lon="6.36813">
        <ele>288.414</ele>
        <time>2016-09-05T14:36:18.000Z</time>
      </trkpt>
      <trkpt lat="47.34132" lon="6.36808">
        <ele>290.21</ele>
        <time>2016-09-05T14:36:19.000Z</time>
      </trkpt>
      <trkpt lat="47.34131" lon="6.36803">
        <ele>291.047</ele>
        <time>2016-09-05T14:36:20.000Z</time>
      </trkpt>
      <trkpt lat="47.34131" lon="6.36797">
        <ele>290.328</ele>
        <time>2016-09-05T14:36:21.000Z</time>
      </trkpt>
      <trkpt lat="47.34131" lon="6.36792">
        <ele>290.113</ele>
        <time>2016-09-05T14:36:22.000Z</time>
      </trkpt>
      <trkpt lat="47.34131" lon="6.36786">
        <ele>289.927</ele>
        <time>2016-09-05T14:36:23.000Z</time>
      </trkpt>
      <trkpt lat="47.34131" lon="6.36781">
        <ele>289.624</ele>
        <time>2016-09-05T14:36:24.000Z</time>
      </trkpt>
      <trkpt lat="47.3413" lon="6.36776">
        <ele>288.268</ele>
        <time>2016-09-05T14:36:25.000Z</time>
      </trkpt>
      <trkpt lat="47.34129" lon="6.36772">
        <ele>287.12</ele>
        <time>2016-09-05T14:36:26.000Z</time>
      </trkpt>
      <trkpt lat="47.34128" lon="6.36767">
        <ele>285.09</ele>
        <time>2016-09-05T14:36:27.000Z</time>
      </trkpt>
      <trkpt lat="47.34128" lon="6.36762">
        <ele>284.015</ele>
        <time>2016-09-05T14:36:28.000Z</time>
      </trkpt>
      <trkpt lat="47.34128" lon="6.36757">
        <ele>283.333</ele>
        <time>2016-09-05T14:36:29.000Z</time>
      </trkpt>
      <trkpt lat="47.34127" lon="6.36753">
        <ele>281.392</ele>
        <time>2016-09-05T14:36:30.000Z</time>
      </trkpt>
      <trkpt lat="47.34127" lon="6.36749">
        <ele>281.995</ele>
        <time>2016-09-05T14:36:31.000Z</time>
      </trkpt>
      <trkpt lat="47.34127" lon="6.36744">
        <ele>282.035</ele>
        <time>2016-09-05T14:36:32.000Z</time>
      </trkpt>
      <trkpt lat="47.34126" lon="6.36739">
        <ele>281.352</ele>
        <time>2016-09-05T14:36:33.000Z</time>
      </trkpt>
      <trkpt lat="47.34125" lon="6.36734">
        <ele>276.777</ele>
        <time>2016-09-05T14:36:34.000Z</time>
      </trkpt>
      <trkpt lat="47.34123" lon="6.36729">
        <ele>276.701</ele>
        <time>2016-09-05T14:36:35.000Z</time>
      </trkpt>
      <trkpt lat="47.34122" lon="6.36724">
        <ele>275.898</ele>
        <time>2016-09-05T14:36:36.000Z</time>
      </trkpt>
      <trkpt lat="47.34122" lon="6.36719">
        <ele>275.803</ele>
        <time>2016-09-05T14:36:37.000Z</time>
      </trkpt>
      <trkpt lat="47.34122" lon="6.36714">
        <ele>275.727</ele>
        <time>2016-09-05T14:36:38.000Z</time>
      </trkpt>
      <trkpt lat="47.34122" lon="6.36709">
        <ele>275.782</ele>
        <time>2016-09-05T14:36:39.000Z</time>
      </trkpt>
      <trkpt lat="47.34123" lon="6.36704">
        <ele>277.356</ele>
        <time>2016-09-05T14:36:40.000Z</time>
      </trkpt>
      <trkpt lat="47.34123" lon="6.36699">
        <ele>277.564</ele>
        <time>2016-09-05T14:36:41.000Z</time>
      </trkpt>
      <trkpt lat="47.34122" lon="6.36694">
        <ele>273.46</ele>
        <time>2016-09-05T14:36:42.000Z</time>
      </trkpt>
      <trkpt lat="47.34122" lon="6.36689">
        <ele>273.425</ele>
        <time>2016-09-05T14:36:43.000Z</time>
      </trkpt>
      <trkpt lat="47.34121" lon="6.36685">
        <ele>275.023</ele>
        <time>2016-09-05T14:36:44.000Z</time>
      </trkpt>
      <trkpt lat="47.34121" lon="6.3668">
        <ele>275.523</ele>
        <time>2016-09-05T14:36:45.000Z</time>
      </trkpt>
      <trkpt lat="47.34121" lon="6.36676">
        <ele>277.736</ele>
        <time>2016-09-05T14:36:46.000Z</time>
      </trkpt>
      <trkpt lat="47.34121" lon="6.36672">
        <ele>276.983</ele>
        <time>2016-09-05T14:36:47.000Z</time>
      </trkpt>
      <trkpt lat="47.3412" lon="6.36668">
        <ele>277.854</ele>
        <time>2016-09-05T14:36:48.000Z</time>
      </trkpt>
      <trkpt lat="47.3412" lon="6.36663">
        <ele>277.612</ele>
        <time>2016-09-05T14:36:49.000Z</time>
      </trkpt>
      <trkpt lat="47.3412" lon="6.36659">
        <ele>278.501</ele>
        <time>2016-09-05T14:36:50.000Z</time>
      </trkpt>
      <trkpt lat="47.3412" lon="6.36654">
        <ele>278.629</ele>
        <time>2016-09-05T14:36:51.000Z</time>
      </trkpt>
      <trkpt lat="47.34121" lon="6.3665">
        <ele>280.233</ele>
        <time>2016-09-05T14:36:52.000Z</time>
      </trkpt>
      <trkpt lat="47.34122" lon="6.36645">
        <ele>280.496</ele>
        <time>2016-09-05T14:36:53.000Z</time>
      </trkpt>
      <trkpt lat="47.34123" lon="6.36641">
        <ele>278.9</ele>
        <time>2016-09-05T14:36:54.000Z</time>
      </trkpt>
      <trkpt lat="47.34124" lon="6.36637">
        <ele>279.05</ele>
        <time>2016-09-05T14:36:55.000Z</time>
      </trkpt>
      <trkpt lat="47.34124" lon="6.36632">
        <ele>278.215</ele>
        <time>2016-09-05T14:36:56.000Z</time>
      </trkpt>
      <trkpt lat="47.34125" lon="6.36627">
        <ele>278.517</ele>
        <time>2016-09-05T14:36:57.000Z</time>
      </trkpt>
      <trkpt lat="47.34126" lon="6.36622">
        <ele>278.569</ele>
        <time>2016-09-05T14:36:58.000Z</time>
      </trkpt>
      <trkpt lat="47.34128" lon="6.36617">
        <ele>275.984</ele>
        <time>2016-09-05T14:36:59.000Z</time>
      </trkpt>
      <trkpt lat="47.3413" lon="6.36611">
        <ele>274.889</ele>
        <time>2016-09-05T14:37:00.000Z</time>
      </trkpt>
      <trkpt lat="47.34131" lon="6.36605">
        <ele>274.447</ele>
        <time>2016-09-05T14:37:01.000Z</time>
      </trkpt>
      <trkpt lat="47.34132" lon="6.366">
        <ele>273.563</ele>
        <time>2016-09-05T14:37:02.000Z</time>
      </trkpt>
      <trkpt lat="47.34133" lon="6.36594">
        <ele>272.507</ele>
        <time>2016-09-05T14:37:03.000Z</time>
      </trkpt>
      <trkpt lat="47.34134" lon="6.36587">
        <ele>271.028</ele>
        <time>2016-09-05T14:37:04.000Z</time>
      </trkpt>
      <trkpt lat="47.34135" lon="6.3658">
        <ele>271.218</ele>
        <time>2016-09-05T14:37:05.000Z</time>
      </trkpt>
      <trkpt lat="47.34136" lon="6.36574">
        <ele>270.915</ele>
        <time>2016-09-05T14:37:06.000Z</time>
      </trkpt>
      <trkpt lat="47.34139" lon="6.36563">
        <ele>271.317</ele>
        <time>2016-09-05T14:37:07.000Z</time>
      </trkpt>
      <trkpt lat="47.3414" lon="6.36556">
        <ele>271.878</ele>
        <time>2016-09-05T14:37:08.000Z</time>
      </trkpt>
      <trkpt lat="47.34142" lon="6.36549">
        <ele>271.307</ele>
        <time>2016-09-05T14:37:09.000Z</time>
      </trkpt>
      <trkpt lat="47.34143" lon="6.36543">
        <ele>271.297</ele>
        <time>2016-09-05T14:37:10.000Z</time>
      </trkpt>
      <trkpt lat="47.34144" lon="6.36535">
        <ele>271.872</ele>
        <time>2016-09-05T14:37:11.000Z</time>
      </trkpt>
      <trkpt lat="47.34145" lon="6.36527">
        <ele>269.269</ele>
        <time>2016-09-05T14:37:12.000Z</time>
      </trkpt>
      <trkpt lat="47.34147" lon="6.3652">
        <ele>268.646</ele>
        <time>2016-09-05T14:37:13.000Z</time>
      </trkpt>
      <trkpt lat="47.34147" lon="6.36514">
        <ele>269.469</ele>
        <time>2016-09-05T14:37:14.000Z</time>
      </trkpt>
      <trkpt lat="47.34148" lon="6.36509">
        <ele>269.88</ele>
        <time>2016-09-05T14:37:15.000Z</time>
      </trkpt>
      <trkpt lat="47.34149" lon="6.36505">
        <ele>271.573</ele>
        <time>2016-09-05T14:37:16.000Z</time>
      </trkpt>
      <trkpt lat="47.3415" lon="6.365">
        <ele>271.798</ele>
        <time>2016-09-05T14:37:17.000Z</time>
      </trkpt>
      <trkpt lat="47.34154" lon="6.36492">
        <ele>271.148</ele>
        <time>2016-09-05T14:37:18.000Z</time>
      </trkpt>
      <trkpt lat="47.34155" lon="6.36488">
        <ele>272.774</ele>
        <time>2016-09-05T14:37:19.000Z</time>
      </trkpt>
      <trkpt lat="47.34155" lon="6.36484">
        <ele>272.989</ele>
        <time>2016-09-05T14:37:20.000Z</time>
      </trkpt>
      <trkpt lat="47.34155" lon="6.36476">
        <ele>273.36</ele>
        <time>2016-09-05T14:37:21.000Z</time>
      </trkpt>
      <trkpt lat="47.34154" lon="6.36471">
        <ele>273.718</ele>
        <time>2016-09-05T14:37:22.000Z</time>
      </trkpt>
      <trkpt lat="47.34154" lon="6.36466">
        <ele>273.575</ele>
        <time>2016-09-05T14:37:23.000Z</time>
      </trkpt>
      <trkpt lat="47.34155" lon="6.3646">
        <ele>274.993</ele>
        <time>2016-09-05T14:37:24.000Z</time>
      </trkpt>
      <trkpt lat="47.34156" lon="6.36455">
        <ele>278.734</ele>
        <time>2016-09-05T14:37:25.000Z</time>
      </trkpt>
      <trkpt lat="47.34157" lon="6.36449">
        <ele>277.116</ele>
        <time>2016-09-05T14:37:26.000Z</time>
      </trkpt>
      <trkpt lat="47.34159" lon="6.36443">
        <ele>277.352</ele>
        <time>2016-09-05T14:37:27.000Z</time>
      </trkpt>
      <trkpt lat="47.3416" lon="6.36436">
        <ele>277.783</ele>
        <time>2016-09-05T14:37:28.000Z</time>
      </trkpt>
      <trkpt lat="47.34162" lon="6.3643">
        <ele>276.066</ele>
        <time>2016-09-05T14:37:29.000Z</time>
      </trkpt>
      <trkpt lat="47.34163" lon="6.36424">
        <ele>275.239</ele>
        <time>2016-09-05T14:37:30.000Z</time>
      </trkpt>
      <trkpt lat="47.34163" lon="6.36419">
        <ele>275.848</ele>
        <time>2016-09-05T14:37:31.000Z</time>
      </trkpt>
      <trkpt lat="47.34163" lon="6.36415">
        <ele>276.168</ele>
        <time>2016-09-05T14:37:32.000Z</time>
      </trkpt>
      <trkpt lat="47.34164" lon="6.36409">
        <ele>272.492</ele>
        <time>2016-09-05T14:37:33.000Z</time>
      </trkpt>
      <trkpt lat="47.34164" lon="6.36403">
        <ele>272.479</ele>
        <time>2016-09-05T14:37:34.000Z</time>
      </trkpt>
      <trkpt lat="47.34166" lon="6.36396">
        <ele>272.417</ele>
        <time>2016-09-05T14:37:35.000Z</time>
      </trkpt>
      <trkpt lat="47.34168" lon="6.36388">
        <ele>270.919</ele>
        <time>2016-09-05T14:37:36.000Z</time>
      </trkpt>
      <trkpt lat="47.3417" lon="6.36382">
        <ele>273.221</ele>
        <time>2016-09-05T14:37:37.000Z</time>
      </trkpt>
      <trkpt lat="47.34172" lon="6.36375">
        <ele>273.554</ele>
        <time>2016-09-05T14:37:38.000Z</time>
      </trkpt>
      <trkpt lat="47.34173" lon="6.3637">
        <ele>273.913</ele>
        <time>2016-09-05T14:37:39.000Z</time>
      </trkpt>
      <trkpt lat="47.34174" lon="6.36364">
        <ele>274.311</ele>
        <time>2016-09-05T14:37:40.000Z</time>
      </trkpt>
      <trkpt lat="47.34174" lon="6.36359">
        <ele>272.647</ele>
        <time>2016-09-05T14:37:41.000Z</time>
      </trkpt>
      <trkpt lat="47.34176" lon="6.36353">
        <ele>273.056</ele>
        <time>2016-09-05T14:37:42.000Z</time>
      </trkpt>
      <trkpt lat="47.34177" lon="6.36347">
        <ele>272.671</ele>
        <time>2016-09-05T14:37:43.000Z</time>
      </trkpt>
      <trkpt lat="47.34178" lon="6.36341">
        <ele>271.452</ele>
        <time>2016-09-05T14:37:44.000Z</time>
      </trkpt>
      <trkpt lat="47.34179" lon="6.36335">
        <ele>271.443</ele>
        <time>2016-09-05T14:37:45.000Z</time>
      </trkpt>
      <trkpt lat="47.34181" lon="6.36329">
        <ele>272.132</ele>
        <time>2016-09-05T14:37:46.000Z</time>
      </trkpt>
      <trkpt lat="47.34182" lon="6.36322">
        <ele>272.63</ele>
        <time>2016-09-05T14:37:47.000Z</time>
      </trkpt>
      <trkpt lat="47.34185" lon="6.36315">
        <ele>272.636</ele>
        <time>2016-09-05T14:37:48.000Z</time>
      </trkpt>
      <trkpt lat="47.34186" lon="6.36309">
        <ele>272.905</ele>
        <time>2016-09-05T14:37:49.000Z</time>
      </trkpt>
      <trkpt lat="47.34188" lon="6.36302">
        <ele>272.983</ele>
        <time>2016-09-05T14:37:50.000Z</time>
      </trkpt>
      <trkpt lat="47.34189" lon="6.36297">
        <ele>273.293</ele>
        <time>2016-09-05T14:37:51.000Z</time>
      </trkpt>
      <trkpt lat="47.3419" lon="6.36292">
        <ele>272.952</ele>
        <time>2016-09-05T14:37:52.000Z</time>
      </trkpt>
      <trkpt lat="47.34191" lon="6.36285">
        <ele>274.594</ele>
        <time>2016-09-05T14:37:53.000Z</time>
      </trkpt>
      <trkpt lat="47.34191" lon="6.36279">
        <ele>274.854</ele>
        <time>2016-09-05T14:37:54.000Z</time>
      </trkpt>
      <trkpt lat="47.34192" lon="6.36272">
        <ele>274.537</ele>
        <time>2016-09-05T14:37:55.000Z</time>
      </trkpt>
      <trkpt lat="47.34193" lon="6.36267">
        <ele>275.432</ele>
        <time>2016-09-05T14:37:56.000Z</time>
      </trkpt>
      <trkpt lat="47.34194" lon="6.36261">
        <ele>276.022</ele>
        <time>2016-09-05T14:37:57.000Z</time>
      </trkpt>
      <trkpt lat="47.34195" lon="6.36256">
        <ele>276.091</ele>
        <time>2016-09-05T14:37:58.000Z</time>
      </trkpt>
      <trkpt lat="47.34196" lon="6.3625">
        <ele>275.915</ele>
        <time>2016-09-05T14:37:59.000Z</time>
      </trkpt>
      <trkpt lat="47.34197" lon="6.36244">
        <ele>273.584</ele>
        <time>2016-09-05T14:38:00.000Z</time>
      </trkpt>
      <trkpt lat="47.34197" lon="6.36239">
        <ele>273.387</ele>
        <time>2016-09-05T14:38:01.000Z</time>
      </trkpt>
      <trkpt lat="47.34198" lon="6.36233">
        <ele>269.319</ele>
        <time>2016-09-05T14:38:02.000Z</time>
      </trkpt>
      <trkpt lat="47.34198" lon="6.36229">
        <ele>269.052</ele>
        <time>2016-09-05T14:38:03.000Z</time>
      </trkpt>
      <trkpt lat="47.34199" lon="6.36227">
        <ele>271.522</ele>
        <time>2016-09-05T14:38:04.000Z</time>
      </trkpt>
      <trkpt lat="47.34199" lon="6.36226">
        <ele>270.147</ele>
        <time>2016-09-05T14:38:05.000Z</time>
      </trkpt>
      <trkpt lat="47.34199" lon="6.36226">
        <ele>269.62</ele>
        <time>2016-09-05T14:38:06.000Z</time>
      </trkpt>
      <trkpt lat="47.34199" lon="6.36226">
        <ele>270.722</ele>
        <time>2016-09-05T14:38:07.000Z</time>
      </trkpt>
      <trkpt lat="47.34199" lon="6.36227">
        <ele>271.899</ele>
        <time>2016-09-05T14:38:08.000Z</time>
      </trkpt>
      <trkpt lat="47.342" lon="6.36227">
        <ele>273.875</ele>
        <time>2016-09-05T14:38:09.000Z</time>
      </trkpt>
      <trkpt lat="47.342" lon="6.36227">
        <ele>273.979</ele>
        <time>2016-09-05T14:38:10.000Z</time>
      </trkpt>
      <trkpt lat="47.342" lon="6.36227">
        <ele>274.868</ele>
        <time>2016-09-05T14:38:11.000Z</time>
      </trkpt>
      <trkpt lat="47.342" lon="6.36227">
        <ele>275.268</ele>
        <time>2016-09-05T14:38:12.000Z</time>
      </trkpt>
      <trkpt lat="47.342" lon="6.36227">
        <ele>274.315</ele>
        <time>2016-09-05T14:38:13.000Z</time>
      </trkpt>
      <trkpt lat="47.342" lon="6.36227">
        <ele>275.941</ele>
        <time>2016-09-05T14:38:14.000Z</time>
      </trkpt>
      <trkpt lat="47.342" lon="6.36227">
        <ele>276.162</ele>
        <time>2016-09-05T14:38:15.000Z</time>
      </trkpt>
      <trkpt lat="47.34202" lon="6.36228">
        <ele>276.429</ele>
        <time>2016-09-05T14:38:16.000Z</time>
      </trkpt>
      <trkpt lat="47.34202" lon="6.36229">
        <ele>276.41</ele>
        <time>2016-09-05T14:38:17.000Z</time>
      </trkpt>
      <trkpt lat="47.34202" lon="6.36229">
        <ele>276.071</ele>
        <time>2016-09-05T14:38:18.000Z</time>
      </trkpt>
      <trkpt lat="47.34203" lon="6.3623">
        <ele>276.232</ele>
        <time>2016-09-05T14:38:19.000Z</time>
      </trkpt>
      <trkpt lat="47.34203" lon="6.3623">
        <ele>272.029</ele>
        <time>2016-09-05T14:38:20.000Z</time>
      </trkpt>
      <trkpt lat="47.34203" lon="6.3623">
        <ele>270.961</ele>
        <time>2016-09-05T14:38:21.000Z</time>
      </trkpt>
      <trkpt lat="47.34203" lon="6.3623">
        <ele>271.084</ele>
        <time>2016-09-05T14:38:22.000Z</time>
      </trkpt>
      <trkpt lat="47.34203" lon="6.3623">
        <ele>271.834</ele>
        <time>2016-09-05T14:38:23.000Z</time>
      </trkpt>
      <trkpt lat="47.34202" lon="6.3623">
        <ele>271.372</ele>
        <time>2016-09-05T14:38:24.000Z</time>
      </trkpt>
      <trkpt lat="47.34202" lon="6.3623">
        <ele>270.038</ele>
        <time>2016-09-05T14:38:25.000Z</time>
      </trkpt>
      <trkpt lat="47.34202" lon="6.36229">
        <ele>269.971</ele>
        <time>2016-09-05T14:38:26.000Z</time>
      </trkpt>
      <trkpt lat="47.34202" lon="6.36227">
        <ele>270.128</ele>
        <time>2016-09-05T14:38:27.000Z</time>
      </trkpt>
      <trkpt lat="47.34202" lon="6.36226">
        <ele>269.863</ele>
        <time>2016-09-05T14:38:28.000Z</time>
      </trkpt>
      <trkpt lat="47.34202" lon="6.36225">
        <ele>270.07</ele>
        <time>2016-09-05T14:38:29.000Z</time>
      </trkpt>
      <trkpt lat="47.34202" lon="6.36224">
        <ele>270.703</ele>
        <time>2016-09-05T14:38:30.000Z</time>
      </trkpt>
      <trkpt lat="47.34202" lon="6.36223">
        <ele>270.448</ele>
        <time>2016-09-05T14:38:31.000Z</time>
      </trkpt>
      <trkpt lat="47.34202" lon="6.36223">
        <ele>271.469</ele>
        <time>2016-09-05T14:38:32.000Z</time>
      </trkpt>
      <trkpt lat="47.34202" lon="6.36223">
        <ele>271.63</ele>
        <time>2016-09-05T14:38:33.000Z</time>
      </trkpt>
      <trkpt lat="47.34202" lon="6.36223">
        <ele>271.484</ele>
        <time>2016-09-05T14:38:34.000Z</time>
      </trkpt>
      <trkpt lat="47.34202" lon="6.36223">
        <ele>272.372</ele>
        <time>2016-09-05T14:38:35.000Z</time>
      </trkpt>
      <trkpt lat="47.34202" lon="6.36222">
        <ele>272.604</ele>
        <time>2016-09-05T14:38:36.000Z</time>
      </trkpt>
      <trkpt lat="47.34202" lon="6.36222">
        <ele>272.78</ele>
        <time>2016-09-05T14:38:37.000Z</time>
      </trkpt>
      <trkpt lat="47.34202" lon="6.36222">
        <ele>272.782</ele>
        <time>2016-09-05T14:38:38.000Z</time>
      </trkpt>
      <trkpt lat="47.34201" lon="6.36221">
        <ele>272.858</ele>
        <time>2016-09-05T14:38:39.000Z</time>
      </trkpt>
      <trkpt lat="47.34201" lon="6.36221">
        <ele>273.179</ele>
        <time>2016-09-05T14:38:40.000Z</time>
      </trkpt>
      <trkpt lat="47.34201" lon="6.3622">
        <ele>270.718</ele>
        <time>2016-09-05T14:38:41.000Z</time>
      </trkpt>
      <trkpt lat="47.34202" lon="6.36218">
        <ele>269.6</ele>
        <time>2016-09-05T14:38:42.000Z</time>
      </trkpt>
      <trkpt lat="47.34202" lon="6.36217">
        <ele>270.611</ele>
        <time>2016-09-05T14:38:43.000Z</time>
      </trkpt>
      <trkpt lat="47.34203" lon="6.36215">
        <ele>272.281</ele>
        <time>2016-09-05T14:38:44.000Z</time>
      </trkpt>
      <trkpt lat="47.34203" lon="6.36213">
        <ele>274.454</ele>
        <time>2016-09-05T14:38:45.000Z</time>
      </trkpt>
      <trkpt lat="47.34203" lon="6.36211">
        <ele>275.084</ele>
        <time>2016-09-05T14:38:46.000Z</time>
      </trkpt>
      <trkpt lat="47.34203" lon="6.3621">
        <ele>274.275</ele>
        <time>2016-09-05T14:38:47.000Z</time>
      </trkpt>
      <trkpt lat="47.34203" lon="6.36208">
        <ele>275.701</ele>
        <time>2016-09-05T14:38:48.000Z</time>
      </trkpt>
      <trkpt lat="47.34203" lon="6.36207">
        <ele>276.166</ele>
        <time>2016-09-05T14:38:49.000Z</time>
      </trkpt>
      <trkpt lat="47.34203" lon="6.36205">
        <ele>275.971</ele>
        <time>2016-09-05T14:38:50.000Z</time>
      </trkpt>
      <trkpt lat="47.34203" lon="6.36203">
        <ele>275.35</ele>
        <time>2016-09-05T14:38:51.000Z</time>
      </trkpt>
      <trkpt lat="47.34203" lon="6.36202">
        <ele>276.038</ele>
        <time>2016-09-05T14:38:52.000Z</time>
      </trkpt>
      <trkpt lat="47.34204" lon="6.362">
        <ele>277.098</ele>
        <time>2016-09-05T14:38:53.000Z</time>
      </trkpt>
      <trkpt lat="47.34204" lon="6.36198">
        <ele>277.647</ele>
        <time>2016-09-05T14:38:54.000Z</time>
      </trkpt>
      <trkpt lat="47.34204" lon="6.36197">
        <ele>278.041</ele>
        <time>2016-09-05T14:38:55.000Z</time>
      </trkpt>
      <trkpt lat="47.34204" lon="6.36196">
        <ele>278.021</ele>
        <time>2016-09-05T14:38:56.000Z</time>
      </trkpt>
      <trkpt lat="47.34204" lon="6.36194">
        <ele>277.148</ele>
        <time>2016-09-05T14:38:57.000Z</time>
      </trkpt>
      <trkpt lat="47.34205" lon="6.36193">
        <ele>279.312</ele>
        <time>2016-09-05T14:38:58.000Z</time>
      </trkpt>
      <trkpt lat="47.34205" lon="6.36191">
        <ele>279.136</ele>
        <time>2016-09-05T14:38:59.000Z</time>
      </trkpt>
      <trkpt lat="47.34206" lon="6.3619">
        <ele>279.041</ele>
        <time>2016-09-05T14:39:00.000Z</time>
      </trkpt>
      <trkpt lat="47.34206" lon="6.3619">
        <ele>278.982</ele>
        <time>2016-09-05T14:39:01.000Z</time>
      </trkpt>
      <trkpt lat="47.34206" lon="6.3619">
        <ele>279.605</ele>
        <time>2016-09-05T14:39:02.000Z</time>
      </trkpt>
      <trkpt lat="47.34207" lon="6.36189">
        <ele>278.829</ele>
        <time>2016-09-05T14:39:03.000Z</time>
      </trkpt>
      <trkpt lat="47.34207" lon="6.36188">
        <ele>278.904</ele>
        <time>2016-09-05T14:39:04.000Z</time>
      </trkpt>
      <trkpt lat="47.34208" lon="6.36187">
        <ele>279.204</ele>
        <time>2016-09-05T14:39:05.000Z</time>
      </trkpt>
      <trkpt lat="47.34208" lon="6.36185">
        <ele>278.881</ele>
        <time>2016-09-05T14:39:06.000Z</time>
      </trkpt>
      <trkpt lat="47.3421" lon="6.36184">
        <ele>278.823</ele>
        <time>2016-09-05T14:39:07.000Z</time>
      </trkpt>
      <trkpt lat="47.34211" lon="6.36183">
        <ele>278.909</ele>
        <time>2016-09-05T14:39:08.000Z</time>
      </trkpt>
      <trkpt lat="47.34212" lon="6.36182">
        <ele>278.513</ele>
        <time>2016-09-05T14:39:09.000Z</time>
      </trkpt>
      <trkpt lat="47.34213" lon="6.3618">
        <ele>278.84</ele>
        <time>2016-09-05T14:39:10.000Z</time>
      </trkpt>
      <trkpt lat="47.34215" lon="6.36179">
        <ele>278.694</ele>
        <time>2016-09-05T14:39:11.000Z</time>
      </trkpt>
      <trkpt lat="47.34216" lon="6.36179">
        <ele>278.158</ele>
        <time>2016-09-05T14:39:12.000Z</time>
      </trkpt>
      <trkpt lat="47.34219" lon="6.36178">
        <ele>277.116</ele>
        <time>2016-09-05T14:39:13.000Z</time>
      </trkpt>
      <trkpt lat="47.34221" lon="6.36177">
        <ele>275.117</ele>
        <time>2016-09-05T14:39:14.000Z</time>
      </trkpt>
      <trkpt lat="47.34223" lon="6.36175">
        <ele>275.589</ele>
        <time>2016-09-05T14:39:15.000Z</time>
      </trkpt>
      <trkpt lat="47.34225" lon="6.36174">
        <ele>275.926</ele>
        <time>2016-09-05T14:39:16.000Z</time>
      </trkpt>
      <trkpt lat="47.34228" lon="6.36172">
        <ele>276.943</ele>
        <time>2016-09-05T14:39:17.000Z</time>
      </trkpt>
      <trkpt lat="47.34231" lon="6.36171">
        <ele>274.363</ele>
        <time>2016-09-05T14:39:18.000Z</time>
      </trkpt>
      <trkpt lat="47.34234" lon="6.36169">
        <ele>273.173</ele>
        <time>2016-09-05T14:39:19.000Z</time>
      </trkpt>
      <trkpt lat="47.34236" lon="6.36168">
        <ele>273.215</ele>
        <time>2016-09-05T14:39:20.000Z</time>
      </trkpt>
      <trkpt lat="47.34239" lon="6.36167">
        <ele>272.897</ele>
        <time>2016-09-05T14:39:21.000Z</time>
      </trkpt>
      <trkpt lat="47.34241" lon="6.36166">
        <ele>274.014</ele>
        <time>2016-09-05T14:39:22.000Z</time>
      </trkpt>
      <trkpt lat="47.34242" lon="6.36165">
        <ele>273.582</ele>
        <time>2016-09-05T14:39:23.000Z</time>
      </trkpt>
      <trkpt lat="47.34245" lon="6.36165">
        <ele>274.39</ele>
        <time>2016-09-05T14:39:24.000Z</time>
      </trkpt>
      <trkpt lat="47.34247" lon="6.36165">
        <ele>274.13</ele>
        <time>2016-09-05T14:39:25.000Z</time>
      </trkpt>
      <trkpt lat="47.34249" lon="6.36164">
        <ele>273.551</ele>
        <time>2016-09-05T14:39:26.000Z</time>
      </trkpt>
      <trkpt lat="47.3425" lon="6.36164">
        <ele>274.394</ele>
        <time>2016-09-05T14:39:27.000Z</time>
      </trkpt>
      <trkpt lat="47.34252" lon="6.36163">
        <ele>273.354</ele>
        <time>2016-09-05T14:39:28.000Z</time>
      </trkpt>
      <trkpt lat="47.34254" lon="6.36162">
        <ele>273.996</ele>
        <time>2016-09-05T14:39:29.000Z</time>
      </trkpt>
      <trkpt lat="47.34256" lon="6.3616">
        <ele>273.898</ele>
        <time>2016-09-05T14:39:30.000Z</time>
      </trkpt>
      <trkpt lat="47.34258" lon="6.36159">
        <ele>272.267</ele>
        <time>2016-09-05T14:39:31.000Z</time>
      </trkpt>
      <trkpt lat="47.3426" lon="6.36159">
        <ele>271.113</ele>
        <time>2016-09-05T14:39:32.000Z</time>
      </trkpt>
      <trkpt lat="47.34263" lon="6.36159">
        <ele>271.487</ele>
        <time>2016-09-05T14:39:33.000Z</time>
      </trkpt>
      <trkpt lat="47.34265" lon="6.36159">
        <ele>270.654</ele>
        <time>2016-09-05T14:39:34.000Z</time>
      </trkpt>
      <trkpt lat="47.34268" lon="6.36158">
        <ele>270.713</ele>
        <time>2016-09-05T14:39:35.000Z</time>
      </trkpt>
      <trkpt lat="47.3427" lon="6.36158">
        <ele>271.281</ele>
        <time>2016-09-05T14:39:36.000Z</time>
      </trkpt>
      <trkpt lat="47.34273" lon="6.36158">
        <ele>273.153</ele>
        <time>2016-09-05T14:39:37.000Z</time>
      </trkpt>
      <trkpt lat="47.34276" lon="6.36158">
        <ele>272.399</ele>
        <time>2016-09-05T14:39:38.000Z</time>
      </trkpt>
      <trkpt lat="47.34279" lon="6.36157">
        <ele>272.136</ele>
        <time>2016-09-05T14:39:39.000Z</time>
      </trkpt>
      <trkpt lat="47.34282" lon="6.36157">
        <ele>272.541</ele>
        <time>2016-09-05T14:39:40.000Z</time>
      </trkpt>
      <trkpt lat="47.34284" lon="6.36157">
        <ele>271.62</ele>
        <time>2016-09-05T14:39:41.000Z</time>
      </trkpt>
      <trkpt lat="47.34286" lon="6.36156">
        <ele>272.883</ele>
        <time>2016-09-05T14:39:42.000Z</time>
      </trkpt>
      <trkpt lat="47.34288" lon="6.36156">
        <ele>272.748</ele>
        <time>2016-09-05T14:39:43.000Z</time>
      </trkpt>
      <trkpt lat="47.34291" lon="6.36156">
        <ele>273.959</ele>
        <time>2016-09-05T14:39:44.000Z</time>
      </trkpt>
      <trkpt lat="47.34293" lon="6.36156">
        <ele>273.532</ele>
        <time>2016-09-05T14:39:45.000Z</time>
      </trkpt>
      <trkpt lat="47.34295" lon="6.36156">
        <ele>272.948</ele>
        <time>2016-09-05T14:39:46.000Z</time>
      </trkpt>
      <trkpt lat="47.34297" lon="6.36156">
        <ele>271.837</ele>
        <time>2016-09-05T14:39:47.000Z</time>
      </trkpt>
      <trkpt lat="47.34299" lon="6.36155">
        <ele>272.293</ele>
        <time>2016-09-05T14:39:48.000Z</time>
      </trkpt>
      <trkpt lat="47.34301" lon="6.36155">
        <ele>272.488</ele>
        <time>2016-09-05T14:39:49.000Z</time>
      </trkpt>
      <trkpt lat="47.34302" lon="6.36155">
        <ele>274.609</ele>
        <time>2016-09-05T14:39:50.000Z</time>
      </trkpt>
      <trkpt lat="47.34302" lon="6.36155">
        <ele>274.208</ele>
        <time>2016-09-05T14:39:51.000Z</time>
      </trkpt>
      <trkpt lat="47.34302" lon="6.36156">
        <ele>273.964</ele>
        <time>2016-09-05T14:39:52.000Z</time>
      </trkpt>
      <trkpt lat="47.34302" lon="6.36156">
        <ele>277.129</ele>
        <time>2016-09-05T14:39:53.000Z</time>
      </trkpt>
      <trkpt lat="47.34301" lon="6.36156">
        <ele>277.414</ele>
        <time>2016-09-05T14:39:54.000Z</time>
      </trkpt>
      <trkpt lat="47.34301" lon="6.36155">
        <ele>277.077</ele>
        <time>2016-09-05T14:39:55.000Z</time>
      </trkpt>
      <trkpt lat="47.34302" lon="6.36156">
        <ele>277.183</ele>
        <time>2016-09-05T14:39:56.000Z</time>
      </trkpt>
      <trkpt lat="47.34302" lon="6.36156">
        <ele>276.185</ele>
        <time>2016-09-05T14:39:57.000Z</time>
      </trkpt>
      <trkpt lat="47.34302" lon="6.36157">
        <ele>275.468</ele>
        <time>2016-09-05T14:39:58.000Z</time>
      </trkpt>
      <trkpt lat="47.34303" lon="6.36157">
        <ele>274.453</ele>
        <time>2016-09-05T14:39:59.000Z</time>
      </trkpt>
      <trkpt lat="47.34303" lon="6.36158">
        <ele>274.653</ele>
        <time>2016-09-05T14:40:00.000Z</time>
      </trkpt>
      <trkpt lat="47.34304" lon="6.36158">
        <ele>273.301</ele>
        <time>2016-09-05T14:40:01.000Z</time>
      </trkpt>
      <trkpt lat="47.34304" lon="6.36158">
        <ele>273.78</ele>
        <time>2016-09-05T14:40:02.000Z</time>
      </trkpt>
      <trkpt lat="47.34305" lon="6.36158">
        <ele>273.196</ele>
        <time>2016-09-05T14:40:03.000Z</time>
      </trkpt>
      <trkpt lat="47.34306" lon="6.36158">
        <ele>273.824</ele>
        <time>2016-09-05T14:40:04.000Z</time>
      </trkpt>
      <trkpt lat="47.34307" lon="6.36158">
        <ele>274.108</ele>
        <time>2016-09-05T14:40:05.000Z</time>
      </trkpt>
      <trkpt lat="47.34308" lon="6.36158">
        <ele>274.514</ele>
        <time>2016-09-05T14:40:06.000Z</time>
      </trkpt>
      <trkpt lat="47.3431" lon="6.36158">
        <ele>274.528</ele>
        <time>2016-09-05T14:40:07.000Z</time>
      </trkpt>
      <trkpt lat="47.3431" lon="6.36158">
        <ele>273.129</ele>
        <time>2016-09-05T14:40:08.000Z</time>
      </trkpt>
      <trkpt lat="47.34311" lon="6.36157">
        <ele>273.091</ele>
        <time>2016-09-05T14:40:09.000Z</time>
      </trkpt>
      <trkpt lat="47.34312" lon="6.36157">
        <ele>274.116</ele>
        <time>2016-09-05T14:40:10.000Z</time>
      </trkpt>
      <trkpt lat="47.34313" lon="6.36156">
        <ele>274.271</ele>
        <time>2016-09-05T14:40:11.000Z</time>
      </trkpt>
      <trkpt lat="47.34313" lon="6.36156">
        <ele>275.162</ele>
        <time>2016-09-05T14:40:12.000Z</time>
      </trkpt>
      <trkpt lat="47.34314" lon="6.36155">
        <ele>275.648</ele>
        <time>2016-09-05T14:40:13.000Z</time>
      </trkpt>
      <trkpt lat="47.34315" lon="6.36155">
        <ele>276.228</ele>
        <time>2016-09-05T14:40:14.000Z</time>
      </trkpt>
      <trkpt lat="47.34316" lon="6.36154">
        <ele>276.734</ele>
        <time>2016-09-05T14:40:15.000Z</time>
      </trkpt>
      <trkpt lat="47.34318" lon="6.36154">
        <ele>277.563</ele>
        <time>2016-09-05T14:40:16.000Z</time>
      </trkpt>
      <trkpt lat="47.34319" lon="6.36154">
        <ele>277.297</ele>
        <time>2016-09-05T14:40:17.000Z</time>
      </trkpt>
      <trkpt lat="47.34319" lon="6.36154">
        <ele>277.608</ele>
        <time>2016-09-05T14:40:18.000Z</time>
      </trkpt>
      <trkpt lat="47.34319" lon="6.36154">
        <ele>277.616</ele>
        <time>2016-09-05T14:40:19.000Z</time>
      </trkpt>
      <trkpt lat="47.34319" lon="6.36154">
        <ele>276.138</ele>
        <time>2016-09-05T14:40:20.000Z</time>
      </trkpt>
      <trkpt lat="47.34319" lon="6.36154">
        <ele>275.446</ele>
        <time>2016-09-05T14:40:21.000Z</time>
      </trkpt>
      <trkpt lat="47.3432" lon="6.36153">
        <ele>274.639</ele>
        <time>2016-09-05T14:40:22.000Z</time>
      </trkpt>
      <trkpt lat="47.3432" lon="6.36153">
        <ele>273.59</ele>
        <time>2016-09-05T14:40:23.000Z</time>
      </trkpt>
      <trkpt lat="47.3432" lon="6.36153">
        <ele>272.542</ele>
        <time>2016-09-05T14:40:24.000Z</time>
      </trkpt>
      <trkpt lat="47.3432" lon="6.36153">
        <ele>273.574</ele>
        <time>2016-09-05T14:40:25.000Z</time>
      </trkpt>
      <trkpt lat="47.34321" lon="6.36154">
        <ele>274.185</ele>
        <time>2016-09-05T14:40:26.000Z</time>
      </trkpt>
      <trkpt lat="47.34322" lon="6.36153">
        <ele>273.796</ele>
        <time>2016-09-05T14:40:27.000Z</time>
      </trkpt>
      <trkpt lat="47.34322" lon="6.36153">
        <ele>273.009</ele>
        <time>2016-09-05T14:40:28.000Z</time>
      </trkpt>
      <trkpt lat="47.34323" lon="6.36153">
        <ele>272.916</ele>
        <time>2016-09-05T14:40:29.000Z</time>
      </trkpt>
      <trkpt lat="47.34323" lon="6.36153">
        <ele>273.929</ele>
        <time>2016-09-05T14:40:30.000Z</time>
      </trkpt>
      <trkpt lat="47.34323" lon="6.36152">
        <ele>273.42</ele>
        <time>2016-09-05T14:40:31.000Z</time>
      </trkpt>
      <trkpt lat="47.34323" lon="6.36152">
        <ele>273.836</ele>
        <time>2016-09-05T14:40:32.000Z</time>
      </trkpt>
      <trkpt lat="47.34324" lon="6.36152">
        <ele>274.644</ele>
        <time>2016-09-05T14:40:33.000Z</time>
      </trkpt>
      <trkpt lat="47.34324" lon="6.36151">
        <ele>273.988</ele>
        <time>2016-09-05T14:40:34.000Z</time>
      </trkpt>
      <trkpt lat="47.34325" lon="6.3615">
        <ele>272.658</ele>
        <time>2016-09-05T14:40:35.000Z</time>
      </trkpt>
      <trkpt lat="47.34326" lon="6.3615">
        <ele>272.149</ele>
        <time>2016-09-05T14:40:36.000Z</time>
      </trkpt>
      <trkpt lat="47.34328" lon="6.3615">
        <ele>270.418</ele>
        <time>2016-09-05T14:40:37.000Z</time>
      </trkpt>
      <trkpt lat="47.34329" lon="6.3615">
        <ele>269.614</ele>
        <time>2016-09-05T14:40:38.000Z</time>
      </trkpt>
      <trkpt lat="47.34331" lon="6.36149">
        <ele>269.414</ele>
        <time>2016-09-05T14:40:39.000Z</time>
      </trkpt>
      <trkpt lat="47.34333" lon="6.3615">
        <ele>271.075</ele>
        <time>2016-09-05T14:40:40.000Z</time>
      </trkpt>
      <trkpt lat="47.34334" lon="6.3615">
        <ele>270.714</ele>
        <time>2016-09-05T14:40:41.000Z</time>
      </trkpt>
      <trkpt lat="47.34335" lon="6.36149">
        <ele>270.747</ele>
        <time>2016-09-05T14:40:42.000Z</time>
      </trkpt>
      <trkpt lat="47.34337" lon="6.36149">
        <ele>270.734</ele>
        <time>2016-09-05T14:40:43.000Z</time>
      </trkpt>
      <trkpt lat="47.34338" lon="6.36149">
        <ele>268.301</ele>
        <time>2016-09-05T14:40:44.000Z</time>
      </trkpt>
      <trkpt lat="47.34339" lon="6.36148">
        <ele>268.182</ele>
        <time>2016-09-05T14:40:45.000Z</time>
      </trkpt>
      <trkpt lat="47.3434" lon="6.36148">
        <ele>268.579</ele>
        <time>2016-09-05T14:40:46.000Z</time>
      </trkpt>
      <trkpt lat="47.34341" lon="6.36148">
        <ele>269.095</ele>
        <time>2016-09-05T14:40:47.000Z</time>
      </trkpt>
      <trkpt lat="47.34342" lon="6.36148">
        <ele>268.772</ele>
        <time>2016-09-05T14:40:48.000Z</time>
      </trkpt>
      <trkpt lat="47.34343" lon="6.36148">
        <ele>269.123</ele>
        <time>2016-09-05T14:40:49.000Z</time>
      </trkpt>
      <trkpt lat="47.34344" lon="6.36148">
        <ele>270.516</ele>
        <time>2016-09-05T14:40:50.000Z</time>
      </trkpt>
      <trkpt lat="47.34345" lon="6.36148">
        <ele>271.444</ele>
        <time>2016-09-05T14:40:51.000Z</time>
      </trkpt>
      <trkpt lat="47.34347" lon="6.36148">
        <ele>271.033</ele>
        <time>2016-09-05T14:40:52.000Z</time>
      </trkpt>
      <trkpt lat="47.34348" lon="6.36147">
        <ele>270.683</ele>
        <time>2016-09-05T14:40:53.000Z</time>
      </trkpt>
      <trkpt lat="47.34349" lon="6.36147">
        <ele>269.76</ele>
        <time>2016-09-05T14:40:54.000Z</time>
      </trkpt>
      <trkpt lat="47.3435" lon="6.36147">
        <ele>270.368</ele>
        <time>2016-09-05T14:40:55.000Z</time>
      </trkpt>
      <trkpt lat="47.34351" lon="6.36146">
        <ele>270.117</ele>
        <time>2016-09-05T14:40:56.000Z</time>
      </trkpt>
      <trkpt lat="47.34353" lon="6.36146">
        <ele>269.618</ele>
        <time>2016-09-05T14:40:57.000Z</time>
      </trkpt>
      <trkpt lat="47.34354" lon="6.36147">
        <ele>270.46</ele>
        <time>2016-09-05T14:40:58.000Z</time>
      </trkpt>
      <trkpt lat="47.34355" lon="6.36147">
        <ele>270.302</ele>
        <time>2016-09-05T14:40:59.000Z</time>
      </trkpt>
      <trkpt lat="47.34356" lon="6.36147">
        <ele>270.006</ele>
        <time>2016-09-05T14:41:00.000Z</time>
      </trkpt>
      <trkpt lat="47.34357" lon="6.36147">
        <ele>269.577</ele>
        <time>2016-09-05T14:41:01.000Z</time>
      </trkpt>
      <trkpt lat="47.34359" lon="6.36147">
        <ele>269.162</ele>
        <time>2016-09-05T14:41:02.000Z</time>
      </trkpt>
      <trkpt lat="47.3436" lon="6.36147">
        <ele>268.492</ele>
        <time>2016-09-05T14:41:03.000Z</time>
      </trkpt>
      <trkpt lat="47.34361" lon="6.36147">
        <ele>267.89</ele>
        <time>2016-09-05T14:41:04.000Z</time>
      </trkpt>
      <trkpt lat="47.34363" lon="6.36147">
        <ele>268.499</ele>
        <time>2016-09-05T14:41:05.000Z</time>
      </trkpt>
      <trkpt lat="47.34364" lon="6.36147">
        <ele>267.757</ele>
        <time>2016-09-05T14:41:06.000Z</time>
      </trkpt>
      <trkpt lat="47.34366" lon="6.36147">
        <ele>267.192</ele>
        <time>2016-09-05T14:41:07.000Z</time>
      </trkpt>
      <trkpt lat="47.34367" lon="6.36147">
        <ele>267.269</ele>
        <time>2016-09-05T14:41:08.000Z</time>
      </trkpt>
      <trkpt lat="47.34368" lon="6.36147">
        <ele>268.131</ele>
        <time>2016-09-05T14:41:09.000Z</time>
      </trkpt>
      <trkpt lat="47.3437" lon="6.36147">
        <ele>268.761</ele>
        <time>2016-09-05T14:41:10.000Z</time>
      </trkpt>
      <trkpt lat="47.34371" lon="6.36146">
        <ele>268.961</ele>
        <time>2016-09-05T14:41:11.000Z</time>
      </trkpt>
      <trkpt lat="47.34372" lon="6.36146">
        <ele>270.655</ele>
        <time>2016-09-05T14:41:12.000Z</time>
      </trkpt>
      <trkpt lat="47.34373" lon="6.36146">
        <ele>269.199</ele>
        <time>2016-09-05T14:41:13.000Z</time>
      </trkpt>
      <trkpt lat="47.34375" lon="6.36146">
        <ele>268.984</ele>
        <time>2016-09-05T14:41:14.000Z</time>
      </trkpt>
      <trkpt lat="47.34376" lon="6.36147">
        <ele>269.174</ele>
        <time>2016-09-05T14:41:15.000Z</time>
      </trkpt>
      <trkpt lat="47.34377" lon="6.36147">
        <ele>269.285</ele>
        <time>2016-09-05T14:41:16.000Z</time>
      </trkpt>
      <trkpt lat="47.34378" lon="6.36147">
        <ele>269.352</ele>
        <time>2016-09-05T14:41:17.000Z</time>
      </trkpt>
      <trkpt lat="47.34379" lon="6.36147">
        <ele>270.185</ele>
        <time>2016-09-05T14:41:18.000Z</time>
      </trkpt>
      <trkpt lat="47.3438" lon="6.36147">
        <ele>271.495</ele>
        <time>2016-09-05T14:41:19.000Z</time>
      </trkpt>
      <trkpt lat="47.34381" lon="6.36146">
        <ele>272.438</ele>
        <time>2016-09-05T14:41:20.000Z</time>
      </trkpt>
      <trkpt lat="47.34382" lon="6.36145">
        <ele>272.273</ele>
        <time>2016-09-05T14:41:21.000Z</time>
      </trkpt>
      <trkpt lat="47.34382" lon="6.36143">
        <ele>272.496</ele>
        <time>2016-09-05T14:41:22.000Z</time>
      </trkpt>
      <trkpt lat="47.34383" lon="6.36142">
        <ele>271.788</ele>
        <time>2016-09-05T14:41:23.000Z</time>
      </trkpt>
      <trkpt lat="47.34383" lon="6.36141">
        <ele>273.091</ele>
        <time>2016-09-05T14:41:24.000Z</time>
      </trkpt>
      <trkpt lat="47.34383" lon="6.3614">
        <ele>273.024</ele>
        <time>2016-09-05T14:41:25.000Z</time>
      </trkpt>
      <trkpt lat="47.34384" lon="6.36139">
        <ele>272.568</ele>
        <time>2016-09-05T14:41:26.000Z</time>
      </trkpt>
      <trkpt lat="47.34385" lon="6.36139">
        <ele>272.19</ele>
        <time>2016-09-05T14:41:27.000Z</time>
      </trkpt>
      <trkpt lat="47.34386" lon="6.36138">
        <ele>269.472</ele>
        <time>2016-09-05T14:41:28.000Z</time>
      </trkpt>
      <trkpt lat="47.34388" lon="6.36138">
        <ele>268.708</ele>
        <time>2016-09-05T14:41:29.000Z</time>
      </trkpt>
      <trkpt lat="47.34389" lon="6.36137">
        <ele>267.785</ele>
        <time>2016-09-05T14:41:30.000Z</time>
      </trkpt>
      <trkpt lat="47.34389" lon="6.36137">
        <ele>268.011</ele>
        <time>2016-09-05T14:41:31.000Z</time>
      </trkpt>
      <trkpt lat="47.3439" lon="6.36136">
        <ele>268.005</ele>
        <time>2016-09-05T14:41:32.000Z</time>
      </trkpt>
      <trkpt lat="47.34391" lon="6.36136">
        <ele>267.995</ele>
        <time>2016-09-05T14:41:33.000Z</time>
      </trkpt>
      <trkpt lat="47.34392" lon="6.36135">
        <ele>269.106</ele>
        <time>2016-09-05T14:41:34.000Z</time>
      </trkpt>
      <trkpt lat="47.34393" lon="6.36135">
        <ele>269.856</ele>
        <time>2016-09-05T14:41:35.000Z</time>
      </trkpt>
      <trkpt lat="47.34394" lon="6.36135">
        <ele>270.265</ele>
        <time>2016-09-05T14:41:36.000Z</time>
      </trkpt>
      <trkpt lat="47.34395" lon="6.36134">
        <ele>272.343</ele>
        <time>2016-09-05T14:41:37.000Z</time>
      </trkpt>
      <trkpt lat="47.34396" lon="6.36134">
        <ele>271.424</ele>
        <time>2016-09-05T14:41:38.000Z</time>
      </trkpt>
      <trkpt lat="47.34397" lon="6.36134">
        <ele>273.03</ele>
        <time>2016-09-05T14:41:39.000Z</time>
      </trkpt>
      <trkpt lat="47.34398" lon="6.36134">
        <ele>272.879</ele>
        <time>2016-09-05T14:41:40.000Z</time>
      </trkpt>
      <trkpt lat="47.34398" lon="6.36134">
        <ele>272.607</ele>
        <time>2016-09-05T14:41:41.000Z</time>
      </trkpt>
      <trkpt lat="47.34399" lon="6.36134">
        <ele>275.69</ele>
        <time>2016-09-05T14:41:42.000Z</time>
      </trkpt>
      <trkpt lat="47.344" lon="6.36134">
        <ele>276.459</ele>
        <time>2016-09-05T14:41:43.000Z</time>
      </trkpt>
      <trkpt lat="47.34401" lon="6.36134">
        <ele>276.63</ele>
        <time>2016-09-05T14:41:44.000Z</time>
      </trkpt>
      <trkpt lat="47.34402" lon="6.36134">
        <ele>279.413</ele>
        <time>2016-09-05T14:41:45.000Z</time>
      </trkpt>
      <trkpt lat="47.34403" lon="6.36134">
        <ele>278.979</ele>
        <time>2016-09-05T14:41:46.000Z</time>
      </trkpt>
      <trkpt lat="47.34403" lon="6.36134">
        <ele>277.029</ele>
        <time>2016-09-05T14:41:47.000Z</time>
      </trkpt>
      <trkpt lat="47.34404" lon="6.36134">
        <ele>276.878</ele>
        <time>2016-09-05T14:41:48.000Z</time>
      </trkpt>
      <trkpt lat="47.34406" lon="6.36134">
        <ele>275.301</ele>
        <time>2016-09-05T14:41:49.000Z</time>
      </trkpt>
      <trkpt lat="47.34407" lon="6.36134">
        <ele>275.764</ele>
        <time>2016-09-05T14:41:50.000Z</time>
      </trkpt>
      <trkpt lat="47.34408" lon="6.36133">
        <ele>274.497</ele>
        <time>2016-09-05T14:41:51.000Z</time>
      </trkpt>
      <trkpt lat="47.3441" lon="6.36133">
        <ele>275.728</ele>
        <time>2016-09-05T14:41:52.000Z</time>
      </trkpt>
      <trkpt lat="47.34411" lon="6.36133">
        <ele>276.119</ele>
        <time>2016-09-05T14:41:53.000Z</time>
      </trkpt>
      <trkpt lat="47.34412" lon="6.36133">
        <ele>278.214</ele>
        <time>2016-09-05T14:41:54.000Z</time>
      </trkpt>
      <trkpt lat="47.34413" lon="6.36133">
        <ele>278.47</ele>
        <time>2016-09-05T14:41:55.000Z</time>
      </trkpt>
      <trkpt lat="47.34413" lon="6.36134">
        <ele>278.346</ele>
        <time>2016-09-05T14:41:56.000Z</time>
      </trkpt>
      <trkpt lat="47.34413" lon="6.36134">
        <ele>280.521</ele>
        <time>2016-09-05T14:41:57.000Z</time>
      </trkpt>
      <trkpt lat="47.34414" lon="6.36134">
        <ele>278.999</ele>
        <time>2016-09-05T14:41:58.000Z</time>
      </trkpt>
      <trkpt lat="47.34414" lon="6.36134">
        <ele>280.413</ele>
        <time>2016-09-05T14:41:59.000Z</time>
      </trkpt>
      <trkpt lat="47.34415" lon="6.36133">
        <ele>280.497</ele>
        <time>2016-09-05T14:42:00.000Z</time>
      </trkpt>
      <trkpt lat="47.34416" lon="6.36133">
        <ele>281.496</ele>
        <time>2016-09-05T14:42:01.000Z</time>
      </trkpt>
      <trkpt lat="47.34417" lon="6.36133">
        <ele>281.621</ele>
        <time>2016-09-05T14:42:02.000Z</time>
      </trkpt>
      <trkpt lat="47.34419" lon="6.36132">
        <ele>281.697</ele>
        <time>2016-09-05T14:42:03.000Z</time>
      </trkpt>
      <trkpt lat="47.3442" lon="6.36132">
        <ele>282.665</ele>
        <time>2016-09-05T14:42:04.000Z</time>
      </trkpt>
      <trkpt lat="47.34421" lon="6.36132">
        <ele>283.369</ele>
        <time>2016-09-05T14:42:05.000Z</time>
      </trkpt>
      <trkpt lat="47.34422" lon="6.36132">
        <ele>283.652</ele>
        <time>2016-09-05T14:42:06.000Z</time>
      </trkpt>
      <trkpt lat="47.34424" lon="6.36132">
        <ele>281.857</ele>
        <time>2016-09-05T14:42:07.000Z</time>
      </trkpt>
      <trkpt lat="47.34424" lon="6.36133">
        <ele>280.69</ele>
        <time>2016-09-05T14:42:08.000Z</time>
      </trkpt>
      <trkpt lat="47.34425" lon="6.36133">
        <ele>280.961</ele>
        <time>2016-09-05T14:42:09.000Z</time>
      </trkpt>
      <trkpt lat="47.34427" lon="6.36133">
        <ele>283.718</ele>
        <time>2016-09-05T14:42:10.000Z</time>
      </trkpt>
      <trkpt lat="47.34428" lon="6.36133">
        <ele>282.489</ele>
        <time>2016-09-05T14:42:11.000Z</time>
      </trkpt>
      <trkpt lat="47.3443" lon="6.36133">
        <ele>284.339</ele>
        <time>2016-09-05T14:42:12.000Z</time>
      </trkpt>
      <trkpt lat="47.34431" lon="6.36132">
        <ele>284.521</ele>
        <time>2016-09-05T14:42:13.000Z</time>
      </trkpt>
      <trkpt lat="47.34432" lon="6.36132">
        <ele>284.315</ele>
        <time>2016-09-05T14:42:14.000Z</time>
      </trkpt>
      <trkpt lat="47.34433" lon="6.36132">
        <ele>283.623</ele>
        <time>2016-09-05T14:42:15.000Z</time>
      </trkpt>
      <trkpt lat="47.34434" lon="6.36132">
        <ele>284.927</ele>
        <time>2016-09-05T14:42:16.000Z</time>
      </trkpt>
      <trkpt lat="47.34435" lon="6.36132">
        <ele>285.358</ele>
        <time>2016-09-05T14:42:17.000Z</time>
      </trkpt>
      <trkpt lat="47.34436" lon="6.36132">
        <ele>285.372</ele>
        <time>2016-09-05T14:42:18.000Z</time>
      </trkpt>
      <trkpt lat="47.34438" lon="6.36132">
        <ele>286.858</ele>
        <time>2016-09-05T14:42:19.000Z</time>
      </trkpt>
      <trkpt lat="47.34439" lon="6.36131">
        <ele>286.57</ele>
        <time>2016-09-05T14:42:20.000Z</time>
      </trkpt>
      <trkpt lat="47.34441" lon="6.3613">
        <ele>286.359</ele>
        <time>2016-09-05T14:42:21.000Z</time>
      </trkpt>
      <trkpt lat="47.34442" lon="6.36129">
        <ele>286.37</ele>
        <time>2016-09-05T14:42:22.000Z</time>
      </trkpt>
      <trkpt lat="47.34443" lon="6.36129">
        <ele>283.701</ele>
        <time>2016-09-05T14:42:23.000Z</time>
      </trkpt>
      <trkpt lat="47.34444" lon="6.36128">
        <ele>282.801</ele>
        <time>2016-09-05T14:42:24.000Z</time>
      </trkpt>
      <trkpt lat="47.34446" lon="6.36127">
        <ele>280.792</ele>
        <time>2016-09-05T14:42:25.000Z</time>
      </trkpt>
      <trkpt lat="47.34447" lon="6.36126">
        <ele>279.108</ele>
        <time>2016-09-05T14:42:26.000Z</time>
      </trkpt>
      <trkpt lat="47.34448" lon="6.36125">
        <ele>279.04</ele>
        <time>2016-09-05T14:42:27.000Z</time>
      </trkpt>
      <trkpt lat="47.34449" lon="6.36124">
        <ele>276.583</ele>
        <time>2016-09-05T14:42:28.000Z</time>
      </trkpt>
      <trkpt lat="47.3445" lon="6.36122">
        <ele>276.364</ele>
        <time>2016-09-05T14:42:29.000Z</time>
      </trkpt>
      <trkpt lat="47.34451" lon="6.3612">
        <ele>276.731</ele>
        <time>2016-09-05T14:42:30.000Z</time>
      </trkpt>
      <trkpt lat="47.34451" lon="6.36118">
        <ele>277.629</ele>
        <time>2016-09-05T14:42:31.000Z</time>
      </trkpt>
      <trkpt lat="47.34452" lon="6.36117">
        <ele>277.702</ele>
        <time>2016-09-05T14:42:32.000Z</time>
      </trkpt>
      <trkpt lat="47.34453" lon="6.36115">
        <ele>273.756</ele>
        <time>2016-09-05T14:42:33.000Z</time>
      </trkpt>
      <trkpt lat="47.34453" lon="6.36114">
        <ele>273.052</ele>
        <time>2016-09-05T14:42:34.000Z</time>
      </trkpt>
      <trkpt lat="47.34454" lon="6.36113">
        <ele>271.901</ele>
        <time>2016-09-05T14:42:35.000Z</time>
      </trkpt>
      <trkpt lat="47.34454" lon="6.36113">
        <ele>270.571</ele>
        <time>2016-09-05T14:42:36.000Z</time>
      </trkpt>
      <trkpt lat="47.34455" lon="6.36112">
        <ele>270.566</ele>
        <time>2016-09-05T14:42:37.000Z</time>
      </trkpt>
      <trkpt lat="47.34455" lon="6.36111">
        <ele>268.323</ele>
        <time>2016-09-05T14:42:38.000Z</time>
      </trkpt>
      <trkpt lat="47.34455" lon="6.3611">
        <ele>268.525</ele>
        <time>2016-09-05T14:42:39.000Z</time>
      </trkpt>
      <trkpt lat="47.34456" lon="6.3611">
        <ele>266.61</ele>
        <time>2016-09-05T14:42:40.000Z</time>
      </trkpt>
      <trkpt lat="47.34456" lon="6.36109">
        <ele>268.136</ele>
        <time>2016-09-05T14:42:41.000Z</time>
      </trkpt>
      <trkpt lat="47.34457" lon="6.36108">
        <ele>268.03</ele>
        <time>2016-09-05T14:42:42.000Z</time>
      </trkpt>
      <trkpt lat="47.34458" lon="6.36107">
        <ele>269.842</ele>
        <time>2016-09-05T14:42:43.000Z</time>
      </trkpt>
      <trkpt lat="47.34459" lon="6.36107">
        <ele>267.993</ele>
        <time>2016-09-05T14:42:44.000Z</time>
      </trkpt>
      <trkpt lat="47.3446" lon="6.36107">
        <ele>268.591</ele>
        <time>2016-09-05T14:42:45.000Z</time>
      </trkpt>
      <trkpt lat="47.3446" lon="6.36107">
        <ele>268.745</ele>
        <time>2016-09-05T14:42:46.000Z</time>
      </trkpt>
      <trkpt lat="47.34461" lon="6.36106">
        <ele>266.922</ele>
        <time>2016-09-05T14:42:47.000Z</time>
      </trkpt>
      <trkpt lat="47.34462" lon="6.36106">
        <ele>267.227</ele>
        <time>2016-09-05T14:42:48.000Z</time>
      </trkpt>
      <trkpt lat="47.34463" lon="6.36105">
        <ele>267.45</ele>
        <time>2016-09-05T14:42:49.000Z</time>
      </trkpt>
      <trkpt lat="47.34464" lon="6.36104">
        <ele>268.145</ele>
        <time>2016-09-05T14:42:50.000Z</time>
      </trkpt>
      <trkpt lat="47.34465" lon="6.36104">
        <ele>270.222</ele>
        <time>2016-09-05T14:42:51.000Z</time>
      </trkpt>
      <trkpt lat="47.34465" lon="6.36103">
        <ele>270.537</ele>
        <time>2016-09-05T14:42:52.000Z</time>
      </trkpt>
      <trkpt lat="47.34465" lon="6.36103">
        <ele>272.293</ele>
        <time>2016-09-05T14:42:53.000Z</time>
      </trkpt>
      <trkpt lat="47.34465" lon="6.36103">
        <ele>272.444</ele>
        <time>2016-09-05T14:42:54.000Z</time>
      </trkpt>
      <trkpt lat="47.34466" lon="6.36104">
        <ele>272.647</ele>
        <time>2016-09-05T14:42:55.000Z</time>
      </trkpt>
      <trkpt lat="47.34467" lon="6.36103">
        <ele>272.029</ele>
        <time>2016-09-05T14:42:56.000Z</time>
      </trkpt>
      <trkpt lat="47.34467" lon="6.36102">
        <ele>271.88</ele>
        <time>2016-09-05T14:42:57.000Z</time>
      </trkpt>
      <trkpt lat="47.34468" lon="6.36101">
        <ele>272.728</ele>
        <time>2016-09-05T14:42:58.000Z</time>
      </trkpt>
      <trkpt lat="47.34469" lon="6.36101">
        <ele>272.553</ele>
        <time>2016-09-05T14:42:59.000Z</time>
      </trkpt>
      <trkpt lat="47.3447" lon="6.361">
        <ele>273.752</ele>
        <time>2016-09-05T14:43:00.000Z</time>
      </trkpt>
      <trkpt lat="47.34471" lon="6.36098">
        <ele>275.219</ele>
        <time>2016-09-05T14:43:01.000Z</time>
      </trkpt>
      <trkpt lat="47.34471" lon="6.36097">
        <ele>275.47</ele>
        <time>2016-09-05T14:43:02.000Z</time>
      </trkpt>
      <trkpt lat="47.34472" lon="6.36095">
        <ele>275.543</ele>
        <time>2016-09-05T14:43:03.000Z</time>
      </trkpt>
      <trkpt lat="47.34472" lon="6.36093">
        <ele>276.281</ele>
        <time>2016-09-05T14:43:04.000Z</time>
      </trkpt>
      <trkpt lat="47.34473" lon="6.36092">
        <ele>275.843</ele>
        <time>2016-09-05T14:43:05.000Z</time>
      </trkpt>
      <trkpt lat="47.34473" lon="6.3609">
        <ele>274.976</ele>
        <time>2016-09-05T14:43:06.000Z</time>
      </trkpt>
      <trkpt lat="47.34473" lon="6.36089">
        <ele>274.885</ele>
        <time>2016-09-05T14:43:07.000Z</time>
      </trkpt>
      <trkpt lat="47.34473" lon="6.36089">
        <ele>274.61</ele>
        <time>2016-09-05T14:43:08.000Z</time>
      </trkpt>
      <trkpt lat="47.34473" lon="6.36089">
        <ele>274.636</ele>
        <time>2016-09-05T14:43:09.000Z</time>
      </trkpt>
      <trkpt lat="47.34473" lon="6.36089">
        <ele>276.723</ele>
        <time>2016-09-05T14:43:10.000Z</time>
      </trkpt>
      <trkpt lat="47.34473" lon="6.36086">
        <ele>277.12</ele>
        <time>2016-09-05T14:43:11.000Z</time>
      </trkpt>
      <trkpt lat="47.34473" lon="6.36086">
        <ele>276.586</ele>
        <time>2016-09-05T14:43:12.000Z</time>
      </trkpt>
      <trkpt lat="47.34474" lon="6.36086">
        <ele>275.613</ele>
        <time>2016-09-05T14:43:13.000Z</time>
      </trkpt>
      <trkpt lat="47.34474" lon="6.36086">
        <ele>275.494</ele>
        <time>2016-09-05T14:43:14.000Z</time>
      </trkpt>
      <trkpt lat="47.34474" lon="6.36086">
        <ele>274.535</ele>
        <time>2016-09-05T14:43:15.000Z</time>
      </trkpt>
      <trkpt lat="47.34474" lon="6.36087">
        <ele>273.995</ele>
        <time>2016-09-05T14:43:16.000Z</time>
      </trkpt>
      <trkpt lat="47.34474" lon="6.36087">
        <ele>274.264</ele>
        <time>2016-09-05T14:43:17.000Z</time>
      </trkpt>
      <trkpt lat="47.34474" lon="6.36086">
        <ele>274.414</ele>
        <time>2016-09-05T14:43:18.000Z</time>
      </trkpt>
      <trkpt lat="47.34475" lon="6.36085">
        <ele>274.8</ele>
        <time>2016-09-05T14:43:19.000Z</time>
      </trkpt>
      <trkpt lat="47.34475" lon="6.36084">
        <ele>275.577</ele>
        <time>2016-09-05T14:43:20.000Z</time>
      </trkpt>
      <trkpt lat="47.34475" lon="6.36082">
        <ele>274.723</ele>
        <time>2016-09-05T14:43:21.000Z</time>
      </trkpt>
      <trkpt lat="47.34475" lon="6.36082">
        <ele>274.887</ele>
        <time>2016-09-05T14:43:22.000Z</time>
      </trkpt>
      <trkpt lat="47.34476" lon="6.36081">
        <ele>275.225</ele>
        <time>2016-09-05T14:43:23.000Z</time>
      </trkpt>
      <trkpt lat="47.34476" lon="6.3608">
        <ele>275.336</ele>
        <time>2016-09-05T14:43:24.000Z</time>
      </trkpt>
      <trkpt lat="47.34476" lon="6.36079">
        <ele>275.681</ele>
        <time>2016-09-05T14:43:25.000Z</time>
      </trkpt>
      <trkpt lat="47.34477" lon="6.36078">
        <ele>275.487</ele>
        <time>2016-09-05T14:43:26.000Z</time>
      </trkpt>
      <trkpt lat="47.34477" lon="6.36076">
        <ele>275.387</ele>
        <time>2016-09-05T14:43:27.000Z</time>
      </trkpt>
      <trkpt lat="47.34478" lon="6.36074">
        <ele>275.007</ele>
        <time>2016-09-05T14:43:28.000Z</time>
      </trkpt>
      <trkpt lat="47.34478" lon="6.36073">
        <ele>275.037</ele>
        <time>2016-09-05T14:43:29.000Z</time>
      </trkpt>
      <trkpt lat="47.34479" lon="6.36072">
        <ele>275.11</ele>
        <time>2016-09-05T14:43:30.000Z</time>
      </trkpt>
      <trkpt lat="47.34479" lon="6.36071">
        <ele>275.259</ele>
        <time>2016-09-05T14:43:31.000Z</time>
      </trkpt>
      <trkpt lat="47.3448" lon="6.36069">
        <ele>276.236</ele>
        <time>2016-09-05T14:43:32.000Z</time>
      </trkpt>
      <trkpt lat="47.34481" lon="6.36068">
        <ele>278.129</ele>
        <time>2016-09-05T14:43:33.000Z</time>
      </trkpt>
      <trkpt lat="47.34482" lon="6.36066">
        <ele>277.347</ele>
        <time>2016-09-05T14:43:34.000Z</time>
      </trkpt>
      <trkpt lat="47.34482" lon="6.36065">
        <ele>276.974</ele>
        <time>2016-09-05T14:43:35.000Z</time>
      </trkpt>
      <trkpt lat="47.34483" lon="6.36063">
        <ele>278.22</ele>
        <time>2016-09-05T14:43:36.000Z</time>
      </trkpt>
      <trkpt lat="47.34485" lon="6.36062">
        <ele>279.282</ele>
        <time>2016-09-05T14:43:37.000Z</time>
      </trkpt>
      <trkpt lat="47.34486" lon="6.36063">
        <ele>278.744</ele>
        <time>2016-09-05T14:43:38.000Z</time>
      </trkpt>
      <trkpt lat="47.34488" lon="6.36064">
        <ele>278.64</ele>
        <time>2016-09-05T14:43:39.000Z</time>
      </trkpt>
      <trkpt lat="47.34489" lon="6.36064">
        <ele>279.404</ele>
        <time>2016-09-05T14:43:40.000Z</time>
      </trkpt>
      <trkpt lat="47.3449" lon="6.36065">
        <ele>277.253</ele>
        <time>2016-09-05T14:43:41.000Z</time>
      </trkpt>
      <trkpt lat="47.3449" lon="6.36065">
        <ele>277.465</ele>
        <time>2016-09-05T14:43:42.000Z</time>
      </trkpt>
      <trkpt lat="47.34492" lon="6.36065">
        <ele>277.454</ele>
        <time>2016-09-05T14:43:43.000Z</time>
      </trkpt>
      <trkpt lat="47.34493" lon="6.36065">
        <ele>277.001</ele>
        <time>2016-09-05T14:43:44.000Z</time>
      </trkpt>
      <trkpt lat="47.34494" lon="6.36065">
        <ele>279.836</ele>
        <time>2016-09-05T14:43:45.000Z</time>
      </trkpt>
      <trkpt lat="47.34495" lon="6.36064">
        <ele>280.035</ele>
        <time>2016-09-05T14:43:46.000Z</time>
      </trkpt>
      <trkpt lat="47.34496" lon="6.36063">
        <ele>280.295</ele>
        <time>2016-09-05T14:43:47.000Z</time>
      </trkpt>
      <trkpt lat="47.34497" lon="6.36062">
        <ele>280.969</ele>
        <time>2016-09-05T14:43:48.000Z</time>
      </trkpt>
      <trkpt lat="47.34497" lon="6.36061">
        <ele>280.18</ele>
        <time>2016-09-05T14:43:49.000Z</time>
      </trkpt>
      <trkpt lat="47.34498" lon="6.3606">
        <ele>279.477</ele>
        <time>2016-09-05T14:43:50.000Z</time>
      </trkpt>
      <trkpt lat="47.34499" lon="6.36061">
        <ele>280.749</ele>
        <time>2016-09-05T14:43:51.000Z</time>
      </trkpt>
      <trkpt lat="47.345" lon="6.3606">
        <ele>279.536</ele>
        <time>2016-09-05T14:43:52.000Z</time>
      </trkpt>
      <trkpt lat="47.34502" lon="6.3606">
        <ele>278.374</ele>
        <time>2016-09-05T14:43:53.000Z</time>
      </trkpt>
      <trkpt lat="47.34503" lon="6.3606">
        <ele>279.083</ele>
        <time>2016-09-05T14:43:54.000Z</time>
      </trkpt>
      <trkpt lat="47.34504" lon="6.3606">
        <ele>278.763</ele>
        <time>2016-09-05T14:43:55.000Z</time>
      </trkpt>
      <trkpt lat="47.34505" lon="6.3606">
        <ele>279.328</ele>
        <time>2016-09-05T14:43:56.000Z</time>
      </trkpt>
      <trkpt lat="47.34506" lon="6.3606">
        <ele>278.617</ele>
        <time>2016-09-05T14:43:57.000Z</time>
      </trkpt>
      <trkpt lat="47.34507" lon="6.3606">
        <ele>279.995</ele>
        <time>2016-09-05T14:43:58.000Z</time>
      </trkpt>
      <trkpt lat="47.34508" lon="6.3606">
        <ele>280.71</ele>
        <time>2016-09-05T14:43:59.000Z</time>
      </trkpt>
      <trkpt lat="47.34509" lon="6.3606">
        <ele>280.261</ele>
        <time>2016-09-05T14:44:00.000Z</time>
      </trkpt>
      <trkpt lat="47.3451" lon="6.36059">
        <ele>280.661</ele>
        <time>2016-09-05T14:44:01.000Z</time>
      </trkpt>
      <trkpt lat="47.34511" lon="6.36059">
        <ele>280.389</ele>
        <time>2016-09-05T14:44:02.000Z</time>
      </trkpt>
      <trkpt lat="47.34512" lon="6.36059">
        <ele>280.179</ele>
        <time>2016-09-05T14:44:03.000Z</time>
      </trkpt>
      <trkpt lat="47.34513" lon="6.36059">
        <ele>280.335</ele>
        <time>2016-09-05T14:44:04.000Z</time>
      </trkpt>
      <trkpt lat="47.34514" lon="6.36058">
        <ele>280.004</ele>
        <time>2016-09-05T14:44:05.000Z</time>
      </trkpt>
      <trkpt lat="47.34515" lon="6.36058">
        <ele>280.634</ele>
        <time>2016-09-05T14:44:06.000Z</time>
      </trkpt>
      <trkpt lat="47.34516" lon="6.36058">
        <ele>280.258</ele>
        <time>2016-09-05T14:44:07.000Z</time>
      </trkpt>
      <trkpt lat="47.34518" lon="6.36058">
        <ele>280.752</ele>
        <time>2016-09-05T14:44:08.000Z</time>
      </trkpt>
      <trkpt lat="47.34519" lon="6.36059">
        <ele>280.39</ele>
        <time>2016-09-05T14:44:09.000Z</time>
      </trkpt>
      <trkpt lat="47.3452" lon="6.3606">
        <ele>279.993</ele>
        <time>2016-09-05T14:44:10.000Z</time>
      </trkpt>
      <trkpt lat="47.3452" lon="6.3606">
        <ele>279.073</ele>
        <time>2016-09-05T14:44:11.000Z</time>
      </trkpt>
      <trkpt lat="47.34521" lon="6.36061">
        <ele>277.842</ele>
        <time>2016-09-05T14:44:12.000Z</time>
      </trkpt>
      <trkpt lat="47.34522" lon="6.36062">
        <ele>277.589</ele>
        <time>2016-09-05T14:44:13.000Z</time>
      </trkpt>
      <trkpt lat="47.34522" lon="6.36063">
        <ele>276.742</ele>
        <time>2016-09-05T14:44:14.000Z</time>
      </trkpt>
      <trkpt lat="47.34523" lon="6.36064">
        <ele>273.966</ele>
        <time>2016-09-05T14:44:15.000Z</time>
      </trkpt>
      <trkpt lat="47.34523" lon="6.36064">
        <ele>275.763</ele>
        <time>2016-09-05T14:44:16.000Z</time>
      </trkpt>
      <trkpt lat="47.34523" lon="6.36064">
        <ele>275.149</ele>
        <time>2016-09-05T14:44:17.000Z</time>
      </trkpt>
      <trkpt lat="47.34524" lon="6.36064">
        <ele>276.826</ele>
        <time>2016-09-05T14:44:18.000Z</time>
      </trkpt>
      <trkpt lat="47.34524" lon="6.36064">
        <ele>276.791</ele>
        <time>2016-09-05T14:44:19.000Z</time>
      </trkpt>
      <trkpt lat="47.34525" lon="6.36065">
        <ele>276.483</ele>
        <time>2016-09-05T14:44:20.000Z</time>
      </trkpt>
      <trkpt lat="47.34526" lon="6.36067">
        <ele>275.594</ele>
        <time>2016-09-05T14:44:21.000Z</time>
      </trkpt>
      <trkpt lat="47.34526" lon="6.36069">
        <ele>275.453</ele>
        <time>2016-09-05T14:44:22.000Z</time>
      </trkpt>
      <trkpt lat="47.34526" lon="6.36071">
        <ele>276.388</ele>
        <time>2016-09-05T14:44:23.000Z</time>
      </trkpt>
      <trkpt lat="47.34527" lon="6.36073">
        <ele>276.271</ele>
        <time>2016-09-05T14:44:24.000Z</time>
      </trkpt>
      <trkpt lat="47.34527" lon="6.36075">
        <ele>276.553</ele>
        <time>2016-09-05T14:44:25.000Z</time>
      </trkpt>
      <trkpt lat="47.34528" lon="6.36076">
        <ele>276.413</ele>
        <time>2016-09-05T14:44:26.000Z</time>
      </trkpt>
      <trkpt lat="47.34528" lon="6.36077">
        <ele>275.466</ele>
        <time>2016-09-05T14:44:27.000Z</time>
      </trkpt>
      <trkpt lat="47.34528" lon="6.36079">
        <ele>277.259</ele>
        <time>2016-09-05T14:44:28.000Z</time>
      </trkpt>
      <trkpt lat="47.34528" lon="6.3608">
        <ele>277.485</ele>
        <time>2016-09-05T14:44:29.000Z</time>
      </trkpt>
      <trkpt lat="47.34528" lon="6.36081">
        <ele>278.251</ele>
        <time>2016-09-05T14:44:30.000Z</time>
      </trkpt>
      <trkpt lat="47.34528" lon="6.36083">
        <ele>278.062</ele>
        <time>2016-09-05T14:44:31.000Z</time>
      </trkpt>
      <trkpt lat="47.34528" lon="6.36084">
        <ele>277.994</ele>
        <time>2016-09-05T14:44:32.000Z</time>
      </trkpt>
      <trkpt lat="47.34527" lon="6.36085">
        <ele>278.176</ele>
        <time>2016-09-05T14:44:33.000Z</time>
      </trkpt>
      <trkpt lat="47.34527" lon="6.36086">
        <ele>277.899</ele>
        <time>2016-09-05T14:44:34.000Z</time>
      </trkpt>
      <trkpt lat="47.34526" lon="6.36088">
        <ele>278.538</ele>
        <time>2016-09-05T14:44:35.000Z</time>
      </trkpt>
      <trkpt lat="47.34526" lon="6.36089">
        <ele>278.673</ele>
        <time>2016-09-05T14:44:36.000Z</time>
      </trkpt>
      <trkpt lat="47.34525" lon="6.36089">
        <ele>279.174</ele>
        <time>2016-09-05T14:44:37.000Z</time>
      </trkpt>
      <trkpt lat="47.34525" lon="6.36089">
        <ele>278.799</ele>
        <time>2016-09-05T14:44:38.000Z</time>
      </trkpt>
      <trkpt lat="47.34525" lon="6.36089">
        <ele>278.07</ele>
        <time>2016-09-05T14:44:39.000Z</time>
      </trkpt>
      <trkpt lat="47.34525" lon="6.3609">
        <ele>277.787</ele>
        <time>2016-09-05T14:44:40.000Z</time>
      </trkpt>
      <trkpt lat="47.34525" lon="6.3609">
        <ele>277.417</ele>
        <time>2016-09-05T14:44:41.000Z</time>
      </trkpt>
      <trkpt lat="47.34525" lon="6.3609">
        <ele>276.087</ele>
        <time>2016-09-05T14:44:42.000Z</time>
      </trkpt>
      <trkpt lat="47.34527" lon="6.3609">
        <ele>275.131</ele>
        <time>2016-09-05T14:44:43.000Z</time>
      </trkpt>
      <trkpt lat="47.34527" lon="6.3609">
        <ele>273.21</ele>
        <time>2016-09-05T14:44:44.000Z</time>
      </trkpt>
      <trkpt lat="47.34527" lon="6.3609">
        <ele>272.121</ele>
        <time>2016-09-05T14:44:45.000Z</time>
      </trkpt>
      <trkpt lat="47.34527" lon="6.3609">
        <ele>272.235</ele>
        <time>2016-09-05T14:44:46.000Z</time>
      </trkpt>
      <trkpt lat="47.34527" lon="6.3609">
        <ele>272.222</ele>
        <time>2016-09-05T14:44:47.000Z</time>
      </trkpt>
      <trkpt lat="47.34527" lon="6.3609">
        <ele>272.218</ele>
        <time>2016-09-05T14:44:48.000Z</time>
      </trkpt>
      <trkpt lat="47.34527" lon="6.3609">
        <ele>272.203</ele>
        <time>2016-09-05T14:44:49.000Z</time>
      </trkpt>
      <trkpt lat="47.34527" lon="6.3609">
        <ele>272.195</ele>
        <time>2016-09-05T14:44:50.000Z</time>
      </trkpt>
      <trkpt lat="47.34527" lon="6.3609">
        <ele>272.201</ele>
        <time>2016-09-05T14:44:51.000Z</time>
      </trkpt>
      <trkpt lat="47.34527" lon="6.3609">
        <ele>272.197</ele>
        <time>2016-09-05T14:44:52.000Z</time>
      </trkpt>
      <trkpt lat="47.34527" lon="6.3609">
        <ele>272.192</ele>
        <time>2016-09-05T14:44:53.000Z</time>
      </trkpt>
      <trkpt lat="47.34527" lon="6.3609">
        <ele>272.189</ele>
        <time>2016-09-05T14:44:54.000Z</time>
      </trkpt>
      <trkpt lat="47.34527" lon="6.3609">
        <ele>272.193</ele>
        <time>2016-09-05T14:44:55.000Z</time>
      </trkpt>
      <trkpt lat="47.34527" lon="6.3609">
        <ele>272.19</ele>
        <time>2016-09-05T14:44:56.000Z</time>
      </trkpt>
      <trkpt lat="47.34527" lon="6.3609">
        <ele>272.196</ele>
        <time>2016-09-05T14:44:57.000Z</time>
      </trkpt>
      <trkpt lat="47.34527" lon="6.3609">
        <ele>272.199</ele>
        <time>2016-09-05T14:44:58.000Z</time>
      </trkpt>
      <trkpt lat="47.34527" lon="6.3609">
        <ele>272.204</ele>
        <time>2016-09-05T14:44:59.000Z</time>
      </trkpt>
      <trkpt lat="47.34527" lon="6.3609">
        <ele>272.193</ele>
        <time>2016-09-05T14:45:00.000Z</time>
      </trkpt>
      <trkpt lat="47.34527" lon="6.3609">
        <ele>272.187</ele>
        <time>2016-09-05T14:45:01.000Z</time>
      </trkpt>
      <trkpt lat="47.34527" lon="6.3609">
        <ele>272.172</ele>
        <time>2016-09-05T14:45:02.000Z</time>
      </trkpt>
      <trkpt lat="47.34527" lon="6.3609">
        <ele>272.156</ele>
        <time>2016-09-05T14:45:03.000Z</time>
      </trkpt>
      <trkpt lat="47.34527" lon="6.3609">
        <ele>272.137</ele>
        <time>2016-09-05T14:45:04.000Z</time>
      </trkpt>
      <trkpt lat="47.34527" lon="6.3609">
        <ele>272.11</ele>
        <time>2016-09-05T14:45:05.000Z</time>
      </trkpt>
      <trkpt lat="47.34527" lon="6.3609">
        <ele>272.099</ele>
        <time>2016-09-05T14:45:06.000Z</time>
      </trkpt>
      <trkpt lat="47.34527" lon="6.3609">
        <ele>272.086</ele>
        <time>2016-09-05T14:45:07.000Z</time>
      </trkpt>
      <trkpt lat="47.34527" lon="6.3609">
        <ele>272.081</ele>
        <time>2016-09-05T14:45:08.000Z</time>
      </trkpt>
      <trkpt lat="47.34527" lon="6.3609">
        <ele>272.083</ele>
        <time>2016-09-05T14:45:09.000Z</time>
      </trkpt>
      <trkpt lat="47.34527" lon="6.3609">
        <ele>272.073</ele>
        <time>2016-09-05T14:45:10.000Z</time>
      </trkpt>
      <trkpt lat="47.34527" lon="6.3609">
        <ele>272.074</ele>
        <time>2016-09-05T14:45:11.000Z</time>
      </trkpt>
      <trkpt lat="47.34527" lon="6.3609">
        <ele>272.072</ele>
        <time>2016-09-05T14:45:12.000Z</time>
      </trkpt>
      <trkpt lat="47.34527" lon="6.3609">
        <ele>272.068</ele>
        <time>2016-09-05T14:45:13.000Z</time>
      </trkpt>
      <trkpt lat="47.34527" lon="6.3609">
        <ele>272.066</ele>
        <time>2016-09-05T14:45:14.000Z</time>
      </trkpt>
      <trkpt lat="47.34527" lon="6.3609">
        <ele>272.063</ele>
        <time>2016-09-05T14:45:15.000Z</time>
      </trkpt>
      <trkpt lat="47.34527" lon="6.3609">
        <ele>272.059</ele>
        <time>2016-09-05T14:45:16.000Z</time>
      </trkpt>
      <trkpt lat="47.34527" lon="6.3609">
        <ele>272.055</ele>
        <time>2016-09-05T14:45:17.000Z</time>
      </trkpt>
      <trkpt lat="47.34527" lon="6.3609">
        <ele>272.053</ele>
        <time>2016-09-05T14:45:18.000Z</time>
      </trkpt>
      <trkpt lat="47.34527" lon="6.3609">
        <ele>272.052</ele>
        <time>2016-09-05T14:45:19.000Z</time>
      </trkpt>
      <trkpt lat="47.34527" lon="6.3609">
        <ele>272.05</ele>
        <time>2016-09-05T14:45:20.000Z</time>
      </trkpt>
      <trkpt lat="47.34527" lon="6.3609">
        <ele>272.052</ele>
        <time>2016-09-05T14:45:21.000Z</time>
      </trkpt>
      <trkpt lat="47.34527" lon="6.3609">
        <ele>272.042</ele>
        <time>2016-09-05T14:45:22.000Z</time>
      </trkpt>
      <trkpt lat="47.34527" lon="6.3609">
        <ele>272.047</ele>
        <time>2016-09-05T14:45:23.000Z</time>
      </trkpt>
      <trkpt lat="47.34527" lon="6.3609">
        <ele>272.039</ele>
        <time>2016-09-05T14:45:24.000Z</time>
      </trkpt>
      <trkpt lat="47.34527" lon="6.3609">
        <ele>272.033</ele>
        <time>2016-09-05T14:45:25.000Z</time>
      </trkpt>
      <trkpt lat="47.34527" lon="6.3609">
        <ele>272.035</ele>
        <time>2016-09-05T14:45:26.000Z</time>
      </trkpt>
      <trkpt lat="47.34527" lon="6.3609">
        <ele>272.031</ele>
        <time>2016-09-05T14:45:27.000Z</time>
      </trkpt>
      <trkpt lat="47.34527" lon="6.3609">
        <ele>272.032</ele>
        <time>2016-09-05T14:45:28.000Z</time>
      </trkpt>
      <trkpt lat="47.34527" lon="6.3609">
        <ele>272.029</ele>
        <time>2016-09-05T14:45:29.000Z</time>
      </trkpt>
      <trkpt lat="47.34527" lon="6.3609">
        <ele>272.03</ele>
        <time>2016-09-05T14:45:30.000Z</time>
      </trkpt>
      <trkpt lat="47.34527" lon="6.3609">
        <ele>272.027</ele>
        <time>2016-09-05T14:45:31.000Z</time>
      </trkpt>
      <trkpt lat="47.34527" lon="6.3609">
        <ele>272.021</ele>
        <time>2016-09-05T14:45:32.000Z</time>
      </trkpt>
      <trkpt lat="47.34527" lon="6.3609">
        <ele>272.019</ele>
        <time>2016-09-05T14:45:33.000Z</time>
      </trkpt>
      <trkpt lat="47.34527" lon="6.3609">
        <ele>272.021</ele>
        <time>2016-09-05T14:45:34.000Z</time>
      </trkpt>
      <trkpt lat="47.34527" lon="6.3609">
        <ele>272.029</ele>
        <time>2016-09-05T14:45:35.000Z</time>
      </trkpt>
      <trkpt lat="47.34527" lon="6.3609">
        <ele>272.041</ele>
        <time>2016-09-05T14:45:36.000Z</time>
      </trkpt>
      <trkpt lat="47.34527" lon="6.3609">
        <ele>272.041</ele>
        <time>2016-09-05T14:45:37.000Z</time>
      </trkpt>
      <trkpt lat="47.34527" lon="6.3609">
        <ele>272.045</ele>
        <time>2016-09-05T14:45:38.000Z</time>
      </trkpt>
      <trkpt lat="47.34527" lon="6.3609">
        <ele>272.03</ele>
        <time>2016-09-05T14:45:39.000Z</time>
      </trkpt>
      <trkpt lat="47.34527" lon="6.3609">
        <ele>272.04</ele>
        <time>2016-09-05T14:45:40.000Z</time>
      </trkpt>
      <trkpt lat="47.34527" lon="6.3609">
        <ele>272.034</ele>
        <time>2016-09-05T14:45:41.000Z</time>
      </trkpt>
      <trkpt lat="47.34527" lon="6.3609">
        <ele>272.033</ele>
        <time>2016-09-05T14:45:42.000Z</time>
      </trkpt>
      <trkpt lat="47.34527" lon="6.3609">
        <ele>272.025</ele>
        <time>2016-09-05T14:45:43.000Z</time>
      </trkpt>
      <trkpt lat="47.34527" lon="6.3609">
        <ele>272.018</ele>
        <time>2016-09-05T14:45:44.000Z</time>
      </trkpt>
      <trkpt lat="47.34527" lon="6.3609">
        <ele>272.012</ele>
        <time>2016-09-05T14:45:45.000Z</time>
      </trkpt>
      <trkpt lat="47.34527" lon="6.3609">
        <ele>272.005</ele>
        <time>2016-09-05T14:45:46.000Z</time>
      </trkpt>
      <trkpt lat="47.34527" lon="6.3609">
        <ele>272.005</ele>
        <time>2016-09-05T14:45:47.000Z</time>
      </trkpt>
      <trkpt lat="47.34527" lon="6.3609">
        <ele>271.996</ele>
        <time>2016-09-05T14:45:48.000Z</time>
      </trkpt>
      <trkpt lat="47.34527" lon="6.3609">
        <ele>271.998</ele>
        <time>2016-09-05T14:45:49.000Z</time>
      </trkpt>
      <trkpt lat="47.34527" lon="6.3609">
        <ele>271.996</ele>
        <time>2016-09-05T14:45:50.000Z</time>
      </trkpt>
      <trkpt lat="47.34527" lon="6.3609">
        <ele>271.988</ele>
        <time>2016-09-05T14:45:51.000Z</time>
      </trkpt>
      <trkpt lat="47.34527" lon="6.3609">
        <ele>271.978</ele>
        <time>2016-09-05T14:45:52.000Z</time>
      </trkpt>
      <trkpt lat="47.34527" lon="6.3609">
        <ele>271.973</ele>
        <time>2016-09-05T14:45:53.000Z</time>
      </trkpt>
      <trkpt lat="47.34527" lon="6.3609">
        <ele>271.979</ele>
        <time>2016-09-05T14:45:54.000Z</time>
      </trkpt>
      <trkpt lat="47.34527" lon="6.3609">
        <ele>271.979</ele>
        <time>2016-09-05T14:45:55.000Z</time>
      </trkpt>
      <trkpt lat="47.34527" lon="6.3609">
        <ele>271.977</ele>
        <time>2016-09-05T14:45:56.000Z</time>
      </trkpt>
      <trkpt lat="47.34527" lon="6.3609">
        <ele>271.977</ele>
        <time>2016-09-05T14:45:57.000Z</time>
      </trkpt>
      <trkpt lat="47.34527" lon="6.3609">
        <ele>271.979</ele>
        <time>2016-09-05T14:45:58.000Z</time>
      </trkpt>
      <trkpt lat="47.34527" lon="6.3609">
        <ele>271.974</ele>
        <time>2016-09-05T14:45:59.000Z</time>
      </trkpt>
      <trkpt lat="47.34527" lon="6.3609">
        <ele>271.97</ele>
        <time>2016-09-05T14:46:00.000Z</time>
      </trkpt>
      <trkpt lat="47.34527" lon="6.3609">
        <ele>271.971</ele>
        <time>2016-09-05T14:46:01.000Z</time>
      </trkpt>
      <trkpt lat="47.34527" lon="6.3609">
        <ele>271.974</ele>
        <time>2016-09-05T14:46:02.000Z</time>
      </trkpt>
      <trkpt lat="47.34527" lon="6.3609">
        <ele>271.988</ele>
        <time>2016-09-05T14:46:03.000Z</time>
      </trkpt>
      <trkpt lat="47.34527" lon="6.3609">
        <ele>271.988</ele>
        <time>2016-09-05T14:46:04.000Z</time>
      </trkpt>
      <trkpt lat="47.34527" lon="6.3609">
        <ele>271.983</ele>
        <time>2016-09-05T14:46:05.000Z</time>
      </trkpt>
      <trkpt lat="47.34527" lon="6.3609">
        <ele>271.982</ele>
        <time>2016-09-05T14:46:06.000Z</time>
      </trkpt>
      <trkpt lat="47.34527" lon="6.3609">
        <ele>271.971</ele>
        <time>2016-09-05T14:46:07.000Z</time>
      </trkpt>
      <trkpt lat="47.34527" lon="6.3609">
        <ele>271.965</ele>
        <time>2016-09-05T14:46:08.000Z</time>
      </trkpt>
      <trkpt lat="47.34527" lon="6.3609">
        <ele>271.964</ele>
        <time>2016-09-05T14:46:09.000Z</time>
      </trkpt>
      <trkpt lat="47.34527" lon="6.3609">
        <ele>271.967</ele>
        <time>2016-09-05T14:46:10.000Z</time>
      </trkpt>
      <trkpt lat="47.34527" lon="6.3609">
        <ele>271.949</ele>
        <time>2016-09-05T14:46:11.000Z</time>
      </trkpt>
      <trkpt lat="47.34527" lon="6.3609">
        <ele>271.935</ele>
        <time>2016-09-05T14:46:12.000Z</time>
      </trkpt>
      <trkpt lat="47.34527" lon="6.3609">
        <ele>271.925</ele>
        <time>2016-09-05T14:46:13.000Z</time>
      </trkpt>
      <trkpt lat="47.34527" lon="6.3609">
        <ele>271.896</ele>
        <time>2016-09-05T14:46:14.000Z</time>
      </trkpt>
      <trkpt lat="47.34527" lon="6.3609">
        <ele>271.888</ele>
        <time>2016-09-05T14:46:15.000Z</time>
      </trkpt>
      <trkpt lat="47.34527" lon="6.3609">
        <ele>271.877</ele>
        <time>2016-09-05T14:46:16.000Z</time>
      </trkpt>
      <trkpt lat="47.34527" lon="6.3609">
        <ele>271.868</ele>
        <time>2016-09-05T14:46:17.000Z</time>
      </trkpt>
      <trkpt lat="47.34527" lon="6.3609">
        <ele>271.869</ele>
        <time>2016-09-05T14:46:18.000Z</time>
      </trkpt>
      <trkpt lat="47.34527" lon="6.3609">
        <ele>271.857</ele>
        <time>2016-09-05T14:46:19.000Z</time>
      </trkpt>
      <trkpt lat="47.34527" lon="6.3609">
        <ele>271.85</ele>
        <time>2016-09-05T14:46:20.000Z</time>
      </trkpt>
      <trkpt lat="47.34527" lon="6.3609">
        <ele>271.836</ele>
        <time>2016-09-05T14:46:21.000Z</time>
      </trkpt>
      <trkpt lat="47.34527" lon="6.3609">
        <ele>271.826</ele>
        <time>2016-09-05T14:46:22.000Z</time>
      </trkpt>
      <trkpt lat="47.34527" lon="6.3609">
        <ele>271.813</ele>
        <time>2016-09-05T14:46:23.000Z</time>
      </trkpt>
      <trkpt lat="47.34527" lon="6.3609">
        <ele>271.809</ele>
        <time>2016-09-05T14:46:24.000Z</time>
      </trkpt>
      <trkpt lat="47.34527" lon="6.3609">
        <ele>271.81</ele>
        <time>2016-09-05T14:46:25.000Z</time>
      </trkpt>
      <trkpt lat="47.34527" lon="6.3609">
        <ele>271.811</ele>
        <time>2016-09-05T14:46:26.000Z</time>
      </trkpt>
      <trkpt lat="47.34527" lon="6.3609">
        <ele>271.806</ele>
        <time>2016-09-05T14:46:27.000Z</time>
      </trkpt>
      <trkpt lat="47.34527" lon="6.3609">
        <ele>271.801</ele>
        <time>2016-09-05T14:46:28.000Z</time>
      </trkpt>
      <trkpt lat="47.34527" lon="6.3609">
        <ele>271.808</ele>
        <time>2016-09-05T14:46:29.000Z</time>
      </trkpt>
      <trkpt lat="47.34527" lon="6.3609">
        <ele>271.807</ele>
        <time>2016-09-05T14:46:30.000Z</time>
      </trkpt>
      <trkpt lat="47.34527" lon="6.3609">
        <ele>271.812</ele>
        <time>2016-09-05T14:46:31.000Z</time>
      </trkpt>
      <trkpt lat="47.34527" lon="6.3609">
        <ele>271.811</ele>
        <time>2016-09-05T14:46:32.000Z</time>
      </trkpt>
      <trkpt lat="47.34527" lon="6.3609">
        <ele>271.809</ele>
        <time>2016-09-05T14:46:33.000Z</time>
      </trkpt>
      <trkpt lat="47.34527" lon="6.3609">
        <ele>271.807</ele>
        <time>2016-09-05T14:46:34.000Z</time>
      </trkpt>
      <trkpt lat="47.34527" lon="6.3609">
        <ele>271.794</ele>
        <time>2016-09-05T14:46:35.000Z</time>
      </trkpt>
      <trkpt lat="47.34527" lon="6.3609">
        <ele>271.788</ele>
        <time>2016-09-05T14:46:36.000Z</time>
      </trkpt>
      <trkpt lat="47.34527" lon="6.3609">
        <ele>271.78</ele>
        <time>2016-09-05T14:46:37.000Z</time>
      </trkpt>
      <trkpt lat="47.34527" lon="6.3609">
        <ele>271.773</ele>
        <time>2016-09-05T14:46:38.000Z</time>
      </trkpt>
      <trkpt lat="47.34527" lon="6.3609">
        <ele>271.767</ele>
        <time>2016-09-05T14:46:39.000Z</time>
      </trkpt>
      <trkpt lat="47.34527" lon="6.3609">
        <ele>271.753</ele>
        <time>2016-09-05T14:46:40.000Z</time>
      </trkpt>
      <trkpt lat="47.34527" lon="6.3609">
        <ele>271.749</ele>
        <time>2016-09-05T14:46:41.000Z</time>
      </trkpt>
      <trkpt lat="47.34527" lon="6.3609">
        <ele>271.74</ele>
        <time>2016-09-05T14:46:42.000Z</time>
      </trkpt>
      <trkpt lat="47.34527" lon="6.3609">
        <ele>271.741</ele>
        <time>2016-09-05T14:46:43.000Z</time>
      </trkpt>
      <trkpt lat="47.34527" lon="6.3609">
        <ele>271.739</ele>
        <time>2016-09-05T14:46:44.000Z</time>
      </trkpt>
      <trkpt lat="47.34527" lon="6.3609">
        <ele>271.745</ele>
        <time>2016-09-05T14:46:45.000Z</time>
      </trkpt>
      <trkpt lat="47.34527" lon="6.3609">
        <ele>271.741</ele>
        <time>2016-09-05T14:46:46.000Z</time>
      </trkpt>
      <trkpt lat="47.34527" lon="6.3609">
        <ele>271.739</ele>
        <time>2016-09-05T14:46:47.000Z</time>
      </trkpt>
      <trkpt lat="47.34527" lon="6.3609">
        <ele>271.739</ele>
        <time>2016-09-05T14:46:48.000Z</time>
      </trkpt>
      <trkpt lat="47.34527" lon="6.3609">
        <ele>271.731</ele>
        <time>2016-09-05T14:46:49.000Z</time>
      </trkpt>
      <trkpt lat="47.34527" lon="6.3609">
        <ele>271.732</ele>
        <time>2016-09-05T14:46:50.000Z</time>
      </trkpt>
      <trkpt lat="47.34527" lon="6.3609">
        <ele>271.719</ele>
        <time>2016-09-05T14:46:51.000Z</time>
      </trkpt>
      <trkpt lat="47.34527" lon="6.3609">
        <ele>271.714</ele>
        <time>2016-09-05T14:46:52.000Z</time>
      </trkpt>
      <trkpt lat="47.34527" lon="6.3609">
        <ele>271.711</ele>
        <time>2016-09-05T14:46:53.000Z</time>
      </trkpt>
      <trkpt lat="47.34527" lon="6.3609">
        <ele>271.71</ele>
        <time>2016-09-05T14:46:54.000Z</time>
      </trkpt>
      <trkpt lat="47.34527" lon="6.3609">
        <ele>271.714</ele>
        <time>2016-09-05T14:46:55.000Z</time>
      </trkpt>
      <trkpt lat="47.34527" lon="6.3609">
        <ele>271.707</ele>
        <time>2016-09-05T14:46:56.000Z</time>
      </trkpt>
      <trkpt lat="47.34527" lon="6.3609">
        <ele>271.706</ele>
        <time>2016-09-05T14:46:57.000Z</time>
      </trkpt>
      <trkpt lat="47.34527" lon="6.3609">
        <ele>271.707</ele>
        <time>2016-09-05T14:46:58.000Z</time>
      </trkpt>
      <trkpt lat="47.34527" lon="6.3609">
        <ele>271.713</ele>
        <time>2016-09-05T14:46:59.000Z</time>
      </trkpt>
      <trkpt lat="47.34527" lon="6.3609">
        <ele>271.718</ele>
        <time>2016-09-05T14:47:00.000Z</time>
      </trkpt>
      <trkpt lat="47.34527" lon="6.3609">
        <ele>271.718</ele>
        <time>2016-09-05T14:47:01.000Z</time>
      </trkpt>
      <trkpt lat="47.34527" lon="6.3609">
        <ele>271.718</ele>
        <time>2016-09-05T14:47:02.000Z</time>
      </trkpt>
      <trkpt lat="47.34527" lon="6.3609">
        <ele>271.722</ele>
        <time>2016-09-05T14:47:03.000Z</time>
      </trkpt>
      <trkpt lat="47.34527" lon="6.3609">
        <ele>271.72</ele>
        <time>2016-09-05T14:47:04.000Z</time>
      </trkpt>
      <trkpt lat="47.34527" lon="6.3609">
        <ele>271.718</ele>
        <time>2016-09-05T14:47:05.000Z</time>
      </trkpt>
      <trkpt lat="47.34527" lon="6.3609">
        <ele>271.719</ele>
        <time>2016-09-05T14:47:06.000Z</time>
      </trkpt>
      <trkpt lat="47.34527" lon="6.3609">
        <ele>271.722</ele>
        <time>2016-09-05T14:47:07.000Z</time>
      </trkpt>
      <trkpt lat="47.34527" lon="6.3609">
        <ele>271.713</ele>
        <time>2016-09-05T14:47:08.000Z</time>
      </trkpt>
      <trkpt lat="47.34527" lon="6.3609">
        <ele>271.712</ele>
        <time>2016-09-05T14:47:09.000Z</time>
      </trkpt>
      <trkpt lat="47.34527" lon="6.3609">
        <ele>271.706</ele>
        <time>2016-09-05T14:47:10.000Z</time>
      </trkpt>
      <trkpt lat="47.34527" lon="6.3609">
        <ele>271.691</ele>
        <time>2016-09-05T14:47:11.000Z</time>
      </trkpt>
      <trkpt lat="47.34527" lon="6.3609">
        <ele>271.696</ele>
        <time>2016-09-05T14:47:12.000Z</time>
      </trkpt>
      <trkpt lat="47.34527" lon="6.3609">
        <ele>271.695</ele>
        <time>2016-09-05T14:47:13.000Z</time>
      </trkpt>
      <trkpt lat="47.34527" lon="6.3609">
        <ele>271.692</ele>
        <time>2016-09-05T14:47:14.000Z</time>
      </trkpt>
      <trkpt lat="47.34527" lon="6.3609">
        <ele>271.687</ele>
        <time>2016-09-05T14:47:15.000Z</time>
      </trkpt>
      <trkpt lat="47.34527" lon="6.3609">
        <ele>271.686</ele>
        <time>2016-09-05T14:47:16.000Z</time>
      </trkpt>
      <trkpt lat="47.34527" lon="6.3609">
        <ele>271.668</ele>
        <time>2016-09-05T14:47:17.000Z</time>
      </trkpt>
      <trkpt lat="47.34527" lon="6.3609">
        <ele>271.663</ele>
        <time>2016-09-05T14:47:18.000Z</time>
      </trkpt>
      <trkpt lat="47.34527" lon="6.3609">
        <ele>271.657</ele>
        <time>2016-09-05T14:47:19.000Z</time>
      </trkpt>
      <trkpt lat="47.34527" lon="6.3609">
        <ele>271.654</ele>
        <time>2016-09-05T14:47:20.000Z</time>
      </trkpt>
      <trkpt lat="47.34527" lon="6.3609">
        <ele>271.657</ele>
        <time>2016-09-05T14:47:21.000Z</time>
      </trkpt>
      <trkpt lat="47.34527" lon="6.3609">
        <ele>271.659</ele>
        <time>2016-09-05T14:47:22.000Z</time>
      </trkpt>
      <trkpt lat="47.34527" lon="6.3609">
        <ele>271.657</ele>
        <time>2016-09-05T14:47:23.000Z</time>
      </trkpt>
      <trkpt lat="47.34527" lon="6.3609">
        <ele>271.66</ele>
        <time>2016-09-05T14:47:24.000Z</time>
      </trkpt>
      <trkpt lat="47.34527" lon="6.3609">
        <ele>271.664</ele>
        <time>2016-09-05T14:47:25.000Z</time>
      </trkpt>
      <trkpt lat="47.34527" lon="6.3609">
        <ele>271.667</ele>
        <time>2016-09-05T14:47:26.000Z</time>
      </trkpt>
      <trkpt lat="47.34527" lon="6.3609">
        <ele>271.662</ele>
        <time>2016-09-05T14:47:27.000Z</time>
      </trkpt>
      <trkpt lat="47.34527" lon="6.3609">
        <ele>271.666</ele>
        <time>2016-09-05T14:47:28.000Z</time>
      </trkpt>
      <trkpt lat="47.34527" lon="6.3609">
        <ele>271.658</ele>
        <time>2016-09-05T14:47:29.000Z</time>
      </trkpt>
      <trkpt lat="47.34527" lon="6.3609">
        <ele>271.647</ele>
        <time>2016-09-05T14:47:30.000Z</time>
      </trkpt>
      <trkpt lat="47.34527" lon="6.3609">
        <ele>271.647</ele>
        <time>2016-09-05T14:47:31.000Z</time>
      </trkpt>
      <trkpt lat="47.34527" lon="6.3609">
        <ele>271.647</ele>
        <time>2016-09-05T14:47:32.000Z</time>
      </trkpt>
      <trkpt lat="47.34527" lon="6.3609">
        <ele>271.648</ele>
        <time>2016-09-05T14:47:33.000Z</time>
      </trkpt>
      <trkpt lat="47.34527" lon="6.3609">
        <ele>271.642</ele>
        <time>2016-09-05T14:47:34.000Z</time>
      </trkpt>
      <trkpt lat="47.34527" lon="6.3609">
        <ele>271.644</ele>
        <time>2016-09-05T14:47:35.000Z</time>
      </trkpt>
      <trkpt lat="47.34527" lon="6.3609">
        <ele>271.641</ele>
        <time>2016-09-05T14:47:36.000Z</time>
      </trkpt>
      <trkpt lat="47.34527" lon="6.3609">
        <ele>271.634</ele>
        <time>2016-09-05T14:47:37.000Z</time>
      </trkpt>
      <trkpt lat="47.34527" lon="6.3609">
        <ele>271.639</ele>
        <time>2016-09-05T14:47:38.000Z</time>
      </trkpt>
      <trkpt lat="47.34527" lon="6.3609">
        <ele>271.64</ele>
        <time>2016-09-05T14:47:39.000Z</time>
      </trkpt>
      <trkpt lat="47.34527" lon="6.3609">
        <ele>271.644</ele>
        <time>2016-09-05T14:47:40.000Z</time>
      </trkpt>
      <trkpt lat="47.34527" lon="6.3609">
        <ele>271.649</ele>
        <time>2016-09-05T14:47:41.000Z</time>
      </trkpt>
      <trkpt lat="47.34527" lon="6.3609">
        <ele>271.645</ele>
        <time>2016-09-05T14:47:42.000Z</time>
      </trkpt>
      <trkpt lat="47.34527" lon="6.3609">
        <ele>271.649</ele>
        <time>2016-09-05T14:47:43.000Z</time>
      </trkpt>
      <trkpt lat="47.34527" lon="6.3609">
        <ele>271.635</ele>
        <time>2016-09-05T14:47:44.000Z</time>
      </trkpt>
      <trkpt lat="47.34527" lon="6.3609">
        <ele>271.636</ele>
        <time>2016-09-05T14:47:45.000Z</time>
      </trkpt>
      <trkpt lat="47.34527" lon="6.3609">
        <ele>271.628</ele>
        <time>2016-09-05T14:47:46.000Z</time>
      </trkpt>
      <trkpt lat="47.34527" lon="6.3609">
        <ele>271.623</ele>
        <time>2016-09-05T14:47:47.000Z</time>
      </trkpt>
      <trkpt lat="47.34527" lon="6.3609">
        <ele>271.623</ele>
        <time>2016-09-05T14:47:48.000Z</time>
      </trkpt>
      <trkpt lat="47.34527" lon="6.3609">
        <ele>271.627</ele>
        <time>2016-09-05T14:47:49.000Z</time>
      </trkpt>
      <trkpt lat="47.34527" lon="6.3609">
        <ele>271.625</ele>
        <time>2016-09-05T14:47:50.000Z</time>
      </trkpt>
      <trkpt lat="47.34527" lon="6.3609">
        <ele>271.626</ele>
        <time>2016-09-05T14:47:51.000Z</time>
      </trkpt>
      <trkpt lat="47.34527" lon="6.3609">
        <ele>271.634</ele>
        <time>2016-09-05T14:47:52.000Z</time>
      </trkpt>
      <trkpt lat="47.34527" lon="6.3609">
        <ele>271.63</ele>
        <time>2016-09-05T14:47:53.000Z</time>
      </trkpt>
      <trkpt lat="47.34527" lon="6.3609">
        <ele>271.618</ele>
        <time>2016-09-05T14:47:54.000Z</time>
      </trkpt>
      <trkpt lat="47.34527" lon="6.3609">
        <ele>271.617</ele>
        <time>2016-09-05T14:47:55.000Z</time>
      </trkpt>
      <trkpt lat="47.34527" lon="6.3609">
        <ele>271.605</ele>
        <time>2016-09-05T14:47:56.000Z</time>
      </trkpt>
      <trkpt lat="47.34527" lon="6.3609">
        <ele>271.6</ele>
        <time>2016-09-05T14:47:57.000Z</time>
      </trkpt>
      <trkpt lat="47.34527" lon="6.3609">
        <ele>271.591</ele>
        <time>2016-09-05T14:47:58.000Z</time>
      </trkpt>
      <trkpt lat="47.34527" lon="6.3609">
        <ele>271.575</ele>
        <time>2016-09-05T14:47:59.000Z</time>
      </trkpt>
      <trkpt lat="47.34527" lon="6.3609">
        <ele>271.564</ele>
        <time>2016-09-05T14:48:00.000Z</time>
      </trkpt>
      <trkpt lat="47.34527" lon="6.3609">
        <ele>271.562</ele>
        <time>2016-09-05T14:48:01.000Z</time>
      </trkpt>
      <trkpt lat="47.34527" lon="6.3609">
        <ele>271.555</ele>
        <time>2016-09-05T14:48:02.000Z</time>
      </trkpt>
      <trkpt lat="47.34527" lon="6.3609">
        <ele>271.543</ele>
        <time>2016-09-05T14:48:03.000Z</time>
      </trkpt>
      <trkpt lat="47.34527" lon="6.3609">
        <ele>271.537</ele>
        <time>2016-09-05T14:48:04.000Z</time>
      </trkpt>
      <trkpt lat="47.34527" lon="6.3609">
        <ele>271.524</ele>
        <time>2016-09-05T14:48:05.000Z</time>
      </trkpt>
      <trkpt lat="47.34527" lon="6.3609">
        <ele>271.519</ele>
        <time>2016-09-05T14:48:06.000Z</time>
      </trkpt>
      <trkpt lat="47.34527" lon="6.3609">
        <ele>271.52</ele>
        <time>2016-09-05T14:48:07.000Z</time>
      </trkpt>
      <trkpt lat="47.34527" lon="6.3609">
        <ele>271.52</ele>
        <time>2016-09-05T14:48:08.000Z</time>
      </trkpt>
      <trkpt lat="47.34527" lon="6.3609">
        <ele>271.529</ele>
        <time>2016-09-05T14:48:09.000Z</time>
      </trkpt>
      <trkpt lat="47.34527" lon="6.3609">
        <ele>271.534</ele>
        <time>2016-09-05T14:48:10.000Z</time>
      </trkpt>
      <trkpt lat="47.34527" lon="6.3609">
        <ele>271.546</ele>
        <time>2016-09-05T14:48:11.000Z</time>
      </trkpt>
      <trkpt lat="47.34527" lon="6.3609">
        <ele>271.548</ele>
        <time>2016-09-05T14:48:12.000Z</time>
      </trkpt>
      <trkpt lat="47.34527" lon="6.3609">
        <ele>271.557</ele>
        <time>2016-09-05T14:48:13.000Z</time>
      </trkpt>
      <trkpt lat="47.34527" lon="6.3609">
        <ele>271.565</ele>
        <time>2016-09-05T14:48:14.000Z</time>
      </trkpt>
      <trkpt lat="47.34527" lon="6.3609">
        <ele>271.567</ele>
        <time>2016-09-05T14:48:15.000Z</time>
      </trkpt>
      <trkpt lat="47.34527" lon="6.3609">
        <ele>271.57</ele>
        <time>2016-09-05T14:48:16.000Z</time>
      </trkpt>
      <trkpt lat="47.34527" lon="6.3609">
        <ele>271.58</ele>
        <time>2016-09-05T14:48:17.000Z</time>
      </trkpt>
      <trkpt lat="47.34527" lon="6.3609">
        <ele>271.582</ele>
        <time>2016-09-05T14:48:18.000Z</time>
      </trkpt>
      <trkpt lat="47.34527" lon="6.3609">
        <ele>271.581</ele>
        <time>2016-09-05T14:48:19.000Z</time>
      </trkpt>
      <trkpt lat="47.34527" lon="6.3609">
        <ele>271.588</ele>
        <time>2016-09-05T14:48:20.000Z</time>
      </trkpt>
      <trkpt lat="47.34527" lon="6.3609">
        <ele>271.589</ele>
        <time>2016-09-05T14:48:21.000Z</time>
      </trkpt>
      <trkpt lat="47.34527" lon="6.3609">
        <ele>271.596</ele>
        <time>2016-09-05T14:48:22.000Z</time>
      </trkpt>
      <trkpt lat="47.34527" lon="6.3609">
        <ele>271.599</ele>
        <time>2016-09-05T14:48:23.000Z</time>
      </trkpt>
      <trkpt lat="47.34527" lon="6.3609">
        <ele>271.599</ele>
        <time>2016-09-05T14:48:24.000Z</time>
      </trkpt>
      <trkpt lat="47.34527" lon="6.3609">
        <ele>271.604</ele>
        <time>2016-09-05T14:48:25.000Z</time>
      </trkpt>
      <trkpt lat="47.34527" lon="6.3609">
        <ele>271.605</ele>
        <time>2016-09-05T14:48:26.000Z</time>
      </trkpt>
      <trkpt lat="47.34527" lon="6.3609">
        <ele>271.608</ele>
        <time>2016-09-05T14:48:27.000Z</time>
      </trkpt>
      <trkpt lat="47.34527" lon="6.3609">
        <ele>271.606</ele>
        <time>2016-09-05T14:48:28.000Z</time>
      </trkpt>
      <trkpt lat="47.34527" lon="6.3609">
        <ele>271.605</ele>
        <time>2016-09-05T14:48:29.000Z</time>
      </trkpt>
      <trkpt lat="47.34527" lon="6.3609">
        <ele>271.593</ele>
        <time>2016-09-05T14:48:30.000Z</time>
      </trkpt>
      <trkpt lat="47.34527" lon="6.3609">
        <ele>271.596</ele>
        <time>2016-09-05T14:48:31.000Z</time>
      </trkpt>
      <trkpt lat="47.34527" lon="6.3609">
        <ele>271.595</ele>
        <time>2016-09-05T14:48:32.000Z</time>
      </trkpt>
      <trkpt lat="47.34527" lon="6.3609">
        <ele>271.604</ele>
        <time>2016-09-05T14:48:33.000Z</time>
      </trkpt>
      <trkpt lat="47.34527" lon="6.3609">
        <ele>271.608</ele>
        <time>2016-09-05T14:48:34.000Z</time>
      </trkpt>
      <trkpt lat="47.34527" lon="6.3609">
        <ele>271.605</ele>
        <time>2016-09-05T14:48:35.000Z</time>
      </trkpt>
      <trkpt lat="47.34527" lon="6.3609">
        <ele>271.602</ele>
        <time>2016-09-05T14:48:36.000Z</time>
      </trkpt>
      <trkpt lat="47.34527" lon="6.3609">
        <ele>271.599</ele>
        <time>2016-09-05T14:48:37.000Z</time>
      </trkpt>
      <trkpt lat="47.34527" lon="6.3609">
        <ele>271.595</ele>
        <time>2016-09-05T14:48:38.000Z</time>
      </trkpt>
      <trkpt lat="47.34527" lon="6.3609">
        <ele>271.595</ele>
        <time>2016-09-05T14:48:39.000Z</time>
      </trkpt>
      <trkpt lat="47.34527" lon="6.3609">
        <ele>271.594</ele>
        <time>2016-09-05T14:48:40.000Z</time>
      </trkpt>
      <trkpt lat="47.34527" lon="6.3609">
        <ele>271.59</ele>
        <time>2016-09-05T14:48:41.000Z</time>
      </trkpt>
      <trkpt lat="47.34527" lon="6.3609">
        <ele>271.587</ele>
        <time>2016-09-05T14:48:42.000Z</time>
      </trkpt>
      <trkpt lat="47.34527" lon="6.3609">
        <ele>271.579</ele>
        <time>2016-09-05T14:48:43.000Z</time>
      </trkpt>
      <trkpt lat="47.34527" lon="6.3609">
        <ele>271.575</ele>
        <time>2016-09-05T14:48:44.000Z</time>
      </trkpt>
      <trkpt lat="47.34527" lon="6.3609">
        <ele>271.568</ele>
        <time>2016-09-05T14:48:45.000Z</time>
      </trkpt>
      <trkpt lat="47.34527" lon="6.3609">
        <ele>271.563</ele>
        <time>2016-09-05T14:48:46.000Z</time>
      </trkpt>
      <trkpt lat="47.34527" lon="6.3609">
        <ele>271.558</ele>
        <time>2016-09-05T14:48:47.000Z</time>
      </trkpt>
      <trkpt lat="47.34527" lon="6.3609">
        <ele>271.553</ele>
        <time>2016-09-05T14:48:48.000Z</time>
      </trkpt>
      <trkpt lat="47.34527" lon="6.3609">
        <ele>271.556</ele>
        <time>2016-09-05T14:48:49.000Z</time>
      </trkpt>
      <trkpt lat="47.34527" lon="6.3609">
        <ele>271.555</ele>
        <time>2016-09-05T14:48:50.000Z</time>
      </trkpt>
      <trkpt lat="47.34527" lon="6.3609">
        <ele>271.559</ele>
        <time>2016-09-05T14:48:51.000Z</time>
      </trkpt>
      <trkpt lat="47.34527" lon="6.3609">
        <ele>271.555</ele>
        <time>2016-09-05T14:48:52.000Z</time>
      </trkpt>
      <trkpt lat="47.34527" lon="6.3609">
        <ele>271.556</ele>
        <time>2016-09-05T14:48:53.000Z</time>
      </trkpt>
      <trkpt lat="47.34527" lon="6.3609">
        <ele>271.564</ele>
        <time>2016-09-05T14:48:54.000Z</time>
      </trkpt>
      <trkpt lat="47.34527" lon="6.3609">
        <ele>271.571</ele>
        <time>2016-09-05T14:48:55.000Z</time>
      </trkpt>
      <trkpt lat="47.34527" lon="6.3609">
        <ele>271.575</ele>
        <time>2016-09-05T14:48:56.000Z</time>
      </trkpt>
      <trkpt lat="47.34527" lon="6.3609">
        <ele>271.578</ele>
        <time>2016-09-05T14:48:57.000Z</time>
      </trkpt>
      <trkpt lat="47.34527" lon="6.3609">
        <ele>271.576</ele>
        <time>2016-09-05T14:48:58.000Z</time>
      </trkpt>
      <trkpt lat="47.34527" lon="6.3609">
        <ele>271.565</ele>
        <time>2016-09-05T14:48:59.000Z</time>
      </trkpt>
      <trkpt lat="47.34527" lon="6.3609">
        <ele>271.564</ele>
        <time>2016-09-05T14:49:00.000Z</time>
      </trkpt>
      <trkpt lat="47.34527" lon="6.3609">
        <ele>271.556</ele>
        <time>2016-09-05T14:49:01.000Z</time>
      </trkpt>
      <trkpt lat="47.34527" lon="6.3609">
        <ele>271.548</ele>
        <time>2016-09-05T14:49:02.000Z</time>
      </trkpt>
      <trkpt lat="47.34527" lon="6.3609">
        <ele>271.538</ele>
        <time>2016-09-05T14:49:03.000Z</time>
      </trkpt>
      <trkpt lat="47.34527" lon="6.3609">
        <ele>271.529</ele>
        <time>2016-09-05T14:49:04.000Z</time>
      </trkpt>
      <trkpt lat="47.34527" lon="6.3609">
        <ele>271.526</ele>
        <time>2016-09-05T14:49:05.000Z</time>
      </trkpt>
      <trkpt lat="47.34527" lon="6.3609">
        <ele>271.524</ele>
        <time>2016-09-05T14:49:06.000Z</time>
      </trkpt>
      <trkpt lat="47.34527" lon="6.3609">
        <ele>271.518</ele>
        <time>2016-09-05T14:49:07.000Z</time>
      </trkpt>
      <trkpt lat="47.34527" lon="6.3609">
        <ele>271.509</ele>
        <time>2016-09-05T14:49:08.000Z</time>
      </trkpt>
      <trkpt lat="47.34527" lon="6.3609">
        <ele>271.499</ele>
        <time>2016-09-05T14:49:09.000Z</time>
      </trkpt>
      <trkpt lat="47.34527" lon="6.3609">
        <ele>271.503</ele>
        <time>2016-09-05T14:49:10.000Z</time>
      </trkpt>
      <trkpt lat="47.34527" lon="6.3609">
        <ele>271.495</ele>
        <time>2016-09-05T14:49:11.000Z</time>
      </trkpt>
      <trkpt lat="47.34527" lon="6.3609">
        <ele>271.493</ele>
        <time>2016-09-05T14:49:12.000Z</time>
      </trkpt>
      <trkpt lat="47.34527" lon="6.3609">
        <ele>271.501</ele>
        <time>2016-09-05T14:49:13.000Z</time>
      </trkpt>
      <trkpt lat="47.34527" lon="6.3609">
        <ele>271.505</ele>
        <time>2016-09-05T14:49:14.000Z</time>
      </trkpt>
      <trkpt lat="47.34527" lon="6.3609">
        <ele>271.511</ele>
        <time>2016-09-05T14:49:15.000Z</time>
      </trkpt>
      <trkpt lat="47.34527" lon="6.3609">
        <ele>271.516</ele>
        <time>2016-09-05T14:49:16.000Z</time>
      </trkpt>
      <trkpt lat="47.34527" lon="6.3609">
        <ele>271.519</ele>
        <time>2016-09-05T14:49:17.000Z</time>
      </trkpt>
      <trkpt lat="47.34527" lon="6.3609">
        <ele>271.52</ele>
        <time>2016-09-05T14:49:18.000Z</time>
      </trkpt>
      <trkpt lat="47.34527" lon="6.3609">
        <ele>271.512</ele>
        <time>2016-09-05T14:49:19.000Z</time>
      </trkpt>
      <trkpt lat="47.34527" lon="6.3609">
        <ele>271.495</ele>
        <time>2016-09-05T14:49:20.000Z</time>
      </trkpt>
      <trkpt lat="47.34527" lon="6.3609">
        <ele>271.482</ele>
        <time>2016-09-05T14:49:21.000Z</time>
      </trkpt>
      <trkpt lat="47.34527" lon="6.3609">
        <ele>271.465</ele>
        <time>2016-09-05T14:49:22.000Z</time>
      </trkpt>
      <trkpt lat="47.34527" lon="6.3609">
        <ele>271.44</ele>
        <time>2016-09-05T14:49:23.000Z</time>
      </trkpt>
      <trkpt lat="47.34527" lon="6.3609">
        <ele>271.425</ele>
        <time>2016-09-05T14:49:24.000Z</time>
      </trkpt>
      <trkpt lat="47.34527" lon="6.3609">
        <ele>271.414</ele>
        <time>2016-09-05T14:49:25.000Z</time>
      </trkpt>
      <trkpt lat="47.34527" lon="6.3609">
        <ele>271.41</ele>
        <time>2016-09-05T14:49:26.000Z</time>
      </trkpt>
      <trkpt lat="47.34527" lon="6.3609">
        <ele>271.397</ele>
        <time>2016-09-05T14:49:27.000Z</time>
      </trkpt>
      <trkpt lat="47.34527" lon="6.3609">
        <ele>271.386</ele>
        <time>2016-09-05T14:49:28.000Z</time>
      </trkpt>
      <trkpt lat="47.34527" lon="6.3609">
        <ele>271.383</ele>
        <time>2016-09-05T14:49:29.000Z</time>
      </trkpt>
      <trkpt lat="47.34527" lon="6.3609">
        <ele>271.377</ele>
        <time>2016-09-05T14:49:30.000Z</time>
      </trkpt>
      <trkpt lat="47.34527" lon="6.3609">
        <ele>271.373</ele>
        <time>2016-09-05T14:49:31.000Z</time>
      </trkpt>
      <trkpt lat="47.34527" lon="6.3609">
        <ele>271.371</ele>
        <time>2016-09-05T14:49:32.000Z</time>
      </trkpt>
      <trkpt lat="47.34527" lon="6.3609">
        <ele>271.37</ele>
        <time>2016-09-05T14:49:33.000Z</time>
      </trkpt>
      <trkpt lat="47.34527" lon="6.3609">
        <ele>271.367</ele>
        <time>2016-09-05T14:49:34.000Z</time>
      </trkpt>
      <trkpt lat="47.34527" lon="6.3609">
        <ele>271.372</ele>
        <time>2016-09-05T14:49:35.000Z</time>
      </trkpt>
      <trkpt lat="47.34527" lon="6.3609">
        <ele>271.376</ele>
        <time>2016-09-05T14:49:36.000Z</time>
      </trkpt>
      <trkpt lat="47.34527" lon="6.3609">
        <ele>271.377</ele>
        <time>2016-09-05T14:49:37.000Z</time>
      </trkpt>
      <trkpt lat="47.34527" lon="6.3609">
        <ele>271.371</ele>
        <time>2016-09-05T14:49:38.000Z</time>
      </trkpt>
      <trkpt lat="47.34527" lon="6.3609">
        <ele>271.366</ele>
        <time>2016-09-05T14:49:39.000Z</time>
      </trkpt>
      <trkpt lat="47.34527" lon="6.3609">
        <ele>271.352</ele>
        <time>2016-09-05T14:49:40.000Z</time>
      </trkpt>
      <trkpt lat="47.34527" lon="6.3609">
        <ele>271.341</ele>
        <time>2016-09-05T14:49:41.000Z</time>
      </trkpt>
      <trkpt lat="47.34527" lon="6.3609">
        <ele>271.332</ele>
        <time>2016-09-05T14:49:42.000Z</time>
      </trkpt>
      <trkpt lat="47.34527" lon="6.3609">
        <ele>271.325</ele>
        <time>2016-09-05T14:49:43.000Z</time>
      </trkpt>
      <trkpt lat="47.34527" lon="6.3609">
        <ele>271.311</ele>
        <time>2016-09-05T14:49:44.000Z</time>
      </trkpt>
      <trkpt lat="47.34527" lon="6.3609">
        <ele>271.304</ele>
        <time>2016-09-05T14:49:45.000Z</time>
      </trkpt>
      <trkpt lat="47.34527" lon="6.3609">
        <ele>271.297</ele>
        <time>2016-09-05T14:49:46.000Z</time>
      </trkpt>
      <trkpt lat="47.34527" lon="6.3609">
        <ele>271.299</ele>
        <time>2016-09-05T14:49:47.000Z</time>
      </trkpt>
      <trkpt lat="47.34527" lon="6.3609">
        <ele>271.308</ele>
        <time>2016-09-05T14:49:48.000Z</time>
      </trkpt>
      <trkpt lat="47.34527" lon="6.3609">
        <ele>271.301</ele>
        <time>2016-09-05T14:49:49.000Z</time>
      </trkpt>
      <trkpt lat="47.34527" lon="6.3609">
        <ele>271.298</ele>
        <time>2016-09-05T14:49:50.000Z</time>
      </trkpt>
      <trkpt lat="47.34527" lon="6.3609">
        <ele>271.299</ele>
        <time>2016-09-05T14:49:51.000Z</time>
      </trkpt>
      <trkpt lat="47.34527" lon="6.3609">
        <ele>271.294</ele>
        <time>2016-09-05T14:49:52.000Z</time>
      </trkpt>
      <trkpt lat="47.34527" lon="6.3609">
        <ele>271.302</ele>
        <time>2016-09-05T14:49:53.000Z</time>
      </trkpt>
      <trkpt lat="47.34527" lon="6.3609">
        <ele>271.313</ele>
        <time>2016-09-05T14:49:54.000Z</time>
      </trkpt>
      <trkpt lat="47.34527" lon="6.3609">
        <ele>271.317</ele>
        <time>2016-09-05T14:49:55.000Z</time>
      </trkpt>
      <trkpt lat="47.34527" lon="6.3609">
        <ele>271.334</ele>
        <time>2016-09-05T14:49:56.000Z</time>
      </trkpt>
      <trkpt lat="47.34527" lon="6.3609">
        <ele>271.343</ele>
        <time>2016-09-05T14:49:57.000Z</time>
      </trkpt>
      <trkpt lat="47.34527" lon="6.3609">
        <ele>271.335</ele>
        <time>2016-09-05T14:49:58.000Z</time>
      </trkpt>
      <trkpt lat="47.34527" lon="6.3609">
        <ele>271.34</ele>
        <time>2016-09-05T14:49:59.000Z</time>
      </trkpt>
      <trkpt lat="47.34527" lon="6.3609">
        <ele>271.343</ele>
        <time>2016-09-05T14:50:00.000Z</time>
      </trkpt>
      <trkpt lat="47.34527" lon="6.3609">
        <ele>271.335</ele>
        <time>2016-09-05T14:50:01.000Z</time>
      </trkpt>
      <trkpt lat="47.34527" lon="6.3609">
        <ele>271.339</ele>
        <time>2016-09-05T14:50:02.000Z</time>
      </trkpt>
      <trkpt lat="47.34527" lon="6.3609">
        <ele>271.342</ele>
        <time>2016-09-05T14:50:03.000Z</time>
      </trkpt>
      <trkpt lat="47.34527" lon="6.3609">
        <ele>271.34</ele>
        <time>2016-09-05T14:50:04.000Z</time>
      </trkpt>
      <trkpt lat="47.34527" lon="6.3609">
        <ele>271.338</ele>
        <time>2016-09-05T14:50:05.000Z</time>
      </trkpt>
      <trkpt lat="47.34527" lon="6.3609">
        <ele>271.331</ele>
        <time>2016-09-05T14:50:06.000Z</time>
      </trkpt>
      <trkpt lat="47.34527" lon="6.3609">
        <ele>271.335</ele>
        <time>2016-09-05T14:50:07.000Z</time>
      </trkpt>
      <trkpt lat="47.34527" lon="6.3609">
        <ele>271.338</ele>
        <time>2016-09-05T14:50:08.000Z</time>
      </trkpt>
      <trkpt lat="47.34527" lon="6.3609">
        <ele>271.346</ele>
        <time>2016-09-05T14:50:09.000Z</time>
      </trkpt>
      <trkpt lat="47.34527" lon="6.3609">
        <ele>271.339</ele>
        <time>2016-09-05T14:50:10.000Z</time>
      </trkpt>
      <trkpt lat="47.34527" lon="6.3609">
        <ele>271.344</ele>
        <time>2016-09-05T14:50:11.000Z</time>
      </trkpt>
      <trkpt lat="47.34527" lon="6.3609">
        <ele>271.329</ele>
        <time>2016-09-05T14:50:12.000Z</time>
      </trkpt>
      <trkpt lat="47.34527" lon="6.3609">
        <ele>271.321</ele>
        <time>2016-09-05T14:50:13.001Z</time>
      </trkpt>
      <trkpt lat="47.34527" lon="6.3609">
        <ele>271.319</ele>
        <time>2016-09-05T14:50:14.000Z</time>
      </trkpt>
      <trkpt lat="47.34527" lon="6.3609">
        <ele>271.328</ele>
        <time>2016-09-05T14:50:15.000Z</time>
      </trkpt>
      <trkpt lat="47.34527" lon="6.3609">
        <ele>271.325</ele>
        <time>2016-09-05T14:50:16.000Z</time>
      </trkpt>
      <trkpt lat="47.34527" lon="6.3609">
        <ele>271.323</ele>
        <time>2016-09-05T14:50:17.000Z</time>
      </trkpt>
      <trkpt lat="47.34527" lon="6.3609">
        <ele>271.322</ele>
        <time>2016-09-05T14:50:18.000Z</time>
      </trkpt>
      <trkpt lat="47.34527" lon="6.3609">
        <ele>271.321</ele>
        <time>2016-09-05T14:50:19.000Z</time>
      </trkpt>
      <trkpt lat="47.34527" lon="6.3609">
        <ele>271.323</ele>
        <time>2016-09-05T14:50:20.000Z</time>
      </trkpt>
      <trkpt lat="47.34527" lon="6.3609">
        <ele>271.326</ele>
        <time>2016-09-05T14:50:21.000Z</time>
      </trkpt>
      <trkpt lat="47.34527" lon="6.3609">
        <ele>271.328</ele>
        <time>2016-09-05T14:50:22.000Z</time>
      </trkpt>
      <trkpt lat="47.34527" lon="6.3609">
        <ele>271.333</ele>
        <time>2016-09-05T14:50:23.000Z</time>
      </trkpt>
      <trkpt lat="47.34527" lon="6.3609">
        <ele>271.332</ele>
        <time>2016-09-05T14:50:24.000Z</time>
      </trkpt>
      <trkpt lat="47.34527" lon="6.3609">
        <ele>271.34</ele>
        <time>2016-09-05T14:50:25.000Z</time>
      </trkpt>
      <trkpt lat="47.34527" lon="6.3609">
        <ele>271.334</ele>
        <time>2016-09-05T14:50:26.000Z</time>
      </trkpt>
      <trkpt lat="47.34527" lon="6.3609">
        <ele>271.332</ele>
        <time>2016-09-05T14:50:27.000Z</time>
      </trkpt>
      <trkpt lat="47.34527" lon="6.3609">
        <ele>271.328</ele>
        <time>2016-09-05T14:50:28.000Z</time>
      </trkpt>
      <trkpt lat="47.34527" lon="6.3609">
        <ele>271.32</ele>
        <time>2016-09-05T14:50:29.000Z</time>
      </trkpt>
      <trkpt lat="47.34527" lon="6.3609">
        <ele>271.325</ele>
        <time>2016-09-05T14:50:30.000Z</time>
      </trkpt>
      <trkpt lat="47.34527" lon="6.3609">
        <ele>271.332</ele>
        <time>2016-09-05T14:50:31.000Z</time>
      </trkpt>
      <trkpt lat="47.34527" lon="6.3609">
        <ele>271.341</ele>
        <time>2016-09-05T14:50:32.000Z</time>
      </trkpt>
      <trkpt lat="47.34527" lon="6.3609">
        <ele>271.345</ele>
        <time>2016-09-05T14:50:33.000Z</time>
      </trkpt>
      <trkpt lat="47.34527" lon="6.3609">
        <ele>271.351</ele>
        <time>2016-09-05T14:50:34.000Z</time>
      </trkpt>
      <trkpt lat="47.34527" lon="6.3609">
        <ele>271.362</ele>
        <time>2016-09-05T14:50:35.000Z</time>
      </trkpt>
      <trkpt lat="47.34527" lon="6.3609">
        <ele>271.362</ele>
        <time>2016-09-05T14:50:36.000Z</time>
      </trkpt>
      <trkpt lat="47.34527" lon="6.3609">
        <ele>271.36</ele>
        <time>2016-09-05T14:50:37.000Z</time>
      </trkpt>
      <trkpt lat="47.34527" lon="6.3609">
        <ele>271.36</ele>
        <time>2016-09-05T14:50:38.000Z</time>
      </trkpt>
      <trkpt lat="47.34527" lon="6.3609">
        <ele>271.362</ele>
        <time>2016-09-05T14:50:39.000Z</time>
      </trkpt>
      <trkpt lat="47.34527" lon="6.3609">
        <ele>271.366</ele>
        <time>2016-09-05T14:50:40.000Z</time>
      </trkpt>
      <trkpt lat="47.34527" lon="6.3609">
        <ele>271.364</ele>
        <time>2016-09-05T14:50:41.000Z</time>
      </trkpt>
      <trkpt lat="47.34527" lon="6.3609">
        <ele>271.367</ele>
        <time>2016-09-05T14:50:42.000Z</time>
      </trkpt>
      <trkpt lat="47.34527" lon="6.3609">
        <ele>271.373</ele>
        <time>2016-09-05T14:50:43.000Z</time>
      </trkpt>
      <trkpt lat="47.34527" lon="6.3609">
        <ele>271.371</ele>
        <time>2016-09-05T14:50:44.000Z</time>
      </trkpt>
      <trkpt lat="47.34527" lon="6.3609">
        <ele>271.377</ele>
        <time>2016-09-05T14:50:45.000Z</time>
      </trkpt>
      <trkpt lat="47.34527" lon="6.3609">
        <ele>271.373</ele>
        <time>2016-09-05T14:50:46.000Z</time>
      </trkpt>
      <trkpt lat="47.34527" lon="6.3609">
        <ele>271.364</ele>
        <time>2016-09-05T14:50:47.000Z</time>
      </trkpt>
      <trkpt lat="47.34527" lon="6.3609">
        <ele>271.362</ele>
        <time>2016-09-05T14:50:48.000Z</time>
      </trkpt>
      <trkpt lat="47.34527" lon="6.3609">
        <ele>271.36</ele>
        <time>2016-09-05T14:50:49.000Z</time>
      </trkpt>
      <trkpt lat="47.34527" lon="6.3609">
        <ele>271.359</ele>
        <time>2016-09-05T14:50:50.000Z</time>
      </trkpt>
      <trkpt lat="47.34527" lon="6.3609">
        <ele>271.354</ele>
        <time>2016-09-05T14:50:51.000Z</time>
      </trkpt>
      <trkpt lat="47.34527" lon="6.3609">
        <ele>271.349</ele>
        <time>2016-09-05T14:50:52.000Z</time>
      </trkpt>
      <trkpt lat="47.34527" lon="6.3609">
        <ele>271.34</ele>
        <time>2016-09-05T14:50:53.000Z</time>
      </trkpt>
      <trkpt lat="47.34527" lon="6.3609">
        <ele>271.339</ele>
        <time>2016-09-05T14:50:54.000Z</time>
      </trkpt>
      <trkpt lat="47.34527" lon="6.3609">
        <ele>271.332</ele>
        <time>2016-09-05T14:50:55.000Z</time>
      </trkpt>
      <trkpt lat="47.34527" lon="6.3609">
        <ele>271.33</ele>
        <time>2016-09-05T14:50:56.000Z</time>
      </trkpt>
      <trkpt lat="47.34527" lon="6.3609">
        <ele>271.322</ele>
        <time>2016-09-05T14:50:57.000Z</time>
      </trkpt>
      <trkpt lat="47.34527" lon="6.3609">
        <ele>271.316</ele>
        <time>2016-09-05T14:50:58.000Z</time>
      </trkpt>
      <trkpt lat="47.34527" lon="6.3609">
        <ele>271.314</ele>
        <time>2016-09-05T14:50:59.000Z</time>
      </trkpt>
      <trkpt lat="47.34527" lon="6.3609">
        <ele>271.313</ele>
        <time>2016-09-05T14:51:00.000Z</time>
      </trkpt>
      <trkpt lat="47.34527" lon="6.3609">
        <ele>271.308</ele>
        <time>2016-09-05T14:51:01.000Z</time>
      </trkpt>
      <trkpt lat="47.34527" lon="6.3609">
        <ele>271.315</ele>
        <time>2016-09-05T14:51:02.000Z</time>
      </trkpt>
      <trkpt lat="47.34527" lon="6.3609">
        <ele>271.311</ele>
        <time>2016-09-05T14:51:03.000Z</time>
      </trkpt>
      <trkpt lat="47.34527" lon="6.3609">
        <ele>271.305</ele>
        <time>2016-09-05T14:51:04.000Z</time>
      </trkpt>
      <trkpt lat="47.34527" lon="6.3609">
        <ele>271.299</ele>
        <time>2016-09-05T14:51:05.000Z</time>
      </trkpt>
      <trkpt lat="47.34527" lon="6.3609">
        <ele>271.294</ele>
        <time>2016-09-05T14:51:06.000Z</time>
      </trkpt>
      <trkpt lat="47.34527" lon="6.3609">
        <ele>271.286</ele>
        <time>2016-09-05T14:51:07.000Z</time>
      </trkpt>
      <trkpt lat="47.34527" lon="6.3609">
        <ele>271.279</ele>
        <time>2016-09-05T14:51:08.000Z</time>
      </trkpt>
      <trkpt lat="47.34527" lon="6.3609">
        <ele>271.267</ele>
        <time>2016-09-05T14:51:09.000Z</time>
      </trkpt>
      <trkpt lat="47.34527" lon="6.3609">
        <ele>271.26</ele>
        <time>2016-09-05T14:51:10.000Z</time>
      </trkpt>
      <trkpt lat="47.34527" lon="6.3609">
        <ele>271.266</ele>
        <time>2016-09-05T14:51:11.000Z</time>
      </trkpt>
      <trkpt lat="47.34527" lon="6.3609">
        <ele>271.265</ele>
        <time>2016-09-05T14:51:12.000Z</time>
      </trkpt>
      <trkpt lat="47.34527" lon="6.3609">
        <ele>271.267</ele>
        <time>2016-09-05T14:51:13.000Z</time>
      </trkpt>
      <trkpt lat="47.34527" lon="6.3609">
        <ele>271.262</ele>
        <time>2016-09-05T14:51:14.000Z</time>
      </trkpt>
      <trkpt lat="47.34527" lon="6.3609">
        <ele>271.268</ele>
        <time>2016-09-05T14:51:15.000Z</time>
      </trkpt>
      <trkpt lat="47.34527" lon="6.3609">
        <ele>271.271</ele>
        <time>2016-09-05T14:51:16.000Z</time>
      </trkpt>
      <trkpt lat="47.34527" lon="6.3609">
        <ele>271.271</ele>
        <time>2016-09-05T14:51:17.000Z</time>
      </trkpt>
      <trkpt lat="47.34527" lon="6.3609">
        <ele>271.273</ele>
        <time>2016-09-05T14:51:18.000Z</time>
      </trkpt>
      <trkpt lat="47.34527" lon="6.3609">
        <ele>271.277</ele>
        <time>2016-09-05T14:51:19.000Z</time>
      </trkpt>
      <trkpt lat="47.34527" lon="6.3609">
        <ele>271.276</ele>
        <time>2016-09-05T14:51:20.000Z</time>
      </trkpt>
      <trkpt lat="47.34527" lon="6.3609">
        <ele>271.277</ele>
        <time>2016-09-05T14:51:21.000Z</time>
      </trkpt>
      <trkpt lat="47.34527" lon="6.3609">
        <ele>271.275</ele>
        <time>2016-09-05T14:51:22.000Z</time>
      </trkpt>
      <trkpt lat="47.34527" lon="6.3609">
        <ele>271.274</ele>
        <time>2016-09-05T14:51:23.000Z</time>
      </trkpt>
      <trkpt lat="47.34527" lon="6.3609">
        <ele>271.276</ele>
        <time>2016-09-05T14:51:24.000Z</time>
      </trkpt>
      <trkpt lat="47.34527" lon="6.3609">
        <ele>271.272</ele>
        <time>2016-09-05T14:51:25.000Z</time>
      </trkpt>
      <trkpt lat="47.34527" lon="6.3609">
        <ele>271.272</ele>
        <time>2016-09-05T14:51:26.000Z</time>
      </trkpt>
      <trkpt lat="47.34527" lon="6.3609">
        <ele>271.263</ele>
        <time>2016-09-05T14:51:27.000Z</time>
      </trkpt>
      <trkpt lat="47.34527" lon="6.3609">
        <ele>271.256</ele>
        <time>2016-09-05T14:51:28.000Z</time>
      </trkpt>
      <trkpt lat="47.34527" lon="6.3609">
        <ele>271.238</ele>
        <time>2016-09-05T14:51:29.000Z</time>
      </trkpt>
      <trkpt lat="47.34527" lon="6.3609">
        <ele>271.222</ele>
        <time>2016-09-05T14:51:30.000Z</time>
      </trkpt>
      <trkpt lat="47.34527" lon="6.3609">
        <ele>271.217</ele>
        <time>2016-09-05T14:51:31.000Z</time>
      </trkpt>
      <trkpt lat="47.34527" lon="6.3609">
        <ele>271.206</ele>
        <time>2016-09-05T14:51:32.000Z</time>
      </trkpt>
      <trkpt lat="47.34527" lon="6.3609">
        <ele>271.198</ele>
        <time>2016-09-05T14:51:33.000Z</time>
      </trkpt>
      <trkpt lat="47.34527" lon="6.3609">
        <ele>271.201</ele>
        <time>2016-09-05T14:51:34.000Z</time>
      </trkpt>
      <trkpt lat="47.34527" lon="6.3609">
        <ele>271.198</ele>
        <time>2016-09-05T14:51:35.000Z</time>
      </trkpt>
      <trkpt lat="47.34527" lon="6.3609">
        <ele>271.185</ele>
        <time>2016-09-05T14:51:36.000Z</time>
      </trkpt>
      <trkpt lat="47.34527" lon="6.3609">
        <ele>271.18</ele>
        <time>2016-09-05T14:51:37.000Z</time>
      </trkpt>
      <trkpt lat="47.34527" lon="6.3609">
        <ele>271.175</ele>
        <time>2016-09-05T14:51:38.000Z</time>
      </trkpt>
      <trkpt lat="47.34527" lon="6.3609">
        <ele>271.179</ele>
        <time>2016-09-05T14:51:39.000Z</time>
      </trkpt>
      <trkpt lat="47.34527" lon="6.3609">
        <ele>271.175</ele>
        <time>2016-09-05T14:51:40.000Z</time>
      </trkpt>
      <trkpt lat="47.34527" lon="6.3609">
        <ele>271.172</ele>
        <time>2016-09-05T14:51:41.000Z</time>
      </trkpt>
      <trkpt lat="47.34527" lon="6.3609">
        <ele>271.167</ele>
        <time>2016-09-05T14:51:42.000Z</time>
      </trkpt>
      <trkpt lat="47.34527" lon="6.3609">
        <ele>271.161</ele>
        <time>2016-09-05T14:51:43.000Z</time>
      </trkpt>
      <trkpt lat="47.34527" lon="6.3609">
        <ele>271.166</ele>
        <time>2016-09-05T14:51:44.000Z</time>
      </trkpt>
      <trkpt lat="47.34527" lon="6.3609">
        <ele>271.153</ele>
        <time>2016-09-05T14:51:45.000Z</time>
      </trkpt>
      <trkpt lat="47.34527" lon="6.3609">
        <ele>271.145</ele>
        <time>2016-09-05T14:51:46.000Z</time>
      </trkpt>
      <trkpt lat="47.34527" lon="6.3609">
        <ele>271.149</ele>
        <time>2016-09-05T14:51:47.000Z</time>
      </trkpt>
      <trkpt lat="47.34527" lon="6.3609">
        <ele>271.153</ele>
        <time>2016-09-05T14:51:48.000Z</time>
      </trkpt>
      <trkpt lat="47.34527" lon="6.3609">
        <ele>271.16</ele>
        <time>2016-09-05T14:51:49.000Z</time>
      </trkpt>
      <trkpt lat="47.34527" lon="6.3609">
        <ele>271.161</ele>
        <time>2016-09-05T14:51:50.000Z</time>
      </trkpt>
      <trkpt lat="47.34527" lon="6.3609">
        <ele>271.171</ele>
        <time>2016-09-05T14:51:51.000Z</time>
      </trkpt>
      <trkpt lat="47.34527" lon="6.3609">
        <ele>271.181</ele>
        <time>2016-09-05T14:51:52.000Z</time>
      </trkpt>
      <trkpt lat="47.34527" lon="6.3609">
        <ele>271.184</ele>
        <time>2016-09-05T14:51:53.000Z</time>
      </trkpt>
      <trkpt lat="47.34527" lon="6.3609">
        <ele>271.191</ele>
        <time>2016-09-05T14:51:54.184Z</time>
      </trkpt>
      <trkpt lat="47.34527" lon="6.3609">
        <ele>271.197</ele>
        <time>2016-09-05T14:51:55.192Z</time>
      </trkpt>
      <trkpt lat="47.34527" lon="6.3609">
        <ele>271.205</ele>
        <time>2016-09-05T14:51:56.276Z</time>
      </trkpt>
      <trkpt lat="47.34527" lon="6.3609">
        <ele>271.216</ele>
        <time>2016-09-05T14:51:57.275Z</time>
      </trkpt>
      <trkpt lat="47.34527" lon="6.3609">
        <ele>271.221</ele>
        <time>2016-09-05T14:51:58.310Z</time>
      </trkpt>
      <trkpt lat="47.34527" lon="6.3609">
        <ele>271.227</ele>
        <time>2016-09-05T14:51:59.307Z</time>
      </trkpt>
      <trkpt lat="47.34527" lon="6.3609">
        <ele>271.232</ele>
        <time>2016-09-05T14:52:00.184Z</time>
      </trkpt>
      <trkpt lat="47.34527" lon="6.3609">
        <ele>271.231</ele>
        <time>2016-09-05T14:52:01.187Z</time>
      </trkpt>
      <trkpt lat="47.34527" lon="6.3609">
        <ele>271.24</ele>
        <time>2016-09-05T14:52:02.188Z</time>
      </trkpt>
      <trkpt lat="47.34527" lon="6.3609">
        <ele>271.245</ele>
        <time>2016-09-05T14:52:03.200Z</time>
      </trkpt>
      <trkpt lat="47.34527" lon="6.3609">
        <ele>271.251</ele>
        <time>2016-09-05T14:52:04.206Z</time>
      </trkpt>
      <trkpt lat="47.34527" lon="6.3609">
        <ele>271.255</ele>
        <time>2016-09-05T14:52:05.275Z</time>
      </trkpt>
      <trkpt lat="47.34527" lon="6.3609">
        <ele>271.252</ele>
        <time>2016-09-05T14:52:06.274Z</time>
      </trkpt>
      <trkpt lat="47.34527" lon="6.3609">
        <ele>271.253</ele>
        <time>2016-09-05T14:52:07.179Z</time>
      </trkpt>
      <trkpt lat="47.34527" lon="6.3609">
        <ele>271.26</ele>
        <time>2016-09-05T14:52:08.177Z</time>
      </trkpt>
      <trkpt lat="47.34527" lon="6.3609">
        <ele>271.261</ele>
        <time>2016-09-05T14:52:09.190Z</time>
      </trkpt>
      <trkpt lat="47.34527" lon="6.3609">
        <ele>271.265</ele>
        <time>2016-09-05T14:52:10.182Z</time>
      </trkpt>
      <trkpt lat="47.34527" lon="6.3609">
        <ele>271.264</ele>
        <time>2016-09-05T14:52:11.203Z</time>
      </trkpt>
      <trkpt lat="47.34527" lon="6.3609">
        <ele>271.26</ele>
        <time>2016-09-05T14:52:12.276Z</time>
      </trkpt>
      <trkpt lat="47.34527" lon="6.3609">
        <ele>271.272</ele>
        <time>2016-09-05T14:52:13.258Z</time>
      </trkpt>
      <trkpt lat="47.34527" lon="6.3609">
        <ele>271.275</ele>
        <time>2016-09-05T14:52:14.353Z</time>
      </trkpt>
      <trkpt lat="47.34527" lon="6.3609">
        <ele>271.288</ele>
        <time>2016-09-05T14:52:15.454Z</time>
      </trkpt>
      <trkpt lat="47.34527" lon="6.3609">
        <ele>271.294</ele>
        <time>2016-09-05T14:52:16.289Z</time>
      </trkpt>
      <trkpt lat="47.34527" lon="6.3609">
        <ele>271.297</ele>
        <time>2016-09-05T14:52:17.188Z</time>
      </trkpt>
      <trkpt lat="47.34527" lon="6.3609">
        <ele>271.301</ele>
        <time>2016-09-05T14:52:18.200Z</time>
      </trkpt>
      <trkpt lat="47.34527" lon="6.3609">
        <ele>271.304</ele>
        <time>2016-09-05T14:52:19.255Z</time>
      </trkpt>
      <trkpt lat="47.34527" lon="6.3609">
        <ele>271.305</ele>
        <time>2016-09-05T14:52:20.252Z</time>
      </trkpt>
      <trkpt lat="47.34527" lon="6.3609">
        <ele>271.309</ele>
        <time>2016-09-05T14:52:21.262Z</time>
      </trkpt>
      <trkpt lat="47.34527" lon="6.3609">
        <ele>271.306</ele>
        <time>2016-09-05T14:52:22.276Z</time>
      </trkpt>
      <trkpt lat="47.34527" lon="6.3609">
        <ele>271.311</ele>
        <time>2016-09-05T14:52:23.194Z</time>
      </trkpt>
      <trkpt lat="47.34527" lon="6.3609">
        <ele>271.309</ele>
        <time>2016-09-05T14:52:24.186Z</time>
      </trkpt>
      <trkpt lat="47.34527" lon="6.3609">
        <ele>271.311</ele>
        <time>2016-09-05T14:52:25.192Z</time>
      </trkpt>
      <trkpt lat="47.34527" lon="6.3609">
        <ele>271.31</ele>
        <time>2016-09-05T14:52:26.175Z</time>
      </trkpt>
      <trkpt lat="47.34527" lon="6.3609">
        <ele>271.3</ele>
        <time>2016-09-05T14:52:27.187Z</time>
      </trkpt>
      <trkpt lat="47.34527" lon="6.3609">
        <ele>271.305</ele>
        <time>2016-09-05T14:52:28.312Z</time>
      </trkpt>
      <trkpt lat="47.34527" lon="6.3609">
        <ele>271.303</ele>
        <time>2016-09-05T14:52:29.304Z</time>
      </trkpt>
      <trkpt lat="47.34527" lon="6.3609">
        <ele>271.3</ele>
        <time>2016-09-05T14:52:30.192Z</time>
      </trkpt>
      <trkpt lat="47.34527" lon="6.3609">
        <ele>271.306</ele>
        <time>2016-09-05T14:52:31.191Z</time>
      </trkpt>
      <trkpt lat="47.34527" lon="6.3609">
        <ele>271.311</ele>
        <time>2016-09-05T14:52:32.178Z</time>
      </trkpt>
      <trkpt lat="47.34527" lon="6.3609">
        <ele>271.317</ele>
        <time>2016-09-05T14:52:33.195Z</time>
      </trkpt>
      <trkpt lat="47.34527" lon="6.3609">
        <ele>271.319</ele>
        <time>2016-09-05T14:52:34.216Z</time>
      </trkpt>
      <trkpt lat="47.34527" lon="6.3609">
        <ele>271.329</ele>
        <time>2016-09-05T14:52:35.229Z</time>
      </trkpt>
      <trkpt lat="47.34527" lon="6.3609">
        <ele>271.323</ele>
        <time>2016-09-05T14:52:36.210Z</time>
      </trkpt>
      <trkpt lat="47.34527" lon="6.3609">
        <ele>271.319</ele>
        <time>2016-09-05T14:52:37.292Z</time>
      </trkpt>
      <trkpt lat="47.34527" lon="6.3609">
        <ele>271.315</ele>
        <time>2016-09-05T14:52:38.290Z</time>
      </trkpt>
      <trkpt lat="47.34527" lon="6.3609">
        <ele>271.315</ele>
        <time>2016-09-05T14:52:39.195Z</time>
      </trkpt>
      <trkpt lat="47.34527" lon="6.3609">
        <ele>271.311</ele>
        <time>2016-09-05T14:52:40.191Z</time>
      </trkpt>
      <trkpt lat="47.34527" lon="6.3609">
        <ele>271.314</ele>
        <time>2016-09-05T14:52:41.210Z</time>
      </trkpt>
      <trkpt lat="47.34527" lon="6.3609">
        <ele>271.314</ele>
        <time>2016-09-05T14:52:42.202Z</time>
      </trkpt>
      <trkpt lat="47.34527" lon="6.3609">
        <ele>271.32</ele>
        <time>2016-09-05T14:52:43.211Z</time>
      </trkpt>
      <trkpt lat="47.34527" lon="6.3609">
        <ele>271.318</ele>
        <time>2016-09-05T14:52:44.354Z</time>
      </trkpt>
      <trkpt lat="47.34527" lon="6.3609">
        <ele>271.313</ele>
        <time>2016-09-05T14:52:45.353Z</time>
      </trkpt>
      <trkpt lat="47.34527" lon="6.3609">
        <ele>271.305</ele>
        <time>2016-09-05T14:52:46.356Z</time>
      </trkpt>
      <trkpt lat="47.34527" lon="6.3609">
        <ele>271.306</ele>
        <time>2016-09-05T14:52:47.457Z</time>
      </trkpt>
      <trkpt lat="47.34527" lon="6.3609">
        <ele>271.307</ele>
        <time>2016-09-05T14:52:48.277Z</time>
      </trkpt>
      <trkpt lat="47.34527" lon="6.3609">
        <ele>271.303</ele>
        <time>2016-09-05T14:52:49.196Z</time>
      </trkpt>
      <trkpt lat="47.34527" lon="6.3609">
        <ele>271.291</ele>
        <time>2016-09-05T14:52:50.191Z</time>
      </trkpt>
      <trkpt lat="47.34527" lon="6.3609">
        <ele>271.287</ele>
        <time>2016-09-05T14:52:51.207Z</time>
      </trkpt>
      <trkpt lat="47.34527" lon="6.3609">
        <ele>271.289</ele>
        <time>2016-09-05T14:52:52.185Z</time>
      </trkpt>
      <trkpt lat="47.34527" lon="6.3609">
        <ele>271.291</ele>
        <time>2016-09-05T14:52:53.311Z</time>
      </trkpt>
      <trkpt lat="47.34527" lon="6.3609">
        <ele>271.292</ele>
        <time>2016-09-05T14:52:54.319Z</time>
      </trkpt>
      <trkpt lat="47.34527" lon="6.3609">
        <ele>271.29</ele>
        <time>2016-09-05T14:52:55.195Z</time>
      </trkpt>
      <trkpt lat="47.34527" lon="6.3609">
        <ele>271.296</ele>
        <time>2016-09-05T14:52:56.198Z</time>
      </trkpt>
      <trkpt lat="47.34527" lon="6.3609">
        <ele>271.294</ele>
        <time>2016-09-05T14:52:57.197Z</time>
      </trkpt>
      <trkpt lat="47.34527" lon="6.3609">
        <ele>271.296</ele>
        <time>2016-09-05T14:52:58.204Z</time>
      </trkpt>
      <trkpt lat="47.34527" lon="6.3609">
        <ele>271.297</ele>
        <time>2016-09-05T14:52:59.194Z</time>
      </trkpt>
      <trkpt lat="47.34527" lon="6.3609">
        <ele>271.294</ele>
        <time>2016-09-05T14:53:00.332Z</time>
      </trkpt>
      <trkpt lat="47.34527" lon="6.3609">
        <ele>271.294</ele>
        <time>2016-09-05T14:53:01.339Z</time>
      </trkpt>
      <trkpt lat="47.34527" lon="6.3609">
        <ele>271.287</ele>
        <time>2016-09-05T14:53:02.242Z</time>
      </trkpt>
      <trkpt lat="47.34527" lon="6.3609">
        <ele>271.274</ele>
        <time>2016-09-05T14:53:03.245Z</time>
      </trkpt>
      <trkpt lat="47.34527" lon="6.3609">
        <ele>271.27</ele>
        <time>2016-09-05T14:53:04.186Z</time>
      </trkpt>
      <trkpt lat="47.34527" lon="6.3609">
        <ele>271.266</ele>
        <time>2016-09-05T14:53:05.196Z</time>
      </trkpt>
      <trkpt lat="47.34527" lon="6.3609">
        <ele>271.266</ele>
        <time>2016-09-05T14:53:06.196Z</time>
      </trkpt>
      <trkpt lat="47.34527" lon="6.3609">
        <ele>271.264</ele>
        <time>2016-09-05T14:53:07.191Z</time>
      </trkpt>
      <trkpt lat="47.34527" lon="6.3609">
        <ele>271.262</ele>
        <time>2016-09-05T14:53:08.181Z</time>
      </trkpt>
      <trkpt lat="47.34527" lon="6.3609">
        <ele>271.258</ele>
        <time>2016-09-05T14:53:09.280Z</time>
      </trkpt>
      <trkpt lat="47.34527" lon="6.3609">
        <ele>271.25</ele>
        <time>2016-09-05T14:53:10.293Z</time>
      </trkpt>
      <trkpt lat="47.34527" lon="6.3609">
        <ele>271.25</ele>
        <time>2016-09-05T14:53:11.198Z</time>
      </trkpt>
      <trkpt lat="47.34527" lon="6.3609">
        <ele>271.248</ele>
        <time>2016-09-05T14:53:12.171Z</time>
      </trkpt>
      <trkpt lat="47.34527" lon="6.3609">
        <ele>271.244</ele>
        <time>2016-09-05T14:53:13.180Z</time>
      </trkpt>
      <trkpt lat="47.34527" lon="6.3609">
        <ele>271.242</ele>
        <time>2016-09-05T14:53:14.181Z</time>
      </trkpt>
      <trkpt lat="47.34527" lon="6.3609">
        <ele>271.238</ele>
        <time>2016-09-05T14:53:15.189Z</time>
      </trkpt>
      <trkpt lat="47.34527" lon="6.3609">
        <ele>271.231</ele>
        <time>2016-09-05T14:53:16.321Z</time>
      </trkpt>
      <trkpt lat="47.34527" lon="6.3609">
        <ele>271.229</ele>
        <time>2016-09-05T14:53:17.330Z</time>
      </trkpt>
      <trkpt lat="47.34527" lon="6.3609">
        <ele>271.224</ele>
        <time>2016-09-05T14:53:18.250Z</time>
      </trkpt>
      <trkpt lat="47.34527" lon="6.3609">
        <ele>271.217</ele>
        <time>2016-09-05T14:53:19.241Z</time>
      </trkpt>
      <trkpt lat="47.34527" lon="6.3609">
        <ele>271.215</ele>
        <time>2016-09-05T14:53:20.177Z</time>
      </trkpt>
      <trkpt lat="47.34527" lon="6.3609">
        <ele>271.213</ele>
        <time>2016-09-05T14:53:21.202Z</time>
      </trkpt>
      <trkpt lat="47.34527" lon="6.3609">
        <ele>271.21</ele>
        <time>2016-09-05T14:53:22.184Z</time>
      </trkpt>
      <trkpt lat="47.34527" lon="6.3609">
        <ele>271.212</ele>
        <time>2016-09-05T14:53:23.178Z</time>
      </trkpt>
      <trkpt lat="47.34527" lon="6.3609">
        <ele>271.214</ele>
        <time>2016-09-05T14:53:24.177Z</time>
      </trkpt>
      <trkpt lat="47.34527" lon="6.3609">
        <ele>271.214</ele>
        <time>2016-09-05T14:53:25.328Z</time>
      </trkpt>
      <trkpt lat="47.34527" lon="6.3609">
        <ele>271.21</ele>
        <time>2016-09-05T14:53:26.323Z</time>
      </trkpt>
      <trkpt lat="47.34527" lon="6.3609">
        <ele>271.203</ele>
        <time>2016-09-05T14:53:27.176Z</time>
      </trkpt>
      <trkpt lat="47.34527" lon="6.3609">
        <ele>271.202</ele>
        <time>2016-09-05T14:53:28.191Z</time>
      </trkpt>
      <trkpt lat="47.34527" lon="6.3609">
        <ele>271.202</ele>
        <time>2016-09-05T14:53:29.181Z</time>
      </trkpt>
      <trkpt lat="47.34527" lon="6.3609">
        <ele>271.194</ele>
        <time>2016-09-05T14:53:30.172Z</time>
      </trkpt>
      <trkpt lat="47.34527" lon="6.3609">
        <ele>271.189</ele>
        <time>2016-09-05T14:53:31.196Z</time>
      </trkpt>
      <trkpt lat="47.34527" lon="6.3609">
        <ele>271.193</ele>
        <time>2016-09-05T14:53:32.228Z</time>
      </trkpt>
      <trkpt lat="47.34527" lon="6.3609">
        <ele>271.185</ele>
        <time>2016-09-05T14:53:33.246Z</time>
      </trkpt>
      <trkpt lat="47.34527" lon="6.3609">
        <ele>271.18</ele>
        <time>2016-09-05T14:53:34.230Z</time>
      </trkpt>
      <trkpt lat="47.34527" lon="6.3609">
        <ele>271.176</ele>
        <time>2016-09-05T14:53:35.246Z</time>
      </trkpt>
      <trkpt lat="47.34527" lon="6.3609">
        <ele>271.174</ele>
        <time>2016-09-05T14:53:36.186Z</time>
      </trkpt>
      <trkpt lat="47.34527" lon="6.3609">
        <ele>271.174</ele>
        <time>2016-09-05T14:53:37.183Z</time>
      </trkpt>
      <trkpt lat="47.34527" lon="6.3609">
        <ele>271.171</ele>
        <time>2016-09-05T14:53:38.189Z</time>
      </trkpt>
      <trkpt lat="47.34527" lon="6.3609">
        <ele>271.169</ele>
        <time>2016-09-05T14:53:39.186Z</time>
      </trkpt>
      <trkpt lat="47.34527" lon="6.3609">
        <ele>271.163</ele>
        <time>2016-09-05T14:53:40.183Z</time>
      </trkpt>
      <trkpt lat="47.34527" lon="6.3609">
        <ele>271.16</ele>
        <time>2016-09-05T14:53:41.317Z</time>
      </trkpt>
      <trkpt lat="47.34527" lon="6.3609">
        <ele>271.151</ele>
        <time>2016-09-05T14:53:42.317Z</time>
      </trkpt>
      <trkpt lat="47.34527" lon="6.3609">
        <ele>271.151</ele>
        <time>2016-09-05T14:53:43.193Z</time>
      </trkpt>
      <trkpt lat="47.34527" lon="6.3609">
        <ele>271.148</ele>
        <time>2016-09-05T14:53:44.183Z</time>
      </trkpt>
      <trkpt lat="47.34527" lon="6.3609">
        <ele>271.133</ele>
        <time>2016-09-05T14:53:45.185Z</time>
      </trkpt>
      <trkpt lat="47.34527" lon="6.3609">
        <ele>271.125</ele>
        <time>2016-09-05T14:53:46.179Z</time>
      </trkpt>
      <trkpt lat="47.34527" lon="6.3609">
        <ele>271.122</ele>
        <time>2016-09-05T14:53:47.187Z</time>
      </trkpt>
      <trkpt lat="47.34527" lon="6.3609">
        <ele>271.118</ele>
        <time>2016-09-05T14:53:48.274Z</time>
      </trkpt>
      <trkpt lat="47.34527" lon="6.3609">
        <ele>271.121</ele>
        <time>2016-09-05T14:53:49.281Z</time>
      </trkpt>
      <trkpt lat="47.34527" lon="6.3609">
        <ele>271.119</ele>
        <time>2016-09-05T14:53:50.233Z</time>
      </trkpt>
      <trkpt lat="47.34527" lon="6.3609">
        <ele>271.112</ele>
        <time>2016-09-05T14:53:51.246Z</time>
      </trkpt>
      <trkpt lat="47.34527" lon="6.3609">
        <ele>271.111</ele>
        <time>2016-09-05T14:53:52.187Z</time>
      </trkpt>
      <trkpt lat="47.34527" lon="6.3609">
        <ele>271.114</ele>
        <time>2016-09-05T14:53:53.184Z</time>
      </trkpt>
      <trkpt lat="47.34527" lon="6.3609">
        <ele>271.107</ele>
        <time>2016-09-05T14:53:54.177Z</time>
      </trkpt>
      <trkpt lat="47.34527" lon="6.3609">
        <ele>271.106</ele>
        <time>2016-09-05T14:53:55.198Z</time>
      </trkpt>
      <trkpt lat="47.34527" lon="6.3609">
        <ele>271.107</ele>
        <time>2016-09-05T14:53:56.195Z</time>
      </trkpt>
      <trkpt lat="47.34527" lon="6.3609">
        <ele>271.101</ele>
        <time>2016-09-05T14:53:57.326Z</time>
      </trkpt>
      <trkpt lat="47.34527" lon="6.3609">
        <ele>271.097</ele>
        <time>2016-09-05T14:53:58.319Z</time>
      </trkpt>
      <trkpt lat="47.34527" lon="6.3609">
        <ele>271.096</ele>
        <time>2016-09-05T14:53:59.187Z</time>
      </trkpt>
      <trkpt lat="47.34527" lon="6.3609">
        <ele>271.094</ele>
        <time>2016-09-05T14:54:00.184Z</time>
      </trkpt>
      <trkpt lat="47.34527" lon="6.3609">
        <ele>271.09</ele>
        <time>2016-09-05T14:54:01.207Z</time>
      </trkpt>
      <trkpt lat="47.34527" lon="6.3609">
        <ele>271.081</ele>
        <time>2016-09-05T14:54:02.196Z</time>
      </trkpt>
      <trkpt lat="47.34527" lon="6.3609">
        <ele>271.077</ele>
        <time>2016-09-05T14:54:03.199Z</time>
      </trkpt>
      <trkpt lat="47.34527" lon="6.3609">
        <ele>271.072</ele>
        <time>2016-09-05T14:54:04.283Z</time>
      </trkpt>
      <trkpt lat="47.34527" lon="6.3609">
        <ele>271.07</ele>
        <time>2016-09-05T14:54:05.293Z</time>
      </trkpt>
      <trkpt lat="47.34527" lon="6.3609">
        <ele>271.059</ele>
        <time>2016-09-05T14:54:06.185Z</time>
      </trkpt>
      <trkpt lat="47.34527" lon="6.3609">
        <ele>271.054</ele>
        <time>2016-09-05T14:54:07.181Z</time>
      </trkpt>
      <trkpt lat="47.34527" lon="6.3609">
        <ele>271.05</ele>
        <time>2016-09-05T14:54:08.186Z</time>
      </trkpt>
      <trkpt lat="47.34527" lon="6.3609">
        <ele>271.054</ele>
        <time>2016-09-05T14:54:09.176Z</time>
      </trkpt>
      <trkpt lat="47.34527" lon="6.3609">
        <ele>271.048</ele>
        <time>2016-09-05T14:54:10.184Z</time>
      </trkpt>
      <trkpt lat="47.34527" lon="6.3609">
        <ele>271.044</ele>
        <time>2016-09-05T14:54:11.203Z</time>
      </trkpt>
      <trkpt lat="47.34527" lon="6.3609">
        <ele>271.05</ele>
        <time>2016-09-05T14:54:12.203Z</time>
      </trkpt>
      <trkpt lat="47.34527" lon="6.3609">
        <ele>271.052</ele>
        <time>2016-09-05T14:54:13.376Z</time>
      </trkpt>
      <trkpt lat="47.34527" lon="6.3609">
        <ele>271.057</ele>
        <time>2016-09-05T14:54:14.347Z</time>
      </trkpt>
      <trkpt lat="47.34527" lon="6.3609">
        <ele>271.053</ele>
        <time>2016-09-05T14:54:15.185Z</time>
      </trkpt>
      <trkpt lat="47.34527" lon="6.3609">
        <ele>271.052</ele>
        <time>2016-09-05T14:54:16.178Z</time>
      </trkpt>
      <trkpt lat="47.34527" lon="6.3609">
        <ele>271.051</ele>
        <time>2016-09-05T14:54:17.187Z</time>
      </trkpt>
      <trkpt lat="47.34527" lon="6.3609">
        <ele>271.051</ele>
        <time>2016-09-05T14:54:18.183Z</time>
      </trkpt>
      <trkpt lat="47.34527" lon="6.3609">
        <ele>271.046</ele>
        <time>2016-09-05T14:54:19.173Z</time>
      </trkpt>
      <trkpt lat="47.34527" lon="6.3609">
        <ele>271.047</ele>
        <time>2016-09-05T14:54:20.203Z</time>
      </trkpt>
      <trkpt lat="47.34527" lon="6.3609">
        <ele>271.055</ele>
        <time>2016-09-05T14:54:21.206Z</time>
      </trkpt>
      <trkpt lat="47.34527" lon="6.3609">
        <ele>271.061</ele>
        <time>2016-09-05T14:54:22.188Z</time>
      </trkpt>
      <trkpt lat="47.34527" lon="6.3609">
        <ele>271.068</ele>
        <time>2016-09-05T14:54:23.195Z</time>
      </trkpt>
      <trkpt lat="47.34527" lon="6.3609">
        <ele>271.07</ele>
        <time>2016-09-05T14:54:24.189Z</time>
      </trkpt>
      <trkpt lat="47.34527" lon="6.3609">
        <ele>271.069</ele>
        <time>2016-09-05T14:54:25.186Z</time>
      </trkpt>
      <trkpt lat="47.34527" lon="6.3609">
        <ele>271.075</ele>
        <time>2016-09-05T14:54:26.187Z</time>
      </trkpt>
      <trkpt lat="47.34527" lon="6.3609">
        <ele>271.086</ele>
        <time>2016-09-05T14:54:27.220Z</time>
      </trkpt>
      <trkpt lat="47.34527" lon="6.3609">
        <ele>271.089</ele>
        <time>2016-09-05T14:54:28.206Z</time>
      </trkpt>
      <trkpt lat="47.34527" lon="6.3609">
        <ele>271.096</ele>
        <time>2016-09-05T14:54:29.314Z</time>
      </trkpt>
      <trkpt lat="47.34527" lon="6.3609">
        <ele>271.098</ele>
        <time>2016-09-05T14:54:30.320Z</time>
      </trkpt>
      <trkpt lat="47.34527" lon="6.3609">
        <ele>271.101</ele>
        <time>2016-09-05T14:54:31.207Z</time>
      </trkpt>
      <trkpt lat="47.34527" lon="6.3609">
        <ele>271.102</ele>
        <time>2016-09-05T14:54:32.191Z</time>
      </trkpt>
      <trkpt lat="47.34527" lon="6.3609">
        <ele>271.105</ele>
        <time>2016-09-05T14:54:33.228Z</time>
      </trkpt>
      <trkpt lat="47.34527" lon="6.3609">
        <ele>271.103</ele>
        <time>2016-09-05T14:54:34.186Z</time>
      </trkpt>
      <trkpt lat="47.34527" lon="6.3609">
        <ele>271.11</ele>
        <time>2016-09-05T14:54:35.186Z</time>
      </trkpt>
      <trkpt lat="47.34527" lon="6.3609">
        <ele>271.11</ele>
        <time>2016-09-05T14:54:36.287Z</time>
      </trkpt>
      <trkpt lat="47.34527" lon="6.3609">
        <ele>271.111</ele>
        <time>2016-09-05T14:54:37.288Z</time>
      </trkpt>
      <trkpt lat="47.34527" lon="6.3609">
        <ele>271.113</ele>
        <time>2016-09-05T14:54:38.239Z</time>
      </trkpt>
      <trkpt lat="47.34527" lon="6.3609">
        <ele>271.12</ele>
        <time>2016-09-05T14:54:39.241Z</time>
      </trkpt>
      <trkpt lat="47.34527" lon="6.3609">
        <ele>271.129</ele>
        <time>2016-09-05T14:54:40.184Z</time>
      </trkpt>
      <trkpt lat="47.34527" lon="6.3609">
        <ele>271.131</ele>
        <time>2016-09-05T14:54:41.193Z</time>
      </trkpt>
      <trkpt lat="47.34527" lon="6.3609">
        <ele>271.136</ele>
        <time>2016-09-05T14:54:42.187Z</time>
      </trkpt>
      <trkpt lat="47.34527" lon="6.3609">
        <ele>271.135</ele>
        <time>2016-09-05T14:54:43.190Z</time>
      </trkpt>
      <trkpt lat="47.34527" lon="6.3609">
        <ele>271.139</ele>
        <time>2016-09-05T14:54:44.189Z</time>
      </trkpt>
      <trkpt lat="47.34527" lon="6.3609">
        <ele>271.142</ele>
        <time>2016-09-05T14:54:45.353Z</time>
      </trkpt>
      <trkpt lat="47.34527" lon="6.3609">
        <ele>271.144</ele>
        <time>2016-09-05T14:54:46.369Z</time>
      </trkpt>
      <trkpt lat="47.34527" lon="6.3609">
        <ele>271.138</ele>
        <time>2016-09-05T14:54:47.186Z</time>
      </trkpt>
      <trkpt lat="47.34527" lon="6.3609">
        <ele>271.134</ele>
        <time>2016-09-05T14:54:48.188Z</time>
      </trkpt>
      <trkpt lat="47.34527" lon="6.3609">
        <ele>271.127</ele>
        <time>2016-09-05T14:54:49.176Z</time>
      </trkpt>
      <trkpt lat="47.34527" lon="6.3609">
        <ele>271.125</ele>
        <time>2016-09-05T14:54:50.180Z</time>
      </trkpt>
      <trkpt lat="47.34527" lon="6.3609">
        <ele>271.123</ele>
        <time>2016-09-05T14:54:51.200Z</time>
      </trkpt>
      <trkpt lat="47.34527" lon="6.3609">
        <ele>271.124</ele>
        <time>2016-09-05T14:54:52.263Z</time>
      </trkpt>
      <trkpt lat="47.34527" lon="6.3609">
        <ele>271.12</ele>
        <time>2016-09-05T14:54:53.272Z</time>
      </trkpt>
      <trkpt lat="47.34527" lon="6.3609">
        <ele>271.118</ele>
        <time>2016-09-05T14:54:54.172Z</time>
      </trkpt>
      <trkpt lat="47.34527" lon="6.3609">
        <ele>271.11</ele>
        <time>2016-09-05T14:54:55.186Z</time>
      </trkpt>
      <trkpt lat="47.34527" lon="6.3609">
        <ele>271.107</ele>
        <time>2016-09-05T14:54:56.185Z</time>
      </trkpt>
      <trkpt lat="47.34527" lon="6.3609">
        <ele>271.102</ele>
        <time>2016-09-05T14:54:57.192Z</time>
      </trkpt>
      <trkpt lat="47.34527" lon="6.3609">
        <ele>271.098</ele>
        <time>2016-09-05T14:54:58.190Z</time>
      </trkpt>
      <trkpt lat="47.34527" lon="6.3609">
        <ele>271.094</ele>
        <time>2016-09-05T14:54:59.203Z</time>
      </trkpt>
      <trkpt lat="47.34527" lon="6.3609">
        <ele>271.093</ele>
        <time>2016-09-05T14:55:00.201Z</time>
      </trkpt>
      <trkpt lat="47.34527" lon="6.3609">
        <ele>271.093</ele>
        <time>2016-09-05T14:55:01.321Z</time>
      </trkpt>
      <trkpt lat="47.34527" lon="6.3609">
        <ele>271.091</ele>
        <time>2016-09-05T14:55:02.325Z</time>
      </trkpt>
      <trkpt lat="47.34527" lon="6.3609">
        <ele>271.094</ele>
        <time>2016-09-05T14:55:03.190Z</time>
      </trkpt>
      <trkpt lat="47.34527" lon="6.3609">
        <ele>271.095</ele>
        <time>2016-09-05T14:55:04.171Z</time>
      </trkpt>
      <trkpt lat="47.34527" lon="6.3609">
        <ele>271.093</ele>
        <time>2016-09-05T14:55:05.175Z</time>
      </trkpt>
      <trkpt lat="47.34527" lon="6.3609">
        <ele>271.094</ele>
        <time>2016-09-05T14:55:06.183Z</time>
      </trkpt>
      <trkpt lat="47.34527" lon="6.3609">
        <ele>271.087</ele>
        <time>2016-09-05T14:55:07.188Z</time>
      </trkpt>
      <trkpt lat="47.34527" lon="6.3609">
        <ele>271.088</ele>
        <time>2016-09-05T14:55:08.307Z</time>
      </trkpt>
      <trkpt lat="47.34527" lon="6.3609">
        <ele>271.089</ele>
        <time>2016-09-05T14:55:09.306Z</time>
      </trkpt>
      <trkpt lat="47.34527" lon="6.3609">
        <ele>271.078</ele>
        <time>2016-09-05T14:55:10.248Z</time>
      </trkpt>
      <trkpt lat="47.34527" lon="6.3609">
        <ele>271.07</ele>
        <time>2016-09-05T14:55:11.256Z</time>
      </trkpt>
      <trkpt lat="47.34527" lon="6.3609">
        <ele>271.067</ele>
        <time>2016-09-05T14:55:12.196Z</time>
      </trkpt>
      <trkpt lat="47.34527" lon="6.3609">
        <ele>271.058</ele>
        <time>2016-09-05T14:55:13.201Z</time>
      </trkpt>
      <trkpt lat="47.34527" lon="6.3609">
        <ele>271.062</ele>
        <time>2016-09-05T14:55:14.199Z</time>
      </trkpt>
      <trkpt lat="47.34527" lon="6.3609">
        <ele>271.065</ele>
        <time>2016-09-05T14:55:15.186Z</time>
      </trkpt>
      <trkpt lat="47.34527" lon="6.3609">
        <ele>271.053</ele>
        <time>2016-09-05T14:55:16.190Z</time>
      </trkpt>
      <trkpt lat="47.34527" lon="6.3609">
        <ele>271.059</ele>
        <time>2016-09-05T14:55:17.253Z</time>
      </trkpt>
      <trkpt lat="47.34527" lon="6.3609">
        <ele>271.056</ele>
        <time>2016-09-05T14:55:18.255Z</time>
      </trkpt>
      <trkpt lat="47.34527" lon="6.3609">
        <ele>271.059</ele>
        <time>2016-09-05T14:55:19.177Z</time>
      </trkpt>
      <trkpt lat="47.34527" lon="6.3609">
        <ele>271.05</ele>
        <time>2016-09-05T14:55:20.192Z</time>
      </trkpt>
      <trkpt lat="47.34527" lon="6.3609">
        <ele>271.043</ele>
        <time>2016-09-05T14:55:21.189Z</time>
      </trkpt>
      <trkpt lat="47.34527" lon="6.3609">
        <ele>271.038</ele>
        <time>2016-09-05T14:55:22.195Z</time>
      </trkpt>
      <trkpt lat="47.34527" lon="6.3609">
        <ele>271.042</ele>
        <time>2016-09-05T14:55:23.202Z</time>
      </trkpt>
      <trkpt lat="47.34527" lon="6.3609">
        <ele>271.045</ele>
        <time>2016-09-05T14:55:24.327Z</time>
      </trkpt>
      <trkpt lat="47.34527" lon="6.3609">
        <ele>271.048</ele>
        <time>2016-09-05T14:55:25.326Z</time>
      </trkpt>
      <trkpt lat="47.34527" lon="6.3609">
        <ele>271.045</ele>
        <time>2016-09-05T14:55:26.190Z</time>
      </trkpt>
      <trkpt lat="47.34527" lon="6.3609">
        <ele>271.041</ele>
        <time>2016-09-05T14:55:27.182Z</time>
      </trkpt>
      <trkpt lat="47.34527" lon="6.3609">
        <ele>271.037</ele>
        <time>2016-09-05T14:55:28.195Z</time>
      </trkpt>
      <trkpt lat="47.34527" lon="6.3609">
        <ele>271.039</ele>
        <time>2016-09-05T14:55:29.190Z</time>
      </trkpt>
      <trkpt lat="47.34527" lon="6.3609">
        <ele>271.04</ele>
        <time>2016-09-05T14:55:30.196Z</time>
      </trkpt>
      <trkpt lat="47.34527" lon="6.3609">
        <ele>271.036</ele>
        <time>2016-09-05T14:55:31.201Z</time>
      </trkpt>
      <trkpt lat="47.34527" lon="6.3609">
        <ele>271.043</ele>
        <time>2016-09-05T14:55:32.194Z</time>
      </trkpt>
      <trkpt lat="47.34527" lon="6.3609">
        <ele>271.049</ele>
        <time>2016-09-05T14:55:33.327Z</time>
      </trkpt>
      <trkpt lat="47.34527" lon="6.3609">
        <ele>271.06</ele>
        <time>2016-09-05T14:55:34.328Z</time>
      </trkpt>
      <trkpt lat="47.34527" lon="6.3609">
        <ele>271.063</ele>
        <time>2016-09-05T14:55:35.193Z</time>
      </trkpt>
      <trkpt lat="47.34527" lon="6.3609">
        <ele>271.061</ele>
        <time>2016-09-05T14:55:36.195Z</time>
      </trkpt>
      <trkpt lat="47.34527" lon="6.3609">
        <ele>271.062</ele>
        <time>2016-09-05T14:55:37.206Z</time>
      </trkpt>
      <trkpt lat="47.34527" lon="6.3609">
        <ele>271.067</ele>
        <time>2016-09-05T14:55:38.191Z</time>
      </trkpt>
      <trkpt lat="47.34527" lon="6.3609">
        <ele>271.067</ele>
        <time>2016-09-05T14:55:39.184Z</time>
      </trkpt>
      <trkpt lat="47.34527" lon="6.3609">
        <ele>271.074</ele>
        <time>2016-09-05T14:55:40.319Z</time>
      </trkpt>
      <trkpt lat="47.34527" lon="6.3609">
        <ele>271.075</ele>
        <time>2016-09-05T14:55:41.332Z</time>
      </trkpt>
      <trkpt lat="47.34527" lon="6.3609">
        <ele>271.079</ele>
        <time>2016-09-05T14:55:42.276Z</time>
      </trkpt>
      <trkpt lat="47.34527" lon="6.3609">
        <ele>271.089</ele>
        <time>2016-09-05T14:55:43.290Z</time>
      </trkpt>
      <trkpt lat="47.3453" lon="6.36093">
        <ele>270.805</ele>
        <time>2016-09-05T14:55:44.193Z</time>
      </trkpt>
      <trkpt lat="47.3453" lon="6.36093">
        <ele>269.906</ele>
        <time>2016-09-05T14:55:45.205Z</time>
      </trkpt>
      <trkpt lat="47.3453" lon="6.36094">
        <ele>270.084</ele>
        <time>2016-09-05T14:55:46.203Z</time>
      </trkpt>
      <trkpt lat="47.34531" lon="6.36096">
        <ele>270.179</ele>
        <time>2016-09-05T14:55:47.258Z</time>
      </trkpt>
      <trkpt lat="47.34531" lon="6.36096">
        <ele>269.799</ele>
        <time>2016-09-05T14:55:48.243Z</time>
      </trkpt>
      <trkpt lat="47.34532" lon="6.36096">
        <ele>270.228</ele>
        <time>2016-09-05T14:55:49.373Z</time>
      </trkpt>
      <trkpt lat="47.34532" lon="6.36095">
        <ele>270.449</ele>
        <time>2016-09-05T14:55:50.368Z</time>
      </trkpt>
      <trkpt lat="47.34532" lon="6.36095">
        <ele>270.067</ele>
        <time>2016-09-05T14:55:51.198Z</time>
      </trkpt>
      <trkpt lat="47.34532" lon="6.36094">
        <ele>267.783</ele>
        <time>2016-09-05T14:55:52.194Z</time>
      </trkpt>
      <trkpt lat="47.34532" lon="6.36093">
        <ele>267.588</ele>
        <time>2016-09-05T14:55:53.194Z</time>
      </trkpt>
      <trkpt lat="47.34532" lon="6.36093">
        <ele>267.471</ele>
        <time>2016-09-05T14:55:54.191Z</time>
      </trkpt>
      <trkpt lat="47.34532" lon="6.36093">
        <ele>267.496</ele>
        <time>2016-09-05T14:55:55.184Z</time>
      </trkpt>
      <trkpt lat="47.34532" lon="6.36091">
        <ele>265.191</ele>
        <time>2016-09-05T14:55:56.318Z</time>
      </trkpt>
      <trkpt lat="47.34533" lon="6.36091">
        <ele>265.086</ele>
        <time>2016-09-05T14:55:57.328Z</time>
      </trkpt>
      <trkpt lat="47.34533" lon="6.36089">
        <ele>265.07</ele>
        <time>2016-09-05T14:55:58.369Z</time>
      </trkpt>
      <trkpt lat="47.34534" lon="6.36088">
        <ele>264.921</ele>
        <time>2016-09-05T14:55:59.486Z</time>
      </trkpt>
      <trkpt lat="47.34534" lon="6.36086">
        <ele>265.372</ele>
        <time>2016-09-05T14:56:00.297Z</time>
      </trkpt>
      <trkpt lat="47.34534" lon="6.36084">
        <ele>265.966</ele>
        <time>2016-09-05T14:56:01.204Z</time>
      </trkpt>
      <trkpt lat="47.34533" lon="6.36082">
        <ele>266.116</ele>
        <time>2016-09-05T14:56:02.204Z</time>
      </trkpt>
      <trkpt lat="47.34533" lon="6.36081">
        <ele>264.673</ele>
        <time>2016-09-05T14:56:03.260Z</time>
      </trkpt>
      <trkpt lat="47.34533" lon="6.36079">
        <ele>264.761</ele>
        <time>2016-09-05T14:56:04.243Z</time>
      </trkpt>
      <trkpt lat="47.34531" lon="6.36077">
        <ele>265.042</ele>
        <time>2016-09-05T14:56:05.277Z</time>
      </trkpt>
      <trkpt lat="47.3453" lon="6.36075">
        <ele>265.054</ele>
        <time>2016-09-05T14:56:06.273Z</time>
      </trkpt>
      <trkpt lat="47.34529" lon="6.36072">
        <ele>265.013</ele>
        <time>2016-09-05T14:56:07.179Z</time>
      </trkpt>
      <trkpt lat="47.34529" lon="6.36069">
        <ele>265.201</ele>
        <time>2016-09-05T14:56:08.179Z</time>
      </trkpt>
      <trkpt lat="47.34528" lon="6.36065">
        <ele>265.875</ele>
        <time>2016-09-05T14:56:09.188Z</time>
      </trkpt>
      <trkpt lat="47.34528" lon="6.36062">
        <ele>266.209</ele>
        <time>2016-09-05T14:56:10.191Z</time>
      </trkpt>
      <trkpt lat="47.34528" lon="6.36058">
        <ele>264.747</ele>
        <time>2016-09-05T14:56:11.223Z</time>
      </trkpt>
      <trkpt lat="47.34528" lon="6.36055">
        <ele>264.572</ele>
        <time>2016-09-05T14:56:12.321Z</time>
      </trkpt>
      <trkpt lat="47.34528" lon="6.3605">
        <ele>264.915</ele>
        <time>2016-09-05T14:56:13.328Z</time>
      </trkpt>
      <trkpt lat="47.34527" lon="6.36046">
        <ele>264.515</ele>
        <time>2016-09-05T14:56:14.245Z</time>
      </trkpt>
      <trkpt lat="47.34527" lon="6.36041">
        <ele>264.22</ele>
        <time>2016-09-05T14:56:15.262Z</time>
      </trkpt>
      <trkpt lat="47.34527" lon="6.36037">
        <ele>264.863</ele>
        <time>2016-09-05T14:56:16.195Z</time>
      </trkpt>
      <trkpt lat="47.34526" lon="6.36033">
        <ele>265.97</ele>
        <time>2016-09-05T14:56:17.206Z</time>
      </trkpt>
      <trkpt lat="47.34526" lon="6.36029">
        <ele>265.715</ele>
        <time>2016-09-05T14:56:18.313Z</time>
      </trkpt>
      <trkpt lat="47.34525" lon="6.36025">
        <ele>265.752</ele>
        <time>2016-09-05T14:56:19.474Z</time>
      </trkpt>
      <trkpt lat="47.34524" lon="6.36021">
        <ele>265.563</ele>
        <time>2016-09-05T14:56:20.363Z</time>
      </trkpt>
      <trkpt lat="47.34523" lon="6.36017">
        <ele>264.258</ele>
        <time>2016-09-05T14:56:21.363Z</time>
      </trkpt>
      <trkpt lat="47.34522" lon="6.36014">
        <ele>264.422</ele>
        <time>2016-09-05T14:56:22.362Z</time>
      </trkpt>
      <trkpt lat="47.34521" lon="6.3601">
        <ele>264.529</ele>
        <time>2016-09-05T14:56:23.341Z</time>
      </trkpt>
      <trkpt lat="47.34521" lon="6.36006">
        <ele>264.28</ele>
        <time>2016-09-05T14:56:24.439Z</time>
      </trkpt>
      <trkpt lat="47.34522" lon="6.36001">
        <ele>264.573</ele>
        <time>2016-09-05T14:56:25.294Z</time>
      </trkpt>
      <trkpt lat="47.34524" lon="6.35997">
        <ele>264.606</ele>
        <time>2016-09-05T14:56:26.194Z</time>
      </trkpt>
      <trkpt lat="47.34526" lon="6.35994">
        <ele>264.11</ele>
        <time>2016-09-05T14:56:27.199Z</time>
      </trkpt>
      <trkpt lat="47.34528" lon="6.35991">
        <ele>264.485</ele>
        <time>2016-09-05T14:56:28.340Z</time>
      </trkpt>
      <trkpt lat="47.34531" lon="6.35988">
        <ele>264.078</ele>
        <time>2016-09-05T14:56:29.360Z</time>
      </trkpt>
      <trkpt lat="47.34533" lon="6.35985">
        <ele>263.963</ele>
        <time>2016-09-05T14:56:30.251Z</time>
      </trkpt>
      <trkpt lat="47.34535" lon="6.35983">
        <ele>263.276</ele>
        <time>2016-09-05T14:56:31.264Z</time>
      </trkpt>
      <trkpt lat="47.34537" lon="6.3598">
        <ele>263.871</ele>
        <time>2016-09-05T14:56:32.200Z</time>
      </trkpt>
      <trkpt lat="47.34538" lon="6.35976">
        <ele>264.485</ele>
        <time>2016-09-05T14:56:33.197Z</time>
      </trkpt>
      <trkpt lat="47.34539" lon="6.35972">
        <ele>265.022</ele>
        <time>2016-09-05T14:56:34.193Z</time>
      </trkpt>
      <trkpt lat="47.34538" lon="6.35968">
        <ele>265.233</ele>
        <time>2016-09-05T14:56:35.227Z</time>
      </trkpt>
      <trkpt lat="47.34538" lon="6.35968">
        <ele>265.233</ele>
        <time>2016-09-05T14:56:35.617Z</time>
      </trkpt>
      <trkpt lat="47.34537" lon="6.35964">
        <ele>265.541</ele>
        <time>2016-09-05T14:56:36.240Z</time>
      </trkpt>
      <trkpt lat="47.34534" lon="6.3596">
        <ele>264.438</ele>
        <time>2016-09-05T14:56:37.290Z</time>
      </trkpt>
      <trkpt lat="47.34532" lon="6.35957">
        <ele>264.197</ele>
        <time>2016-09-05T14:56:38.297Z</time>
      </trkpt>
      <trkpt lat="47.34528" lon="6.35954">
        <ele>263.604</ele>
        <time>2016-09-05T14:56:39.201Z</time>
      </trkpt>
      <trkpt lat="47.34525" lon="6.35953">
        <ele>263.747</ele>
        <time>2016-09-05T14:56:40.199Z</time>
      </trkpt>
      <trkpt lat="47.34521" lon="6.35952">
        <ele>264.022</ele>
        <time>2016-09-05T14:56:41.219Z</time>
      </trkpt>
      <trkpt lat="47.34516" lon="6.35952">
        <ele>264.392</ele>
        <time>2016-09-05T14:56:42.211Z</time>
      </trkpt>
      <trkpt lat="47.34512" lon="6.35953">
        <ele>264.797</ele>
        <time>2016-09-05T14:56:43.209Z</time>
      </trkpt>
      <trkpt lat="47.34508" lon="6.35954">
        <ele>264.596</ele>
        <time>2016-09-05T14:56:44.354Z</time>
      </trkpt>
      <trkpt lat="47.34504" lon="6.35955">
        <ele>264.685</ele>
        <time>2016-09-05T14:56:45.365Z</time>
      </trkpt>
      <trkpt lat="47.34501" lon="6.35956">
        <ele>264.399</ele>
        <time>2016-09-05T14:56:46.307Z</time>
      </trkpt>
      <trkpt lat="47.34497" lon="6.35956">
        <ele>264.354</ele>
        <time>2016-09-05T14:56:47.307Z</time>
      </trkpt>
      <trkpt lat="47.34493" lon="6.35956">
        <ele>264.545</ele>
        <time>2016-09-05T14:56:48.208Z</time>
      </trkpt>
      <trkpt lat="47.34488" lon="6.35956">
        <ele>265.092</ele>
        <time>2016-09-05T14:56:49.202Z</time>
      </trkpt>
      <trkpt lat="47.34484" lon="6.35956">
        <ele>263.234</ele>
        <time>2016-09-05T14:56:50.209Z</time>
      </trkpt>
      <trkpt lat="47.3448" lon="6.35956">
        <ele>264.269</ele>
        <time>2016-09-05T14:56:51.278Z</time>
      </trkpt>
      <trkpt lat="47.34476" lon="6.35956">
        <ele>264.605</ele>
        <time>2016-09-05T14:56:52.263Z</time>
      </trkpt>
      <trkpt lat="47.34472" lon="6.35957">
        <ele>264.534</ele>
        <time>2016-09-05T14:56:53.368Z</time>
      </trkpt>
      <trkpt lat="47.34469" lon="6.35958">
        <ele>267.089</ele>
        <time>2016-09-05T14:56:54.375Z</time>
      </trkpt>
      <trkpt lat="47.34465" lon="6.35959">
        <ele>267.883</ele>
        <time>2016-09-05T14:56:55.194Z</time>
      </trkpt>
      <trkpt lat="47.34462" lon="6.3596">
        <ele>268.213</ele>
        <time>2016-09-05T14:56:56.191Z</time>
      </trkpt>
      <trkpt lat="47.34459" lon="6.3596">
        <ele>265.947</ele>
        <time>2016-09-05T14:56:57.187Z</time>
      </trkpt>
      <trkpt lat="47.34455" lon="6.35961">
        <ele>266.219</ele>
        <time>2016-09-05T14:56:58.185Z</time>
      </trkpt>
      <trkpt lat="47.34451" lon="6.35962">
        <ele>267.984</ele>
        <time>2016-09-05T14:56:59.209Z</time>
      </trkpt>
      <trkpt lat="47.34448" lon="6.35964">
        <ele>266.673</ele>
        <time>2016-09-05T14:57:00.329Z</time>
      </trkpt>
      <trkpt lat="47.34445" lon="6.35964">
        <ele>266.738</ele>
        <time>2016-09-05T14:57:01.333Z</time>
      </trkpt>
      <trkpt lat="47.34441" lon="6.35965">
        <ele>267.12</ele>
        <time>2016-09-05T14:57:02.200Z</time>
      </trkpt>
      <trkpt lat="47.34438" lon="6.35965">
        <ele>267.343</ele>
        <time>2016-09-05T14:57:03.153Z</time>
      </trkpt>
      <trkpt lat="47.34435" lon="6.35965">
        <ele>267.058</ele>
        <time>2016-09-05T14:57:04.200Z</time>
      </trkpt>
      <trkpt lat="47.34432" lon="6.35964">
        <ele>267.331</ele>
        <time>2016-09-05T14:57:05.234Z</time>
      </trkpt>
      <trkpt lat="47.34428" lon="6.35963">
        <ele>267.516</ele>
        <time>2016-09-05T14:57:06.187Z</time>
      </trkpt>
      <trkpt lat="47.34425" lon="6.35961">
        <ele>270.455</ele>
        <time>2016-09-05T14:57:07.247Z</time>
      </trkpt>
      <trkpt lat="47.34422" lon="6.3596">
        <ele>269.129</ele>
        <time>2016-09-05T14:57:08.245Z</time>
      </trkpt>
      <trkpt lat="47.34418" lon="6.35958">
        <ele>268.98</ele>
        <time>2016-09-05T14:57:09.354Z</time>
      </trkpt>
      <trkpt lat="47.34414" lon="6.35956">
        <ele>268.589</ele>
        <time>2016-09-05T14:57:10.369Z</time>
      </trkpt>
      <trkpt lat="47.3441" lon="6.35954">
        <ele>267.608</ele>
        <time>2016-09-05T14:57:11.227Z</time>
      </trkpt>
      <trkpt lat="47.34407" lon="6.35952">
        <ele>269.247</ele>
        <time>2016-09-05T14:57:12.200Z</time>
      </trkpt>
      <trkpt lat="47.34402" lon="6.3595">
        <ele>270.224</ele>
        <time>2016-09-05T14:57:13.204Z</time>
      </trkpt>
      <trkpt lat="47.34398" lon="6.35949">
        <ele>271.046</ele>
        <time>2016-09-05T14:57:14.209Z</time>
      </trkpt>
      <trkpt lat="47.34395" lon="6.35947">
        <ele>270.527</ele>
        <time>2016-09-05T14:57:15.218Z</time>
      </trkpt>
      <trkpt lat="47.34391" lon="6.35945">
        <ele>269.289</ele>
        <time>2016-09-05T14:57:16.375Z</time>
      </trkpt>
      <trkpt lat="47.34388" lon="6.35942">
        <ele>269.692</ele>
        <time>2016-09-05T14:57:17.376Z</time>
      </trkpt>
      <trkpt lat="47.34384" lon="6.35938">
        <ele>269.364</ele>
        <time>2016-09-05T14:57:18.342Z</time>
      </trkpt>
      <trkpt lat="47.34381" lon="6.35934">
        <ele>267.716</ele>
        <time>2016-09-05T14:57:19.428Z</time>
      </trkpt>
      <trkpt lat="47.34378" lon="6.3593">
        <ele>267.486</ele>
        <time>2016-09-05T14:57:20.395Z</time>
      </trkpt>
      <trkpt lat="47.34376" lon="6.35926">
        <ele>264.174</ele>
        <time>2016-09-05T14:57:21.516Z</time>
      </trkpt>
      <trkpt lat="47.34373" lon="6.35922">
        <ele>264.516</ele>
        <time>2016-09-05T14:57:22.384Z</time>
      </trkpt>
      <trkpt lat="47.3437" lon="6.35918">
        <ele>260.93</ele>
        <time>2016-09-05T14:57:23.200Z</time>
      </trkpt>
      <trkpt lat="47.34367" lon="6.35914">
        <ele>260.846</ele>
        <time>2016-09-05T14:57:24.195Z</time>
      </trkpt>
      <trkpt lat="47.34365" lon="6.3591">
        <ele>263.564</ele>
        <time>2016-09-05T14:57:25.325Z</time>
      </trkpt>
      <trkpt lat="47.34362" lon="6.35906">
        <ele>263.118</ele>
        <time>2016-09-05T14:57:26.362Z</time>
      </trkpt>
      <trkpt lat="47.34359" lon="6.35902">
        <ele>265.181</ele>
        <time>2016-09-05T14:57:27.350Z</time>
      </trkpt>
      <trkpt lat="47.34356" lon="6.35898">
        <ele>263.165</ele>
        <time>2016-09-05T14:57:28.462Z</time>
      </trkpt>
      <trkpt lat="47.34353" lon="6.35894">
        <ele>263.545</ele>
        <time>2016-09-05T14:57:29.299Z</time>
      </trkpt>
      <trkpt lat="47.3435" lon="6.3589">
        <ele>264.508</ele>
        <time>2016-09-05T14:57:30.187Z</time>
      </trkpt>
      <trkpt lat="47.34347" lon="6.35887">
        <ele>266.509</ele>
        <time>2016-09-05T14:57:31.220Z</time>
      </trkpt>
      <trkpt lat="47.34344" lon="6.35883">
        <ele>266.532</ele>
        <time>2016-09-05T14:57:32.152Z</time>
      </trkpt>
      <trkpt lat="47.34341" lon="6.35881">
        <ele>265.717</ele>
        <time>2016-09-05T14:57:33.197Z</time>
      </trkpt>
      <trkpt lat="47.34338" lon="6.35878">
        <ele>265.6</ele>
        <time>2016-09-05T14:57:34.189Z</time>
      </trkpt>
      <trkpt lat="47.34335" lon="6.35875">
        <ele>265.916</ele>
        <time>2016-09-05T14:57:35.195Z</time>
      </trkpt>
      <trkpt lat="47.34333" lon="6.35872">
        <ele>263.918</ele>
        <time>2016-09-05T14:57:36.231Z</time>
      </trkpt>
      <trkpt lat="47.3433" lon="6.35869">
        <ele>263.914</ele>
        <time>2016-09-05T14:57:37.193Z</time>
      </trkpt>
      <trkpt lat="47.34327" lon="6.35866">
        <ele>263.107</ele>
        <time>2016-09-05T14:57:38.197Z</time>
      </trkpt>
      <trkpt lat="47.34324" lon="6.35864">
        <ele>263.218</ele>
        <time>2016-09-05T14:57:39.240Z</time>
      </trkpt>
      <trkpt lat="47.34321" lon="6.35861">
        <ele>261.066</ele>
        <time>2016-09-05T14:57:40.228Z</time>
      </trkpt>
      <trkpt lat="47.34318" lon="6.35859">
        <ele>261.695</ele>
        <time>2016-09-05T14:57:41.323Z</time>
      </trkpt>
      <trkpt lat="47.34315" lon="6.35856">
        <ele>262.001</ele>
        <time>2016-09-05T14:57:42.334Z</time>
      </trkpt>
      <trkpt lat="47.34312" lon="6.35853">
        <ele>261.442</ele>
        <time>2016-09-05T14:57:43.197Z</time>
      </trkpt>
      <trkpt lat="47.3431" lon="6.3585">
        <ele>261.153</ele>
        <time>2016-09-05T14:57:44.154Z</time>
      </trkpt>
      <trkpt lat="47.34307" lon="6.35847">
        <ele>259.759</ele>
        <time>2016-09-05T14:57:45.337Z</time>
      </trkpt>
      <trkpt lat="47.34303" lon="6.35841">
        <ele>259.657</ele>
        <time>2016-09-05T14:57:46.518Z</time>
      </trkpt>
      <trkpt lat="47.34299" lon="6.35839">
        <ele>260.085</ele>
        <time>2016-09-05T14:57:47.338Z</time>
      </trkpt>
      <trkpt lat="47.34295" lon="6.35834">
        <ele>260.062</ele>
        <time>2016-09-05T14:57:48.318Z</time>
      </trkpt>
      <trkpt lat="47.34291" lon="6.35829">
        <ele>259.959</ele>
        <time>2016-09-05T14:57:49.315Z</time>
      </trkpt>
      <trkpt lat="47.34288" lon="6.35825">
        <ele>259.926</ele>
        <time>2016-09-05T14:57:50.187Z</time>
      </trkpt>
      <trkpt lat="47.34283" lon="6.35821">
        <ele>260.517</ele>
        <time>2016-09-05T14:57:51.218Z</time>
      </trkpt>
      <trkpt lat="47.34279" lon="6.35816">
        <ele>259.674</ele>
        <time>2016-09-05T14:57:52.202Z</time>
      </trkpt>
      <trkpt lat="47.34275" lon="6.35811">
        <ele>259.716</ele>
        <time>2016-09-05T14:57:53.186Z</time>
      </trkpt>
      <trkpt lat="47.3427" lon="6.35808">
        <ele>261.565</ele>
        <time>2016-09-05T14:57:54.187Z</time>
      </trkpt>
      <trkpt lat="47.34266" lon="6.35804">
        <ele>260.987</ele>
        <time>2016-09-05T14:57:55.188Z</time>
      </trkpt>
      <trkpt lat="47.34262" lon="6.35799">
        <ele>260.39</ele>
        <time>2016-09-05T14:57:56.187Z</time>
      </trkpt>
      <trkpt lat="47.34257" lon="6.35796">
        <ele>260</ele>
        <time>2016-09-05T14:57:57.314Z</time>
      </trkpt>
      <trkpt lat="47.34254" lon="6.3579">
        <ele>260.911</ele>
        <time>2016-09-05T14:57:58.324Z</time>
      </trkpt>
      <trkpt lat="47.3425" lon="6.35786">
        <ele>261.718</ele>
        <time>2016-09-05T14:57:59.203Z</time>
      </trkpt>
      <trkpt lat="47.34248" lon="6.35779">
        <ele>260.172</ele>
        <time>2016-09-05T14:58:00.200Z</time>
      </trkpt>
      <trkpt lat="47.34245" lon="6.35774">
        <ele>260.772</ele>
        <time>2016-09-05T14:58:01.228Z</time>
      </trkpt>
      <trkpt lat="47.34241" lon="6.35771">
        <ele>260.036</ele>
        <time>2016-09-05T14:58:02.195Z</time>
      </trkpt>
      <trkpt lat="47.34237" lon="6.35765">
        <ele>260.181</ele>
        <time>2016-09-05T14:58:03.187Z</time>
      </trkpt>
      <trkpt lat="47.34234" lon="6.35759">
        <ele>260.052</ele>
        <time>2016-09-05T14:58:04.305Z</time>
      </trkpt>
      <trkpt lat="47.3423" lon="6.35755">
        <ele>260.54</ele>
        <time>2016-09-05T14:58:05.306Z</time>
      </trkpt>
      <trkpt lat="47.34226" lon="6.35749">
        <ele>260.295</ele>
        <time>2016-09-05T14:58:06.239Z</time>
      </trkpt>
      <trkpt lat="47.3422" lon="6.35744">
        <ele>260.697</ele>
        <time>2016-09-05T14:58:07.253Z</time>
      </trkpt>
      <trkpt lat="47.34216" lon="6.35739">
        <ele>262.57</ele>
        <time>2016-09-05T14:58:08.188Z</time>
      </trkpt>
      <trkpt lat="47.34213" lon="6.35733">
        <ele>262.016</ele>
        <time>2016-09-05T14:58:09.188Z</time>
      </trkpt>
      <trkpt lat="47.34209" lon="6.35727">
        <ele>261.582</ele>
        <time>2016-09-05T14:58:10.183Z</time>
      </trkpt>
      <trkpt lat="47.34206" lon="6.35721">
        <ele>260.667</ele>
        <time>2016-09-05T14:58:11.207Z</time>
      </trkpt>
      <trkpt lat="47.34202" lon="6.35716">
        <ele>261.476</ele>
        <time>2016-09-05T14:58:12.186Z</time>
      </trkpt>
      <trkpt lat="47.34199" lon="6.35711">
        <ele>261.588</ele>
        <time>2016-09-05T14:58:13.325Z</time>
      </trkpt>
      <trkpt lat="47.34197" lon="6.35705">
        <ele>262.01</ele>
        <time>2016-09-05T14:58:14.331Z</time>
      </trkpt>
      <trkpt lat="47.34194" lon="6.357">
        <ele>262.423</ele>
        <time>2016-09-05T14:58:15.199Z</time>
      </trkpt>
      <trkpt lat="47.34191" lon="6.35695">
        <ele>263.104</ele>
        <time>2016-09-05T14:58:16.207Z</time>
      </trkpt>
      <trkpt lat="47.34188" lon="6.35689">
        <ele>263.288</ele>
        <time>2016-09-05T14:58:17.205Z</time>
      </trkpt>
      <trkpt lat="47.34184" lon="6.35685">
        <ele>261.973</ele>
        <time>2016-09-05T14:58:18.204Z</time>
      </trkpt>
      <trkpt lat="47.34182" lon="6.35679">
        <ele>262.032</ele>
        <time>2016-09-05T14:58:19.200Z</time>
      </trkpt>
      <trkpt lat="47.34178" lon="6.35674">
        <ele>261.475</ele>
        <time>2016-09-05T14:58:20.185Z</time>
      </trkpt>
      <trkpt lat="47.34175" lon="6.35668">
        <ele>260.263</ele>
        <time>2016-09-05T14:58:21.209Z</time>
      </trkpt>
      <trkpt lat="47.34172" lon="6.35664">
        <ele>259.238</ele>
        <time>2016-09-05T14:58:22.251Z</time>
      </trkpt>
      <trkpt lat="47.34169" lon="6.3566">
        <ele>260.152</ele>
        <time>2016-09-05T14:58:23.248Z</time>
      </trkpt>
      <trkpt lat="47.34167" lon="6.35654">
        <ele>260.55</ele>
        <time>2016-09-05T14:58:24.150Z</time>
      </trkpt>
      <trkpt lat="47.34164" lon="6.35648">
        <ele>261.781</ele>
        <time>2016-09-05T14:58:25.208Z</time>
      </trkpt>
      <trkpt lat="47.34161" lon="6.35644">
        <ele>262.398</ele>
        <time>2016-09-05T14:58:26.396Z</time>
      </trkpt>
      <trkpt lat="47.34159" lon="6.35637">
        <ele>262.418</ele>
        <time>2016-09-05T14:58:27.494Z</time>
      </trkpt>
      <trkpt lat="47.34156" lon="6.35631">
        <ele>262.888</ele>
        <time>2016-09-05T14:58:28.336Z</time>
      </trkpt>
      <trkpt lat="47.34155" lon="6.35625">
        <ele>260.998</ele>
        <time>2016-09-05T14:58:29.319Z</time>
      </trkpt>
      <trkpt lat="47.34153" lon="6.3562">
        <ele>260.505</ele>
        <time>2016-09-05T14:58:30.322Z</time>
      </trkpt>
      <trkpt lat="47.34151" lon="6.35613">
        <ele>260.799</ele>
        <time>2016-09-05T14:58:31.216Z</time>
      </trkpt>
      <trkpt lat="47.34148" lon="6.35608">
        <ele>261.399</ele>
        <time>2016-09-05T14:58:32.201Z</time>
      </trkpt>
      <trkpt lat="47.34146" lon="6.35602">
        <ele>262.015</ele>
        <time>2016-09-05T14:58:33.186Z</time>
      </trkpt>
      <trkpt lat="47.34143" lon="6.35597">
        <ele>262.136</ele>
        <time>2016-09-05T14:58:34.184Z</time>
      </trkpt>
      <trkpt lat="47.34142" lon="6.35592">
        <ele>261.134</ele>
        <time>2016-09-05T14:58:35.185Z</time>
      </trkpt>
      <trkpt lat="47.3414" lon="6.35586">
        <ele>260.893</ele>
        <time>2016-09-05T14:58:36.288Z</time>
      </trkpt>
      <trkpt lat="47.34137" lon="6.35581">
        <ele>260.936</ele>
        <time>2016-09-05T14:58:37.288Z</time>
      </trkpt>
      <trkpt lat="47.34134" lon="6.35577">
        <ele>261.142</ele>
        <time>2016-09-05T14:58:38.245Z</time>
      </trkpt>
      <trkpt lat="47.34131" lon="6.35572">
        <ele>262.045</ele>
        <time>2016-09-05T14:58:39.251Z</time>
      </trkpt>
      <trkpt lat="47.3413" lon="6.35568">
        <ele>261.562</ele>
        <time>2016-09-05T14:58:40.190Z</time>
      </trkpt>
      <trkpt lat="47.34129" lon="6.35563">
        <ele>260.879</ele>
        <time>2016-09-05T14:58:41.217Z</time>
      </trkpt>
      <trkpt lat="47.34127" lon="6.35557">
        <ele>261.83</ele>
        <time>2016-09-05T14:58:42.208Z</time>
      </trkpt>
      <trkpt lat="47.34125" lon="6.35552">
        <ele>262.329</ele>
        <time>2016-09-05T14:58:43.256Z</time>
      </trkpt>
      <trkpt lat="47.34123" lon="6.35547">
        <ele>262.34</ele>
        <time>2016-09-05T14:58:44.249Z</time>
      </trkpt>
      <trkpt lat="47.34121" lon="6.35542">
        <ele>262.873</ele>
        <time>2016-09-05T14:58:45.368Z</time>
      </trkpt>
      <trkpt lat="47.34119" lon="6.35537">
        <ele>263.582</ele>
        <time>2016-09-05T14:58:46.353Z</time>
      </trkpt>
      <trkpt lat="47.34116" lon="6.35532">
        <ele>264.466</ele>
        <time>2016-09-05T14:58:47.186Z</time>
      </trkpt>
      <trkpt lat="47.34114" lon="6.35527">
        <ele>263.884</ele>
        <time>2016-09-05T14:58:48.211Z</time>
      </trkpt>
      <trkpt lat="47.34112" lon="6.35522">
        <ele>263.083</ele>
        <time>2016-09-05T14:58:49.229Z</time>
      </trkpt>
      <trkpt lat="47.3411" lon="6.35517">
        <ele>262.998</ele>
        <time>2016-09-05T14:58:50.204Z</time>
      </trkpt>
      <trkpt lat="47.34108" lon="6.35512">
        <ele>262.597</ele>
        <time>2016-09-05T14:58:51.224Z</time>
      </trkpt>
      <trkpt lat="47.34106" lon="6.35507">
        <ele>262.36</ele>
        <time>2016-09-05T14:58:52.351Z</time>
      </trkpt>
      <trkpt lat="47.34103" lon="6.35502">
        <ele>261.965</ele>
        <time>2016-09-05T14:58:53.357Z</time>
      </trkpt>
      <trkpt lat="47.34101" lon="6.35498">
        <ele>261.981</ele>
        <time>2016-09-05T14:58:54.376Z</time>
      </trkpt>
      <trkpt lat="47.34098" lon="6.35493">
        <ele>262.318</ele>
        <time>2016-09-05T14:58:55.441Z</time>
      </trkpt>
      <trkpt lat="47.34096" lon="6.35489">
        <ele>263.226</ele>
        <time>2016-09-05T14:58:56.276Z</time>
      </trkpt>
      <trkpt lat="47.34094" lon="6.35484">
        <ele>262.7</ele>
        <time>2016-09-05T14:58:57.221Z</time>
      </trkpt>
      <trkpt lat="47.34092" lon="6.3548">
        <ele>262.88</ele>
        <time>2016-09-05T14:58:58.206Z</time>
      </trkpt>
      <trkpt lat="47.3409" lon="6.35477">
        <ele>263.397</ele>
        <time>2016-09-05T14:58:59.252Z</time>
      </trkpt>
      <trkpt lat="47.34088" lon="6.35474">
        <ele>264.611</ele>
        <time>2016-09-05T14:59:00.241Z</time>
      </trkpt>
      <trkpt lat="47.34086" lon="6.35471">
        <ele>266.013</ele>
        <time>2016-09-05T14:59:01.303Z</time>
      </trkpt>
      <trkpt lat="47.34084" lon="6.35469">
        <ele>266.604</ele>
        <time>2016-09-05T14:59:02.305Z</time>
      </trkpt>
      <trkpt lat="47.34081" lon="6.35466">
        <ele>267.072</ele>
        <time>2016-09-05T14:59:03.188Z</time>
      </trkpt>
      <trkpt lat="47.34078" lon="6.35464">
        <ele>266.699</ele>
        <time>2016-09-05T14:59:04.206Z</time>
      </trkpt>
      <trkpt lat="47.34075" lon="6.35461">
        <ele>267.163</ele>
        <time>2016-09-05T14:59:05.196Z</time>
      </trkpt>
      <trkpt lat="47.34073" lon="6.35458">
        <ele>267.222</ele>
        <time>2016-09-05T14:59:06.189Z</time>
      </trkpt>
      <trkpt lat="47.3407" lon="6.35454">
        <ele>266.652</ele>
        <time>2016-09-05T14:59:07.188Z</time>
      </trkpt>
      <trkpt lat="47.34067" lon="6.3545">
        <ele>266.886</ele>
        <time>2016-09-05T14:59:08.332Z</time>
      </trkpt>
      <trkpt lat="47.34065" lon="6.35446">
        <ele>267.111</ele>
        <time>2016-09-05T14:59:09.351Z</time>
      </trkpt>
      <trkpt lat="47.34062" lon="6.35442">
        <ele>267.139</ele>
        <time>2016-09-05T14:59:10.210Z</time>
      </trkpt>
      <trkpt lat="47.3406" lon="6.35437">
        <ele>267.368</ele>
        <time>2016-09-05T14:59:11.236Z</time>
      </trkpt>
      <trkpt lat="47.34057" lon="6.35433">
        <ele>266.621</ele>
        <time>2016-09-05T14:59:12.209Z</time>
      </trkpt>
      <trkpt lat="47.34055" lon="6.35429">
        <ele>267.465</ele>
        <time>2016-09-05T14:59:13.218Z</time>
      </trkpt>
      <trkpt lat="47.34052" lon="6.35425">
        <ele>267.682</ele>
        <time>2016-09-05T14:59:14.208Z</time>
      </trkpt>
      <trkpt lat="47.34049" lon="6.35421">
        <ele>267.219</ele>
        <time>2016-09-05T14:59:15.254Z</time>
      </trkpt>
      <trkpt lat="47.34047" lon="6.35417">
        <ele>267.8</ele>
        <time>2016-09-05T14:59:16.248Z</time>
      </trkpt>
      <trkpt lat="47.34044" lon="6.35413">
        <ele>268.081</ele>
        <time>2016-09-05T14:59:17.290Z</time>
      </trkpt>
      <trkpt lat="47.34041" lon="6.35409">
        <ele>268.08</ele>
        <time>2016-09-05T14:59:18.293Z</time>
      </trkpt>
      <trkpt lat="47.34039" lon="6.35405">
        <ele>268.658</ele>
        <time>2016-09-05T14:59:19.192Z</time>
      </trkpt>
      <trkpt lat="47.34036" lon="6.35401">
        <ele>269.396</ele>
        <time>2016-09-05T14:59:20.207Z</time>
      </trkpt>
      <trkpt lat="47.34034" lon="6.35398">
        <ele>268.914</ele>
        <time>2016-09-05T14:59:21.222Z</time>
      </trkpt>
      <trkpt lat="47.34032" lon="6.35394">
        <ele>268.645</ele>
        <time>2016-09-05T14:59:22.186Z</time>
      </trkpt>
      <trkpt lat="47.3403" lon="6.3539">
        <ele>269.078</ele>
        <time>2016-09-05T14:59:23.209Z</time>
      </trkpt>
      <trkpt lat="47.34027" lon="6.35386">
        <ele>269.652</ele>
        <time>2016-09-05T14:59:24.359Z</time>
      </trkpt>
      <trkpt lat="47.34025" lon="6.35383">
        <ele>270.282</ele>
        <time>2016-09-05T14:59:25.355Z</time>
      </trkpt>
      <trkpt lat="47.34022" lon="6.35379">
        <ele>270.161</ele>
        <time>2016-09-05T14:59:26.247Z</time>
      </trkpt>
      <trkpt lat="47.34019" lon="6.35375">
        <ele>270.004</ele>
        <time>2016-09-05T14:59:27.254Z</time>
      </trkpt>
      <trkpt lat="47.34016" lon="6.35371">
        <ele>270.115</ele>
        <time>2016-09-05T14:59:28.197Z</time>
      </trkpt>
      <trkpt lat="47.34013" lon="6.35367">
        <ele>270.784</ele>
        <time>2016-09-05T14:59:29.218Z</time>
      </trkpt>
      <trkpt lat="47.34011" lon="6.35364">
        <ele>269.693</ele>
        <time>2016-09-05T14:59:30.218Z</time>
      </trkpt>
      <trkpt lat="47.34008" lon="6.35359">
        <ele>269.744</ele>
        <time>2016-09-05T14:59:31.292Z</time>
      </trkpt>
      <trkpt lat="47.34005" lon="6.35355">
        <ele>269.613</ele>
        <time>2016-09-05T14:59:32.280Z</time>
      </trkpt>
      <trkpt lat="47.34002" lon="6.35351">
        <ele>267.397</ele>
        <time>2016-09-05T14:59:33.363Z</time>
      </trkpt>
      <trkpt lat="47.33999" lon="6.35347">
        <ele>267.039</ele>
        <time>2016-09-05T14:59:34.377Z</time>
      </trkpt>
      <trkpt lat="47.33997" lon="6.35343">
        <ele>268.394</ele>
        <time>2016-09-05T14:59:35.209Z</time>
      </trkpt>
      <trkpt lat="47.33995" lon="6.35339">
        <ele>267.553</ele>
        <time>2016-09-05T14:59:36.212Z</time>
      </trkpt>
      <trkpt lat="47.33992" lon="6.35335">
        <ele>267.616</ele>
        <time>2016-09-05T14:59:37.211Z</time>
      </trkpt>
      <trkpt lat="47.33989" lon="6.3533">
        <ele>266.821</ele>
        <time>2016-09-05T14:59:38.192Z</time>
      </trkpt>
      <trkpt lat="47.33988" lon="6.35326">
        <ele>265.06</ele>
        <time>2016-09-05T14:59:39.209Z</time>
      </trkpt>
      <trkpt lat="47.33986" lon="6.35323">
        <ele>265.042</ele>
        <time>2016-09-05T14:59:40.269Z</time>
      </trkpt>
      <trkpt lat="47.33983" lon="6.35319">
        <ele>265.006</ele>
        <time>2016-09-05T14:59:41.259Z</time>
      </trkpt>
      <trkpt lat="47.33981" lon="6.35315">
        <ele>263.554</ele>
        <time>2016-09-05T14:59:42.324Z</time>
      </trkpt>
      <trkpt lat="47.33978" lon="6.35312">
        <ele>262.626</ele>
        <time>2016-09-05T14:59:43.343Z</time>
      </trkpt>
      <trkpt lat="47.33976" lon="6.3531">
        <ele>263.161</ele>
        <time>2016-09-05T14:59:44.189Z</time>
      </trkpt>
      <trkpt lat="47.33974" lon="6.35307">
        <ele>262.979</ele>
        <time>2016-09-05T14:59:45.214Z</time>
      </trkpt>
      <trkpt lat="47.33971" lon="6.35304">
        <ele>261.255</ele>
        <time>2016-09-05T14:59:46.214Z</time>
      </trkpt>
      <trkpt lat="47.33969" lon="6.353">
        <ele>260.758</ele>
        <time>2016-09-05T14:59:47.258Z</time>
      </trkpt>
      <trkpt lat="47.33967" lon="6.35297">
        <ele>260.213</ele>
        <time>2016-09-05T14:59:48.252Z</time>
      </trkpt>
      <trkpt lat="47.33964" lon="6.35294">
        <ele>260.84</ele>
        <time>2016-09-05T14:59:49.326Z</time>
      </trkpt>
      <trkpt lat="47.3396" lon="6.3529">
        <ele>261.375</ele>
        <time>2016-09-05T14:59:50.324Z</time>
      </trkpt>
      <trkpt lat="47.33957" lon="6.35287">
        <ele>260.801</ele>
        <time>2016-09-05T14:59:51.223Z</time>
      </trkpt>
      <trkpt lat="47.33954" lon="6.35284">
        <ele>259.961</ele>
        <time>2016-09-05T14:59:52.209Z</time>
      </trkpt>
      <trkpt lat="47.3395" lon="6.35282">
        <ele>261.295</ele>
        <time>2016-09-05T14:59:53.218Z</time>
      </trkpt>
      <trkpt lat="47.33947" lon="6.3528">
        <ele>259.919</ele>
        <time>2016-09-05T14:59:54.202Z</time>
      </trkpt>
      <trkpt lat="47.33944" lon="6.35278">
        <ele>260.009</ele>
        <time>2016-09-05T14:59:55.162Z</time>
      </trkpt>
      <trkpt lat="47.3394" lon="6.35276">
        <ele>260.085</ele>
        <time>2016-09-05T14:59:56.316Z</time>
      </trkpt>
      <trkpt lat="47.33936" lon="6.35273">
        <ele>258.511</ele>
        <time>2016-09-05T14:59:57.348Z</time>
      </trkpt>
      <trkpt lat="47.33932" lon="6.3527">
        <ele>257.815</ele>
        <time>2016-09-05T14:59:58.262Z</time>
      </trkpt>
      <trkpt lat="47.33929" lon="6.35267">
        <ele>257.576</ele>
        <time>2016-09-05T14:59:59.268Z</time>
      </trkpt>
      <trkpt lat="47.33926" lon="6.35264">
        <ele>258.007</ele>
        <time>2016-09-05T15:00:00.221Z</time>
      </trkpt>
      <trkpt lat="47.33922" lon="6.35261">
        <ele>257.337</ele>
        <time>2016-09-05T15:00:01.224Z</time>
      </trkpt>
      <trkpt lat="47.33919" lon="6.35258">
        <ele>258.299</ele>
        <time>2016-09-05T15:00:02.339Z</time>
      </trkpt>
      <trkpt lat="47.33916" lon="6.35254">
        <ele>262.031</ele>
        <time>2016-09-05T15:00:03.491Z</time>
      </trkpt>
      <trkpt lat="47.33912" lon="6.35252">
        <ele>265.501</ele>
        <time>2016-09-05T15:00:04.345Z</time>
      </trkpt>
      <trkpt lat="47.33908" lon="6.35249">
        <ele>267.278</ele>
        <time>2016-09-05T15:00:05.331Z</time>
      </trkpt>
      <trkpt lat="47.339" lon="6.35248">
        <ele>267.087</ele>
        <time>2016-09-05T15:00:06.331Z</time>
      </trkpt>
      <trkpt lat="47.33896" lon="6.35244">
        <ele>266.622</ele>
        <time>2016-09-05T15:00:07.195Z</time>
      </trkpt>
      <trkpt lat="47.33892" lon="6.3524">
        <ele>266.11</ele>
        <time>2016-09-05T15:00:08.208Z</time>
      </trkpt>
      <trkpt lat="47.33888" lon="6.35237">
        <ele>265.241</ele>
        <time>2016-09-05T15:00:09.197Z</time>
      </trkpt>
      <trkpt lat="47.33885" lon="6.35233">
        <ele>264.914</ele>
        <time>2016-09-05T15:00:10.194Z</time>
      </trkpt>
      <trkpt lat="47.33882" lon="6.3523">
        <ele>264.843</ele>
        <time>2016-09-05T15:00:11.161Z</time>
      </trkpt>
      <trkpt lat="47.3388" lon="6.35229">
        <ele>264.026</ele>
        <time>2016-09-05T15:00:12.285Z</time>
      </trkpt>
      <trkpt lat="47.33878" lon="6.35227">
        <ele>264.122</ele>
        <time>2016-09-05T15:00:13.324Z</time>
      </trkpt>
      <trkpt lat="47.33875" lon="6.35226">
        <ele>264.637</ele>
        <time>2016-09-05T15:00:14.248Z</time>
      </trkpt>
      <trkpt lat="47.33872" lon="6.35225">
        <ele>265.027</ele>
        <time>2016-09-05T15:00:15.253Z</time>
      </trkpt>
      <trkpt lat="47.3387" lon="6.35224">
        <ele>265.227</ele>
        <time>2016-09-05T15:00:16.160Z</time>
      </trkpt>
      <trkpt lat="47.33866" lon="6.35222">
        <ele>268.13</ele>
        <time>2016-09-05T15:00:17.198Z</time>
      </trkpt>
      <trkpt lat="47.33863" lon="6.3522">
        <ele>268.048</ele>
        <time>2016-09-05T15:00:18.201Z</time>
      </trkpt>
      <trkpt lat="47.3386" lon="6.35217">
        <ele>263.533</ele>
        <time>2016-09-05T15:00:19.211Z</time>
      </trkpt>
      <trkpt lat="47.33857" lon="6.35215">
        <ele>261.454</ele>
        <time>2016-09-05T15:00:20.268Z</time>
      </trkpt>
      <trkpt lat="47.33853" lon="6.35211">
        <ele>257.81</ele>
        <time>2016-09-05T15:00:21.374Z</time>
      </trkpt>
      <trkpt lat="47.3385" lon="6.35207">
        <ele>257.208</ele>
        <time>2016-09-05T15:00:22.364Z</time>
      </trkpt>
      <trkpt lat="47.33846" lon="6.35204">
        <ele>259.274</ele>
        <time>2016-09-05T15:00:23.193Z</time>
      </trkpt>
      <trkpt lat="47.33843" lon="6.35201">
        <ele>257.184</ele>
        <time>2016-09-05T15:00:24.211Z</time>
      </trkpt>
      <trkpt lat="47.3384" lon="6.35198">
        <ele>256.621</ele>
        <time>2016-09-05T15:00:25.225Z</time>
      </trkpt>
      <trkpt lat="47.33835" lon="6.35193">
        <ele>257.3</ele>
        <time>2016-09-05T15:00:26.212Z</time>
      </trkpt>
      <trkpt lat="47.33831" lon="6.3519">
        <ele>257.823</ele>
        <time>2016-09-05T15:00:27.198Z</time>
      </trkpt>
      <trkpt lat="47.33828" lon="6.35186">
        <ele>258.128</ele>
        <time>2016-09-05T15:00:28.335Z</time>
      </trkpt>
      <trkpt lat="47.33824" lon="6.35182">
        <ele>258.391</ele>
        <time>2016-09-05T15:00:29.331Z</time>
      </trkpt>
      <trkpt lat="47.3382" lon="6.35178">
        <ele>261</ele>
        <time>2016-09-05T15:00:30.378Z</time>
      </trkpt>
      <trkpt lat="47.33818" lon="6.35174">
        <ele>259.642</ele>
        <time>2016-09-05T15:00:31.461Z</time>
      </trkpt>
      <trkpt lat="47.33815" lon="6.35171">
        <ele>259.531</ele>
        <time>2016-09-05T15:00:32.266Z</time>
      </trkpt>
      <trkpt lat="47.33812" lon="6.35168">
        <ele>259.521</ele>
        <time>2016-09-05T15:00:33.195Z</time>
      </trkpt>
      <trkpt lat="47.33807" lon="6.35164">
        <ele>259.718</ele>
        <time>2016-09-05T15:00:34.210Z</time>
      </trkpt>
      <trkpt lat="47.33803" lon="6.35161">
        <ele>260.915</ele>
        <time>2016-09-05T15:00:35.308Z</time>
      </trkpt>
      <trkpt lat="47.33799" lon="6.35157">
        <ele>261.656</ele>
        <time>2016-09-05T15:00:36.296Z</time>
      </trkpt>
      <trkpt lat="47.33795" lon="6.35156">
        <ele>262.546</ele>
        <time>2016-09-05T15:00:37.382Z</time>
      </trkpt>
      <trkpt lat="47.33791" lon="6.35152">
        <ele>262.427</ele>
        <time>2016-09-05T15:00:38.366Z</time>
      </trkpt>
      <trkpt lat="47.33788" lon="6.35149">
        <ele>262.152</ele>
        <time>2016-09-05T15:00:39.187Z</time>
      </trkpt>
      <trkpt lat="47.33785" lon="6.35144">
        <ele>260.986</ele>
        <time>2016-09-05T15:00:40.189Z</time>
      </trkpt>
      <trkpt lat="47.33781" lon="6.35141">
        <ele>260.023</ele>
        <time>2016-09-05T15:00:41.215Z</time>
      </trkpt>
      <trkpt lat="47.33778" lon="6.35137">
        <ele>259.985</ele>
        <time>2016-09-05T15:00:42.194Z</time>
      </trkpt>
      <trkpt lat="47.33775" lon="6.35134">
        <ele>260.02</ele>
        <time>2016-09-05T15:00:43.212Z</time>
      </trkpt>
      <trkpt lat="47.33772" lon="6.35131">
        <ele>259.809</ele>
        <time>2016-09-05T15:00:44.368Z</time>
      </trkpt>
      <trkpt lat="47.33768" lon="6.35127">
        <ele>259.258</ele>
        <time>2016-09-05T15:00:45.361Z</time>
      </trkpt>
      <trkpt lat="47.33765" lon="6.35123">
        <ele>258.256</ele>
        <time>2016-09-05T15:00:46.296Z</time>
      </trkpt>
      <trkpt lat="47.33762" lon="6.3512">
        <ele>258.443</ele>
        <time>2016-09-05T15:00:47.317Z</time>
      </trkpt>
      <trkpt lat="47.33759" lon="6.35116">
        <ele>258.35</ele>
        <time>2016-09-05T15:00:48.219Z</time>
      </trkpt>
      <trkpt lat="47.33756" lon="6.35113">
        <ele>258.577</ele>
        <time>2016-09-05T15:00:49.217Z</time>
      </trkpt>
      <trkpt lat="47.33752" lon="6.35111">
        <ele>260.186</ele>
        <time>2016-09-05T15:00:50.220Z</time>
      </trkpt>
      <trkpt lat="47.33749" lon="6.35108">
        <ele>259.732</ele>
        <time>2016-09-05T15:00:51.249Z</time>
      </trkpt>
      <trkpt lat="47.33745" lon="6.35106">
        <ele>261.417</ele>
        <time>2016-09-05T15:00:52.234Z</time>
      </trkpt>
      <trkpt lat="47.33741" lon="6.35104">
        <ele>261.943</ele>
        <time>2016-09-05T15:00:53.376Z</time>
      </trkpt>
      <trkpt lat="47.33737" lon="6.35103">
        <ele>261.481</ele>
        <time>2016-09-05T15:00:54.363Z</time>
      </trkpt>
      <trkpt lat="47.33734" lon="6.35102">
        <ele>263.352</ele>
        <time>2016-09-05T15:00:55.200Z</time>
      </trkpt>
      <trkpt lat="47.3373" lon="6.35101">
        <ele>263.049</ele>
        <time>2016-09-05T15:00:56.221Z</time>
      </trkpt>
      <trkpt lat="47.33727" lon="6.35099">
        <ele>263.454</ele>
        <time>2016-09-05T15:00:57.231Z</time>
      </trkpt>
      <trkpt lat="47.33724" lon="6.35098">
        <ele>264.349</ele>
        <time>2016-09-05T15:00:58.218Z</time>
      </trkpt>
      <trkpt lat="47.33721" lon="6.35096">
        <ele>264.502</ele>
        <time>2016-09-05T15:00:59.235Z</time>
      </trkpt>
      <trkpt lat="47.33717" lon="6.35094">
        <ele>264.072</ele>
        <time>2016-09-05T15:01:00.382Z</time>
      </trkpt>
      <trkpt lat="47.33713" lon="6.35091">
        <ele>263.548</ele>
        <time>2016-09-05T15:01:01.379Z</time>
      </trkpt>
      <trkpt lat="47.3371" lon="6.35087">
        <ele>263.131</ele>
        <time>2016-09-05T15:01:02.280Z</time>
      </trkpt>
      <trkpt lat="47.33707" lon="6.35084">
        <ele>260.757</ele>
        <time>2016-09-05T15:01:03.285Z</time>
      </trkpt>
      <trkpt lat="47.33703" lon="6.35081">
        <ele>261.015</ele>
        <time>2016-09-05T15:01:04.217Z</time>
      </trkpt>
      <trkpt lat="47.33699" lon="6.35078">
        <ele>260.828</ele>
        <time>2016-09-05T15:01:05.200Z</time>
      </trkpt>
      <trkpt lat="47.33696" lon="6.35075">
        <ele>260.91</ele>
        <time>2016-09-05T15:01:06.217Z</time>
      </trkpt>
      <trkpt lat="47.33692" lon="6.35071">
        <ele>260.344</ele>
        <time>2016-09-05T15:01:07.220Z</time>
      </trkpt>
      <trkpt lat="47.33689" lon="6.35067">
        <ele>256.822</ele>
        <time>2016-09-05T15:01:08.216Z</time>
      </trkpt>
      <trkpt lat="47.33686" lon="6.35063">
        <ele>256.384</ele>
        <time>2016-09-05T15:01:09.388Z</time>
      </trkpt>
      <trkpt lat="47.33682" lon="6.35059">
        <ele>256.668</ele>
        <time>2016-09-05T15:01:10.368Z</time>
      </trkpt>
      <trkpt lat="47.33678" lon="6.35056">
        <ele>257.108</ele>
        <time>2016-09-05T15:01:11.190Z</time>
      </trkpt>
      <trkpt lat="47.33674" lon="6.35053">
        <ele>258.538</ele>
        <time>2016-09-05T15:01:12.205Z</time>
      </trkpt>
      <trkpt lat="47.33671" lon="6.35049">
        <ele>259.14</ele>
        <time>2016-09-05T15:01:13.204Z</time>
      </trkpt>
      <trkpt lat="47.33667" lon="6.35044">
        <ele>259</ele>
        <time>2016-09-05T15:01:14.190Z</time>
      </trkpt>
      <trkpt lat="47.33663" lon="6.35041">
        <ele>258.785</ele>
        <time>2016-09-05T15:01:15.189Z</time>
      </trkpt>
      <trkpt lat="47.3366" lon="6.35038">
        <ele>258.194</ele>
        <time>2016-09-05T15:01:16.335Z</time>
      </trkpt>
      <trkpt lat="47.33657" lon="6.35033">
        <ele>258.169</ele>
        <time>2016-09-05T15:01:17.325Z</time>
      </trkpt>
      <trkpt lat="47.33654" lon="6.35029">
        <ele>258.575</ele>
        <time>2016-09-05T15:01:18.332Z</time>
      </trkpt>
      <trkpt lat="47.33651" lon="6.35022">
        <ele>258.883</ele>
        <time>2016-09-05T15:01:19.331Z</time>
      </trkpt>
      <trkpt lat="47.33648" lon="6.35016">
        <ele>259.665</ele>
        <time>2016-09-05T15:01:20.207Z</time>
      </trkpt>
      <trkpt lat="47.33646" lon="6.35011">
        <ele>259.857</ele>
        <time>2016-09-05T15:01:21.234Z</time>
      </trkpt>
      <trkpt lat="47.33643" lon="6.35004">
        <ele>260.005</ele>
        <time>2016-09-05T15:01:22.198Z</time>
      </trkpt>
      <trkpt lat="47.3364" lon="6.34998">
        <ele>259.551</ele>
        <time>2016-09-05T15:01:23.185Z</time>
      </trkpt>
      <trkpt lat="47.33638" lon="6.34993">
        <ele>260.549</ele>
        <time>2016-09-05T15:01:24.200Z</time>
      </trkpt>
      <trkpt lat="47.33635" lon="6.34987">
        <ele>260.517</ele>
        <time>2016-09-05T15:01:25.363Z</time>
      </trkpt>
      <trkpt lat="47.33632" lon="6.34981">
        <ele>260.343</ele>
        <time>2016-09-05T15:01:26.365Z</time>
      </trkpt>
      <trkpt lat="47.33628" lon="6.34975">
        <ele>261.153</ele>
        <time>2016-09-05T15:01:27.200Z</time>
      </trkpt>
      <trkpt lat="47.33624" lon="6.34972">
        <ele>262.752</ele>
        <time>2016-09-05T15:01:28.188Z</time>
      </trkpt>
      <trkpt lat="47.3362" lon="6.34968">
        <ele>262.859</ele>
        <time>2016-09-05T15:01:29.200Z</time>
      </trkpt>
      <trkpt lat="47.33616" lon="6.34964">
        <ele>265.122</ele>
        <time>2016-09-05T15:01:30.276Z</time>
      </trkpt>
      <trkpt lat="47.33613" lon="6.3496">
        <ele>266.121</ele>
        <time>2016-09-05T15:01:31.291Z</time>
      </trkpt>
      <trkpt lat="47.33609" lon="6.34955">
        <ele>266.172</ele>
        <time>2016-09-05T15:01:32.214Z</time>
      </trkpt>
      <trkpt lat="47.33606" lon="6.34951">
        <ele>265.592</ele>
        <time>2016-09-05T15:01:33.206Z</time>
      </trkpt>
      <trkpt lat="47.33602" lon="6.34945">
        <ele>265.54</ele>
        <time>2016-09-05T15:01:34.205Z</time>
      </trkpt>
      <trkpt lat="47.33599" lon="6.34943">
        <ele>268.171</ele>
        <time>2016-09-05T15:01:35.306Z</time>
      </trkpt>
      <trkpt lat="47.33596" lon="6.34939">
        <ele>268.768</ele>
        <time>2016-09-05T15:01:36.323Z</time>
      </trkpt>
      <trkpt lat="47.33593" lon="6.34934">
        <ele>265.867</ele>
        <time>2016-09-05T15:01:37.291Z</time>
      </trkpt>
      <trkpt lat="47.33589" lon="6.34933">
        <ele>264.36</ele>
        <time>2016-09-05T15:01:38.285Z</time>
      </trkpt>
      <trkpt lat="47.33586" lon="6.3493">
        <ele>262.819</ele>
        <time>2016-09-05T15:01:39.209Z</time>
      </trkpt>
      <trkpt lat="47.33583" lon="6.34927">
        <ele>261.7</ele>
        <time>2016-09-05T15:01:40.205Z</time>
      </trkpt>
      <trkpt lat="47.3358" lon="6.34924">
        <ele>261.437</ele>
        <time>2016-09-05T15:01:41.165Z</time>
      </trkpt>
      <trkpt lat="47.33577" lon="6.34921">
        <ele>260.243</ele>
        <time>2016-09-05T15:01:42.239Z</time>
      </trkpt>
      <trkpt lat="47.33574" lon="6.34919">
        <ele>260.243</ele>
        <time>2016-09-05T15:01:43.236Z</time>
      </trkpt>
      <trkpt lat="47.33571" lon="6.34917">
        <ele>259.767</ele>
        <time>2016-09-05T15:01:44.375Z</time>
      </trkpt>
      <trkpt lat="47.33568" lon="6.34915">
        <ele>258.8</ele>
        <time>2016-09-05T15:01:45.482Z</time>
      </trkpt>
      <trkpt lat="47.33564" lon="6.34912">
        <ele>258.728</ele>
        <time>2016-09-05T15:01:46.268Z</time>
      </trkpt>
      <trkpt lat="47.3356" lon="6.34909">
        <ele>259.128</ele>
        <time>2016-09-05T15:01:47.148Z</time>
      </trkpt>
      <trkpt lat="47.33557" lon="6.34906">
        <ele>259.776</ele>
        <time>2016-09-05T15:01:48.209Z</time>
      </trkpt>
      <trkpt lat="47.33554" lon="6.34902">
        <ele>260.27</ele>
        <time>2016-09-05T15:01:49.237Z</time>
      </trkpt>
      <trkpt lat="47.33551" lon="6.34899">
        <ele>257.639</ele>
        <time>2016-09-05T15:01:50.201Z</time>
      </trkpt>
      <trkpt lat="47.33549" lon="6.34896">
        <ele>257.529</ele>
        <time>2016-09-05T15:01:51.286Z</time>
      </trkpt>
      <trkpt lat="47.33547" lon="6.34894">
        <ele>258.165</ele>
        <time>2016-09-05T15:01:52.258Z</time>
      </trkpt>
      <trkpt lat="47.33546" lon="6.34891">
        <ele>258.137</ele>
        <time>2016-09-05T15:01:53.337Z</time>
      </trkpt>
      <trkpt lat="47.33546" lon="6.34887">
        <ele>258.645</ele>
        <time>2016-09-05T15:01:54.426Z</time>
      </trkpt>
      <trkpt lat="47.33546" lon="6.34884">
        <ele>258.572</ele>
        <time>2016-09-05T15:01:55.220Z</time>
      </trkpt>
      <trkpt lat="47.33546" lon="6.34882">
        <ele>259.541</ele>
        <time>2016-09-05T15:01:56.202Z</time>
      </trkpt>
      <trkpt lat="47.33547" lon="6.34881">
        <ele>259.101</ele>
        <time>2016-09-05T15:01:57.222Z</time>
      </trkpt>
      <trkpt lat="47.33547" lon="6.34881">
        <ele>258.748</ele>
        <time>2016-09-05T15:01:58.188Z</time>
      </trkpt>
      <trkpt lat="47.33548" lon="6.34881">
        <ele>259.108</ele>
        <time>2016-09-05T15:01:59.211Z</time>
      </trkpt>
      <trkpt lat="47.33549" lon="6.34881">
        <ele>258.92</ele>
        <time>2016-09-05T15:02:00.153Z</time>
      </trkpt>
      <trkpt lat="47.33549" lon="6.34881">
        <ele>262.339</ele>
        <time>2016-09-05T15:02:01.195Z</time>
      </trkpt>
      <trkpt lat="47.3355" lon="6.34881">
        <ele>261.239</ele>
        <time>2016-09-05T15:02:02.372Z</time>
      </trkpt>
      <trkpt lat="47.3355" lon="6.34881">
        <ele>262.274</ele>
        <time>2016-09-05T15:02:03.401Z</time>
      </trkpt>
      <trkpt lat="47.33551" lon="6.3488">
        <ele>262.561</ele>
        <time>2016-09-05T15:02:04.255Z</time>
      </trkpt>
      <trkpt lat="47.33552" lon="6.34879">
        <ele>263.178</ele>
        <time>2016-09-05T15:02:05.210Z</time>
      </trkpt>
      <trkpt lat="47.33552" lon="6.34878">
        <ele>264.177</ele>
        <time>2016-09-05T15:02:06.210Z</time>
      </trkpt>
      <trkpt lat="47.33553" lon="6.34876">
        <ele>264.221</ele>
        <time>2016-09-05T15:02:07.350Z</time>
      </trkpt>
      <trkpt lat="47.33553" lon="6.34875">
        <ele>263.913</ele>
        <time>2016-09-05T15:02:08.358Z</time>
      </trkpt>
      <trkpt lat="47.33554" lon="6.34874">
        <ele>265.347</ele>
        <time>2016-09-05T15:02:09.271Z</time>
      </trkpt>
      <trkpt lat="47.33554" lon="6.34872">
        <ele>265.859</ele>
        <time>2016-09-05T15:02:10.271Z</time>
      </trkpt>
      <trkpt lat="47.33554" lon="6.34871">
        <ele>266.098</ele>
        <time>2016-09-05T15:02:11.206Z</time>
      </trkpt>
      <trkpt lat="47.33555" lon="6.3487">
        <ele>264.077</ele>
        <time>2016-09-05T15:02:12.186Z</time>
      </trkpt>
      <trkpt lat="47.33555" lon="6.3487">
        <ele>263.374</ele>
        <time>2016-09-05T15:02:13.217Z</time>
      </trkpt>
      <trkpt lat="47.33556" lon="6.34869">
        <ele>263.758</ele>
        <time>2016-09-05T15:02:14.276Z</time>
      </trkpt>
      <trkpt lat="47.33557" lon="6.34868">
        <ele>262.934</ele>
        <time>2016-09-05T15:02:15.259Z</time>
      </trkpt>
      <trkpt lat="47.33557" lon="6.34867">
        <ele>264.147</ele>
        <time>2016-09-05T15:02:16.370Z</time>
      </trkpt>
      <trkpt lat="47.33557" lon="6.34865">
        <ele>265.524</ele>
        <time>2016-09-05T15:02:17.372Z</time>
      </trkpt>
      <trkpt lat="47.33558" lon="6.34864">
        <ele>266.822</ele>
        <time>2016-09-05T15:02:18.206Z</time>
      </trkpt>
      <trkpt lat="47.33558" lon="6.34862">
        <ele>267.699</ele>
        <time>2016-09-05T15:02:19.194Z</time>
      </trkpt>
      <trkpt lat="47.33558" lon="6.34861">
        <ele>268.255</ele>
        <time>2016-09-05T15:02:20.192Z</time>
      </trkpt>
      <trkpt lat="47.33558" lon="6.34859">
        <ele>268.638</ele>
        <time>2016-09-05T15:02:21.204Z</time>
      </trkpt>
      <trkpt lat="47.33558" lon="6.34858">
        <ele>268.557</ele>
        <time>2016-09-05T15:02:22.207Z</time>
      </trkpt>
      <trkpt lat="47.33558" lon="6.34857">
        <ele>268.973</ele>
        <time>2016-09-05T15:02:23.300Z</time>
      </trkpt>
      <trkpt lat="47.33558" lon="6.34855">
        <ele>270.615</ele>
        <time>2016-09-05T15:02:24.313Z</time>
      </trkpt>
      <trkpt lat="47.33558" lon="6.34854">
        <ele>271.637</ele>
        <time>2016-09-05T15:02:25.376Z</time>
      </trkpt>
      <trkpt lat="47.33559" lon="6.34852">
        <ele>272.185</ele>
        <time>2016-09-05T15:02:26.469Z</time>
      </trkpt>
      <trkpt lat="47.33559" lon="6.34851">
        <ele>272.316</ele>
        <time>2016-09-05T15:02:27.284Z</time>
      </trkpt>
      <trkpt lat="47.3356" lon="6.3485">
        <ele>273.795</ele>
        <time>2016-09-05T15:02:28.188Z</time>
      </trkpt>
      <trkpt lat="47.3356" lon="6.34849">
        <ele>274.373</ele>
        <time>2016-09-05T15:02:29.193Z</time>
      </trkpt>
      <trkpt lat="47.3356" lon="6.34847">
        <ele>273.479</ele>
        <time>2016-09-05T15:02:30.187Z</time>
      </trkpt>
      <trkpt lat="47.33561" lon="6.34846">
        <ele>273.716</ele>
        <time>2016-09-05T15:02:31.196Z</time>
      </trkpt>
      <trkpt lat="47.33561" lon="6.34845">
        <ele>272.835</ele>
        <time>2016-09-05T15:02:32.341Z</time>
      </trkpt>
      <trkpt lat="47.33562" lon="6.34844">
        <ele>271.134</ele>
        <time>2016-09-05T15:02:33.353Z</time>
      </trkpt>
      <trkpt lat="47.33562" lon="6.34843">
        <ele>271.219</ele>
        <time>2016-09-05T15:02:34.215Z</time>
      </trkpt>
      <trkpt lat="47.33562" lon="6.34842">
        <ele>272.347</ele>
        <time>2016-09-05T15:02:35.222Z</time>
      </trkpt>
      <trkpt lat="47.33562" lon="6.34841">
        <ele>271.952</ele>
        <time>2016-09-05T15:02:36.210Z</time>
      </trkpt>
      <trkpt lat="47.33562" lon="6.34839">
        <ele>272.431</ele>
        <time>2016-09-05T15:02:37.197Z</time>
      </trkpt>
      <trkpt lat="47.33563" lon="6.34837">
        <ele>272.913</ele>
        <time>2016-09-05T15:02:38.198Z</time>
      </trkpt>
      <trkpt lat="47.33564" lon="6.34836">
        <ele>275.612</ele>
        <time>2016-09-05T15:02:39.310Z</time>
      </trkpt>
      <trkpt lat="47.33565" lon="6.34834">
        <ele>276.53</ele>
        <time>2016-09-05T15:02:40.325Z</time>
      </trkpt>
      <trkpt lat="47.33565" lon="6.34832">
        <ele>277.43</ele>
        <time>2016-09-05T15:02:41.388Z</time>
      </trkpt>
      <trkpt lat="47.33566" lon="6.34831">
        <ele>277.089</ele>
        <time>2016-09-05T15:02:42.477Z</time>
      </trkpt>
      <trkpt lat="47.33566" lon="6.3483">
        <ele>277.768</ele>
        <time>2016-09-05T15:02:43.291Z</time>
      </trkpt>
      <trkpt lat="47.33567" lon="6.34829">
        <ele>278.305</ele>
        <time>2016-09-05T15:02:44.207Z</time>
      </trkpt>
      <trkpt lat="47.33567" lon="6.34828">
        <ele>278.562</ele>
        <time>2016-09-05T15:02:45.212Z</time>
      </trkpt>
      <trkpt lat="47.33568" lon="6.34826">
        <ele>277.125</ele>
        <time>2016-09-05T15:02:46.263Z</time>
      </trkpt>
      <trkpt lat="47.33569" lon="6.34825">
        <ele>276.148</ele>
        <time>2016-09-05T15:02:47.258Z</time>
      </trkpt>
      <trkpt lat="47.33571" lon="6.34824">
        <ele>275.829</ele>
        <time>2016-09-05T15:02:48.358Z</time>
      </trkpt>
      <trkpt lat="47.33572" lon="6.34823">
        <ele>276.022</ele>
        <time>2016-09-05T15:02:49.357Z</time>
      </trkpt>
      <trkpt lat="47.33572" lon="6.34822">
        <ele>273.81</ele>
        <time>2016-09-05T15:02:50.195Z</time>
      </trkpt>
      <trkpt lat="47.33573" lon="6.34821">
        <ele>272.838</ele>
        <time>2016-09-05T15:02:51.190Z</time>
      </trkpt>
      <trkpt lat="47.33574" lon="6.3482">
        <ele>273.61</ele>
        <time>2016-09-05T15:02:52.187Z</time>
      </trkpt>
      <trkpt lat="47.33575" lon="6.34819">
        <ele>273.341</ele>
        <time>2016-09-05T15:02:53.197Z</time>
      </trkpt>
      <trkpt lat="47.33576" lon="6.34818">
        <ele>273.285</ele>
        <time>2016-09-05T15:02:54.189Z</time>
      </trkpt>
      <trkpt lat="47.33577" lon="6.34817">
        <ele>274.208</ele>
        <time>2016-09-05T15:02:55.250Z</time>
      </trkpt>
      <trkpt lat="47.33579" lon="6.34816">
        <ele>273.526</ele>
        <time>2016-09-05T15:02:56.280Z</time>
      </trkpt>
      <trkpt lat="47.3358" lon="6.34814">
        <ele>273.332</ele>
        <time>2016-09-05T15:02:57.260Z</time>
      </trkpt>
      <trkpt lat="47.33581" lon="6.34813">
        <ele>272.126</ele>
        <time>2016-09-05T15:02:58.266Z</time>
      </trkpt>
      <trkpt lat="47.33581" lon="6.34812">
        <ele>271.421</ele>
        <time>2016-09-05T15:02:59.216Z</time>
      </trkpt>
      <trkpt lat="47.33582" lon="6.34811">
        <ele>270.541</ele>
        <time>2016-09-05T15:03:00.211Z</time>
      </trkpt>
      <trkpt lat="47.33582" lon="6.3481">
        <ele>271.086</ele>
        <time>2016-09-05T15:03:01.188Z</time>
      </trkpt>
      <trkpt lat="47.33582" lon="6.3481">
        <ele>270.515</ele>
        <time>2016-09-05T15:03:02.228Z</time>
      </trkpt>
      <trkpt lat="47.33582" lon="6.3481">
        <ele>271.39</ele>
        <time>2016-09-05T15:03:03.217Z</time>
      </trkpt>
      <trkpt lat="47.33582" lon="6.3481">
        <ele>271.154</ele>
        <time>2016-09-05T15:03:04.327Z</time>
      </trkpt>
      <trkpt lat="47.33583" lon="6.3481">
        <ele>271.171</ele>
        <time>2016-09-05T15:03:05.332Z</time>
      </trkpt>
      <trkpt lat="47.33583" lon="6.34809">
        <ele>270.929</ele>
        <time>2016-09-05T15:03:06.184Z</time>
      </trkpt>
      <trkpt lat="47.33584" lon="6.34808">
        <ele>270.808</ele>
        <time>2016-09-05T15:03:07.187Z</time>
      </trkpt>
      <trkpt lat="47.33585" lon="6.34807">
        <ele>270.781</ele>
        <time>2016-09-05T15:03:08.193Z</time>
      </trkpt>
      <trkpt lat="47.33586" lon="6.34805">
        <ele>271.874</ele>
        <time>2016-09-05T15:03:09.208Z</time>
      </trkpt>
      <trkpt lat="47.33587" lon="6.34803">
        <ele>272.09</ele>
        <time>2016-09-05T15:03:10.198Z</time>
      </trkpt>
      <trkpt lat="47.33587" lon="6.34801">
        <ele>272.527</ele>
        <time>2016-09-05T15:03:11.306Z</time>
      </trkpt>
      <trkpt lat="47.33588" lon="6.348">
        <ele>273.294</ele>
        <time>2016-09-05T15:03:12.309Z</time>
      </trkpt>
      <trkpt lat="47.33588" lon="6.34798">
        <ele>273.749</ele>
        <time>2016-09-05T15:03:13.290Z</time>
      </trkpt>
      <trkpt lat="47.33589" lon="6.34796">
        <ele>274.354</ele>
        <time>2016-09-05T15:03:14.300Z</time>
      </trkpt>
      <trkpt lat="47.3359" lon="6.34794">
        <ele>273.368</ele>
        <time>2016-09-05T15:03:15.212Z</time>
      </trkpt>
      <trkpt lat="47.33591" lon="6.34793">
        <ele>271.854</ele>
        <time>2016-09-05T15:03:16.194Z</time>
      </trkpt>
      <trkpt lat="47.33592" lon="6.34792">
        <ele>271.234</ele>
        <time>2016-09-05T15:03:17.155Z</time>
      </trkpt>
      <trkpt lat="47.33593" lon="6.3479">
        <ele>272.009</ele>
        <time>2016-09-05T15:03:18.257Z</time>
      </trkpt>
      <trkpt lat="47.33594" lon="6.34788">
        <ele>271.941</ele>
        <time>2016-09-05T15:03:19.264Z</time>
      </trkpt>
      <trkpt lat="47.33596" lon="6.34786">
        <ele>271.228</ele>
        <time>2016-09-05T15:03:20.378Z</time>
      </trkpt>
      <trkpt lat="47.33597" lon="6.34784">
        <ele>271.617</ele>
        <time>2016-09-05T15:03:21.440Z</time>
      </trkpt>
      <trkpt lat="47.33598" lon="6.34781">
        <ele>270.741</ele>
        <time>2016-09-05T15:03:22.228Z</time>
      </trkpt>
      <trkpt lat="47.33599" lon="6.34778">
        <ele>271.146</ele>
        <time>2016-09-05T15:03:23.190Z</time>
      </trkpt>
      <trkpt lat="47.33601" lon="6.34775">
        <ele>271.879</ele>
        <time>2016-09-05T15:03:24.203Z</time>
      </trkpt>
      <trkpt lat="47.33602" lon="6.34771">
        <ele>272.307</ele>
        <time>2016-09-05T15:03:25.213Z</time>
      </trkpt>
      <trkpt lat="47.33604" lon="6.34768">
        <ele>272.182</ele>
        <time>2016-09-05T15:03:26.214Z</time>
      </trkpt>
      <trkpt lat="47.33606" lon="6.34765">
        <ele>273.382</ele>
        <time>2016-09-05T15:03:27.301Z</time>
      </trkpt>
      <trkpt lat="47.33608" lon="6.34762">
        <ele>274.395</ele>
        <time>2016-09-05T15:03:28.311Z</time>
      </trkpt>
      <trkpt lat="47.33609" lon="6.34759">
        <ele>274.014</ele>
        <time>2016-09-05T15:03:29.202Z</time>
      </trkpt>
      <trkpt lat="47.33611" lon="6.34755">
        <ele>273.914</ele>
        <time>2016-09-05T15:03:30.175Z</time>
      </trkpt>
      <trkpt lat="47.33613" lon="6.34752">
        <ele>274.888</ele>
        <time>2016-09-05T15:03:31.241Z</time>
      </trkpt>
      <trkpt lat="47.33615" lon="6.34749">
        <ele>275.669</ele>
        <time>2016-09-05T15:03:32.261Z</time>
      </trkpt>
      <trkpt lat="47.33616" lon="6.34746">
        <ele>275.174</ele>
        <time>2016-09-05T15:03:33.354Z</time>
      </trkpt>
      <trkpt lat="47.33617" lon="6.34742">
        <ele>275.344</ele>
        <time>2016-09-05T15:03:34.492Z</time>
      </trkpt>
      <trkpt lat="47.33619" lon="6.34739">
        <ele>275.483</ele>
        <time>2016-09-05T15:03:35.336Z</time>
      </trkpt>
      <trkpt lat="47.3362" lon="6.34736">
        <ele>275.674</ele>
        <time>2016-09-05T15:03:36.158Z</time>
      </trkpt>
      <trkpt lat="47.33622" lon="6.34733">
        <ele>275.142</ele>
        <time>2016-09-05T15:03:37.208Z</time>
      </trkpt>
      <trkpt lat="47.33624" lon="6.34729">
        <ele>275.668</ele>
        <time>2016-09-05T15:03:38.245Z</time>
      </trkpt>
      <trkpt lat="47.33626" lon="6.34724">
        <ele>275.087</ele>
        <time>2016-09-05T15:03:39.191Z</time>
      </trkpt>
      <trkpt lat="47.33629" lon="6.3472">
        <ele>274.454</ele>
        <time>2016-09-05T15:03:40.200Z</time>
      </trkpt>
      <trkpt lat="47.33632" lon="6.34716">
        <ele>275.006</ele>
        <time>2016-09-05T15:03:41.214Z</time>
      </trkpt>
      <trkpt lat="47.33635" lon="6.34711">
        <ele>273.671</ele>
        <time>2016-09-05T15:03:42.214Z</time>
      </trkpt>
      <trkpt lat="47.33639" lon="6.34707">
        <ele>273.734</ele>
        <time>2016-09-05T15:03:43.352Z</time>
      </trkpt>
      <trkpt lat="47.33645" lon="6.34699">
        <ele>273.725</ele>
        <time>2016-09-05T15:03:44.383Z</time>
      </trkpt>
      <trkpt lat="47.3365" lon="6.34693">
        <ele>274.222</ele>
        <time>2016-09-05T15:03:45.333Z</time>
      </trkpt>
      <trkpt lat="47.33657" lon="6.34688">
        <ele>273.17</ele>
        <time>2016-09-05T15:03:46.430Z</time>
      </trkpt>
      <trkpt lat="47.33663" lon="6.34684">
        <ele>273.365</ele>
        <time>2016-09-05T15:03:47.267Z</time>
      </trkpt>
      <trkpt lat="47.33672" lon="6.3468">
        <ele>271.227</ele>
        <time>2016-09-05T15:03:48.219Z</time>
      </trkpt>
      <trkpt lat="47.3368" lon="6.34675">
        <ele>271.472</ele>
        <time>2016-09-05T15:03:49.212Z</time>
      </trkpt>
      <trkpt lat="47.33687" lon="6.3467">
        <ele>269.471</ele>
        <time>2016-09-05T15:03:50.229Z</time>
      </trkpt>
      <trkpt lat="47.33687" lon="6.3467">
        <ele>269.471</ele>
        <time>2016-09-05T15:03:50.559Z</time>
      </trkpt>
      <trkpt lat="47.33693" lon="6.34666">
        <ele>268.664</ele>
        <time>2016-09-05T15:03:51.250Z</time>
      </trkpt>
      <trkpt lat="47.33699" lon="6.34661">
        <ele>266.638</ele>
        <time>2016-09-05T15:03:52.380Z</time>
      </trkpt>
      <trkpt lat="47.33706" lon="6.34659">
        <ele>267.874</ele>
        <time>2016-09-05T15:03:53.383Z</time>
      </trkpt>
      <trkpt lat="47.33711" lon="6.34655">
        <ele>266.081</ele>
        <time>2016-09-05T15:03:54.218Z</time>
      </trkpt>
      <trkpt lat="47.33719" lon="6.34654">
        <ele>263.939</ele>
        <time>2016-09-05T15:03:55.204Z</time>
      </trkpt>
      <trkpt lat="47.33723" lon="6.3465">
        <ele>263.88</ele>
        <time>2016-09-05T15:03:56.189Z</time>
      </trkpt>
      <trkpt lat="47.33727" lon="6.34647">
        <ele>263.652</ele>
        <time>2016-09-05T15:03:57.192Z</time>
      </trkpt>
      <trkpt lat="47.33731" lon="6.34645">
        <ele>263.802</ele>
        <time>2016-09-05T15:03:58.259Z</time>
      </trkpt>
      <trkpt lat="47.33736" lon="6.34644">
        <ele>264.354</ele>
        <time>2016-09-05T15:03:59.237Z</time>
      </trkpt>
      <trkpt lat="47.3374" lon="6.34641">
        <ele>264.742</ele>
        <time>2016-09-05T15:04:00.180Z</time>
      </trkpt>
      <trkpt lat="47.33744" lon="6.34639">
        <ele>264.906</ele>
        <time>2016-09-05T15:04:01.316Z</time>
      </trkpt>
      <trkpt lat="47.33744" lon="6.34639">
        <ele>264.906</ele>
        <time>2016-09-05T15:04:02.108Z</time>
      </trkpt>
      <trkpt lat="47.33746" lon="6.34638">
        <ele>265.472</ele>
        <time>2016-09-05T15:04:02.434Z</time>
      </trkpt>
      <trkpt lat="47.33749" lon="6.34636">
        <ele>265.41</ele>
        <time>2016-09-05T15:04:03.231Z</time>
      </trkpt>
      <trkpt lat="47.33753" lon="6.34634">
        <ele>265.573</ele>
        <time>2016-09-05T15:04:04.303Z</time>
      </trkpt>
      <trkpt lat="47.33757" lon="6.34631">
        <ele>265.707</ele>
        <time>2016-09-05T15:04:05.353Z</time>
      </trkpt>
      <trkpt lat="47.33761" lon="6.34627">
        <ele>265.993</ele>
        <time>2016-09-05T15:04:06.280Z</time>
      </trkpt>
      <trkpt lat="47.33764" lon="6.34624">
        <ele>265.979</ele>
        <time>2016-09-05T15:04:07.235Z</time>
      </trkpt>
      <trkpt lat="47.33771" lon="6.34616">
        <ele>268.126</ele>
        <time>2016-09-05T15:04:08.354Z</time>
      </trkpt>
      <trkpt lat="47.33776" lon="6.34608">
        <ele>266.821</ele>
        <time>2016-09-05T15:04:09.475Z</time>
      </trkpt>
      <trkpt lat="47.33782" lon="6.346">
        <ele>265.508</ele>
        <time>2016-09-05T15:04:10.347Z</time>
      </trkpt>
      <trkpt lat="47.33789" lon="6.3459">
        <ele>264.86</ele>
        <time>2016-09-05T15:04:11.343Z</time>
      </trkpt>
      <trkpt lat="47.33794" lon="6.34581">
        <ele>264.201</ele>
        <time>2016-09-05T15:04:12.349Z</time>
      </trkpt>
      <trkpt lat="47.33801" lon="6.34571">
        <ele>265.557</ele>
        <time>2016-09-05T15:04:13.365Z</time>
      </trkpt>
      <trkpt lat="47.33807" lon="6.34561">
        <ele>265.539</ele>
        <time>2016-09-05T15:04:14.236Z</time>
      </trkpt>
      <trkpt lat="47.33813" lon="6.34553">
        <ele>266.177</ele>
        <time>2016-09-05T15:04:15.214Z</time>
      </trkpt>
      <trkpt lat="47.3382" lon="6.34543">
        <ele>265.397</ele>
        <time>2016-09-05T15:04:16.335Z</time>
      </trkpt>
      <trkpt lat="47.33824" lon="6.34534">
        <ele>265.552</ele>
        <time>2016-09-05T15:04:17.353Z</time>
      </trkpt>
      <trkpt lat="47.33828" lon="6.34525">
        <ele>265.571</ele>
        <time>2016-09-05T15:04:18.234Z</time>
      </trkpt>
      <trkpt lat="47.33835" lon="6.3452">
        <ele>264.882</ele>
        <time>2016-09-05T15:04:19.206Z</time>
      </trkpt>
      <trkpt lat="47.33841" lon="6.34512">
        <ele>265.077</ele>
        <time>2016-09-05T15:04:20.327Z</time>
      </trkpt>
      <trkpt lat="47.33846" lon="6.34504">
        <ele>265.702</ele>
        <time>2016-09-05T15:04:21.347Z</time>
      </trkpt>
      <trkpt lat="47.33851" lon="6.34494">
        <ele>266.429</ele>
        <time>2016-09-05T15:04:22.335Z</time>
      </trkpt>
      <trkpt lat="47.33856" lon="6.34488">
        <ele>267.812</ele>
        <time>2016-09-05T15:04:23.347Z</time>
      </trkpt>
      <trkpt lat="47.3386" lon="6.34478">
        <ele>268.584</ele>
        <time>2016-09-05T15:04:24.363Z</time>
      </trkpt>
      <trkpt lat="47.33863" lon="6.34469">
        <ele>268.84</ele>
        <time>2016-09-05T15:04:25.353Z</time>
      </trkpt>
      <trkpt lat="47.33868" lon="6.34462">
        <ele>268.874</ele>
        <time>2016-09-05T15:04:26.214Z</time>
      </trkpt>
      <trkpt lat="47.33873" lon="6.34457">
        <ele>269.815</ele>
        <time>2016-09-05T15:04:27.219Z</time>
      </trkpt>
      <trkpt lat="47.33876" lon="6.34452">
        <ele>271.301</ele>
        <time>2016-09-05T15:04:28.338Z</time>
      </trkpt>
      <trkpt lat="47.33879" lon="6.34443">
        <ele>271.807</ele>
        <time>2016-09-05T15:04:29.354Z</time>
      </trkpt>
      <trkpt lat="47.33883" lon="6.34436">
        <ele>271.856</ele>
        <time>2016-09-05T15:04:30.238Z</time>
      </trkpt>
      <trkpt lat="47.33887" lon="6.34429">
        <ele>271.618</ele>
        <time>2016-09-05T15:04:31.218Z</time>
      </trkpt>
      <trkpt lat="47.33892" lon="6.34423">
        <ele>271.831</ele>
        <time>2016-09-05T15:04:32.339Z</time>
      </trkpt>
      <trkpt lat="47.33896" lon="6.34417">
        <ele>271.887</ele>
        <time>2016-09-05T15:04:33.253Z</time>
      </trkpt>
      <trkpt lat="47.33901" lon="6.34418">
        <ele>269.601</ele>
        <time>2016-09-05T15:04:34.293Z</time>
      </trkpt>
      <trkpt lat="47.33906" lon="6.34413">
        <ele>269.608</ele>
        <time>2016-09-05T15:04:35.370Z</time>
      </trkpt>
      <trkpt lat="47.33912" lon="6.34412">
        <ele>269.188</ele>
        <time>2016-09-05T15:04:36.256Z</time>
      </trkpt>
      <trkpt lat="47.33916" lon="6.34406">
        <ele>269.153</ele>
        <time>2016-09-05T15:04:37.207Z</time>
      </trkpt>
      <trkpt lat="47.33919" lon="6.34402">
        <ele>266.105</ele>
        <time>2016-09-05T15:04:38.184Z</time>
      </trkpt>
      <trkpt lat="47.33923" lon="6.34396">
        <ele>265.853</ele>
        <time>2016-09-05T15:04:39.180Z</time>
      </trkpt>
      <trkpt lat="47.33926" lon="6.34392">
        <ele>265.887</ele>
        <time>2016-09-05T15:04:40.171Z</time>
      </trkpt>
      <trkpt lat="47.33929" lon="6.34387">
        <ele>266.892</ele>
        <time>2016-09-05T15:04:41.217Z</time>
      </trkpt>
      <trkpt lat="47.33931" lon="6.34381">
        <ele>267.456</ele>
        <time>2016-09-05T15:04:42.019Z</time>
      </trkpt>
      <trkpt lat="47.33931" lon="6.34381">
        <ele>267.456</ele>
        <time>2016-09-05T15:04:42.512Z</time>
      </trkpt>
      <trkpt lat="47.33934" lon="6.34376">
        <ele>267.984</ele>
        <time>2016-09-05T15:04:43.015Z</time>
      </trkpt>
      <trkpt lat="47.33937" lon="6.34369">
        <ele>266.477</ele>
        <time>2016-09-05T15:04:44.011Z</time>
      </trkpt>
      <trkpt lat="47.3394" lon="6.34365">
        <ele>266.899</ele>
        <time>2016-09-05T15:04:45.007Z</time>
      </trkpt>
      <trkpt lat="47.33943" lon="6.3436">
        <ele>267.521</ele>
        <time>2016-09-05T15:04:46.003Z</time>
      </trkpt>
      <trkpt lat="47.33943" lon="6.3436">
        <ele>267.521</ele>
        <time>2016-09-05T15:04:46.845Z</time>
      </trkpt>
      <trkpt lat="47.33946" lon="6.34356">
        <ele>269.107</ele>
        <time>2016-09-05T15:04:47.000Z</time>
      </trkpt>
      <trkpt lat="47.3395" lon="6.34351">
        <ele>269.534</ele>
        <time>2016-09-05T15:04:48.000Z</time>
      </trkpt>
      <trkpt lat="47.33953" lon="6.34349">
        <ele>270.07</ele>
        <time>2016-09-05T15:04:49.000Z</time>
      </trkpt>
      <trkpt lat="47.33956" lon="6.34345">
        <ele>270.011</ele>
        <time>2016-09-05T15:04:50.000Z</time>
      </trkpt>
      <trkpt lat="47.3396" lon="6.34341">
        <ele>270.345</ele>
        <time>2016-09-05T15:04:51.000Z</time>
      </trkpt>
      <trkpt lat="47.33963" lon="6.34336">
        <ele>270.81</ele>
        <time>2016-09-05T15:04:52.000Z</time>
      </trkpt>
      <trkpt lat="47.33966" lon="6.34332">
        <ele>270.547</ele>
        <time>2016-09-05T15:04:53.000Z</time>
      </trkpt>
      <trkpt lat="47.33969" lon="6.34327">
        <ele>270.002</ele>
        <time>2016-09-05T15:04:54.000Z</time>
      </trkpt>
      <trkpt lat="47.33973" lon="6.3432">
        <ele>270.166</ele>
        <time>2016-09-05T15:04:55.000Z</time>
      </trkpt>
      <trkpt lat="47.33976" lon="6.34317">
        <ele>267.621</ele>
        <time>2016-09-05T15:04:56.000Z</time>
      </trkpt>
      <trkpt lat="47.33978" lon="6.34311">
        <ele>268.413</ele>
        <time>2016-09-05T15:04:57.000Z</time>
      </trkpt>
      <trkpt lat="47.33982" lon="6.34305">
        <ele>266.665</ele>
        <time>2016-09-05T15:04:58.000Z</time>
      </trkpt>
      <trkpt lat="47.33985" lon="6.34298">
        <ele>266.054</ele>
        <time>2016-09-05T15:04:59.000Z</time>
      </trkpt>
      <trkpt lat="47.33988" lon="6.34292">
        <ele>265.66</ele>
        <time>2016-09-05T15:05:00.000Z</time>
      </trkpt>
      <trkpt lat="47.3399" lon="6.34285">
        <ele>265.606</ele>
        <time>2016-09-05T15:05:01.000Z</time>
      </trkpt>
      <trkpt lat="47.33993" lon="6.34282">
        <ele>264.822</ele>
        <time>2016-09-05T15:05:02.000Z</time>
      </trkpt>
      <trkpt lat="47.33995" lon="6.34276">
        <ele>266.129</ele>
        <time>2016-09-05T15:05:03.000Z</time>
      </trkpt>
      <trkpt lat="47.33999" lon="6.3427">
        <ele>265.703</ele>
        <time>2016-09-05T15:05:04.000Z</time>
      </trkpt>
      <trkpt lat="47.34001" lon="6.34265">
        <ele>265.426</ele>
        <time>2016-09-05T15:05:05.000Z</time>
      </trkpt>
      <trkpt lat="47.34005" lon="6.34259">
        <ele>265.764</ele>
        <time>2016-09-05T15:05:06.000Z</time>
      </trkpt>
      <trkpt lat="47.34008" lon="6.34254">
        <ele>265.116</ele>
        <time>2016-09-05T15:05:07.000Z</time>
      </trkpt>
      <trkpt lat="47.3401" lon="6.34248">
        <ele>265.888</ele>
        <time>2016-09-05T15:05:08.000Z</time>
      </trkpt>
      <trkpt lat="47.34013" lon="6.34241">
        <ele>265.833</ele>
        <time>2016-09-05T15:05:09.000Z</time>
      </trkpt>
      <trkpt lat="47.34015" lon="6.34233">
        <ele>265.479</ele>
        <time>2016-09-05T15:05:10.000Z</time>
      </trkpt>
      <trkpt lat="47.34019" lon="6.34229">
        <ele>265.242</ele>
        <time>2016-09-05T15:05:11.000Z</time>
      </trkpt>
      <trkpt lat="47.34022" lon="6.34223">
        <ele>265.524</ele>
        <time>2016-09-05T15:05:12.000Z</time>
      </trkpt>
      <trkpt lat="47.34024" lon="6.34219">
        <ele>267.487</ele>
        <time>2016-09-05T15:05:13.000Z</time>
      </trkpt>
      <trkpt lat="47.34027" lon="6.34213">
        <ele>268.486</ele>
        <time>2016-09-05T15:05:14.000Z</time>
      </trkpt>
      <trkpt lat="47.34028" lon="6.34206">
        <ele>269.611</ele>
        <time>2016-09-05T15:05:15.000Z</time>
      </trkpt>
      <trkpt lat="47.3403" lon="6.342">
        <ele>269.969</ele>
        <time>2016-09-05T15:05:16.000Z</time>
      </trkpt>
      <trkpt lat="47.34033" lon="6.34193">
        <ele>270.885</ele>
        <time>2016-09-05T15:05:17.000Z</time>
      </trkpt>
      <trkpt lat="47.34034" lon="6.34187">
        <ele>271.33</ele>
        <time>2016-09-05T15:05:18.000Z</time>
      </trkpt>
      <trkpt lat="47.34042" lon="6.34183">
        <ele>267.193</ele>
        <time>2016-09-05T15:05:19.000Z</time>
      </trkpt>
      <trkpt lat="47.34044" lon="6.34179">
        <ele>265.689</ele>
        <time>2016-09-05T15:05:20.000Z</time>
      </trkpt>
      <trkpt lat="47.34048" lon="6.34174">
        <ele>265.392</ele>
        <time>2016-09-05T15:05:21.000Z</time>
      </trkpt>
      <trkpt lat="47.3405" lon="6.34169">
        <ele>263.432</ele>
        <time>2016-09-05T15:05:22.000Z</time>
      </trkpt>
      <trkpt lat="47.34051" lon="6.34163">
        <ele>262.518</ele>
        <time>2016-09-05T15:05:23.000Z</time>
      </trkpt>
      <trkpt lat="47.34052" lon="6.34156">
        <ele>262.479</ele>
        <time>2016-09-05T15:05:24.000Z</time>
      </trkpt>
      <trkpt lat="47.34053" lon="6.3415">
        <ele>263.549</ele>
        <time>2016-09-05T15:05:25.000Z</time>
      </trkpt>
      <trkpt lat="47.34054" lon="6.34144">
        <ele>262.656</ele>
        <time>2016-09-05T15:05:26.000Z</time>
      </trkpt>
      <trkpt lat="47.34055" lon="6.34138">
        <ele>262.941</ele>
        <time>2016-09-05T15:05:27.000Z</time>
      </trkpt>
      <trkpt lat="47.34055" lon="6.34131">
        <ele>261.96</ele>
        <time>2016-09-05T15:05:28.000Z</time>
      </trkpt>
      <trkpt lat="47.34058" lon="6.34127">
        <ele>260.673</ele>
        <time>2016-09-05T15:05:29.000Z</time>
      </trkpt>
      <trkpt lat="47.34061" lon="6.34123">
        <ele>260.089</ele>
        <time>2016-09-05T15:05:30.000Z</time>
      </trkpt>
      <trkpt lat="47.34062" lon="6.34114">
        <ele>260.018</ele>
        <time>2016-09-05T15:05:31.000Z</time>
      </trkpt>
      <trkpt lat="47.34064" lon="6.34109">
        <ele>260.176</ele>
        <time>2016-09-05T15:05:32.000Z</time>
      </trkpt>
      <trkpt lat="47.34066" lon="6.34104">
        <ele>260.166</ele>
        <time>2016-09-05T15:05:33.000Z</time>
      </trkpt>
      <trkpt lat="47.34067" lon="6.34096">
        <ele>257.53</ele>
        <time>2016-09-05T15:05:34.000Z</time>
      </trkpt>
      <trkpt lat="47.34067" lon="6.34091">
        <ele>257.578</ele>
        <time>2016-09-05T15:05:35.000Z</time>
      </trkpt>
      <trkpt lat="47.34069" lon="6.34087">
        <ele>256.738</ele>
        <time>2016-09-05T15:05:36.000Z</time>
      </trkpt>
      <trkpt lat="47.34072" lon="6.34082">
        <ele>256.586</ele>
        <time>2016-09-05T15:05:37.000Z</time>
      </trkpt>
      <trkpt lat="47.34075" lon="6.34075">
        <ele>253.893</ele>
        <time>2016-09-05T15:05:38.000Z</time>
      </trkpt>
      <trkpt lat="47.34077" lon="6.3407">
        <ele>253.754</ele>
        <time>2016-09-05T15:05:39.000Z</time>
      </trkpt>
      <trkpt lat="47.34078" lon="6.34062">
        <ele>254.125</ele>
        <time>2016-09-05T15:05:40.000Z</time>
      </trkpt>
      <trkpt lat="47.34079" lon="6.34056">
        <ele>253.949</ele>
        <time>2016-09-05T15:05:41.000Z</time>
      </trkpt>
      <trkpt lat="47.3408" lon="6.3405">
        <ele>254.353</ele>
        <time>2016-09-05T15:05:42.000Z</time>
      </trkpt>
      <trkpt lat="47.34081" lon="6.34043">
        <ele>255.716</ele>
        <time>2016-09-05T15:05:43.000Z</time>
      </trkpt>
      <trkpt lat="47.34083" lon="6.34036">
        <ele>254.723</ele>
        <time>2016-09-05T15:05:44.000Z</time>
      </trkpt>
      <trkpt lat="47.34085" lon="6.3403">
        <ele>254.85</ele>
        <time>2016-09-05T15:05:45.000Z</time>
      </trkpt>
      <trkpt lat="47.34087" lon="6.34024">
        <ele>254.626</ele>
        <time>2016-09-05T15:05:46.000Z</time>
      </trkpt>
      <trkpt lat="47.34093" lon="6.34016">
        <ele>256.05</ele>
        <time>2016-09-05T15:05:47.000Z</time>
      </trkpt>
      <trkpt lat="47.34094" lon="6.34009">
        <ele>257.678</ele>
        <time>2016-09-05T15:05:48.000Z</time>
      </trkpt>
      <trkpt lat="47.34095" lon="6.34002">
        <ele>258.146</ele>
        <time>2016-09-05T15:05:49.000Z</time>
      </trkpt>
      <trkpt lat="47.34097" lon="6.33997">
        <ele>258.109</ele>
        <time>2016-09-05T15:05:50.000Z</time>
      </trkpt>
      <trkpt lat="47.34099" lon="6.33991">
        <ele>260.062</ele>
        <time>2016-09-05T15:05:51.000Z</time>
      </trkpt>
      <trkpt lat="47.34099" lon="6.33984">
        <ele>261.132</ele>
        <time>2016-09-05T15:05:52.000Z</time>
      </trkpt>
      <trkpt lat="47.341" lon="6.33978">
        <ele>260.155</ele>
        <time>2016-09-05T15:05:53.000Z</time>
      </trkpt>
      <trkpt lat="47.34102" lon="6.33972">
        <ele>261.787</ele>
        <time>2016-09-05T15:05:54.000Z</time>
      </trkpt>
      <trkpt lat="47.34103" lon="6.33965">
        <ele>263.218</ele>
        <time>2016-09-05T15:05:55.000Z</time>
      </trkpt>
      <trkpt lat="47.34103" lon="6.33959">
        <ele>264.454</ele>
        <time>2016-09-05T15:05:56.000Z</time>
      </trkpt>
      <trkpt lat="47.34103" lon="6.33951">
        <ele>264.575</ele>
        <time>2016-09-05T15:05:57.000Z</time>
      </trkpt>
      <trkpt lat="47.34103" lon="6.33944">
        <ele>266.3</ele>
        <time>2016-09-05T15:05:58.000Z</time>
      </trkpt>
      <trkpt lat="47.34104" lon="6.33939">
        <ele>266.832</ele>
        <time>2016-09-05T15:05:59.000Z</time>
      </trkpt>
      <trkpt lat="47.34105" lon="6.33933">
        <ele>266.156</ele>
        <time>2016-09-05T15:06:00.000Z</time>
      </trkpt>
      <trkpt lat="47.34106" lon="6.33925">
        <ele>266.463</ele>
        <time>2016-09-05T15:06:01.000Z</time>
      </trkpt>
      <trkpt lat="47.34108" lon="6.33922">
        <ele>264.477</ele>
        <time>2016-09-05T15:06:02.000Z</time>
      </trkpt>
      <trkpt lat="47.34107" lon="6.33915">
        <ele>265.418</ele>
        <time>2016-09-05T15:06:03.000Z</time>
      </trkpt>
      <trkpt lat="47.34106" lon="6.33909">
        <ele>264.312</ele>
        <time>2016-09-05T15:06:04.000Z</time>
      </trkpt>
      <trkpt lat="47.34107" lon="6.33904">
        <ele>262.33</ele>
        <time>2016-09-05T15:06:05.000Z</time>
      </trkpt>
      <trkpt lat="47.34108" lon="6.33897">
        <ele>262.684</ele>
        <time>2016-09-05T15:06:06.000Z</time>
      </trkpt>
      <trkpt lat="47.34109" lon="6.33891">
        <ele>262.618</ele>
        <time>2016-09-05T15:06:07.000Z</time>
      </trkpt>
      <trkpt lat="47.34114" lon="6.33883">
        <ele>263.131</ele>
        <time>2016-09-05T15:06:08.000Z</time>
      </trkpt>
      <trkpt lat="47.34117" lon="6.33878">
        <ele>262.384</ele>
        <time>2016-09-05T15:06:09.000Z</time>
      </trkpt>
      <trkpt lat="47.34118" lon="6.33874">
        <ele>261.968</ele>
        <time>2016-09-05T15:06:10.000Z</time>
      </trkpt>
      <trkpt lat="47.34118" lon="6.3387">
        <ele>263.258</ele>
        <time>2016-09-05T15:06:11.000Z</time>
      </trkpt>
      <trkpt lat="47.34118" lon="6.33867">
        <ele>263.046</ele>
        <time>2016-09-05T15:06:12.000Z</time>
      </trkpt>
      <trkpt lat="47.34117" lon="6.33863">
        <ele>263.098</ele>
        <time>2016-09-05T15:06:13.000Z</time>
      </trkpt>
      <trkpt lat="47.34117" lon="6.33855">
        <ele>263.161</ele>
        <time>2016-09-05T15:06:14.000Z</time>
      </trkpt>
      <trkpt lat="47.34117" lon="6.33849">
        <ele>261.369</ele>
        <time>2016-09-05T15:06:15.000Z</time>
      </trkpt>
      <trkpt lat="47.34117" lon="6.33841">
        <ele>260.928</ele>
        <time>2016-09-05T15:06:16.000Z</time>
      </trkpt>
      <trkpt lat="47.34117" lon="6.33832">
        <ele>261.531</ele>
        <time>2016-09-05T15:06:17.000Z</time>
      </trkpt>
      <trkpt lat="47.34118" lon="6.33823">
        <ele>261.497</ele>
        <time>2016-09-05T15:06:18.000Z</time>
      </trkpt>
      <trkpt lat="47.34119" lon="6.33813">
        <ele>262.172</ele>
        <time>2016-09-05T15:06:19.000Z</time>
      </trkpt>
      <trkpt lat="47.34119" lon="6.33805">
        <ele>260.569</ele>
        <time>2016-09-05T15:06:20.000Z</time>
      </trkpt>
      <trkpt lat="47.34119" lon="6.33797">
        <ele>260.576</ele>
        <time>2016-09-05T15:06:21.000Z</time>
      </trkpt>
      <trkpt lat="47.3412" lon="6.33788">
        <ele>262.459</ele>
        <time>2016-09-05T15:06:22.000Z</time>
      </trkpt>
      <trkpt lat="47.3412" lon="6.33782">
        <ele>262.355</ele>
        <time>2016-09-05T15:06:23.000Z</time>
      </trkpt>
      <trkpt lat="47.34122" lon="6.3377">
        <ele>262.466</ele>
        <time>2016-09-05T15:06:24.000Z</time>
      </trkpt>
      <trkpt lat="47.34124" lon="6.33763">
        <ele>262.948</ele>
        <time>2016-09-05T15:06:25.000Z</time>
      </trkpt>
      <trkpt lat="47.34125" lon="6.33755">
        <ele>263.909</ele>
        <time>2016-09-05T15:06:26.000Z</time>
      </trkpt>
      <trkpt lat="47.34127" lon="6.33746">
        <ele>261.399</ele>
        <time>2016-09-05T15:06:27.000Z</time>
      </trkpt>
      <trkpt lat="47.34127" lon="6.33737">
        <ele>261.702</ele>
        <time>2016-09-05T15:06:28.000Z</time>
      </trkpt>
      <trkpt lat="47.34129" lon="6.33729">
        <ele>261.888</ele>
        <time>2016-09-05T15:06:29.000Z</time>
      </trkpt>
      <trkpt lat="47.34128" lon="6.33725">
        <ele>259.694</ele>
        <time>2016-09-05T15:06:30.000Z</time>
      </trkpt>
      <trkpt lat="47.3413" lon="6.3372">
        <ele>258.003</ele>
        <time>2016-09-05T15:06:31.000Z</time>
      </trkpt>
      <trkpt lat="47.34131" lon="6.33714">
        <ele>257.706</ele>
        <time>2016-09-05T15:06:32.000Z</time>
      </trkpt>
      <trkpt lat="47.34132" lon="6.33707">
        <ele>256.888</ele>
        <time>2016-09-05T15:06:33.000Z</time>
      </trkpt>
      <trkpt lat="47.34134" lon="6.33701">
        <ele>257.015</ele>
        <time>2016-09-05T15:06:34.000Z</time>
      </trkpt>
      <trkpt lat="47.34135" lon="6.33695">
        <ele>257.707</ele>
        <time>2016-09-05T15:06:35.000Z</time>
      </trkpt>
      <trkpt lat="47.34137" lon="6.33688">
        <ele>256.095</ele>
        <time>2016-09-05T15:06:36.000Z</time>
      </trkpt>
      <trkpt lat="47.34139" lon="6.33681">
        <ele>255.195</ele>
        <time>2016-09-05T15:06:37.000Z</time>
      </trkpt>
      <trkpt lat="47.3414" lon="6.33674">
        <ele>255.847</ele>
        <time>2016-09-05T15:06:38.000Z</time>
      </trkpt>
      <trkpt lat="47.3414" lon="6.33669">
        <ele>255.856</ele>
        <time>2016-09-05T15:06:39.000Z</time>
      </trkpt>
      <trkpt lat="47.34142" lon="6.33662">
        <ele>256.104</ele>
        <time>2016-09-05T15:06:40.000Z</time>
      </trkpt>
      <trkpt lat="47.34143" lon="6.33655">
        <ele>255.753</ele>
        <time>2016-09-05T15:06:41.000Z</time>
      </trkpt>
      <trkpt lat="47.34145" lon="6.33649">
        <ele>256.935</ele>
        <time>2016-09-05T15:06:42.000Z</time>
      </trkpt>
      <trkpt lat="47.34146" lon="6.33643">
        <ele>257.582</ele>
        <time>2016-09-05T15:06:43.000Z</time>
      </trkpt>
      <trkpt lat="47.34147" lon="6.33636">
        <ele>255.893</ele>
        <time>2016-09-05T15:06:44.000Z</time>
      </trkpt>
      <trkpt lat="47.34148" lon="6.33629">
        <ele>255.397</ele>
        <time>2016-09-05T15:06:45.000Z</time>
      </trkpt>
      <trkpt lat="47.3415" lon="6.3362">
        <ele>254.761</ele>
        <time>2016-09-05T15:06:46.000Z</time>
      </trkpt>
      <trkpt lat="47.3415" lon="6.33614">
        <ele>254.407</ele>
        <time>2016-09-05T15:06:47.000Z</time>
      </trkpt>
      <trkpt lat="47.34151" lon="6.33608">
        <ele>253.34</ele>
        <time>2016-09-05T15:06:48.000Z</time>
      </trkpt>
      <trkpt lat="47.34154" lon="6.33601">
        <ele>252.198</ele>
        <time>2016-09-05T15:06:49.000Z</time>
      </trkpt>
      <trkpt lat="47.34155" lon="6.33594">
        <ele>251.875</ele>
        <time>2016-09-05T15:06:50.000Z</time>
      </trkpt>
      <trkpt lat="47.34158" lon="6.33586">
        <ele>252.318</ele>
        <time>2016-09-05T15:06:51.000Z</time>
      </trkpt>
      <trkpt lat="47.34158" lon="6.33581">
        <ele>252.794</ele>
        <time>2016-09-05T15:06:52.000Z</time>
      </trkpt>
      <trkpt lat="47.3416" lon="6.33574">
        <ele>251.971</ele>
        <time>2016-09-05T15:06:53.000Z</time>
      </trkpt>
      <trkpt lat="47.34162" lon="6.33567">
        <ele>252.378</ele>
        <time>2016-09-05T15:06:54.000Z</time>
      </trkpt>
      <trkpt lat="47.34163" lon="6.3356">
        <ele>252.47</ele>
        <time>2016-09-05T15:06:55.000Z</time>
      </trkpt>
      <trkpt lat="47.34164" lon="6.33553">
        <ele>253.064</ele>
        <time>2016-09-05T15:06:56.000Z</time>
      </trkpt>
      <trkpt lat="47.34166" lon="6.33548">
        <ele>253.367</ele>
        <time>2016-09-05T15:06:57.000Z</time>
      </trkpt>
      <trkpt lat="47.34167" lon="6.33541">
        <ele>253.403</ele>
        <time>2016-09-05T15:06:58.000Z</time>
      </trkpt>
      <trkpt lat="47.34168" lon="6.33534">
        <ele>253.34</ele>
        <time>2016-09-05T15:06:59.000Z</time>
      </trkpt>
      <trkpt lat="47.3417" lon="6.33528">
        <ele>252.379</ele>
        <time>2016-09-05T15:07:00.000Z</time>
      </trkpt>
      <trkpt lat="47.34172" lon="6.33522">
        <ele>252.935</ele>
        <time>2016-09-05T15:07:01.000Z</time>
      </trkpt>
      <trkpt lat="47.34173" lon="6.33514">
        <ele>251.938</ele>
        <time>2016-09-05T15:07:02.000Z</time>
      </trkpt>
      <trkpt lat="47.34175" lon="6.33507">
        <ele>253.497</ele>
        <time>2016-09-05T15:07:03.000Z</time>
      </trkpt>
      <trkpt lat="47.34176" lon="6.33501">
        <ele>255.033</ele>
        <time>2016-09-05T15:07:04.000Z</time>
      </trkpt>
      <trkpt lat="47.34176" lon="6.33495">
        <ele>255.736</ele>
        <time>2016-09-05T15:07:05.000Z</time>
      </trkpt>
      <trkpt lat="47.34177" lon="6.3349">
        <ele>253.006</ele>
        <time>2016-09-05T15:07:06.000Z</time>
      </trkpt>
      <trkpt lat="47.34179" lon="6.33484">
        <ele>253.419</ele>
        <time>2016-09-05T15:07:07.000Z</time>
      </trkpt>
      <trkpt lat="47.34179" lon="6.33478">
        <ele>252.843</ele>
        <time>2016-09-05T15:07:08.000Z</time>
      </trkpt>
      <trkpt lat="47.34181" lon="6.33471">
        <ele>252.228</ele>
        <time>2016-09-05T15:07:09.000Z</time>
      </trkpt>
      <trkpt lat="47.34183" lon="6.33465">
        <ele>249.933</ele>
        <time>2016-09-05T15:07:10.000Z</time>
      </trkpt>
      <trkpt lat="47.34184" lon="6.33459">
        <ele>251.087</ele>
        <time>2016-09-05T15:07:11.000Z</time>
      </trkpt>
      <trkpt lat="47.34186" lon="6.33453">
        <ele>251.623</ele>
        <time>2016-09-05T15:07:12.000Z</time>
      </trkpt>
      <trkpt lat="47.34187" lon="6.33448">
        <ele>252.271</ele>
        <time>2016-09-05T15:07:13.000Z</time>
      </trkpt>
      <trkpt lat="47.34188" lon="6.33441">
        <ele>251.797</ele>
        <time>2016-09-05T15:07:14.000Z</time>
      </trkpt>
      <trkpt lat="47.34189" lon="6.33435">
        <ele>251.373</ele>
        <time>2016-09-05T15:07:15.000Z</time>
      </trkpt>
      <trkpt lat="47.34189" lon="6.33429">
        <ele>252.988</ele>
        <time>2016-09-05T15:07:16.000Z</time>
      </trkpt>
      <trkpt lat="47.34191" lon="6.33423">
        <ele>252.497</ele>
        <time>2016-09-05T15:07:17.000Z</time>
      </trkpt>
      <trkpt lat="47.34191" lon="6.33417">
        <ele>252.983</ele>
        <time>2016-09-05T15:07:18.000Z</time>
      </trkpt>
      <trkpt lat="47.34193" lon="6.3341">
        <ele>252.885</ele>
        <time>2016-09-05T15:07:19.000Z</time>
      </trkpt>
      <trkpt lat="47.34194" lon="6.33404">
        <ele>252.344</ele>
        <time>2016-09-05T15:07:20.000Z</time>
      </trkpt>
      <trkpt lat="47.34196" lon="6.33399">
        <ele>253.344</ele>
        <time>2016-09-05T15:07:21.000Z</time>
      </trkpt>
      <trkpt lat="47.34197" lon="6.33391">
        <ele>252.682</ele>
        <time>2016-09-05T15:07:22.000Z</time>
      </trkpt>
      <trkpt lat="47.34197" lon="6.33385">
        <ele>252.485</ele>
        <time>2016-09-05T15:07:23.000Z</time>
      </trkpt>
      <trkpt lat="47.34197" lon="6.33381">
        <ele>251.66</ele>
        <time>2016-09-05T15:07:24.000Z</time>
      </trkpt>
      <trkpt lat="47.342" lon="6.33373">
        <ele>249.315</ele>
        <time>2016-09-05T15:07:25.000Z</time>
      </trkpt>
      <trkpt lat="47.34201" lon="6.33365">
        <ele>248.248</ele>
        <time>2016-09-05T15:07:26.000Z</time>
      </trkpt>
      <trkpt lat="47.34202" lon="6.33359">
        <ele>249.628</ele>
        <time>2016-09-05T15:07:27.000Z</time>
      </trkpt>
      <trkpt lat="47.34204" lon="6.33351">
        <ele>249.586</ele>
        <time>2016-09-05T15:07:28.000Z</time>
      </trkpt>
      <trkpt lat="47.34206" lon="6.33345">
        <ele>250.58</ele>
        <time>2016-09-05T15:07:29.000Z</time>
      </trkpt>
      <trkpt lat="47.34207" lon="6.33338">
        <ele>249.259</ele>
        <time>2016-09-05T15:07:30.000Z</time>
      </trkpt>
      <trkpt lat="47.34207" lon="6.33332">
        <ele>249.503</ele>
        <time>2016-09-05T15:07:31.000Z</time>
      </trkpt>
      <trkpt lat="47.34208" lon="6.33328">
        <ele>249.475</ele>
        <time>2016-09-05T15:07:32.000Z</time>
      </trkpt>
      <trkpt lat="47.34209" lon="6.33323">
        <ele>249.813</ele>
        <time>2016-09-05T15:07:33.000Z</time>
      </trkpt>
      <trkpt lat="47.34209" lon="6.33317">
        <ele>250.021</ele>
        <time>2016-09-05T15:07:34.000Z</time>
      </trkpt>
      <trkpt lat="47.34209" lon="6.33312">
        <ele>249.95</ele>
        <time>2016-09-05T15:07:35.000Z</time>
      </trkpt>
      <trkpt lat="47.34209" lon="6.3331">
        <ele>249.734</ele>
        <time>2016-09-05T15:07:36.000Z</time>
      </trkpt>
      <trkpt lat="47.34211" lon="6.33306">
        <ele>249.571</ele>
        <time>2016-09-05T15:07:37.000Z</time>
      </trkpt>
      <trkpt lat="47.34212" lon="6.33301">
        <ele>249.563</ele>
        <time>2016-09-05T15:07:38.000Z</time>
      </trkpt>
      <trkpt lat="47.34213" lon="6.33296">
        <ele>250.78</ele>
        <time>2016-09-05T15:07:39.000Z</time>
      </trkpt>
      <trkpt lat="47.34215" lon="6.3329">
        <ele>251.267</ele>
        <time>2016-09-05T15:07:40.000Z</time>
      </trkpt>
      <trkpt lat="47.34216" lon="6.33285">
        <ele>252.511</ele>
        <time>2016-09-05T15:07:41.000Z</time>
      </trkpt>
      <trkpt lat="47.34217" lon="6.33279">
        <ele>250.819</ele>
        <time>2016-09-05T15:07:42.000Z</time>
      </trkpt>
      <trkpt lat="47.34219" lon="6.33273">
        <ele>249.728</ele>
        <time>2016-09-05T15:07:43.000Z</time>
      </trkpt>
      <trkpt lat="47.34221" lon="6.33267">
        <ele>249.796</ele>
        <time>2016-09-05T15:07:44.000Z</time>
      </trkpt>
      <trkpt lat="47.34222" lon="6.33262">
        <ele>249.779</ele>
        <time>2016-09-05T15:07:45.000Z</time>
      </trkpt>
      <trkpt lat="47.34225" lon="6.33251">
        <ele>249.076</ele>
        <time>2016-09-05T15:07:46.000Z</time>
      </trkpt>
      <trkpt lat="47.34227" lon="6.33245">
        <ele>248.629</ele>
        <time>2016-09-05T15:07:47.000Z</time>
      </trkpt>
      <trkpt lat="47.34229" lon="6.33238">
        <ele>248.25</ele>
        <time>2016-09-05T15:07:48.000Z</time>
      </trkpt>
      <trkpt lat="47.34228" lon="6.33232">
        <ele>248.407</ele>
        <time>2016-09-05T15:07:49.000Z</time>
      </trkpt>
      <trkpt lat="47.3423" lon="6.33226">
        <ele>247.53</ele>
        <time>2016-09-05T15:07:50.000Z</time>
      </trkpt>
      <trkpt lat="47.34231" lon="6.3322">
        <ele>247.329</ele>
        <time>2016-09-05T15:07:51.000Z</time>
      </trkpt>
      <trkpt lat="47.34231" lon="6.33214">
        <ele>248.035</ele>
        <time>2016-09-05T15:07:52.000Z</time>
      </trkpt>
      <trkpt lat="47.34232" lon="6.33207">
        <ele>248.707</ele>
        <time>2016-09-05T15:07:53.000Z</time>
      </trkpt>
      <trkpt lat="47.34234" lon="6.33202">
        <ele>248.817</ele>
        <time>2016-09-05T15:07:54.000Z</time>
      </trkpt>
      <trkpt lat="47.34234" lon="6.33195">
        <ele>248.757</ele>
        <time>2016-09-05T15:07:55.000Z</time>
      </trkpt>
      <trkpt lat="47.34235" lon="6.33191">
        <ele>248.668</ele>
        <time>2016-09-05T15:07:56.000Z</time>
      </trkpt>
      <trkpt lat="47.34237" lon="6.33186">
        <ele>248.272</ele>
        <time>2016-09-05T15:07:57.000Z</time>
      </trkpt>
      <trkpt lat="47.34238" lon="6.3318">
        <ele>245.473</ele>
        <time>2016-09-05T15:07:58.000Z</time>
      </trkpt>
      <trkpt lat="47.34239" lon="6.33174">
        <ele>245.431</ele>
        <time>2016-09-05T15:07:59.000Z</time>
      </trkpt>
      <trkpt lat="47.34242" lon="6.33168">
        <ele>246.441</ele>
        <time>2016-09-05T15:08:00.000Z</time>
      </trkpt>
      <trkpt lat="47.34243" lon="6.33162">
        <ele>246.965</ele>
        <time>2016-09-05T15:08:01.000Z</time>
      </trkpt>
      <trkpt lat="47.34245" lon="6.33155">
        <ele>247.188</ele>
        <time>2016-09-05T15:08:02.000Z</time>
      </trkpt>
      <trkpt lat="47.34246" lon="6.33148">
        <ele>247.909</ele>
        <time>2016-09-05T15:08:02.998Z</time>
      </trkpt>
      <trkpt lat="47.34247" lon="6.33143">
        <ele>249.534</ele>
        <time>2016-09-05T15:08:03.998Z</time>
      </trkpt>
      <trkpt lat="47.34249" lon="6.33136">
        <ele>249.51</ele>
        <time>2016-09-05T15:08:04.998Z</time>
      </trkpt>
      <trkpt lat="47.34251" lon="6.33128">
        <ele>250.702</ele>
        <time>2016-09-05T15:08:05.998Z</time>
      </trkpt>
      <trkpt lat="47.34252" lon="6.33121">
        <ele>250.743</ele>
        <time>2016-09-05T15:08:06.998Z</time>
      </trkpt>
      <trkpt lat="47.34254" lon="6.33114">
        <ele>251.338</ele>
        <time>2016-09-05T15:08:07.998Z</time>
      </trkpt>
      <trkpt lat="47.34255" lon="6.33107">
        <ele>251.587</ele>
        <time>2016-09-05T15:08:08.998Z</time>
      </trkpt>
      <trkpt lat="47.34257" lon="6.331">
        <ele>252.027</ele>
        <time>2016-09-05T15:08:09.998Z</time>
      </trkpt>
      <trkpt lat="47.34259" lon="6.33094">
        <ele>252.821</ele>
        <time>2016-09-05T15:08:10.998Z</time>
      </trkpt>
      <trkpt lat="47.3426" lon="6.33088">
        <ele>252.757</ele>
        <time>2016-09-05T15:08:11.998Z</time>
      </trkpt>
      <trkpt lat="47.34262" lon="6.33083">
        <ele>253.021</ele>
        <time>2016-09-05T15:08:12.998Z</time>
      </trkpt>
      <trkpt lat="47.34264" lon="6.33077">
        <ele>253.744</ele>
        <time>2016-09-05T15:08:13.998Z</time>
      </trkpt>
      <trkpt lat="47.34265" lon="6.3307">
        <ele>254.575</ele>
        <time>2016-09-05T15:08:14.998Z</time>
      </trkpt>
      <trkpt lat="47.34267" lon="6.33063">
        <ele>253.434</ele>
        <time>2016-09-05T15:08:15.998Z</time>
      </trkpt>
      <trkpt lat="47.34268" lon="6.33057">
        <ele>252.849</ele>
        <time>2016-09-05T15:08:16.998Z</time>
      </trkpt>
      <trkpt lat="47.34269" lon="6.3305">
        <ele>253.745</ele>
        <time>2016-09-05T15:08:17.998Z</time>
      </trkpt>
      <trkpt lat="47.34271" lon="6.33043">
        <ele>253.886</ele>
        <time>2016-09-05T15:08:18.998Z</time>
      </trkpt>
      <trkpt lat="47.34271" lon="6.33036">
        <ele>253.837</ele>
        <time>2016-09-05T15:08:19.998Z</time>
      </trkpt>
      <trkpt lat="47.34271" lon="6.3303">
        <ele>254.093</ele>
        <time>2016-09-05T15:08:20.998Z</time>
      </trkpt>
      <trkpt lat="47.34272" lon="6.33025">
        <ele>254.806</ele>
        <time>2016-09-05T15:08:21.998Z</time>
      </trkpt>
      <trkpt lat="47.34273" lon="6.33018">
        <ele>255.886</ele>
        <time>2016-09-05T15:08:22.998Z</time>
      </trkpt>
      <trkpt lat="47.34274" lon="6.33011">
        <ele>258.039</ele>
        <time>2016-09-05T15:08:23.998Z</time>
      </trkpt>
      <trkpt lat="47.34276" lon="6.33005">
        <ele>257.991</ele>
        <time>2016-09-05T15:08:24.998Z</time>
      </trkpt>
      <trkpt lat="47.34277" lon="6.32999">
        <ele>258.077</ele>
        <time>2016-09-05T15:08:25.998Z</time>
      </trkpt>
      <trkpt lat="47.34278" lon="6.32993">
        <ele>258.179</ele>
        <time>2016-09-05T15:08:26.998Z</time>
      </trkpt>
      <trkpt lat="47.3428" lon="6.32987">
        <ele>257.525</ele>
        <time>2016-09-05T15:08:27.998Z</time>
      </trkpt>
      <trkpt lat="47.34281" lon="6.32981">
        <ele>258.025</ele>
        <time>2016-09-05T15:08:28.998Z</time>
      </trkpt>
      <trkpt lat="47.34282" lon="6.32975">
        <ele>255.924</ele>
        <time>2016-09-05T15:08:29.998Z</time>
      </trkpt>
      <trkpt lat="47.34283" lon="6.3297">
        <ele>254.907</ele>
        <time>2016-09-05T15:08:30.998Z</time>
      </trkpt>
      <trkpt lat="47.34285" lon="6.32964">
        <ele>254.798</ele>
        <time>2016-09-05T15:08:31.998Z</time>
      </trkpt>
      <trkpt lat="47.34286" lon="6.32958">
        <ele>254.569</ele>
        <time>2016-09-05T15:08:32.998Z</time>
      </trkpt>
      <trkpt lat="47.34287" lon="6.32952">
        <ele>254.463</ele>
        <time>2016-09-05T15:08:33.998Z</time>
      </trkpt>
      <trkpt lat="47.34289" lon="6.32946">
        <ele>255.007</ele>
        <time>2016-09-05T15:08:34.998Z</time>
      </trkpt>
      <trkpt lat="47.3429" lon="6.32939">
        <ele>255.759</ele>
        <time>2016-09-05T15:08:35.998Z</time>
      </trkpt>
      <trkpt lat="47.34292" lon="6.32931">
        <ele>256.237</ele>
        <time>2016-09-05T15:08:36.998Z</time>
      </trkpt>
      <trkpt lat="47.34294" lon="6.32925">
        <ele>257.508</ele>
        <time>2016-09-05T15:08:37.998Z</time>
      </trkpt>
      <trkpt lat="47.34296" lon="6.32919">
        <ele>257.264</ele>
        <time>2016-09-05T15:08:38.998Z</time>
      </trkpt>
      <trkpt lat="47.34297" lon="6.32913">
        <ele>256.876</ele>
        <time>2016-09-05T15:08:39.998Z</time>
      </trkpt>
      <trkpt lat="47.34299" lon="6.32907">
        <ele>256.584</ele>
        <time>2016-09-05T15:08:40.998Z</time>
      </trkpt>
      <trkpt lat="47.343" lon="6.32901">
        <ele>257.072</ele>
        <time>2016-09-05T15:08:41.998Z</time>
      </trkpt>
      <trkpt lat="47.34302" lon="6.32896">
        <ele>256.807</ele>
        <time>2016-09-05T15:08:42.998Z</time>
      </trkpt>
      <trkpt lat="47.34302" lon="6.32891">
        <ele>255.836</ele>
        <time>2016-09-05T15:08:43.998Z</time>
      </trkpt>
      <trkpt lat="47.34304" lon="6.32887">
        <ele>255.049</ele>
        <time>2016-09-05T15:08:44.998Z</time>
      </trkpt>
      <trkpt lat="47.34306" lon="6.3288">
        <ele>254.795</ele>
        <time>2016-09-05T15:08:45.998Z</time>
      </trkpt>
      <trkpt lat="47.34308" lon="6.32873">
        <ele>254.838</ele>
        <time>2016-09-05T15:08:46.998Z</time>
      </trkpt>
      <trkpt lat="47.34309" lon="6.32865">
        <ele>255.492</ele>
        <time>2016-09-05T15:08:47.998Z</time>
      </trkpt>
      <trkpt lat="47.3431" lon="6.32859">
        <ele>256.318</ele>
        <time>2016-09-05T15:08:48.998Z</time>
      </trkpt>
      <trkpt lat="47.34312" lon="6.32852">
        <ele>257.233</ele>
        <time>2016-09-05T15:08:49.998Z</time>
      </trkpt>
      <trkpt lat="47.34313" lon="6.32845">
        <ele>256.877</ele>
        <time>2016-09-05T15:08:50.998Z</time>
      </trkpt>
      <trkpt lat="47.34315" lon="6.32839">
        <ele>256.239</ele>
        <time>2016-09-05T15:08:51.998Z</time>
      </trkpt>
      <trkpt lat="47.34317" lon="6.32833">
        <ele>255.42</ele>
        <time>2016-09-05T15:08:52.998Z</time>
      </trkpt>
      <trkpt lat="47.34318" lon="6.32826">
        <ele>255.486</ele>
        <time>2016-09-05T15:08:53.998Z</time>
      </trkpt>
      <trkpt lat="47.3432" lon="6.3282">
        <ele>255.186</ele>
        <time>2016-09-05T15:08:54.998Z</time>
      </trkpt>
      <trkpt lat="47.34322" lon="6.32813">
        <ele>255.251</ele>
        <time>2016-09-05T15:08:55.998Z</time>
      </trkpt>
      <trkpt lat="47.34324" lon="6.32804">
        <ele>254.226</ele>
        <time>2016-09-05T15:08:56.998Z</time>
      </trkpt>
      <trkpt lat="47.34325" lon="6.328">
        <ele>253.003</ele>
        <time>2016-09-05T15:08:57.998Z</time>
      </trkpt>
      <trkpt lat="47.34326" lon="6.32793">
        <ele>253.233</ele>
        <time>2016-09-05T15:08:58.998Z</time>
      </trkpt>
      <trkpt lat="47.34328" lon="6.32786">
        <ele>252.514</ele>
        <time>2016-09-05T15:08:59.998Z</time>
      </trkpt>
      <trkpt lat="47.3433" lon="6.32783">
        <ele>253.331</ele>
        <time>2016-09-05T15:09:00.998Z</time>
      </trkpt>
      <trkpt lat="47.34331" lon="6.32776">
        <ele>254.264</ele>
        <time>2016-09-05T15:09:01.998Z</time>
      </trkpt>
      <trkpt lat="47.34333" lon="6.32769">
        <ele>254.078</ele>
        <time>2016-09-05T15:09:02.998Z</time>
      </trkpt>
      <trkpt lat="47.34335" lon="6.32762">
        <ele>255.141</ele>
        <time>2016-09-05T15:09:03.998Z</time>
      </trkpt>
      <trkpt lat="47.34333" lon="6.32758">
        <ele>252.506</ele>
        <time>2016-09-05T15:09:04.998Z</time>
      </trkpt>
      <trkpt lat="47.34334" lon="6.32752">
        <ele>253.244</ele>
        <time>2016-09-05T15:09:05.998Z</time>
      </trkpt>
      <trkpt lat="47.34336" lon="6.32745">
        <ele>252.102</ele>
        <time>2016-09-05T15:09:06.998Z</time>
      </trkpt>
      <trkpt lat="47.34339" lon="6.32738">
        <ele>251.46</ele>
        <time>2016-09-05T15:09:07.998Z</time>
      </trkpt>
      <trkpt lat="47.34339" lon="6.32733">
        <ele>250.826</ele>
        <time>2016-09-05T15:09:08.998Z</time>
      </trkpt>
      <trkpt lat="47.3434" lon="6.32729">
        <ele>251.427</ele>
        <time>2016-09-05T15:09:09.998Z</time>
      </trkpt>
      <trkpt lat="47.34343" lon="6.32721">
        <ele>250.708</ele>
        <time>2016-09-05T15:09:10.998Z</time>
      </trkpt>
      <trkpt lat="47.34346" lon="6.32716">
        <ele>252.12</ele>
        <time>2016-09-05T15:09:11.998Z</time>
      </trkpt>
      <trkpt lat="47.34348" lon="6.32709">
        <ele>253.593</ele>
        <time>2016-09-05T15:09:12.998Z</time>
      </trkpt>
      <trkpt lat="47.34349" lon="6.32702">
        <ele>253.924</ele>
        <time>2016-09-05T15:09:13.998Z</time>
      </trkpt>
      <trkpt lat="47.3435" lon="6.32696">
        <ele>253.634</ele>
        <time>2016-09-05T15:09:14.998Z</time>
      </trkpt>
      <trkpt lat="47.34351" lon="6.3269">
        <ele>253.403</ele>
        <time>2016-09-05T15:09:15.998Z</time>
      </trkpt>
      <trkpt lat="47.34351" lon="6.32684">
        <ele>254.769</ele>
        <time>2016-09-05T15:09:16.998Z</time>
      </trkpt>
      <trkpt lat="47.34352" lon="6.32678">
        <ele>254.582</ele>
        <time>2016-09-05T15:09:17.998Z</time>
      </trkpt>
      <trkpt lat="47.34353" lon="6.32672">
        <ele>256.107</ele>
        <time>2016-09-05T15:09:18.998Z</time>
      </trkpt>
      <trkpt lat="47.34353" lon="6.32666">
        <ele>253.732</ele>
        <time>2016-09-05T15:09:19.998Z</time>
      </trkpt>
      <trkpt lat="47.34354" lon="6.3266">
        <ele>253.96</ele>
        <time>2016-09-05T15:09:20.998Z</time>
      </trkpt>
      <trkpt lat="47.34354" lon="6.32655">
        <ele>253.568</ele>
        <time>2016-09-05T15:09:21.998Z</time>
      </trkpt>
      <trkpt lat="47.34354" lon="6.32649">
        <ele>253.382</ele>
        <time>2016-09-05T15:09:22.998Z</time>
      </trkpt>
      <trkpt lat="47.34354" lon="6.32643">
        <ele>259.01</ele>
        <time>2016-09-05T15:09:23.998Z</time>
      </trkpt>
      <trkpt lat="47.34354" lon="6.32643">
        <ele>259.01</ele>
        <time>2016-09-05T15:09:24.590Z</time>
      </trkpt>
      <trkpt lat="47.34353" lon="6.32637">
        <ele>262.012</ele>
        <time>2016-09-05T15:09:24.998Z</time>
      </trkpt>
      <trkpt lat="47.34353" lon="6.3263">
        <ele>263.662</ele>
        <time>2016-09-05T15:09:25.998Z</time>
      </trkpt>
      <trkpt lat="47.34353" lon="6.32623">
        <ele>262.681</ele>
        <time>2016-09-05T15:09:26.998Z</time>
      </trkpt>
      <trkpt lat="47.34353" lon="6.32617">
        <ele>261.215</ele>
        <time>2016-09-05T15:09:27.998Z</time>
      </trkpt>
      <trkpt lat="47.34352" lon="6.32611">
        <ele>261.299</ele>
        <time>2016-09-05T15:09:28.998Z</time>
      </trkpt>
      <trkpt lat="47.34352" lon="6.32606">
        <ele>262.361</ele>
        <time>2016-09-05T15:09:29.998Z</time>
      </trkpt>
      <trkpt lat="47.34351" lon="6.32601">
        <ele>263.61</ele>
        <time>2016-09-05T15:09:30.998Z</time>
      </trkpt>
      <trkpt lat="47.34351" lon="6.32595">
        <ele>263.416</ele>
        <time>2016-09-05T15:09:31.998Z</time>
      </trkpt>
      <trkpt lat="47.34351" lon="6.32588">
        <ele>263.339</ele>
        <time>2016-09-05T15:09:32.998Z</time>
      </trkpt>
      <trkpt lat="47.34351" lon="6.32581">
        <ele>265.329</ele>
        <time>2016-09-05T15:09:33.998Z</time>
      </trkpt>
      <trkpt lat="47.34351" lon="6.32569">
        <ele>264.704</ele>
        <time>2016-09-05T15:09:34.998Z</time>
      </trkpt>
      <trkpt lat="47.3435" lon="6.32564">
        <ele>262.343</ele>
        <time>2016-09-05T15:09:35.998Z</time>
      </trkpt>
      <trkpt lat="47.34349" lon="6.32556">
        <ele>263.946</ele>
        <time>2016-09-05T15:09:36.998Z</time>
      </trkpt>
      <trkpt lat="47.3435" lon="6.32551">
        <ele>266.701</ele>
        <time>2016-09-05T15:09:37.998Z</time>
      </trkpt>
      <trkpt lat="47.34349" lon="6.32544">
        <ele>266.964</ele>
        <time>2016-09-05T15:09:38.998Z</time>
      </trkpt>
      <trkpt lat="47.34349" lon="6.32537">
        <ele>266.663</ele>
        <time>2016-09-05T15:09:39.998Z</time>
      </trkpt>
      <trkpt lat="47.34348" lon="6.32532">
        <ele>266.519</ele>
        <time>2016-09-05T15:09:40.998Z</time>
      </trkpt>
      <trkpt lat="47.34347" lon="6.32524">
        <ele>265.701</ele>
        <time>2016-09-05T15:09:41.998Z</time>
      </trkpt>
      <trkpt lat="47.34347" lon="6.32517">
        <ele>267.765</ele>
        <time>2016-09-05T15:09:42.998Z</time>
      </trkpt>
      <trkpt lat="47.34346" lon="6.32508">
        <ele>266.581</ele>
        <time>2016-09-05T15:09:43.998Z</time>
      </trkpt>
      <trkpt lat="47.34345" lon="6.32502">
        <ele>268.165</ele>
        <time>2016-09-05T15:09:44.998Z</time>
      </trkpt>
      <trkpt lat="47.34344" lon="6.32495">
        <ele>271.41</ele>
        <time>2016-09-05T15:09:45.998Z</time>
      </trkpt>
      <trkpt lat="47.34344" lon="6.32488">
        <ele>272.216</ele>
        <time>2016-09-05T15:09:46.998Z</time>
      </trkpt>
      <trkpt lat="47.34343" lon="6.32481">
        <ele>272.895</ele>
        <time>2016-09-05T15:09:47.998Z</time>
      </trkpt>
      <trkpt lat="47.34342" lon="6.32475">
        <ele>273.456</ele>
        <time>2016-09-05T15:09:48.998Z</time>
      </trkpt>
      <trkpt lat="47.34341" lon="6.32468">
        <ele>273.763</ele>
        <time>2016-09-05T15:09:49.998Z</time>
      </trkpt>
      <trkpt lat="47.3434" lon="6.32462">
        <ele>274.86</ele>
        <time>2016-09-05T15:09:50.998Z</time>
      </trkpt>
      <trkpt lat="47.34339" lon="6.32455">
        <ele>273.977</ele>
        <time>2016-09-05T15:09:51.998Z</time>
      </trkpt>
      <trkpt lat="47.34338" lon="6.32446">
        <ele>272.223</ele>
        <time>2016-09-05T15:09:52.998Z</time>
      </trkpt>
      <trkpt lat="47.34337" lon="6.32439">
        <ele>272.609</ele>
        <time>2016-09-05T15:09:53.998Z</time>
      </trkpt>
      <trkpt lat="47.34337" lon="6.3243">
        <ele>270.969</ele>
        <time>2016-09-05T15:09:54.998Z</time>
      </trkpt>
      <trkpt lat="47.34337" lon="6.32424">
        <ele>269.944</ele>
        <time>2016-09-05T15:09:55.998Z</time>
      </trkpt>
      <trkpt lat="47.34335" lon="6.32418">
        <ele>271.68</ele>
        <time>2016-09-05T15:09:56.998Z</time>
      </trkpt>
      <trkpt lat="47.34334" lon="6.32412">
        <ele>271.817</ele>
        <time>2016-09-05T15:09:57.998Z</time>
      </trkpt>
      <trkpt lat="47.34333" lon="6.32406">
        <ele>267.61</ele>
        <time>2016-09-05T15:09:58.998Z</time>
      </trkpt>
      <trkpt lat="47.34332" lon="6.32399">
        <ele>267.383</ele>
        <time>2016-09-05T15:09:59.998Z</time>
      </trkpt>
      <trkpt lat="47.3433" lon="6.32394">
        <ele>266.57</ele>
        <time>2016-09-05T15:10:00.998Z</time>
      </trkpt>
      <trkpt lat="47.3433" lon="6.32385">
        <ele>265.398</ele>
        <time>2016-09-05T15:10:01.998Z</time>
      </trkpt>
      <trkpt lat="47.34329" lon="6.32379">
        <ele>265.078</ele>
        <time>2016-09-05T15:10:02.998Z</time>
      </trkpt>
      <trkpt lat="47.34328" lon="6.32373">
        <ele>264.081</ele>
        <time>2016-09-05T15:10:03.998Z</time>
      </trkpt>
      <trkpt lat="47.34327" lon="6.32367">
        <ele>266.003</ele>
        <time>2016-09-05T15:10:04.998Z</time>
      </trkpt>
      <trkpt lat="47.34326" lon="6.32361">
        <ele>266.584</ele>
        <time>2016-09-05T15:10:05.998Z</time>
      </trkpt>
      <trkpt lat="47.34325" lon="6.32355">
        <ele>266.419</ele>
        <time>2016-09-05T15:10:06.998Z</time>
      </trkpt>
      <trkpt lat="47.34324" lon="6.32349">
        <ele>266.694</ele>
        <time>2016-09-05T15:10:07.998Z</time>
      </trkpt>
      <trkpt lat="47.34324" lon="6.32343">
        <ele>269.64</ele>
        <time>2016-09-05T15:10:08.998Z</time>
      </trkpt>
      <trkpt lat="47.34323" lon="6.32336">
        <ele>268.754</ele>
        <time>2016-09-05T15:10:09.998Z</time>
      </trkpt>
      <trkpt lat="47.34322" lon="6.32329">
        <ele>269.139</ele>
        <time>2016-09-05T15:10:10.998Z</time>
      </trkpt>
      <trkpt lat="47.3432" lon="6.32322">
        <ele>269.351</ele>
        <time>2016-09-05T15:10:11.998Z</time>
      </trkpt>
      <trkpt lat="47.3432" lon="6.32315">
        <ele>270.24</ele>
        <time>2016-09-05T15:10:12.998Z</time>
      </trkpt>
      <trkpt lat="47.34319" lon="6.32308">
        <ele>270.235</ele>
        <time>2016-09-05T15:10:13.998Z</time>
      </trkpt>
      <trkpt lat="47.34319" lon="6.32302">
        <ele>268.406</ele>
        <time>2016-09-05T15:10:14.998Z</time>
      </trkpt>
      <trkpt lat="47.34318" lon="6.32295">
        <ele>268.65</ele>
        <time>2016-09-05T15:10:15.998Z</time>
      </trkpt>
      <trkpt lat="47.34317" lon="6.32289">
        <ele>270.878</ele>
        <time>2016-09-05T15:10:16.998Z</time>
      </trkpt>
      <trkpt lat="47.34316" lon="6.32282">
        <ele>269.846</ele>
        <time>2016-09-05T15:10:17.998Z</time>
      </trkpt>
      <trkpt lat="47.34315" lon="6.32275">
        <ele>267.728</ele>
        <time>2016-09-05T15:10:18.998Z</time>
      </trkpt>
      <trkpt lat="47.34314" lon="6.32268">
        <ele>267.658</ele>
        <time>2016-09-05T15:10:19.998Z</time>
      </trkpt>
      <trkpt lat="47.34314" lon="6.32261">
        <ele>267.362</ele>
        <time>2016-09-05T15:10:20.998Z</time>
      </trkpt>
      <trkpt lat="47.34313" lon="6.32255">
        <ele>269.772</ele>
        <time>2016-09-05T15:10:21.998Z</time>
      </trkpt>
      <trkpt lat="47.34312" lon="6.32248">
        <ele>268.456</ele>
        <time>2016-09-05T15:10:22.998Z</time>
      </trkpt>
      <trkpt lat="47.34311" lon="6.32242">
        <ele>269.03</ele>
        <time>2016-09-05T15:10:23.998Z</time>
      </trkpt>
      <trkpt lat="47.34309" lon="6.32236">
        <ele>265.636</ele>
        <time>2016-09-05T15:10:24.998Z</time>
      </trkpt>
      <trkpt lat="47.34308" lon="6.32229">
        <ele>266.215</ele>
        <time>2016-09-05T15:10:25.998Z</time>
      </trkpt>
      <trkpt lat="47.34307" lon="6.32221">
        <ele>266.594</ele>
        <time>2016-09-05T15:10:26.998Z</time>
      </trkpt>
      <trkpt lat="47.34305" lon="6.32215">
        <ele>267.153</ele>
        <time>2016-09-05T15:10:27.998Z</time>
      </trkpt>
      <trkpt lat="47.34305" lon="6.3221">
        <ele>266.954</ele>
        <time>2016-09-05T15:10:28.998Z</time>
      </trkpt>
      <trkpt lat="47.34302" lon="6.32204">
        <ele>267.017</ele>
        <time>2016-09-05T15:10:29.998Z</time>
      </trkpt>
      <trkpt lat="47.343" lon="6.32199">
        <ele>268.112</ele>
        <time>2016-09-05T15:10:30.998Z</time>
      </trkpt>
      <trkpt lat="47.34299" lon="6.32192">
        <ele>264.962</ele>
        <time>2016-09-05T15:10:31.998Z</time>
      </trkpt>
      <trkpt lat="47.34297" lon="6.32186">
        <ele>265.255</ele>
        <time>2016-09-05T15:10:32.998Z</time>
      </trkpt>
      <trkpt lat="47.34295" lon="6.3218">
        <ele>266.053</ele>
        <time>2016-09-05T15:10:33.998Z</time>
      </trkpt>
      <trkpt lat="47.34294" lon="6.32173">
        <ele>266.897</ele>
        <time>2016-09-05T15:10:34.998Z</time>
      </trkpt>
      <trkpt lat="47.34292" lon="6.32168">
        <ele>267.402</ele>
        <time>2016-09-05T15:10:35.998Z</time>
      </trkpt>
      <trkpt lat="47.3429" lon="6.32162">
        <ele>268.256</ele>
        <time>2016-09-05T15:10:36.998Z</time>
      </trkpt>
      <trkpt lat="47.34288" lon="6.32157">
        <ele>270.231</ele>
        <time>2016-09-05T15:10:37.998Z</time>
      </trkpt>
      <trkpt lat="47.34286" lon="6.32152">
        <ele>270.617</ele>
        <time>2016-09-05T15:10:38.998Z</time>
      </trkpt>
      <trkpt lat="47.34285" lon="6.32146">
        <ele>272.259</ele>
        <time>2016-09-05T15:10:39.998Z</time>
      </trkpt>
      <trkpt lat="47.34284" lon="6.3214">
        <ele>272.184</ele>
        <time>2016-09-05T15:10:40.998Z</time>
      </trkpt>
      <trkpt lat="47.34282" lon="6.32135">
        <ele>271.247</ele>
        <time>2016-09-05T15:10:41.998Z</time>
      </trkpt>
      <trkpt lat="47.34281" lon="6.32129">
        <ele>271.203</ele>
        <time>2016-09-05T15:10:42.998Z</time>
      </trkpt>
      <trkpt lat="47.3428" lon="6.32123">
        <ele>270.918</ele>
        <time>2016-09-05T15:10:43.998Z</time>
      </trkpt>
      <trkpt lat="47.34278" lon="6.32117">
        <ele>269.266</ele>
        <time>2016-09-05T15:10:44.998Z</time>
      </trkpt>
      <trkpt lat="47.34276" lon="6.32111">
        <ele>268.933</ele>
        <time>2016-09-05T15:10:45.998Z</time>
      </trkpt>
      <trkpt lat="47.34274" lon="6.32105">
        <ele>267.355</ele>
        <time>2016-09-05T15:10:46.998Z</time>
      </trkpt>
      <trkpt lat="47.34271" lon="6.32099">
        <ele>270.969</ele>
        <time>2016-09-05T15:10:47.998Z</time>
      </trkpt>
      <trkpt lat="47.34269" lon="6.32094">
        <ele>270.975</ele>
        <time>2016-09-05T15:10:48.998Z</time>
      </trkpt>
      <trkpt lat="47.34267" lon="6.32088">
        <ele>273.082</ele>
        <time>2016-09-05T15:10:49.998Z</time>
      </trkpt>
      <trkpt lat="47.34265" lon="6.32082">
        <ele>272.526</ele>
        <time>2016-09-05T15:10:50.998Z</time>
      </trkpt>
      <trkpt lat="47.3426" lon="6.32075">
        <ele>272.451</ele>
        <time>2016-09-05T15:10:51.998Z</time>
      </trkpt>
      <trkpt lat="47.34257" lon="6.3207">
        <ele>273.212</ele>
        <time>2016-09-05T15:10:52.998Z</time>
      </trkpt>
      <trkpt lat="47.34254" lon="6.32065">
        <ele>273.342</ele>
        <time>2016-09-05T15:10:53.998Z</time>
      </trkpt>
      <trkpt lat="47.34252" lon="6.32058">
        <ele>275.233</ele>
        <time>2016-09-05T15:10:54.998Z</time>
      </trkpt>
      <trkpt lat="47.3425" lon="6.32052">
        <ele>273.997</ele>
        <time>2016-09-05T15:10:55.998Z</time>
      </trkpt>
      <trkpt lat="47.34248" lon="6.32047">
        <ele>273.28</ele>
        <time>2016-09-05T15:10:56.998Z</time>
      </trkpt>
      <trkpt lat="47.34246" lon="6.32041">
        <ele>273.156</ele>
        <time>2016-09-05T15:10:57.998Z</time>
      </trkpt>
      <trkpt lat="47.34243" lon="6.32035">
        <ele>273.011</ele>
        <time>2016-09-05T15:10:58.998Z</time>
      </trkpt>
      <trkpt lat="47.34242" lon="6.3203">
        <ele>272.811</ele>
        <time>2016-09-05T15:10:59.998Z</time>
      </trkpt>
      <trkpt lat="47.3424" lon="6.32024">
        <ele>272.794</ele>
        <time>2016-09-05T15:11:00.998Z</time>
      </trkpt>
      <trkpt lat="47.34237" lon="6.32022">
        <ele>273.163</ele>
        <time>2016-09-05T15:11:01.998Z</time>
      </trkpt>
      <trkpt lat="47.34234" lon="6.32017">
        <ele>273.325</ele>
        <time>2016-09-05T15:11:02.998Z</time>
      </trkpt>
      <trkpt lat="47.3423" lon="6.32011">
        <ele>274.64</ele>
        <time>2016-09-05T15:11:03.998Z</time>
      </trkpt>
      <trkpt lat="47.34226" lon="6.32007">
        <ele>274.72</ele>
        <time>2016-09-05T15:11:04.998Z</time>
      </trkpt>
      <trkpt lat="47.34221" lon="6.32002">
        <ele>276.437</ele>
        <time>2016-09-05T15:11:05.998Z</time>
      </trkpt>
      <trkpt lat="47.34216" lon="6.31998">
        <ele>278.235</ele>
        <time>2016-09-05T15:11:06.998Z</time>
      </trkpt>
      <trkpt lat="47.34211" lon="6.31993">
        <ele>277.275</ele>
        <time>2016-09-05T15:11:07.998Z</time>
      </trkpt>
      <trkpt lat="47.34209" lon="6.31987">
        <ele>275.747</ele>
        <time>2016-09-05T15:11:08.998Z</time>
      </trkpt>
      <trkpt lat="47.34206" lon="6.31982">
        <ele>276.197</ele>
        <time>2016-09-05T15:11:09.998Z</time>
      </trkpt>
      <trkpt lat="47.34203" lon="6.31976">
        <ele>275.27</ele>
        <time>2016-09-05T15:11:10.998Z</time>
      </trkpt>
      <trkpt lat="47.342" lon="6.31972">
        <ele>275.714</ele>
        <time>2016-09-05T15:11:11.998Z</time>
      </trkpt>
      <trkpt lat="47.34197" lon="6.31967">
        <ele>277.328</ele>
        <time>2016-09-05T15:11:12.998Z</time>
      </trkpt>
      <trkpt lat="47.34195" lon="6.31963">
        <ele>277.306</ele>
        <time>2016-09-05T15:11:13.998Z</time>
      </trkpt>
      <trkpt lat="47.34194" lon="6.31957">
        <ele>274.984</ele>
        <time>2016-09-05T15:11:14.998Z</time>
      </trkpt>
      <trkpt lat="47.3419" lon="6.31952">
        <ele>275.777</ele>
        <time>2016-09-05T15:11:15.998Z</time>
      </trkpt>
      <trkpt lat="47.34188" lon="6.31949">
        <ele>274.651</ele>
        <time>2016-09-05T15:11:16.998Z</time>
      </trkpt>
      <trkpt lat="47.34186" lon="6.31945">
        <ele>271.072</ele>
        <time>2016-09-05T15:11:17.998Z</time>
      </trkpt>
      <trkpt lat="47.34184" lon="6.31941">
        <ele>269.269</ele>
        <time>2016-09-05T15:11:18.998Z</time>
      </trkpt>
      <trkpt lat="47.34181" lon="6.31937">
        <ele>269.999</ele>
        <time>2016-09-05T15:11:19.998Z</time>
      </trkpt>
      <trkpt lat="47.34179" lon="6.31933">
        <ele>267.439</ele>
        <time>2016-09-05T15:11:20.998Z</time>
      </trkpt>
      <trkpt lat="47.34177" lon="6.31928">
        <ele>267.695</ele>
        <time>2016-09-05T15:11:21.998Z</time>
      </trkpt>
      <trkpt lat="47.34175" lon="6.31924">
        <ele>266.782</ele>
        <time>2016-09-05T15:11:22.998Z</time>
      </trkpt>
      <trkpt lat="47.34172" lon="6.31919">
        <ele>267.624</ele>
        <time>2016-09-05T15:11:23.998Z</time>
      </trkpt>
      <trkpt lat="47.34169" lon="6.31914">
        <ele>266.437</ele>
        <time>2016-09-05T15:11:24.998Z</time>
      </trkpt>
      <trkpt lat="47.34167" lon="6.31909">
        <ele>266.602</ele>
        <time>2016-09-05T15:11:25.998Z</time>
      </trkpt>
      <trkpt lat="47.34165" lon="6.31904">
        <ele>265.651</ele>
        <time>2016-09-05T15:11:26.998Z</time>
      </trkpt>
      <trkpt lat="47.34162" lon="6.31899">
        <ele>264.716</ele>
        <time>2016-09-05T15:11:27.998Z</time>
      </trkpt>
      <trkpt lat="47.3416" lon="6.31894">
        <ele>266.522</ele>
        <time>2016-09-05T15:11:28.998Z</time>
      </trkpt>
      <trkpt lat="47.34157" lon="6.31891">
        <ele>265.121</ele>
        <time>2016-09-05T15:11:29.998Z</time>
      </trkpt>
      <trkpt lat="47.34152" lon="6.31887">
        <ele>263.808</ele>
        <time>2016-09-05T15:11:30.998Z</time>
      </trkpt>
      <trkpt lat="47.34149" lon="6.31883">
        <ele>267.114</ele>
        <time>2016-09-05T15:11:31.998Z</time>
      </trkpt>
      <trkpt lat="47.34146" lon="6.31878">
        <ele>267.509</ele>
        <time>2016-09-05T15:11:32.998Z</time>
      </trkpt>
      <trkpt lat="47.34143" lon="6.31873">
        <ele>267.163</ele>
        <time>2016-09-05T15:11:33.998Z</time>
      </trkpt>
      <trkpt lat="47.34141" lon="6.31867">
        <ele>266.604</ele>
        <time>2016-09-05T15:11:34.998Z</time>
      </trkpt>
      <trkpt lat="47.3414" lon="6.31862">
        <ele>267.845</ele>
        <time>2016-09-05T15:11:35.998Z</time>
      </trkpt>
      <trkpt lat="47.34137" lon="6.31857">
        <ele>267.517</ele>
        <time>2016-09-05T15:11:36.998Z</time>
      </trkpt>
      <trkpt lat="47.34133" lon="6.31851">
        <ele>266.63</ele>
        <time>2016-09-05T15:11:37.998Z</time>
      </trkpt>
      <trkpt lat="47.34129" lon="6.31846">
        <ele>269.857</ele>
        <time>2016-09-05T15:11:38.998Z</time>
      </trkpt>
      <trkpt lat="47.34126" lon="6.31841">
        <ele>271.035</ele>
        <time>2016-09-05T15:11:39.998Z</time>
      </trkpt>
      <trkpt lat="47.34124" lon="6.31835">
        <ele>271.303</ele>
        <time>2016-09-05T15:11:40.998Z</time>
      </trkpt>
      <trkpt lat="47.34122" lon="6.31829">
        <ele>269.824</ele>
        <time>2016-09-05T15:11:41.998Z</time>
      </trkpt>
      <trkpt lat="47.34119" lon="6.31824">
        <ele>269.457</ele>
        <time>2016-09-05T15:11:42.998Z</time>
      </trkpt>
      <trkpt lat="47.34117" lon="6.31818">
        <ele>269.697</ele>
        <time>2016-09-05T15:11:43.998Z</time>
      </trkpt>
      <trkpt lat="47.34115" lon="6.31812">
        <ele>270.174</ele>
        <time>2016-09-05T15:11:44.998Z</time>
      </trkpt>
      <trkpt lat="47.34113" lon="6.31806">
        <ele>269.925</ele>
        <time>2016-09-05T15:11:45.998Z</time>
      </trkpt>
      <trkpt lat="47.3411" lon="6.31801">
        <ele>269.993</ele>
        <time>2016-09-05T15:11:46.998Z</time>
      </trkpt>
      <trkpt lat="47.34106" lon="6.31797">
        <ele>269.469</ele>
        <time>2016-09-05T15:11:47.998Z</time>
      </trkpt>
      <trkpt lat="47.34103" lon="6.3179">
        <ele>269.264</ele>
        <time>2016-09-05T15:11:48.998Z</time>
      </trkpt>
      <trkpt lat="47.34098" lon="6.31785">
        <ele>269.976</ele>
        <time>2016-09-05T15:11:49.998Z</time>
      </trkpt>
      <trkpt lat="47.34093" lon="6.31781">
        <ele>268.914</ele>
        <time>2016-09-05T15:11:50.998Z</time>
      </trkpt>
      <trkpt lat="47.34091" lon="6.31777">
        <ele>267.487</ele>
        <time>2016-09-05T15:11:51.998Z</time>
      </trkpt>
      <trkpt lat="47.34088" lon="6.31772">
        <ele>267.145</ele>
        <time>2016-09-05T15:11:52.998Z</time>
      </trkpt>
      <trkpt lat="47.34085" lon="6.31767">
        <ele>267.324</ele>
        <time>2016-09-05T15:11:53.998Z</time>
      </trkpt>
      <trkpt lat="47.34081" lon="6.31762">
        <ele>265.923</ele>
        <time>2016-09-05T15:11:54.998Z</time>
      </trkpt>
      <trkpt lat="47.34076" lon="6.3176">
        <ele>266.833</ele>
        <time>2016-09-05T15:11:55.998Z</time>
      </trkpt>
      <trkpt lat="47.34075" lon="6.31754">
        <ele>266.764</ele>
        <time>2016-09-05T15:11:56.998Z</time>
      </trkpt>
      <trkpt lat="47.34073" lon="6.31749">
        <ele>265.375</ele>
        <time>2016-09-05T15:11:57.998Z</time>
      </trkpt>
      <trkpt lat="47.34071" lon="6.31744">
        <ele>265.595</ele>
        <time>2016-09-05T15:11:58.998Z</time>
      </trkpt>
      <trkpt lat="47.34068" lon="6.31738">
        <ele>261.309</ele>
        <time>2016-09-05T15:11:59.998Z</time>
      </trkpt>
      <trkpt lat="47.34064" lon="6.31734">
        <ele>262.356</ele>
        <time>2016-09-05T15:12:00.998Z</time>
      </trkpt>
      <trkpt lat="47.34062" lon="6.31729">
        <ele>261.645</ele>
        <time>2016-09-05T15:12:01.998Z</time>
      </trkpt>
      <trkpt lat="47.34058" lon="6.31724">
        <ele>261.887</ele>
        <time>2016-09-05T15:12:02.998Z</time>
      </trkpt>
      <trkpt lat="47.34054" lon="6.31721">
        <ele>262.928</ele>
        <time>2016-09-05T15:12:03.998Z</time>
      </trkpt>
      <trkpt lat="47.34052" lon="6.31716">
        <ele>264.347</ele>
        <time>2016-09-05T15:12:04.998Z</time>
      </trkpt>
      <trkpt lat="47.34049" lon="6.31712">
        <ele>264.802</ele>
        <time>2016-09-05T15:12:05.998Z</time>
      </trkpt>
      <trkpt lat="47.34046" lon="6.31708">
        <ele>266.905</ele>
        <time>2016-09-05T15:12:06.998Z</time>
      </trkpt>
      <trkpt lat="47.34042" lon="6.31704">
        <ele>267.634</ele>
        <time>2016-09-05T15:12:07.998Z</time>
      </trkpt>
      <trkpt lat="47.34038" lon="6.317">
        <ele>267.571</ele>
        <time>2016-09-05T15:12:08.998Z</time>
      </trkpt>
      <trkpt lat="47.34036" lon="6.31695">
        <ele>267.731</ele>
        <time>2016-09-05T15:12:09.998Z</time>
      </trkpt>
      <trkpt lat="47.34033" lon="6.31691">
        <ele>267.143</ele>
        <time>2016-09-05T15:12:10.998Z</time>
      </trkpt>
      <trkpt lat="47.34028" lon="6.31687">
        <ele>266.853</ele>
        <time>2016-09-05T15:12:11.998Z</time>
      </trkpt>
      <trkpt lat="47.34024" lon="6.31682">
        <ele>265.815</ele>
        <time>2016-09-05T15:12:12.998Z</time>
      </trkpt>
      <trkpt lat="47.3402" lon="6.31679">
        <ele>264.783</ele>
        <time>2016-09-05T15:12:13.998Z</time>
      </trkpt>
      <trkpt lat="47.34017" lon="6.31675">
        <ele>264.491</ele>
        <time>2016-09-05T15:12:14.998Z</time>
      </trkpt>
      <trkpt lat="47.34013" lon="6.31671">
        <ele>264.173</ele>
        <time>2016-09-05T15:12:15.998Z</time>
      </trkpt>
      <trkpt lat="47.3401" lon="6.31667">
        <ele>264.959</ele>
        <time>2016-09-05T15:12:16.998Z</time>
      </trkpt>
      <trkpt lat="47.34007" lon="6.31662">
        <ele>263.156</ele>
        <time>2016-09-05T15:12:17.998Z</time>
      </trkpt>
      <trkpt lat="47.34003" lon="6.31658">
        <ele>263.173</ele>
        <time>2016-09-05T15:12:18.998Z</time>
      </trkpt>
      <trkpt lat="47.34002" lon="6.31653">
        <ele>260.853</ele>
        <time>2016-09-05T15:12:19.998Z</time>
      </trkpt>
      <trkpt lat="47.33996" lon="6.3165">
        <ele>260.34</ele>
        <time>2016-09-05T15:12:20.998Z</time>
      </trkpt>
      <trkpt lat="47.33993" lon="6.31646">
        <ele>261.347</ele>
        <time>2016-09-05T15:12:21.998Z</time>
      </trkpt>
      <trkpt lat="47.33989" lon="6.31642">
        <ele>261.852</ele>
        <time>2016-09-05T15:12:22.998Z</time>
      </trkpt>
      <trkpt lat="47.33985" lon="6.31638">
        <ele>262.581</ele>
        <time>2016-09-05T15:12:23.998Z</time>
      </trkpt>
      <trkpt lat="47.33982" lon="6.31633">
        <ele>261.745</ele>
        <time>2016-09-05T15:12:24.998Z</time>
      </trkpt>
      <trkpt lat="47.33977" lon="6.31629">
        <ele>262.671</ele>
        <time>2016-09-05T15:12:25.998Z</time>
      </trkpt>
      <trkpt lat="47.33973" lon="6.31625">
        <ele>263.958</ele>
        <time>2016-09-05T15:12:26.998Z</time>
      </trkpt>
      <trkpt lat="47.33968" lon="6.31622">
        <ele>264.203</ele>
        <time>2016-09-05T15:12:27.998Z</time>
      </trkpt>
      <trkpt lat="47.33966" lon="6.31618">
        <ele>264.06</ele>
        <time>2016-09-05T15:12:28.998Z</time>
      </trkpt>
      <trkpt lat="47.33962" lon="6.31614">
        <ele>263.839</ele>
        <time>2016-09-05T15:12:29.998Z</time>
      </trkpt>
      <trkpt lat="47.33959" lon="6.31609">
        <ele>260.057</ele>
        <time>2016-09-05T15:12:30.998Z</time>
      </trkpt>
      <trkpt lat="47.33955" lon="6.31604">
        <ele>258.674</ele>
        <time>2016-09-05T15:12:31.998Z</time>
      </trkpt>
      <trkpt lat="47.3395" lon="6.31602">
        <ele>261.539</ele>
        <time>2016-09-05T15:12:32.998Z</time>
      </trkpt>
      <trkpt lat="47.33945" lon="6.316">
        <ele>261.548</ele>
        <time>2016-09-05T15:12:33.998Z</time>
      </trkpt>
      <trkpt lat="47.33943" lon="6.31596">
        <ele>258.987</ele>
        <time>2016-09-05T15:12:34.998Z</time>
      </trkpt>
      <trkpt lat="47.33938" lon="6.31593">
        <ele>259.125</ele>
        <time>2016-09-05T15:12:35.998Z</time>
      </trkpt>
      <trkpt lat="47.33934" lon="6.31588">
        <ele>258.76</ele>
        <time>2016-09-05T15:12:36.998Z</time>
      </trkpt>
      <trkpt lat="47.3393" lon="6.31586">
        <ele>257.566</ele>
        <time>2016-09-05T15:12:37.998Z</time>
      </trkpt>
      <trkpt lat="47.33926" lon="6.31581">
        <ele>255.516</ele>
        <time>2016-09-05T15:12:38.998Z</time>
      </trkpt>
      <trkpt lat="47.33922" lon="6.31578">
        <ele>255.777</ele>
        <time>2016-09-05T15:12:39.998Z</time>
      </trkpt>
      <trkpt lat="47.33919" lon="6.31574">
        <ele>254.471</ele>
        <time>2016-09-05T15:12:40.998Z</time>
      </trkpt>
      <trkpt lat="47.33915" lon="6.3157">
        <ele>254.41</ele>
        <time>2016-09-05T15:12:41.998Z</time>
      </trkpt>
      <trkpt lat="47.33911" lon="6.31566">
        <ele>252.973</ele>
        <time>2016-09-05T15:12:42.998Z</time>
      </trkpt>
      <trkpt lat="47.33907" lon="6.31563">
        <ele>251.898</ele>
        <time>2016-09-05T15:12:43.998Z</time>
      </trkpt>
      <trkpt lat="47.33904" lon="6.31561">
        <ele>249.776</ele>
        <time>2016-09-05T15:12:44.998Z</time>
      </trkpt>
      <trkpt lat="47.33899" lon="6.31559">
        <ele>249.392</ele>
        <time>2016-09-05T15:12:45.998Z</time>
      </trkpt>
      <trkpt lat="47.33894" lon="6.31558">
        <ele>251.795</ele>
        <time>2016-09-05T15:12:46.998Z</time>
      </trkpt>
      <trkpt lat="47.33891" lon="6.31555">
        <ele>250.951</ele>
        <time>2016-09-05T15:12:47.998Z</time>
      </trkpt>
      <trkpt lat="47.33886" lon="6.31552">
        <ele>253.527</ele>
        <time>2016-09-05T15:12:48.998Z</time>
      </trkpt>
      <trkpt lat="47.33881" lon="6.3155">
        <ele>253.034</ele>
        <time>2016-09-05T15:12:49.998Z</time>
      </trkpt>
      <trkpt lat="47.33878" lon="6.31548">
        <ele>252.45</ele>
        <time>2016-09-05T15:12:50.998Z</time>
      </trkpt>
      <trkpt lat="47.33874" lon="6.31545">
        <ele>251.474</ele>
        <time>2016-09-05T15:12:51.998Z</time>
      </trkpt>
      <trkpt lat="47.3387" lon="6.31543">
        <ele>251.383</ele>
        <time>2016-09-05T15:12:52.998Z</time>
      </trkpt>
      <trkpt lat="47.33866" lon="6.3154">
        <ele>253.349</ele>
        <time>2016-09-05T15:12:53.998Z</time>
      </trkpt>
      <trkpt lat="47.33863" lon="6.31538">
        <ele>253.029</ele>
        <time>2016-09-05T15:12:54.998Z</time>
      </trkpt>
      <trkpt lat="47.33859" lon="6.31535">
        <ele>254.285</ele>
        <time>2016-09-05T15:12:55.998Z</time>
      </trkpt>
      <trkpt lat="47.33855" lon="6.31532">
        <ele>254.214</ele>
        <time>2016-09-05T15:12:56.998Z</time>
      </trkpt>
      <trkpt lat="47.33852" lon="6.3153">
        <ele>255.28</ele>
        <time>2016-09-05T15:12:57.998Z</time>
      </trkpt>
      <trkpt lat="47.33848" lon="6.31528">
        <ele>255.11</ele>
        <time>2016-09-05T15:12:58.998Z</time>
      </trkpt>
      <trkpt lat="47.33843" lon="6.31525">
        <ele>254.989</ele>
        <time>2016-09-05T15:12:59.998Z</time>
      </trkpt>
      <trkpt lat="47.33839" lon="6.31523">
        <ele>255.628</ele>
        <time>2016-09-05T15:13:00.998Z</time>
      </trkpt>
      <trkpt lat="47.33834" lon="6.31522">
        <ele>256.08</ele>
        <time>2016-09-05T15:13:01.998Z</time>
      </trkpt>
      <trkpt lat="47.33829" lon="6.31519">
        <ele>255.938</ele>
        <time>2016-09-05T15:13:02.998Z</time>
      </trkpt>
      <trkpt lat="47.33826" lon="6.31515">
        <ele>255.735</ele>
        <time>2016-09-05T15:13:03.998Z</time>
      </trkpt>
      <trkpt lat="47.33822" lon="6.31512">
        <ele>255.965</ele>
        <time>2016-09-05T15:13:04.998Z</time>
      </trkpt>
      <trkpt lat="47.33818" lon="6.3151">
        <ele>255.758</ele>
        <time>2016-09-05T15:13:05.998Z</time>
      </trkpt>
      <trkpt lat="47.33812" lon="6.31507">
        <ele>256.62</ele>
        <time>2016-09-05T15:13:06.998Z</time>
      </trkpt>
      <trkpt lat="47.33808" lon="6.31506">
        <ele>257.903</ele>
        <time>2016-09-05T15:13:07.998Z</time>
      </trkpt>
      <trkpt lat="47.33803" lon="6.31503">
        <ele>257.193</ele>
        <time>2016-09-05T15:13:08.998Z</time>
      </trkpt>
      <trkpt lat="47.33799" lon="6.31502">
        <ele>257.939</ele>
        <time>2016-09-05T15:13:09.998Z</time>
      </trkpt>
      <trkpt lat="47.33795" lon="6.315">
        <ele>259.748</ele>
        <time>2016-09-05T15:13:10.998Z</time>
      </trkpt>
      <trkpt lat="47.33791" lon="6.31497">
        <ele>259.23</ele>
        <time>2016-09-05T15:13:11.998Z</time>
      </trkpt>
      <trkpt lat="47.33788" lon="6.31496">
        <ele>261.248</ele>
        <time>2016-09-05T15:13:12.998Z</time>
      </trkpt>
      <trkpt lat="47.33784" lon="6.31495">
        <ele>262.229</ele>
        <time>2016-09-05T15:13:13.998Z</time>
      </trkpt>
      <trkpt lat="47.33781" lon="6.31494">
        <ele>263.328</ele>
        <time>2016-09-05T15:13:14.998Z</time>
      </trkpt>
      <trkpt lat="47.33777" lon="6.31493">
        <ele>263.864</ele>
        <time>2016-09-05T15:13:15.998Z</time>
      </trkpt>
      <trkpt lat="47.33773" lon="6.31492">
        <ele>264.262</ele>
        <time>2016-09-05T15:13:16.998Z</time>
      </trkpt>
      <trkpt lat="47.33769" lon="6.3149">
        <ele>264.002</ele>
        <time>2016-09-05T15:13:17.998Z</time>
      </trkpt>
      <trkpt lat="47.33765" lon="6.31489">
        <ele>264.369</ele>
        <time>2016-09-05T15:13:18.998Z</time>
      </trkpt>
      <trkpt lat="47.33761" lon="6.31486">
        <ele>264.052</ele>
        <time>2016-09-05T15:13:19.998Z</time>
      </trkpt>
      <trkpt lat="47.33756" lon="6.31484">
        <ele>264.292</ele>
        <time>2016-09-05T15:13:20.998Z</time>
      </trkpt>
      <trkpt lat="47.33753" lon="6.31481">
        <ele>264.016</ele>
        <time>2016-09-05T15:13:21.998Z</time>
      </trkpt>
      <trkpt lat="47.33748" lon="6.31479">
        <ele>264.993</ele>
        <time>2016-09-05T15:13:22.998Z</time>
      </trkpt>
      <trkpt lat="47.33744" lon="6.31478">
        <ele>264.789</ele>
        <time>2016-09-05T15:13:23.998Z</time>
      </trkpt>
      <trkpt lat="47.33741" lon="6.31474">
        <ele>265.615</ele>
        <time>2016-09-05T15:13:24.998Z</time>
      </trkpt>
      <trkpt lat="47.33738" lon="6.31472">
        <ele>262.647</ele>
        <time>2016-09-05T15:13:25.998Z</time>
      </trkpt>
      <trkpt lat="47.33732" lon="6.31472">
        <ele>263.834</ele>
        <time>2016-09-05T15:13:26.998Z</time>
      </trkpt>
      <trkpt lat="47.33728" lon="6.3147">
        <ele>263.598</ele>
        <time>2016-09-05T15:13:27.998Z</time>
      </trkpt>
      <trkpt lat="47.33723" lon="6.31467">
        <ele>262.881</ele>
        <time>2016-09-05T15:13:28.998Z</time>
      </trkpt>
      <trkpt lat="47.33719" lon="6.31466">
        <ele>261.987</ele>
        <time>2016-09-05T15:13:29.998Z</time>
      </trkpt>
      <trkpt lat="47.33715" lon="6.31464">
        <ele>261.981</ele>
        <time>2016-09-05T15:13:30.998Z</time>
      </trkpt>
      <trkpt lat="47.3371" lon="6.31462">
        <ele>261.786</ele>
        <time>2016-09-05T15:13:31.998Z</time>
      </trkpt>
      <trkpt lat="47.33705" lon="6.31461">
        <ele>262.529</ele>
        <time>2016-09-05T15:13:32.998Z</time>
      </trkpt>
      <trkpt lat="47.33701" lon="6.31459">
        <ele>262.778</ele>
        <time>2016-09-05T15:13:33.998Z</time>
      </trkpt>
      <trkpt lat="47.33697" lon="6.31457">
        <ele>264.771</ele>
        <time>2016-09-05T15:13:34.998Z</time>
      </trkpt>
      <trkpt lat="47.33693" lon="6.31455">
        <ele>264.787</ele>
        <time>2016-09-05T15:13:35.998Z</time>
      </trkpt>
      <trkpt lat="47.3369" lon="6.31454">
        <ele>265.169</ele>
        <time>2016-09-05T15:13:36.998Z</time>
      </trkpt>
      <trkpt lat="47.33685" lon="6.31452">
        <ele>264.16</ele>
        <time>2016-09-05T15:13:37.998Z</time>
      </trkpt>
      <trkpt lat="47.3368" lon="6.31449">
        <ele>262.56</ele>
        <time>2016-09-05T15:13:38.998Z</time>
      </trkpt>
      <trkpt lat="47.33677" lon="6.31449">
        <ele>260.205</ele>
        <time>2016-09-05T15:13:39.998Z</time>
      </trkpt>
      <trkpt lat="47.33673" lon="6.31447">
        <ele>262.037</ele>
        <time>2016-09-05T15:13:40.998Z</time>
      </trkpt>
      <trkpt lat="47.33669" lon="6.31446">
        <ele>262.074</ele>
        <time>2016-09-05T15:13:41.998Z</time>
      </trkpt>
      <trkpt lat="47.33665" lon="6.31446">
        <ele>264.506</ele>
        <time>2016-09-05T15:13:42.998Z</time>
      </trkpt>
      <trkpt lat="47.3366" lon="6.31442">
        <ele>262.31</ele>
        <time>2016-09-05T15:13:43.998Z</time>
      </trkpt>
      <trkpt lat="47.33656" lon="6.31441">
        <ele>262.401</ele>
        <time>2016-09-05T15:13:44.998Z</time>
      </trkpt>
      <trkpt lat="47.33652" lon="6.3144">
        <ele>261.735</ele>
        <time>2016-09-05T15:13:45.998Z</time>
      </trkpt>
      <trkpt lat="47.33651" lon="6.31437">
        <ele>258.463</ele>
        <time>2016-09-05T15:13:46.998Z</time>
      </trkpt>
      <trkpt lat="47.33647" lon="6.31435">
        <ele>260.558</ele>
        <time>2016-09-05T15:13:47.998Z</time>
      </trkpt>
      <trkpt lat="47.33643" lon="6.31435">
        <ele>261.615</ele>
        <time>2016-09-05T15:13:48.998Z</time>
      </trkpt>
      <trkpt lat="47.33639" lon="6.31432">
        <ele>261.947</ele>
        <time>2016-09-05T15:13:49.998Z</time>
      </trkpt>
      <trkpt lat="47.33636" lon="6.31431">
        <ele>261.692</ele>
        <time>2016-09-05T15:13:50.998Z</time>
      </trkpt>
      <trkpt lat="47.3363" lon="6.31429">
        <ele>261.549</ele>
        <time>2016-09-05T15:13:51.998Z</time>
      </trkpt>
      <trkpt lat="47.33625" lon="6.31428">
        <ele>260.968</ele>
        <time>2016-09-05T15:13:52.998Z</time>
      </trkpt>
      <trkpt lat="47.3362" lon="6.31427">
        <ele>262.284</ele>
        <time>2016-09-05T15:13:53.998Z</time>
      </trkpt>
      <trkpt lat="47.33615" lon="6.31422">
        <ele>260.924</ele>
        <time>2016-09-05T15:13:54.998Z</time>
      </trkpt>
      <trkpt lat="47.33609" lon="6.31423">
        <ele>262.371</ele>
        <time>2016-09-05T15:13:55.998Z</time>
      </trkpt>
      <trkpt lat="47.33604" lon="6.31423">
        <ele>264.557</ele>
        <time>2016-09-05T15:13:56.998Z</time>
      </trkpt>
      <trkpt lat="47.33599" lon="6.31421">
        <ele>264.667</ele>
        <time>2016-09-05T15:13:57.998Z</time>
      </trkpt>
      <trkpt lat="47.33594" lon="6.31419">
        <ele>264.949</ele>
        <time>2016-09-05T15:13:58.998Z</time>
      </trkpt>
      <trkpt lat="47.3359" lon="6.31418">
        <ele>265.468</ele>
        <time>2016-09-05T15:13:59.998Z</time>
      </trkpt>
      <trkpt lat="47.33586" lon="6.31415">
        <ele>264.972</ele>
        <time>2016-09-05T15:14:00.998Z</time>
      </trkpt>
      <trkpt lat="47.33583" lon="6.31413">
        <ele>264.886</ele>
        <time>2016-09-05T15:14:01.998Z</time>
      </trkpt>
      <trkpt lat="47.33576" lon="6.31414">
        <ele>266.091</ele>
        <time>2016-09-05T15:14:02.998Z</time>
      </trkpt>
      <trkpt lat="47.33571" lon="6.31413">
        <ele>266.507</ele>
        <time>2016-09-05T15:14:03.998Z</time>
      </trkpt>
      <trkpt lat="47.33566" lon="6.31413">
        <ele>267.716</ele>
        <time>2016-09-05T15:14:04.998Z</time>
      </trkpt>
      <trkpt lat="47.33563" lon="6.3141">
        <ele>267.145</ele>
        <time>2016-09-05T15:14:05.998Z</time>
      </trkpt>
      <trkpt lat="47.33559" lon="6.31408">
        <ele>266.896</ele>
        <time>2016-09-05T15:14:06.998Z</time>
      </trkpt>
      <trkpt lat="47.33556" lon="6.31408">
        <ele>269.312</ele>
        <time>2016-09-05T15:14:07.998Z</time>
      </trkpt>
      <trkpt lat="47.33551" lon="6.31406">
        <ele>269.201</ele>
        <time>2016-09-05T15:14:08.998Z</time>
      </trkpt>
      <trkpt lat="47.33545" lon="6.31406">
        <ele>269.532</ele>
        <time>2016-09-05T15:14:09.998Z</time>
      </trkpt>
      <trkpt lat="47.33541" lon="6.31404">
        <ele>269.291</ele>
        <time>2016-09-05T15:14:10.998Z</time>
      </trkpt>
      <trkpt lat="47.33536" lon="6.31402">
        <ele>268.217</ele>
        <time>2016-09-05T15:14:11.998Z</time>
      </trkpt>
      <trkpt lat="47.33531" lon="6.31401">
        <ele>267.636</ele>
        <time>2016-09-05T15:14:12.998Z</time>
      </trkpt>
      <trkpt lat="47.33527" lon="6.31399">
        <ele>266.85</ele>
        <time>2016-09-05T15:14:13.998Z</time>
      </trkpt>
      <trkpt lat="47.33523" lon="6.31398">
        <ele>265.95</ele>
        <time>2016-09-05T15:14:14.998Z</time>
      </trkpt>
      <trkpt lat="47.33519" lon="6.31395">
        <ele>265.694</ele>
        <time>2016-09-05T15:14:15.998Z</time>
      </trkpt>
      <trkpt lat="47.33516" lon="6.31394">
        <ele>266.044</ele>
        <time>2016-09-05T15:14:16.998Z</time>
      </trkpt>
      <trkpt lat="47.33513" lon="6.31392">
        <ele>264.612</ele>
        <time>2016-09-05T15:14:17.998Z</time>
      </trkpt>
      <trkpt lat="47.33509" lon="6.3139">
        <ele>264.743</ele>
        <time>2016-09-05T15:14:18.998Z</time>
      </trkpt>
      <trkpt lat="47.33504" lon="6.31388">
        <ele>264.616</ele>
        <time>2016-09-05T15:14:19.998Z</time>
      </trkpt>
      <trkpt lat="47.335" lon="6.31387">
        <ele>264.064</ele>
        <time>2016-09-05T15:14:20.998Z</time>
      </trkpt>
      <trkpt lat="47.33495" lon="6.31386">
        <ele>263.736</ele>
        <time>2016-09-05T15:14:21.998Z</time>
      </trkpt>
      <trkpt lat="47.3349" lon="6.31387">
        <ele>264.324</ele>
        <time>2016-09-05T15:14:22.998Z</time>
      </trkpt>
      <trkpt lat="47.33485" lon="6.31386">
        <ele>264.455</ele>
        <time>2016-09-05T15:14:23.998Z</time>
      </trkpt>
      <trkpt lat="47.33483" lon="6.31384">
        <ele>263.721</ele>
        <time>2016-09-05T15:14:24.998Z</time>
      </trkpt>
      <trkpt lat="47.3348" lon="6.31383">
        <ele>263.514</ele>
        <time>2016-09-05T15:14:25.998Z</time>
      </trkpt>
      <trkpt lat="47.33476" lon="6.31381">
        <ele>265.152</ele>
        <time>2016-09-05T15:14:26.998Z</time>
      </trkpt>
      <trkpt lat="47.33471" lon="6.3138">
        <ele>265.201</ele>
        <time>2016-09-05T15:14:27.998Z</time>
      </trkpt>
      <trkpt lat="47.33466" lon="6.31377">
        <ele>265.116</ele>
        <time>2016-09-05T15:14:28.998Z</time>
      </trkpt>
      <trkpt lat="47.33461" lon="6.31376">
        <ele>263.982</ele>
        <time>2016-09-05T15:14:29.998Z</time>
      </trkpt>
      <trkpt lat="47.33456" lon="6.31375">
        <ele>264.022</ele>
        <time>2016-09-05T15:14:30.998Z</time>
      </trkpt>
      <trkpt lat="47.33452" lon="6.31374">
        <ele>263.926</ele>
        <time>2016-09-05T15:14:31.998Z</time>
      </trkpt>
      <trkpt lat="47.33448" lon="6.31372">
        <ele>263.022</ele>
        <time>2016-09-05T15:14:32.998Z</time>
      </trkpt>
      <trkpt lat="47.33448" lon="6.31372">
        <ele>263.022</ele>
        <time>2016-09-05T15:14:33.527Z</time>
      </trkpt>
      <trkpt lat="47.33444" lon="6.31371">
        <ele>262.919</ele>
        <time>2016-09-05T15:14:33.998Z</time>
      </trkpt>
      <trkpt lat="47.33439" lon="6.31371">
        <ele>263.451</ele>
        <time>2016-09-05T15:14:34.998Z</time>
      </trkpt>
      <trkpt lat="47.33434" lon="6.31369">
        <ele>263.217</ele>
        <time>2016-09-05T15:14:35.998Z</time>
      </trkpt>
      <trkpt lat="47.33429" lon="6.31369">
        <ele>264.62</ele>
        <time>2016-09-05T15:14:37.002Z</time>
      </trkpt>
      <trkpt lat="47.33425" lon="6.31367">
        <ele>265.66</ele>
        <time>2016-09-05T15:14:38.000Z</time>
      </trkpt>
      <trkpt lat="47.33421" lon="6.31365">
        <ele>265.193</ele>
        <time>2016-09-05T15:14:39.000Z</time>
      </trkpt>
      <trkpt lat="47.33416" lon="6.31363">
        <ele>265.957</ele>
        <time>2016-09-05T15:14:40.000Z</time>
      </trkpt>
      <trkpt lat="47.33412" lon="6.31362">
        <ele>264.828</ele>
        <time>2016-09-05T15:14:41.000Z</time>
      </trkpt>
      <trkpt lat="47.33408" lon="6.3136">
        <ele>262.937</ele>
        <time>2016-09-05T15:14:42.000Z</time>
      </trkpt>
      <trkpt lat="47.33403" lon="6.31359">
        <ele>261.366</ele>
        <time>2016-09-05T15:14:43.000Z</time>
      </trkpt>
      <trkpt lat="47.33399" lon="6.31357">
        <ele>261.277</ele>
        <time>2016-09-05T15:14:44.000Z</time>
      </trkpt>
      <trkpt lat="47.33395" lon="6.31355">
        <ele>260.485</ele>
        <time>2016-09-05T15:14:45.000Z</time>
      </trkpt>
      <trkpt lat="47.33391" lon="6.31352">
        <ele>261.499</ele>
        <time>2016-09-05T15:14:46.000Z</time>
      </trkpt>
      <trkpt lat="47.33386" lon="6.3135">
        <ele>260.996</ele>
        <time>2016-09-05T15:14:47.000Z</time>
      </trkpt>
      <trkpt lat="47.33383" lon="6.31348">
        <ele>260.202</ele>
        <time>2016-09-05T15:14:48.000Z</time>
      </trkpt>
      <trkpt lat="47.33379" lon="6.31346">
        <ele>260.416</ele>
        <time>2016-09-05T15:14:49.000Z</time>
      </trkpt>
      <trkpt lat="47.33374" lon="6.31345">
        <ele>261.464</ele>
        <time>2016-09-05T15:14:50.000Z</time>
      </trkpt>
      <trkpt lat="47.33369" lon="6.31343">
        <ele>262.174</ele>
        <time>2016-09-05T15:14:51.000Z</time>
      </trkpt>
      <trkpt lat="47.33365" lon="6.3134">
        <ele>261.493</ele>
        <time>2016-09-05T15:14:52.000Z</time>
      </trkpt>
      <trkpt lat="47.33361" lon="6.31339">
        <ele>261.369</ele>
        <time>2016-09-05T15:14:53.000Z</time>
      </trkpt>
      <trkpt lat="47.33356" lon="6.31337">
        <ele>261.736</ele>
        <time>2016-09-05T15:14:54.000Z</time>
      </trkpt>
      <trkpt lat="47.33352" lon="6.31335">
        <ele>262.331</ele>
        <time>2016-09-05T15:14:55.000Z</time>
      </trkpt>
      <trkpt lat="47.33348" lon="6.31334">
        <ele>263.226</ele>
        <time>2016-09-05T15:14:56.000Z</time>
      </trkpt>
      <trkpt lat="47.33344" lon="6.31332">
        <ele>263.448</ele>
        <time>2016-09-05T15:14:57.000Z</time>
      </trkpt>
      <trkpt lat="47.33339" lon="6.3133">
        <ele>262.639</ele>
        <time>2016-09-05T15:14:58.000Z</time>
      </trkpt>
      <trkpt lat="47.33335" lon="6.31328">
        <ele>262.487</ele>
        <time>2016-09-05T15:14:59.000Z</time>
      </trkpt>
      <trkpt lat="47.33331" lon="6.31325">
        <ele>262.364</ele>
        <time>2016-09-05T15:15:00.000Z</time>
      </trkpt>
      <trkpt lat="47.33327" lon="6.31323">
        <ele>262.61</ele>
        <time>2016-09-05T15:15:01.000Z</time>
      </trkpt>
      <trkpt lat="47.33323" lon="6.31322">
        <ele>262.871</ele>
        <time>2016-09-05T15:15:02.000Z</time>
      </trkpt>
      <trkpt lat="47.33319" lon="6.31317">
        <ele>261.713</ele>
        <time>2016-09-05T15:15:03.000Z</time>
      </trkpt>
      <trkpt lat="47.33315" lon="6.31315">
        <ele>262.365</ele>
        <time>2016-09-05T15:15:04.000Z</time>
      </trkpt>
      <trkpt lat="47.33309" lon="6.31315">
        <ele>263.19</ele>
        <time>2016-09-05T15:15:05.000Z</time>
      </trkpt>
      <trkpt lat="47.33306" lon="6.31312">
        <ele>261.632</ele>
        <time>2016-09-05T15:15:06.000Z</time>
      </trkpt>
      <trkpt lat="47.33301" lon="6.3131">
        <ele>260.854</ele>
        <time>2016-09-05T15:15:07.000Z</time>
      </trkpt>
      <trkpt lat="47.33297" lon="6.31308">
        <ele>260.795</ele>
        <time>2016-09-05T15:15:08.000Z</time>
      </trkpt>
      <trkpt lat="47.33294" lon="6.3131">
        <ele>262.117</ele>
        <time>2016-09-05T15:15:09.000Z</time>
      </trkpt>
      <trkpt lat="47.3329" lon="6.31309">
        <ele>261.852</ele>
        <time>2016-09-05T15:15:10.000Z</time>
      </trkpt>
      <trkpt lat="47.33286" lon="6.31308">
        <ele>261.865</ele>
        <time>2016-09-05T15:15:11.000Z</time>
      </trkpt>
      <trkpt lat="47.3328" lon="6.31309">
        <ele>261.076</ele>
        <time>2016-09-05T15:15:12.000Z</time>
      </trkpt>
      <trkpt lat="47.33275" lon="6.31307">
        <ele>263.071</ele>
        <time>2016-09-05T15:15:13.000Z</time>
      </trkpt>
      <trkpt lat="47.3327" lon="6.31306">
        <ele>261.323</ele>
        <time>2016-09-05T15:15:14.000Z</time>
      </trkpt>
      <trkpt lat="47.33266" lon="6.31304">
        <ele>262.664</ele>
        <time>2016-09-05T15:15:15.000Z</time>
      </trkpt>
      <trkpt lat="47.33262" lon="6.31302">
        <ele>262.836</ele>
        <time>2016-09-05T15:15:16.000Z</time>
      </trkpt>
      <trkpt lat="47.33258" lon="6.313">
        <ele>262.486</ele>
        <time>2016-09-05T15:15:17.000Z</time>
      </trkpt>
      <trkpt lat="47.33253" lon="6.31297">
        <ele>261.86</ele>
        <time>2016-09-05T15:15:18.000Z</time>
      </trkpt>
      <trkpt lat="47.33248" lon="6.31297">
        <ele>266.26</ele>
        <time>2016-09-05T15:15:19.000Z</time>
      </trkpt>
      <trkpt lat="47.33244" lon="6.31296">
        <ele>267.229</ele>
        <time>2016-09-05T15:15:20.000Z</time>
      </trkpt>
      <trkpt lat="47.33239" lon="6.31296">
        <ele>267.865</ele>
        <time>2016-09-05T15:15:21.000Z</time>
      </trkpt>
      <trkpt lat="47.33235" lon="6.31294">
        <ele>267.847</ele>
        <time>2016-09-05T15:15:22.000Z</time>
      </trkpt>
      <trkpt lat="47.33232" lon="6.31289">
        <ele>268.688</ele>
        <time>2016-09-05T15:15:23.000Z</time>
      </trkpt>
      <trkpt lat="47.3323" lon="6.31286">
        <ele>266.753</ele>
        <time>2016-09-05T15:15:24.000Z</time>
      </trkpt>
      <trkpt lat="47.33225" lon="6.31283">
        <ele>266.513</ele>
        <time>2016-09-05T15:15:25.000Z</time>
      </trkpt>
      <trkpt lat="47.33221" lon="6.31282">
        <ele>266.657</ele>
        <time>2016-09-05T15:15:26.000Z</time>
      </trkpt>
      <trkpt lat="47.33217" lon="6.3128">
        <ele>266.131</ele>
        <time>2016-09-05T15:15:27.000Z</time>
      </trkpt>
      <trkpt lat="47.33212" lon="6.31278">
        <ele>266.051</ele>
        <time>2016-09-05T15:15:28.000Z</time>
      </trkpt>
      <trkpt lat="47.33208" lon="6.31276">
        <ele>266.989</ele>
        <time>2016-09-05T15:15:29.000Z</time>
      </trkpt>
      <trkpt lat="47.33202" lon="6.31273">
        <ele>268.117</ele>
        <time>2016-09-05T15:15:30.000Z</time>
      </trkpt>
      <trkpt lat="47.33199" lon="6.3127">
        <ele>265.81</ele>
        <time>2016-09-05T15:15:31.000Z</time>
      </trkpt>
      <trkpt lat="47.33195" lon="6.31268">
        <ele>266.12</ele>
        <time>2016-09-05T15:15:32.000Z</time>
      </trkpt>
      <trkpt lat="47.33192" lon="6.31266">
        <ele>266.862</ele>
        <time>2016-09-05T15:15:33.000Z</time>
      </trkpt>
      <trkpt lat="47.33188" lon="6.31264">
        <ele>266.378</ele>
        <time>2016-09-05T15:15:34.000Z</time>
      </trkpt>
      <trkpt lat="47.33184" lon="6.3126">
        <ele>266.328</ele>
        <time>2016-09-05T15:15:35.000Z</time>
      </trkpt>
      <trkpt lat="47.33179" lon="6.31257">
        <ele>265.674</ele>
        <time>2016-09-05T15:15:36.000Z</time>
      </trkpt>
      <trkpt lat="47.33175" lon="6.31254">
        <ele>266.703</ele>
        <time>2016-09-05T15:15:37.000Z</time>
      </trkpt>
      <trkpt lat="47.33171" lon="6.31252">
        <ele>264.1</ele>
        <time>2016-09-05T15:15:38.000Z</time>
      </trkpt>
      <trkpt lat="47.33166" lon="6.31249">
        <ele>264.085</ele>
        <time>2016-09-05T15:15:39.000Z</time>
      </trkpt>
      <trkpt lat="47.33164" lon="6.31249">
        <ele>259.628</ele>
        <time>2016-09-05T15:15:40.000Z</time>
      </trkpt>
      <trkpt lat="47.33159" lon="6.31246">
        <ele>259.554</ele>
        <time>2016-09-05T15:15:41.000Z</time>
      </trkpt>
      <trkpt lat="47.33154" lon="6.31244">
        <ele>259.576</ele>
        <time>2016-09-05T15:15:42.000Z</time>
      </trkpt>
      <trkpt lat="47.3315" lon="6.31242">
        <ele>262.5</ele>
        <time>2016-09-05T15:15:43.000Z</time>
      </trkpt>
      <trkpt lat="47.33146" lon="6.31239">
        <ele>262.469</ele>
        <time>2016-09-05T15:15:44.000Z</time>
      </trkpt>
      <trkpt lat="47.33145" lon="6.31234">
        <ele>261.574</ele>
        <time>2016-09-05T15:15:45.000Z</time>
      </trkpt>
      <trkpt lat="47.33142" lon="6.31231">
        <ele>261.612</ele>
        <time>2016-09-05T15:15:46.000Z</time>
      </trkpt>
      <trkpt lat="47.33137" lon="6.31227">
        <ele>262.307</ele>
        <time>2016-09-05T15:15:47.000Z</time>
      </trkpt>
      <trkpt lat="47.33135" lon="6.31222">
        <ele>261.966</ele>
        <time>2016-09-05T15:15:48.000Z</time>
      </trkpt>
      <trkpt lat="47.33131" lon="6.3122">
        <ele>262.207</ele>
        <time>2016-09-05T15:15:49.000Z</time>
      </trkpt>
      <trkpt lat="47.33127" lon="6.31216">
        <ele>263.721</ele>
        <time>2016-09-05T15:15:50.000Z</time>
      </trkpt>
      <trkpt lat="47.33124" lon="6.31211">
        <ele>262.17</ele>
        <time>2016-09-05T15:15:51.000Z</time>
      </trkpt>
      <trkpt lat="47.33121" lon="6.31206">
        <ele>260.946</ele>
        <time>2016-09-05T15:15:52.000Z</time>
      </trkpt>
      <trkpt lat="47.33118" lon="6.31201">
        <ele>259.821</ele>
        <time>2016-09-05T15:15:53.000Z</time>
      </trkpt>
      <trkpt lat="47.33114" lon="6.31196">
        <ele>259.859</ele>
        <time>2016-09-05T15:15:54.000Z</time>
      </trkpt>
      <trkpt lat="47.33111" lon="6.31186">
        <ele>259.184</ele>
        <time>2016-09-05T15:15:55.000Z</time>
      </trkpt>
      <trkpt lat="47.33107" lon="6.31181">
        <ele>258.771</ele>
        <time>2016-09-05T15:15:56.000Z</time>
      </trkpt>
      <trkpt lat="47.33102" lon="6.31177">
        <ele>258.79</ele>
        <time>2016-09-05T15:15:57.000Z</time>
      </trkpt>
      <trkpt lat="47.33099" lon="6.31172">
        <ele>258.866</ele>
        <time>2016-09-05T15:15:58.000Z</time>
      </trkpt>
      <trkpt lat="47.33095" lon="6.31168">
        <ele>258.875</ele>
        <time>2016-09-05T15:15:59.000Z</time>
      </trkpt>
      <trkpt lat="47.33092" lon="6.31165">
        <ele>262.076</ele>
        <time>2016-09-05T15:16:00.000Z</time>
      </trkpt>
      <trkpt lat="47.33087" lon="6.31159">
        <ele>260.623</ele>
        <time>2016-09-05T15:16:01.000Z</time>
      </trkpt>
      <trkpt lat="47.33084" lon="6.31153">
        <ele>259.759</ele>
        <time>2016-09-05T15:16:02.000Z</time>
      </trkpt>
      <trkpt lat="47.3308" lon="6.31147">
        <ele>257.855</ele>
        <time>2016-09-05T15:16:03.000Z</time>
      </trkpt>
      <trkpt lat="47.33075" lon="6.31143">
        <ele>258.887</ele>
        <time>2016-09-05T15:16:04.000Z</time>
      </trkpt>
      <trkpt lat="47.33073" lon="6.31138">
        <ele>258.567</ele>
        <time>2016-09-05T15:16:05.000Z</time>
      </trkpt>
      <trkpt lat="47.33069" lon="6.31133">
        <ele>259.79</ele>
        <time>2016-09-05T15:16:06.000Z</time>
      </trkpt>
      <trkpt lat="47.33065" lon="6.31128">
        <ele>258.53</ele>
        <time>2016-09-05T15:16:07.000Z</time>
      </trkpt>
      <trkpt lat="47.33063" lon="6.31124">
        <ele>259.447</ele>
        <time>2016-09-05T15:16:08.000Z</time>
      </trkpt>
      <trkpt lat="47.33059" lon="6.31119">
        <ele>259.483</ele>
        <time>2016-09-05T15:16:09.000Z</time>
      </trkpt>
      <trkpt lat="47.33057" lon="6.31114">
        <ele>260.58</ele>
        <time>2016-09-05T15:16:10.000Z</time>
      </trkpt>
      <trkpt lat="47.33054" lon="6.31108">
        <ele>261.284</ele>
        <time>2016-09-05T15:16:11.000Z</time>
      </trkpt>
      <trkpt lat="47.33052" lon="6.31102">
        <ele>263.213</ele>
        <time>2016-09-05T15:16:12.000Z</time>
      </trkpt>
      <trkpt lat="47.3305" lon="6.31097">
        <ele>263.254</ele>
        <time>2016-09-05T15:16:13.000Z</time>
      </trkpt>
      <trkpt lat="47.33048" lon="6.31091">
        <ele>263.717</ele>
        <time>2016-09-05T15:16:14.000Z</time>
      </trkpt>
      <trkpt lat="47.33045" lon="6.31085">
        <ele>263.365</ele>
        <time>2016-09-05T15:16:15.000Z</time>
      </trkpt>
      <trkpt lat="47.33043" lon="6.31078">
        <ele>263.755</ele>
        <time>2016-09-05T15:16:16.000Z</time>
      </trkpt>
      <trkpt lat="47.33041" lon="6.31072">
        <ele>262.927</ele>
        <time>2016-09-05T15:16:17.000Z</time>
      </trkpt>
      <trkpt lat="47.33039" lon="6.31067">
        <ele>262.704</ele>
        <time>2016-09-05T15:16:18.000Z</time>
      </trkpt>
      <trkpt lat="47.33037" lon="6.31061">
        <ele>263.307</ele>
        <time>2016-09-05T15:16:19.000Z</time>
      </trkpt>
      <trkpt lat="47.33035" lon="6.31055">
        <ele>263.216</ele>
        <time>2016-09-05T15:16:20.000Z</time>
      </trkpt>
      <trkpt lat="47.33033" lon="6.31048">
        <ele>262.799</ele>
        <time>2016-09-05T15:16:21.000Z</time>
      </trkpt>
      <trkpt lat="47.33032" lon="6.31042">
        <ele>262.735</ele>
        <time>2016-09-05T15:16:22.000Z</time>
      </trkpt>
      <trkpt lat="47.33028" lon="6.31036">
        <ele>263.915</ele>
        <time>2016-09-05T15:16:23.000Z</time>
      </trkpt>
      <trkpt lat="47.33025" lon="6.3103">
        <ele>262.756</ele>
        <time>2016-09-05T15:16:24.000Z</time>
      </trkpt>
      <trkpt lat="47.33023" lon="6.31024">
        <ele>262.047</ele>
        <time>2016-09-05T15:16:25.000Z</time>
      </trkpt>
      <trkpt lat="47.33022" lon="6.31017">
        <ele>261.671</ele>
        <time>2016-09-05T15:16:26.000Z</time>
      </trkpt>
      <trkpt lat="47.3302" lon="6.3101">
        <ele>262.127</ele>
        <time>2016-09-05T15:16:27.000Z</time>
      </trkpt>
      <trkpt lat="47.33017" lon="6.31005">
        <ele>261.404</ele>
        <time>2016-09-05T15:16:28.000Z</time>
      </trkpt>
      <trkpt lat="47.33017" lon="6.31">
        <ele>262.829</ele>
        <time>2016-09-05T15:16:29.000Z</time>
      </trkpt>
      <trkpt lat="47.33015" lon="6.30994">
        <ele>263.158</ele>
        <time>2016-09-05T15:16:30.000Z</time>
      </trkpt>
      <trkpt lat="47.33014" lon="6.30988">
        <ele>261.971</ele>
        <time>2016-09-05T15:16:31.000Z</time>
      </trkpt>
      <trkpt lat="47.33012" lon="6.30983">
        <ele>262.643</ele>
        <time>2016-09-05T15:16:32.000Z</time>
      </trkpt>
      <trkpt lat="47.3301" lon="6.30976">
        <ele>262.587</ele>
        <time>2016-09-05T15:16:33.000Z</time>
      </trkpt>
      <trkpt lat="47.33008" lon="6.30971">
        <ele>262.472</ele>
        <time>2016-09-05T15:16:34.000Z</time>
      </trkpt>
      <trkpt lat="47.33006" lon="6.30965">
        <ele>261.234</ele>
        <time>2016-09-05T15:16:35.000Z</time>
      </trkpt>
      <trkpt lat="47.33004" lon="6.30958">
        <ele>260.226</ele>
        <time>2016-09-05T15:16:36.000Z</time>
      </trkpt>
      <trkpt lat="47.33003" lon="6.30952">
        <ele>262.375</ele>
        <time>2016-09-05T15:16:37.000Z</time>
      </trkpt>
      <trkpt lat="47.33002" lon="6.30946">
        <ele>263.021</ele>
        <time>2016-09-05T15:16:38.000Z</time>
      </trkpt>
      <trkpt lat="47.33" lon="6.3094">
        <ele>266.238</ele>
        <time>2016-09-05T15:16:39.000Z</time>
      </trkpt>
      <trkpt lat="47.32999" lon="6.30934">
        <ele>266.625</ele>
        <time>2016-09-05T15:16:40.000Z</time>
      </trkpt>
      <trkpt lat="47.32996" lon="6.30929">
        <ele>272.357</ele>
        <time>2016-09-05T15:16:41.000Z</time>
      </trkpt>
      <trkpt lat="47.32994" lon="6.30923">
        <ele>273.2</ele>
        <time>2016-09-05T15:16:42.000Z</time>
      </trkpt>
      <trkpt lat="47.32994" lon="6.30916">
        <ele>273.347</ele>
        <time>2016-09-05T15:16:43.000Z</time>
      </trkpt>
      <trkpt lat="47.32993" lon="6.30911">
        <ele>272.61</ele>
        <time>2016-09-05T15:16:44.000Z</time>
      </trkpt>
      <trkpt lat="47.32992" lon="6.30904">
        <ele>272.279</ele>
        <time>2016-09-05T15:16:45.000Z</time>
      </trkpt>
      <trkpt lat="47.3299" lon="6.30898">
        <ele>273.692</ele>
        <time>2016-09-05T15:16:46.000Z</time>
      </trkpt>
      <trkpt lat="47.32989" lon="6.30892">
        <ele>274.246</ele>
        <time>2016-09-05T15:16:47.000Z</time>
      </trkpt>
      <trkpt lat="47.32989" lon="6.30889">
        <ele>274.773</ele>
        <time>2016-09-05T15:16:48.000Z</time>
      </trkpt>
      <trkpt lat="47.32989" lon="6.30884">
        <ele>274.988</ele>
        <time>2016-09-05T15:16:49.000Z</time>
      </trkpt>
      <trkpt lat="47.32989" lon="6.30879">
        <ele>276.566</ele>
        <time>2016-09-05T15:16:50.000Z</time>
      </trkpt>
      <trkpt lat="47.32989" lon="6.30874">
        <ele>277.307</ele>
        <time>2016-09-05T15:16:51.000Z</time>
      </trkpt>
      <trkpt lat="47.32989" lon="6.30869">
        <ele>277.578</ele>
        <time>2016-09-05T15:16:52.000Z</time>
      </trkpt>
      <trkpt lat="47.32988" lon="6.30862">
        <ele>278.195</ele>
        <time>2016-09-05T15:16:53.000Z</time>
      </trkpt>
      <trkpt lat="47.32987" lon="6.30852">
        <ele>277.104</ele>
        <time>2016-09-05T15:16:54.000Z</time>
      </trkpt>
      <trkpt lat="47.32987" lon="6.30844">
        <ele>278.966</ele>
        <time>2016-09-05T15:16:55.000Z</time>
      </trkpt>
      <trkpt lat="47.32986" lon="6.30834">
        <ele>278.655</ele>
        <time>2016-09-05T15:16:56.000Z</time>
      </trkpt>
      <trkpt lat="47.32986" lon="6.30828">
        <ele>277.634</ele>
        <time>2016-09-05T15:16:57.000Z</time>
      </trkpt>
      <trkpt lat="47.32986" lon="6.30823">
        <ele>277.693</ele>
        <time>2016-09-05T15:16:58.000Z</time>
      </trkpt>
      <trkpt lat="47.32986" lon="6.30815">
        <ele>278.555</ele>
        <time>2016-09-05T15:16:59.000Z</time>
      </trkpt>
      <trkpt lat="47.32984" lon="6.30807">
        <ele>280.161</ele>
        <time>2016-09-05T15:17:00.000Z</time>
      </trkpt>
      <trkpt lat="47.32985" lon="6.30799">
        <ele>277.15</ele>
        <time>2016-09-05T15:17:01.000Z</time>
      </trkpt>
      <trkpt lat="47.32985" lon="6.30792">
        <ele>276.754</ele>
        <time>2016-09-05T15:17:02.000Z</time>
      </trkpt>
      <trkpt lat="47.32984" lon="6.30784">
        <ele>277.74</ele>
        <time>2016-09-05T15:17:03.000Z</time>
      </trkpt>
      <trkpt lat="47.32984" lon="6.30777">
        <ele>278.82</ele>
        <time>2016-09-05T15:17:04.000Z</time>
      </trkpt>
      <trkpt lat="47.32983" lon="6.30771">
        <ele>279.823</ele>
        <time>2016-09-05T15:17:05.000Z</time>
      </trkpt>
      <trkpt lat="47.32983" lon="6.30765">
        <ele>280.855</ele>
        <time>2016-09-05T15:17:06.000Z</time>
      </trkpt>
      <trkpt lat="47.32983" lon="6.30759">
        <ele>281.487</ele>
        <time>2016-09-05T15:17:07.000Z</time>
      </trkpt>
      <trkpt lat="47.32983" lon="6.30753">
        <ele>281.433</ele>
        <time>2016-09-05T15:17:08.000Z</time>
      </trkpt>
      <trkpt lat="47.32983" lon="6.30747">
        <ele>279.421</ele>
        <time>2016-09-05T15:17:09.000Z</time>
      </trkpt>
      <trkpt lat="47.32983" lon="6.30739">
        <ele>279.399</ele>
        <time>2016-09-05T15:17:10.000Z</time>
      </trkpt>
      <trkpt lat="47.32983" lon="6.30732">
        <ele>278.678</ele>
        <time>2016-09-05T15:17:11.000Z</time>
      </trkpt>
      <trkpt lat="47.32983" lon="6.30725">
        <ele>279.295</ele>
        <time>2016-09-05T15:17:12.000Z</time>
      </trkpt>
      <trkpt lat="47.32984" lon="6.30716">
        <ele>277.844</ele>
        <time>2016-09-05T15:17:13.000Z</time>
      </trkpt>
      <trkpt lat="47.32984" lon="6.30712">
        <ele>276.581</ele>
        <time>2016-09-05T15:17:14.000Z</time>
      </trkpt>
      <trkpt lat="47.32985" lon="6.30705">
        <ele>275.276</ele>
        <time>2016-09-05T15:17:15.000Z</time>
      </trkpt>
      <trkpt lat="47.32985" lon="6.30698">
        <ele>275.041</ele>
        <time>2016-09-05T15:17:16.000Z</time>
      </trkpt>
      <trkpt lat="47.32986" lon="6.30692">
        <ele>275.567</ele>
        <time>2016-09-05T15:17:17.000Z</time>
      </trkpt>
      <trkpt lat="47.32986" lon="6.30685">
        <ele>275.65</ele>
        <time>2016-09-05T15:17:18.000Z</time>
      </trkpt>
      <trkpt lat="47.32987" lon="6.30677">
        <ele>273.444</ele>
        <time>2016-09-05T15:17:19.000Z</time>
      </trkpt>
      <trkpt lat="47.32988" lon="6.30671">
        <ele>270.957</ele>
        <time>2016-09-05T15:17:20.000Z</time>
      </trkpt>
      <trkpt lat="47.32988" lon="6.30665">
        <ele>271.362</ele>
        <time>2016-09-05T15:17:21.000Z</time>
      </trkpt>
      <trkpt lat="47.32987" lon="6.30661">
        <ele>273.726</ele>
        <time>2016-09-05T15:17:22.000Z</time>
      </trkpt>
      <trkpt lat="47.32987" lon="6.30655">
        <ele>273.752</ele>
        <time>2016-09-05T15:17:23.000Z</time>
      </trkpt>
      <trkpt lat="47.32986" lon="6.30648">
        <ele>274.868</ele>
        <time>2016-09-05T15:17:24.000Z</time>
      </trkpt>
      <trkpt lat="47.32986" lon="6.30643">
        <ele>274.185</ele>
        <time>2016-09-05T15:17:25.000Z</time>
      </trkpt>
      <trkpt lat="47.32986" lon="6.30637">
        <ele>275.54</ele>
        <time>2016-09-05T15:17:26.000Z</time>
      </trkpt>
      <trkpt lat="47.32987" lon="6.3063">
        <ele>274.261</ele>
        <time>2016-09-05T15:17:27.000Z</time>
      </trkpt>
      <trkpt lat="47.32986" lon="6.30622">
        <ele>274.232</ele>
        <time>2016-09-05T15:17:28.000Z</time>
      </trkpt>
      <trkpt lat="47.32984" lon="6.30615">
        <ele>274.988</ele>
        <time>2016-09-05T15:17:29.000Z</time>
      </trkpt>
      <trkpt lat="47.32983" lon="6.30608">
        <ele>275.628</ele>
        <time>2016-09-05T15:17:30.000Z</time>
      </trkpt>
      <trkpt lat="47.32984" lon="6.30602">
        <ele>275.949</ele>
        <time>2016-09-05T15:17:31.000Z</time>
      </trkpt>
      <trkpt lat="47.32984" lon="6.30595">
        <ele>275.511</ele>
        <time>2016-09-05T15:17:32.000Z</time>
      </trkpt>
      <trkpt lat="47.32985" lon="6.3059">
        <ele>273.608</ele>
        <time>2016-09-05T15:17:33.000Z</time>
      </trkpt>
      <trkpt lat="47.32985" lon="6.30586">
        <ele>275.103</ele>
        <time>2016-09-05T15:17:34.000Z</time>
      </trkpt>
      <trkpt lat="47.32985" lon="6.30583">
        <ele>273.497</ele>
        <time>2016-09-05T15:17:35.000Z</time>
      </trkpt>
      <trkpt lat="47.32984" lon="6.30575">
        <ele>273.97</ele>
        <time>2016-09-05T15:17:36.000Z</time>
      </trkpt>
      <trkpt lat="47.32984" lon="6.30568">
        <ele>274.22</ele>
        <time>2016-09-05T15:17:37.000Z</time>
      </trkpt>
      <trkpt lat="47.32983" lon="6.30556">
        <ele>269.428</ele>
        <time>2016-09-05T15:17:38.000Z</time>
      </trkpt>
      <trkpt lat="47.32983" lon="6.30548">
        <ele>269.449</ele>
        <time>2016-09-05T15:17:39.000Z</time>
      </trkpt>
      <trkpt lat="47.32982" lon="6.30541">
        <ele>267.793</ele>
        <time>2016-09-05T15:17:40.000Z</time>
      </trkpt>
      <trkpt lat="47.32981" lon="6.30535">
        <ele>267.899</ele>
        <time>2016-09-05T15:17:41.000Z</time>
      </trkpt>
      <trkpt lat="47.32979" lon="6.30527">
        <ele>266.47</ele>
        <time>2016-09-05T15:17:42.000Z</time>
      </trkpt>
      <trkpt lat="47.32979" lon="6.3052">
        <ele>266.052</ele>
        <time>2016-09-05T15:17:43.000Z</time>
      </trkpt>
      <trkpt lat="47.32979" lon="6.30514">
        <ele>266.103</ele>
        <time>2016-09-05T15:17:44.000Z</time>
      </trkpt>
      <trkpt lat="47.32979" lon="6.30506">
        <ele>264.772</ele>
        <time>2016-09-05T15:17:45.000Z</time>
      </trkpt>
      <trkpt lat="47.32978" lon="6.30499">
        <ele>264.591</ele>
        <time>2016-09-05T15:17:46.000Z</time>
      </trkpt>
      <trkpt lat="47.32978" lon="6.30491">
        <ele>262.551</ele>
        <time>2016-09-05T15:17:47.000Z</time>
      </trkpt>
      <trkpt lat="47.32978" lon="6.30484">
        <ele>261.368</ele>
        <time>2016-09-05T15:17:48.000Z</time>
      </trkpt>
      <trkpt lat="47.32979" lon="6.30476">
        <ele>260.03</ele>
        <time>2016-09-05T15:17:49.000Z</time>
      </trkpt>
      <trkpt lat="47.32978" lon="6.30469">
        <ele>259.516</ele>
        <time>2016-09-05T15:17:50.000Z</time>
      </trkpt>
      <trkpt lat="47.32978" lon="6.30461">
        <ele>259.166</ele>
        <time>2016-09-05T15:17:51.000Z</time>
      </trkpt>
      <trkpt lat="47.32977" lon="6.30454">
        <ele>259.526</ele>
        <time>2016-09-05T15:17:52.000Z</time>
      </trkpt>
      <trkpt lat="47.32977" lon="6.30448">
        <ele>259.108</ele>
        <time>2016-09-05T15:17:53.000Z</time>
      </trkpt>
      <trkpt lat="47.32977" lon="6.30442">
        <ele>259.968</ele>
        <time>2016-09-05T15:17:54.000Z</time>
      </trkpt>
      <trkpt lat="47.32978" lon="6.30437">
        <ele>259.574</ele>
        <time>2016-09-05T15:17:55.000Z</time>
      </trkpt>
      <trkpt lat="47.32978" lon="6.30431">
        <ele>259.323</ele>
        <time>2016-09-05T15:17:56.000Z</time>
      </trkpt>
      <trkpt lat="47.32977" lon="6.30426">
        <ele>258.893</ele>
        <time>2016-09-05T15:17:57.000Z</time>
      </trkpt>
      <trkpt lat="47.32976" lon="6.3042">
        <ele>258.629</ele>
        <time>2016-09-05T15:17:58.000Z</time>
      </trkpt>
      <trkpt lat="47.32976" lon="6.30415">
        <ele>256.949</ele>
        <time>2016-09-05T15:17:59.000Z</time>
      </trkpt>
      <trkpt lat="47.32976" lon="6.30409">
        <ele>256.126</ele>
        <time>2016-09-05T15:18:00.000Z</time>
      </trkpt>
      <trkpt lat="47.32975" lon="6.30403">
        <ele>255.57</ele>
        <time>2016-09-05T15:18:01.000Z</time>
      </trkpt>
      <trkpt lat="47.32975" lon="6.30398">
        <ele>255.445</ele>
        <time>2016-09-05T15:18:02.000Z</time>
      </trkpt>
      <trkpt lat="47.32975" lon="6.30391">
        <ele>255.316</ele>
        <time>2016-09-05T15:18:03.000Z</time>
      </trkpt>
      <trkpt lat="47.32977" lon="6.30381">
        <ele>255.797</ele>
        <time>2016-09-05T15:18:04.000Z</time>
      </trkpt>
      <trkpt lat="47.32979" lon="6.30372">
        <ele>255.649</ele>
        <time>2016-09-05T15:18:05.000Z</time>
      </trkpt>
      <trkpt lat="47.32979" lon="6.30361">
        <ele>254.792</ele>
        <time>2016-09-05T15:18:06.000Z</time>
      </trkpt>
      <trkpt lat="47.3298" lon="6.30351">
        <ele>254.99</ele>
        <time>2016-09-05T15:18:07.000Z</time>
      </trkpt>
      <trkpt lat="47.3298" lon="6.30343">
        <ele>253.759</ele>
        <time>2016-09-05T15:18:08.000Z</time>
      </trkpt>
      <trkpt lat="47.3298" lon="6.30334">
        <ele>252.306</ele>
        <time>2016-09-05T15:18:09.000Z</time>
      </trkpt>
      <trkpt lat="47.3298" lon="6.30326">
        <ele>251.353</ele>
        <time>2016-09-05T15:18:10.000Z</time>
      </trkpt>
      <trkpt lat="47.32981" lon="6.30317">
        <ele>251.426</ele>
        <time>2016-09-05T15:18:11.000Z</time>
      </trkpt>
      <trkpt lat="47.32982" lon="6.30307">
        <ele>250.239</ele>
        <time>2016-09-05T15:18:12.000Z</time>
      </trkpt>
      <trkpt lat="47.32984" lon="6.303">
        <ele>250.764</ele>
        <time>2016-09-05T15:18:13.000Z</time>
      </trkpt>
      <trkpt lat="47.32984" lon="6.30292">
        <ele>251.4</ele>
        <time>2016-09-05T15:18:14.000Z</time>
      </trkpt>
      <trkpt lat="47.32985" lon="6.30284">
        <ele>252.518</ele>
        <time>2016-09-05T15:18:15.000Z</time>
      </trkpt>
      <trkpt lat="47.32987" lon="6.30276">
        <ele>254.409</ele>
        <time>2016-09-05T15:18:16.000Z</time>
      </trkpt>
      <trkpt lat="47.32988" lon="6.3027">
        <ele>254.666</ele>
        <time>2016-09-05T15:18:17.000Z</time>
      </trkpt>
      <trkpt lat="47.32989" lon="6.30263">
        <ele>255.049</ele>
        <time>2016-09-05T15:18:18.000Z</time>
      </trkpt>
      <trkpt lat="47.3299" lon="6.30256">
        <ele>254.731</ele>
        <time>2016-09-05T15:18:19.000Z</time>
      </trkpt>
      <trkpt lat="47.3299" lon="6.30249">
        <ele>255.124</ele>
        <time>2016-09-05T15:18:20.000Z</time>
      </trkpt>
      <trkpt lat="47.32991" lon="6.30243">
        <ele>252.885</ele>
        <time>2016-09-05T15:18:21.000Z</time>
      </trkpt>
      <trkpt lat="47.32993" lon="6.30236">
        <ele>252.353</ele>
        <time>2016-09-05T15:18:22.000Z</time>
      </trkpt>
      <trkpt lat="47.32994" lon="6.3023">
        <ele>250.782</ele>
        <time>2016-09-05T15:18:23.000Z</time>
      </trkpt>
      <trkpt lat="47.32996" lon="6.30223">
        <ele>250.581</ele>
        <time>2016-09-05T15:18:24.000Z</time>
      </trkpt>
      <trkpt lat="47.32997" lon="6.30216">
        <ele>251.641</ele>
        <time>2016-09-05T15:18:25.000Z</time>
      </trkpt>
      <trkpt lat="47.32998" lon="6.3021">
        <ele>253.239</ele>
        <time>2016-09-05T15:18:26.000Z</time>
      </trkpt>
      <trkpt lat="47.32999" lon="6.30203">
        <ele>253.821</ele>
        <time>2016-09-05T15:18:27.000Z</time>
      </trkpt>
      <trkpt lat="47.32999" lon="6.30195">
        <ele>253.498</ele>
        <time>2016-09-05T15:18:28.000Z</time>
      </trkpt>
      <trkpt lat="47.32999" lon="6.30189">
        <ele>253.261</ele>
        <time>2016-09-05T15:18:29.000Z</time>
      </trkpt>
      <trkpt lat="47.33" lon="6.30182">
        <ele>253.836</ele>
        <time>2016-09-05T15:18:30.000Z</time>
      </trkpt>
      <trkpt lat="47.33001" lon="6.30175">
        <ele>252.895</ele>
        <time>2016-09-05T15:18:31.000Z</time>
      </trkpt>
      <trkpt lat="47.33002" lon="6.30169">
        <ele>252.585</ele>
        <time>2016-09-05T15:18:32.000Z</time>
      </trkpt>
      <trkpt lat="47.33002" lon="6.30162">
        <ele>251.855</ele>
        <time>2016-09-05T15:18:33.000Z</time>
      </trkpt>
      <trkpt lat="47.33003" lon="6.30154">
        <ele>252.45</ele>
        <time>2016-09-05T15:18:34.000Z</time>
      </trkpt>
      <trkpt lat="47.33004" lon="6.30146">
        <ele>252.696</ele>
        <time>2016-09-05T15:18:35.000Z</time>
      </trkpt>
      <trkpt lat="47.33005" lon="6.3014">
        <ele>254.552</ele>
        <time>2016-09-05T15:18:36.000Z</time>
      </trkpt>
      <trkpt lat="47.33005" lon="6.30133">
        <ele>253.954</ele>
        <time>2016-09-05T15:18:37.000Z</time>
      </trkpt>
      <trkpt lat="47.33006" lon="6.30127">
        <ele>253.567</ele>
        <time>2016-09-05T15:18:38.000Z</time>
      </trkpt>
      <trkpt lat="47.33006" lon="6.30121">
        <ele>253.64</ele>
        <time>2016-09-05T15:18:39.000Z</time>
      </trkpt>
      <trkpt lat="47.33006" lon="6.30115">
        <ele>253.683</ele>
        <time>2016-09-05T15:18:40.000Z</time>
      </trkpt>
      <trkpt lat="47.33007" lon="6.30109">
        <ele>253.761</ele>
        <time>2016-09-05T15:18:41.000Z</time>
      </trkpt>
      <trkpt lat="47.33007" lon="6.30103">
        <ele>254.181</ele>
        <time>2016-09-05T15:18:42.000Z</time>
      </trkpt>
      <trkpt lat="47.33007" lon="6.30097">
        <ele>254.428</ele>
        <time>2016-09-05T15:18:43.000Z</time>
      </trkpt>
      <trkpt lat="47.33009" lon="6.30089">
        <ele>253.014</ele>
        <time>2016-09-05T15:18:44.000Z</time>
      </trkpt>
      <trkpt lat="47.3301" lon="6.30084">
        <ele>253.317</ele>
        <time>2016-09-05T15:18:45.000Z</time>
      </trkpt>
      <trkpt lat="47.3301" lon="6.30077">
        <ele>253.51</ele>
        <time>2016-09-05T15:18:46.000Z</time>
      </trkpt>
      <trkpt lat="47.33011" lon="6.3007">
        <ele>253.459</ele>
        <time>2016-09-05T15:18:47.000Z</time>
      </trkpt>
      <trkpt lat="47.33011" lon="6.30062">
        <ele>253.078</ele>
        <time>2016-09-05T15:18:48.000Z</time>
      </trkpt>
      <trkpt lat="47.33012" lon="6.30055">
        <ele>253.877</ele>
        <time>2016-09-05T15:18:49.000Z</time>
      </trkpt>
      <trkpt lat="47.33013" lon="6.30049">
        <ele>253.869</ele>
        <time>2016-09-05T15:18:50.000Z</time>
      </trkpt>
      <trkpt lat="47.33014" lon="6.30042">
        <ele>253.728</ele>
        <time>2016-09-05T15:18:51.000Z</time>
      </trkpt>
      <trkpt lat="47.33014" lon="6.30035">
        <ele>254.677</ele>
        <time>2016-09-05T15:18:52.000Z</time>
      </trkpt>
      <trkpt lat="47.33014" lon="6.30029">
        <ele>253.575</ele>
        <time>2016-09-05T15:18:53.000Z</time>
      </trkpt>
      <trkpt lat="47.33014" lon="6.30023">
        <ele>254.884</ele>
        <time>2016-09-05T15:18:54.000Z</time>
      </trkpt>
      <trkpt lat="47.33014" lon="6.30016">
        <ele>254.675</ele>
        <time>2016-09-05T15:18:55.000Z</time>
      </trkpt>
      <trkpt lat="47.33015" lon="6.30009">
        <ele>254.092</ele>
        <time>2016-09-05T15:18:56.000Z</time>
      </trkpt>
      <trkpt lat="47.33015" lon="6.30002">
        <ele>254.611</ele>
        <time>2016-09-05T15:18:57.000Z</time>
      </trkpt>
      <trkpt lat="47.33016" lon="6.29995">
        <ele>253.086</ele>
        <time>2016-09-05T15:18:58.000Z</time>
      </trkpt>
      <trkpt lat="47.33016" lon="6.29988">
        <ele>253.343</ele>
        <time>2016-09-05T15:18:59.000Z</time>
      </trkpt>
      <trkpt lat="47.33017" lon="6.29982">
        <ele>253.08</ele>
        <time>2016-09-05T15:19:00.000Z</time>
      </trkpt>
      <trkpt lat="47.33018" lon="6.29976">
        <ele>252.847</ele>
        <time>2016-09-05T15:19:01.000Z</time>
      </trkpt>
      <trkpt lat="47.33018" lon="6.29969">
        <ele>252.453</ele>
        <time>2016-09-05T15:19:02.000Z</time>
      </trkpt>
      <trkpt lat="47.33019" lon="6.29962">
        <ele>252.276</ele>
        <time>2016-09-05T15:19:03.000Z</time>
      </trkpt>
      <trkpt lat="47.33019" lon="6.29956">
        <ele>253.213</ele>
        <time>2016-09-05T15:19:04.000Z</time>
      </trkpt>
      <trkpt lat="47.33019" lon="6.29949">
        <ele>253.639</ele>
        <time>2016-09-05T15:19:05.000Z</time>
      </trkpt>
      <trkpt lat="47.3302" lon="6.29942">
        <ele>253.354</ele>
        <time>2016-09-05T15:19:06.000Z</time>
      </trkpt>
      <trkpt lat="47.33022" lon="6.29933">
        <ele>253.735</ele>
        <time>2016-09-05T15:19:07.000Z</time>
      </trkpt>
      <trkpt lat="47.33021" lon="6.29928">
        <ele>254.619</ele>
        <time>2016-09-05T15:19:08.000Z</time>
      </trkpt>
      <trkpt lat="47.33024" lon="6.29921">
        <ele>253.648</ele>
        <time>2016-09-05T15:19:09.000Z</time>
      </trkpt>
      <trkpt lat="47.33024" lon="6.29914">
        <ele>254.906</ele>
        <time>2016-09-05T15:19:10.000Z</time>
      </trkpt>
      <trkpt lat="47.33024" lon="6.29907">
        <ele>254.673</ele>
        <time>2016-09-05T15:19:11.000Z</time>
      </trkpt>
      <trkpt lat="47.33024" lon="6.299">
        <ele>255.101</ele>
        <time>2016-09-05T15:19:12.000Z</time>
      </trkpt>
      <trkpt lat="47.33024" lon="6.29893">
        <ele>254.485</ele>
        <time>2016-09-05T15:19:13.000Z</time>
      </trkpt>
      <trkpt lat="47.33025" lon="6.29887">
        <ele>253.721</ele>
        <time>2016-09-05T15:19:14.000Z</time>
      </trkpt>
      <trkpt lat="47.33024" lon="6.29883">
        <ele>254.485</ele>
        <time>2016-09-05T15:19:15.000Z</time>
      </trkpt>
      <trkpt lat="47.33025" lon="6.29875">
        <ele>254.399</ele>
        <time>2016-09-05T15:19:16.000Z</time>
      </trkpt>
      <trkpt lat="47.33025" lon="6.29868">
        <ele>254.978</ele>
        <time>2016-09-05T15:19:17.000Z</time>
      </trkpt>
      <trkpt lat="47.33026" lon="6.29862">
        <ele>255.214</ele>
        <time>2016-09-05T15:19:18.000Z</time>
      </trkpt>
      <trkpt lat="47.33025" lon="6.29855">
        <ele>255.295</ele>
        <time>2016-09-05T15:19:19.000Z</time>
      </trkpt>
      <trkpt lat="47.33026" lon="6.29848">
        <ele>254.397</ele>
        <time>2016-09-05T15:19:20.000Z</time>
      </trkpt>
      <trkpt lat="47.33026" lon="6.29841">
        <ele>254.881</ele>
        <time>2016-09-05T15:19:21.000Z</time>
      </trkpt>
      <trkpt lat="47.33026" lon="6.29834">
        <ele>255.122</ele>
        <time>2016-09-05T15:19:22.000Z</time>
      </trkpt>
      <trkpt lat="47.33027" lon="6.29826">
        <ele>254.601</ele>
        <time>2016-09-05T15:19:23.000Z</time>
      </trkpt>
      <trkpt lat="47.33026" lon="6.2982">
        <ele>254.291</ele>
        <time>2016-09-05T15:19:24.000Z</time>
      </trkpt>
      <trkpt lat="47.33027" lon="6.29814">
        <ele>254.734</ele>
        <time>2016-09-05T15:19:25.000Z</time>
      </trkpt>
      <trkpt lat="47.33027" lon="6.29807">
        <ele>255.003</ele>
        <time>2016-09-05T15:19:26.000Z</time>
      </trkpt>
      <trkpt lat="47.33027" lon="6.29801">
        <ele>254.836</ele>
        <time>2016-09-05T15:19:27.000Z</time>
      </trkpt>
      <trkpt lat="47.33027" lon="6.29795">
        <ele>256.268</ele>
        <time>2016-09-05T15:19:28.000Z</time>
      </trkpt>
      <trkpt lat="47.33027" lon="6.29788">
        <ele>255.644</ele>
        <time>2016-09-05T15:19:29.000Z</time>
      </trkpt>
      <trkpt lat="47.33027" lon="6.29781">
        <ele>255.539</ele>
        <time>2016-09-05T15:19:30.000Z</time>
      </trkpt>
      <trkpt lat="47.33025" lon="6.29777">
        <ele>256.329</ele>
        <time>2016-09-05T15:19:31.000Z</time>
      </trkpt>
      <trkpt lat="47.33025" lon="6.2977">
        <ele>256.183</ele>
        <time>2016-09-05T15:19:32.000Z</time>
      </trkpt>
      <trkpt lat="47.33027" lon="6.29764">
        <ele>255.698</ele>
        <time>2016-09-05T15:19:33.000Z</time>
      </trkpt>
      <trkpt lat="47.33027" lon="6.29759">
        <ele>255.788</ele>
        <time>2016-09-05T15:19:34.000Z</time>
      </trkpt>
      <trkpt lat="47.33029" lon="6.29751">
        <ele>257.012</ele>
        <time>2016-09-05T15:19:35.000Z</time>
      </trkpt>
      <trkpt lat="47.33029" lon="6.29744">
        <ele>257.475</ele>
        <time>2016-09-05T15:19:36.000Z</time>
      </trkpt>
      <trkpt lat="47.33028" lon="6.29739">
        <ele>259.642</ele>
        <time>2016-09-05T15:19:37.000Z</time>
      </trkpt>
      <trkpt lat="47.33029" lon="6.29732">
        <ele>260.615</ele>
        <time>2016-09-05T15:19:38.000Z</time>
      </trkpt>
      <trkpt lat="47.33029" lon="6.29726">
        <ele>261.696</ele>
        <time>2016-09-05T15:19:39.000Z</time>
      </trkpt>
      <trkpt lat="47.33029" lon="6.29719">
        <ele>261.76</ele>
        <time>2016-09-05T15:19:40.000Z</time>
      </trkpt>
      <trkpt lat="47.33028" lon="6.29713">
        <ele>263.044</ele>
        <time>2016-09-05T15:19:41.000Z</time>
      </trkpt>
      <trkpt lat="47.33027" lon="6.29708">
        <ele>263.369</ele>
        <time>2016-09-05T15:19:42.000Z</time>
      </trkpt>
      <trkpt lat="47.33027" lon="6.29701">
        <ele>263.413</ele>
        <time>2016-09-05T15:19:43.000Z</time>
      </trkpt>
      <trkpt lat="47.33027" lon="6.29695">
        <ele>262.104</ele>
        <time>2016-09-05T15:19:44.000Z</time>
      </trkpt>
      <trkpt lat="47.33026" lon="6.29688">
        <ele>261.546</ele>
        <time>2016-09-05T15:19:45.000Z</time>
      </trkpt>
      <trkpt lat="47.33025" lon="6.29682">
        <ele>262.065</ele>
        <time>2016-09-05T15:19:46.000Z</time>
      </trkpt>
      <trkpt lat="47.33026" lon="6.29674">
        <ele>260.915</ele>
        <time>2016-09-05T15:19:47.000Z</time>
      </trkpt>
      <trkpt lat="47.33025" lon="6.29669">
        <ele>258.762</ele>
        <time>2016-09-05T15:19:48.000Z</time>
      </trkpt>
      <trkpt lat="47.33026" lon="6.29661">
        <ele>258.82</ele>
        <time>2016-09-05T15:19:49.000Z</time>
      </trkpt>
      <trkpt lat="47.33026" lon="6.29654">
        <ele>258.688</ele>
        <time>2016-09-05T15:19:50.000Z</time>
      </trkpt>
      <trkpt lat="47.33023" lon="6.29649">
        <ele>259.284</ele>
        <time>2016-09-05T15:19:51.000Z</time>
      </trkpt>
      <trkpt lat="47.33022" lon="6.29643">
        <ele>259.307</ele>
        <time>2016-09-05T15:19:52.000Z</time>
      </trkpt>
      <trkpt lat="47.33022" lon="6.29637">
        <ele>258.96</ele>
        <time>2016-09-05T15:19:53.000Z</time>
      </trkpt>
      <trkpt lat="47.33022" lon="6.29628">
        <ele>257.474</ele>
        <time>2016-09-05T15:19:54.000Z</time>
      </trkpt>
      <trkpt lat="47.33021" lon="6.29621">
        <ele>257.486</ele>
        <time>2016-09-05T15:19:55.000Z</time>
      </trkpt>
      <trkpt lat="47.3302" lon="6.29615">
        <ele>255.935</ele>
        <time>2016-09-05T15:19:56.000Z</time>
      </trkpt>
      <trkpt lat="47.33018" lon="6.29608">
        <ele>255.662</ele>
        <time>2016-09-05T15:19:57.000Z</time>
      </trkpt>
      <trkpt lat="47.33018" lon="6.29601">
        <ele>255.987</ele>
        <time>2016-09-05T15:19:58.000Z</time>
      </trkpt>
      <trkpt lat="47.33016" lon="6.29598">
        <ele>255.813</ele>
        <time>2016-09-05T15:19:59.000Z</time>
      </trkpt>
      <trkpt lat="47.33015" lon="6.29592">
        <ele>255.435</ele>
        <time>2016-09-05T15:20:00.000Z</time>
      </trkpt>
      <trkpt lat="47.33014" lon="6.29585">
        <ele>255.347</ele>
        <time>2016-09-05T15:20:01.000Z</time>
      </trkpt>
      <trkpt lat="47.33014" lon="6.29577">
        <ele>255.126</ele>
        <time>2016-09-05T15:20:02.000Z</time>
      </trkpt>
      <trkpt lat="47.33014" lon="6.29571">
        <ele>255.263</ele>
        <time>2016-09-05T15:20:03.000Z</time>
      </trkpt>
      <trkpt lat="47.33013" lon="6.29565">
        <ele>256.031</ele>
        <time>2016-09-05T15:20:04.000Z</time>
      </trkpt>
      <trkpt lat="47.33013" lon="6.2956">
        <ele>256.172</ele>
        <time>2016-09-05T15:20:05.000Z</time>
      </trkpt>
      <trkpt lat="47.33013" lon="6.29553">
        <ele>256.395</ele>
        <time>2016-09-05T15:20:06.000Z</time>
      </trkpt>
      <trkpt lat="47.33012" lon="6.29544">
        <ele>254.421</ele>
        <time>2016-09-05T15:20:07.000Z</time>
      </trkpt>
      <trkpt lat="47.33011" lon="6.29537">
        <ele>254.428</ele>
        <time>2016-09-05T15:20:08.000Z</time>
      </trkpt>
      <trkpt lat="47.3301" lon="6.29531">
        <ele>254.896</ele>
        <time>2016-09-05T15:20:09.000Z</time>
      </trkpt>
      <trkpt lat="47.33011" lon="6.29528">
        <ele>255.496</ele>
        <time>2016-09-05T15:20:10.000Z</time>
      </trkpt>
      <trkpt lat="47.3301" lon="6.29522">
        <ele>255.36</ele>
        <time>2016-09-05T15:20:11.000Z</time>
      </trkpt>
      <trkpt lat="47.33009" lon="6.29514">
        <ele>254.931</ele>
        <time>2016-09-05T15:20:12.000Z</time>
      </trkpt>
      <trkpt lat="47.33008" lon="6.29507">
        <ele>257.061</ele>
        <time>2016-09-05T15:20:13.000Z</time>
      </trkpt>
      <trkpt lat="47.33007" lon="6.29501">
        <ele>257.048</ele>
        <time>2016-09-05T15:20:14.000Z</time>
      </trkpt>
      <trkpt lat="47.33007" lon="6.29496">
        <ele>258.203</ele>
        <time>2016-09-05T15:20:15.000Z</time>
      </trkpt>
      <trkpt lat="47.33007" lon="6.29491">
        <ele>257.554</ele>
        <time>2016-09-05T15:20:16.000Z</time>
      </trkpt>
      <trkpt lat="47.33006" lon="6.29486">
        <ele>257.773</ele>
        <time>2016-09-05T15:20:17.000Z</time>
      </trkpt>
      <trkpt lat="47.33006" lon="6.29481">
        <ele>256.959</ele>
        <time>2016-09-05T15:20:18.000Z</time>
      </trkpt>
      <trkpt lat="47.33005" lon="6.29476">
        <ele>257.289</ele>
        <time>2016-09-05T15:20:19.000Z</time>
      </trkpt>
      <trkpt lat="47.33004" lon="6.29471">
        <ele>257.099</ele>
        <time>2016-09-05T15:20:20.000Z</time>
      </trkpt>
      <trkpt lat="47.33004" lon="6.29465">
        <ele>257.052</ele>
        <time>2016-09-05T15:20:21.000Z</time>
      </trkpt>
      <trkpt lat="47.33003" lon="6.29459">
        <ele>256.633</ele>
        <time>2016-09-05T15:20:22.000Z</time>
      </trkpt>
      <trkpt lat="47.33001" lon="6.29452">
        <ele>257.632</ele>
        <time>2016-09-05T15:20:23.000Z</time>
      </trkpt>
      <trkpt lat="47.33" lon="6.29446">
        <ele>258.056</ele>
        <time>2016-09-05T15:20:24.000Z</time>
      </trkpt>
      <trkpt lat="47.32998" lon="6.29439">
        <ele>258.686</ele>
        <time>2016-09-05T15:20:25.000Z</time>
      </trkpt>
      <trkpt lat="47.32996" lon="6.29432">
        <ele>259.719</ele>
        <time>2016-09-05T15:20:26.000Z</time>
      </trkpt>
      <trkpt lat="47.32995" lon="6.29425">
        <ele>260.357</ele>
        <time>2016-09-05T15:20:27.000Z</time>
      </trkpt>
      <trkpt lat="47.32993" lon="6.29415">
        <ele>260.696</ele>
        <time>2016-09-05T15:20:28.000Z</time>
      </trkpt>
      <trkpt lat="47.32991" lon="6.29407">
        <ele>261.961</ele>
        <time>2016-09-05T15:20:29.000Z</time>
      </trkpt>
      <trkpt lat="47.32989" lon="6.294">
        <ele>262.08</ele>
        <time>2016-09-05T15:20:30.000Z</time>
      </trkpt>
      <trkpt lat="47.32987" lon="6.29393">
        <ele>262.24</ele>
        <time>2016-09-05T15:20:31.000Z</time>
      </trkpt>
      <trkpt lat="47.32985" lon="6.29386">
        <ele>262.151</ele>
        <time>2016-09-05T15:20:32.000Z</time>
      </trkpt>
      <trkpt lat="47.32983" lon="6.29379">
        <ele>261.736</ele>
        <time>2016-09-05T15:20:33.000Z</time>
      </trkpt>
      <trkpt lat="47.32981" lon="6.29373">
        <ele>261.507</ele>
        <time>2016-09-05T15:20:34.000Z</time>
      </trkpt>
      <trkpt lat="47.32979" lon="6.29366">
        <ele>262.198</ele>
        <time>2016-09-05T15:20:35.000Z</time>
      </trkpt>
      <trkpt lat="47.32977" lon="6.29359">
        <ele>261.766</ele>
        <time>2016-09-05T15:20:36.000Z</time>
      </trkpt>
      <trkpt lat="47.32974" lon="6.29353">
        <ele>261.941</ele>
        <time>2016-09-05T15:20:37.000Z</time>
      </trkpt>
      <trkpt lat="47.32972" lon="6.29347">
        <ele>262.421</ele>
        <time>2016-09-05T15:20:38.000Z</time>
      </trkpt>
      <trkpt lat="47.32971" lon="6.29341">
        <ele>262.621</ele>
        <time>2016-09-05T15:20:39.000Z</time>
      </trkpt>
      <trkpt lat="47.32968" lon="6.29335">
        <ele>262.635</ele>
        <time>2016-09-05T15:20:40.000Z</time>
      </trkpt>
      <trkpt lat="47.32966" lon="6.29329">
        <ele>262.559</ele>
        <time>2016-09-05T15:20:41.000Z</time>
      </trkpt>
      <trkpt lat="47.32964" lon="6.29323">
        <ele>262.079</ele>
        <time>2016-09-05T15:20:42.000Z</time>
      </trkpt>
      <trkpt lat="47.32961" lon="6.29318">
        <ele>262.319</ele>
        <time>2016-09-05T15:20:43.000Z</time>
      </trkpt>
      <trkpt lat="47.32959" lon="6.29313">
        <ele>262.699</ele>
        <time>2016-09-05T15:20:44.000Z</time>
      </trkpt>
      <trkpt lat="47.32958" lon="6.29308">
        <ele>262.678</ele>
        <time>2016-09-05T15:20:45.000Z</time>
      </trkpt>
      <trkpt lat="47.32953" lon="6.29301">
        <ele>261.613</ele>
        <time>2016-09-05T15:20:46.000Z</time>
      </trkpt>
      <trkpt lat="47.32952" lon="6.29295">
        <ele>260.625</ele>
        <time>2016-09-05T15:20:47.000Z</time>
      </trkpt>
      <trkpt lat="47.32951" lon="6.29288">
        <ele>259.36</ele>
        <time>2016-09-05T15:20:48.000Z</time>
      </trkpt>
      <trkpt lat="47.3295" lon="6.29281">
        <ele>258.091</ele>
        <time>2016-09-05T15:20:49.000Z</time>
      </trkpt>
      <trkpt lat="47.32948" lon="6.29276">
        <ele>257.578</ele>
        <time>2016-09-05T15:20:50.000Z</time>
      </trkpt>
      <trkpt lat="47.32945" lon="6.29271">
        <ele>257.367</ele>
        <time>2016-09-05T15:20:51.000Z</time>
      </trkpt>
      <trkpt lat="47.32942" lon="6.29267">
        <ele>259.819</ele>
        <time>2016-09-05T15:20:52.000Z</time>
      </trkpt>
      <trkpt lat="47.32938" lon="6.29262">
        <ele>259.783</ele>
        <time>2016-09-05T15:20:53.000Z</time>
      </trkpt>
      <trkpt lat="47.32936" lon="6.29257">
        <ele>258.631</ele>
        <time>2016-09-05T15:20:54.000Z</time>
      </trkpt>
      <trkpt lat="47.32934" lon="6.29251">
        <ele>259.91</ele>
        <time>2016-09-05T15:20:55.000Z</time>
      </trkpt>
      <trkpt lat="47.32931" lon="6.29245">
        <ele>260.526</ele>
        <time>2016-09-05T15:20:56.000Z</time>
      </trkpt>
      <trkpt lat="47.3293" lon="6.29238">
        <ele>259.376</ele>
        <time>2016-09-05T15:20:57.000Z</time>
      </trkpt>
      <trkpt lat="47.32927" lon="6.29233">
        <ele>259.398</ele>
        <time>2016-09-05T15:20:58.000Z</time>
      </trkpt>
      <trkpt lat="47.32924" lon="6.29229">
        <ele>260.639</ele>
        <time>2016-09-05T15:20:59.000Z</time>
      </trkpt>
      <trkpt lat="47.32922" lon="6.29223">
        <ele>260.755</ele>
        <time>2016-09-05T15:21:00.000Z</time>
      </trkpt>
      <trkpt lat="47.32917" lon="6.29221">
        <ele>260.025</ele>
        <time>2016-09-05T15:21:01.000Z</time>
      </trkpt>
      <trkpt lat="47.32914" lon="6.29216">
        <ele>260.235</ele>
        <time>2016-09-05T15:21:02.000Z</time>
      </trkpt>
      <trkpt lat="47.32912" lon="6.2921">
        <ele>260</ele>
        <time>2016-09-05T15:21:03.000Z</time>
      </trkpt>
      <trkpt lat="47.3291" lon="6.29205">
        <ele>257.898</ele>
        <time>2016-09-05T15:21:04.000Z</time>
      </trkpt>
      <trkpt lat="47.32907" lon="6.29199">
        <ele>259.178</ele>
        <time>2016-09-05T15:21:05.000Z</time>
      </trkpt>
      <trkpt lat="47.32904" lon="6.29193">
        <ele>257.905</ele>
        <time>2016-09-05T15:21:06.000Z</time>
      </trkpt>
      <trkpt lat="47.32901" lon="6.29186">
        <ele>254.879</ele>
        <time>2016-09-05T15:21:07.000Z</time>
      </trkpt>
      <trkpt lat="47.32898" lon="6.29181">
        <ele>255.31</ele>
        <time>2016-09-05T15:21:08.000Z</time>
      </trkpt>
      <trkpt lat="47.32896" lon="6.29174">
        <ele>255.611</ele>
        <time>2016-09-05T15:21:09.000Z</time>
      </trkpt>
      <trkpt lat="47.32894" lon="6.29169">
        <ele>255.382</ele>
        <time>2016-09-05T15:21:10.000Z</time>
      </trkpt>
      <trkpt lat="47.32889" lon="6.29162">
        <ele>255.008</ele>
        <time>2016-09-05T15:21:11.000Z</time>
      </trkpt>
      <trkpt lat="47.32887" lon="6.29158">
        <ele>252.978</ele>
        <time>2016-09-05T15:21:12.000Z</time>
      </trkpt>
      <trkpt lat="47.32883" lon="6.29153">
        <ele>253.037</ele>
        <time>2016-09-05T15:21:13.000Z</time>
      </trkpt>
      <trkpt lat="47.3288" lon="6.29148">
        <ele>253.024</ele>
        <time>2016-09-05T15:21:14.000Z</time>
      </trkpt>
      <trkpt lat="47.32878" lon="6.29139">
        <ele>250.122</ele>
        <time>2016-09-05T15:21:15.000Z</time>
      </trkpt>
      <trkpt lat="47.32877" lon="6.29134">
        <ele>251.157</ele>
        <time>2016-09-05T15:21:16.000Z</time>
      </trkpt>
      <trkpt lat="47.32875" lon="6.29128">
        <ele>250.623</ele>
        <time>2016-09-05T15:21:17.000Z</time>
      </trkpt>
      <trkpt lat="47.32874" lon="6.29122">
        <ele>249.932</ele>
        <time>2016-09-05T15:21:18.000Z</time>
      </trkpt>
      <trkpt lat="47.32872" lon="6.29115">
        <ele>249.02</ele>
        <time>2016-09-05T15:21:19.000Z</time>
      </trkpt>
      <trkpt lat="47.3287" lon="6.29109">
        <ele>248.958</ele>
        <time>2016-09-05T15:21:20.000Z</time>
      </trkpt>
      <trkpt lat="47.32866" lon="6.29105">
        <ele>250.666</ele>
        <time>2016-09-05T15:21:21.000Z</time>
      </trkpt>
      <trkpt lat="47.32863" lon="6.29101">
        <ele>251.058</ele>
        <time>2016-09-05T15:21:22.000Z</time>
      </trkpt>
      <trkpt lat="47.3286" lon="6.29096">
        <ele>250.889</ele>
        <time>2016-09-05T15:21:23.000Z</time>
      </trkpt>
      <trkpt lat="47.3286" lon="6.2909">
        <ele>247.674</ele>
        <time>2016-09-05T15:21:24.000Z</time>
      </trkpt>
      <trkpt lat="47.32856" lon="6.29085">
        <ele>248.828</ele>
        <time>2016-09-05T15:21:25.000Z</time>
      </trkpt>
      <trkpt lat="47.32853" lon="6.29079">
        <ele>248.543</ele>
        <time>2016-09-05T15:21:26.000Z</time>
      </trkpt>
      <trkpt lat="47.3285" lon="6.29075">
        <ele>249.704</ele>
        <time>2016-09-05T15:21:27.000Z</time>
      </trkpt>
      <trkpt lat="47.32847" lon="6.29069">
        <ele>248.627</ele>
        <time>2016-09-05T15:21:28.000Z</time>
      </trkpt>
      <trkpt lat="47.32844" lon="6.29064">
        <ele>251.01</ele>
        <time>2016-09-05T15:21:29.000Z</time>
      </trkpt>
      <trkpt lat="47.3284" lon="6.29059">
        <ele>251.033</ele>
        <time>2016-09-05T15:21:30.000Z</time>
      </trkpt>
      <trkpt lat="47.32837" lon="6.29053">
        <ele>252.01</ele>
        <time>2016-09-05T15:21:31.000Z</time>
      </trkpt>
      <trkpt lat="47.32835" lon="6.29048">
        <ele>252.14</ele>
        <time>2016-09-05T15:21:32.000Z</time>
      </trkpt>
      <trkpt lat="47.32833" lon="6.29042">
        <ele>252.143</ele>
        <time>2016-09-05T15:21:33.000Z</time>
      </trkpt>
      <trkpt lat="47.3283" lon="6.29035">
        <ele>252.612</ele>
        <time>2016-09-05T15:21:34.000Z</time>
      </trkpt>
      <trkpt lat="47.32828" lon="6.29029">
        <ele>252.306</ele>
        <time>2016-09-05T15:21:35.000Z</time>
      </trkpt>
      <trkpt lat="47.32826" lon="6.29023">
        <ele>252.086</ele>
        <time>2016-09-05T15:21:36.000Z</time>
      </trkpt>
      <trkpt lat="47.32823" lon="6.29017">
        <ele>253.47</ele>
        <time>2016-09-05T15:21:37.000Z</time>
      </trkpt>
      <trkpt lat="47.3282" lon="6.29012">
        <ele>253.543</ele>
        <time>2016-09-05T15:21:38.000Z</time>
      </trkpt>
      <trkpt lat="47.32819" lon="6.29005">
        <ele>252.259</ele>
        <time>2016-09-05T15:21:39.000Z</time>
      </trkpt>
      <trkpt lat="47.32815" lon="6.28999">
        <ele>252.538</ele>
        <time>2016-09-05T15:21:40.000Z</time>
      </trkpt>
      <trkpt lat="47.32811" lon="6.28995">
        <ele>254.163</ele>
        <time>2016-09-05T15:21:41.000Z</time>
      </trkpt>
      <trkpt lat="47.32808" lon="6.28989">
        <ele>254.178</ele>
        <time>2016-09-05T15:21:42.000Z</time>
      </trkpt>
      <trkpt lat="47.32805" lon="6.28984">
        <ele>253.652</ele>
        <time>2016-09-05T15:21:43.000Z</time>
      </trkpt>
      <trkpt lat="47.32802" lon="6.2898">
        <ele>253.849</ele>
        <time>2016-09-05T15:21:44.000Z</time>
      </trkpt>
      <trkpt lat="47.32798" lon="6.28975">
        <ele>253.825</ele>
        <time>2016-09-05T15:21:45.000Z</time>
      </trkpt>
      <trkpt lat="47.32795" lon="6.28969">
        <ele>254.674</ele>
        <time>2016-09-05T15:21:46.000Z</time>
      </trkpt>
      <trkpt lat="47.32791" lon="6.28964">
        <ele>256.554</ele>
        <time>2016-09-05T15:21:47.000Z</time>
      </trkpt>
      <trkpt lat="47.32787" lon="6.28959">
        <ele>256.92</ele>
        <time>2016-09-05T15:21:48.000Z</time>
      </trkpt>
      <trkpt lat="47.32783" lon="6.28953">
        <ele>257.984</ele>
        <time>2016-09-05T15:21:49.003Z</time>
      </trkpt>
      <trkpt lat="47.32779" lon="6.28949">
        <ele>258.188</ele>
        <time>2016-09-05T15:21:50.000Z</time>
      </trkpt>
      <trkpt lat="47.32776" lon="6.28944">
        <ele>259.848</ele>
        <time>2016-09-05T15:21:50.998Z</time>
      </trkpt>
      <trkpt lat="47.32773" lon="6.2894">
        <ele>262.63</ele>
        <time>2016-09-05T15:21:52.000Z</time>
      </trkpt>
      <trkpt lat="47.3277" lon="6.28935">
        <ele>262.835</ele>
        <time>2016-09-05T15:21:53.000Z</time>
      </trkpt>
      <trkpt lat="47.32765" lon="6.28931">
        <ele>264.23</ele>
        <time>2016-09-05T15:21:54.000Z</time>
      </trkpt>
      <trkpt lat="47.32762" lon="6.28926">
        <ele>265.295</ele>
        <time>2016-09-05T15:21:55.000Z</time>
      </trkpt>
      <trkpt lat="47.32758" lon="6.28922">
        <ele>266.297</ele>
        <time>2016-09-05T15:21:56.000Z</time>
      </trkpt>
      <trkpt lat="47.32754" lon="6.28917">
        <ele>266.288</ele>
        <time>2016-09-05T15:21:57.000Z</time>
      </trkpt>
      <trkpt lat="47.3275" lon="6.28913">
        <ele>267.189</ele>
        <time>2016-09-05T15:21:58.000Z</time>
      </trkpt>
      <trkpt lat="47.32747" lon="6.28907">
        <ele>267.014</ele>
        <time>2016-09-05T15:21:58.999Z</time>
      </trkpt>
      <trkpt lat="47.32743" lon="6.28903">
        <ele>267.28</ele>
        <time>2016-09-05T15:21:59.999Z</time>
      </trkpt>
      <trkpt lat="47.3274" lon="6.28898">
        <ele>266.089</ele>
        <time>2016-09-05T15:22:00.999Z</time>
      </trkpt>
      <trkpt lat="47.32737" lon="6.28892">
        <ele>265.107</ele>
        <time>2016-09-05T15:22:01.999Z</time>
      </trkpt>
      <trkpt lat="47.32733" lon="6.28887">
        <ele>265.149</ele>
        <time>2016-09-05T15:22:02.999Z</time>
      </trkpt>
      <trkpt lat="47.32729" lon="6.28882">
        <ele>265.901</ele>
        <time>2016-09-05T15:22:03.999Z</time>
      </trkpt>
      <trkpt lat="47.32726" lon="6.28878">
        <ele>266.389</ele>
        <time>2016-09-05T15:22:04.999Z</time>
      </trkpt>
      <trkpt lat="47.32721" lon="6.28873">
        <ele>266.676</ele>
        <time>2016-09-05T15:22:05.999Z</time>
      </trkpt>
      <trkpt lat="47.32718" lon="6.2887">
        <ele>267.074</ele>
        <time>2016-09-05T15:22:06.999Z</time>
      </trkpt>
      <trkpt lat="47.32715" lon="6.28864">
        <ele>267.115</ele>
        <time>2016-09-05T15:22:07.999Z</time>
      </trkpt>
      <trkpt lat="47.3271" lon="6.28859">
        <ele>266.608</ele>
        <time>2016-09-05T15:22:08.999Z</time>
      </trkpt>
      <trkpt lat="47.32708" lon="6.28853">
        <ele>266.773</ele>
        <time>2016-09-05T15:22:09.999Z</time>
      </trkpt>
      <trkpt lat="47.32705" lon="6.28849">
        <ele>266.847</ele>
        <time>2016-09-05T15:22:10.999Z</time>
      </trkpt>
      <trkpt lat="47.32701" lon="6.28845">
        <ele>266.822</ele>
        <time>2016-09-05T15:22:11.999Z</time>
      </trkpt>
      <trkpt lat="47.32698" lon="6.2884">
        <ele>266.366</ele>
        <time>2016-09-05T15:22:12.999Z</time>
      </trkpt>
      <trkpt lat="47.32695" lon="6.28834">
        <ele>265.678</ele>
        <time>2016-09-05T15:22:13.999Z</time>
      </trkpt>
      <trkpt lat="47.32692" lon="6.2883">
        <ele>265.434</ele>
        <time>2016-09-05T15:22:14.999Z</time>
      </trkpt>
      <trkpt lat="47.32688" lon="6.28825">
        <ele>265.445</ele>
        <time>2016-09-05T15:22:15.999Z</time>
      </trkpt>
      <trkpt lat="47.32684" lon="6.2882">
        <ele>265.367</ele>
        <time>2016-09-05T15:22:16.999Z</time>
      </trkpt>
      <trkpt lat="47.32681" lon="6.28815">
        <ele>265.253</ele>
        <time>2016-09-05T15:22:17.999Z</time>
      </trkpt>
      <trkpt lat="47.32678" lon="6.2881">
        <ele>264.893</ele>
        <time>2016-09-05T15:22:18.999Z</time>
      </trkpt>
      <trkpt lat="47.32675" lon="6.28805">
        <ele>264.501</ele>
        <time>2016-09-05T15:22:19.999Z</time>
      </trkpt>
      <trkpt lat="47.32671" lon="6.288">
        <ele>264.012</ele>
        <time>2016-09-05T15:22:20.999Z</time>
      </trkpt>
      <trkpt lat="47.32668" lon="6.28796">
        <ele>264.786</ele>
        <time>2016-09-05T15:22:21.999Z</time>
      </trkpt>
      <trkpt lat="47.32664" lon="6.28791">
        <ele>265.884</ele>
        <time>2016-09-05T15:22:22.999Z</time>
      </trkpt>
      <trkpt lat="47.3266" lon="6.28786">
        <ele>265.452</ele>
        <time>2016-09-05T15:22:23.999Z</time>
      </trkpt>
      <trkpt lat="47.32657" lon="6.28782">
        <ele>265.304</ele>
        <time>2016-09-05T15:22:24.999Z</time>
      </trkpt>
      <trkpt lat="47.32653" lon="6.28777">
        <ele>264.788</ele>
        <time>2016-09-05T15:22:25.999Z</time>
      </trkpt>
      <trkpt lat="47.3265" lon="6.28773">
        <ele>264.041</ele>
        <time>2016-09-05T15:22:26.999Z</time>
      </trkpt>
      <trkpt lat="47.32646" lon="6.28769">
        <ele>263.191</ele>
        <time>2016-09-05T15:22:27.999Z</time>
      </trkpt>
      <trkpt lat="47.32642" lon="6.28765">
        <ele>264.78</ele>
        <time>2016-09-05T15:22:28.999Z</time>
      </trkpt>
      <trkpt lat="47.32639" lon="6.2876">
        <ele>264.826</ele>
        <time>2016-09-05T15:22:29.999Z</time>
      </trkpt>
      <trkpt lat="47.32636" lon="6.28757">
        <ele>260.633</ele>
        <time>2016-09-05T15:22:30.999Z</time>
      </trkpt>
      <trkpt lat="47.32633" lon="6.28754">
        <ele>260.122</ele>
        <time>2016-09-05T15:22:31.999Z</time>
      </trkpt>
      <trkpt lat="47.32629" lon="6.28751">
        <ele>259.954</ele>
        <time>2016-09-05T15:22:32.999Z</time>
      </trkpt>
      <trkpt lat="47.32624" lon="6.28745">
        <ele>261.191</ele>
        <time>2016-09-05T15:22:33.999Z</time>
      </trkpt>
      <trkpt lat="47.32621" lon="6.28741">
        <ele>261.329</ele>
        <time>2016-09-05T15:22:34.999Z</time>
      </trkpt>
      <trkpt lat="47.32616" lon="6.28738">
        <ele>259.475</ele>
        <time>2016-09-05T15:22:35.999Z</time>
      </trkpt>
      <trkpt lat="47.32612" lon="6.28733">
        <ele>260.443</ele>
        <time>2016-09-05T15:22:36.999Z</time>
      </trkpt>
      <trkpt lat="47.32609" lon="6.28726">
        <ele>259.346</ele>
        <time>2016-09-05T15:22:37.999Z</time>
      </trkpt>
      <trkpt lat="47.32606" lon="6.28723">
        <ele>259.609</ele>
        <time>2016-09-05T15:22:38.999Z</time>
      </trkpt>
      <trkpt lat="47.32602" lon="6.28719">
        <ele>260.156</ele>
        <time>2016-09-05T15:22:39.999Z</time>
      </trkpt>
      <trkpt lat="47.326" lon="6.28712">
        <ele>258.896</ele>
        <time>2016-09-05T15:22:40.999Z</time>
      </trkpt>
      <trkpt lat="47.32595" lon="6.28708">
        <ele>259.316</ele>
        <time>2016-09-05T15:22:41.999Z</time>
      </trkpt>
      <trkpt lat="47.32591" lon="6.28704">
        <ele>259.344</ele>
        <time>2016-09-05T15:22:42.999Z</time>
      </trkpt>
      <trkpt lat="47.32586" lon="6.287">
        <ele>259.766</ele>
        <time>2016-09-05T15:22:43.999Z</time>
      </trkpt>
      <trkpt lat="47.32582" lon="6.28697">
        <ele>259.823</ele>
        <time>2016-09-05T15:22:44.999Z</time>
      </trkpt>
      <trkpt lat="47.32579" lon="6.28691">
        <ele>257.822</ele>
        <time>2016-09-05T15:22:45.999Z</time>
      </trkpt>
      <trkpt lat="47.32575" lon="6.28686">
        <ele>258.54</ele>
        <time>2016-09-05T15:22:46.999Z</time>
      </trkpt>
      <trkpt lat="47.32571" lon="6.28683">
        <ele>259.189</ele>
        <time>2016-09-05T15:22:47.999Z</time>
      </trkpt>
      <trkpt lat="47.3257" lon="6.28678">
        <ele>257.671</ele>
        <time>2016-09-05T15:22:48.999Z</time>
      </trkpt>
      <trkpt lat="47.32567" lon="6.28673">
        <ele>256.3</ele>
        <time>2016-09-05T15:22:49.999Z</time>
      </trkpt>
      <trkpt lat="47.32563" lon="6.2867">
        <ele>254.468</ele>
        <time>2016-09-05T15:22:50.999Z</time>
      </trkpt>
      <trkpt lat="47.32559" lon="6.28667">
        <ele>254.608</ele>
        <time>2016-09-05T15:22:51.999Z</time>
      </trkpt>
      <trkpt lat="47.32555" lon="6.28663">
        <ele>255.19</ele>
        <time>2016-09-05T15:22:52.999Z</time>
      </trkpt>
      <trkpt lat="47.32552" lon="6.28659">
        <ele>250.231</ele>
        <time>2016-09-05T15:22:53.999Z</time>
      </trkpt>
      <trkpt lat="47.32549" lon="6.28655">
        <ele>250.049</ele>
        <time>2016-09-05T15:22:54.999Z</time>
      </trkpt>
      <trkpt lat="47.32546" lon="6.2865">
        <ele>248.54</ele>
        <time>2016-09-05T15:22:55.999Z</time>
      </trkpt>
      <trkpt lat="47.32542" lon="6.28646">
        <ele>248.872</ele>
        <time>2016-09-05T15:22:56.999Z</time>
      </trkpt>
      <trkpt lat="47.32538" lon="6.28643">
        <ele>249.723</ele>
        <time>2016-09-05T15:22:57.999Z</time>
      </trkpt>
      <trkpt lat="47.32534" lon="6.28639">
        <ele>250.038</ele>
        <time>2016-09-05T15:22:58.999Z</time>
      </trkpt>
      <trkpt lat="47.3253" lon="6.28635">
        <ele>249.114</ele>
        <time>2016-09-05T15:22:59.999Z</time>
      </trkpt>
      <trkpt lat="47.32526" lon="6.28631">
        <ele>249.852</ele>
        <time>2016-09-05T15:23:00.999Z</time>
      </trkpt>
      <trkpt lat="47.32523" lon="6.28628">
        <ele>250.198</ele>
        <time>2016-09-05T15:23:01.999Z</time>
      </trkpt>
      <trkpt lat="47.32519" lon="6.28625">
        <ele>250.906</ele>
        <time>2016-09-05T15:23:02.999Z</time>
      </trkpt>
      <trkpt lat="47.32516" lon="6.28624">
        <ele>249.864</ele>
        <time>2016-09-05T15:23:03.999Z</time>
      </trkpt>
      <trkpt lat="47.32513" lon="6.2862">
        <ele>248.763</ele>
        <time>2016-09-05T15:23:04.999Z</time>
      </trkpt>
      <trkpt lat="47.3251" lon="6.28617">
        <ele>249.052</ele>
        <time>2016-09-05T15:23:05.999Z</time>
      </trkpt>
      <trkpt lat="47.32507" lon="6.28612">
        <ele>247.421</ele>
        <time>2016-09-05T15:23:06.999Z</time>
      </trkpt>
      <trkpt lat="47.32504" lon="6.28609">
        <ele>247.583</ele>
        <time>2016-09-05T15:23:07.999Z</time>
      </trkpt>
      <trkpt lat="47.32501" lon="6.28606">
        <ele>247.955</ele>
        <time>2016-09-05T15:23:08.999Z</time>
      </trkpt>
      <trkpt lat="47.32498" lon="6.28602">
        <ele>247.169</ele>
        <time>2016-09-05T15:23:09.999Z</time>
      </trkpt>
      <trkpt lat="47.32495" lon="6.28599">
        <ele>247.599</ele>
        <time>2016-09-05T15:23:10.999Z</time>
      </trkpt>
      <trkpt lat="47.32492" lon="6.28595">
        <ele>248.463</ele>
        <time>2016-09-05T15:23:11.999Z</time>
      </trkpt>
      <trkpt lat="47.32489" lon="6.28592">
        <ele>243.143</ele>
        <time>2016-09-05T15:23:12.999Z</time>
      </trkpt>
      <trkpt lat="47.32487" lon="6.28589">
        <ele>242.352</ele>
        <time>2016-09-05T15:23:13.999Z</time>
      </trkpt>
      <trkpt lat="47.32484" lon="6.28585">
        <ele>240.956</ele>
        <time>2016-09-05T15:23:14.999Z</time>
      </trkpt>
      <trkpt lat="47.32481" lon="6.28581">
        <ele>240.943</ele>
        <time>2016-09-05T15:23:15.999Z</time>
      </trkpt>
      <trkpt lat="47.32478" lon="6.28578">
        <ele>238.157</ele>
        <time>2016-09-05T15:23:16.999Z</time>
      </trkpt>
      <trkpt lat="47.32475" lon="6.28574">
        <ele>238.762</ele>
        <time>2016-09-05T15:23:17.999Z</time>
      </trkpt>
      <trkpt lat="47.32471" lon="6.2857">
        <ele>239.333</ele>
        <time>2016-09-05T15:23:18.999Z</time>
      </trkpt>
      <trkpt lat="47.32468" lon="6.28567">
        <ele>241.035</ele>
        <time>2016-09-05T15:23:19.999Z</time>
      </trkpt>
      <trkpt lat="47.32464" lon="6.28563">
        <ele>241.351</ele>
        <time>2016-09-05T15:23:20.999Z</time>
      </trkpt>
      <trkpt lat="47.3246" lon="6.28559">
        <ele>241.574</ele>
        <time>2016-09-05T15:23:21.999Z</time>
      </trkpt>
      <trkpt lat="47.32457" lon="6.28553">
        <ele>241.531</ele>
        <time>2016-09-05T15:23:22.999Z</time>
      </trkpt>
      <trkpt lat="47.32452" lon="6.28549">
        <ele>240.644</ele>
        <time>2016-09-05T15:23:23.999Z</time>
      </trkpt>
      <trkpt lat="47.32449" lon="6.28545">
        <ele>240.375</ele>
        <time>2016-09-05T15:23:24.999Z</time>
      </trkpt>
      <trkpt lat="47.32445" lon="6.28541">
        <ele>240.379</ele>
        <time>2016-09-05T15:23:25.999Z</time>
      </trkpt>
      <trkpt lat="47.32441" lon="6.2854">
        <ele>241.912</ele>
        <time>2016-09-05T15:23:26.999Z</time>
      </trkpt>
      <trkpt lat="47.32438" lon="6.28535">
        <ele>242.348</ele>
        <time>2016-09-05T15:23:27.999Z</time>
      </trkpt>
      <trkpt lat="47.32434" lon="6.28534">
        <ele>243.506</ele>
        <time>2016-09-05T15:23:28.999Z</time>
      </trkpt>
      <trkpt lat="47.3243" lon="6.28531">
        <ele>244.378</ele>
        <time>2016-09-05T15:23:29.999Z</time>
      </trkpt>
      <trkpt lat="47.32426" lon="6.28529">
        <ele>245.924</ele>
        <time>2016-09-05T15:23:30.999Z</time>
      </trkpt>
      <trkpt lat="47.32422" lon="6.28529">
        <ele>247.374</ele>
        <time>2016-09-05T15:23:31.999Z</time>
      </trkpt>
      <trkpt lat="47.32418" lon="6.28525">
        <ele>247.353</ele>
        <time>2016-09-05T15:23:32.999Z</time>
      </trkpt>
      <trkpt lat="47.32415" lon="6.2852">
        <ele>246.668</ele>
        <time>2016-09-05T15:23:33.999Z</time>
      </trkpt>
      <trkpt lat="47.32412" lon="6.28515">
        <ele>245.137</ele>
        <time>2016-09-05T15:23:34.999Z</time>
      </trkpt>
      <trkpt lat="47.32409" lon="6.28511">
        <ele>244.997</ele>
        <time>2016-09-05T15:23:35.999Z</time>
      </trkpt>
      <trkpt lat="47.32405" lon="6.28508">
        <ele>245.003</ele>
        <time>2016-09-05T15:23:36.999Z</time>
      </trkpt>
      <trkpt lat="47.32402" lon="6.28504">
        <ele>243.611</ele>
        <time>2016-09-05T15:23:37.999Z</time>
      </trkpt>
      <trkpt lat="47.32398" lon="6.28501">
        <ele>243.947</ele>
        <time>2016-09-05T15:23:38.999Z</time>
      </trkpt>
      <trkpt lat="47.32394" lon="6.28499">
        <ele>243.668</ele>
        <time>2016-09-05T15:23:39.999Z</time>
      </trkpt>
      <trkpt lat="47.3239" lon="6.28497">
        <ele>242.211</ele>
        <time>2016-09-05T15:23:40.999Z</time>
      </trkpt>
      <trkpt lat="47.32386" lon="6.28495">
        <ele>242.319</ele>
        <time>2016-09-05T15:23:41.999Z</time>
      </trkpt>
      <trkpt lat="47.32382" lon="6.28491">
        <ele>240.758</ele>
        <time>2016-09-05T15:23:42.999Z</time>
      </trkpt>
      <trkpt lat="47.32378" lon="6.28488">
        <ele>241.627</ele>
        <time>2016-09-05T15:23:43.999Z</time>
      </trkpt>
      <trkpt lat="47.32374" lon="6.28485">
        <ele>243.33</ele>
        <time>2016-09-05T15:23:44.999Z</time>
      </trkpt>
      <trkpt lat="47.3237" lon="6.28481">
        <ele>242.245</ele>
        <time>2016-09-05T15:23:45.999Z</time>
      </trkpt>
      <trkpt lat="47.32366" lon="6.28477">
        <ele>242.105</ele>
        <time>2016-09-05T15:23:46.999Z</time>
      </trkpt>
      <trkpt lat="47.32363" lon="6.28474">
        <ele>242.182</ele>
        <time>2016-09-05T15:23:47.999Z</time>
      </trkpt>
      <trkpt lat="47.32359" lon="6.28471">
        <ele>242.036</ele>
        <time>2016-09-05T15:23:48.999Z</time>
      </trkpt>
      <trkpt lat="47.32354" lon="6.28468">
        <ele>245.529</ele>
        <time>2016-09-05T15:23:49.999Z</time>
      </trkpt>
      <trkpt lat="47.32352" lon="6.2846">
        <ele>243.235</ele>
        <time>2016-09-05T15:23:50.999Z</time>
      </trkpt>
      <trkpt lat="47.32349" lon="6.28455">
        <ele>242.111</ele>
        <time>2016-09-05T15:23:51.999Z</time>
      </trkpt>
      <trkpt lat="47.32346" lon="6.28449">
        <ele>241.851</ele>
        <time>2016-09-05T15:23:52.999Z</time>
      </trkpt>
      <trkpt lat="47.32342" lon="6.28444">
        <ele>242.82</ele>
        <time>2016-09-05T15:23:53.999Z</time>
      </trkpt>
      <trkpt lat="47.32339" lon="6.2844">
        <ele>242.747</ele>
        <time>2016-09-05T15:23:54.999Z</time>
      </trkpt>
      <trkpt lat="47.32335" lon="6.28435">
        <ele>243.505</ele>
        <time>2016-09-05T15:23:55.999Z</time>
      </trkpt>
      <trkpt lat="47.32331" lon="6.28432">
        <ele>243.824</ele>
        <time>2016-09-05T15:23:56.999Z</time>
      </trkpt>
      <trkpt lat="47.32326" lon="6.28428">
        <ele>244.615</ele>
        <time>2016-09-05T15:23:57.999Z</time>
      </trkpt>
      <trkpt lat="47.32322" lon="6.28423">
        <ele>245.575</ele>
        <time>2016-09-05T15:23:58.999Z</time>
      </trkpt>
      <trkpt lat="47.32318" lon="6.28421">
        <ele>245.88</ele>
        <time>2016-09-05T15:23:59.999Z</time>
      </trkpt>
      <trkpt lat="47.32315" lon="6.28417">
        <ele>245.854</ele>
        <time>2016-09-05T15:24:00.999Z</time>
      </trkpt>
      <trkpt lat="47.32311" lon="6.28412">
        <ele>245.359</ele>
        <time>2016-09-05T15:24:01.999Z</time>
      </trkpt>
      <trkpt lat="47.32308" lon="6.28409">
        <ele>245.4</ele>
        <time>2016-09-05T15:24:02.999Z</time>
      </trkpt>
      <trkpt lat="47.32304" lon="6.28405">
        <ele>245.154</ele>
        <time>2016-09-05T15:24:03.999Z</time>
      </trkpt>
      <trkpt lat="47.32301" lon="6.28401">
        <ele>245.774</ele>
        <time>2016-09-05T15:24:04.999Z</time>
      </trkpt>
      <trkpt lat="47.32298" lon="6.28397">
        <ele>245.63</ele>
        <time>2016-09-05T15:24:05.999Z</time>
      </trkpt>
      <trkpt lat="47.32295" lon="6.28393">
        <ele>247.023</ele>
        <time>2016-09-05T15:24:06.999Z</time>
      </trkpt>
      <trkpt lat="47.32291" lon="6.2839">
        <ele>248.601</ele>
        <time>2016-09-05T15:24:07.999Z</time>
      </trkpt>
      <trkpt lat="47.32288" lon="6.28387">
        <ele>249.035</ele>
        <time>2016-09-05T15:24:08.999Z</time>
      </trkpt>
      <trkpt lat="47.32284" lon="6.28383">
        <ele>248.71</ele>
        <time>2016-09-05T15:24:09.999Z</time>
      </trkpt>
      <trkpt lat="47.32281" lon="6.28379">
        <ele>249.507</ele>
        <time>2016-09-05T15:24:10.999Z</time>
      </trkpt>
      <trkpt lat="47.32277" lon="6.28375">
        <ele>250.497</ele>
        <time>2016-09-05T15:24:11.999Z</time>
      </trkpt>
      <trkpt lat="47.32274" lon="6.2837">
        <ele>251.337</ele>
        <time>2016-09-05T15:24:12.999Z</time>
      </trkpt>
      <trkpt lat="47.3227" lon="6.28366">
        <ele>251.503</ele>
        <time>2016-09-05T15:24:13.999Z</time>
      </trkpt>
      <trkpt lat="47.32266" lon="6.28361">
        <ele>250.513</ele>
        <time>2016-09-05T15:24:14.999Z</time>
      </trkpt>
      <trkpt lat="47.32262" lon="6.28356">
        <ele>250.846</ele>
        <time>2016-09-05T15:24:15.999Z</time>
      </trkpt>
      <trkpt lat="47.3226" lon="6.2835">
        <ele>248.514</ele>
        <time>2016-09-05T15:24:16.999Z</time>
      </trkpt>
      <trkpt lat="47.32256" lon="6.28347">
        <ele>248.489</ele>
        <time>2016-09-05T15:24:17.999Z</time>
      </trkpt>
      <trkpt lat="47.32253" lon="6.28341">
        <ele>248.729</ele>
        <time>2016-09-05T15:24:18.999Z</time>
      </trkpt>
      <trkpt lat="47.3225" lon="6.28335">
        <ele>247.541</ele>
        <time>2016-09-05T15:24:19.999Z</time>
      </trkpt>
      <trkpt lat="47.32246" lon="6.2833">
        <ele>248.72</ele>
        <time>2016-09-05T15:24:20.999Z</time>
      </trkpt>
      <trkpt lat="47.32242" lon="6.28326">
        <ele>250.12</ele>
        <time>2016-09-05T15:24:21.999Z</time>
      </trkpt>
      <trkpt lat="47.32238" lon="6.28323">
        <ele>251.007</ele>
        <time>2016-09-05T15:24:22.999Z</time>
      </trkpt>
      <trkpt lat="47.32235" lon="6.28318">
        <ele>252.253</ele>
        <time>2016-09-05T15:24:23.999Z</time>
      </trkpt>
      <trkpt lat="47.32232" lon="6.28313">
        <ele>252.869</ele>
        <time>2016-09-05T15:24:24.999Z</time>
      </trkpt>
      <trkpt lat="47.32227" lon="6.28308">
        <ele>254.145</ele>
        <time>2016-09-05T15:24:25.999Z</time>
      </trkpt>
      <trkpt lat="47.32224" lon="6.28302">
        <ele>253.511</ele>
        <time>2016-09-05T15:24:26.999Z</time>
      </trkpt>
      <trkpt lat="47.32221" lon="6.28299">
        <ele>253.465</ele>
        <time>2016-09-05T15:24:27.999Z</time>
      </trkpt>
      <trkpt lat="47.32217" lon="6.28294">
        <ele>254.056</ele>
        <time>2016-09-05T15:24:28.999Z</time>
      </trkpt>
      <trkpt lat="47.32213" lon="6.2829">
        <ele>255.071</ele>
        <time>2016-09-05T15:24:29.999Z</time>
      </trkpt>
      <trkpt lat="47.32209" lon="6.28284">
        <ele>256.987</ele>
        <time>2016-09-05T15:24:30.999Z</time>
      </trkpt>
      <trkpt lat="47.32206" lon="6.2828">
        <ele>256.596</ele>
        <time>2016-09-05T15:24:31.999Z</time>
      </trkpt>
      <trkpt lat="47.32202" lon="6.28275">
        <ele>257.551</ele>
        <time>2016-09-05T15:24:32.999Z</time>
      </trkpt>
      <trkpt lat="47.32199" lon="6.28269">
        <ele>257.965</ele>
        <time>2016-09-05T15:24:33.999Z</time>
      </trkpt>
      <trkpt lat="47.32195" lon="6.28264">
        <ele>257.308</ele>
        <time>2016-09-05T15:24:34.999Z</time>
      </trkpt>
      <trkpt lat="47.32191" lon="6.28259">
        <ele>258.344</ele>
        <time>2016-09-05T15:24:35.999Z</time>
      </trkpt>
      <trkpt lat="47.32189" lon="6.28253">
        <ele>258.316</ele>
        <time>2016-09-05T15:24:36.999Z</time>
      </trkpt>
      <trkpt lat="47.32185" lon="6.28249">
        <ele>259.034</ele>
        <time>2016-09-05T15:24:37.999Z</time>
      </trkpt>
      <trkpt lat="47.32183" lon="6.28243">
        <ele>258.658</ele>
        <time>2016-09-05T15:24:38.999Z</time>
      </trkpt>
      <trkpt lat="47.3218" lon="6.28237">
        <ele>258.072</ele>
        <time>2016-09-05T15:24:39.999Z</time>
      </trkpt>
      <trkpt lat="47.32178" lon="6.2823">
        <ele>256.96</ele>
        <time>2016-09-05T15:24:40.999Z</time>
      </trkpt>
      <trkpt lat="47.32177" lon="6.28224">
        <ele>254.477</ele>
        <time>2016-09-05T15:24:41.999Z</time>
      </trkpt>
      <trkpt lat="47.32176" lon="6.28219">
        <ele>252.91</ele>
        <time>2016-09-05T15:24:42.999Z</time>
      </trkpt>
      <trkpt lat="47.32175" lon="6.28214">
        <ele>250.888</ele>
        <time>2016-09-05T15:24:43.999Z</time>
      </trkpt>
      <trkpt lat="47.32173" lon="6.28208">
        <ele>251.08</ele>
        <time>2016-09-05T15:24:44.999Z</time>
      </trkpt>
      <trkpt lat="47.32171" lon="6.28202">
        <ele>251.909</ele>
        <time>2016-09-05T15:24:45.999Z</time>
      </trkpt>
      <trkpt lat="47.3217" lon="6.28192">
        <ele>249.868</ele>
        <time>2016-09-05T15:24:46.999Z</time>
      </trkpt>
      <trkpt lat="47.32169" lon="6.28186">
        <ele>251.244</ele>
        <time>2016-09-05T15:24:47.999Z</time>
      </trkpt>
      <trkpt lat="47.32168" lon="6.28179">
        <ele>252.38</ele>
        <time>2016-09-05T15:24:48.999Z</time>
      </trkpt>
      <trkpt lat="47.32166" lon="6.28172">
        <ele>253.567</ele>
        <time>2016-09-05T15:24:49.999Z</time>
      </trkpt>
      <trkpt lat="47.32165" lon="6.28166">
        <ele>254.662</ele>
        <time>2016-09-05T15:24:50.999Z</time>
      </trkpt>
      <trkpt lat="47.32163" lon="6.2816">
        <ele>255.361</ele>
        <time>2016-09-05T15:24:51.999Z</time>
      </trkpt>
      <trkpt lat="47.32162" lon="6.28152">
        <ele>255.281</ele>
        <time>2016-09-05T15:24:52.999Z</time>
      </trkpt>
      <trkpt lat="47.32163" lon="6.28145">
        <ele>254.762</ele>
        <time>2016-09-05T15:24:53.999Z</time>
      </trkpt>
      <trkpt lat="47.32163" lon="6.2814">
        <ele>252.852</ele>
        <time>2016-09-05T15:24:54.999Z</time>
      </trkpt>
      <trkpt lat="47.32162" lon="6.28133">
        <ele>253.775</ele>
        <time>2016-09-05T15:24:55.999Z</time>
      </trkpt>
      <trkpt lat="47.32161" lon="6.28126">
        <ele>253.647</ele>
        <time>2016-09-05T15:24:56.999Z</time>
      </trkpt>
      <trkpt lat="47.3216" lon="6.28119">
        <ele>253.581</ele>
        <time>2016-09-05T15:24:57.999Z</time>
      </trkpt>
      <trkpt lat="47.32159" lon="6.28112">
        <ele>253.936</ele>
        <time>2016-09-05T15:24:58.999Z</time>
      </trkpt>
      <trkpt lat="47.32158" lon="6.28106">
        <ele>254.667</ele>
        <time>2016-09-05T15:24:59.999Z</time>
      </trkpt>
      <trkpt lat="47.32157" lon="6.28098">
        <ele>254.465</ele>
        <time>2016-09-05T15:25:00.999Z</time>
      </trkpt>
      <trkpt lat="47.32157" lon="6.28091">
        <ele>255.305</ele>
        <time>2016-09-05T15:25:01.999Z</time>
      </trkpt>
      <trkpt lat="47.32156" lon="6.28084">
        <ele>255.771</ele>
        <time>2016-09-05T15:25:02.999Z</time>
      </trkpt>
      <trkpt lat="47.32155" lon="6.28076">
        <ele>254.961</ele>
        <time>2016-09-05T15:25:03.999Z</time>
      </trkpt>
      <trkpt lat="47.32155" lon="6.2807">
        <ele>255</ele>
        <time>2016-09-05T15:25:04.999Z</time>
      </trkpt>
      <trkpt lat="47.32155" lon="6.28062">
        <ele>257.365</ele>
        <time>2016-09-05T15:25:05.999Z</time>
      </trkpt>
      <trkpt lat="47.32154" lon="6.28056">
        <ele>257.105</ele>
        <time>2016-09-05T15:25:06.999Z</time>
      </trkpt>
      <trkpt lat="47.32152" lon="6.28051">
        <ele>258.243</ele>
        <time>2016-09-05T15:25:07.999Z</time>
      </trkpt>
      <trkpt lat="47.32151" lon="6.28045">
        <ele>258.456</ele>
        <time>2016-09-05T15:25:08.999Z</time>
      </trkpt>
      <trkpt lat="47.32151" lon="6.28039">
        <ele>258.937</ele>
        <time>2016-09-05T15:25:09.999Z</time>
      </trkpt>
      <trkpt lat="47.32151" lon="6.28034">
        <ele>259.585</ele>
        <time>2016-09-05T15:25:10.999Z</time>
      </trkpt>
      <trkpt lat="47.3215" lon="6.28028">
        <ele>260.071</ele>
        <time>2016-09-05T15:25:11.999Z</time>
      </trkpt>
      <trkpt lat="47.3215" lon="6.28023">
        <ele>259.808</ele>
        <time>2016-09-05T15:25:12.999Z</time>
      </trkpt>
      <trkpt lat="47.32149" lon="6.28021">
        <ele>259.886</ele>
        <time>2016-09-05T15:25:13.999Z</time>
      </trkpt>
      <trkpt lat="47.32148" lon="6.28016">
        <ele>259.855</ele>
        <time>2016-09-05T15:25:14.999Z</time>
      </trkpt>
      <trkpt lat="47.32147" lon="6.28012">
        <ele>259.802</ele>
        <time>2016-09-05T15:25:15.999Z</time>
      </trkpt>
      <trkpt lat="47.32146" lon="6.28007">
        <ele>259.763</ele>
        <time>2016-09-05T15:25:16.999Z</time>
      </trkpt>
      <trkpt lat="47.32144" lon="6.28003">
        <ele>260.555</ele>
        <time>2016-09-05T15:25:17.999Z</time>
      </trkpt>
      <trkpt lat="47.32144" lon="6.27997">
        <ele>260.26</ele>
        <time>2016-09-05T15:25:18.999Z</time>
      </trkpt>
      <trkpt lat="47.32144" lon="6.27987">
        <ele>259.347</ele>
        <time>2016-09-05T15:25:19.999Z</time>
      </trkpt>
      <trkpt lat="47.32142" lon="6.27982">
        <ele>262.625</ele>
        <time>2016-09-05T15:25:20.999Z</time>
      </trkpt>
      <trkpt lat="47.32141" lon="6.27973">
        <ele>262.143</ele>
        <time>2016-09-05T15:25:21.999Z</time>
      </trkpt>
      <trkpt lat="47.32141" lon="6.27964">
        <ele>261.578</ele>
        <time>2016-09-05T15:25:22.999Z</time>
      </trkpt>
      <trkpt lat="47.32142" lon="6.27954">
        <ele>262.014</ele>
        <time>2016-09-05T15:25:23.999Z</time>
      </trkpt>
      <trkpt lat="47.32141" lon="6.27944">
        <ele>261.972</ele>
        <time>2016-09-05T15:25:24.999Z</time>
      </trkpt>
      <trkpt lat="47.3214" lon="6.27936">
        <ele>260.103</ele>
        <time>2016-09-05T15:25:25.999Z</time>
      </trkpt>
      <trkpt lat="47.32141" lon="6.27926">
        <ele>259.149</ele>
        <time>2016-09-05T15:25:26.999Z</time>
      </trkpt>
      <trkpt lat="47.32141" lon="6.27918">
        <ele>258.715</ele>
        <time>2016-09-05T15:25:27.999Z</time>
      </trkpt>
      <trkpt lat="47.32142" lon="6.2791">
        <ele>258.574</ele>
        <time>2016-09-05T15:25:28.999Z</time>
      </trkpt>
      <trkpt lat="47.32142" lon="6.27904">
        <ele>263.363</ele>
        <time>2016-09-05T15:25:29.999Z</time>
      </trkpt>
      <trkpt lat="47.32142" lon="6.27897">
        <ele>263.416</ele>
        <time>2016-09-05T15:25:30.999Z</time>
      </trkpt>
      <trkpt lat="47.32141" lon="6.27892">
        <ele>265.032</ele>
        <time>2016-09-05T15:25:31.999Z</time>
      </trkpt>
      <trkpt lat="47.32142" lon="6.27886">
        <ele>266.284</ele>
        <time>2016-09-05T15:25:32.999Z</time>
      </trkpt>
      <trkpt lat="47.32142" lon="6.27879">
        <ele>266.252</ele>
        <time>2016-09-05T15:25:33.999Z</time>
      </trkpt>
      <trkpt lat="47.32143" lon="6.27873">
        <ele>266.371</ele>
        <time>2016-09-05T15:25:34.999Z</time>
      </trkpt>
      <trkpt lat="47.32143" lon="6.27866">
        <ele>267.408</ele>
        <time>2016-09-05T15:25:35.999Z</time>
      </trkpt>
      <trkpt lat="47.32144" lon="6.27858">
        <ele>267.911</ele>
        <time>2016-09-05T15:25:36.999Z</time>
      </trkpt>
      <trkpt lat="47.32145" lon="6.27851">
        <ele>267.977</ele>
        <time>2016-09-05T15:25:37.999Z</time>
      </trkpt>
      <trkpt lat="47.32144" lon="6.27848">
        <ele>271.323</ele>
        <time>2016-09-05T15:25:38.999Z</time>
      </trkpt>
      <trkpt lat="47.32144" lon="6.27842">
        <ele>271.197</ele>
        <time>2016-09-05T15:25:39.999Z</time>
      </trkpt>
      <trkpt lat="47.32144" lon="6.27835">
        <ele>271.232</ele>
        <time>2016-09-05T15:25:40.999Z</time>
      </trkpt>
      <trkpt lat="47.32146" lon="6.27826">
        <ele>271.245</ele>
        <time>2016-09-05T15:25:41.999Z</time>
      </trkpt>
      <trkpt lat="47.32146" lon="6.27821">
        <ele>270.917</ele>
        <time>2016-09-05T15:25:42.999Z</time>
      </trkpt>
      <trkpt lat="47.32147" lon="6.27811">
        <ele>268.06</ele>
        <time>2016-09-05T15:25:43.999Z</time>
      </trkpt>
      <trkpt lat="47.32147" lon="6.27802">
        <ele>266.852</ele>
        <time>2016-09-05T15:25:44.999Z</time>
      </trkpt>
      <trkpt lat="47.32147" lon="6.27794">
        <ele>266.729</ele>
        <time>2016-09-05T15:25:45.999Z</time>
      </trkpt>
      <trkpt lat="47.32148" lon="6.27786">
        <ele>265.691</ele>
        <time>2016-09-05T15:25:46.999Z</time>
      </trkpt>
      <trkpt lat="47.32147" lon="6.27779">
        <ele>265.067</ele>
        <time>2016-09-05T15:25:47.999Z</time>
      </trkpt>
      <trkpt lat="47.32148" lon="6.27773">
        <ele>264.17</ele>
        <time>2016-09-05T15:25:48.999Z</time>
      </trkpt>
      <trkpt lat="47.3215" lon="6.27775">
        <ele>260.333</ele>
        <time>2016-09-05T15:25:49.999Z</time>
      </trkpt>
      <trkpt lat="47.32149" lon="6.27768">
        <ele>260.078</ele>
        <time>2016-09-05T15:25:50.999Z</time>
      </trkpt>
      <trkpt lat="47.32147" lon="6.27762">
        <ele>260.016</ele>
        <time>2016-09-05T15:25:51.999Z</time>
      </trkpt>
      <trkpt lat="47.32147" lon="6.27753">
        <ele>260.875</ele>
        <time>2016-09-05T15:25:52.999Z</time>
      </trkpt>
      <trkpt lat="47.32147" lon="6.27747">
        <ele>259.416</ele>
        <time>2016-09-05T15:25:53.999Z</time>
      </trkpt>
      <trkpt lat="47.3215" lon="6.2774">
        <ele>262.427</ele>
        <time>2016-09-05T15:25:54.999Z</time>
      </trkpt>
      <trkpt lat="47.3215" lon="6.27733">
        <ele>262.878</ele>
        <time>2016-09-05T15:25:55.999Z</time>
      </trkpt>
      <trkpt lat="47.32151" lon="6.27725">
        <ele>262.236</ele>
        <time>2016-09-05T15:25:56.999Z</time>
      </trkpt>
      <trkpt lat="47.3215" lon="6.27718">
        <ele>261.959</ele>
        <time>2016-09-05T15:25:57.999Z</time>
      </trkpt>
      <trkpt lat="47.3215" lon="6.27711">
        <ele>262.112</ele>
        <time>2016-09-05T15:25:58.999Z</time>
      </trkpt>
      <trkpt lat="47.3215" lon="6.27704">
        <ele>261.471</ele>
        <time>2016-09-05T15:25:59.999Z</time>
      </trkpt>
      <trkpt lat="47.3215" lon="6.27697">
        <ele>260.785</ele>
        <time>2016-09-05T15:26:00.999Z</time>
      </trkpt>
      <trkpt lat="47.3215" lon="6.27691">
        <ele>260.621</ele>
        <time>2016-09-05T15:26:01.999Z</time>
      </trkpt>
      <trkpt lat="47.3215" lon="6.27684">
        <ele>261.68</ele>
        <time>2016-09-05T15:26:02.999Z</time>
      </trkpt>
      <trkpt lat="47.3215" lon="6.27678">
        <ele>261.458</ele>
        <time>2016-09-05T15:26:03.999Z</time>
      </trkpt>
      <trkpt lat="47.3215" lon="6.27671">
        <ele>262.25</ele>
        <time>2016-09-05T15:26:04.999Z</time>
      </trkpt>
      <trkpt lat="47.32151" lon="6.27663">
        <ele>262.589</ele>
        <time>2016-09-05T15:26:05.999Z</time>
      </trkpt>
      <trkpt lat="47.32151" lon="6.27657">
        <ele>262.457</ele>
        <time>2016-09-05T15:26:06.999Z</time>
      </trkpt>
      <trkpt lat="47.32152" lon="6.27651">
        <ele>261.37</ele>
        <time>2016-09-05T15:26:07.999Z</time>
      </trkpt>
      <trkpt lat="47.32152" lon="6.27644">
        <ele>261.542</ele>
        <time>2016-09-05T15:26:08.999Z</time>
      </trkpt>
      <trkpt lat="47.32152" lon="6.27638">
        <ele>261.679</ele>
        <time>2016-09-05T15:26:09.999Z</time>
      </trkpt>
      <trkpt lat="47.32151" lon="6.27631">
        <ele>261.124</ele>
        <time>2016-09-05T15:26:10.999Z</time>
      </trkpt>
      <trkpt lat="47.32151" lon="6.27625">
        <ele>260.356</ele>
        <time>2016-09-05T15:26:11.999Z</time>
      </trkpt>
      <trkpt lat="47.3215" lon="6.27618">
        <ele>260.92</ele>
        <time>2016-09-05T15:26:12.999Z</time>
      </trkpt>
      <trkpt lat="47.3215" lon="6.27612">
        <ele>260.47</ele>
        <time>2016-09-05T15:26:13.999Z</time>
      </trkpt>
      <trkpt lat="47.32149" lon="6.27605">
        <ele>260.302</ele>
        <time>2016-09-05T15:26:14.999Z</time>
      </trkpt>
      <trkpt lat="47.32148" lon="6.27599">
        <ele>259.337</ele>
        <time>2016-09-05T15:26:15.999Z</time>
      </trkpt>
      <trkpt lat="47.32147" lon="6.27593">
        <ele>259.343</ele>
        <time>2016-09-05T15:26:16.999Z</time>
      </trkpt>
      <trkpt lat="47.32145" lon="6.27585">
        <ele>259.786</ele>
        <time>2016-09-05T15:26:17.999Z</time>
      </trkpt>
      <trkpt lat="47.32144" lon="6.27579">
        <ele>259.969</ele>
        <time>2016-09-05T15:26:18.999Z</time>
      </trkpt>
      <trkpt lat="47.32143" lon="6.27572">
        <ele>260.197</ele>
        <time>2016-09-05T15:26:19.999Z</time>
      </trkpt>
      <trkpt lat="47.32141" lon="6.27565">
        <ele>258.964</ele>
        <time>2016-09-05T15:26:20.999Z</time>
      </trkpt>
      <trkpt lat="47.3214" lon="6.27559">
        <ele>258.93</ele>
        <time>2016-09-05T15:26:21.999Z</time>
      </trkpt>
      <trkpt lat="47.32138" lon="6.27552">
        <ele>258.97</ele>
        <time>2016-09-05T15:26:22.999Z</time>
      </trkpt>
      <trkpt lat="47.32136" lon="6.27544">
        <ele>258.601</ele>
        <time>2016-09-05T15:26:23.999Z</time>
      </trkpt>
      <trkpt lat="47.32135" lon="6.27539">
        <ele>259.191</ele>
        <time>2016-09-05T15:26:24.999Z</time>
      </trkpt>
      <trkpt lat="47.32134" lon="6.27535">
        <ele>259.838</ele>
        <time>2016-09-05T15:26:25.999Z</time>
      </trkpt>
      <trkpt lat="47.32133" lon="6.2753">
        <ele>260.053</ele>
        <time>2016-09-05T15:26:26.999Z</time>
      </trkpt>
      <trkpt lat="47.32132" lon="6.27525">
        <ele>260.291</ele>
        <time>2016-09-05T15:26:27.999Z</time>
      </trkpt>
      <trkpt lat="47.32131" lon="6.27521">
        <ele>260.612</ele>
        <time>2016-09-05T15:26:28.999Z</time>
      </trkpt>
      <trkpt lat="47.3213" lon="6.27515">
        <ele>261.53</ele>
        <time>2016-09-05T15:26:29.999Z</time>
      </trkpt>
      <trkpt lat="47.32131" lon="6.27513">
        <ele>258.757</ele>
        <time>2016-09-05T15:26:30.999Z</time>
      </trkpt>
      <trkpt lat="47.3213" lon="6.27508">
        <ele>259.183</ele>
        <time>2016-09-05T15:26:31.999Z</time>
      </trkpt>
      <trkpt lat="47.32129" lon="6.27499">
        <ele>255.856</ele>
        <time>2016-09-05T15:26:32.999Z</time>
      </trkpt>
      <trkpt lat="47.3213" lon="6.27494">
        <ele>256.396</ele>
        <time>2016-09-05T15:26:33.999Z</time>
      </trkpt>
      <trkpt lat="47.32131" lon="6.27488">
        <ele>258.417</ele>
        <time>2016-09-05T15:26:34.999Z</time>
      </trkpt>
      <trkpt lat="47.32131" lon="6.27483">
        <ele>259.574</ele>
        <time>2016-09-05T15:26:35.999Z</time>
      </trkpt>
      <trkpt lat="47.3213" lon="6.27478">
        <ele>260.43</ele>
        <time>2016-09-05T15:26:36.999Z</time>
      </trkpt>
      <trkpt lat="47.3213" lon="6.27473">
        <ele>260.615</ele>
        <time>2016-09-05T15:26:37.999Z</time>
      </trkpt>
      <trkpt lat="47.32129" lon="6.27469">
        <ele>260.707</ele>
        <time>2016-09-05T15:26:38.999Z</time>
      </trkpt>
      <trkpt lat="47.32128" lon="6.27467">
        <ele>258.556</ele>
        <time>2016-09-05T15:26:39.999Z</time>
      </trkpt>
      <trkpt lat="47.32128" lon="6.27466">
        <ele>258.432</ele>
        <time>2016-09-05T15:26:40.999Z</time>
      </trkpt>
      <trkpt lat="47.32129" lon="6.27466">
        <ele>258.371</ele>
        <time>2016-09-05T15:26:41.999Z</time>
      </trkpt>
      <trkpt lat="47.32129" lon="6.27466">
        <ele>259.37</ele>
        <time>2016-09-05T15:26:42.999Z</time>
      </trkpt>
      <trkpt lat="47.32129" lon="6.27466">
        <ele>260.27</ele>
        <time>2016-09-05T15:26:43.999Z</time>
      </trkpt>
      <trkpt lat="47.32129" lon="6.27466">
        <ele>262.523</ele>
        <time>2016-09-05T15:26:44.999Z</time>
      </trkpt>
      <trkpt lat="47.3213" lon="6.27468">
        <ele>263.115</ele>
        <time>2016-09-05T15:26:45.999Z</time>
      </trkpt>
      <trkpt lat="47.3213" lon="6.27467">
        <ele>262.515</ele>
        <time>2016-09-05T15:26:46.999Z</time>
      </trkpt>
      <trkpt lat="47.32131" lon="6.27467">
        <ele>264.504</ele>
        <time>2016-09-05T15:26:47.999Z</time>
      </trkpt>
      <trkpt lat="47.32131" lon="6.27467">
        <ele>264.966</ele>
        <time>2016-09-05T15:26:48.999Z</time>
      </trkpt>
      <trkpt lat="47.32132" lon="6.27467">
        <ele>267.206</ele>
        <time>2016-09-05T15:26:49.999Z</time>
      </trkpt>
      <trkpt lat="47.32132" lon="6.27467">
        <ele>268.297</ele>
        <time>2016-09-05T15:26:50.999Z</time>
      </trkpt>
      <trkpt lat="47.32132" lon="6.27467">
        <ele>266.497</ele>
        <time>2016-09-05T15:26:51.999Z</time>
      </trkpt>
      <trkpt lat="47.32132" lon="6.27467">
        <ele>266.331</ele>
        <time>2016-09-05T15:26:52.999Z</time>
      </trkpt>
      <trkpt lat="47.32132" lon="6.27467">
        <ele>265.776</ele>
        <time>2016-09-05T15:26:53.999Z</time>
      </trkpt>
      <trkpt lat="47.32132" lon="6.27467">
        <ele>266.977</ele>
        <time>2016-09-05T15:26:54.999Z</time>
      </trkpt>
      <trkpt lat="47.32132" lon="6.27467">
        <ele>267.18</ele>
        <time>2016-09-05T15:26:55.999Z</time>
      </trkpt>
      <trkpt lat="47.32132" lon="6.27466">
        <ele>266.827</ele>
        <time>2016-09-05T15:26:56.999Z</time>
      </trkpt>
      <trkpt lat="47.32132" lon="6.27466">
        <ele>266.67</ele>
        <time>2016-09-05T15:26:57.999Z</time>
      </trkpt>
      <trkpt lat="47.32131" lon="6.27466">
        <ele>266.7</ele>
        <time>2016-09-05T15:26:58.999Z</time>
      </trkpt>
      <trkpt lat="47.32131" lon="6.27467">
        <ele>266.381</ele>
        <time>2016-09-05T15:26:59.999Z</time>
      </trkpt>
      <trkpt lat="47.32131" lon="6.27467">
        <ele>267.312</ele>
        <time>2016-09-05T15:27:00.999Z</time>
      </trkpt>
      <trkpt lat="47.32131" lon="6.27467">
        <ele>267.143</ele>
        <time>2016-09-05T15:27:01.999Z</time>
      </trkpt>
      <trkpt lat="47.32131" lon="6.27467">
        <ele>266.353</ele>
        <time>2016-09-05T15:27:02.999Z</time>
      </trkpt>
      <trkpt lat="47.32131" lon="6.27467">
        <ele>266.234</ele>
        <time>2016-09-05T15:27:03.999Z</time>
      </trkpt>
      <trkpt lat="47.32131" lon="6.27467">
        <ele>270.917</ele>
        <time>2016-09-05T15:27:04.999Z</time>
      </trkpt>
      <trkpt lat="47.32131" lon="6.27467">
        <ele>273.116</ele>
        <time>2016-09-05T15:27:05.999Z</time>
      </trkpt>
      <trkpt lat="47.32131" lon="6.27467">
        <ele>273.383</ele>
        <time>2016-09-05T15:27:06.999Z</time>
      </trkpt>
      <trkpt lat="47.32131" lon="6.27467">
        <ele>273.525</ele>
        <time>2016-09-05T15:27:07.999Z</time>
      </trkpt>
      <trkpt lat="47.32135" lon="6.27466">
        <ele>271.667</ele>
        <time>2016-09-05T15:27:08.999Z</time>
      </trkpt>
      <trkpt lat="47.32135" lon="6.27466">
        <ele>271.332</ele>
        <time>2016-09-05T15:27:09.999Z</time>
      </trkpt>
      <trkpt lat="47.32135" lon="6.27466">
        <ele>271.54</ele>
        <time>2016-09-05T15:27:10.999Z</time>
      </trkpt>
      <trkpt lat="47.32135" lon="6.27466">
        <ele>272.173</ele>
        <time>2016-09-05T15:27:11.999Z</time>
      </trkpt>
      <trkpt lat="47.32135" lon="6.27466">
        <ele>272.946</ele>
        <time>2016-09-05T15:27:12.999Z</time>
      </trkpt>
      <trkpt lat="47.32132" lon="6.27465">
        <ele>274.324</ele>
        <time>2016-09-05T15:27:13.999Z</time>
      </trkpt>
      <trkpt lat="47.32132" lon="6.27465">
        <ele>276.065</ele>
        <time>2016-09-05T15:27:14.999Z</time>
      </trkpt>
      <trkpt lat="47.32132" lon="6.27465">
        <ele>277.383</ele>
        <time>2016-09-05T15:27:15.999Z</time>
      </trkpt>
      <trkpt lat="47.32132" lon="6.27465">
        <ele>279.84</ele>
        <time>2016-09-05T15:27:16.999Z</time>
      </trkpt>
      <trkpt lat="47.32132" lon="6.27465">
        <ele>280.661</ele>
        <time>2016-09-05T15:27:17.999Z</time>
      </trkpt>
      <trkpt lat="47.32132" lon="6.27465">
        <ele>280.708</ele>
        <time>2016-09-05T15:27:18.999Z</time>
      </trkpt>
      <trkpt lat="47.32132" lon="6.27465">
        <ele>280.191</ele>
        <time>2016-09-05T15:27:19.999Z</time>
      </trkpt>
      <trkpt lat="47.32133" lon="6.27463">
        <ele>280.391</ele>
        <time>2016-09-05T15:27:20.999Z</time>
      </trkpt>
      <trkpt lat="47.32133" lon="6.27463">
        <ele>280.249</ele>
        <time>2016-09-05T15:27:21.999Z</time>
      </trkpt>
      <trkpt lat="47.32133" lon="6.27463">
        <ele>280.356</ele>
        <time>2016-09-05T15:27:22.999Z</time>
      </trkpt>
      <trkpt lat="47.32133" lon="6.27463">
        <ele>279.292</ele>
        <time>2016-09-05T15:27:23.999Z</time>
      </trkpt>
      <trkpt lat="47.32133" lon="6.27463">
        <ele>279.442</ele>
        <time>2016-09-05T15:27:24.999Z</time>
      </trkpt>
      <trkpt lat="47.32134" lon="6.27462">
        <ele>278.663</ele>
        <time>2016-09-05T15:27:25.999Z</time>
      </trkpt>
      <trkpt lat="47.32134" lon="6.27462">
        <ele>278.955</ele>
        <time>2016-09-05T15:27:26.999Z</time>
      </trkpt>
      <trkpt lat="47.32134" lon="6.27462">
        <ele>279.748</ele>
        <time>2016-09-05T15:27:27.999Z</time>
      </trkpt>
      <trkpt lat="47.32134" lon="6.27462">
        <ele>279.224</ele>
        <time>2016-09-05T15:27:28.999Z</time>
      </trkpt>
      <trkpt lat="47.32134" lon="6.27463">
        <ele>279.937</ele>
        <time>2016-09-05T15:27:29.999Z</time>
      </trkpt>
      <trkpt lat="47.32134" lon="6.27463">
        <ele>282.267</ele>
        <time>2016-09-05T15:27:30.999Z</time>
      </trkpt>
      <trkpt lat="47.32134" lon="6.27463">
        <ele>282.466</ele>
        <time>2016-09-05T15:27:31.999Z</time>
      </trkpt>
      <trkpt lat="47.32134" lon="6.27463">
        <ele>284.937</ele>
        <time>2016-09-05T15:27:32.999Z</time>
      </trkpt>
      <trkpt lat="47.32134" lon="6.27463">
        <ele>282.715</ele>
        <time>2016-09-05T15:27:33.999Z</time>
      </trkpt>
      <trkpt lat="47.32134" lon="6.27463">
        <ele>280.708</ele>
        <time>2016-09-05T15:27:34.999Z</time>
      </trkpt>
      <trkpt lat="47.32134" lon="6.27463">
        <ele>280.899</ele>
        <time>2016-09-05T15:27:35.999Z</time>
      </trkpt>
      <trkpt lat="47.32134" lon="6.27463">
        <ele>280.355</ele>
        <time>2016-09-05T15:27:36.999Z</time>
      </trkpt>
      <trkpt lat="47.32134" lon="6.27463">
        <ele>280.746</ele>
        <time>2016-09-05T15:27:37.999Z</time>
      </trkpt>
      <trkpt lat="47.32134" lon="6.27463">
        <ele>280.463</ele>
        <time>2016-09-05T15:27:38.999Z</time>
      </trkpt>
      <trkpt lat="47.32134" lon="6.27463">
        <ele>277.55</ele>
        <time>2016-09-05T15:27:39.999Z</time>
      </trkpt>
      <trkpt lat="47.32134" lon="6.27463">
        <ele>277.595</ele>
        <time>2016-09-05T15:27:40.999Z</time>
      </trkpt>
      <trkpt lat="47.32132" lon="6.27466">
        <ele>275.086</ele>
        <time>2016-09-05T15:27:41.999Z</time>
      </trkpt>
      <trkpt lat="47.32132" lon="6.27468">
        <ele>273.423</ele>
        <time>2016-09-05T15:27:42.999Z</time>
      </trkpt>
      <trkpt lat="47.32132" lon="6.27469">
        <ele>272.354</ele>
        <time>2016-09-05T15:27:43.999Z</time>
      </trkpt>
      <trkpt lat="47.32132" lon="6.2747">
        <ele>271.714</ele>
        <time>2016-09-05T15:27:44.999Z</time>
      </trkpt>
      <trkpt lat="47.32132" lon="6.27471">
        <ele>274.76</ele>
        <time>2016-09-05T15:27:45.999Z</time>
      </trkpt>
      <trkpt lat="47.32132" lon="6.27472">
        <ele>274.831</ele>
        <time>2016-09-05T15:27:46.999Z</time>
      </trkpt>
      <trkpt lat="47.32132" lon="6.27472">
        <ele>272.972</ele>
        <time>2016-09-05T15:27:47.999Z</time>
      </trkpt>
      <trkpt lat="47.32132" lon="6.27472">
        <ele>272.476</ele>
        <time>2016-09-05T15:27:48.999Z</time>
      </trkpt>
      <trkpt lat="47.32132" lon="6.27472">
        <ele>271.794</ele>
        <time>2016-09-05T15:27:49.999Z</time>
      </trkpt>
      <trkpt lat="47.32132" lon="6.27472">
        <ele>271.404</ele>
        <time>2016-09-05T15:27:50.999Z</time>
      </trkpt>
      <trkpt lat="47.32132" lon="6.27472">
        <ele>271.319</ele>
        <time>2016-09-05T15:27:51.999Z</time>
      </trkpt>
      <trkpt lat="47.32132" lon="6.27472">
        <ele>270.343</ele>
        <time>2016-09-05T15:27:52.999Z</time>
      </trkpt>
      <trkpt lat="47.32132" lon="6.27472">
        <ele>269.929</ele>
        <time>2016-09-05T15:27:53.999Z</time>
      </trkpt>
      <trkpt lat="47.32132" lon="6.27472">
        <ele>270.253</ele>
        <time>2016-09-05T15:27:54.999Z</time>
      </trkpt>
      <trkpt lat="47.32132" lon="6.27472">
        <ele>270.524</ele>
        <time>2016-09-05T15:27:55.999Z</time>
      </trkpt>
      <trkpt lat="47.32132" lon="6.27473">
        <ele>270.972</ele>
        <time>2016-09-05T15:27:56.999Z</time>
      </trkpt>
      <trkpt lat="47.32132" lon="6.27473">
        <ele>270.147</ele>
        <time>2016-09-05T15:27:57.999Z</time>
      </trkpt>
      <trkpt lat="47.32132" lon="6.27473">
        <ele>270.399</ele>
        <time>2016-09-05T15:27:58.999Z</time>
      </trkpt>
      <trkpt lat="47.32132" lon="6.27473">
        <ele>270.276</ele>
        <time>2016-09-05T15:27:59.999Z</time>
      </trkpt>
      <trkpt lat="47.3213" lon="6.27472">
        <ele>269.771</ele>
        <time>2016-09-05T15:28:00.999Z</time>
      </trkpt>
      <trkpt lat="47.3213" lon="6.27472">
        <ele>269.119</ele>
        <time>2016-09-05T15:28:01.999Z</time>
      </trkpt>
      <trkpt lat="47.3213" lon="6.27472">
        <ele>266.767</ele>
        <time>2016-09-05T15:28:02.999Z</time>
      </trkpt>
      <trkpt lat="47.3213" lon="6.27472">
        <ele>266.299</ele>
        <time>2016-09-05T15:28:03.999Z</time>
      </trkpt>
      <trkpt lat="47.3213" lon="6.27472">
        <ele>265.428</ele>
        <time>2016-09-05T15:28:04.999Z</time>
      </trkpt>
      <trkpt lat="47.3213" lon="6.27472">
        <ele>265.519</ele>
        <time>2016-09-05T15:28:05.999Z</time>
      </trkpt>
      <trkpt lat="47.3213" lon="6.27469">
        <ele>266.674</ele>
        <time>2016-09-05T15:28:06.999Z</time>
      </trkpt>
      <trkpt lat="47.3213" lon="6.27469">
        <ele>266.413</ele>
        <time>2016-09-05T15:28:07.999Z</time>
      </trkpt>
      <trkpt lat="47.3213" lon="6.27469">
        <ele>266.428</ele>
        <time>2016-09-05T15:28:08.999Z</time>
      </trkpt>
      <trkpt lat="47.3213" lon="6.27469">
        <ele>266.616</ele>
        <time>2016-09-05T15:28:09.999Z</time>
      </trkpt>
      <trkpt lat="47.3213" lon="6.27469">
        <ele>268.057</ele>
        <time>2016-09-05T15:28:10.999Z</time>
      </trkpt>
      <trkpt lat="47.3213" lon="6.27469">
        <ele>268.462</ele>
        <time>2016-09-05T15:28:11.999Z</time>
      </trkpt>
      <trkpt lat="47.3213" lon="6.27469">
        <ele>270.018</ele>
        <time>2016-09-05T15:28:12.999Z</time>
      </trkpt>
      <trkpt lat="47.3213" lon="6.27469">
        <ele>269.963</ele>
        <time>2016-09-05T15:28:13.999Z</time>
      </trkpt>
      <trkpt lat="47.3213" lon="6.27469">
        <ele>272.071</ele>
        <time>2016-09-05T15:28:14.999Z</time>
      </trkpt>
      <trkpt lat="47.3213" lon="6.27469">
        <ele>272.027</ele>
        <time>2016-09-05T15:28:15.999Z</time>
      </trkpt>
      <trkpt lat="47.3213" lon="6.27469">
        <ele>273.753</ele>
        <time>2016-09-05T15:28:16.999Z</time>
      </trkpt>
      <trkpt lat="47.3213" lon="6.27469">
        <ele>274.206</ele>
        <time>2016-09-05T15:28:17.999Z</time>
      </trkpt>
      <trkpt lat="47.3213" lon="6.27469">
        <ele>273.693</ele>
        <time>2016-09-05T15:28:18.999Z</time>
      </trkpt>
      <trkpt lat="47.3213" lon="6.27469">
        <ele>272.852</ele>
        <time>2016-09-05T15:28:19.999Z</time>
      </trkpt>
      <trkpt lat="47.3213" lon="6.27469">
        <ele>271.712</ele>
        <time>2016-09-05T15:28:20.999Z</time>
      </trkpt>
      <trkpt lat="47.3213" lon="6.27469">
        <ele>271.424</ele>
        <time>2016-09-05T15:28:21.999Z</time>
      </trkpt>
      <trkpt lat="47.32129" lon="6.2747">
        <ele>267.325</ele>
        <time>2016-09-05T15:28:22.999Z</time>
      </trkpt>
      <trkpt lat="47.32129" lon="6.2747">
        <ele>269.946</ele>
        <time>2016-09-05T15:28:23.999Z</time>
      </trkpt>
      <trkpt lat="47.32129" lon="6.2747">
        <ele>271.198</ele>
        <time>2016-09-05T15:28:24.999Z</time>
      </trkpt>
      <trkpt lat="47.32129" lon="6.2747">
        <ele>268.908</ele>
        <time>2016-09-05T15:28:25.999Z</time>
      </trkpt>
      <trkpt lat="47.32129" lon="6.2747">
        <ele>269.301</ele>
        <time>2016-09-05T15:28:26.999Z</time>
      </trkpt>
      <trkpt lat="47.32129" lon="6.2747">
        <ele>267.21</ele>
        <time>2016-09-05T15:28:27.999Z</time>
      </trkpt>
      <trkpt lat="47.32129" lon="6.2747">
        <ele>266.027</ele>
        <time>2016-09-05T15:28:28.999Z</time>
      </trkpt>
      <trkpt lat="47.32129" lon="6.2747">
        <ele>264.985</ele>
        <time>2016-09-05T15:28:29.999Z</time>
      </trkpt>
      <trkpt lat="47.32129" lon="6.2747">
        <ele>263.311</ele>
        <time>2016-09-05T15:28:30.999Z</time>
      </trkpt>
      <trkpt lat="47.32133" lon="6.27475">
        <ele>263.909</ele>
        <time>2016-09-05T15:28:31.999Z</time>
      </trkpt>
      <trkpt lat="47.32133" lon="6.27475">
        <ele>265.148</ele>
        <time>2016-09-05T15:28:32.999Z</time>
      </trkpt>
      <trkpt lat="47.32133" lon="6.27475">
        <ele>265.617</ele>
        <time>2016-09-05T15:28:33.999Z</time>
      </trkpt>
      <trkpt lat="47.32133" lon="6.27475">
        <ele>265.929</ele>
        <time>2016-09-05T15:28:34.999Z</time>
      </trkpt>
      <trkpt lat="47.32133" lon="6.27475">
        <ele>266.426</ele>
        <time>2016-09-05T15:28:35.999Z</time>
      </trkpt>
      <trkpt lat="47.32133" lon="6.27475">
        <ele>265.746</ele>
        <time>2016-09-05T15:28:36.999Z</time>
      </trkpt>
      <trkpt lat="47.32133" lon="6.27474">
        <ele>266.523</ele>
        <time>2016-09-05T15:28:37.999Z</time>
      </trkpt>
      <trkpt lat="47.32133" lon="6.27474">
        <ele>266.799</ele>
        <time>2016-09-05T15:28:38.999Z</time>
      </trkpt>
      <trkpt lat="47.32133" lon="6.27474">
        <ele>266.938</ele>
        <time>2016-09-05T15:28:39.999Z</time>
      </trkpt>
      <trkpt lat="47.32133" lon="6.27474">
        <ele>267.04</ele>
        <time>2016-09-05T15:28:40.999Z</time>
      </trkpt>
      <trkpt lat="47.32133" lon="6.27474">
        <ele>267.599</ele>
        <time>2016-09-05T15:28:41.999Z</time>
      </trkpt>
      <trkpt lat="47.32133" lon="6.27474">
        <ele>268.095</ele>
        <time>2016-09-05T15:28:42.999Z</time>
      </trkpt>
      <trkpt lat="47.32133" lon="6.27474">
        <ele>268.1</ele>
        <time>2016-09-05T15:28:43.999Z</time>
      </trkpt>
      <trkpt lat="47.32133" lon="6.27474">
        <ele>267.665</ele>
        <time>2016-09-05T15:28:44.999Z</time>
      </trkpt>
      <trkpt lat="47.32132" lon="6.27474">
        <ele>267.47</ele>
        <time>2016-09-05T15:28:45.999Z</time>
      </trkpt>
      <trkpt lat="47.32132" lon="6.27474">
        <ele>267.87</ele>
        <time>2016-09-05T15:28:46.999Z</time>
      </trkpt>
      <trkpt lat="47.32132" lon="6.27473">
        <ele>268.421</ele>
        <time>2016-09-05T15:28:47.999Z</time>
      </trkpt>
      <trkpt lat="47.32132" lon="6.27473">
        <ele>270.538</ele>
        <time>2016-09-05T15:28:48.999Z</time>
      </trkpt>
      <trkpt lat="47.32132" lon="6.27473">
        <ele>269.494</ele>
        <time>2016-09-05T15:28:49.999Z</time>
      </trkpt>
      <trkpt lat="47.32132" lon="6.27473">
        <ele>269.677</ele>
        <time>2016-09-05T15:28:50.999Z</time>
      </trkpt>
      <trkpt lat="47.32132" lon="6.27471">
        <ele>269.229</ele>
        <time>2016-09-05T15:28:51.999Z</time>
      </trkpt>
      <trkpt lat="47.32132" lon="6.27471">
        <ele>270.199</ele>
        <time>2016-09-05T15:28:52.999Z</time>
      </trkpt>
      <trkpt lat="47.32132" lon="6.27471">
        <ele>271.828</ele>
        <time>2016-09-05T15:28:53.999Z</time>
      </trkpt>
      <trkpt lat="47.32132" lon="6.27471">
        <ele>271.194</ele>
        <time>2016-09-05T15:28:54.999Z</time>
      </trkpt>
      <trkpt lat="47.32131" lon="6.27471">
        <ele>270.717</ele>
        <time>2016-09-05T15:28:55.999Z</time>
      </trkpt>
      <trkpt lat="47.32131" lon="6.27471">
        <ele>271.068</ele>
        <time>2016-09-05T15:28:56.999Z</time>
      </trkpt>
      <trkpt lat="47.32131" lon="6.27471">
        <ele>272.33</ele>
        <time>2016-09-05T15:28:57.999Z</time>
      </trkpt>
      <trkpt lat="47.32131" lon="6.27471">
        <ele>272.214</ele>
        <time>2016-09-05T15:28:58.999Z</time>
      </trkpt>
      <trkpt lat="47.32131" lon="6.27471">
        <ele>272.801</ele>
        <time>2016-09-05T15:28:59.999Z</time>
      </trkpt>
      <trkpt lat="47.32131" lon="6.27471">
        <ele>272.727</ele>
        <time>2016-09-05T15:29:00.999Z</time>
      </trkpt>
      <trkpt lat="47.32131" lon="6.27471">
        <ele>272.294</ele>
        <time>2016-09-05T15:29:01.999Z</time>
      </trkpt>
      <trkpt lat="47.32131" lon="6.27471">
        <ele>272.196</ele>
        <time>2016-09-05T15:29:02.999Z</time>
      </trkpt>
      <trkpt lat="47.32131" lon="6.27471">
        <ele>271.602</ele>
        <time>2016-09-05T15:29:03.999Z</time>
      </trkpt>
      <trkpt lat="47.32131" lon="6.27471">
        <ele>271.603</ele>
        <time>2016-09-05T15:29:04.999Z</time>
      </trkpt>
      <trkpt lat="47.32131" lon="6.27471">
        <ele>266.885</ele>
        <time>2016-09-05T15:29:05.999Z</time>
      </trkpt>
      <trkpt lat="47.32131" lon="6.27471">
        <ele>266.312</ele>
        <time>2016-09-05T15:29:06.999Z</time>
      </trkpt>
      <trkpt lat="47.32131" lon="6.27475">
        <ele>267.136</ele>
        <time>2016-09-05T15:29:07.999Z</time>
      </trkpt>
      <trkpt lat="47.32131" lon="6.27475">
        <ele>266.582</ele>
        <time>2016-09-05T15:29:08.999Z</time>
      </trkpt>
      <trkpt lat="47.32131" lon="6.27475">
        <ele>265.841</ele>
        <time>2016-09-05T15:29:09.999Z</time>
      </trkpt>
      <trkpt lat="47.32131" lon="6.27476">
        <ele>265.971</ele>
        <time>2016-09-05T15:29:10.999Z</time>
      </trkpt>
      <trkpt lat="47.32131" lon="6.27476">
        <ele>262.617</ele>
        <time>2016-09-05T15:29:11.999Z</time>
      </trkpt>
      <trkpt lat="47.32131" lon="6.27476">
        <ele>260.573</ele>
        <time>2016-09-05T15:29:12.999Z</time>
      </trkpt>
      <trkpt lat="47.32131" lon="6.27476">
        <ele>260.508</ele>
        <time>2016-09-05T15:29:13.999Z</time>
      </trkpt>
      <trkpt lat="47.32131" lon="6.27476">
        <ele>261.12</ele>
        <time>2016-09-05T15:29:14.999Z</time>
      </trkpt>
      <trkpt lat="47.32131" lon="6.27476">
        <ele>262.158</ele>
        <time>2016-09-05T15:29:15.999Z</time>
      </trkpt>
      <trkpt lat="47.32131" lon="6.27476">
        <ele>263.47</ele>
        <time>2016-09-05T15:29:16.999Z</time>
      </trkpt>
      <trkpt lat="47.32131" lon="6.27476">
        <ele>264.657</ele>
        <time>2016-09-05T15:29:17.999Z</time>
      </trkpt>
      <trkpt lat="47.32131" lon="6.27476">
        <ele>265.657</ele>
        <time>2016-09-05T15:29:18.999Z</time>
      </trkpt>
      <trkpt lat="47.32131" lon="6.27474">
        <ele>265.506</ele>
        <time>2016-09-05T15:29:19.999Z</time>
      </trkpt>
      <trkpt lat="47.32131" lon="6.27474">
        <ele>265.459</ele>
        <time>2016-09-05T15:29:20.999Z</time>
      </trkpt>
      <trkpt lat="47.32131" lon="6.27474">
        <ele>266.187</ele>
        <time>2016-09-05T15:29:21.999Z</time>
      </trkpt>
      <trkpt lat="47.32131" lon="6.27474">
        <ele>267.294</ele>
        <time>2016-09-05T15:29:22.999Z</time>
      </trkpt>
      <trkpt lat="47.32131" lon="6.27474">
        <ele>265.869</ele>
        <time>2016-09-05T15:29:23.999Z</time>
      </trkpt>
      <trkpt lat="47.32131" lon="6.27474">
        <ele>265.817</ele>
        <time>2016-09-05T15:29:24.999Z</time>
      </trkpt>
      <trkpt lat="47.32131" lon="6.27474">
        <ele>264.129</ele>
        <time>2016-09-05T15:29:25.999Z</time>
      </trkpt>
      <trkpt lat="47.32131" lon="6.27474">
        <ele>264.981</ele>
        <time>2016-09-05T15:29:26.999Z</time>
      </trkpt>
      <trkpt lat="47.32132" lon="6.27474">
        <ele>264.739</ele>
        <time>2016-09-05T15:29:27.999Z</time>
      </trkpt>
      <trkpt lat="47.32132" lon="6.27474">
        <ele>263.01</ele>
        <time>2016-09-05T15:29:28.999Z</time>
      </trkpt>
      <trkpt lat="47.32132" lon="6.27474">
        <ele>265.261</ele>
        <time>2016-09-05T15:29:29.999Z</time>
      </trkpt>
      <trkpt lat="47.32133" lon="6.27473">
        <ele>266.175</ele>
        <time>2016-09-05T15:29:30.999Z</time>
      </trkpt>
      <trkpt lat="47.32134" lon="6.27473">
        <ele>265.745</ele>
        <time>2016-09-05T15:29:31.999Z</time>
      </trkpt>
      <trkpt lat="47.32134" lon="6.27472">
        <ele>265.402</ele>
        <time>2016-09-05T15:29:32.999Z</time>
      </trkpt>
      <trkpt lat="47.32134" lon="6.27472">
        <ele>265.174</ele>
        <time>2016-09-05T15:29:33.999Z</time>
      </trkpt>
      <trkpt lat="47.32135" lon="6.27472">
        <ele>264.643</ele>
        <time>2016-09-05T15:29:34.999Z</time>
      </trkpt>
      <trkpt lat="47.32135" lon="6.27472">
        <ele>264.633</ele>
        <time>2016-09-05T15:29:35.999Z</time>
      </trkpt>
      <trkpt lat="47.32135" lon="6.27472">
        <ele>264.948</ele>
        <time>2016-09-05T15:29:36.999Z</time>
      </trkpt>
      <trkpt lat="47.32135" lon="6.27472">
        <ele>264.659</ele>
        <time>2016-09-05T15:29:37.999Z</time>
      </trkpt>
      <trkpt lat="47.32135" lon="6.27472">
        <ele>264.914</ele>
        <time>2016-09-05T15:29:38.999Z</time>
      </trkpt>
      <trkpt lat="47.32135" lon="6.27472">
        <ele>265.907</ele>
        <time>2016-09-05T15:29:39.999Z</time>
      </trkpt>
      <trkpt lat="47.32136" lon="6.27471">
        <ele>264.939</ele>
        <time>2016-09-05T15:29:40.999Z</time>
      </trkpt>
      <trkpt lat="47.32136" lon="6.27471">
        <ele>265.133</ele>
        <time>2016-09-05T15:29:41.999Z</time>
      </trkpt>
      <trkpt lat="47.32136" lon="6.27471">
        <ele>264.886</ele>
        <time>2016-09-05T15:29:42.999Z</time>
      </trkpt>
      <trkpt lat="47.32136" lon="6.27471">
        <ele>265.082</ele>
        <time>2016-09-05T15:29:43.999Z</time>
      </trkpt>
      <trkpt lat="47.32136" lon="6.27471">
        <ele>264.583</ele>
        <time>2016-09-05T15:29:44.999Z</time>
      </trkpt>
      <trkpt lat="47.32136" lon="6.27471">
        <ele>267.105</ele>
        <time>2016-09-05T15:29:45.999Z</time>
      </trkpt>
      <trkpt lat="47.32136" lon="6.27471">
        <ele>268.783</ele>
        <time>2016-09-05T15:29:46.999Z</time>
      </trkpt>
      <trkpt lat="47.32136" lon="6.27471">
        <ele>269.97</ele>
        <time>2016-09-05T15:29:47.999Z</time>
      </trkpt>
      <trkpt lat="47.32136" lon="6.27471">
        <ele>267.316</ele>
        <time>2016-09-05T15:29:48.999Z</time>
      </trkpt>
      <trkpt lat="47.32137" lon="6.2747">
        <ele>265.53</ele>
        <time>2016-09-05T15:29:49.999Z</time>
      </trkpt>
      <trkpt lat="47.32137" lon="6.2747">
        <ele>262.554</ele>
        <time>2016-09-05T15:29:50.999Z</time>
      </trkpt>
      <trkpt lat="47.32137" lon="6.2747">
        <ele>262.987</ele>
        <time>2016-09-05T15:29:51.999Z</time>
      </trkpt>
      <trkpt lat="47.32137" lon="6.2747">
        <ele>261.119</ele>
        <time>2016-09-05T15:29:52.999Z</time>
      </trkpt>
      <trkpt lat="47.32137" lon="6.2747">
        <ele>259.611</ele>
        <time>2016-09-05T15:29:53.999Z</time>
      </trkpt>
      <trkpt lat="47.32137" lon="6.2747">
        <ele>258.952</ele>
        <time>2016-09-05T15:29:54.999Z</time>
      </trkpt>
      <trkpt lat="47.32137" lon="6.2747">
        <ele>259.152</ele>
        <time>2016-09-05T15:29:55.999Z</time>
      </trkpt>
      <trkpt lat="47.32137" lon="6.2747">
        <ele>259.18</ele>
        <time>2016-09-05T15:29:56.999Z</time>
      </trkpt>
      <trkpt lat="47.32137" lon="6.2747">
        <ele>259.102</ele>
        <time>2016-09-05T15:29:57.999Z</time>
      </trkpt>
      <trkpt lat="47.32137" lon="6.2747">
        <ele>258.987</ele>
        <time>2016-09-05T15:29:58.999Z</time>
      </trkpt>
      <trkpt lat="47.32137" lon="6.2747">
        <ele>259.371</ele>
        <time>2016-09-05T15:29:59.999Z</time>
      </trkpt>
      <trkpt lat="47.32137" lon="6.2747">
        <ele>259.669</ele>
        <time>2016-09-05T15:30:00.999Z</time>
      </trkpt>
      <trkpt lat="47.32137" lon="6.2747">
        <ele>260.123</ele>
        <time>2016-09-05T15:30:01.999Z</time>
      </trkpt>
      <trkpt lat="47.32137" lon="6.2747">
        <ele>260.155</ele>
        <time>2016-09-05T15:30:02.999Z</time>
      </trkpt>
      <trkpt lat="47.32137" lon="6.2747">
        <ele>259.287</ele>
        <time>2016-09-05T15:30:03.999Z</time>
      </trkpt>
      <trkpt lat="47.32137" lon="6.2747">
        <ele>259.075</ele>
        <time>2016-09-05T15:30:04.999Z</time>
      </trkpt>
      <trkpt lat="47.32137" lon="6.2747">
        <ele>260.346</ele>
        <time>2016-09-05T15:30:05.999Z</time>
      </trkpt>
      <trkpt lat="47.32137" lon="6.2747">
        <ele>260.991</ele>
        <time>2016-09-05T15:30:06.999Z</time>
      </trkpt>
      <trkpt lat="47.32137" lon="6.2747">
        <ele>261.893</ele>
        <time>2016-09-05T15:30:07.999Z</time>
      </trkpt>
      <trkpt lat="47.32137" lon="6.2747">
        <ele>261.869</ele>
        <time>2016-09-05T15:30:08.999Z</time>
      </trkpt>
      <trkpt lat="47.32137" lon="6.2747">
        <ele>262.259</ele>
        <time>2016-09-05T15:30:09.999Z</time>
      </trkpt>
      <trkpt lat="47.32139" lon="6.27471">
        <ele>262.775</ele>
        <time>2016-09-05T15:30:10.999Z</time>
      </trkpt>
      <trkpt lat="47.32139" lon="6.27471">
        <ele>262.306</ele>
        <time>2016-09-05T15:30:11.999Z</time>
      </trkpt>
      <trkpt lat="47.32139" lon="6.27471">
        <ele>262.508</ele>
        <time>2016-09-05T15:30:12.999Z</time>
      </trkpt>
      <trkpt lat="47.32138" lon="6.27471">
        <ele>262.245</ele>
        <time>2016-09-05T15:30:13.999Z</time>
      </trkpt>
      <trkpt lat="47.32137" lon="6.27471">
        <ele>263.926</ele>
        <time>2016-09-05T15:30:14.999Z</time>
      </trkpt>
      <trkpt lat="47.32137" lon="6.27471">
        <ele>264.307</ele>
        <time>2016-09-05T15:30:15.999Z</time>
      </trkpt>
      <trkpt lat="47.32137" lon="6.27471">
        <ele>264.095</ele>
        <time>2016-09-05T15:30:17.001Z</time>
      </trkpt>
      <trkpt lat="47.32137" lon="6.27471">
        <ele>264.444</ele>
        <time>2016-09-05T15:30:17.999Z</time>
      </trkpt>
      <trkpt lat="47.32136" lon="6.27471">
        <ele>264.177</ele>
        <time>2016-09-05T15:30:18.999Z</time>
      </trkpt>
      <trkpt lat="47.32136" lon="6.27471">
        <ele>264.293</ele>
        <time>2016-09-05T15:30:19.999Z</time>
      </trkpt>
      <trkpt lat="47.32136" lon="6.27471">
        <ele>264.247</ele>
        <time>2016-09-05T15:30:20.999Z</time>
      </trkpt>
      <trkpt lat="47.32136" lon="6.27471">
        <ele>264.745</ele>
        <time>2016-09-05T15:30:21.999Z</time>
      </trkpt>
      <trkpt lat="47.32136" lon="6.27471">
        <ele>265.76</ele>
        <time>2016-09-05T15:30:22.999Z</time>
      </trkpt>
      <trkpt lat="47.32136" lon="6.27471">
        <ele>265.419</ele>
        <time>2016-09-05T15:30:23.999Z</time>
      </trkpt>
      <trkpt lat="47.32136" lon="6.27471">
        <ele>265.986</ele>
        <time>2016-09-05T15:30:24.999Z</time>
      </trkpt>
      <trkpt lat="47.32136" lon="6.27471">
        <ele>265.11</ele>
        <time>2016-09-05T15:30:25.999Z</time>
      </trkpt>
      <trkpt lat="47.32136" lon="6.27471">
        <ele>265.104</ele>
        <time>2016-09-05T15:30:26.999Z</time>
      </trkpt>
      <trkpt lat="47.32136" lon="6.27471">
        <ele>265.649</ele>
        <time>2016-09-05T15:30:27.999Z</time>
      </trkpt>
      <trkpt lat="47.32134" lon="6.2747">
        <ele>265.791</ele>
        <time>2016-09-05T15:30:28.999Z</time>
      </trkpt>
      <trkpt lat="47.32134" lon="6.2747">
        <ele>266.763</ele>
        <time>2016-09-05T15:30:29.999Z</time>
      </trkpt>
      <trkpt lat="47.32134" lon="6.2747">
        <ele>265.376</ele>
        <time>2016-09-05T15:30:30.999Z</time>
      </trkpt>
      <trkpt lat="47.32135" lon="6.27469">
        <ele>265.625</ele>
        <time>2016-09-05T15:30:31.999Z</time>
      </trkpt>
      <trkpt lat="47.32135" lon="6.27469">
        <ele>265.554</ele>
        <time>2016-09-05T15:30:32.999Z</time>
      </trkpt>
      <trkpt lat="47.32136" lon="6.2747">
        <ele>265.195</ele>
        <time>2016-09-05T15:30:33.999Z</time>
      </trkpt>
      <trkpt lat="47.32137" lon="6.2747">
        <ele>264.086</ele>
        <time>2016-09-05T15:30:34.999Z</time>
      </trkpt>
      <trkpt lat="47.32138" lon="6.2747">
        <ele>262.672</ele>
        <time>2016-09-05T15:30:35.999Z</time>
      </trkpt>
      <trkpt lat="47.32139" lon="6.27471">
        <ele>261.972</ele>
        <time>2016-09-05T15:30:36.999Z</time>
      </trkpt>
      <trkpt lat="47.3214" lon="6.27473">
        <ele>262.263</ele>
        <time>2016-09-05T15:30:37.999Z</time>
      </trkpt>
      <trkpt lat="47.32141" lon="6.27474">
        <ele>262.749</ele>
        <time>2016-09-05T15:30:38.999Z</time>
      </trkpt>
      <trkpt lat="47.32143" lon="6.27476">
        <ele>263.528</ele>
        <time>2016-09-05T15:30:39.999Z</time>
      </trkpt>
      <trkpt lat="47.32145" lon="6.27477">
        <ele>262.928</ele>
        <time>2016-09-05T15:30:40.999Z</time>
      </trkpt>
      <trkpt lat="47.32146" lon="6.27478">
        <ele>263.478</ele>
        <time>2016-09-05T15:30:41.999Z</time>
      </trkpt>
      <trkpt lat="47.32149" lon="6.27478">
        <ele>263.664</ele>
        <time>2016-09-05T15:30:42.999Z</time>
      </trkpt>
      <trkpt lat="47.32152" lon="6.27478">
        <ele>263.101</ele>
        <time>2016-09-05T15:30:43.999Z</time>
      </trkpt>
      <trkpt lat="47.32155" lon="6.27478">
        <ele>263.434</ele>
        <time>2016-09-05T15:30:44.999Z</time>
      </trkpt>
      <trkpt lat="47.32158" lon="6.27478">
        <ele>263.187</ele>
        <time>2016-09-05T15:30:45.999Z</time>
      </trkpt>
      <trkpt lat="47.32161" lon="6.27479">
        <ele>263.25</ele>
        <time>2016-09-05T15:30:46.999Z</time>
      </trkpt>
      <trkpt lat="47.32164" lon="6.27479">
        <ele>262.213</ele>
        <time>2016-09-05T15:30:47.999Z</time>
      </trkpt>
      <trkpt lat="47.32166" lon="6.27481">
        <ele>260.876</ele>
        <time>2016-09-05T15:30:48.999Z</time>
      </trkpt>
      <trkpt lat="47.32168" lon="6.27484">
        <ele>260.633</ele>
        <time>2016-09-05T15:30:49.999Z</time>
      </trkpt>
      <trkpt lat="47.32169" lon="6.27489">
        <ele>260.091</ele>
        <time>2016-09-05T15:30:50.999Z</time>
      </trkpt>
      <trkpt lat="47.32169" lon="6.27494">
        <ele>262.043</ele>
        <time>2016-09-05T15:30:51.999Z</time>
      </trkpt>
      <trkpt lat="47.32168" lon="6.27497">
        <ele>264.08</ele>
        <time>2016-09-05T15:30:52.999Z</time>
      </trkpt>
      <trkpt lat="47.32165" lon="6.27499">
        <ele>262.713</ele>
        <time>2016-09-05T15:30:53.999Z</time>
      </trkpt>
      <trkpt lat="47.32162" lon="6.27499">
        <ele>263.575</ele>
        <time>2016-09-05T15:30:54.999Z</time>
      </trkpt>
      <trkpt lat="47.32159" lon="6.27498">
        <ele>263.292</ele>
        <time>2016-09-05T15:30:55.999Z</time>
      </trkpt>
      <trkpt lat="47.32157" lon="6.27497">
        <ele>262.912</ele>
        <time>2016-09-05T15:30:56.999Z</time>
      </trkpt>
      <trkpt lat="47.32155" lon="6.27496">
        <ele>262.712</ele>
        <time>2016-09-05T15:30:57.999Z</time>
      </trkpt>
      <trkpt lat="47.32154" lon="6.27496">
        <ele>259.833</ele>
        <time>2016-09-05T15:30:58.999Z</time>
      </trkpt>
      <trkpt lat="47.32153" lon="6.27497">
        <ele>257.745</ele>
        <time>2016-09-05T15:30:59.999Z</time>
      </trkpt>
      <trkpt lat="47.32152" lon="6.27497">
        <ele>258.516</ele>
        <time>2016-09-05T15:31:00.999Z</time>
      </trkpt>
      <trkpt lat="47.32151" lon="6.27498">
        <ele>259.976</ele>
        <time>2016-09-05T15:31:01.999Z</time>
      </trkpt>
      <trkpt lat="47.32149" lon="6.27499">
        <ele>260.302</ele>
        <time>2016-09-05T15:31:02.999Z</time>
      </trkpt>
      <trkpt lat="47.32148" lon="6.275">
        <ele>261.55</ele>
        <time>2016-09-05T15:31:03.999Z</time>
      </trkpt>
      <trkpt lat="47.32146" lon="6.275">
        <ele>261.534</ele>
        <time>2016-09-05T15:31:04.999Z</time>
      </trkpt>
      <trkpt lat="47.32144" lon="6.27501">
        <ele>261.735</ele>
        <time>2016-09-05T15:31:05.999Z</time>
      </trkpt>
      <trkpt lat="47.32142" lon="6.27502">
        <ele>260.962</ele>
        <time>2016-09-05T15:31:06.999Z</time>
      </trkpt>
      <trkpt lat="47.3214" lon="6.27503">
        <ele>261.926</ele>
        <time>2016-09-05T15:31:07.999Z</time>
      </trkpt>
      <trkpt lat="47.32138" lon="6.27503">
        <ele>262.063</ele>
        <time>2016-09-05T15:31:08.999Z</time>
      </trkpt>
      <trkpt lat="47.32136" lon="6.27504">
        <ele>262.969</ele>
        <time>2016-09-05T15:31:09.999Z</time>
      </trkpt>
      <trkpt lat="47.32134" lon="6.27504">
        <ele>262.398</ele>
        <time>2016-09-05T15:31:10.999Z</time>
      </trkpt>
      <trkpt lat="47.32133" lon="6.27505">
        <ele>262.323</ele>
        <time>2016-09-05T15:31:11.999Z</time>
      </trkpt>
      <trkpt lat="47.32131" lon="6.27506">
        <ele>262.683</ele>
        <time>2016-09-05T15:31:12.999Z</time>
      </trkpt>
      <trkpt lat="47.32129" lon="6.27507">
        <ele>262.735</ele>
        <time>2016-09-05T15:31:13.999Z</time>
      </trkpt>
      <trkpt lat="47.32127" lon="6.27508">
        <ele>261.16</ele>
        <time>2016-09-05T15:31:14.999Z</time>
      </trkpt>
      <trkpt lat="47.32124" lon="6.27508">
        <ele>260.987</ele>
        <time>2016-09-05T15:31:15.999Z</time>
      </trkpt>
      <trkpt lat="47.32122" lon="6.27509">
        <ele>260.724</ele>
        <time>2016-09-05T15:31:16.999Z</time>
      </trkpt>
      <trkpt lat="47.32119" lon="6.2751">
        <ele>259.992</ele>
        <time>2016-09-05T15:31:17.999Z</time>
      </trkpt>
      <trkpt lat="47.32117" lon="6.27511">
        <ele>259.709</ele>
        <time>2016-09-05T15:31:18.999Z</time>
      </trkpt>
      <trkpt lat="47.32115" lon="6.27512">
        <ele>259.261</ele>
        <time>2016-09-05T15:31:19.999Z</time>
      </trkpt>
      <trkpt lat="47.32112" lon="6.27514">
        <ele>260.527</ele>
        <time>2016-09-05T15:31:20.999Z</time>
      </trkpt>
      <trkpt lat="47.32109" lon="6.27515">
        <ele>260.13</ele>
        <time>2016-09-05T15:31:21.999Z</time>
      </trkpt>
      <trkpt lat="47.32106" lon="6.27516">
        <ele>260.814</ele>
        <time>2016-09-05T15:31:22.999Z</time>
      </trkpt>
      <trkpt lat="47.32103" lon="6.27517">
        <ele>260.828</ele>
        <time>2016-09-05T15:31:23.999Z</time>
      </trkpt>
      <trkpt lat="47.321" lon="6.27518">
        <ele>260.04</ele>
        <time>2016-09-05T15:31:24.999Z</time>
      </trkpt>
      <trkpt lat="47.32096" lon="6.27519">
        <ele>259.601</ele>
        <time>2016-09-05T15:31:25.999Z</time>
      </trkpt>
      <trkpt lat="47.32093" lon="6.2752">
        <ele>258.793</ele>
        <time>2016-09-05T15:31:26.999Z</time>
      </trkpt>
      <trkpt lat="47.3209" lon="6.27521">
        <ele>259.316</ele>
        <time>2016-09-05T15:31:27.999Z</time>
      </trkpt>
      <trkpt lat="47.32087" lon="6.27522">
        <ele>259.21</ele>
        <time>2016-09-05T15:31:28.999Z</time>
      </trkpt>
      <trkpt lat="47.32084" lon="6.27523">
        <ele>258.719</ele>
        <time>2016-09-05T15:31:29.999Z</time>
      </trkpt>
      <trkpt lat="47.32081" lon="6.27525">
        <ele>259.704</ele>
        <time>2016-09-05T15:31:30.999Z</time>
      </trkpt>
      <trkpt lat="47.32078" lon="6.27526">
        <ele>260.287</ele>
        <time>2016-09-05T15:31:31.999Z</time>
      </trkpt>
      <trkpt lat="47.32076" lon="6.27527">
        <ele>261.856</ele>
        <time>2016-09-05T15:31:32.999Z</time>
      </trkpt>
      <trkpt lat="47.32072" lon="6.27529">
        <ele>261.687</ele>
        <time>2016-09-05T15:31:33.999Z</time>
      </trkpt>
      <trkpt lat="47.32069" lon="6.2753">
        <ele>261.705</ele>
        <time>2016-09-05T15:31:34.999Z</time>
      </trkpt>
      <trkpt lat="47.32067" lon="6.27532">
        <ele>262.59</ele>
        <time>2016-09-05T15:31:35.999Z</time>
      </trkpt>
      <trkpt lat="47.32064" lon="6.27533">
        <ele>261.886</ele>
        <time>2016-09-05T15:31:36.999Z</time>
      </trkpt>
      <trkpt lat="47.32062" lon="6.27535">
        <ele>262.165</ele>
        <time>2016-09-05T15:31:37.999Z</time>
      </trkpt>
      <trkpt lat="47.32059" lon="6.27535">
        <ele>262.82</ele>
        <time>2016-09-05T15:31:38.999Z</time>
      </trkpt>
      <trkpt lat="47.32057" lon="6.27536">
        <ele>262.758</ele>
        <time>2016-09-05T15:31:39.999Z</time>
      </trkpt>
      <trkpt lat="47.32054" lon="6.27537">
        <ele>262.878</ele>
        <time>2016-09-05T15:31:40.999Z</time>
      </trkpt>
      <trkpt lat="47.32051" lon="6.27538">
        <ele>261.966</ele>
        <time>2016-09-05T15:31:41.999Z</time>
      </trkpt>
      <trkpt lat="47.32048" lon="6.27539">
        <ele>261.662</ele>
        <time>2016-09-05T15:31:42.999Z</time>
      </trkpt>
      <trkpt lat="47.32045" lon="6.27541">
        <ele>261.174</ele>
        <time>2016-09-05T15:31:43.999Z</time>
      </trkpt>
      <trkpt lat="47.32042" lon="6.27542">
        <ele>260.557</ele>
        <time>2016-09-05T15:31:44.999Z</time>
      </trkpt>
      <trkpt lat="47.32038" lon="6.27544">
        <ele>258.995</ele>
        <time>2016-09-05T15:31:45.999Z</time>
      </trkpt>
      <trkpt lat="47.32033" lon="6.27548">
        <ele>258.487</ele>
        <time>2016-09-05T15:31:46.999Z</time>
      </trkpt>
      <trkpt lat="47.32028" lon="6.27549">
        <ele>258.127</ele>
        <time>2016-09-05T15:31:47.999Z</time>
      </trkpt>
      <trkpt lat="47.32025" lon="6.27552">
        <ele>255.991</ele>
        <time>2016-09-05T15:31:48.999Z</time>
      </trkpt>
      <trkpt lat="47.32022" lon="6.27553">
        <ele>252.918</ele>
        <time>2016-09-05T15:31:49.999Z</time>
      </trkpt>
      <trkpt lat="47.32018" lon="6.27553">
        <ele>253.117</ele>
        <time>2016-09-05T15:31:50.999Z</time>
      </trkpt>
      <trkpt lat="47.32014" lon="6.27551">
        <ele>254.307</ele>
        <time>2016-09-05T15:31:51.999Z</time>
      </trkpt>
      <trkpt lat="47.3201" lon="6.2755">
        <ele>253.064</ele>
        <time>2016-09-05T15:31:52.999Z</time>
      </trkpt>
      <trkpt lat="47.32007" lon="6.27548">
        <ele>253.636</ele>
        <time>2016-09-05T15:31:53.999Z</time>
      </trkpt>
      <trkpt lat="47.32003" lon="6.27544">
        <ele>254.086</ele>
        <time>2016-09-05T15:31:54.999Z</time>
      </trkpt>
      <trkpt lat="47.31999" lon="6.27541">
        <ele>254.1</ele>
        <time>2016-09-05T15:31:55.999Z</time>
      </trkpt>
      <trkpt lat="47.31997" lon="6.27537">
        <ele>254.905</ele>
        <time>2016-09-05T15:31:56.999Z</time>
      </trkpt>
      <trkpt lat="47.31994" lon="6.27533">
        <ele>255.377</ele>
        <time>2016-09-05T15:31:57.999Z</time>
      </trkpt>
      <trkpt lat="47.31992" lon="6.27529">
        <ele>256.092</ele>
        <time>2016-09-05T15:31:58.999Z</time>
      </trkpt>
      <trkpt lat="47.31989" lon="6.27525">
        <ele>255.449</ele>
        <time>2016-09-05T15:31:59.999Z</time>
      </trkpt>
      <trkpt lat="47.31987" lon="6.2752">
        <ele>256.112</ele>
        <time>2016-09-05T15:32:00.999Z</time>
      </trkpt>
      <trkpt lat="47.31985" lon="6.27515">
        <ele>256.422</ele>
        <time>2016-09-05T15:32:01.999Z</time>
      </trkpt>
      <trkpt lat="47.31983" lon="6.2751">
        <ele>256.35</ele>
        <time>2016-09-05T15:32:02.999Z</time>
      </trkpt>
      <trkpt lat="47.31983" lon="6.27505">
        <ele>256.038</ele>
        <time>2016-09-05T15:32:03.999Z</time>
      </trkpt>
      <trkpt lat="47.31982" lon="6.27499">
        <ele>256.054</ele>
        <time>2016-09-05T15:32:04.999Z</time>
      </trkpt>
      <trkpt lat="47.31981" lon="6.27494">
        <ele>256.168</ele>
        <time>2016-09-05T15:32:05.999Z</time>
      </trkpt>
      <trkpt lat="47.31981" lon="6.27489">
        <ele>256.4</ele>
        <time>2016-09-05T15:32:06.999Z</time>
      </trkpt>
      <trkpt lat="47.3198" lon="6.27483">
        <ele>256.787</ele>
        <time>2016-09-05T15:32:07.999Z</time>
      </trkpt>
      <trkpt lat="47.31979" lon="6.27477">
        <ele>259.205</ele>
        <time>2016-09-05T15:32:08.999Z</time>
      </trkpt>
      <trkpt lat="47.31979" lon="6.27471">
        <ele>260.142</ele>
        <time>2016-09-05T15:32:09.999Z</time>
      </trkpt>
      <trkpt lat="47.31978" lon="6.27465">
        <ele>260.947</ele>
        <time>2016-09-05T15:32:10.999Z</time>
      </trkpt>
      <trkpt lat="47.31978" lon="6.27459">
        <ele>261.832</ele>
        <time>2016-09-05T15:32:11.999Z</time>
      </trkpt>
      <trkpt lat="47.31978" lon="6.27453">
        <ele>263.763</ele>
        <time>2016-09-05T15:32:12.999Z</time>
      </trkpt>
      <trkpt lat="47.31979" lon="6.27447">
        <ele>264.41</ele>
        <time>2016-09-05T15:32:13.999Z</time>
      </trkpt>
      <trkpt lat="47.31979" lon="6.27442">
        <ele>265.127</ele>
        <time>2016-09-05T15:32:14.999Z</time>
      </trkpt>
      <trkpt lat="47.31979" lon="6.27436">
        <ele>264.79</ele>
        <time>2016-09-05T15:32:15.999Z</time>
      </trkpt>
      <trkpt lat="47.31979" lon="6.27431">
        <ele>264.798</ele>
        <time>2016-09-05T15:32:16.999Z</time>
      </trkpt>
      <trkpt lat="47.31978" lon="6.27426">
        <ele>265.726</ele>
        <time>2016-09-05T15:32:17.999Z</time>
      </trkpt>
      <trkpt lat="47.31978" lon="6.27421">
        <ele>265.354</ele>
        <time>2016-09-05T15:32:18.999Z</time>
      </trkpt>
      <trkpt lat="47.31978" lon="6.27416">
        <ele>265.794</ele>
        <time>2016-09-05T15:32:19.999Z</time>
      </trkpt>
      <trkpt lat="47.31977" lon="6.2741">
        <ele>266.913</ele>
        <time>2016-09-05T15:32:20.999Z</time>
      </trkpt>
      <trkpt lat="47.31977" lon="6.27405">
        <ele>264.612</ele>
        <time>2016-09-05T15:32:21.999Z</time>
      </trkpt>
      <trkpt lat="47.31976" lon="6.274">
        <ele>264.024</ele>
        <time>2016-09-05T15:32:22.999Z</time>
      </trkpt>
      <trkpt lat="47.31976" lon="6.27395">
        <ele>264.205</ele>
        <time>2016-09-05T15:32:23.999Z</time>
      </trkpt>
      <trkpt lat="47.31975" lon="6.2739">
        <ele>264.695</ele>
        <time>2016-09-05T15:32:24.999Z</time>
      </trkpt>
      <trkpt lat="47.31975" lon="6.27384">
        <ele>265.111</ele>
        <time>2016-09-05T15:32:25.999Z</time>
      </trkpt>
      <trkpt lat="47.31975" lon="6.27378">
        <ele>265.735</ele>
        <time>2016-09-05T15:32:26.999Z</time>
      </trkpt>
      <trkpt lat="47.31974" lon="6.27373">
        <ele>266.369</ele>
        <time>2016-09-05T15:32:27.999Z</time>
      </trkpt>
      <trkpt lat="47.31975" lon="6.27367">
        <ele>265.283</ele>
        <time>2016-09-05T15:32:28.999Z</time>
      </trkpt>
      <trkpt lat="47.31974" lon="6.27361">
        <ele>265.838</ele>
        <time>2016-09-05T15:32:29.999Z</time>
      </trkpt>
      <trkpt lat="47.31973" lon="6.27356">
        <ele>266.072</ele>
        <time>2016-09-05T15:32:30.999Z</time>
      </trkpt>
      <trkpt lat="47.31972" lon="6.27352">
        <ele>266.531</ele>
        <time>2016-09-05T15:32:31.999Z</time>
      </trkpt>
      <trkpt lat="47.31971" lon="6.27348">
        <ele>265.671</ele>
        <time>2016-09-05T15:32:32.999Z</time>
      </trkpt>
      <trkpt lat="47.3197" lon="6.27343">
        <ele>265.016</ele>
        <time>2016-09-05T15:32:33.999Z</time>
      </trkpt>
      <trkpt lat="47.31969" lon="6.27338">
        <ele>265.511</ele>
        <time>2016-09-05T15:32:34.999Z</time>
      </trkpt>
      <trkpt lat="47.31969" lon="6.27333">
        <ele>267.943</ele>
        <time>2016-09-05T15:32:35.999Z</time>
      </trkpt>
      <trkpt lat="47.31969" lon="6.27328">
        <ele>267.202</ele>
        <time>2016-09-05T15:32:36.999Z</time>
      </trkpt>
      <trkpt lat="47.31968" lon="6.27322">
        <ele>267.496</ele>
        <time>2016-09-05T15:32:37.999Z</time>
      </trkpt>
      <trkpt lat="47.31968" lon="6.27317">
        <ele>266.057</ele>
        <time>2016-09-05T15:32:38.999Z</time>
      </trkpt>
      <trkpt lat="47.31967" lon="6.27311">
        <ele>265.993</ele>
        <time>2016-09-05T15:32:39.999Z</time>
      </trkpt>
      <trkpt lat="47.31967" lon="6.27305">
        <ele>265.878</ele>
        <time>2016-09-05T15:32:40.999Z</time>
      </trkpt>
      <trkpt lat="47.31967" lon="6.273">
        <ele>265.782</ele>
        <time>2016-09-05T15:32:41.999Z</time>
      </trkpt>
      <trkpt lat="47.31966" lon="6.27294">
        <ele>264.494</ele>
        <time>2016-09-05T15:32:42.999Z</time>
      </trkpt>
      <trkpt lat="47.31966" lon="6.27287">
        <ele>264.143</ele>
        <time>2016-09-05T15:32:43.999Z</time>
      </trkpt>
      <trkpt lat="47.31967" lon="6.27282">
        <ele>264.791</ele>
        <time>2016-09-05T15:32:44.999Z</time>
      </trkpt>
      <trkpt lat="47.31967" lon="6.27276">
        <ele>263.989</ele>
        <time>2016-09-05T15:32:45.999Z</time>
      </trkpt>
      <trkpt lat="47.31967" lon="6.2727">
        <ele>264.172</ele>
        <time>2016-09-05T15:32:46.999Z</time>
      </trkpt>
      <trkpt lat="47.31967" lon="6.27265">
        <ele>264.447</ele>
        <time>2016-09-05T15:32:47.999Z</time>
      </trkpt>
      <trkpt lat="47.31967" lon="6.27259">
        <ele>264.76</ele>
        <time>2016-09-05T15:32:48.999Z</time>
      </trkpt>
      <trkpt lat="47.31966" lon="6.27253">
        <ele>265.288</ele>
        <time>2016-09-05T15:32:49.999Z</time>
      </trkpt>
      <trkpt lat="47.31966" lon="6.27246">
        <ele>265.619</ele>
        <time>2016-09-05T15:32:50.999Z</time>
      </trkpt>
      <trkpt lat="47.31966" lon="6.2724">
        <ele>264.633</ele>
        <time>2016-09-05T15:32:51.999Z</time>
      </trkpt>
      <trkpt lat="47.31965" lon="6.27234">
        <ele>264.637</ele>
        <time>2016-09-05T15:32:52.999Z</time>
      </trkpt>
      <trkpt lat="47.31964" lon="6.27228">
        <ele>264.441</ele>
        <time>2016-09-05T15:32:53.999Z</time>
      </trkpt>
      <trkpt lat="47.31964" lon="6.27222">
        <ele>265.205</ele>
        <time>2016-09-05T15:32:54.999Z</time>
      </trkpt>
      <trkpt lat="47.31963" lon="6.27216">
        <ele>264.902</ele>
        <time>2016-09-05T15:32:55.999Z</time>
      </trkpt>
      <trkpt lat="47.31963" lon="6.2721">
        <ele>265.65</ele>
        <time>2016-09-05T15:32:57.005Z</time>
      </trkpt>
      <trkpt lat="47.31962" lon="6.27204">
        <ele>265.663</ele>
        <time>2016-09-05T15:32:58.001Z</time>
      </trkpt>
      <trkpt lat="47.3196" lon="6.27199">
        <ele>266.036</ele>
        <time>2016-09-05T15:32:59.000Z</time>
      </trkpt>
      <trkpt lat="47.31958" lon="6.27193">
        <ele>264.634</ele>
        <time>2016-09-05T15:33:00.000Z</time>
      </trkpt>
      <trkpt lat="47.31957" lon="6.27188">
        <ele>265.53</ele>
        <time>2016-09-05T15:33:01.000Z</time>
      </trkpt>
      <trkpt lat="47.31955" lon="6.27182">
        <ele>264.916</ele>
        <time>2016-09-05T15:33:02.000Z</time>
      </trkpt>
      <trkpt lat="47.31953" lon="6.27177">
        <ele>264.405</ele>
        <time>2016-09-05T15:33:03.000Z</time>
      </trkpt>
      <trkpt lat="47.31951" lon="6.27171">
        <ele>264.834</ele>
        <time>2016-09-05T15:33:04.000Z</time>
      </trkpt>
      <trkpt lat="47.3195" lon="6.27166">
        <ele>265.1</ele>
        <time>2016-09-05T15:33:05.000Z</time>
      </trkpt>
      <trkpt lat="47.31948" lon="6.2716">
        <ele>264.945</ele>
        <time>2016-09-05T15:33:06.000Z</time>
      </trkpt>
      <trkpt lat="47.31946" lon="6.27154">
        <ele>265.185</ele>
        <time>2016-09-05T15:33:07.000Z</time>
      </trkpt>
      <trkpt lat="47.31945" lon="6.27149">
        <ele>264.587</ele>
        <time>2016-09-05T15:33:08.000Z</time>
      </trkpt>
      <trkpt lat="47.31943" lon="6.27143">
        <ele>264.822</ele>
        <time>2016-09-05T15:33:09.000Z</time>
      </trkpt>
      <trkpt lat="47.31941" lon="6.27138">
        <ele>265.182</ele>
        <time>2016-09-05T15:33:10.000Z</time>
      </trkpt>
      <trkpt lat="47.31939" lon="6.27132">
        <ele>264.637</ele>
        <time>2016-09-05T15:33:11.000Z</time>
      </trkpt>
      <trkpt lat="47.31938" lon="6.27127">
        <ele>264.391</ele>
        <time>2016-09-05T15:33:12.000Z</time>
      </trkpt>
      <trkpt lat="47.31936" lon="6.27121">
        <ele>264.71</ele>
        <time>2016-09-05T15:33:13.000Z</time>
      </trkpt>
      <trkpt lat="47.31935" lon="6.27115">
        <ele>265.006</ele>
        <time>2016-09-05T15:33:14.000Z</time>
      </trkpt>
      <trkpt lat="47.31933" lon="6.2711">
        <ele>264.236</ele>
        <time>2016-09-05T15:33:15.000Z</time>
      </trkpt>
      <trkpt lat="47.31932" lon="6.27105">
        <ele>263.593</ele>
        <time>2016-09-05T15:33:16.000Z</time>
      </trkpt>
      <trkpt lat="47.3193" lon="6.27099">
        <ele>263.878</ele>
        <time>2016-09-05T15:33:17.000Z</time>
      </trkpt>
      <trkpt lat="47.31929" lon="6.27094">
        <ele>263.352</ele>
        <time>2016-09-05T15:33:18.000Z</time>
      </trkpt>
      <trkpt lat="47.31927" lon="6.27088">
        <ele>263.356</ele>
        <time>2016-09-05T15:33:19.000Z</time>
      </trkpt>
      <trkpt lat="47.31926" lon="6.27083">
        <ele>263.701</ele>
        <time>2016-09-05T15:33:20.000Z</time>
      </trkpt>
      <trkpt lat="47.31925" lon="6.27077">
        <ele>263.572</ele>
        <time>2016-09-05T15:33:21.000Z</time>
      </trkpt>
      <trkpt lat="47.31923" lon="6.27071">
        <ele>264.138</ele>
        <time>2016-09-05T15:33:22.000Z</time>
      </trkpt>
      <trkpt lat="47.31922" lon="6.27066">
        <ele>264.607</ele>
        <time>2016-09-05T15:33:23.000Z</time>
      </trkpt>
      <trkpt lat="47.31922" lon="6.2706">
        <ele>262.749</ele>
        <time>2016-09-05T15:33:24.000Z</time>
      </trkpt>
      <trkpt lat="47.3192" lon="6.27054">
        <ele>261.773</ele>
        <time>2016-09-05T15:33:25.000Z</time>
      </trkpt>
      <trkpt lat="47.31919" lon="6.27048">
        <ele>261.84</ele>
        <time>2016-09-05T15:33:26.000Z</time>
      </trkpt>
      <trkpt lat="47.31917" lon="6.27042">
        <ele>262.267</ele>
        <time>2016-09-05T15:33:27.000Z</time>
      </trkpt>
      <trkpt lat="47.31916" lon="6.27036">
        <ele>262.065</ele>
        <time>2016-09-05T15:33:28.000Z</time>
      </trkpt>
      <trkpt lat="47.31915" lon="6.27031">
        <ele>262.415</ele>
        <time>2016-09-05T15:33:29.000Z</time>
      </trkpt>
      <trkpt lat="47.31913" lon="6.27025">
        <ele>262.115</ele>
        <time>2016-09-05T15:33:30.000Z</time>
      </trkpt>
      <trkpt lat="47.31911" lon="6.27019">
        <ele>262.588</ele>
        <time>2016-09-05T15:33:31.000Z</time>
      </trkpt>
      <trkpt lat="47.31909" lon="6.27014">
        <ele>262.797</ele>
        <time>2016-09-05T15:33:32.000Z</time>
      </trkpt>
      <trkpt lat="47.31907" lon="6.27008">
        <ele>262.302</ele>
        <time>2016-09-05T15:33:33.000Z</time>
      </trkpt>
      <trkpt lat="47.31905" lon="6.27003">
        <ele>262.506</ele>
        <time>2016-09-05T15:33:34.000Z</time>
      </trkpt>
      <trkpt lat="47.31904" lon="6.26997">
        <ele>263.418</ele>
        <time>2016-09-05T15:33:35.000Z</time>
      </trkpt>
      <trkpt lat="47.31902" lon="6.26991">
        <ele>261.722</ele>
        <time>2016-09-05T15:33:36.000Z</time>
      </trkpt>
      <trkpt lat="47.31901" lon="6.26986">
        <ele>261.405</ele>
        <time>2016-09-05T15:33:37.000Z</time>
      </trkpt>
      <trkpt lat="47.31899" lon="6.2698">
        <ele>259.859</ele>
        <time>2016-09-05T15:33:38.000Z</time>
      </trkpt>
      <trkpt lat="47.31897" lon="6.26975">
        <ele>259.879</ele>
        <time>2016-09-05T15:33:39.000Z</time>
      </trkpt>
      <trkpt lat="47.31895" lon="6.2697">
        <ele>260.313</ele>
        <time>2016-09-05T15:33:40.000Z</time>
      </trkpt>
      <trkpt lat="47.31894" lon="6.26965">
        <ele>260.321</ele>
        <time>2016-09-05T15:33:41.000Z</time>
      </trkpt>
      <trkpt lat="47.31893" lon="6.26959">
        <ele>260.433</ele>
        <time>2016-09-05T15:33:42.000Z</time>
      </trkpt>
      <trkpt lat="47.31891" lon="6.26953">
        <ele>260.684</ele>
        <time>2016-09-05T15:33:43.000Z</time>
      </trkpt>
      <trkpt lat="47.31889" lon="6.26947">
        <ele>261.046</ele>
        <time>2016-09-05T15:33:44.000Z</time>
      </trkpt>
      <trkpt lat="47.31887" lon="6.26941">
        <ele>259.988</ele>
        <time>2016-09-05T15:33:45.000Z</time>
      </trkpt>
      <trkpt lat="47.31886" lon="6.26936">
        <ele>260.595</ele>
        <time>2016-09-05T15:33:46.000Z</time>
      </trkpt>
      <trkpt lat="47.31884" lon="6.2693">
        <ele>259.852</ele>
        <time>2016-09-05T15:33:47.000Z</time>
      </trkpt>
      <trkpt lat="47.31882" lon="6.26924">
        <ele>259.059</ele>
        <time>2016-09-05T15:33:48.000Z</time>
      </trkpt>
      <trkpt lat="47.31881" lon="6.26918">
        <ele>259.779</ele>
        <time>2016-09-05T15:33:49.000Z</time>
      </trkpt>
      <trkpt lat="47.31879" lon="6.26912">
        <ele>260.078</ele>
        <time>2016-09-05T15:33:50.000Z</time>
      </trkpt>
      <trkpt lat="47.31876" lon="6.26905">
        <ele>258.837</ele>
        <time>2016-09-05T15:33:51.000Z</time>
      </trkpt>
      <trkpt lat="47.31874" lon="6.26899">
        <ele>258.715</ele>
        <time>2016-09-05T15:33:52.000Z</time>
      </trkpt>
      <trkpt lat="47.31872" lon="6.26893">
        <ele>258.809</ele>
        <time>2016-09-05T15:33:53.000Z</time>
      </trkpt>
      <trkpt lat="47.31871" lon="6.26887">
        <ele>258.355</ele>
        <time>2016-09-05T15:33:54.000Z</time>
      </trkpt>
      <trkpt lat="47.31869" lon="6.26882">
        <ele>259.217</ele>
        <time>2016-09-05T15:33:55.000Z</time>
      </trkpt>
      <trkpt lat="47.31867" lon="6.26875">
        <ele>258.406</ele>
        <time>2016-09-05T15:33:56.000Z</time>
      </trkpt>
      <trkpt lat="47.31865" lon="6.26871">
        <ele>259.159</ele>
        <time>2016-09-05T15:33:57.000Z</time>
      </trkpt>
      <trkpt lat="47.31863" lon="6.26865">
        <ele>259.56</ele>
        <time>2016-09-05T15:33:58.000Z</time>
      </trkpt>
      <trkpt lat="47.31862" lon="6.26858">
        <ele>258.505</ele>
        <time>2016-09-05T15:33:59.000Z</time>
      </trkpt>
      <trkpt lat="47.3186" lon="6.26853">
        <ele>258.892</ele>
        <time>2016-09-05T15:34:00.000Z</time>
      </trkpt>
      <trkpt lat="47.31857" lon="6.26848">
        <ele>257.736</ele>
        <time>2016-09-05T15:34:01.000Z</time>
      </trkpt>
      <trkpt lat="47.31855" lon="6.26842">
        <ele>257.734</ele>
        <time>2016-09-05T15:34:02.000Z</time>
      </trkpt>
      <trkpt lat="47.31853" lon="6.26837">
        <ele>259.225</ele>
        <time>2016-09-05T15:34:03.000Z</time>
      </trkpt>
      <trkpt lat="47.31851" lon="6.26831">
        <ele>259.621</ele>
        <time>2016-09-05T15:34:04.000Z</time>
      </trkpt>
      <trkpt lat="47.31849" lon="6.26824">
        <ele>259.855</ele>
        <time>2016-09-05T15:34:05.000Z</time>
      </trkpt>
      <trkpt lat="47.31847" lon="6.26818">
        <ele>259.738</ele>
        <time>2016-09-05T15:34:06.000Z</time>
      </trkpt>
      <trkpt lat="47.31846" lon="6.26813">
        <ele>259.791</ele>
        <time>2016-09-05T15:34:07.000Z</time>
      </trkpt>
      <trkpt lat="47.31844" lon="6.26806">
        <ele>259.039</ele>
        <time>2016-09-05T15:34:08.000Z</time>
      </trkpt>
      <trkpt lat="47.31842" lon="6.268">
        <ele>259.384</ele>
        <time>2016-09-05T15:34:09.000Z</time>
      </trkpt>
      <trkpt lat="47.3184" lon="6.26794">
        <ele>258.932</ele>
        <time>2016-09-05T15:34:10.000Z</time>
      </trkpt>
      <trkpt lat="47.31838" lon="6.26788">
        <ele>259.33</ele>
        <time>2016-09-05T15:34:11.000Z</time>
      </trkpt>
      <trkpt lat="47.31836" lon="6.26782">
        <ele>259.348</ele>
        <time>2016-09-05T15:34:12.000Z</time>
      </trkpt>
      <trkpt lat="47.31834" lon="6.26775">
        <ele>259.77</ele>
        <time>2016-09-05T15:34:13.000Z</time>
      </trkpt>
      <trkpt lat="47.31831" lon="6.26769">
        <ele>258.991</ele>
        <time>2016-09-05T15:34:14.000Z</time>
      </trkpt>
      <trkpt lat="47.31829" lon="6.26763">
        <ele>258.69</ele>
        <time>2016-09-05T15:34:15.000Z</time>
      </trkpt>
      <trkpt lat="47.31826" lon="6.26757">
        <ele>258.558</ele>
        <time>2016-09-05T15:34:16.000Z</time>
      </trkpt>
      <trkpt lat="47.31823" lon="6.26751">
        <ele>258.809</ele>
        <time>2016-09-05T15:34:17.000Z</time>
      </trkpt>
      <trkpt lat="47.3182" lon="6.26745">
        <ele>258.764</ele>
        <time>2016-09-05T15:34:18.000Z</time>
      </trkpt>
      <trkpt lat="47.31817" lon="6.2674">
        <ele>259.534</ele>
        <time>2016-09-05T15:34:19.000Z</time>
      </trkpt>
      <trkpt lat="47.31814" lon="6.26734">
        <ele>259.333</ele>
        <time>2016-09-05T15:34:20.000Z</time>
      </trkpt>
      <trkpt lat="47.31811" lon="6.26729">
        <ele>259.302</ele>
        <time>2016-09-05T15:34:21.000Z</time>
      </trkpt>
      <trkpt lat="47.31808" lon="6.26725">
        <ele>260.044</ele>
        <time>2016-09-05T15:34:22.000Z</time>
      </trkpt>
      <trkpt lat="47.31805" lon="6.26719">
        <ele>259.781</ele>
        <time>2016-09-05T15:34:23.000Z</time>
      </trkpt>
      <trkpt lat="47.31802" lon="6.26715">
        <ele>258.901</ele>
        <time>2016-09-05T15:34:24.000Z</time>
      </trkpt>
      <trkpt lat="47.31799" lon="6.2671">
        <ele>258.675</ele>
        <time>2016-09-05T15:34:25.000Z</time>
      </trkpt>
      <trkpt lat="47.31796" lon="6.26704">
        <ele>258.68</ele>
        <time>2016-09-05T15:34:26.000Z</time>
      </trkpt>
      <trkpt lat="47.31793" lon="6.267">
        <ele>258.481</ele>
        <time>2016-09-05T15:34:27.000Z</time>
      </trkpt>
      <trkpt lat="47.31789" lon="6.26695">
        <ele>259.138</ele>
        <time>2016-09-05T15:34:28.000Z</time>
      </trkpt>
      <trkpt lat="47.31786" lon="6.26691">
        <ele>258.895</ele>
        <time>2016-09-05T15:34:29.000Z</time>
      </trkpt>
      <trkpt lat="47.31783" lon="6.26687">
        <ele>258.871</ele>
        <time>2016-09-05T15:34:30.000Z</time>
      </trkpt>
      <trkpt lat="47.3178" lon="6.26683">
        <ele>259.383</ele>
        <time>2016-09-05T15:34:31.000Z</time>
      </trkpt>
      <trkpt lat="47.31777" lon="6.26679">
        <ele>260.037</ele>
        <time>2016-09-05T15:34:32.000Z</time>
      </trkpt>
      <trkpt lat="47.31773" lon="6.26675">
        <ele>259.455</ele>
        <time>2016-09-05T15:34:33.000Z</time>
      </trkpt>
      <trkpt lat="47.3177" lon="6.26671">
        <ele>259.944</ele>
        <time>2016-09-05T15:34:34.000Z</time>
      </trkpt>
      <trkpt lat="47.31767" lon="6.26668">
        <ele>260.362</ele>
        <time>2016-09-05T15:34:35.000Z</time>
      </trkpt>
      <trkpt lat="47.31763" lon="6.26664">
        <ele>260.614</ele>
        <time>2016-09-05T15:34:36.000Z</time>
      </trkpt>
      <trkpt lat="47.31761" lon="6.26661">
        <ele>260.706</ele>
        <time>2016-09-05T15:34:37.000Z</time>
      </trkpt>
      <trkpt lat="47.31758" lon="6.26658">
        <ele>260.793</ele>
        <time>2016-09-05T15:34:38.000Z</time>
      </trkpt>
      <trkpt lat="47.31755" lon="6.26655">
        <ele>260.548</ele>
        <time>2016-09-05T15:34:39.000Z</time>
      </trkpt>
      <trkpt lat="47.31753" lon="6.26651">
        <ele>260.513</ele>
        <time>2016-09-05T15:34:40.000Z</time>
      </trkpt>
      <trkpt lat="47.3175" lon="6.26648">
        <ele>260.583</ele>
        <time>2016-09-05T15:34:41.000Z</time>
      </trkpt>
      <trkpt lat="47.31747" lon="6.26644">
        <ele>260.19</ele>
        <time>2016-09-05T15:34:42.000Z</time>
      </trkpt>
      <trkpt lat="47.31744" lon="6.2664">
        <ele>260.305</ele>
        <time>2016-09-05T15:34:43.000Z</time>
      </trkpt>
      <trkpt lat="47.31741" lon="6.26637">
        <ele>260.242</ele>
        <time>2016-09-05T15:34:44.000Z</time>
      </trkpt>
      <trkpt lat="47.31738" lon="6.26634">
        <ele>260.104</ele>
        <time>2016-09-05T15:34:45.000Z</time>
      </trkpt>
      <trkpt lat="47.31734" lon="6.2663">
        <ele>260.422</ele>
        <time>2016-09-05T15:34:46.000Z</time>
      </trkpt>
      <trkpt lat="47.31731" lon="6.26626">
        <ele>260.399</ele>
        <time>2016-09-05T15:34:47.000Z</time>
      </trkpt>
      <trkpt lat="47.31727" lon="6.26622">
        <ele>260.471</ele>
        <time>2016-09-05T15:34:48.000Z</time>
      </trkpt>
      <trkpt lat="47.31723" lon="6.26621">
        <ele>257.852</ele>
        <time>2016-09-05T15:34:49.000Z</time>
      </trkpt>
      <trkpt lat="47.31719" lon="6.26617">
        <ele>257.905</ele>
        <time>2016-09-05T15:34:50.000Z</time>
      </trkpt>
      <trkpt lat="47.31716" lon="6.26613">
        <ele>257.981</ele>
        <time>2016-09-05T15:34:51.000Z</time>
      </trkpt>
      <trkpt lat="47.31712" lon="6.26609">
        <ele>258.206</ele>
        <time>2016-09-05T15:34:52.000Z</time>
      </trkpt>
      <trkpt lat="47.31708" lon="6.26605">
        <ele>258.317</ele>
        <time>2016-09-05T15:34:53.000Z</time>
      </trkpt>
      <trkpt lat="47.31704" lon="6.26602">
        <ele>258.862</ele>
        <time>2016-09-05T15:34:54.000Z</time>
      </trkpt>
      <trkpt lat="47.317" lon="6.26598">
        <ele>258.101</ele>
        <time>2016-09-05T15:34:55.000Z</time>
      </trkpt>
      <trkpt lat="47.31696" lon="6.26596">
        <ele>258.449</ele>
        <time>2016-09-05T15:34:56.000Z</time>
      </trkpt>
      <trkpt lat="47.31692" lon="6.26592">
        <ele>258.431</ele>
        <time>2016-09-05T15:34:57.000Z</time>
      </trkpt>
      <trkpt lat="47.31687" lon="6.26589">
        <ele>258.324</ele>
        <time>2016-09-05T15:34:58.000Z</time>
      </trkpt>
      <trkpt lat="47.31684" lon="6.26586">
        <ele>257.793</ele>
        <time>2016-09-05T15:34:59.000Z</time>
      </trkpt>
      <trkpt lat="47.3168" lon="6.26583">
        <ele>257.641</ele>
        <time>2016-09-05T15:35:00.000Z</time>
      </trkpt>
      <trkpt lat="47.31676" lon="6.26581">
        <ele>258.012</ele>
        <time>2016-09-05T15:35:01.000Z</time>
      </trkpt>
      <trkpt lat="47.31672" lon="6.26578">
        <ele>258.004</ele>
        <time>2016-09-05T15:35:02.000Z</time>
      </trkpt>
      <trkpt lat="47.31669" lon="6.26575">
        <ele>258.384</ele>
        <time>2016-09-05T15:35:03.000Z</time>
      </trkpt>
      <trkpt lat="47.31665" lon="6.2657">
        <ele>258.67</ele>
        <time>2016-09-05T15:35:04.000Z</time>
      </trkpt>
      <trkpt lat="47.31662" lon="6.26568">
        <ele>258.878</ele>
        <time>2016-09-05T15:35:05.000Z</time>
      </trkpt>
      <trkpt lat="47.31659" lon="6.26566">
        <ele>259.325</ele>
        <time>2016-09-05T15:35:06.000Z</time>
      </trkpt>
      <trkpt lat="47.31656" lon="6.26563">
        <ele>260.548</ele>
        <time>2016-09-05T15:35:07.000Z</time>
      </trkpt>
      <trkpt lat="47.31653" lon="6.2656">
        <ele>260.697</ele>
        <time>2016-09-05T15:35:08.000Z</time>
      </trkpt>
      <trkpt lat="47.31649" lon="6.26558">
        <ele>261.129</ele>
        <time>2016-09-05T15:35:09.000Z</time>
      </trkpt>
      <trkpt lat="47.31646" lon="6.26557">
        <ele>260.571</ele>
        <time>2016-09-05T15:35:10.000Z</time>
      </trkpt>
      <trkpt lat="47.31643" lon="6.26554">
        <ele>260.739</ele>
        <time>2016-09-05T15:35:11.000Z</time>
      </trkpt>
      <trkpt lat="47.3164" lon="6.26552">
        <ele>260.958</ele>
        <time>2016-09-05T15:35:12.000Z</time>
      </trkpt>
      <trkpt lat="47.31636" lon="6.26548">
        <ele>261.133</ele>
        <time>2016-09-05T15:35:13.000Z</time>
      </trkpt>
      <trkpt lat="47.31633" lon="6.26543">
        <ele>259.953</ele>
        <time>2016-09-05T15:35:14.000Z</time>
      </trkpt>
      <trkpt lat="47.3163" lon="6.26541">
        <ele>259.666</ele>
        <time>2016-09-05T15:35:15.000Z</time>
      </trkpt>
      <trkpt lat="47.31626" lon="6.26539">
        <ele>259.426</ele>
        <time>2016-09-05T15:35:16.000Z</time>
      </trkpt>
      <trkpt lat="47.31623" lon="6.26536">
        <ele>259.439</ele>
        <time>2016-09-05T15:35:17.000Z</time>
      </trkpt>
      <trkpt lat="47.31619" lon="6.26534">
        <ele>259.558</ele>
        <time>2016-09-05T15:35:18.000Z</time>
      </trkpt>
      <trkpt lat="47.31616" lon="6.26531">
        <ele>259.688</ele>
        <time>2016-09-05T15:35:19.000Z</time>
      </trkpt>
      <trkpt lat="47.31612" lon="6.26528">
        <ele>259.777</ele>
        <time>2016-09-05T15:35:20.000Z</time>
      </trkpt>
      <trkpt lat="47.31608" lon="6.26525">
        <ele>259.226</ele>
        <time>2016-09-05T15:35:21.000Z</time>
      </trkpt>
      <trkpt lat="47.31605" lon="6.26522">
        <ele>258.226</ele>
        <time>2016-09-05T15:35:22.000Z</time>
      </trkpt>
      <trkpt lat="47.31602" lon="6.26518">
        <ele>258.075</ele>
        <time>2016-09-05T15:35:23.000Z</time>
      </trkpt>
      <trkpt lat="47.31598" lon="6.26515">
        <ele>259.405</ele>
        <time>2016-09-05T15:35:24.000Z</time>
      </trkpt>
      <trkpt lat="47.31594" lon="6.26511">
        <ele>259.004</ele>
        <time>2016-09-05T15:35:25.000Z</time>
      </trkpt>
      <trkpt lat="47.31591" lon="6.26508">
        <ele>258.744</ele>
        <time>2016-09-05T15:35:26.000Z</time>
      </trkpt>
      <trkpt lat="47.31588" lon="6.26504">
        <ele>258.865</ele>
        <time>2016-09-05T15:35:27.000Z</time>
      </trkpt>
      <trkpt lat="47.31584" lon="6.265">
        <ele>258.475</ele>
        <time>2016-09-05T15:35:28.000Z</time>
      </trkpt>
      <trkpt lat="47.31582" lon="6.26494">
        <ele>257.665</ele>
        <time>2016-09-05T15:35:29.000Z</time>
      </trkpt>
      <trkpt lat="47.31579" lon="6.26489">
        <ele>258.254</ele>
        <time>2016-09-05T15:35:30.000Z</time>
      </trkpt>
      <trkpt lat="47.31578" lon="6.26485">
        <ele>258.641</ele>
        <time>2016-09-05T15:35:31.000Z</time>
      </trkpt>
      <trkpt lat="47.31576" lon="6.2648">
        <ele>258.478</ele>
        <time>2016-09-05T15:35:32.000Z</time>
      </trkpt>
      <trkpt lat="47.31573" lon="6.26475">
        <ele>258.125</ele>
        <time>2016-09-05T15:35:33.000Z</time>
      </trkpt>
      <trkpt lat="47.31569" lon="6.26472">
        <ele>257.224</ele>
        <time>2016-09-05T15:35:34.000Z</time>
      </trkpt>
      <trkpt lat="47.31566" lon="6.26469">
        <ele>259.075</ele>
        <time>2016-09-05T15:35:35.000Z</time>
      </trkpt>
      <trkpt lat="47.31563" lon="6.26462">
        <ele>258.388</ele>
        <time>2016-09-05T15:35:36.000Z</time>
      </trkpt>
      <trkpt lat="47.31559" lon="6.26459">
        <ele>259.041</ele>
        <time>2016-09-05T15:35:37.000Z</time>
      </trkpt>
      <trkpt lat="47.31557" lon="6.26455">
        <ele>259.429</ele>
        <time>2016-09-05T15:35:38.000Z</time>
      </trkpt>
      <trkpt lat="47.31554" lon="6.2645">
        <ele>259.916</ele>
        <time>2016-09-05T15:35:39.000Z</time>
      </trkpt>
      <trkpt lat="47.31552" lon="6.26446">
        <ele>260.127</ele>
        <time>2016-09-05T15:35:40.000Z</time>
      </trkpt>
      <trkpt lat="47.31549" lon="6.26443">
        <ele>260.072</ele>
        <time>2016-09-05T15:35:41.000Z</time>
      </trkpt>
      <trkpt lat="47.31546" lon="6.2644">
        <ele>260.064</ele>
        <time>2016-09-05T15:35:42.000Z</time>
      </trkpt>
      <trkpt lat="47.31543" lon="6.26437">
        <ele>259.065</ele>
        <time>2016-09-05T15:35:43.000Z</time>
      </trkpt>
      <trkpt lat="47.3154" lon="6.26434">
        <ele>258.855</ele>
        <time>2016-09-05T15:35:44.000Z</time>
      </trkpt>
      <trkpt lat="47.31537" lon="6.26433">
        <ele>257.081</ele>
        <time>2016-09-05T15:35:45.000Z</time>
      </trkpt>
      <trkpt lat="47.31535" lon="6.26431">
        <ele>256.996</ele>
        <time>2016-09-05T15:35:46.000Z</time>
      </trkpt>
      <trkpt lat="47.31532" lon="6.2643">
        <ele>257.129</ele>
        <time>2016-09-05T15:35:47.000Z</time>
      </trkpt>
      <trkpt lat="47.31529" lon="6.26428">
        <ele>255.432</ele>
        <time>2016-09-05T15:35:48.000Z</time>
      </trkpt>
      <trkpt lat="47.31526" lon="6.26427">
        <ele>256.169</ele>
        <time>2016-09-05T15:35:49.000Z</time>
      </trkpt>
      <trkpt lat="47.31524" lon="6.26427">
        <ele>256.21</ele>
        <time>2016-09-05T15:35:50.000Z</time>
      </trkpt>
      <trkpt lat="47.31521" lon="6.26427">
        <ele>257.097</ele>
        <time>2016-09-05T15:35:51.000Z</time>
      </trkpt>
      <trkpt lat="47.31519" lon="6.26428">
        <ele>256.841</ele>
        <time>2016-09-05T15:35:52.000Z</time>
      </trkpt>
      <trkpt lat="47.31516" lon="6.26428">
        <ele>256.658</ele>
        <time>2016-09-05T15:35:53.000Z</time>
      </trkpt>
      <trkpt lat="47.31514" lon="6.26428">
        <ele>256.366</ele>
        <time>2016-09-05T15:35:54.000Z</time>
      </trkpt>
      <trkpt lat="47.31511" lon="6.26427">
        <ele>255.54</ele>
        <time>2016-09-05T15:35:55.000Z</time>
      </trkpt>
      <trkpt lat="47.31508" lon="6.26426">
        <ele>255.552</ele>
        <time>2016-09-05T15:35:56.000Z</time>
      </trkpt>
      <trkpt lat="47.31505" lon="6.26425">
        <ele>255.455</ele>
        <time>2016-09-05T15:35:57.000Z</time>
      </trkpt>
      <trkpt lat="47.31501" lon="6.26423">
        <ele>255.796</ele>
        <time>2016-09-05T15:35:58.000Z</time>
      </trkpt>
      <trkpt lat="47.31498" lon="6.26421">
        <ele>255.637</ele>
        <time>2016-09-05T15:35:59.000Z</time>
      </trkpt>
      <trkpt lat="47.31495" lon="6.26419">
        <ele>255.901</ele>
        <time>2016-09-05T15:36:00.000Z</time>
      </trkpt>
      <trkpt lat="47.31491" lon="6.26417">
        <ele>255.996</ele>
        <time>2016-09-05T15:36:01.000Z</time>
      </trkpt>
      <trkpt lat="47.31488" lon="6.26415">
        <ele>255.136</ele>
        <time>2016-09-05T15:36:02.000Z</time>
      </trkpt>
      <trkpt lat="47.31485" lon="6.26414">
        <ele>254.911</ele>
        <time>2016-09-05T15:36:03.000Z</time>
      </trkpt>
      <trkpt lat="47.31482" lon="6.26413">
        <ele>255.535</ele>
        <time>2016-09-05T15:36:04.000Z</time>
      </trkpt>
      <trkpt lat="47.31479" lon="6.26411">
        <ele>255.821</ele>
        <time>2016-09-05T15:36:05.000Z</time>
      </trkpt>
      <trkpt lat="47.31476" lon="6.26411">
        <ele>258.358</ele>
        <time>2016-09-05T15:36:06.000Z</time>
      </trkpt>
      <trkpt lat="47.31474" lon="6.26409">
        <ele>258.175</ele>
        <time>2016-09-05T15:36:07.000Z</time>
      </trkpt>
      <trkpt lat="47.31471" lon="6.26408">
        <ele>258.371</ele>
        <time>2016-09-05T15:36:08.000Z</time>
      </trkpt>
      <trkpt lat="47.31469" lon="6.26406">
        <ele>257.798</ele>
        <time>2016-09-05T15:36:09.000Z</time>
      </trkpt>
      <trkpt lat="47.31466" lon="6.26404">
        <ele>257.669</ele>
        <time>2016-09-05T15:36:10.000Z</time>
      </trkpt>
      <trkpt lat="47.31463" lon="6.26402">
        <ele>258.292</ele>
        <time>2016-09-05T15:36:11.000Z</time>
      </trkpt>
      <trkpt lat="47.3146" lon="6.264">
        <ele>257.305</ele>
        <time>2016-09-05T15:36:12.000Z</time>
      </trkpt>
      <trkpt lat="47.31458" lon="6.26399">
        <ele>257.578</ele>
        <time>2016-09-05T15:36:13.000Z</time>
      </trkpt>
      <trkpt lat="47.31455" lon="6.26398">
        <ele>257.501</ele>
        <time>2016-09-05T15:36:14.000Z</time>
      </trkpt>
      <trkpt lat="47.31452" lon="6.26397">
        <ele>256.21</ele>
        <time>2016-09-05T15:36:15.000Z</time>
      </trkpt>
      <trkpt lat="47.31448" lon="6.26396">
        <ele>255.713</ele>
        <time>2016-09-05T15:36:16.000Z</time>
      </trkpt>
      <trkpt lat="47.31445" lon="6.26394">
        <ele>253.707</ele>
        <time>2016-09-05T15:36:17.000Z</time>
      </trkpt>
      <trkpt lat="47.31441" lon="6.26393">
        <ele>254.077</ele>
        <time>2016-09-05T15:36:18.000Z</time>
      </trkpt>
      <trkpt lat="47.31438" lon="6.26392">
        <ele>252.691</ele>
        <time>2016-09-05T15:36:19.000Z</time>
      </trkpt>
      <trkpt lat="47.31434" lon="6.26391">
        <ele>252.28</ele>
        <time>2016-09-05T15:36:20.000Z</time>
      </trkpt>
      <trkpt lat="47.31431" lon="6.2639">
        <ele>252.941</ele>
        <time>2016-09-05T15:36:21.000Z</time>
      </trkpt>
      <trkpt lat="47.31428" lon="6.26389">
        <ele>253.095</ele>
        <time>2016-09-05T15:36:22.000Z</time>
      </trkpt>
      <trkpt lat="47.31424" lon="6.26389">
        <ele>253.409</ele>
        <time>2016-09-05T15:36:23.000Z</time>
      </trkpt>
      <trkpt lat="47.31421" lon="6.26388">
        <ele>253.508</ele>
        <time>2016-09-05T15:36:24.000Z</time>
      </trkpt>
      <trkpt lat="47.31419" lon="6.26388">
        <ele>254.236</ele>
        <time>2016-09-05T15:36:25.000Z</time>
      </trkpt>
      <trkpt lat="47.31417" lon="6.26388">
        <ele>253.76</ele>
        <time>2016-09-05T15:36:26.000Z</time>
      </trkpt>
      <trkpt lat="47.31417" lon="6.26388">
        <ele>255.82</ele>
        <time>2016-09-05T15:36:27.000Z</time>
      </trkpt>
      <trkpt lat="47.31417" lon="6.26388">
        <ele>255.616</ele>
        <time>2016-09-05T15:36:28.000Z</time>
      </trkpt>
      <trkpt lat="47.31416" lon="6.26389">
        <ele>255.811</ele>
        <time>2016-09-05T15:36:29.000Z</time>
      </trkpt>
      <trkpt lat="47.31416" lon="6.26389">
        <ele>255.713</ele>
        <time>2016-09-05T15:36:30.000Z</time>
      </trkpt>
      <trkpt lat="47.31416" lon="6.26389">
        <ele>255.03</ele>
        <time>2016-09-05T15:36:31.000Z</time>
      </trkpt>
      <trkpt lat="47.31416" lon="6.26389">
        <ele>254.622</ele>
        <time>2016-09-05T15:36:32.000Z</time>
      </trkpt>
      <trkpt lat="47.31417" lon="6.26389">
        <ele>254.898</ele>
        <time>2016-09-05T15:36:33.000Z</time>
      </trkpt>
      <trkpt lat="47.31417" lon="6.26389">
        <ele>255.299</ele>
        <time>2016-09-05T15:36:34.000Z</time>
      </trkpt>
      <trkpt lat="47.31417" lon="6.2639">
        <ele>255.445</ele>
        <time>2016-09-05T15:36:35.000Z</time>
      </trkpt>
      <trkpt lat="47.31417" lon="6.2639">
        <ele>254.716</ele>
        <time>2016-09-05T15:36:36.000Z</time>
      </trkpt>
      <trkpt lat="47.31417" lon="6.2639">
        <ele>256.215</ele>
        <time>2016-09-05T15:36:37.000Z</time>
      </trkpt>
      <trkpt lat="47.31416" lon="6.2639">
        <ele>257.428</ele>
        <time>2016-09-05T15:36:38.000Z</time>
      </trkpt>
      <trkpt lat="47.31416" lon="6.2639">
        <ele>257.944</ele>
        <time>2016-09-05T15:36:39.000Z</time>
      </trkpt>
      <trkpt lat="47.31415" lon="6.2639">
        <ele>257.815</ele>
        <time>2016-09-05T15:36:40.000Z</time>
      </trkpt>
      <trkpt lat="47.31414" lon="6.2639">
        <ele>259.054</ele>
        <time>2016-09-05T15:36:41.000Z</time>
      </trkpt>
      <trkpt lat="47.31413" lon="6.2639">
        <ele>257.683</ele>
        <time>2016-09-05T15:36:42.000Z</time>
      </trkpt>
      <trkpt lat="47.31413" lon="6.2639">
        <ele>256.563</ele>
        <time>2016-09-05T15:36:43.000Z</time>
      </trkpt>
      <trkpt lat="47.31412" lon="6.2639">
        <ele>256.72</ele>
        <time>2016-09-05T15:36:44.000Z</time>
      </trkpt>
      <trkpt lat="47.31412" lon="6.2639">
        <ele>256.271</ele>
        <time>2016-09-05T15:36:45.000Z</time>
      </trkpt>
      <trkpt lat="47.31411" lon="6.2639">
        <ele>255.517</ele>
        <time>2016-09-05T15:36:46.000Z</time>
      </trkpt>
      <trkpt lat="47.3141" lon="6.26391">
        <ele>255.479</ele>
        <time>2016-09-05T15:36:47.000Z</time>
      </trkpt>
      <trkpt lat="47.31409" lon="6.26391">
        <ele>256.767</ele>
        <time>2016-09-05T15:36:48.000Z</time>
      </trkpt>
      <trkpt lat="47.31409" lon="6.26391">
        <ele>256.495</ele>
        <time>2016-09-05T15:36:49.000Z</time>
      </trkpt>
      <trkpt lat="47.31408" lon="6.26391">
        <ele>256.375</ele>
        <time>2016-09-05T15:36:50.000Z</time>
      </trkpt>
      <trkpt lat="47.31408" lon="6.26391">
        <ele>256.021</ele>
        <time>2016-09-05T15:36:51.000Z</time>
      </trkpt>
      <trkpt lat="47.31407" lon="6.26391">
        <ele>256.152</ele>
        <time>2016-09-05T15:36:52.000Z</time>
      </trkpt>
      <trkpt lat="47.31407" lon="6.2639">
        <ele>255.984</ele>
        <time>2016-09-05T15:36:53.000Z</time>
      </trkpt>
      <trkpt lat="47.31406" lon="6.2639">
        <ele>256.809</ele>
        <time>2016-09-05T15:36:54.000Z</time>
      </trkpt>
      <trkpt lat="47.31407" lon="6.26389">
        <ele>256.927</ele>
        <time>2016-09-05T15:36:55.000Z</time>
      </trkpt>
      <trkpt lat="47.31407" lon="6.26389">
        <ele>258.624</ele>
        <time>2016-09-05T15:36:56.000Z</time>
      </trkpt>
      <trkpt lat="47.31407" lon="6.26389">
        <ele>258.35</ele>
        <time>2016-09-05T15:36:57.000Z</time>
      </trkpt>
      <trkpt lat="47.31408" lon="6.26389">
        <ele>258.25</ele>
        <time>2016-09-05T15:36:58.000Z</time>
      </trkpt>
      <trkpt lat="47.31408" lon="6.26389">
        <ele>257.325</ele>
        <time>2016-09-05T15:36:59.000Z</time>
      </trkpt>
      <trkpt lat="47.31408" lon="6.26389">
        <ele>256.336</ele>
        <time>2016-09-05T15:37:00.000Z</time>
      </trkpt>
      <trkpt lat="47.31408" lon="6.26388">
        <ele>256.719</ele>
        <time>2016-09-05T15:37:01.000Z</time>
      </trkpt>
      <trkpt lat="47.31407" lon="6.26389">
        <ele>256.215</ele>
        <time>2016-09-05T15:37:02.000Z</time>
      </trkpt>
      <trkpt lat="47.31407" lon="6.26389">
        <ele>256.501</ele>
        <time>2016-09-05T15:37:03.000Z</time>
      </trkpt>
      <trkpt lat="47.31408" lon="6.26389">
        <ele>256.581</ele>
        <time>2016-09-05T15:37:04.000Z</time>
      </trkpt>
      <trkpt lat="47.31408" lon="6.26389">
        <ele>257.014</ele>
        <time>2016-09-05T15:37:05.000Z</time>
      </trkpt>
      <trkpt lat="47.31408" lon="6.26389">
        <ele>257.57</ele>
        <time>2016-09-05T15:37:06.000Z</time>
      </trkpt>
      <trkpt lat="47.31407" lon="6.26389">
        <ele>257.583</ele>
        <time>2016-09-05T15:37:07.000Z</time>
      </trkpt>
      <trkpt lat="47.31408" lon="6.2639">
        <ele>257.203</ele>
        <time>2016-09-05T15:37:08.000Z</time>
      </trkpt>
      <trkpt lat="47.31408" lon="6.2639">
        <ele>256.564</ele>
        <time>2016-09-05T15:37:09.000Z</time>
      </trkpt>
      <trkpt lat="47.31408" lon="6.2639">
        <ele>256.369</ele>
        <time>2016-09-05T15:37:10.000Z</time>
      </trkpt>
      <trkpt lat="47.31408" lon="6.2639">
        <ele>255.87</ele>
        <time>2016-09-05T15:37:11.000Z</time>
      </trkpt>
      <trkpt lat="47.31408" lon="6.2639">
        <ele>255.982</ele>
        <time>2016-09-05T15:37:12.000Z</time>
      </trkpt>
      <trkpt lat="47.31408" lon="6.2639">
        <ele>257.166</ele>
        <time>2016-09-05T15:37:13.000Z</time>
      </trkpt>
      <trkpt lat="47.31408" lon="6.2639">
        <ele>257.836</ele>
        <time>2016-09-05T15:37:14.000Z</time>
      </trkpt>
      <trkpt lat="47.31408" lon="6.2639">
        <ele>258.512</ele>
        <time>2016-09-05T15:37:15.000Z</time>
      </trkpt>
      <trkpt lat="47.31408" lon="6.26385">
        <ele>259.625</ele>
        <time>2016-09-05T15:37:16.000Z</time>
      </trkpt>
      <trkpt lat="47.31408" lon="6.26385">
        <ele>261.124</ele>
        <time>2016-09-05T15:37:17.000Z</time>
      </trkpt>
      <trkpt lat="47.31408" lon="6.26385">
        <ele>260.519</ele>
        <time>2016-09-05T15:37:18.000Z</time>
      </trkpt>
      <trkpt lat="47.31408" lon="6.26385">
        <ele>260.564</ele>
        <time>2016-09-05T15:37:19.000Z</time>
      </trkpt>
      <trkpt lat="47.31408" lon="6.26385">
        <ele>260.283</ele>
        <time>2016-09-05T15:37:20.000Z</time>
      </trkpt>
      <trkpt lat="47.31407" lon="6.26381">
        <ele>262.795</ele>
        <time>2016-09-05T15:37:21.000Z</time>
      </trkpt>
      <trkpt lat="47.31407" lon="6.26382">
        <ele>263.531</ele>
        <time>2016-09-05T15:37:22.000Z</time>
      </trkpt>
      <trkpt lat="47.31407" lon="6.26383">
        <ele>259.627</ele>
        <time>2016-09-05T15:37:23.000Z</time>
      </trkpt>
      <trkpt lat="47.31407" lon="6.26385">
        <ele>256.211</ele>
        <time>2016-09-05T15:37:24.000Z</time>
      </trkpt>
      <trkpt lat="47.31406" lon="6.26387">
        <ele>251.974</ele>
        <time>2016-09-05T15:37:25.000Z</time>
      </trkpt>
      <trkpt lat="47.31404" lon="6.26388">
        <ele>248.851</ele>
        <time>2016-09-05T15:37:26.000Z</time>
      </trkpt>
      <trkpt lat="47.31402" lon="6.26388">
        <ele>249.061</ele>
        <time>2016-09-05T15:37:27.000Z</time>
      </trkpt>
      <trkpt lat="47.314" lon="6.26388">
        <ele>249.976</ele>
        <time>2016-09-05T15:37:28.000Z</time>
      </trkpt>
      <trkpt lat="47.31398" lon="6.26388">
        <ele>249.987</ele>
        <time>2016-09-05T15:37:29.000Z</time>
      </trkpt>
      <trkpt lat="47.31397" lon="6.26388">
        <ele>250.112</ele>
        <time>2016-09-05T15:37:30.000Z</time>
      </trkpt>
      <trkpt lat="47.31395" lon="6.26387">
        <ele>249.476</ele>
        <time>2016-09-05T15:37:31.000Z</time>
      </trkpt>
      <trkpt lat="47.31394" lon="6.26387">
        <ele>250.084</ele>
        <time>2016-09-05T15:37:32.000Z</time>
      </trkpt>
      <trkpt lat="47.31393" lon="6.26386">
        <ele>251.293</ele>
        <time>2016-09-05T15:37:33.000Z</time>
      </trkpt>
      <trkpt lat="47.31392" lon="6.26384">
        <ele>251.179</ele>
        <time>2016-09-05T15:37:34.000Z</time>
      </trkpt>
      <trkpt lat="47.3139" lon="6.26383">
        <ele>251.528</ele>
        <time>2016-09-05T15:37:35.000Z</time>
      </trkpt>
      <trkpt lat="47.31389" lon="6.26382">
        <ele>251.079</ele>
        <time>2016-09-05T15:37:36.000Z</time>
      </trkpt>
      <trkpt lat="47.31388" lon="6.26381">
        <ele>250.948</ele>
        <time>2016-09-05T15:37:37.000Z</time>
      </trkpt>
      <trkpt lat="47.31388" lon="6.2638">
        <ele>251.944</ele>
        <time>2016-09-05T15:37:38.000Z</time>
      </trkpt>
      <trkpt lat="47.31388" lon="6.2638">
        <ele>252.328</ele>
        <time>2016-09-05T15:37:39.000Z</time>
      </trkpt>
      <trkpt lat="47.31387" lon="6.2638">
        <ele>251.859</ele>
        <time>2016-09-05T15:37:40.000Z</time>
      </trkpt>
      <trkpt lat="47.31387" lon="6.2638">
        <ele>252.481</ele>
        <time>2016-09-05T15:37:41.000Z</time>
      </trkpt>
      <trkpt lat="47.31387" lon="6.2638">
        <ele>251.972</ele>
        <time>2016-09-05T15:37:42.000Z</time>
      </trkpt>
      <trkpt lat="47.31387" lon="6.2638">
        <ele>251.872</ele>
        <time>2016-09-05T15:37:43.000Z</time>
      </trkpt>
      <trkpt lat="47.31386" lon="6.26379">
        <ele>252.786</ele>
        <time>2016-09-05T15:37:44.000Z</time>
      </trkpt>
      <trkpt lat="47.31385" lon="6.26379">
        <ele>252.932</ele>
        <time>2016-09-05T15:37:45.000Z</time>
      </trkpt>
      <trkpt lat="47.31385" lon="6.26379">
        <ele>252.062</ele>
        <time>2016-09-05T15:37:46.000Z</time>
      </trkpt>
      <trkpt lat="47.31384" lon="6.2638">
        <ele>253.151</ele>
        <time>2016-09-05T15:37:47.000Z</time>
      </trkpt>
      <trkpt lat="47.31383" lon="6.26381">
        <ele>251.175</ele>
        <time>2016-09-05T15:37:48.000Z</time>
      </trkpt>
      <trkpt lat="47.31383" lon="6.26382">
        <ele>252.034</ele>
        <time>2016-09-05T15:37:49.000Z</time>
      </trkpt>
      <trkpt lat="47.31382" lon="6.26383">
        <ele>251.493</ele>
        <time>2016-09-05T15:37:50.000Z</time>
      </trkpt>
      <trkpt lat="47.31382" lon="6.26383">
        <ele>251.46</ele>
        <time>2016-09-05T15:37:51.000Z</time>
      </trkpt>
      <trkpt lat="47.31382" lon="6.26384">
        <ele>252.036</ele>
        <time>2016-09-05T15:37:52.000Z</time>
      </trkpt>
      <trkpt lat="47.31381" lon="6.26385">
        <ele>251.834</ele>
        <time>2016-09-05T15:37:53.000Z</time>
      </trkpt>
      <trkpt lat="47.31381" lon="6.26386">
        <ele>252.36</ele>
        <time>2016-09-05T15:37:54.000Z</time>
      </trkpt>
      <trkpt lat="47.31382" lon="6.26387">
        <ele>252.345</ele>
        <time>2016-09-05T15:37:55.000Z</time>
      </trkpt>
      <trkpt lat="47.31382" lon="6.26387">
        <ele>253.427</ele>
        <time>2016-09-05T15:37:56.000Z</time>
      </trkpt>
      <trkpt lat="47.31382" lon="6.26387">
        <ele>253.187</ele>
        <time>2016-09-05T15:37:57.000Z</time>
      </trkpt>
      <trkpt lat="47.31382" lon="6.26387">
        <ele>255.817</ele>
        <time>2016-09-05T15:37:58.000Z</time>
      </trkpt>
      <trkpt lat="47.31382" lon="6.26386">
        <ele>255.806</ele>
        <time>2016-09-05T15:37:59.000Z</time>
      </trkpt>
      <trkpt lat="47.31382" lon="6.26385">
        <ele>256.371</ele>
        <time>2016-09-05T15:38:00.000Z</time>
      </trkpt>
      <trkpt lat="47.31383" lon="6.26384">
        <ele>257.372</ele>
        <time>2016-09-05T15:38:01.000Z</time>
      </trkpt>
      <trkpt lat="47.31383" lon="6.26383">
        <ele>256.384</ele>
        <time>2016-09-05T15:38:02.000Z</time>
      </trkpt>
      <trkpt lat="47.31383" lon="6.26381">
        <ele>256.605</ele>
        <time>2016-09-05T15:38:03.000Z</time>
      </trkpt>
      <trkpt lat="47.31383" lon="6.2638">
        <ele>257.778</ele>
        <time>2016-09-05T15:38:04.000Z</time>
      </trkpt>
      <trkpt lat="47.31383" lon="6.26378">
        <ele>258.37</ele>
        <time>2016-09-05T15:38:05.000Z</time>
      </trkpt>
      <trkpt lat="47.31384" lon="6.26377">
        <ele>258.012</ele>
        <time>2016-09-05T15:38:06.000Z</time>
      </trkpt>
      <trkpt lat="47.31384" lon="6.26376">
        <ele>258.422</ele>
        <time>2016-09-05T15:38:07.000Z</time>
      </trkpt>
      <trkpt lat="47.31386" lon="6.26376">
        <ele>258.918</ele>
        <time>2016-09-05T15:38:08.000Z</time>
      </trkpt>
      <trkpt lat="47.31387" lon="6.26376">
        <ele>258.675</ele>
        <time>2016-09-05T15:38:09.000Z</time>
      </trkpt>
      <trkpt lat="47.31389" lon="6.26375">
        <ele>258.916</ele>
        <time>2016-09-05T15:38:10.000Z</time>
      </trkpt>
      <trkpt lat="47.3139" lon="6.26376">
        <ele>259.731</ele>
        <time>2016-09-05T15:38:11.000Z</time>
      </trkpt>
      <trkpt lat="47.31391" lon="6.26375">
        <ele>259.481</ele>
        <time>2016-09-05T15:38:12.000Z</time>
      </trkpt>
      <trkpt lat="47.31391" lon="6.26374">
        <ele>260.021</ele>
        <time>2016-09-05T15:38:13.000Z</time>
      </trkpt>
      <trkpt lat="47.31391" lon="6.26372">
        <ele>260.239</ele>
        <time>2016-09-05T15:38:14.000Z</time>
      </trkpt>
      <trkpt lat="47.3139" lon="6.26371">
        <ele>260.705</ele>
        <time>2016-09-05T15:38:15.000Z</time>
      </trkpt>
      <trkpt lat="47.31389" lon="6.26371">
        <ele>260.473</ele>
        <time>2016-09-05T15:38:16.000Z</time>
      </trkpt>
      <trkpt lat="47.31389" lon="6.2637">
        <ele>260.235</ele>
        <time>2016-09-05T15:38:17.000Z</time>
      </trkpt>
      <trkpt lat="47.31389" lon="6.26372">
        <ele>259.817</ele>
        <time>2016-09-05T15:38:18.000Z</time>
      </trkpt>
      <trkpt lat="47.31389" lon="6.26374">
        <ele>259.97</ele>
        <time>2016-09-05T15:38:19.000Z</time>
      </trkpt>
      <trkpt lat="47.31389" lon="6.26374">
        <ele>260.253</ele>
        <time>2016-09-05T15:38:20.000Z</time>
      </trkpt>
      <trkpt lat="47.31389" lon="6.26374">
        <ele>260.703</ele>
        <time>2016-09-05T15:38:21.000Z</time>
      </trkpt>
      <trkpt lat="47.31388" lon="6.26381">
        <ele>260.473</ele>
        <time>2016-09-05T15:38:22.000Z</time>
      </trkpt>
      <trkpt lat="47.31387" lon="6.26382">
        <ele>260.52</ele>
        <time>2016-09-05T15:38:23.000Z</time>
      </trkpt>
      <trkpt lat="47.31387" lon="6.26382">
        <ele>260.397</ele>
        <time>2016-09-05T15:38:24.000Z</time>
      </trkpt>
      <trkpt lat="47.31386" lon="6.26382">
        <ele>260.369</ele>
        <time>2016-09-05T15:38:25.000Z</time>
      </trkpt>
      <trkpt lat="47.31385" lon="6.26382">
        <ele>260.083</ele>
        <time>2016-09-05T15:38:26.000Z</time>
      </trkpt>
      <trkpt lat="47.31385" lon="6.26382">
        <ele>260.206</ele>
        <time>2016-09-05T15:38:27.000Z</time>
      </trkpt>
      <trkpt lat="47.31389" lon="6.26386">
        <ele>262.301</ele>
        <time>2016-09-05T15:38:29.000Z</time>
      </trkpt>
      <trkpt lat="47.31389" lon="6.26386">
        <ele>261.788</ele>
        <time>2016-09-05T15:38:30.000Z</time>
      </trkpt>
      <trkpt lat="47.31389" lon="6.26386">
        <ele>261.818</ele>
        <time>2016-09-05T15:38:31.000Z</time>
      </trkpt>
      <trkpt lat="47.31389" lon="6.26386">
        <ele>262.377</ele>
        <time>2016-09-05T15:38:32.000Z</time>
      </trkpt>
      <trkpt lat="47.31389" lon="6.26386">
        <ele>262.067</ele>
        <time>2016-09-05T15:38:33.000Z</time>
      </trkpt>
      <trkpt lat="47.31389" lon="6.26386">
        <ele>262.023</ele>
        <time>2016-09-05T15:38:34.000Z</time>
      </trkpt>
      <trkpt lat="47.31389" lon="6.26386">
        <ele>262.279</ele>
        <time>2016-09-05T15:38:35.000Z</time>
      </trkpt>
      <trkpt lat="47.31389" lon="6.26386">
        <ele>262.824</ele>
        <time>2016-09-05T15:38:36.000Z</time>
      </trkpt>
      <trkpt lat="47.31389" lon="6.26387">
        <ele>261.381</ele>
        <time>2016-09-05T15:38:37.000Z</time>
      </trkpt>
      <trkpt lat="47.31389" lon="6.26383">
        <ele>263.815</ele>
        <time>2016-09-05T15:38:38.000Z</time>
      </trkpt>
      <trkpt lat="47.31388" lon="6.26377">
        <ele>265.389</ele>
        <time>2016-09-05T15:38:39.000Z</time>
      </trkpt>
      <trkpt lat="47.31386" lon="6.26371">
        <ele>265.56</ele>
        <time>2016-09-05T15:38:40.000Z</time>
      </trkpt>
      <trkpt lat="47.31385" lon="6.26366">
        <ele>264.87</ele>
        <time>2016-09-05T15:38:41.000Z</time>
      </trkpt>
      <trkpt lat="47.31385" lon="6.26364">
        <ele>264.751</ele>
        <time>2016-09-05T15:38:42.000Z</time>
      </trkpt>
      <trkpt lat="47.31387" lon="6.26361">
        <ele>263.869</ele>
        <time>2016-09-05T15:38:43.000Z</time>
      </trkpt>
      <trkpt lat="47.31387" lon="6.26357">
        <ele>262.886</ele>
        <time>2016-09-05T15:38:44.000Z</time>
      </trkpt>
      <trkpt lat="47.31388" lon="6.26354">
        <ele>261.862</ele>
        <time>2016-09-05T15:38:45.000Z</time>
      </trkpt>
      <trkpt lat="47.31389" lon="6.26353">
        <ele>261.91</ele>
        <time>2016-09-05T15:38:46.000Z</time>
      </trkpt>
      <trkpt lat="47.31389" lon="6.26353">
        <ele>261.031</ele>
        <time>2016-09-05T15:38:47.000Z</time>
      </trkpt>
      <trkpt lat="47.31392" lon="6.26357">
        <ele>261.136</ele>
        <time>2016-09-05T15:38:48.000Z</time>
      </trkpt>
      <trkpt lat="47.31392" lon="6.26357">
        <ele>259.379</ele>
        <time>2016-09-05T15:38:49.000Z</time>
      </trkpt>
      <trkpt lat="47.31392" lon="6.26357">
        <ele>259.45</ele>
        <time>2016-09-05T15:38:50.000Z</time>
      </trkpt>
      <trkpt lat="47.31392" lon="6.26357">
        <ele>258.939</ele>
        <time>2016-09-05T15:38:51.000Z</time>
      </trkpt>
      <trkpt lat="47.31391" lon="6.26364">
        <ele>258.81</ele>
        <time>2016-09-05T15:38:52.000Z</time>
      </trkpt>
      <trkpt lat="47.31391" lon="6.26364">
        <ele>258.525</ele>
        <time>2016-09-05T15:38:53.000Z</time>
      </trkpt>
      <trkpt lat="47.31391" lon="6.26364">
        <ele>258.154</ele>
        <time>2016-09-05T15:38:54.000Z</time>
      </trkpt>
      <trkpt lat="47.31391" lon="6.26364">
        <ele>257.676</ele>
        <time>2016-09-05T15:38:55.000Z</time>
      </trkpt>
      <trkpt lat="47.31391" lon="6.26364">
        <ele>257.399</ele>
        <time>2016-09-05T15:38:56.000Z</time>
      </trkpt>
      <trkpt lat="47.31391" lon="6.26364">
        <ele>257.328</ele>
        <time>2016-09-05T15:38:57.000Z</time>
      </trkpt>
      <trkpt lat="47.31388" lon="6.2637">
        <ele>257.66</ele>
        <time>2016-09-05T15:38:58.000Z</time>
      </trkpt>
      <trkpt lat="47.31388" lon="6.2637">
        <ele>257.796</ele>
        <time>2016-09-05T15:38:59.000Z</time>
      </trkpt>
      <trkpt lat="47.31388" lon="6.2637">
        <ele>257.881</ele>
        <time>2016-09-05T15:39:00.000Z</time>
      </trkpt>
      <trkpt lat="47.31388" lon="6.2637">
        <ele>258.115</ele>
        <time>2016-09-05T15:39:01.000Z</time>
      </trkpt>
      <trkpt lat="47.31388" lon="6.2637">
        <ele>258.205</ele>
        <time>2016-09-05T15:39:02.000Z</time>
      </trkpt>
      <trkpt lat="47.31388" lon="6.26372">
        <ele>258.221</ele>
        <time>2016-09-05T15:39:03.000Z</time>
      </trkpt>
      <trkpt lat="47.31388" lon="6.26372">
        <ele>257.018</ele>
        <time>2016-09-05T15:39:04.000Z</time>
      </trkpt>
      <trkpt lat="47.31388" lon="6.26372">
        <ele>258.642</ele>
        <time>2016-09-05T15:39:05.000Z</time>
      </trkpt>
      <trkpt lat="47.31387" lon="6.26373">
        <ele>258.97</ele>
        <time>2016-09-05T15:39:06.000Z</time>
      </trkpt>
      <trkpt lat="47.31387" lon="6.26373">
        <ele>259.424</ele>
        <time>2016-09-05T15:39:07.000Z</time>
      </trkpt>
      <trkpt lat="47.31386" lon="6.26374">
        <ele>260.114</ele>
        <time>2016-09-05T15:39:08.000Z</time>
      </trkpt>
      <trkpt lat="47.31386" lon="6.26374">
        <ele>260.326</ele>
        <time>2016-09-05T15:39:09.000Z</time>
      </trkpt>
      <trkpt lat="47.31384" lon="6.26375">
        <ele>261.612</ele>
        <time>2016-09-05T15:39:10.000Z</time>
      </trkpt>
      <trkpt lat="47.31382" lon="6.26375">
        <ele>262.094</ele>
        <time>2016-09-05T15:39:11.000Z</time>
      </trkpt>
      <trkpt lat="47.31378" lon="6.26375">
        <ele>261.565</ele>
        <time>2016-09-05T15:39:13.000Z</time>
      </trkpt>
    </trkseg>
  </trk>
</gpx>